<?xml version='1.0' encoding='UTF-8'?><gpx version="1.1" creator="JPX - https://github.com/jenetics/jpx" xmlns="http://www.topografix.com/GPX/1/1"><trk><trkseg><trkpt lat="44.8828618" lon="7.3280968"><ele>375.0</ele><time>2026-05-01T08:57:17.605Z</time></trkpt><trkpt lat="44.882964" lon="7.3281065"><ele>375.0</ele><time>2026-05-01T08:57:19.605Z</time></trkpt><trkpt lat="44.8831049" lon="7.3280974"><ele>375.0</ele><time>2026-05-01T08:57:23.605Z</time></trkpt><trkpt lat="44.8831213" lon="7.3279998"><ele>375.0</ele><time>2026-05-01T08:57:25.605Z</time></trkpt><trkpt lat="44.8831414" lon="7.3278506"><ele>375.0</ele><time>2026-05-01T08:57:27.605Z</time></trkpt><trkpt lat="44.8831546" lon="7.3277516"><ele>375.4</ele><time>2026-05-01T08:57:28.605Z</time></trkpt><trkpt lat="44.8831662" lon="7.3276293"><ele>375.8</ele><time>2026-05-01T08:57:29.604Z</time></trkpt><trkpt lat="44.8831834" lon="7.3274974"><ele>376.20000000000005</ele><time>2026-05-01T08:57:30.605Z</time></trkpt><trkpt lat="44.883199" lon="7.3273633"><ele>376.6</ele><time>2026-05-01T08:57:31.605Z</time></trkpt><trkpt lat="44.8832117" lon="7.3272339"><ele>377.0</ele><time>2026-05-01T08:57:32.604Z</time></trkpt><trkpt lat="44.883223" lon="7.3271207"><ele>377.1666666666667</ele><time>2026-05-01T08:57:33.605Z</time></trkpt><trkpt lat="44.8832309" lon="7.3270145"><ele>377.33333333333337</ele><time>2026-05-01T08:57:34.605Z</time></trkpt><trkpt lat="44.8832394" lon="7.3269178"><ele>377.5</ele><time>2026-05-01T08:57:35.605Z</time></trkpt><trkpt lat="44.88325" lon="7.3268289"><ele>377.6666666666667</ele><time>2026-05-01T08:57:36.605Z</time></trkpt><trkpt lat="44.8832663" lon="7.3267348"><ele>377.8333333333333</ele><time>2026-05-01T08:57:37.604Z</time></trkpt><trkpt lat="44.8832889" lon="7.3265662"><ele>378.0</ele><time>2026-05-01T08:57:39.605Z</time></trkpt><trkpt lat="44.8833089" lon="7.3263826"><ele>378.0</ele><time>2026-05-01T08:57:41.605Z</time></trkpt><trkpt lat="44.8833167" lon="7.3262848"><ele>378.0</ele><time>2026-05-01T08:57:42.605Z</time></trkpt><trkpt lat="44.8833238" lon="7.3261903"><ele>378.0</ele><time>2026-05-01T08:57:43.605Z</time></trkpt><trkpt lat="44.883332" lon="7.3260959"><ele>378.0</ele><time>2026-05-01T08:57:44.605Z</time></trkpt><trkpt lat="44.8833403" lon="7.3260037"><ele>378.0</ele><time>2026-05-01T08:57:45.605Z</time></trkpt><trkpt lat="44.8833504" lon="7.3259057"><ele>378.0</ele><time>2026-05-01T08:57:46.605Z</time></trkpt><trkpt lat="44.8833644" lon="7.3258114"><ele>378.0</ele><time>2026-05-01T08:57:47.605Z</time></trkpt><trkpt lat="44.8834283" lon="7.3256821"><ele>378.25</ele><time>2026-05-01T08:57:49.605Z</time></trkpt><trkpt lat="44.8835546" lon="7.3256629"><ele>378.5</ele><time>2026-05-01T08:57:51.604Z</time></trkpt><trkpt lat="44.8836453" lon="7.3257016"><ele>378.75</ele><time>2026-05-01T08:57:52.605Z</time></trkpt><trkpt lat="44.8837659" lon="7.3257494"><ele>379.0</ele><time>2026-05-01T08:57:53.605Z</time></trkpt><trkpt lat="44.8839073" lon="7.325791"><ele>379.0</ele><time>2026-05-01T08:57:54.605Z</time></trkpt><trkpt lat="44.884057" lon="7.3258421"><ele>379.0</ele><time>2026-05-01T08:57:55.605Z</time></trkpt><trkpt lat="44.8841829" lon="7.3258799"><ele>379.0</ele><time>2026-05-01T08:57:56.605Z</time></trkpt><trkpt lat="44.8843134" lon="7.3259186"><ele>379.0</ele><time>2026-05-01T08:57:57.604Z</time></trkpt><trkpt lat="44.884453" lon="7.3259536"><ele>379.6</ele><time>2026-05-01T08:57:58.605Z</time></trkpt><trkpt lat="44.8845872" lon="7.3259925"><ele>380.2</ele><time>2026-05-01T08:57:59.605Z</time></trkpt><trkpt lat="44.8847024" lon="7.3260228"><ele>380.8</ele><time>2026-05-01T08:58:00.605Z</time></trkpt><trkpt lat="44.8848016" lon="7.3260547"><ele>381.40000000000003</ele><time>2026-05-01T08:58:01.605Z</time></trkpt><trkpt lat="44.8848813" lon="7.3260746"><ele>382.0</ele><time>2026-05-01T08:58:02.605Z</time></trkpt><trkpt lat="44.8849637" lon="7.3260973"><ele>382.0</ele><time>2026-05-01T08:58:04.605Z</time></trkpt><trkpt lat="44.8850219" lon="7.326164"><ele>382.0</ele><time>2026-05-01T08:59:06.605Z</time></trkpt><trkpt lat="44.8850968" lon="7.3261821"><ele>382.0</ele><time>2026-05-01T08:59:09.605Z</time></trkpt><trkpt lat="44.8851869" lon="7.326109"><ele>382.0</ele><time>2026-05-01T08:59:11.605Z</time></trkpt><trkpt lat="44.885231" lon="7.3259068"><ele>382.0</ele><time>2026-05-01T08:59:13.605Z</time></trkpt><trkpt lat="44.8852563" lon="7.3257428"><ele>383.25</ele><time>2026-05-01T08:59:14.605Z</time></trkpt><trkpt lat="44.8852819" lon="7.3255712"><ele>384.5</ele><time>2026-05-01T08:59:15.605Z</time></trkpt><trkpt lat="44.8853053" lon="7.3253909"><ele>385.75</ele><time>2026-05-01T08:59:16.605Z</time></trkpt><trkpt lat="44.8853339" lon="7.3251813"><ele>387.0</ele><time>2026-05-01T08:59:17.605Z</time></trkpt><trkpt lat="44.8853632" lon="7.324965"><ele>387.0</ele><time>2026-05-01T08:59:18.605Z</time></trkpt><trkpt lat="44.8853896" lon="7.3247606"><ele>387.0</ele><time>2026-05-01T08:59:19.605Z</time></trkpt><trkpt lat="44.8854149" lon="7.3245516"><ele>387.0</ele><time>2026-05-01T08:59:20.605Z</time></trkpt><trkpt lat="44.8854338" lon="7.3243394"><ele>387.0</ele><time>2026-05-01T08:59:21.605Z</time></trkpt><trkpt lat="44.8854476" lon="7.3241174"><ele>386.66666666666663</ele><time>2026-05-01T08:59:22.605Z</time></trkpt><trkpt lat="44.8854599" lon="7.323885"><ele>386.3333333333333</ele><time>2026-05-01T08:59:23.605Z</time></trkpt><trkpt lat="44.8854717" lon="7.3236479"><ele>386.0</ele><time>2026-05-01T08:59:24.605Z</time></trkpt><trkpt lat="44.885476" lon="7.3234037"><ele>386.0</ele><time>2026-05-01T08:59:25.605Z</time></trkpt><trkpt lat="44.88548" lon="7.3231391"><ele>386.0</ele><time>2026-05-01T08:59:26.605Z</time></trkpt><trkpt lat="44.8854889" lon="7.3228653"><ele>386.0</ele><time>2026-05-01T08:59:27.605Z</time></trkpt><trkpt lat="44.8854943" lon="7.3226063"><ele>386.0</ele><time>2026-05-01T08:59:28.604Z</time></trkpt><trkpt lat="44.8855002" lon="7.3223617"><ele>386.0</ele><time>2026-05-01T08:59:29.604Z</time></trkpt><trkpt lat="44.8855043" lon="7.322131"><ele>386.0</ele><time>2026-05-01T08:59:30.605Z</time></trkpt><trkpt lat="44.885511" lon="7.3219313"><ele>386.0</ele><time>2026-05-01T08:59:31.604Z</time></trkpt><trkpt lat="44.885513" lon="7.3217433"><ele>386.0</ele><time>2026-05-01T08:59:32.605Z</time></trkpt><trkpt lat="44.8855173" lon="7.3215713"><ele>386.0</ele><time>2026-05-01T08:59:33.605Z</time></trkpt><trkpt lat="44.8855239" lon="7.3214135"><ele>386.0</ele><time>2026-05-01T08:59:34.604Z</time></trkpt><trkpt lat="44.8855274" lon="7.3212748"><ele>385.99999999999994</ele><time>2026-05-01T08:59:35.605Z</time></trkpt><trkpt lat="44.885532" lon="7.3211511"><ele>386.0</ele><time>2026-05-01T08:59:36.605Z</time></trkpt><trkpt lat="44.8855347" lon="7.32103"><ele>386.0</ele><time>2026-05-01T08:59:37.605Z</time></trkpt><trkpt lat="44.8855361" lon="7.320912"><ele>386.0</ele><time>2026-05-01T08:59:38.605Z</time></trkpt><trkpt lat="44.8855383" lon="7.3208019"><ele>385.99999999999994</ele><time>2026-05-01T08:59:39.605Z</time></trkpt><trkpt lat="44.8855428" lon="7.3207"><ele>386.0</ele><time>2026-05-01T08:59:40.605Z</time></trkpt><trkpt lat="44.8855499" lon="7.3206042"><ele>386.49999999999994</ele><time>2026-05-01T08:59:41.605Z</time></trkpt><trkpt lat="44.8855535" lon="7.3205107"><ele>387.0</ele><time>2026-05-01T08:59:42.605Z</time></trkpt><trkpt lat="44.8855542" lon="7.3204095"><ele>387.5</ele><time>2026-05-01T08:59:43.605Z</time></trkpt><trkpt lat="44.8855588" lon="7.320299"><ele>388.0</ele><time>2026-05-01T08:59:44.605Z</time></trkpt><trkpt lat="44.8855605" lon="7.3201764"><ele>388.49999999999994</ele><time>2026-05-01T08:59:45.604Z</time></trkpt><trkpt lat="44.8855621" lon="7.3200341"><ele>389.0</ele><time>2026-05-01T08:59:46.605Z</time></trkpt><trkpt lat="44.8855705" lon="7.3198788"><ele>388.75</ele><time>2026-05-01T08:59:47.605Z</time></trkpt><trkpt lat="44.8855715" lon="7.3197075"><ele>388.5</ele><time>2026-05-01T08:59:48.605Z</time></trkpt><trkpt lat="44.8855764" lon="7.3195262"><ele>388.25</ele><time>2026-05-01T08:59:49.604Z</time></trkpt><trkpt lat="44.8855805" lon="7.3193366"><ele>388.0</ele><time>2026-05-01T08:59:50.604Z</time></trkpt><trkpt lat="44.8855832" lon="7.3191543"><ele>388.0</ele><time>2026-05-01T08:59:51.605Z</time></trkpt><trkpt lat="44.8855867" lon="7.3189737"><ele>388.0</ele><time>2026-05-01T08:59:52.605Z</time></trkpt><trkpt lat="44.8855906" lon="7.318791"><ele>388.0</ele><time>2026-05-01T08:59:53.605Z</time></trkpt><trkpt lat="44.8855938" lon="7.3186043"><ele>388.0</ele><time>2026-05-01T08:59:54.605Z</time></trkpt><trkpt lat="44.8855975" lon="7.3184135"><ele>387.25</ele><time>2026-05-01T08:59:55.605Z</time></trkpt><trkpt lat="44.8856027" lon="7.3182229"><ele>386.5</ele><time>2026-05-01T08:59:56.605Z</time></trkpt><trkpt lat="44.8856096" lon="7.3180272"><ele>385.75</ele><time>2026-05-01T08:59:57.605Z</time></trkpt><trkpt lat="44.8856155" lon="7.3178291"><ele>385.0</ele><time>2026-05-01T08:59:58.605Z</time></trkpt><trkpt lat="44.8856226" lon="7.3176351"><ele>385.0</ele><time>2026-05-01T08:59:59.605Z</time></trkpt><trkpt lat="44.8856263" lon="7.3174499"><ele>385.0</ele><time>2026-05-01T09:00:00.605Z</time></trkpt><trkpt lat="44.8856304" lon="7.3172613"><ele>385.0</ele><time>2026-05-01T09:00:01.605Z</time></trkpt><trkpt lat="44.8856331" lon="7.3170675"><ele>385.0</ele><time>2026-05-01T09:00:02.605Z</time></trkpt><trkpt lat="44.8856366" lon="7.3168741"><ele>385.75</ele><time>2026-05-01T09:00:03.605Z</time></trkpt><trkpt lat="44.8856404" lon="7.3166933"><ele>386.5</ele><time>2026-05-01T09:00:04.605Z</time></trkpt><trkpt lat="44.8856449" lon="7.3165157"><ele>387.25</ele><time>2026-05-01T09:00:05.605Z</time></trkpt><trkpt lat="44.8856484" lon="7.3163397"><ele>388.0</ele><time>2026-05-01T09:00:06.605Z</time></trkpt><trkpt lat="44.8856517" lon="7.3161667"><ele>388.0</ele><time>2026-05-01T09:00:07.604Z</time></trkpt><trkpt lat="44.8856552" lon="7.3159968"><ele>388.0</ele><time>2026-05-01T09:00:08.605Z</time></trkpt><trkpt lat="44.885659" lon="7.3158266"><ele>388.0</ele><time>2026-05-01T09:00:09.605Z</time></trkpt><trkpt lat="44.8856643" lon="7.3156524"><ele>388.0</ele><time>2026-05-01T09:00:10.605Z</time></trkpt><trkpt lat="44.8856672" lon="7.3154744"><ele>388.0</ele><time>2026-05-01T09:00:11.605Z</time></trkpt><trkpt lat="44.8856713" lon="7.3152933"><ele>388.0</ele><time>2026-05-01T09:00:12.605Z</time></trkpt><trkpt lat="44.8856729" lon="7.3151039"><ele>388.0</ele><time>2026-05-01T09:00:13.605Z</time></trkpt><trkpt lat="44.8856738" lon="7.3149091"><ele>388.0</ele><time>2026-05-01T09:00:14.604Z</time></trkpt><trkpt lat="44.8856775" lon="7.3147144"><ele>388.25</ele><time>2026-05-01T09:00:15.605Z</time></trkpt><trkpt lat="44.8856824" lon="7.3145218"><ele>388.5</ele><time>2026-05-01T09:00:16.605Z</time></trkpt><trkpt lat="44.8856871" lon="7.3143387"><ele>388.75</ele><time>2026-05-01T09:00:17.605Z</time></trkpt><trkpt lat="44.8856891" lon="7.3141565"><ele>389.0</ele><time>2026-05-01T09:00:18.605Z</time></trkpt><trkpt lat="44.8856907" lon="7.313984"><ele>389.25</ele><time>2026-05-01T09:00:19.605Z</time></trkpt><trkpt lat="44.8856938" lon="7.3138173"><ele>389.5</ele><time>2026-05-01T09:00:20.605Z</time></trkpt><trkpt lat="44.8856976" lon="7.3136537"><ele>389.75</ele><time>2026-05-01T09:00:21.605Z</time></trkpt><trkpt lat="44.8856983" lon="7.3134853"><ele>390.0</ele><time>2026-05-01T09:00:22.605Z</time></trkpt><trkpt lat="44.8857013" lon="7.3133261"><ele>390.0</ele><time>2026-05-01T09:00:23.605Z</time></trkpt><trkpt lat="44.8857048" lon="7.3131733"><ele>390.0</ele><time>2026-05-01T09:00:24.605Z</time></trkpt><trkpt lat="44.8857098" lon="7.313025"><ele>390.0</ele><time>2026-05-01T09:00:25.605Z</time></trkpt><trkpt lat="44.885715" lon="7.3128795"><ele>390.0</ele><time>2026-05-01T09:00:26.605Z</time></trkpt><trkpt lat="44.8857211" lon="7.3127389"><ele>390.0</ele><time>2026-05-01T09:00:27.605Z</time></trkpt><trkpt lat="44.8857261" lon="7.3126116"><ele>390.0</ele><time>2026-05-01T09:00:28.605Z</time></trkpt><trkpt lat="44.8857312" lon="7.3124926"><ele>390.0</ele><time>2026-05-01T09:00:29.605Z</time></trkpt><trkpt lat="44.8857372" lon="7.3123792"><ele>390.0</ele><time>2026-05-01T09:00:30.605Z</time></trkpt><trkpt lat="44.8857437" lon="7.3122726"><ele>390.0</ele><time>2026-05-01T09:00:31.605Z</time></trkpt><trkpt lat="44.8857535" lon="7.3121781"><ele>390.0</ele><time>2026-05-01T09:00:32.605Z</time></trkpt><trkpt lat="44.8857749" lon="7.312091"><ele>390.0</ele><time>2026-05-01T09:00:33.605Z</time></trkpt><trkpt lat="44.8858067" lon="7.312012"><ele>390.0</ele><time>2026-05-01T09:00:34.605Z</time></trkpt><trkpt lat="44.8858174" lon="7.3118544"><ele>390.4</ele><time>2026-05-01T09:00:36.605Z</time></trkpt><trkpt lat="44.8857379" lon="7.3117447"><ele>390.8</ele><time>2026-05-01T09:00:38.605Z</time></trkpt><trkpt lat="44.8856091" lon="7.3117202"><ele>391.20000000000005</ele><time>2026-05-01T09:00:40.605Z</time></trkpt><trkpt lat="44.8855254" lon="7.3116843"><ele>391.6</ele><time>2026-05-01T09:00:41.605Z</time></trkpt><trkpt lat="44.8854479" lon="7.3116189"><ele>392.0</ele><time>2026-05-01T09:00:42.605Z</time></trkpt><trkpt lat="44.8853857" lon="7.3115309"><ele>391.99999999999994</ele><time>2026-05-01T09:00:43.605Z</time></trkpt><trkpt lat="44.8853311" lon="7.3114407"><ele>392.0</ele><time>2026-05-01T09:00:44.604Z</time></trkpt><trkpt lat="44.8852784" lon="7.3113584"><ele>392.0</ele><time>2026-05-01T09:00:45.605Z</time></trkpt><trkpt lat="44.8852344" lon="7.3112643"><ele>392.0</ele><time>2026-05-01T09:00:46.605Z</time></trkpt><trkpt lat="44.885187" lon="7.3111674"><ele>391.99999999999994</ele><time>2026-05-01T09:00:47.604Z</time></trkpt><trkpt lat="44.8851368" lon="7.3110651"><ele>392.0</ele><time>2026-05-01T09:00:48.605Z</time></trkpt><trkpt lat="44.8850827" lon="7.3109568"><ele>392.0</ele><time>2026-05-01T09:00:49.605Z</time></trkpt><trkpt lat="44.885024" lon="7.3108301"><ele>392.0</ele><time>2026-05-01T09:00:50.605Z</time></trkpt><trkpt lat="44.8849592" lon="7.3106993"><ele>392.0</ele><time>2026-05-01T09:00:51.605Z</time></trkpt><trkpt lat="44.8848937" lon="7.3105685"><ele>392.0</ele><time>2026-05-01T09:00:52.605Z</time></trkpt><trkpt lat="44.8848331" lon="7.3104268"><ele>392.25</ele><time>2026-05-01T09:00:53.604Z</time></trkpt><trkpt lat="44.8847693" lon="7.3102851"><ele>392.5</ele><time>2026-05-01T09:00:54.605Z</time></trkpt><trkpt lat="44.8847085" lon="7.3101426"><ele>392.75</ele><time>2026-05-01T09:00:55.605Z</time></trkpt><trkpt lat="44.8846487" lon="7.3099958"><ele>393.0</ele><time>2026-05-01T09:00:56.605Z</time></trkpt><trkpt lat="44.8845932" lon="7.3098512"><ele>392.75</ele><time>2026-05-01T09:00:57.604Z</time></trkpt><trkpt lat="44.8845383" lon="7.3097037"><ele>392.5</ele><time>2026-05-01T09:00:58.605Z</time></trkpt><trkpt lat="44.8844893" lon="7.3095491"><ele>392.25</ele><time>2026-05-01T09:00:59.605Z</time></trkpt><trkpt lat="44.8844517" lon="7.3093793"><ele>392.0</ele><time>2026-05-01T09:01:00.604Z</time></trkpt><trkpt lat="44.8844149" lon="7.3092111"><ele>392.0</ele><time>2026-05-01T09:01:01.605Z</time></trkpt><trkpt lat="44.8843846" lon="7.3090427"><ele>392.0</ele><time>2026-05-01T09:01:02.605Z</time></trkpt><trkpt lat="44.8843458" lon="7.3087075"><ele>392.0</ele><time>2026-05-01T09:01:04.604Z</time></trkpt><trkpt lat="44.8843368" lon="7.3085422"><ele>392.40000000000003</ele><time>2026-05-01T09:01:05.605Z</time></trkpt><trkpt lat="44.8843286" lon="7.3083747"><ele>392.8</ele><time>2026-05-01T09:01:06.605Z</time></trkpt><trkpt lat="44.8843225" lon="7.3082189"><ele>393.2</ele><time>2026-05-01T09:01:07.605Z</time></trkpt><trkpt lat="44.8843124" lon="7.3080667"><ele>393.6</ele><time>2026-05-01T09:01:08.605Z</time></trkpt><trkpt lat="44.884307" lon="7.3079213"><ele>394.0</ele><time>2026-05-01T09:01:09.605Z</time></trkpt><trkpt lat="44.8843021" lon="7.3077745"><ele>394.4</ele><time>2026-05-01T09:01:10.605Z</time></trkpt><trkpt lat="44.8842948" lon="7.3076305"><ele>394.79999999999995</ele><time>2026-05-01T09:01:11.605Z</time></trkpt><trkpt lat="44.8842845" lon="7.3074836"><ele>395.20000000000005</ele><time>2026-05-01T09:01:12.605Z</time></trkpt><trkpt lat="44.8842784" lon="7.3073446"><ele>395.6</ele><time>2026-05-01T09:01:13.605Z</time></trkpt><trkpt lat="44.8842731" lon="7.3072074"><ele>396.0</ele><time>2026-05-01T09:01:14.605Z</time></trkpt><trkpt lat="44.8842667" lon="7.3070724"><ele>396.0</ele><time>2026-05-01T09:01:15.605Z</time></trkpt><trkpt lat="44.8842625" lon="7.3069405"><ele>396.0</ele><time>2026-05-01T09:01:16.605Z</time></trkpt><trkpt lat="44.8842571" lon="7.306817"><ele>396.0</ele><time>2026-05-01T09:01:17.605Z</time></trkpt><trkpt lat="44.8842531" lon="7.3066934"><ele>396.0</ele><time>2026-05-01T09:01:18.605Z</time></trkpt><trkpt lat="44.8842497" lon="7.3065796"><ele>396.0</ele><time>2026-05-01T09:01:19.605Z</time></trkpt><trkpt lat="44.8842405" lon="7.3064751"><ele>396.0</ele><time>2026-05-01T09:01:20.605Z</time></trkpt><trkpt lat="44.8842269" lon="7.3063607"><ele>396.0</ele><time>2026-05-01T09:01:21.605Z</time></trkpt><trkpt lat="44.8842168" lon="7.3062358"><ele>396.0</ele><time>2026-05-01T09:01:22.605Z</time></trkpt><trkpt lat="44.8842159" lon="7.3060945"><ele>396.0</ele><time>2026-05-01T09:01:23.605Z</time></trkpt><trkpt lat="44.8842106" lon="7.3059287"><ele>396.0</ele><time>2026-05-01T09:01:24.605Z</time></trkpt><trkpt lat="44.8842028" lon="7.3057419"><ele>396.0</ele><time>2026-05-01T09:01:25.605Z</time></trkpt><trkpt lat="44.8841874" lon="7.305517"><ele>396.0</ele><time>2026-05-01T09:01:26.605Z</time></trkpt><trkpt lat="44.8841749" lon="7.3053109"><ele>396.0</ele><time>2026-05-01T09:01:27.605Z</time></trkpt><trkpt lat="44.8841704" lon="7.3051034"><ele>396.0</ele><time>2026-05-01T09:01:28.605Z</time></trkpt><trkpt lat="44.8841756" lon="7.3048835"><ele>396.0</ele><time>2026-05-01T09:01:29.605Z</time></trkpt><trkpt lat="44.8841849" lon="7.3046678"><ele>396.0</ele><time>2026-05-01T09:01:30.605Z</time></trkpt><trkpt lat="44.8841946" lon="7.3044631"><ele>396.0</ele><time>2026-05-01T09:01:31.604Z</time></trkpt><trkpt lat="44.8842045" lon="7.3042743"><ele>396.0</ele><time>2026-05-01T09:01:32.605Z</time></trkpt><trkpt lat="44.8842216" lon="7.3040933"><ele>396.0</ele><time>2026-05-01T09:01:33.605Z</time></trkpt><trkpt lat="44.8842371" lon="7.303938"><ele>396.0</ele><time>2026-05-01T09:01:34.605Z</time></trkpt><trkpt lat="44.8842493" lon="7.303794"><ele>396.0</ele><time>2026-05-01T09:01:35.605Z</time></trkpt><trkpt lat="44.8842652" lon="7.303654"><ele>396.0</ele><time>2026-05-01T09:01:36.605Z</time></trkpt><trkpt lat="44.8842793" lon="7.3035316"><ele>396.0</ele><time>2026-05-01T09:01:37.604Z</time></trkpt><trkpt lat="44.8842909" lon="7.3034244"><ele>396.5</ele><time>2026-05-01T09:01:38.605Z</time></trkpt><trkpt lat="44.8842957" lon="7.303333"><ele>397.0</ele><time>2026-05-01T09:01:39.605Z</time></trkpt><trkpt lat="44.8842873" lon="7.3031751"><ele>397.5</ele><time>2026-05-01T09:01:41.605Z</time></trkpt><trkpt lat="44.884283" lon="7.3030173"><ele>398.0</ele><time>2026-05-01T09:01:43.605Z</time></trkpt><trkpt lat="44.8842913" lon="7.3029265"><ele>398.5</ele><time>2026-05-01T09:01:44.605Z</time></trkpt><trkpt lat="44.884287" lon="7.3028081"><ele>399.0</ele><time>2026-05-01T09:01:45.605Z</time></trkpt><trkpt lat="44.8842883" lon="7.3026587"><ele>399.4</ele><time>2026-05-01T09:01:46.605Z</time></trkpt><trkpt lat="44.8843054" lon="7.3025093"><ele>399.79999999999995</ele><time>2026-05-01T09:01:47.605Z</time></trkpt><trkpt lat="44.8843285" lon="7.3023714"><ele>400.20000000000005</ele><time>2026-05-01T09:01:48.605Z</time></trkpt><trkpt lat="44.8843551" lon="7.3022382"><ele>400.6</ele><time>2026-05-01T09:01:49.605Z</time></trkpt><trkpt lat="44.8843844" lon="7.3021256"><ele>401.0</ele><time>2026-05-01T09:01:50.605Z</time></trkpt><trkpt lat="44.8844005" lon="7.3020106"><ele>401.20000000000005</ele><time>2026-05-01T09:01:51.605Z</time></trkpt><trkpt lat="44.8844117" lon="7.3018966"><ele>401.40000000000003</ele><time>2026-05-01T09:01:52.605Z</time></trkpt><trkpt lat="44.8844276" lon="7.3017658"><ele>401.6</ele><time>2026-05-01T09:01:53.605Z</time></trkpt><trkpt lat="44.8844429" lon="7.3016262"><ele>401.8</ele><time>2026-05-01T09:01:54.605Z</time></trkpt><trkpt lat="44.8844614" lon="7.3014756"><ele>402.0</ele><time>2026-05-01T09:01:55.605Z</time></trkpt><trkpt lat="44.8844729" lon="7.3013457"><ele>402.3333333333333</ele><time>2026-05-01T09:01:56.605Z</time></trkpt><trkpt lat="44.8844902" lon="7.3012248"><ele>402.66666666666663</ele><time>2026-05-01T09:01:57.605Z</time></trkpt><trkpt lat="44.8845009" lon="7.3011139"><ele>403.0</ele><time>2026-05-01T09:01:58.604Z</time></trkpt><trkpt lat="44.8845095" lon="7.3009997"><ele>403.3333333333333</ele><time>2026-05-01T09:01:59.605Z</time></trkpt><trkpt lat="44.8845195" lon="7.3008823"><ele>403.66666666666663</ele><time>2026-05-01T09:02:00.605Z</time></trkpt><trkpt lat="44.884528" lon="7.3007326"><ele>404.0</ele><time>2026-05-01T09:02:01.605Z</time></trkpt><trkpt lat="44.8845351" lon="7.3005506"><ele>404.0</ele><time>2026-05-01T09:02:02.605Z</time></trkpt><trkpt lat="44.8845516" lon="7.3003344"><ele>404.0</ele><time>2026-05-01T09:02:03.605Z</time></trkpt><trkpt lat="44.884566" lon="7.3001134"><ele>404.0</ele><time>2026-05-01T09:02:04.605Z</time></trkpt><trkpt lat="44.8845818" lon="7.2998704"><ele>404.0</ele><time>2026-05-01T09:02:05.605Z</time></trkpt><trkpt lat="44.8845961" lon="7.2996139"><ele>404.0</ele><time>2026-05-01T09:02:06.605Z</time></trkpt><trkpt lat="44.8846134" lon="7.2993474"><ele>404.0</ele><time>2026-05-01T09:02:07.605Z</time></trkpt><trkpt lat="44.8846311" lon="7.2990758"><ele>404.66666666666663</ele><time>2026-05-01T09:02:08.605Z</time></trkpt><trkpt lat="44.884648" lon="7.2988301"><ele>405.33333333333337</ele><time>2026-05-01T09:02:09.605Z</time></trkpt><trkpt lat="44.8846658" lon="7.2985952"><ele>406.0</ele><time>2026-05-01T09:02:10.605Z</time></trkpt><trkpt lat="44.8846834" lon="7.2983651"><ele>406.0</ele><time>2026-05-01T09:02:11.605Z</time></trkpt><trkpt lat="44.8847024" lon="7.2981487"><ele>406.0</ele><time>2026-05-01T09:02:12.605Z</time></trkpt><trkpt lat="44.8847335" lon="7.2979396"><ele>406.0</ele><time>2026-05-01T09:02:13.605Z</time></trkpt><trkpt lat="44.8847833" lon="7.2977185"><ele>405.33333333333337</ele><time>2026-05-01T09:02:14.605Z</time></trkpt><trkpt lat="44.8848468" lon="7.2975043"><ele>404.66666666666663</ele><time>2026-05-01T09:02:15.605Z</time></trkpt><trkpt lat="44.8849257" lon="7.2972971"><ele>404.0</ele><time>2026-05-01T09:02:16.605Z</time></trkpt><trkpt lat="44.8850155" lon="7.2971024"><ele>405.0</ele><time>2026-05-01T09:02:17.605Z</time></trkpt><trkpt lat="44.8851046" lon="7.2969313"><ele>406.0</ele><time>2026-05-01T09:02:18.605Z</time></trkpt><trkpt lat="44.8851862" lon="7.2967796"><ele>407.0</ele><time>2026-05-01T09:02:19.605Z</time></trkpt><trkpt lat="44.8852615" lon="7.2966513"><ele>408.0</ele><time>2026-05-01T09:02:20.605Z</time></trkpt><trkpt lat="44.8853333" lon="7.2965415"><ele>408.0</ele><time>2026-05-01T09:02:21.605Z</time></trkpt><trkpt lat="44.8854049" lon="7.2964507"><ele>408.0</ele><time>2026-05-01T09:02:22.605Z</time></trkpt><trkpt lat="44.885494" lon="7.2963988"><ele>408.0</ele><time>2026-05-01T09:02:23.605Z</time></trkpt><trkpt lat="44.8855753" lon="7.2963561"><ele>408.0</ele><time>2026-05-01T09:02:24.605Z</time></trkpt><trkpt lat="44.8856339" lon="7.2962805"><ele>408.0</ele><time>2026-05-01T09:02:25.605Z</time></trkpt><trkpt lat="44.8856678" lon="7.2961823"><ele>408.0</ele><time>2026-05-01T09:02:26.605Z</time></trkpt><trkpt lat="44.8856736" lon="7.2960598"><ele>407.5</ele><time>2026-05-01T09:02:27.605Z</time></trkpt><trkpt lat="44.8856656" lon="7.2959104"><ele>407.0</ele><time>2026-05-01T09:02:28.604Z</time></trkpt><trkpt lat="44.885661" lon="7.2957393"><ele>406.5</ele><time>2026-05-01T09:02:29.605Z</time></trkpt><trkpt lat="44.8856585" lon="7.295545"><ele>406.0</ele><time>2026-05-01T09:02:30.605Z</time></trkpt><trkpt lat="44.8856611" lon="7.295335"><ele>406.0</ele><time>2026-05-01T09:02:31.605Z</time></trkpt><trkpt lat="44.8856578" lon="7.2951223"><ele>406.0</ele><time>2026-05-01T09:02:32.605Z</time></trkpt><trkpt lat="44.8856527" lon="7.2949159"><ele>406.0</ele><time>2026-05-01T09:02:33.605Z</time></trkpt><trkpt lat="44.885644" lon="7.2947369"><ele>406.0</ele><time>2026-05-01T09:02:34.605Z</time></trkpt><trkpt lat="44.8856249" lon="7.2945755"><ele>406.6</ele><time>2026-05-01T09:02:35.605Z</time></trkpt><trkpt lat="44.8856036" lon="7.2944301"><ele>407.20000000000005</ele><time>2026-05-01T09:02:36.605Z</time></trkpt><trkpt lat="44.8855839" lon="7.2943009"><ele>407.79999999999995</ele><time>2026-05-01T09:02:37.605Z</time></trkpt><trkpt lat="44.88556" lon="7.2941797"><ele>408.4</ele><time>2026-05-01T09:02:38.605Z</time></trkpt><trkpt lat="44.8855391" lon="7.2940656"><ele>409.0</ele><time>2026-05-01T09:02:39.605Z</time></trkpt><trkpt lat="44.8855149" lon="7.2939455"><ele>408.83333333333337</ele><time>2026-05-01T09:02:40.605Z</time></trkpt><trkpt lat="44.8854906" lon="7.2938211"><ele>408.6666666666667</ele><time>2026-05-01T09:02:41.605Z</time></trkpt><trkpt lat="44.8854653" lon="7.2936945"><ele>408.5</ele><time>2026-05-01T09:02:42.605Z</time></trkpt><trkpt lat="44.8854452" lon="7.2935801"><ele>408.33333333333337</ele><time>2026-05-01T09:02:43.605Z</time></trkpt><trkpt lat="44.8854269" lon="7.2934818"><ele>408.1666666666667</ele><time>2026-05-01T09:02:44.605Z</time></trkpt><trkpt lat="44.885407" lon="7.2933918"><ele>408.0</ele><time>2026-05-01T09:02:45.604Z</time></trkpt><trkpt lat="44.8853825" lon="7.2932733"><ele>408.0</ele><time>2026-05-01T09:02:46.605Z</time></trkpt><trkpt lat="44.8853611" lon="7.2931151"><ele>408.0</ele><time>2026-05-01T09:02:47.605Z</time></trkpt><trkpt lat="44.8853252" lon="7.2929217"><ele>408.0</ele><time>2026-05-01T09:02:48.605Z</time></trkpt><trkpt lat="44.885295" lon="7.2926931"><ele>408.0</ele><time>2026-05-01T09:02:49.605Z</time></trkpt><trkpt lat="44.8852758" lon="7.2924499"><ele>407.66666666666663</ele><time>2026-05-01T09:02:50.605Z</time></trkpt><trkpt lat="44.8852694" lon="7.2921808"><ele>407.3333333333333</ele><time>2026-05-01T09:02:51.605Z</time></trkpt><trkpt lat="44.8852772" lon="7.2918938"><ele>407.0</ele><time>2026-05-01T09:02:52.605Z</time></trkpt><trkpt lat="44.8852964" lon="7.2916046"><ele>407.3333333333333</ele><time>2026-05-01T09:02:53.605Z</time></trkpt><trkpt lat="44.8853155" lon="7.2913182"><ele>407.66666666666663</ele><time>2026-05-01T09:02:54.605Z</time></trkpt><trkpt lat="44.8853323" lon="7.2910361"><ele>408.0</ele><time>2026-05-01T09:02:55.605Z</time></trkpt><trkpt lat="44.8853485" lon="7.2907597"><ele>408.66666666666663</ele><time>2026-05-01T09:02:56.605Z</time></trkpt><trkpt lat="44.8853616" lon="7.2904865"><ele>409.3333333333333</ele><time>2026-05-01T09:02:57.605Z</time></trkpt><trkpt lat="44.8853775" lon="7.2902187"><ele>410.0</ele><time>2026-05-01T09:02:58.605Z</time></trkpt><trkpt lat="44.8853944" lon="7.2899621"><ele>409.66666666666663</ele><time>2026-05-01T09:02:59.605Z</time></trkpt><trkpt lat="44.8854093" lon="7.2897067"><ele>409.33333333333337</ele><time>2026-05-01T09:03:00.605Z</time></trkpt><trkpt lat="44.8854244" lon="7.2894587"><ele>409.0</ele><time>2026-05-01T09:03:01.604Z</time></trkpt><trkpt lat="44.8854411" lon="7.2892263"><ele>409.0</ele><time>2026-05-01T09:03:02.605Z</time></trkpt><trkpt lat="44.8854517" lon="7.2890078"><ele>409.0</ele><time>2026-05-01T09:03:03.605Z</time></trkpt><trkpt lat="44.885457" lon="7.2888065"><ele>409.0</ele><time>2026-05-01T09:03:04.605Z</time></trkpt><trkpt lat="44.8854592" lon="7.2886264"><ele>409.0</ele><time>2026-05-01T09:03:05.605Z</time></trkpt><trkpt lat="44.8854659" lon="7.288488"><ele>409.50000000000006</ele><time>2026-05-01T09:03:06.605Z</time></trkpt><trkpt lat="44.8854673" lon="7.2883938"><ele>410.0</ele><time>2026-05-01T09:03:07.605Z</time></trkpt><trkpt lat="44.885483" lon="7.2882491"><ele>410.5</ele><time>2026-05-01T09:03:09.605Z</time></trkpt><trkpt lat="44.8854956" lon="7.2880971"><ele>411.0</ele><time>2026-05-01T09:03:11.605Z</time></trkpt><trkpt lat="44.885499" lon="7.2879982"><ele>411.50000000000006</ele><time>2026-05-01T09:03:12.605Z</time></trkpt><trkpt lat="44.885492" lon="7.2878902"><ele>412.0</ele><time>2026-05-01T09:03:13.605Z</time></trkpt><trkpt lat="44.885483" lon="7.2877706"><ele>412.0</ele><time>2026-05-01T09:03:14.605Z</time></trkpt><trkpt lat="44.8854696" lon="7.2876534"><ele>412.0</ele><time>2026-05-01T09:03:15.605Z</time></trkpt><trkpt lat="44.8854554" lon="7.2875267"><ele>412.0</ele><time>2026-05-01T09:03:16.605Z</time></trkpt><trkpt lat="44.8854401" lon="7.2873965"><ele>412.0</ele><time>2026-05-01T09:03:17.605Z</time></trkpt><trkpt lat="44.8854199" lon="7.2872609"><ele>412.0</ele><time>2026-05-01T09:03:18.605Z</time></trkpt><trkpt lat="44.8853982" lon="7.2871165"><ele>412.0</ele><time>2026-05-01T09:03:19.605Z</time></trkpt><trkpt lat="44.8853798" lon="7.2869539"><ele>412.0</ele><time>2026-05-01T09:03:20.605Z</time></trkpt><trkpt lat="44.8853614" lon="7.2867911"><ele>412.0</ele><time>2026-05-01T09:03:21.605Z</time></trkpt><trkpt lat="44.8853473" lon="7.2866406"><ele>412.0</ele><time>2026-05-01T09:03:22.605Z</time></trkpt><trkpt lat="44.8853335" lon="7.2864869"><ele>411.5</ele><time>2026-05-01T09:03:23.605Z</time></trkpt><trkpt lat="44.8853221" lon="7.2863335"><ele>411.0</ele><time>2026-05-01T09:03:24.605Z</time></trkpt><trkpt lat="44.8853133" lon="7.286178"><ele>410.5</ele><time>2026-05-01T09:03:25.605Z</time></trkpt><trkpt lat="44.8853128" lon="7.2860102"><ele>410.0</ele><time>2026-05-01T09:03:26.605Z</time></trkpt><trkpt lat="44.8853211" lon="7.2858367"><ele>410.0</ele><time>2026-05-01T09:03:27.605Z</time></trkpt><trkpt lat="44.8853283" lon="7.2856741"><ele>410.0</ele><time>2026-05-01T09:03:28.605Z</time></trkpt><trkpt lat="44.8853343" lon="7.2855252"><ele>410.0</ele><time>2026-05-01T09:03:29.605Z</time></trkpt><trkpt lat="44.885341" lon="7.2853727"><ele>410.0</ele><time>2026-05-01T09:03:30.604Z</time></trkpt><trkpt lat="44.8853508" lon="7.2852241"><ele>410.0</ele><time>2026-05-01T09:03:31.605Z</time></trkpt><trkpt lat="44.8853595" lon="7.2850812"><ele>409.6</ele><time>2026-05-01T09:03:32.605Z</time></trkpt><trkpt lat="44.8853643" lon="7.2849381"><ele>409.2</ele><time>2026-05-01T09:03:33.605Z</time></trkpt><trkpt lat="44.8853759" lon="7.284785"><ele>408.79999999999995</ele><time>2026-05-01T09:03:34.605Z</time></trkpt><trkpt lat="44.8853818" lon="7.2846296"><ele>408.4</ele><time>2026-05-01T09:03:35.605Z</time></trkpt><trkpt lat="44.8853917" lon="7.2844645"><ele>408.0</ele><time>2026-05-01T09:03:36.605Z</time></trkpt><trkpt lat="44.8854042" lon="7.2842888"><ele>408.75</ele><time>2026-05-01T09:03:37.605Z</time></trkpt><trkpt lat="44.885418" lon="7.2841056"><ele>409.5</ele><time>2026-05-01T09:03:38.605Z</time></trkpt><trkpt lat="44.8854321" lon="7.2839166"><ele>410.25</ele><time>2026-05-01T09:03:39.605Z</time></trkpt><trkpt lat="44.8854437" lon="7.2837294"><ele>411.0</ele><time>2026-05-01T09:03:40.605Z</time></trkpt><trkpt lat="44.8854561" lon="7.283541"><ele>411.0</ele><time>2026-05-01T09:03:41.605Z</time></trkpt><trkpt lat="44.8854734" lon="7.2833379"><ele>411.0</ele><time>2026-05-01T09:03:42.605Z</time></trkpt><trkpt lat="44.8854861" lon="7.2831388"><ele>411.0</ele><time>2026-05-01T09:03:43.605Z</time></trkpt><trkpt lat="44.8855007" lon="7.2829365"><ele>411.0</ele><time>2026-05-01T09:03:44.604Z</time></trkpt><trkpt lat="44.885518" lon="7.2827298"><ele>411.0</ele><time>2026-05-01T09:03:45.605Z</time></trkpt><trkpt lat="44.8855396" lon="7.282526"><ele>411.0</ele><time>2026-05-01T09:03:46.605Z</time></trkpt><trkpt lat="44.8855735" lon="7.2823241"><ele>411.0</ele><time>2026-05-01T09:03:47.605Z</time></trkpt><trkpt lat="44.8856194" lon="7.2821294"><ele>411.0</ele><time>2026-05-01T09:03:48.605Z</time></trkpt><trkpt lat="44.885664" lon="7.2819398"><ele>411.0</ele><time>2026-05-01T09:03:49.605Z</time></trkpt><trkpt lat="44.8857097" lon="7.2817528"><ele>411.0</ele><time>2026-05-01T09:03:50.605Z</time></trkpt><trkpt lat="44.8857581" lon="7.2815684"><ele>411.0</ele><time>2026-05-01T09:03:51.605Z</time></trkpt><trkpt lat="44.8858025" lon="7.281378"><ele>411.0</ele><time>2026-05-01T09:03:52.604Z</time></trkpt><trkpt lat="44.8858502" lon="7.2811784"><ele>411.0</ele><time>2026-05-01T09:03:53.605Z</time></trkpt><trkpt lat="44.8859013" lon="7.2809745"><ele>411.0</ele><time>2026-05-01T09:03:54.605Z</time></trkpt><trkpt lat="44.8859534" lon="7.2807646"><ele>411.0</ele><time>2026-05-01T09:03:55.605Z</time></trkpt><trkpt lat="44.8860037" lon="7.2805559"><ele>414.66666666666663</ele><time>2026-05-01T09:03:56.605Z</time></trkpt><trkpt lat="44.8860545" lon="7.2803463"><ele>418.3333333333333</ele><time>2026-05-01T09:03:57.605Z</time></trkpt><trkpt lat="44.886102" lon="7.2801403"><ele>422.0</ele><time>2026-05-01T09:03:58.605Z</time></trkpt><trkpt lat="44.8861396" lon="7.2799329"><ele>422.3333333333333</ele><time>2026-05-01T09:03:59.605Z</time></trkpt><trkpt lat="44.8861729" lon="7.2797228"><ele>422.66666666666663</ele><time>2026-05-01T09:04:00.605Z</time></trkpt><trkpt lat="44.886209" lon="7.2795105"><ele>423.0</ele><time>2026-05-01T09:04:01.605Z</time></trkpt><trkpt lat="44.8862414" lon="7.2793132"><ele>423.0</ele><time>2026-05-01T09:04:02.604Z</time></trkpt><trkpt lat="44.88627" lon="7.2791202"><ele>423.0</ele><time>2026-05-01T09:04:03.605Z</time></trkpt><trkpt lat="44.8862942" lon="7.2789266"><ele>423.0</ele><time>2026-05-01T09:04:04.605Z</time></trkpt><trkpt lat="44.8863216" lon="7.2787419"><ele>423.0</ele><time>2026-05-01T09:04:05.604Z</time></trkpt><trkpt lat="44.8863511" lon="7.2785561"><ele>423.0</ele><time>2026-05-01T09:04:06.605Z</time></trkpt><trkpt lat="44.8863754" lon="7.2783751"><ele>423.0</ele><time>2026-05-01T09:04:07.605Z</time></trkpt><trkpt lat="44.8864031" lon="7.2781949"><ele>423.0</ele><time>2026-05-01T09:04:08.605Z</time></trkpt><trkpt lat="44.8864294" lon="7.2780164"><ele>423.0</ele><time>2026-05-01T09:04:09.605Z</time></trkpt><trkpt lat="44.8864561" lon="7.2778379"><ele>423.0</ele><time>2026-05-01T09:04:10.605Z</time></trkpt><trkpt lat="44.8864833" lon="7.277654"><ele>423.0</ele><time>2026-05-01T09:04:11.605Z</time></trkpt><trkpt lat="44.8865088" lon="7.2774664"><ele>423.0</ele><time>2026-05-01T09:04:12.605Z</time></trkpt><trkpt lat="44.8865348" lon="7.2772825"><ele>423.0</ele><time>2026-05-01T09:04:13.605Z</time></trkpt><trkpt lat="44.8865632" lon="7.2771084"><ele>422.25</ele><time>2026-05-01T09:04:14.605Z</time></trkpt><trkpt lat="44.8865879" lon="7.2769367"><ele>421.5</ele><time>2026-05-01T09:04:15.605Z</time></trkpt><trkpt lat="44.8866103" lon="7.2767652"><ele>420.75</ele><time>2026-05-01T09:04:16.605Z</time></trkpt><trkpt lat="44.8866352" lon="7.2765869"><ele>420.0</ele><time>2026-05-01T09:04:17.605Z</time></trkpt><trkpt lat="44.8866588" lon="7.2764077"><ele>419.5</ele><time>2026-05-01T09:04:18.605Z</time></trkpt><trkpt lat="44.8866871" lon="7.276223"><ele>419.0</ele><time>2026-05-01T09:04:19.605Z</time></trkpt><trkpt lat="44.8867191" lon="7.2760356"><ele>418.5</ele><time>2026-05-01T09:04:20.604Z</time></trkpt><trkpt lat="44.8867475" lon="7.2758463"><ele>418.0</ele><time>2026-05-01T09:04:21.604Z</time></trkpt><trkpt lat="44.8867754" lon="7.2756522"><ele>425.0</ele><time>2026-05-01T09:04:22.605Z</time></trkpt><trkpt lat="44.8868047" lon="7.2754549"><ele>432.0</ele><time>2026-05-01T09:04:23.605Z</time></trkpt><trkpt lat="44.8868349" lon="7.2752559"><ele>439.0</ele><time>2026-05-01T09:04:24.605Z</time></trkpt><trkpt lat="44.8868585" lon="7.2750618"><ele>446.0</ele><time>2026-05-01T09:04:25.605Z</time></trkpt><trkpt lat="44.8868716" lon="7.2748744"><ele>446.75</ele><time>2026-05-01T09:04:26.605Z</time></trkpt><trkpt lat="44.8868722" lon="7.2746923"><ele>447.5</ele><time>2026-05-01T09:04:27.604Z</time></trkpt><trkpt lat="44.8868588" lon="7.2745022"><ele>448.25</ele><time>2026-05-01T09:04:28.604Z</time></trkpt><trkpt lat="44.8868439" lon="7.2743105"><ele>449.0</ele><time>2026-05-01T09:04:29.604Z</time></trkpt><trkpt lat="44.8868244" lon="7.2741217"><ele>450.25</ele><time>2026-05-01T09:04:30.605Z</time></trkpt><trkpt lat="44.8868073" lon="7.2739324"><ele>451.5</ele><time>2026-05-01T09:04:31.605Z</time></trkpt><trkpt lat="44.8867897" lon="7.2737468"><ele>452.75</ele><time>2026-05-01T09:04:32.604Z</time></trkpt><trkpt lat="44.8867746" lon="7.2735614"><ele>454.0</ele><time>2026-05-01T09:04:33.605Z</time></trkpt><trkpt lat="44.8867597" lon="7.2733753"><ele>447.25</ele><time>2026-05-01T09:04:34.605Z</time></trkpt><trkpt lat="44.8867445" lon="7.2731897"><ele>440.5</ele><time>2026-05-01T09:04:35.605Z</time></trkpt><trkpt lat="44.8867278" lon="7.2730091"><ele>433.75</ele><time>2026-05-01T09:04:36.605Z</time></trkpt><trkpt lat="44.8867108" lon="7.2728257"><ele>427.0</ele><time>2026-05-01T09:04:37.605Z</time></trkpt><trkpt lat="44.886693" lon="7.2726439"><ele>427.0</ele><time>2026-05-01T09:04:38.604Z</time></trkpt><trkpt lat="44.8866739" lon="7.2724557"><ele>427.0</ele><time>2026-05-01T09:04:39.605Z</time></trkpt><trkpt lat="44.8866547" lon="7.272263"><ele>427.0</ele><time>2026-05-01T09:04:40.605Z</time></trkpt><trkpt lat="44.8866372" lon="7.2720665"><ele>427.0</ele><time>2026-05-01T09:04:41.605Z</time></trkpt><trkpt lat="44.8866279" lon="7.2718861"><ele>426.75</ele><time>2026-05-01T09:04:42.605Z</time></trkpt><trkpt lat="44.8866309" lon="7.271718"><ele>426.5</ele><time>2026-05-01T09:04:43.605Z</time></trkpt><trkpt lat="44.886642" lon="7.2715512"><ele>426.25</ele><time>2026-05-01T09:04:44.605Z</time></trkpt><trkpt lat="44.8866573" lon="7.2713856"><ele>426.0</ele><time>2026-05-01T09:04:45.605Z</time></trkpt><trkpt lat="44.8866761" lon="7.2712182"><ele>425.75</ele><time>2026-05-01T09:04:46.605Z</time></trkpt><trkpt lat="44.8867023" lon="7.2710506"><ele>425.5</ele><time>2026-05-01T09:04:47.605Z</time></trkpt><trkpt lat="44.8867244" lon="7.2708841"><ele>425.25</ele><time>2026-05-01T09:04:48.605Z</time></trkpt><trkpt lat="44.8867462" lon="7.2707232"><ele>425.0</ele><time>2026-05-01T09:04:49.605Z</time></trkpt><trkpt lat="44.886765" lon="7.2705669"><ele>430.0</ele><time>2026-05-01T09:04:50.605Z</time></trkpt><trkpt lat="44.8867828" lon="7.270411"><ele>435.0</ele><time>2026-05-01T09:04:51.605Z</time></trkpt><trkpt lat="44.8868017" lon="7.2702522"><ele>440.0</ele><time>2026-05-01T09:04:52.605Z</time></trkpt><trkpt lat="44.8868193" lon="7.2700912"><ele>445.0</ele><time>2026-05-01T09:04:53.605Z</time></trkpt><trkpt lat="44.8868391" lon="7.2699207"><ele>444.0</ele><time>2026-05-01T09:04:54.605Z</time></trkpt><trkpt lat="44.8868606" lon="7.2697584"><ele>443.0</ele><time>2026-05-01T09:04:55.604Z</time></trkpt><trkpt lat="44.8868783" lon="7.2695984"><ele>442.0</ele><time>2026-05-01T09:04:56.605Z</time></trkpt><trkpt lat="44.8868955" lon="7.2694446"><ele>441.0</ele><time>2026-05-01T09:04:57.605Z</time></trkpt><trkpt lat="44.886909" lon="7.2692981"><ele>440.0</ele><time>2026-05-01T09:04:58.605Z</time></trkpt><trkpt lat="44.8869223" lon="7.2691513"><ele>440.0</ele><time>2026-05-01T09:04:59.605Z</time></trkpt><trkpt lat="44.8869406" lon="7.2690087"><ele>440.0</ele><time>2026-05-01T09:05:00.605Z</time></trkpt><trkpt lat="44.8869594" lon="7.2688677"><ele>440.0</ele><time>2026-05-01T09:05:01.605Z</time></trkpt><trkpt lat="44.8869808" lon="7.2687285"><ele>440.0</ele><time>2026-05-01T09:05:02.605Z</time></trkpt><trkpt lat="44.887" lon="7.2685866"><ele>440.0</ele><time>2026-05-01T09:05:03.605Z</time></trkpt><trkpt lat="44.8870165" lon="7.2684454"><ele>439.4</ele><time>2026-05-01T09:05:04.605Z</time></trkpt><trkpt lat="44.8870303" lon="7.2683065"><ele>438.8</ele><time>2026-05-01T09:05:05.604Z</time></trkpt><trkpt lat="44.8870452" lon="7.2681667"><ele>438.20000000000005</ele><time>2026-05-01T09:05:06.605Z</time></trkpt><trkpt lat="44.8870605" lon="7.2680284"><ele>437.6</ele><time>2026-05-01T09:05:07.604Z</time></trkpt><trkpt lat="44.8870729" lon="7.2678932"><ele>437.0</ele><time>2026-05-01T09:05:08.604Z</time></trkpt><trkpt lat="44.8870878" lon="7.2677524"><ele>436.8</ele><time>2026-05-01T09:05:09.605Z</time></trkpt><trkpt lat="44.8871052" lon="7.2676235"><ele>436.6</ele><time>2026-05-01T09:05:10.605Z</time></trkpt><trkpt lat="44.8871251" lon="7.2674942"><ele>436.40000000000003</ele><time>2026-05-01T09:05:11.605Z</time></trkpt><trkpt lat="44.8871467" lon="7.267358"><ele>436.20000000000005</ele><time>2026-05-01T09:05:12.605Z</time></trkpt><trkpt lat="44.8871719" lon="7.2672148"><ele>436.0</ele><time>2026-05-01T09:05:13.605Z</time></trkpt><trkpt lat="44.8872053" lon="7.2670706"><ele>435.6</ele><time>2026-05-01T09:05:14.605Z</time></trkpt><trkpt lat="44.8872412" lon="7.2669299"><ele>435.20000000000005</ele><time>2026-05-01T09:05:15.605Z</time></trkpt><trkpt lat="44.8872844" lon="7.2667892"><ele>434.79999999999995</ele><time>2026-05-01T09:05:16.605Z</time></trkpt><trkpt lat="44.8873303" lon="7.2666472"><ele>434.4</ele><time>2026-05-01T09:05:17.605Z</time></trkpt><trkpt lat="44.8873748" lon="7.2665039"><ele>434.0</ele><time>2026-05-01T09:05:18.605Z</time></trkpt><trkpt lat="44.8874215" lon="7.2663617"><ele>433.79999999999995</ele><time>2026-05-01T09:05:19.605Z</time></trkpt><trkpt lat="44.8874676" lon="7.2662264"><ele>433.59999999999997</ele><time>2026-05-01T09:05:20.605Z</time></trkpt><trkpt lat="44.8875141" lon="7.2660941"><ele>433.4</ele><time>2026-05-01T09:05:21.605Z</time></trkpt><trkpt lat="44.8875581" lon="7.2659722"><ele>433.2</ele><time>2026-05-01T09:05:22.605Z</time></trkpt><trkpt lat="44.8875983" lon="7.2658572"><ele>433.0</ele><time>2026-05-01T09:05:23.605Z</time></trkpt><trkpt lat="44.8876357" lon="7.2657538"><ele>435.50000000000006</ele><time>2026-05-01T09:05:24.605Z</time></trkpt><trkpt lat="44.8876679" lon="7.2656573"><ele>438.0</ele><time>2026-05-01T09:05:25.605Z</time></trkpt><trkpt lat="44.8877017" lon="7.265563"><ele>440.5</ele><time>2026-05-01T09:05:26.604Z</time></trkpt><trkpt lat="44.8877396" lon="7.2654623"><ele>443.0</ele><time>2026-05-01T09:05:27.605Z</time></trkpt><trkpt lat="44.8877725" lon="7.2653588"><ele>445.50000000000006</ele><time>2026-05-01T09:05:28.605Z</time></trkpt><trkpt lat="44.8878079" lon="7.2652559"><ele>448.0</ele><time>2026-05-01T09:05:29.605Z</time></trkpt><trkpt lat="44.8878445" lon="7.2651557"><ele>448.00000000000006</ele><time>2026-05-01T09:05:30.605Z</time></trkpt><trkpt lat="44.887879" lon="7.2650542"><ele>448.0</ele><time>2026-05-01T09:05:31.605Z</time></trkpt><trkpt lat="44.8879118" lon="7.2649513"><ele>448.0</ele><time>2026-05-01T09:05:32.605Z</time></trkpt><trkpt lat="44.8879479" lon="7.2648555"><ele>448.0</ele><time>2026-05-01T09:05:33.605Z</time></trkpt><trkpt lat="44.8879838" lon="7.2647611"><ele>448.00000000000006</ele><time>2026-05-01T09:05:34.605Z</time></trkpt><trkpt lat="44.8880241" lon="7.2646557"><ele>448.0</ele><time>2026-05-01T09:05:35.605Z</time></trkpt><trkpt lat="44.888068" lon="7.2645502"><ele>446.0</ele><time>2026-05-01T09:05:36.605Z</time></trkpt><trkpt lat="44.8881192" lon="7.2644436"><ele>443.99999999999994</ele><time>2026-05-01T09:05:37.604Z</time></trkpt><trkpt lat="44.8881746" lon="7.2643316"><ele>441.99999999999994</ele><time>2026-05-01T09:05:38.605Z</time></trkpt><trkpt lat="44.8882399" lon="7.2642237"><ele>440.0</ele><time>2026-05-01T09:05:39.605Z</time></trkpt><trkpt lat="44.8882966" lon="7.2641185"><ele>438.0</ele><time>2026-05-01T09:05:40.605Z</time></trkpt><trkpt lat="44.8883562" lon="7.2640142"><ele>437.0</ele><time>2026-05-01T09:05:41.605Z</time></trkpt><trkpt lat="44.8884134" lon="7.263911"><ele>435.99999999999994</ele><time>2026-05-01T09:05:42.605Z</time></trkpt><trkpt lat="44.8884664" lon="7.2638061"><ele>434.99999999999994</ele><time>2026-05-01T09:05:43.605Z</time></trkpt><trkpt lat="44.8885189" lon="7.2636994"><ele>434.0</ele><time>2026-05-01T09:05:44.605Z</time></trkpt><trkpt lat="44.8885603" lon="7.2635998"><ele>433.0</ele><time>2026-05-01T09:05:45.605Z</time></trkpt><trkpt lat="44.8886056" lon="7.2634824"><ele>435.5</ele><time>2026-05-01T09:05:46.604Z</time></trkpt><trkpt lat="44.8886634" lon="7.2633369"><ele>438.0</ele><time>2026-05-01T09:05:47.605Z</time></trkpt><trkpt lat="44.8887367" lon="7.2631608"><ele>440.5</ele><time>2026-05-01T09:05:48.605Z</time></trkpt><trkpt lat="44.8888281" lon="7.2629502"><ele>443.0</ele><time>2026-05-01T09:05:49.605Z</time></trkpt><trkpt lat="44.8889292" lon="7.2627342"><ele>443.0</ele><time>2026-05-01T09:05:50.605Z</time></trkpt><trkpt lat="44.8890478" lon="7.2624998"><ele>443.0</ele><time>2026-05-01T09:05:51.605Z</time></trkpt><trkpt lat="44.8891713" lon="7.2622501"><ele>443.0</ele><time>2026-05-01T09:05:52.605Z</time></trkpt><trkpt lat="44.8892868" lon="7.2620041"><ele>444.0</ele><time>2026-05-01T09:05:53.605Z</time></trkpt><trkpt lat="44.8894014" lon="7.2617521"><ele>445.0</ele><time>2026-05-01T09:05:54.605Z</time></trkpt><trkpt lat="44.889517" lon="7.2614956"><ele>446.0</ele><time>2026-05-01T09:05:55.604Z</time></trkpt><trkpt lat="44.8896337" lon="7.2612382"><ele>446.0</ele><time>2026-05-01T09:05:56.605Z</time></trkpt><trkpt lat="44.8897536" lon="7.2609814"><ele>446.0</ele><time>2026-05-01T09:05:57.605Z</time></trkpt><trkpt lat="44.8898746" lon="7.2607249"><ele>446.0</ele><time>2026-05-01T09:05:58.605Z</time></trkpt><trkpt lat="44.8899904" lon="7.2604728"><ele>446.66666666666663</ele><time>2026-05-01T09:05:59.605Z</time></trkpt><trkpt lat="44.8901114" lon="7.2602169"><ele>447.33333333333337</ele><time>2026-05-01T09:06:00.605Z</time></trkpt><trkpt lat="44.8902337" lon="7.2599595"><ele>448.0</ele><time>2026-05-01T09:06:01.605Z</time></trkpt><trkpt lat="44.8903504" lon="7.2597078"><ele>448.0</ele><time>2026-05-01T09:06:02.605Z</time></trkpt><trkpt lat="44.8904554" lon="7.2594685"><ele>448.0</ele><time>2026-05-01T09:06:03.605Z</time></trkpt><trkpt lat="44.8905468" lon="7.2592243"><ele>448.0</ele><time>2026-05-01T09:06:04.605Z</time></trkpt><trkpt lat="44.8906209" lon="7.2589562"><ele>447.0</ele><time>2026-05-01T09:06:05.605Z</time></trkpt><trkpt lat="44.8906689" lon="7.2586737"><ele>446.0</ele><time>2026-05-01T09:06:06.605Z</time></trkpt><trkpt lat="44.8907171" lon="7.2583742"><ele>445.0</ele><time>2026-05-01T09:06:07.605Z</time></trkpt><trkpt lat="44.8907617" lon="7.2580568"><ele>443.0</ele><time>2026-05-01T09:06:08.605Z</time></trkpt><trkpt lat="44.8908044" lon="7.2577332"><ele>441.0</ele><time>2026-05-01T09:06:09.605Z</time></trkpt><trkpt lat="44.8908454" lon="7.2574115"><ele>443.5</ele><time>2026-05-01T09:06:10.605Z</time></trkpt><trkpt lat="44.8908916" lon="7.2570903"><ele>446.0</ele><time>2026-05-01T09:06:11.605Z</time></trkpt><trkpt lat="44.890935" lon="7.2567754"><ele>460.3333333333333</ele><time>2026-05-01T09:06:12.605Z</time></trkpt><trkpt lat="44.89098" lon="7.2564603"><ele>474.66666666666663</ele><time>2026-05-01T09:06:13.605Z</time></trkpt><trkpt lat="44.8910217" lon="7.2561614"><ele>489.0</ele><time>2026-05-01T09:06:14.605Z</time></trkpt><trkpt lat="44.8910596" lon="7.2558741"><ele>487.0</ele><time>2026-05-01T09:06:15.605Z</time></trkpt><trkpt lat="44.8910941" lon="7.2555893"><ele>485.0</ele><time>2026-05-01T09:06:16.605Z</time></trkpt><trkpt lat="44.8911193" lon="7.2553035"><ele>483.0</ele><time>2026-05-01T09:06:17.605Z</time></trkpt><trkpt lat="44.8911275" lon="7.2550129"><ele>481.66666666666663</ele><time>2026-05-01T09:06:18.605Z</time></trkpt><trkpt lat="44.8911222" lon="7.2547118"><ele>480.3333333333333</ele><time>2026-05-01T09:06:19.605Z</time></trkpt><trkpt lat="44.891112" lon="7.254409"><ele>479.0</ele><time>2026-05-01T09:06:20.605Z</time></trkpt><trkpt lat="44.891096" lon="7.2541142"><ele>480.3333333333333</ele><time>2026-05-01T09:06:21.605Z</time></trkpt><trkpt lat="44.8910817" lon="7.2538307"><ele>481.66666666666663</ele><time>2026-05-01T09:06:22.604Z</time></trkpt><trkpt lat="44.8910703" lon="7.2535561"><ele>483.0</ele><time>2026-05-01T09:06:23.604Z</time></trkpt><trkpt lat="44.8910566" lon="7.2532892"><ele>486.0</ele><time>2026-05-01T09:06:24.605Z</time></trkpt><trkpt lat="44.8910423" lon="7.2530243"><ele>489.0</ele><time>2026-05-01T09:06:25.605Z</time></trkpt><trkpt lat="44.8910282" lon="7.2527644"><ele>492.0</ele><time>2026-05-01T09:06:26.604Z</time></trkpt><trkpt lat="44.8910128" lon="7.2525226"><ele>495.66666666666663</ele><time>2026-05-01T09:06:27.605Z</time></trkpt><trkpt lat="44.8909897" lon="7.2522858"><ele>499.3333333333333</ele><time>2026-05-01T09:06:28.605Z</time></trkpt><trkpt lat="44.8909663" lon="7.2520543"><ele>503.0</ele><time>2026-05-01T09:06:29.605Z</time></trkpt><trkpt lat="44.8909416" lon="7.2518251"><ele>486.66666666666663</ele><time>2026-05-01T09:06:30.605Z</time></trkpt><trkpt lat="44.8909177" lon="7.2515958"><ele>470.33333333333337</ele><time>2026-05-01T09:06:31.605Z</time></trkpt><trkpt lat="44.8908914" lon="7.2513647"><ele>454.0</ele><time>2026-05-01T09:06:32.604Z</time></trkpt><trkpt lat="44.8908657" lon="7.2511445"><ele>454.0</ele><time>2026-05-01T09:06:33.605Z</time></trkpt><trkpt lat="44.8908383" lon="7.2509298"><ele>454.0</ele><time>2026-05-01T09:06:34.605Z</time></trkpt><trkpt lat="44.8908139" lon="7.2507196"><ele>454.0</ele><time>2026-05-01T09:06:35.605Z</time></trkpt><trkpt lat="44.8907886" lon="7.2505109"><ele>454.33333333333337</ele><time>2026-05-01T09:06:36.605Z</time></trkpt><trkpt lat="44.8907651" lon="7.2503022"><ele>454.66666666666663</ele><time>2026-05-01T09:06:37.605Z</time></trkpt><trkpt lat="44.8907419" lon="7.2500933"><ele>455.0</ele><time>2026-05-01T09:06:38.605Z</time></trkpt><trkpt lat="44.8907179" lon="7.2498835"><ele>454.0</ele><time>2026-05-01T09:06:39.605Z</time></trkpt><trkpt lat="44.8906931" lon="7.2496742"><ele>453.0</ele><time>2026-05-01T09:06:40.605Z</time></trkpt><trkpt lat="44.8906666" lon="7.249463"><ele>452.0</ele><time>2026-05-01T09:06:41.605Z</time></trkpt><trkpt lat="44.8906406" lon="7.2492521"><ele>452.0</ele><time>2026-05-01T09:06:42.605Z</time></trkpt><trkpt lat="44.8906153" lon="7.2490374"><ele>452.0</ele><time>2026-05-01T09:06:43.605Z</time></trkpt><trkpt lat="44.8905946" lon="7.2488212"><ele>452.0</ele><time>2026-05-01T09:06:44.605Z</time></trkpt><trkpt lat="44.8905916" lon="7.2486023"><ele>452.0</ele><time>2026-05-01T09:06:45.605Z</time></trkpt><trkpt lat="44.8905899" lon="7.2483808"><ele>452.0</ele><time>2026-05-01T09:06:46.605Z</time></trkpt><trkpt lat="44.8905996" lon="7.2481606"><ele>452.0</ele><time>2026-05-01T09:06:47.605Z</time></trkpt><trkpt lat="44.8906212" lon="7.2479424"><ele>452.0</ele><time>2026-05-01T09:06:48.605Z</time></trkpt><trkpt lat="44.890658" lon="7.2477241"><ele>452.0</ele><time>2026-05-01T09:06:49.605Z</time></trkpt><trkpt lat="44.8907044" lon="7.2475157"><ele>452.0</ele><time>2026-05-01T09:06:50.605Z</time></trkpt><trkpt lat="44.8907561" lon="7.2473197"><ele>451.75</ele><time>2026-05-01T09:06:51.605Z</time></trkpt><trkpt lat="44.890823" lon="7.2471317"><ele>451.5</ele><time>2026-05-01T09:06:52.605Z</time></trkpt><trkpt lat="44.8908903" lon="7.2469557"><ele>451.25</ele><time>2026-05-01T09:06:53.605Z</time></trkpt><trkpt lat="44.8909577" lon="7.2467954"><ele>451.0</ele><time>2026-05-01T09:06:54.605Z</time></trkpt><trkpt lat="44.8910259" lon="7.2466382"><ele>451.5</ele><time>2026-05-01T09:06:55.605Z</time></trkpt><trkpt lat="44.8910954" lon="7.2464842"><ele>452.0</ele><time>2026-05-01T09:06:56.604Z</time></trkpt><trkpt lat="44.8911666" lon="7.2463403"><ele>452.5</ele><time>2026-05-01T09:06:57.605Z</time></trkpt><trkpt lat="44.8912392" lon="7.2461977"><ele>453.0</ele><time>2026-05-01T09:06:58.605Z</time></trkpt><trkpt lat="44.8913098" lon="7.2460585"><ele>453.0</ele><time>2026-05-01T09:06:59.605Z</time></trkpt><trkpt lat="44.8913742" lon="7.2459271"><ele>452.99999999999994</ele><time>2026-05-01T09:07:00.605Z</time></trkpt><trkpt lat="44.8914361" lon="7.2458026"><ele>452.99999999999994</ele><time>2026-05-01T09:07:01.605Z</time></trkpt><trkpt lat="44.8915008" lon="7.2456892"><ele>453.0</ele><time>2026-05-01T09:07:02.605Z</time></trkpt><trkpt lat="44.8915607" lon="7.2455875"><ele>453.0</ele><time>2026-05-01T09:07:03.605Z</time></trkpt><trkpt lat="44.8916191" lon="7.2454948"><ele>453.3333333333333</ele><time>2026-05-01T09:07:04.605Z</time></trkpt><trkpt lat="44.8916783" lon="7.2454137"><ele>453.66666666666663</ele><time>2026-05-01T09:07:05.605Z</time></trkpt><trkpt lat="44.8917356" lon="7.2453413"><ele>454.0</ele><time>2026-05-01T09:07:06.605Z</time></trkpt><trkpt lat="44.8917881" lon="7.2452816"><ele>454.3333333333333</ele><time>2026-05-01T09:07:07.605Z</time></trkpt><trkpt lat="44.8918416" lon="7.2452246"><ele>454.66666666666663</ele><time>2026-05-01T09:07:08.605Z</time></trkpt><trkpt lat="44.8919333" lon="7.2451205"><ele>455.0</ele><time>2026-05-01T09:07:10.605Z</time></trkpt><trkpt lat="44.892014" lon="7.245018"><ele>454.99999999999994</ele><time>2026-05-01T09:07:12.605Z</time></trkpt><trkpt lat="44.8920634" lon="7.2449531"><ele>455.0</ele><time>2026-05-01T09:07:13.605Z</time></trkpt><trkpt lat="44.8921259" lon="7.244877"><ele>455.0</ele><time>2026-05-01T09:07:14.605Z</time></trkpt><trkpt lat="44.8921981" lon="7.2447948"><ele>455.0</ele><time>2026-05-01T09:07:15.605Z</time></trkpt><trkpt lat="44.8922632" lon="7.2446837"><ele>454.99999999999994</ele><time>2026-05-01T09:07:16.605Z</time></trkpt><trkpt lat="44.8923209" lon="7.2445753"><ele>455.0</ele><time>2026-05-01T09:07:17.605Z</time></trkpt><trkpt lat="44.8923873" lon="7.2444786"><ele>455.0</ele><time>2026-05-01T09:07:18.605Z</time></trkpt><trkpt lat="44.892469" lon="7.2443914"><ele>455.0</ele><time>2026-05-01T09:07:19.605Z</time></trkpt><trkpt lat="44.8925628" lon="7.2443268"><ele>455.0</ele><time>2026-05-01T09:07:20.605Z</time></trkpt><trkpt lat="44.8926679" lon="7.2442878"><ele>455.0</ele><time>2026-05-01T09:07:21.605Z</time></trkpt><trkpt lat="44.8927797" lon="7.244261"><ele>455.0</ele><time>2026-05-01T09:07:22.605Z</time></trkpt><trkpt lat="44.8929026" lon="7.2442386"><ele>456.2</ele><time>2026-05-01T09:07:23.605Z</time></trkpt><trkpt lat="44.8930208" lon="7.2442304"><ele>457.4</ele><time>2026-05-01T09:07:24.605Z</time></trkpt><trkpt lat="44.8931257" lon="7.2442267"><ele>458.6</ele><time>2026-05-01T09:07:25.605Z</time></trkpt><trkpt lat="44.8932255" lon="7.2442283"><ele>459.8</ele><time>2026-05-01T09:07:26.605Z</time></trkpt><trkpt lat="44.893325" lon="7.2442381"><ele>461.0</ele><time>2026-05-01T09:07:27.605Z</time></trkpt><trkpt lat="44.8934202" lon="7.244255"><ele>461.4</ele><time>2026-05-01T09:07:28.605Z</time></trkpt><trkpt lat="44.8935134" lon="7.244274"><ele>461.8</ele><time>2026-05-01T09:07:29.605Z</time></trkpt><trkpt lat="44.893606" lon="7.2442925"><ele>462.19999999999993</ele><time>2026-05-01T09:07:30.605Z</time></trkpt><trkpt lat="44.8936965" lon="7.2443069"><ele>462.59999999999997</ele><time>2026-05-01T09:07:31.605Z</time></trkpt><trkpt lat="44.8937838" lon="7.2443211"><ele>463.0</ele><time>2026-05-01T09:07:32.605Z</time></trkpt><trkpt lat="44.8938736" lon="7.2443337"><ele>463.00000000000006</ele><time>2026-05-01T09:07:33.605Z</time></trkpt><trkpt lat="44.8939616" lon="7.2443441"><ele>463.0</ele><time>2026-05-01T09:07:34.605Z</time></trkpt><trkpt lat="44.89405" lon="7.2443566"><ele>463.0</ele><time>2026-05-01T09:07:35.605Z</time></trkpt><trkpt lat="44.8941403" lon="7.2443729"><ele>463.0</ele><time>2026-05-01T09:07:36.605Z</time></trkpt><trkpt lat="44.8942275" lon="7.2443922"><ele>463.00000000000006</ele><time>2026-05-01T09:07:37.605Z</time></trkpt><trkpt lat="44.8943172" lon="7.2444108"><ele>463.0</ele><time>2026-05-01T09:07:38.605Z</time></trkpt><trkpt lat="44.894407" lon="7.2444285"><ele>462.59999999999997</ele><time>2026-05-01T09:07:39.604Z</time></trkpt><trkpt lat="44.8944966" lon="7.2444468"><ele>462.19999999999993</ele><time>2026-05-01T09:07:40.604Z</time></trkpt><trkpt lat="44.8945871" lon="7.2444657"><ele>461.8</ele><time>2026-05-01T09:07:41.605Z</time></trkpt><trkpt lat="44.8946766" lon="7.2444849"><ele>461.4</ele><time>2026-05-01T09:07:42.605Z</time></trkpt><trkpt lat="44.8947678" lon="7.2445036"><ele>461.0</ele><time>2026-05-01T09:07:43.605Z</time></trkpt><trkpt lat="44.8948572" lon="7.2445231"><ele>461.0</ele><time>2026-05-01T09:07:44.605Z</time></trkpt><trkpt lat="44.894948" lon="7.2445396"><ele>461.0</ele><time>2026-05-01T09:07:45.605Z</time></trkpt><trkpt lat="44.8950376" lon="7.2445536"><ele>461.0</ele><time>2026-05-01T09:07:46.605Z</time></trkpt><trkpt lat="44.8951296" lon="7.244565"><ele>461.0</ele><time>2026-05-01T09:07:47.605Z</time></trkpt><trkpt lat="44.8952196" lon="7.2445753"><ele>461.0</ele><time>2026-05-01T09:07:48.605Z</time></trkpt><trkpt lat="44.8953117" lon="7.2445846"><ele>460.8</ele><time>2026-05-01T09:07:49.605Z</time></trkpt><trkpt lat="44.8954045" lon="7.2446017"><ele>460.6</ele><time>2026-05-01T09:07:50.605Z</time></trkpt><trkpt lat="44.8954998" lon="7.2446216"><ele>460.4</ele><time>2026-05-01T09:07:51.605Z</time></trkpt><trkpt lat="44.8955958" lon="7.2446444"><ele>460.2</ele><time>2026-05-01T09:07:52.605Z</time></trkpt><trkpt lat="44.8956976" lon="7.2446684"><ele>460.0</ele><time>2026-05-01T09:07:53.605Z</time></trkpt><trkpt lat="44.8957981" lon="7.2446939"><ele>460.0</ele><time>2026-05-01T09:07:54.605Z</time></trkpt><trkpt lat="44.895902" lon="7.244722"><ele>460.0</ele><time>2026-05-01T09:07:55.604Z</time></trkpt><trkpt lat="44.8960044" lon="7.2447523"><ele>460.0</ele><time>2026-05-01T09:07:56.605Z</time></trkpt><trkpt lat="44.8961028" lon="7.2447781"><ele>460.0</ele><time>2026-05-01T09:07:57.605Z</time></trkpt><trkpt lat="44.8961924" lon="7.2448077"><ele>460.0</ele><time>2026-05-01T09:07:58.605Z</time></trkpt><trkpt lat="44.8962747" lon="7.2448389"><ele>462.6666666666667</ele><time>2026-05-01T09:07:59.605Z</time></trkpt><trkpt lat="44.8963513" lon="7.2448729"><ele>465.33333333333337</ele><time>2026-05-01T09:08:00.605Z</time></trkpt><trkpt lat="44.8964137" lon="7.2449099"><ele>468.0</ele><time>2026-05-01T09:08:01.605Z</time></trkpt><trkpt lat="44.8964742" lon="7.2449543"><ele>470.66666666666663</ele><time>2026-05-01T09:08:02.605Z</time></trkpt><trkpt lat="44.8965269" lon="7.2450038"><ele>473.3333333333333</ele><time>2026-05-01T09:08:03.605Z</time></trkpt><trkpt lat="44.8966306" lon="7.2450162"><ele>476.0</ele><time>2026-05-01T09:08:05.605Z</time></trkpt><trkpt lat="44.8966603" lon="7.2449069"><ele>473.0</ele><time>2026-05-01T09:08:07.605Z</time></trkpt><trkpt lat="44.8966772" lon="7.2447231"><ele>470.0</ele><time>2026-05-01T09:08:09.605Z</time></trkpt><trkpt lat="44.8967149" lon="7.2446094"><ele>467.0</ele><time>2026-05-01T09:08:10.605Z</time></trkpt><trkpt lat="44.8967545" lon="7.2444731"><ele>464.0</ele><time>2026-05-01T09:08:11.605Z</time></trkpt><trkpt lat="44.8967999" lon="7.2443126"><ele>461.0</ele><time>2026-05-01T09:08:12.605Z</time></trkpt><trkpt lat="44.896851" lon="7.2441604"><ele>460.6</ele><time>2026-05-01T09:08:13.605Z</time></trkpt><trkpt lat="44.8969103" lon="7.2440253"><ele>460.20000000000005</ele><time>2026-05-01T09:08:14.605Z</time></trkpt><trkpt lat="44.8969644" lon="7.2438979"><ele>459.79999999999995</ele><time>2026-05-01T09:08:15.605Z</time></trkpt><trkpt lat="44.8970248" lon="7.2437705"><ele>459.4</ele><time>2026-05-01T09:08:16.605Z</time></trkpt><trkpt lat="44.8970833" lon="7.2436428"><ele>459.0</ele><time>2026-05-01T09:08:17.605Z</time></trkpt><trkpt lat="44.8971408" lon="7.2435254"><ele>459.79999999999995</ele><time>2026-05-01T09:08:18.605Z</time></trkpt><trkpt lat="44.897199" lon="7.2434064"><ele>460.59999999999997</ele><time>2026-05-01T09:08:19.605Z</time></trkpt><trkpt lat="44.8972566" lon="7.2432899"><ele>461.4</ele><time>2026-05-01T09:08:20.605Z</time></trkpt><trkpt lat="44.8973125" lon="7.2431778"><ele>462.2</ele><time>2026-05-01T09:08:21.605Z</time></trkpt><trkpt lat="44.897365" lon="7.2430734"><ele>463.0</ele><time>2026-05-01T09:08:22.605Z</time></trkpt><trkpt lat="44.8974089" lon="7.2429803"><ele>463.71428571428567</ele><time>2026-05-01T09:08:23.605Z</time></trkpt><trkpt lat="44.8974451" lon="7.2428963"><ele>464.4285714285714</ele><time>2026-05-01T09:08:24.605Z</time></trkpt><trkpt lat="44.8974736" lon="7.2428093"><ele>465.1428571428571</ele><time>2026-05-01T09:08:25.605Z</time></trkpt><trkpt lat="44.8974946" lon="7.2427173"><ele>465.8571428571429</ele><time>2026-05-01T09:08:26.605Z</time></trkpt><trkpt lat="44.8975162" lon="7.2426321"><ele>466.5714285714286</ele><time>2026-05-01T09:08:27.605Z</time></trkpt><trkpt lat="44.897545" lon="7.2425244"><ele>467.28571428571433</ele><time>2026-05-01T09:08:29.604Z</time></trkpt><trkpt lat="44.8975354" lon="7.2424297"><ele>468.0</ele><time>2026-05-01T09:09:01.605Z</time></trkpt><trkpt lat="44.8975348" lon="7.2423146"><ele>468.3333333333333</ele><time>2026-05-01T09:09:03.605Z</time></trkpt><trkpt lat="44.8975402" lon="7.2421364"><ele>468.66666666666663</ele><time>2026-05-01T09:09:05.605Z</time></trkpt><trkpt lat="44.8975492" lon="7.2420384"><ele>469.0</ele><time>2026-05-01T09:09:06.605Z</time></trkpt><trkpt lat="44.8975577" lon="7.2419311"><ele>469.3333333333333</ele><time>2026-05-01T09:09:07.605Z</time></trkpt><trkpt lat="44.8975636" lon="7.241821"><ele>469.66666666666663</ele><time>2026-05-01T09:09:08.605Z</time></trkpt><trkpt lat="44.8975686" lon="7.2417054"><ele>470.0</ele><time>2026-05-01T09:09:09.605Z</time></trkpt><trkpt lat="44.8975783" lon="7.2415898"><ele>469.99999999999994</ele><time>2026-05-01T09:09:10.605Z</time></trkpt><trkpt lat="44.8975845" lon="7.2414751"><ele>470.0</ele><time>2026-05-01T09:09:11.605Z</time></trkpt><trkpt lat="44.8975967" lon="7.2413593"><ele>470.0</ele><time>2026-05-01T09:09:12.605Z</time></trkpt><trkpt lat="44.8976082" lon="7.2412399"><ele>470.0</ele><time>2026-05-01T09:09:13.605Z</time></trkpt><trkpt lat="44.897622" lon="7.2411163"><ele>469.99999999999994</ele><time>2026-05-01T09:09:14.605Z</time></trkpt><trkpt lat="44.8976383" lon="7.241002"><ele>470.0</ele><time>2026-05-01T09:09:15.605Z</time></trkpt><trkpt lat="44.8976592" lon="7.2408844"><ele>472.6</ele><time>2026-05-01T09:09:16.605Z</time></trkpt><trkpt lat="44.897694" lon="7.2407657"><ele>475.2</ele><time>2026-05-01T09:09:17.605Z</time></trkpt><trkpt lat="44.8977411" lon="7.2406567"><ele>477.79999999999995</ele><time>2026-05-01T09:09:18.605Z</time></trkpt><trkpt lat="44.897785" lon="7.2405426"><ele>480.4</ele><time>2026-05-01T09:09:19.605Z</time></trkpt><trkpt lat="44.8978347" lon="7.2404254"><ele>483.0</ele><time>2026-05-01T09:09:20.605Z</time></trkpt><trkpt lat="44.8978876" lon="7.2402976"><ele>483.0</ele><time>2026-05-01T09:09:21.605Z</time></trkpt><trkpt lat="44.8979389" lon="7.2401677"><ele>482.99999999999994</ele><time>2026-05-01T09:09:22.604Z</time></trkpt><trkpt lat="44.8979915" lon="7.2400329"><ele>482.99999999999994</ele><time>2026-05-01T09:09:23.605Z</time></trkpt><trkpt lat="44.898041" lon="7.2399137"><ele>483.0</ele><time>2026-05-01T09:09:24.605Z</time></trkpt><trkpt lat="44.8980867" lon="7.2398027"><ele>483.0</ele><time>2026-05-01T09:09:25.605Z</time></trkpt><trkpt lat="44.8981383" lon="7.2397096"><ele>483.0</ele><time>2026-05-01T09:09:26.605Z</time></trkpt><trkpt lat="44.8982047" lon="7.2396483"><ele>483.0</ele><time>2026-05-01T09:09:27.605Z</time></trkpt><trkpt lat="44.8982834" lon="7.2396389"><ele>483.0</ele><time>2026-05-01T09:09:28.605Z</time></trkpt><trkpt lat="44.8983657" lon="7.2396335"><ele>483.0</ele><time>2026-05-01T09:09:29.605Z</time></trkpt><trkpt lat="44.8984566" lon="7.2396077"><ele>483.0</ele><time>2026-05-01T09:09:30.605Z</time></trkpt><trkpt lat="44.8985524" lon="7.2395706"><ele>483.0</ele><time>2026-05-01T09:09:31.605Z</time></trkpt><trkpt lat="44.8986546" lon="7.2395331"><ele>484.3333333333333</ele><time>2026-05-01T09:09:32.605Z</time></trkpt><trkpt lat="44.8987421" lon="7.2394938"><ele>485.66666666666663</ele><time>2026-05-01T09:09:33.605Z</time></trkpt><trkpt lat="44.8988263" lon="7.2394526"><ele>487.0</ele><time>2026-05-01T09:09:34.605Z</time></trkpt><trkpt lat="44.8989065" lon="7.2394121"><ele>488.3333333333333</ele><time>2026-05-01T09:09:35.605Z</time></trkpt><trkpt lat="44.898984" lon="7.2393686"><ele>489.66666666666663</ele><time>2026-05-01T09:09:36.605Z</time></trkpt><trkpt lat="44.8990677" lon="7.2393328"><ele>491.0</ele><time>2026-05-01T09:09:37.605Z</time></trkpt><trkpt lat="44.8991481" lon="7.2393019"><ele>490.99999999999994</ele><time>2026-05-01T09:09:38.605Z</time></trkpt><trkpt lat="44.8992292" lon="7.2392722"><ele>491.0</ele><time>2026-05-01T09:09:39.605Z</time></trkpt><trkpt lat="44.8993036" lon="7.2392566"><ele>491.0</ele><time>2026-05-01T09:09:40.604Z</time></trkpt><trkpt lat="44.8993817" lon="7.2392504"><ele>491.0</ele><time>2026-05-01T09:09:41.605Z</time></trkpt><trkpt lat="44.8994574" lon="7.2392476"><ele>490.99999999999994</ele><time>2026-05-01T09:09:42.605Z</time></trkpt><trkpt lat="44.8995383" lon="7.2392519"><ele>491.0</ele><time>2026-05-01T09:09:43.605Z</time></trkpt><trkpt lat="44.8996166" lon="7.2392824"><ele>491.3333333333333</ele><time>2026-05-01T09:09:44.605Z</time></trkpt><trkpt lat="44.8996982" lon="7.2392994"><ele>491.66666666666663</ele><time>2026-05-01T09:09:45.605Z</time></trkpt><trkpt lat="44.8997663" lon="7.2393099"><ele>492.0</ele><time>2026-05-01T09:09:46.605Z</time></trkpt><trkpt lat="44.8998378" lon="7.2393033"><ele>492.33333333333337</ele><time>2026-05-01T09:09:47.605Z</time></trkpt><trkpt lat="44.8999174" lon="7.2392654"><ele>492.6666666666667</ele><time>2026-05-01T09:09:48.605Z</time></trkpt><trkpt lat="44.8999895" lon="7.2392273"><ele>493.0</ele><time>2026-05-01T09:09:49.605Z</time></trkpt><trkpt lat="44.9000725" lon="7.2391845"><ele>494.25</ele><time>2026-05-01T09:09:50.605Z</time></trkpt><trkpt lat="44.9001974" lon="7.2391577"><ele>495.5</ele><time>2026-05-01T09:09:51.605Z</time></trkpt><trkpt lat="44.9003103" lon="7.239162"><ele>496.75</ele><time>2026-05-01T09:09:52.605Z</time></trkpt><trkpt lat="44.9004253" lon="7.2391406"><ele>498.0</ele><time>2026-05-01T09:09:53.605Z</time></trkpt><trkpt lat="44.9005438" lon="7.2391251"><ele>498.0</ele><time>2026-05-01T09:09:54.605Z</time></trkpt><trkpt lat="44.90066" lon="7.2391026"><ele>498.0</ele><time>2026-05-01T09:09:55.604Z</time></trkpt><trkpt lat="44.9007802" lon="7.2390732"><ele>498.0</ele><time>2026-05-01T09:09:56.605Z</time></trkpt><trkpt lat="44.9009037" lon="7.2390453"><ele>498.0</ele><time>2026-05-01T09:09:57.605Z</time></trkpt><trkpt lat="44.9010299" lon="7.2390154"><ele>499.25</ele><time>2026-05-01T09:09:58.605Z</time></trkpt><trkpt lat="44.9011535" lon="7.2389843"><ele>500.5</ele><time>2026-05-01T09:09:59.605Z</time></trkpt><trkpt lat="44.9012766" lon="7.2389433"><ele>501.75</ele><time>2026-05-01T09:10:00.604Z</time></trkpt><trkpt lat="44.9014047" lon="7.2389021"><ele>503.0</ele><time>2026-05-01T09:10:01.605Z</time></trkpt><trkpt lat="44.9015297" lon="7.2388642"><ele>506.0</ele><time>2026-05-01T09:10:02.605Z</time></trkpt><trkpt lat="44.9016518" lon="7.2388331"><ele>509.0</ele><time>2026-05-01T09:10:03.605Z</time></trkpt><trkpt lat="44.9017692" lon="7.2388147"><ele>512.0</ele><time>2026-05-01T09:10:04.605Z</time></trkpt><trkpt lat="44.9018707" lon="7.2388287"><ele>515.0</ele><time>2026-05-01T09:10:05.605Z</time></trkpt><trkpt lat="44.9019781" lon="7.2388479"><ele>515.0</ele><time>2026-05-01T09:10:06.605Z</time></trkpt><trkpt lat="44.9020878" lon="7.238876"><ele>515.0</ele><time>2026-05-01T09:10:07.605Z</time></trkpt><trkpt lat="44.9022004" lon="7.2389153"><ele>515.0</ele><time>2026-05-01T09:10:08.604Z</time></trkpt><trkpt lat="44.9023149" lon="7.2389577"><ele>515.0</ele><time>2026-05-01T09:10:09.605Z</time></trkpt><trkpt lat="44.9024326" lon="7.2389941"><ele>512.25</ele><time>2026-05-01T09:10:10.605Z</time></trkpt><trkpt lat="44.9025453" lon="7.2390331"><ele>509.5</ele><time>2026-05-01T09:10:11.605Z</time></trkpt><trkpt lat="44.9026632" lon="7.2390608"><ele>506.75</ele><time>2026-05-01T09:10:12.605Z</time></trkpt><trkpt lat="44.9027866" lon="7.2390749"><ele>504.0</ele><time>2026-05-01T09:10:13.605Z</time></trkpt><trkpt lat="44.9029112" lon="7.2390701"><ele>503.75</ele><time>2026-05-01T09:10:14.605Z</time></trkpt><trkpt lat="44.9030438" lon="7.2390547"><ele>503.5</ele><time>2026-05-01T09:10:15.605Z</time></trkpt><trkpt lat="44.9031713" lon="7.239032"><ele>503.25</ele><time>2026-05-01T09:10:16.605Z</time></trkpt><trkpt lat="44.9033068" lon="7.2390106"><ele>503.0</ele><time>2026-05-01T09:10:17.605Z</time></trkpt><trkpt lat="44.9034433" lon="7.2389917"><ele>503.0</ele><time>2026-05-01T09:10:18.605Z</time></trkpt><trkpt lat="44.9035843" lon="7.2389756"><ele>503.0</ele><time>2026-05-01T09:10:19.605Z</time></trkpt><trkpt lat="44.9037284" lon="7.2389594"><ele>503.0</ele><time>2026-05-01T09:10:20.605Z</time></trkpt><trkpt lat="44.9038687" lon="7.2389432"><ele>503.0</ele><time>2026-05-01T09:10:21.605Z</time></trkpt><trkpt lat="44.9040121" lon="7.2389251"><ele>507.5</ele><time>2026-05-01T09:10:22.605Z</time></trkpt><trkpt lat="44.9041563" lon="7.2389112"><ele>512.0</ele><time>2026-05-01T09:10:23.605Z</time></trkpt><trkpt lat="44.9042976" lon="7.2389002"><ele>516.5</ele><time>2026-05-01T09:10:24.605Z</time></trkpt><trkpt lat="44.9044282" lon="7.2389114"><ele>521.0</ele><time>2026-05-01T09:10:25.605Z</time></trkpt><trkpt lat="44.9045528" lon="7.2389379"><ele>518.75</ele><time>2026-05-01T09:10:26.604Z</time></trkpt><trkpt lat="44.9046769" lon="7.2389786"><ele>516.5</ele><time>2026-05-01T09:10:27.605Z</time></trkpt><trkpt lat="44.904798" lon="7.2390282"><ele>514.25</ele><time>2026-05-01T09:10:28.605Z</time></trkpt><trkpt lat="44.9049067" lon="7.2390826"><ele>512.0</ele><time>2026-05-01T09:10:29.605Z</time></trkpt><trkpt lat="44.9050064" lon="7.2391611"><ele>513.0</ele><time>2026-05-01T09:10:30.605Z</time></trkpt><trkpt lat="44.9051144" lon="7.2392433"><ele>514.0</ele><time>2026-05-01T09:10:31.605Z</time></trkpt><trkpt lat="44.9052179" lon="7.2393175"><ele>515.0</ele><time>2026-05-01T09:10:32.605Z</time></trkpt><trkpt lat="44.9053112" lon="7.2393879"><ele>516.0</ele><time>2026-05-01T09:10:33.605Z</time></trkpt><trkpt lat="44.9054068" lon="7.2394554"><ele>516.0</ele><time>2026-05-01T09:10:34.605Z</time></trkpt><trkpt lat="44.9054988" lon="7.2395336"><ele>516.0</ele><time>2026-05-01T09:10:35.605Z</time></trkpt><trkpt lat="44.9056181" lon="7.2395921"><ele>516.0</ele><time>2026-05-01T09:10:36.605Z</time></trkpt><trkpt lat="44.9057371" lon="7.239645"><ele>516.0</ele><time>2026-05-01T09:10:37.605Z</time></trkpt><trkpt lat="44.9058584" lon="7.2397083"><ele>514.5</ele><time>2026-05-01T09:10:38.605Z</time></trkpt><trkpt lat="44.9059789" lon="7.2397679"><ele>513.0</ele><time>2026-05-01T09:10:39.605Z</time></trkpt><trkpt lat="44.9060996" lon="7.2398299"><ele>511.5</ele><time>2026-05-01T09:10:40.605Z</time></trkpt><trkpt lat="44.9062184" lon="7.2398943"><ele>510.0</ele><time>2026-05-01T09:10:41.605Z</time></trkpt><trkpt lat="44.9063399" lon="7.2399567"><ele>510.0</ele><time>2026-05-01T09:10:42.605Z</time></trkpt><trkpt lat="44.906463" lon="7.2400138"><ele>510.0</ele><time>2026-05-01T09:10:43.605Z</time></trkpt><trkpt lat="44.9065906" lon="7.2400734"><ele>510.0</ele><time>2026-05-01T09:10:44.604Z</time></trkpt><trkpt lat="44.9067182" lon="7.2401286"><ele>510.0</ele><time>2026-05-01T09:10:45.605Z</time></trkpt><trkpt lat="44.9068488" lon="7.2401674"><ele>510.0</ele><time>2026-05-01T09:10:46.604Z</time></trkpt><trkpt lat="44.9069808" lon="7.240193"><ele>510.0</ele><time>2026-05-01T09:10:47.605Z</time></trkpt><trkpt lat="44.9071191" lon="7.2402023"><ele>510.0</ele><time>2026-05-01T09:10:48.605Z</time></trkpt><trkpt lat="44.9072534" lon="7.240212"><ele>510.0</ele><time>2026-05-01T09:10:49.605Z</time></trkpt><trkpt lat="44.9073931" lon="7.2402255"><ele>510.0</ele><time>2026-05-01T09:10:50.605Z</time></trkpt><trkpt lat="44.9075262" lon="7.2402445"><ele>510.0</ele><time>2026-05-01T09:10:51.605Z</time></trkpt><trkpt lat="44.9076473" lon="7.2402648"><ele>510.0</ele><time>2026-05-01T09:10:52.605Z</time></trkpt><trkpt lat="44.9077646" lon="7.2402847"><ele>510.0</ele><time>2026-05-01T09:10:53.605Z</time></trkpt><trkpt lat="44.9078704" lon="7.2403153"><ele>510.2</ele><time>2026-05-01T09:10:54.605Z</time></trkpt><trkpt lat="44.9079599" lon="7.2403713"><ele>510.4</ele><time>2026-05-01T09:10:55.605Z</time></trkpt><trkpt lat="44.908036" lon="7.2404638"><ele>510.6</ele><time>2026-05-01T09:10:56.605Z</time></trkpt><trkpt lat="44.9080863" lon="7.2405842"><ele>510.8</ele><time>2026-05-01T09:10:57.605Z</time></trkpt><trkpt lat="44.9081317" lon="7.2407112"><ele>511.0</ele><time>2026-05-01T09:10:58.605Z</time></trkpt><trkpt lat="44.9081751" lon="7.2408511"><ele>511.0</ele><time>2026-05-01T09:10:59.605Z</time></trkpt><trkpt lat="44.9082179" lon="7.2409924"><ele>511.0</ele><time>2026-05-01T09:11:00.605Z</time></trkpt><trkpt lat="44.9082583" lon="7.2411278"><ele>511.0</ele><time>2026-05-01T09:11:01.605Z</time></trkpt><trkpt lat="44.9082946" lon="7.2412507"><ele>511.0</ele><time>2026-05-01T09:11:02.605Z</time></trkpt><trkpt lat="44.9083425" lon="7.2413593"><ele>511.0</ele><time>2026-05-01T09:11:03.605Z</time></trkpt><trkpt lat="44.9084074" lon="7.2414538"><ele>511.5</ele><time>2026-05-01T09:11:04.605Z</time></trkpt><trkpt lat="44.9084963" lon="7.2415416"><ele>512.0</ele><time>2026-05-01T09:11:05.605Z</time></trkpt><trkpt lat="44.9086054" lon="7.2416376"><ele>512.5</ele><time>2026-05-01T09:11:06.605Z</time></trkpt><trkpt lat="44.9087192" lon="7.2417451"><ele>513.0</ele><time>2026-05-01T09:11:07.605Z</time></trkpt><trkpt lat="44.9088398" lon="7.2418514"><ele>513.0</ele><time>2026-05-01T09:11:08.605Z</time></trkpt><trkpt lat="44.9089673" lon="7.2419607"><ele>513.0</ele><time>2026-05-01T09:11:09.605Z</time></trkpt><trkpt lat="44.9091006" lon="7.2420676"><ele>513.0</ele><time>2026-05-01T09:11:10.605Z</time></trkpt><trkpt lat="44.9092248" lon="7.2421815"><ele>510.25</ele><time>2026-05-01T09:11:11.605Z</time></trkpt><trkpt lat="44.9093309" lon="7.2422995"><ele>507.5</ele><time>2026-05-01T09:11:12.605Z</time></trkpt><trkpt lat="44.9094399" lon="7.242411"><ele>504.75</ele><time>2026-05-01T09:11:13.605Z</time></trkpt><trkpt lat="44.9095635" lon="7.2425149"><ele>502.0</ele><time>2026-05-01T09:11:14.605Z</time></trkpt><trkpt lat="44.9096949" lon="7.2426017"><ele>502.0</ele><time>2026-05-01T09:11:15.605Z</time></trkpt><trkpt lat="44.9098268" lon="7.2426727"><ele>502.0</ele><time>2026-05-01T09:11:16.605Z</time></trkpt><trkpt lat="44.909952" lon="7.2427241"><ele>502.0</ele><time>2026-05-01T09:11:17.605Z</time></trkpt><trkpt lat="44.9100803" lon="7.2427594"><ele>502.0</ele><time>2026-05-01T09:11:18.605Z</time></trkpt><trkpt lat="44.9102048" lon="7.2427783"><ele>502.25</ele><time>2026-05-01T09:11:19.605Z</time></trkpt><trkpt lat="44.9103322" lon="7.2427655"><ele>502.5</ele><time>2026-05-01T09:11:20.604Z</time></trkpt><trkpt lat="44.9104584" lon="7.2427204"><ele>502.75</ele><time>2026-05-01T09:11:21.605Z</time></trkpt><trkpt lat="44.9105901" lon="7.2426609"><ele>503.0</ele><time>2026-05-01T09:11:22.605Z</time></trkpt><trkpt lat="44.9107143" lon="7.2426061"><ele>503.0</ele><time>2026-05-01T09:11:23.605Z</time></trkpt><trkpt lat="44.91083" lon="7.2425582"><ele>503.0</ele><time>2026-05-01T09:11:24.605Z</time></trkpt><trkpt lat="44.9109476" lon="7.242517"><ele>503.0</ele><time>2026-05-01T09:11:25.605Z</time></trkpt><trkpt lat="44.9110664" lon="7.2424956"><ele>503.0</ele><time>2026-05-01T09:11:26.605Z</time></trkpt><trkpt lat="44.9111875" lon="7.2425058"><ele>504.75</ele><time>2026-05-01T09:11:27.605Z</time></trkpt><trkpt lat="44.9113182" lon="7.2425552"><ele>506.5</ele><time>2026-05-01T09:11:28.604Z</time></trkpt><trkpt lat="44.9114578" lon="7.2426261"><ele>508.25</ele><time>2026-05-01T09:11:29.605Z</time></trkpt><trkpt lat="44.9116042" lon="7.2426966"><ele>510.0</ele><time>2026-05-01T09:11:30.605Z</time></trkpt><trkpt lat="44.9117545" lon="7.2427631"><ele>512.75</ele><time>2026-05-01T09:11:31.605Z</time></trkpt><trkpt lat="44.9118998" lon="7.2428227"><ele>515.5</ele><time>2026-05-01T09:11:32.605Z</time></trkpt><trkpt lat="44.9120391" lon="7.2428839"><ele>518.25</ele><time>2026-05-01T09:11:33.605Z</time></trkpt><trkpt lat="44.9121766" lon="7.2429447"><ele>521.0</ele><time>2026-05-01T09:11:34.605Z</time></trkpt><trkpt lat="44.9123054" lon="7.2430009"><ele>521.0</ele><time>2026-05-01T09:11:35.605Z</time></trkpt><trkpt lat="44.912434" lon="7.2430517"><ele>521.0</ele><time>2026-05-01T09:11:36.605Z</time></trkpt><trkpt lat="44.9125757" lon="7.2430815"><ele>521.0</ele><time>2026-05-01T09:11:37.605Z</time></trkpt><trkpt lat="44.9127216" lon="7.2431032"><ele>521.0</ele><time>2026-05-01T09:11:38.605Z</time></trkpt><trkpt lat="44.912872" lon="7.2431077"><ele>520.5</ele><time>2026-05-01T09:11:39.604Z</time></trkpt><trkpt lat="44.9130077" lon="7.2431237"><ele>520.0</ele><time>2026-05-01T09:11:40.605Z</time></trkpt><trkpt lat="44.9131374" lon="7.2431493"><ele>519.5</ele><time>2026-05-01T09:11:41.605Z</time></trkpt><trkpt lat="44.9132577" lon="7.2431801"><ele>519.0</ele><time>2026-05-01T09:11:42.605Z</time></trkpt><trkpt lat="44.9133751" lon="7.2431856"><ele>514.0</ele><time>2026-05-01T09:11:43.605Z</time></trkpt><trkpt lat="44.9134757" lon="7.2431646"><ele>509.0</ele><time>2026-05-01T09:11:44.604Z</time></trkpt><trkpt lat="44.9135676" lon="7.2430976"><ele>504.0</ele><time>2026-05-01T09:11:45.605Z</time></trkpt><trkpt lat="44.9136504" lon="7.2429679"><ele>499.0</ele><time>2026-05-01T09:11:46.605Z</time></trkpt><trkpt lat="44.9137423" lon="7.2428075"><ele>499.0</ele><time>2026-05-01T09:11:47.605Z</time></trkpt><trkpt lat="44.913842" lon="7.2426513"><ele>499.0</ele><time>2026-05-01T09:11:48.605Z</time></trkpt><trkpt lat="44.9139439" lon="7.2425115"><ele>499.0</ele><time>2026-05-01T09:11:49.605Z</time></trkpt><trkpt lat="44.9140481" lon="7.2423917"><ele>499.0</ele><time>2026-05-01T09:11:50.605Z</time></trkpt><trkpt lat="44.9141604" lon="7.2423073"><ele>503.5</ele><time>2026-05-01T09:11:51.605Z</time></trkpt><trkpt lat="44.9142723" lon="7.2422429"><ele>508.0</ele><time>2026-05-01T09:11:52.605Z</time></trkpt><trkpt lat="44.9143942" lon="7.2421929"><ele>512.5</ele><time>2026-05-01T09:11:53.605Z</time></trkpt><trkpt lat="44.9145198" lon="7.242162"><ele>517.0</ele><time>2026-05-01T09:11:54.605Z</time></trkpt><trkpt lat="44.9146502" lon="7.242134"><ele>517.0</ele><time>2026-05-01T09:11:55.605Z</time></trkpt><trkpt lat="44.9147747" lon="7.2421063"><ele>517.0</ele><time>2026-05-01T09:11:56.604Z</time></trkpt><trkpt lat="44.9148922" lon="7.2420838"><ele>517.0</ele><time>2026-05-01T09:11:57.605Z</time></trkpt><trkpt lat="44.9149951" lon="7.2420629"><ele>517.0</ele><time>2026-05-01T09:11:58.605Z</time></trkpt><trkpt lat="44.9150897" lon="7.2420543"><ele>517.0</ele><time>2026-05-01T09:11:59.605Z</time></trkpt><trkpt lat="44.9151725" lon="7.242059"><ele>516.6</ele><time>2026-05-01T09:12:00.605Z</time></trkpt><trkpt lat="44.9152454" lon="7.2420846"><ele>516.2</ele><time>2026-05-01T09:12:01.605Z</time></trkpt><trkpt lat="44.9152987" lon="7.2421343"><ele>515.8</ele><time>2026-05-01T09:12:02.605Z</time></trkpt><trkpt lat="44.915346" lon="7.2422673"><ele>515.4</ele><time>2026-05-01T09:12:04.605Z</time></trkpt><trkpt lat="44.9154146" lon="7.2423595"><ele>515.0</ele><time>2026-05-01T09:12:06.604Z</time></trkpt><trkpt lat="44.915546" lon="7.2422843"><ele>515.0</ele><time>2026-05-01T09:12:08.604Z</time></trkpt><trkpt lat="44.9156537" lon="7.2422085"><ele>515.0</ele><time>2026-05-01T09:12:09.604Z</time></trkpt><trkpt lat="44.9157689" lon="7.2421406"><ele>515.0</ele><time>2026-05-01T09:12:10.605Z</time></trkpt><trkpt lat="44.9159014" lon="7.2420728"><ele>515.0</ele><time>2026-05-01T09:12:11.605Z</time></trkpt><trkpt lat="44.9160449" lon="7.2420004"><ele>508.66666666666663</ele><time>2026-05-01T09:12:12.605Z</time></trkpt><trkpt lat="44.9161916" lon="7.2419314"><ele>502.33333333333337</ele><time>2026-05-01T09:12:13.605Z</time></trkpt><trkpt lat="44.9163423" lon="7.2418576"><ele>496.0</ele><time>2026-05-01T09:12:14.605Z</time></trkpt><trkpt lat="44.9164997" lon="7.2417939"><ele>496.0</ele><time>2026-05-01T09:12:15.605Z</time></trkpt><trkpt lat="44.9166587" lon="7.2417325"><ele>496.0</ele><time>2026-05-01T09:12:16.605Z</time></trkpt><trkpt lat="44.9168212" lon="7.2416708"><ele>496.0</ele><time>2026-05-01T09:12:17.605Z</time></trkpt><trkpt lat="44.91697" lon="7.2416159"><ele>496.0</ele><time>2026-05-01T09:12:18.605Z</time></trkpt><trkpt lat="44.917108" lon="7.2415648"><ele>496.0</ele><time>2026-05-01T09:12:19.605Z</time></trkpt><trkpt lat="44.9172291" lon="7.2415234"><ele>496.0</ele><time>2026-05-01T09:12:20.605Z</time></trkpt><trkpt lat="44.9173376" lon="7.2414818"><ele>496.0</ele><time>2026-05-01T09:12:21.605Z</time></trkpt><trkpt lat="44.9174329" lon="7.2414493"><ele>496.0</ele><time>2026-05-01T09:12:22.605Z</time></trkpt><trkpt lat="44.9175046" lon="7.2414174"><ele>496.0</ele><time>2026-05-01T09:12:23.605Z</time></trkpt><trkpt lat="44.9175675" lon="7.2413119"><ele>496.0</ele><time>2026-05-01T09:12:25.605Z</time></trkpt><trkpt lat="44.9175174" lon="7.2412234"><ele>496.0</ele><time>2026-05-01T09:12:27.605Z</time></trkpt><trkpt lat="44.9174244" lon="7.2412337"><ele>496.0</ele><time>2026-05-01T09:12:29.605Z</time></trkpt><trkpt lat="44.9173233" lon="7.2412666"><ele>496.00000000000006</ele><time>2026-05-01T09:12:31.605Z</time></trkpt><trkpt lat="44.9172393" lon="7.241309"><ele>496.0</ele><time>2026-05-01T09:12:33.605Z</time></trkpt><trkpt lat="44.917179" lon="7.2413767"><ele>496.0</ele><time>2026-05-01T09:12:35.605Z</time></trkpt><trkpt lat="44.9171086" lon="7.2414167"><ele>496.0</ele><time>2026-05-01T09:16:17.605Z</time></trkpt><trkpt lat="44.9170481" lon="7.2414508"><ele>496.00000000000006</ele><time>2026-05-01T09:16:19.605Z</time></trkpt><trkpt lat="44.9169797" lon="7.2414886"><ele>496.0</ele><time>2026-05-01T09:16:21.605Z</time></trkpt><trkpt lat="44.9169018" lon="7.2415307"><ele>496.0</ele><time>2026-05-01T09:16:23.605Z</time></trkpt><trkpt lat="44.9168191" lon="7.2415788"><ele>496.0</ele><time>2026-05-01T09:16:25.605Z</time></trkpt><trkpt lat="44.9167051" lon="7.2416465"><ele>496.0</ele><time>2026-05-01T09:16:27.605Z</time></trkpt><trkpt lat="44.9166361" lon="7.2416835"><ele>496.0</ele><time>2026-05-01T09:16:28.605Z</time></trkpt><trkpt lat="44.9165531" lon="7.2417178"><ele>496.0</ele><time>2026-05-01T09:16:29.605Z</time></trkpt><trkpt lat="44.9164423" lon="7.2417584"><ele>496.0</ele><time>2026-05-01T09:16:30.605Z</time></trkpt><trkpt lat="44.9163145" lon="7.241813"><ele>496.0</ele><time>2026-05-01T09:16:31.605Z</time></trkpt><trkpt lat="44.9161877" lon="7.2418667"><ele>496.0</ele><time>2026-05-01T09:16:32.605Z</time></trkpt><trkpt lat="44.9160564" lon="7.2419303"><ele>496.0</ele><time>2026-05-01T09:16:33.605Z</time></trkpt><trkpt lat="44.9159333" lon="7.2419871"><ele>500.75</ele><time>2026-05-01T09:16:34.605Z</time></trkpt><trkpt lat="44.9158075" lon="7.2420261"><ele>505.5</ele><time>2026-05-01T09:16:35.605Z</time></trkpt><trkpt lat="44.9156702" lon="7.2420504"><ele>510.25</ele><time>2026-05-01T09:16:36.605Z</time></trkpt><trkpt lat="44.9155207" lon="7.2420573"><ele>515.0</ele><time>2026-05-01T09:16:37.605Z</time></trkpt><trkpt lat="44.9153518" lon="7.2420481"><ele>515.0</ele><time>2026-05-01T09:16:38.605Z</time></trkpt><trkpt lat="44.9151776" lon="7.2420472"><ele>515.0</ele><time>2026-05-01T09:16:39.604Z</time></trkpt><trkpt lat="44.9149903" lon="7.2420607"><ele>515.0</ele><time>2026-05-01T09:16:40.605Z</time></trkpt><trkpt lat="44.9147927" lon="7.2420911"><ele>515.6666666666666</ele><time>2026-05-01T09:16:41.605Z</time></trkpt><trkpt lat="44.9146163" lon="7.2421281"><ele>516.3333333333334</ele><time>2026-05-01T09:16:42.605Z</time></trkpt><trkpt lat="44.9144541" lon="7.2421652"><ele>517.0</ele><time>2026-05-01T09:16:43.605Z</time></trkpt><trkpt lat="44.914308" lon="7.2422148"><ele>520.75</ele><time>2026-05-01T09:16:44.605Z</time></trkpt><trkpt lat="44.9141731" lon="7.2422833"><ele>524.5</ele><time>2026-05-01T09:16:45.605Z</time></trkpt><trkpt lat="44.9140506" lon="7.2423787"><ele>528.25</ele><time>2026-05-01T09:16:46.605Z</time></trkpt><trkpt lat="44.9139313" lon="7.2425175"><ele>532.0</ele><time>2026-05-01T09:16:47.604Z</time></trkpt><trkpt lat="44.9138139" lon="7.2426858"><ele>523.75</ele><time>2026-05-01T09:16:48.605Z</time></trkpt><trkpt lat="44.9137122" lon="7.2428443"><ele>515.5</ele><time>2026-05-01T09:16:49.605Z</time></trkpt><trkpt lat="44.9136229" lon="7.2429802"><ele>507.25</ele><time>2026-05-01T09:16:50.605Z</time></trkpt><trkpt lat="44.9135293" lon="7.2430817"><ele>499.0</ele><time>2026-05-01T09:16:51.605Z</time></trkpt><trkpt lat="44.9134229" lon="7.2431411"><ele>498.25</ele><time>2026-05-01T09:16:52.605Z</time></trkpt><trkpt lat="44.913318" lon="7.24315"><ele>497.5</ele><time>2026-05-01T09:16:53.605Z</time></trkpt><trkpt lat="44.9131983" lon="7.2431338"><ele>496.75</ele><time>2026-05-01T09:16:54.605Z</time></trkpt><trkpt lat="44.9130697" lon="7.2430869"><ele>496.0</ele><time>2026-05-01T09:16:55.605Z</time></trkpt><trkpt lat="44.9129218" lon="7.2430735"><ele>503.6666666666667</ele><time>2026-05-01T09:16:56.605Z</time></trkpt><trkpt lat="44.9127508" lon="7.2430716"><ele>511.33333333333337</ele><time>2026-05-01T09:16:57.605Z</time></trkpt><trkpt lat="44.9125867" lon="7.2430486"><ele>519.0</ele><time>2026-05-01T09:16:58.605Z</time></trkpt><trkpt lat="44.9124418" lon="7.2430036"><ele>519.6666666666666</ele><time>2026-05-01T09:16:59.605Z</time></trkpt><trkpt lat="44.9122835" lon="7.242944"><ele>520.3333333333333</ele><time>2026-05-01T09:17:00.605Z</time></trkpt><trkpt lat="44.9121089" lon="7.242875"><ele>521.0</ele><time>2026-05-01T09:17:01.605Z</time></trkpt><trkpt lat="44.9119304" lon="7.2427981"><ele>521.0</ele><time>2026-05-01T09:17:02.605Z</time></trkpt><trkpt lat="44.9117634" lon="7.2427264"><ele>521.0</ele><time>2026-05-01T09:17:03.605Z</time></trkpt><trkpt lat="44.9116039" lon="7.2426604"><ele>521.0</ele><time>2026-05-01T09:17:04.605Z</time></trkpt><trkpt lat="44.9114563" lon="7.2425847"><ele>518.25</ele><time>2026-05-01T09:17:05.605Z</time></trkpt><trkpt lat="44.911325" lon="7.2425238"><ele>515.5</ele><time>2026-05-01T09:17:06.605Z</time></trkpt><trkpt lat="44.9111936" lon="7.2424883"><ele>512.75</ele><time>2026-05-01T09:17:07.605Z</time></trkpt><trkpt lat="44.9110562" lon="7.2424752"><ele>510.0</ele><time>2026-05-01T09:17:08.605Z</time></trkpt><trkpt lat="44.9109059" lon="7.2425012"><ele>507.66666666666663</ele><time>2026-05-01T09:17:09.605Z</time></trkpt><trkpt lat="44.91075" lon="7.2425508"><ele>505.3333333333333</ele><time>2026-05-01T09:17:10.604Z</time></trkpt><trkpt lat="44.9105951" lon="7.2426087"><ele>503.0</ele><time>2026-05-01T09:17:11.604Z</time></trkpt><trkpt lat="44.9104451" lon="7.2426736"><ele>503.0</ele><time>2026-05-01T09:17:12.605Z</time></trkpt><trkpt lat="44.9103084" lon="7.2427206"><ele>503.0</ele><time>2026-05-01T09:17:13.605Z</time></trkpt><trkpt lat="44.9101773" lon="7.2427328"><ele>503.0</ele><time>2026-05-01T09:17:14.605Z</time></trkpt><trkpt lat="44.9100479" lon="7.2427128"><ele>503.0</ele><time>2026-05-01T09:17:15.605Z</time></trkpt><trkpt lat="44.9099088" lon="7.2426792"><ele>502.75</ele><time>2026-05-01T09:17:16.605Z</time></trkpt><trkpt lat="44.9097666" lon="7.2426146"><ele>502.5</ele><time>2026-05-01T09:17:17.605Z</time></trkpt><trkpt lat="44.9096306" lon="7.2425336"><ele>502.25</ele><time>2026-05-01T09:17:18.605Z</time></trkpt><trkpt lat="44.9095114" lon="7.2424434"><ele>502.0</ele><time>2026-05-01T09:17:19.605Z</time></trkpt><trkpt lat="44.9093972" lon="7.2423282"><ele>505.6666666666667</ele><time>2026-05-01T09:17:20.605Z</time></trkpt><trkpt lat="44.9092722" lon="7.2421941"><ele>509.33333333333337</ele><time>2026-05-01T09:17:21.605Z</time></trkpt><trkpt lat="44.9091316" lon="7.2420596"><ele>513.0</ele><time>2026-05-01T09:17:22.605Z</time></trkpt><trkpt lat="44.9089672" lon="7.2419318"><ele>513.0</ele><time>2026-05-01T09:17:23.605Z</time></trkpt><trkpt lat="44.9088194" lon="7.2418055"><ele>513.0</ele><time>2026-05-01T09:17:24.605Z</time></trkpt><trkpt lat="44.9086811" lon="7.2416863"><ele>513.0</ele><time>2026-05-01T09:17:25.605Z</time></trkpt><trkpt lat="44.9085627" lon="7.2415801"><ele>513.0</ele><time>2026-05-01T09:17:26.605Z</time></trkpt><trkpt lat="44.9084615" lon="7.2414816"><ele>513.0</ele><time>2026-05-01T09:17:27.605Z</time></trkpt><trkpt lat="44.9083858" lon="7.2413912"><ele>513.0</ele><time>2026-05-01T09:17:28.605Z</time></trkpt><trkpt lat="44.908337" lon="7.2412861"><ele>513.0</ele><time>2026-05-01T09:17:29.605Z</time></trkpt><trkpt lat="44.908293" lon="7.2411519"><ele>513.0</ele><time>2026-05-01T09:17:30.605Z</time></trkpt><trkpt lat="44.9082397" lon="7.2409838"><ele>512.5</ele><time>2026-05-01T09:17:31.605Z</time></trkpt><trkpt lat="44.9081887" lon="7.2408132"><ele>512.0</ele><time>2026-05-01T09:17:32.605Z</time></trkpt><trkpt lat="44.9081432" lon="7.2406624"><ele>511.5</ele><time>2026-05-01T09:17:33.605Z</time></trkpt><trkpt lat="44.9080915" lon="7.240528"><ele>511.0</ele><time>2026-05-01T09:17:34.605Z</time></trkpt><trkpt lat="44.9080247" lon="7.2404261"><ele>510.75</ele><time>2026-05-01T09:17:35.604Z</time></trkpt><trkpt lat="44.9079297" lon="7.2403444"><ele>510.5</ele><time>2026-05-01T09:17:36.605Z</time></trkpt><trkpt lat="44.9078099" lon="7.2403024"><ele>510.25</ele><time>2026-05-01T09:17:37.605Z</time></trkpt><trkpt lat="44.9076666" lon="7.2402712"><ele>510.0</ele><time>2026-05-01T09:17:38.605Z</time></trkpt><trkpt lat="44.9075163" lon="7.2402381"><ele>510.0</ele><time>2026-05-01T09:17:39.605Z</time></trkpt><trkpt lat="44.9073635" lon="7.2402142"><ele>510.0</ele><time>2026-05-01T09:17:40.605Z</time></trkpt><trkpt lat="44.9072069" lon="7.2401984"><ele>510.0</ele><time>2026-05-01T09:17:41.605Z</time></trkpt><trkpt lat="44.9070581" lon="7.2401868"><ele>510.0</ele><time>2026-05-01T09:17:42.605Z</time></trkpt><trkpt lat="44.9069184" lon="7.2401634"><ele>510.0</ele><time>2026-05-01T09:17:43.605Z</time></trkpt><trkpt lat="44.9067776" lon="7.2401277"><ele>510.0</ele><time>2026-05-01T09:17:44.605Z</time></trkpt><trkpt lat="44.9066376" lon="7.2400734"><ele>510.0</ele><time>2026-05-01T09:17:45.605Z</time></trkpt><trkpt lat="44.9064872" lon="7.2400081"><ele>510.0</ele><time>2026-05-01T09:17:46.605Z</time></trkpt><trkpt lat="44.9063388" lon="7.2399353"><ele>510.0</ele><time>2026-05-01T09:17:47.605Z</time></trkpt><trkpt lat="44.9061924" lon="7.2398585"><ele>510.0</ele><time>2026-05-01T09:17:48.605Z</time></trkpt><trkpt lat="44.9060447" lon="7.2397774"><ele>511.5</ele><time>2026-05-01T09:17:49.605Z</time></trkpt><trkpt lat="44.9058966" lon="7.2396989"><ele>513.0</ele><time>2026-05-01T09:17:50.605Z</time></trkpt><trkpt lat="44.9057559" lon="7.2396265"><ele>514.5</ele><time>2026-05-01T09:17:51.605Z</time></trkpt><trkpt lat="44.9056268" lon="7.2395609"><ele>516.0</ele><time>2026-05-01T09:17:52.605Z</time></trkpt><trkpt lat="44.9055121" lon="7.2394968"><ele>516.0</ele><time>2026-05-01T09:17:53.605Z</time></trkpt><trkpt lat="44.9054124" lon="7.2394389"><ele>516.0</ele><time>2026-05-01T09:17:54.605Z</time></trkpt><trkpt lat="44.9053264" lon="7.2393733"><ele>516.0</ele><time>2026-05-01T09:17:55.605Z</time></trkpt><trkpt lat="44.9052455" lon="7.239317"><ele>516.0</ele><time>2026-05-01T09:17:56.605Z</time></trkpt><trkpt lat="44.9051636" lon="7.2392563"><ele>516.0</ele><time>2026-05-01T09:17:57.605Z</time></trkpt><trkpt lat="44.9050884" lon="7.2392007"><ele>516.0</ele><time>2026-05-01T09:17:58.605Z</time></trkpt><trkpt lat="44.9050244" lon="7.2391515"><ele>516.0</ele><time>2026-05-01T09:17:59.605Z</time></trkpt><trkpt lat="44.9049162" lon="7.2391033"><ele>516.0</ele><time>2026-05-01T09:18:01.605Z</time></trkpt><trkpt lat="44.90485" lon="7.2390759"><ele>516.0</ele><time>2026-05-01T09:18:03.605Z</time></trkpt><trkpt lat="44.9049088" lon="7.2389833"><ele>516.0</ele><time>2026-05-01T09:18:05.605Z</time></trkpt><trkpt lat="44.9049968" lon="7.2390318"><ele>516.0</ele><time>2026-05-01T09:18:07.604Z</time></trkpt><trkpt lat="44.905081" lon="7.2390567"><ele>516.0</ele><time>2026-05-01T09:18:08.604Z</time></trkpt><trkpt lat="44.9051643" lon="7.2390581"><ele>516.0</ele><time>2026-05-01T09:18:09.605Z</time></trkpt><trkpt lat="44.9052301" lon="7.2390171"><ele>516.0</ele><time>2026-05-01T09:18:10.605Z</time></trkpt><trkpt lat="44.9052786" lon="7.2389362"><ele>516.0</ele><time>2026-05-01T09:18:11.605Z</time></trkpt><trkpt lat="44.9052942" lon="7.2388381"><ele>516.0</ele><time>2026-05-01T09:18:12.605Z</time></trkpt><trkpt lat="44.9052757" lon="7.2387326"><ele>516.0</ele><time>2026-05-01T09:18:13.605Z</time></trkpt><trkpt lat="44.9052389" lon="7.2386451"><ele>518.25</ele><time>2026-05-01T09:18:14.605Z</time></trkpt><trkpt lat="44.905185" lon="7.2385731"><ele>520.5</ele><time>2026-05-01T09:18:15.605Z</time></trkpt><trkpt lat="44.905033" lon="7.2385591"><ele>522.75</ele><time>2026-05-01T09:18:16.604Z</time></trkpt><trkpt lat="44.9049009" lon="7.2385089"><ele>525.0</ele><time>2026-05-01T09:18:17.605Z</time></trkpt><trkpt lat="44.9047607" lon="7.2384602"><ele>525.0</ele><time>2026-05-01T09:18:18.605Z</time></trkpt><trkpt lat="44.9046005" lon="7.2384017"><ele>525.0</ele><time>2026-05-01T09:18:19.605Z</time></trkpt><trkpt lat="44.904432" lon="7.2383441"><ele>525.0</ele><time>2026-05-01T09:18:20.605Z</time></trkpt><trkpt lat="44.9042705" lon="7.2382891"><ele>523.6666666666666</ele><time>2026-05-01T09:18:21.605Z</time></trkpt><trkpt lat="44.904111" lon="7.2382307"><ele>522.3333333333333</ele><time>2026-05-01T09:18:22.605Z</time></trkpt><trkpt lat="44.9039594" lon="7.2381594"><ele>521.0</ele><time>2026-05-01T09:18:23.605Z</time></trkpt><trkpt lat="44.9038095" lon="7.238061"><ele>525.3333333333333</ele><time>2026-05-01T09:18:24.605Z</time></trkpt><trkpt lat="44.9036718" lon="7.2379338"><ele>529.6666666666666</ele><time>2026-05-01T09:18:25.605Z</time></trkpt><trkpt lat="44.9035373" lon="7.2377791"><ele>534.0</ele><time>2026-05-01T09:18:26.604Z</time></trkpt><trkpt lat="44.9034096" lon="7.2376059"><ele>534.0</ele><time>2026-05-01T09:18:27.605Z</time></trkpt><trkpt lat="44.903279" lon="7.2374353"><ele>534.0</ele><time>2026-05-01T09:18:28.605Z</time></trkpt><trkpt lat="44.9031523" lon="7.2372591"><ele>534.0</ele><time>2026-05-01T09:18:29.605Z</time></trkpt><trkpt lat="44.9030272" lon="7.2370878"><ele>540.0</ele><time>2026-05-01T09:18:30.605Z</time></trkpt><trkpt lat="44.9029052" lon="7.236922"><ele>546.0</ele><time>2026-05-01T09:18:31.605Z</time></trkpt><trkpt lat="44.9027879" lon="7.2367596"><ele>552.0</ele><time>2026-05-01T09:18:32.605Z</time></trkpt><trkpt lat="44.902679" lon="7.2365802"><ele>551.6666666666666</ele><time>2026-05-01T09:18:33.605Z</time></trkpt><trkpt lat="44.9025711" lon="7.2363813"><ele>551.3333333333333</ele><time>2026-05-01T09:18:34.605Z</time></trkpt><trkpt lat="44.9024675" lon="7.2361607"><ele>551.0</ele><time>2026-05-01T09:18:35.605Z</time></trkpt><trkpt lat="44.902368" lon="7.2359281"><ele>551.0</ele><time>2026-05-01T09:18:36.604Z</time></trkpt><trkpt lat="44.902265" lon="7.2356864"><ele>551.0</ele><time>2026-05-01T09:18:37.605Z</time></trkpt><trkpt lat="44.9021624" lon="7.2354438"><ele>551.0</ele><time>2026-05-01T09:18:38.605Z</time></trkpt><trkpt lat="44.9020668" lon="7.2352081"><ele>554.6666666666666</ele><time>2026-05-01T09:18:39.605Z</time></trkpt><trkpt lat="44.9019722" lon="7.2349635"><ele>558.3333333333334</ele><time>2026-05-01T09:18:40.605Z</time></trkpt><trkpt lat="44.9018799" lon="7.2347061"><ele>562.0</ele><time>2026-05-01T09:18:41.605Z</time></trkpt><trkpt lat="44.90179" lon="7.2344404"><ele>560.3333333333334</ele><time>2026-05-01T09:18:42.605Z</time></trkpt><trkpt lat="44.9017046" lon="7.2341784"><ele>558.6666666666666</ele><time>2026-05-01T09:18:43.605Z</time></trkpt><trkpt lat="44.901628" lon="7.2339283"><ele>557.0</ele><time>2026-05-01T09:18:44.605Z</time></trkpt><trkpt lat="44.9015562" lon="7.2336919"><ele>560.25</ele><time>2026-05-01T09:18:45.604Z</time></trkpt><trkpt lat="44.9014964" lon="7.2334992"><ele>563.5</ele><time>2026-05-01T09:18:46.605Z</time></trkpt><trkpt lat="44.9014542" lon="7.2333222"><ele>566.75</ele><time>2026-05-01T09:18:47.605Z</time></trkpt><trkpt lat="44.9014471" lon="7.2331493"><ele>570.0</ele><time>2026-05-01T09:18:48.604Z</time></trkpt><trkpt lat="44.9014758" lon="7.2329721"><ele>570.25</ele><time>2026-05-01T09:18:49.605Z</time></trkpt><trkpt lat="44.901531" lon="7.2327913"><ele>570.5</ele><time>2026-05-01T09:18:50.605Z</time></trkpt><trkpt lat="44.901592" lon="7.2325946"><ele>570.75</ele><time>2026-05-01T09:18:51.605Z</time></trkpt><trkpt lat="44.9016419" lon="7.2323925"><ele>571.0</ele><time>2026-05-01T09:18:52.604Z</time></trkpt><trkpt lat="44.9016632" lon="7.2321924"><ele>569.2</ele><time>2026-05-01T09:18:53.604Z</time></trkpt><trkpt lat="44.9016791" lon="7.2320151"><ele>567.4000000000001</ele><time>2026-05-01T09:18:54.605Z</time></trkpt><trkpt lat="44.9016919" lon="7.2318633"><ele>565.6</ele><time>2026-05-01T09:18:55.604Z</time></trkpt><trkpt lat="44.9017265" lon="7.2317406"><ele>563.8000000000001</ele><time>2026-05-01T09:18:56.605Z</time></trkpt><trkpt lat="44.9017873" lon="7.2316536"><ele>562.0</ele><time>2026-05-01T09:18:57.605Z</time></trkpt><trkpt lat="44.9018738" lon="7.2315903"><ele>572.25</ele><time>2026-05-01T09:18:58.605Z</time></trkpt><trkpt lat="44.9019578" lon="7.2315097"><ele>582.5</ele><time>2026-05-01T09:18:59.605Z</time></trkpt><trkpt lat="44.9020221" lon="7.2313843"><ele>592.75</ele><time>2026-05-01T09:19:00.605Z</time></trkpt><trkpt lat="44.9020581" lon="7.2312208"><ele>603.0</ele><time>2026-05-01T09:19:01.605Z</time></trkpt><trkpt lat="44.9020642" lon="7.2310292"><ele>603.0</ele><time>2026-05-01T09:19:02.605Z</time></trkpt><trkpt lat="44.9020531" lon="7.2308191"><ele>603.0</ele><time>2026-05-01T09:19:03.605Z</time></trkpt><trkpt lat="44.9020391" lon="7.2306"><ele>603.0</ele><time>2026-05-01T09:19:04.605Z</time></trkpt><trkpt lat="44.9020333" lon="7.2304047"><ele>603.0</ele><time>2026-05-01T09:19:05.605Z</time></trkpt><trkpt lat="44.9020471" lon="7.2302362"><ele>603.6</ele><time>2026-05-01T09:19:06.605Z</time></trkpt><trkpt lat="44.9020962" lon="7.2301008"><ele>604.1999999999999</ele><time>2026-05-01T09:19:07.605Z</time></trkpt><trkpt lat="44.9021758" lon="7.2300003"><ele>604.8</ele><time>2026-05-01T09:19:08.605Z</time></trkpt><trkpt lat="44.9022581" lon="7.2299161"><ele>605.4</ele><time>2026-05-01T09:19:09.605Z</time></trkpt><trkpt lat="44.9023031" lon="7.2298136"><ele>606.0</ele><time>2026-05-01T09:19:10.605Z</time></trkpt><trkpt lat="44.9023107" lon="7.2297023"><ele>607.6</ele><time>2026-05-01T09:19:11.605Z</time></trkpt><trkpt lat="44.9022801" lon="7.2295894"><ele>609.2</ele><time>2026-05-01T09:19:12.605Z</time></trkpt><trkpt lat="44.9022126" lon="7.2295"><ele>610.8</ele><time>2026-05-01T09:19:13.605Z</time></trkpt><trkpt lat="44.9021287" lon="7.2294207"><ele>612.4</ele><time>2026-05-01T09:19:14.605Z</time></trkpt><trkpt lat="44.9020527" lon="7.2293295"><ele>614.0</ele><time>2026-05-01T09:19:15.605Z</time></trkpt><trkpt lat="44.9019948" lon="7.2292103"><ele>614.0</ele><time>2026-05-01T09:19:16.605Z</time></trkpt><trkpt lat="44.9019629" lon="7.2290641"><ele>614.0</ele><time>2026-05-01T09:19:17.605Z</time></trkpt><trkpt lat="44.9019623" lon="7.2288893"><ele>614.0</ele><time>2026-05-01T09:19:18.605Z</time></trkpt><trkpt lat="44.9019723" lon="7.2286909"><ele>614.0</ele><time>2026-05-01T09:19:19.605Z</time></trkpt><trkpt lat="44.9019845" lon="7.2284697"><ele>617.3333333333333</ele><time>2026-05-01T09:19:20.605Z</time></trkpt><trkpt lat="44.9019992" lon="7.2282301"><ele>620.6666666666666</ele><time>2026-05-01T09:19:21.605Z</time></trkpt><trkpt lat="44.902005" lon="7.2279782"><ele>624.0</ele><time>2026-05-01T09:19:22.605Z</time></trkpt><trkpt lat="44.9019933" lon="7.2277351"><ele>624.0</ele><time>2026-05-01T09:19:23.605Z</time></trkpt><trkpt lat="44.9019709" lon="7.2275053"><ele>624.0</ele><time>2026-05-01T09:19:24.605Z</time></trkpt><trkpt lat="44.9019414" lon="7.2272769"><ele>624.0</ele><time>2026-05-01T09:19:25.605Z</time></trkpt><trkpt lat="44.9019115" lon="7.227065"><ele>623.5</ele><time>2026-05-01T09:19:26.605Z</time></trkpt><trkpt lat="44.9018815" lon="7.2268691"><ele>623.0</ele><time>2026-05-01T09:19:27.605Z</time></trkpt><trkpt lat="44.9018479" lon="7.2266769"><ele>622.5</ele><time>2026-05-01T09:19:28.605Z</time></trkpt><trkpt lat="44.9018049" lon="7.2264897"><ele>622.0</ele><time>2026-05-01T09:19:29.605Z</time></trkpt><trkpt lat="44.9017503" lon="7.2263206"><ele>614.0</ele><time>2026-05-01T09:19:30.605Z</time></trkpt><trkpt lat="44.9016904" lon="7.2261652"><ele>606.0</ele><time>2026-05-01T09:19:31.605Z</time></trkpt><trkpt lat="44.9016501" lon="7.226014"><ele>598.0</ele><time>2026-05-01T09:19:32.605Z</time></trkpt><trkpt lat="44.9016369" lon="7.2258563"><ele>590.0</ele><time>2026-05-01T09:19:33.605Z</time></trkpt><trkpt lat="44.901656" lon="7.2257027"><ele>591.0</ele><time>2026-05-01T09:19:34.605Z</time></trkpt><trkpt lat="44.9017005" lon="7.2255472"><ele>592.0</ele><time>2026-05-01T09:19:35.605Z</time></trkpt><trkpt lat="44.9017341" lon="7.2253842"><ele>593.0</ele><time>2026-05-01T09:19:36.605Z</time></trkpt><trkpt lat="44.9017379" lon="7.2252138"><ele>594.0</ele><time>2026-05-01T09:19:37.605Z</time></trkpt><trkpt lat="44.9017395" lon="7.2250507"><ele>594.0</ele><time>2026-05-01T09:19:38.605Z</time></trkpt><trkpt lat="44.9017393" lon="7.224882"><ele>594.0</ele><time>2026-05-01T09:19:39.605Z</time></trkpt><trkpt lat="44.9017306" lon="7.2247185"><ele>594.0</ele><time>2026-05-01T09:19:40.604Z</time></trkpt><trkpt lat="44.9017239" lon="7.2245536"><ele>594.0</ele><time>2026-05-01T09:19:41.605Z</time></trkpt><trkpt lat="44.9017181" lon="7.2243886"><ele>594.5</ele><time>2026-05-01T09:19:42.605Z</time></trkpt><trkpt lat="44.9017134" lon="7.2242248"><ele>595.0</ele><time>2026-05-01T09:19:43.605Z</time></trkpt><trkpt lat="44.9017077" lon="7.2240628"><ele>595.5</ele><time>2026-05-01T09:19:44.604Z</time></trkpt><trkpt lat="44.9016926" lon="7.2239"><ele>596.0</ele><time>2026-05-01T09:19:45.605Z</time></trkpt><trkpt lat="44.9016614" lon="7.2237444"><ele>598.25</ele><time>2026-05-01T09:19:46.604Z</time></trkpt><trkpt lat="44.9016106" lon="7.2235949"><ele>600.5</ele><time>2026-05-01T09:19:47.605Z</time></trkpt><trkpt lat="44.9015466" lon="7.2234478"><ele>602.75</ele><time>2026-05-01T09:19:48.605Z</time></trkpt><trkpt lat="44.90149" lon="7.2233009"><ele>605.0</ele><time>2026-05-01T09:19:49.605Z</time></trkpt><trkpt lat="44.9014409" lon="7.2231364"><ele>606.5</ele><time>2026-05-01T09:19:50.605Z</time></trkpt><trkpt lat="44.9014084" lon="7.2229668"><ele>608.0</ele><time>2026-05-01T09:19:51.605Z</time></trkpt><trkpt lat="44.901391" lon="7.222797"><ele>609.5</ele><time>2026-05-01T09:19:52.605Z</time></trkpt><trkpt lat="44.9013799" lon="7.2226224"><ele>611.0</ele><time>2026-05-01T09:19:53.605Z</time></trkpt><trkpt lat="44.9013702" lon="7.2224482"><ele>609.75</ele><time>2026-05-01T09:19:54.605Z</time></trkpt><trkpt lat="44.9013636" lon="7.2222678"><ele>608.5</ele><time>2026-05-01T09:19:55.605Z</time></trkpt><trkpt lat="44.9013622" lon="7.2220929"><ele>607.25</ele><time>2026-05-01T09:19:56.605Z</time></trkpt><trkpt lat="44.901373" lon="7.2219157"><ele>606.0</ele><time>2026-05-01T09:19:57.604Z</time></trkpt><trkpt lat="44.901398" lon="7.2217373"><ele>606.0</ele><time>2026-05-01T09:19:58.605Z</time></trkpt><trkpt lat="44.9014318" lon="7.2215555"><ele>606.0</ele><time>2026-05-01T09:19:59.605Z</time></trkpt><trkpt lat="44.901481" lon="7.2213709"><ele>606.0</ele><time>2026-05-01T09:20:00.605Z</time></trkpt><trkpt lat="44.901537" lon="7.2211934"><ele>606.0</ele><time>2026-05-01T09:20:01.605Z</time></trkpt><trkpt lat="44.9015991" lon="7.2210255"><ele>605.5</ele><time>2026-05-01T09:20:02.605Z</time></trkpt><trkpt lat="44.9016649" lon="7.2208591"><ele>605.0</ele><time>2026-05-01T09:20:03.605Z</time></trkpt><trkpt lat="44.9017447" lon="7.2206893"><ele>604.5</ele><time>2026-05-01T09:20:04.605Z</time></trkpt><trkpt lat="44.901835" lon="7.220534"><ele>604.0</ele><time>2026-05-01T09:20:05.604Z</time></trkpt><trkpt lat="44.9019259" lon="7.2203885"><ele>606.75</ele><time>2026-05-01T09:20:06.605Z</time></trkpt><trkpt lat="44.9020211" lon="7.2202479"><ele>609.5</ele><time>2026-05-01T09:20:07.605Z</time></trkpt><trkpt lat="44.9021148" lon="7.2201123"><ele>612.25</ele><time>2026-05-01T09:20:08.605Z</time></trkpt><trkpt lat="44.9021961" lon="7.2199708"><ele>615.0</ele><time>2026-05-01T09:20:09.605Z</time></trkpt><trkpt lat="44.9022654" lon="7.2198016"><ele>615.0</ele><time>2026-05-01T09:20:10.605Z</time></trkpt><trkpt lat="44.9023384" lon="7.2196153"><ele>615.0</ele><time>2026-05-01T09:20:11.605Z</time></trkpt><trkpt lat="44.9023919" lon="7.2194043"><ele>615.0</ele><time>2026-05-01T09:20:12.605Z</time></trkpt><trkpt lat="44.902443" lon="7.2191755"><ele>614.0</ele><time>2026-05-01T09:20:13.605Z</time></trkpt><trkpt lat="44.9025073" lon="7.2189308"><ele>613.0</ele><time>2026-05-01T09:20:14.605Z</time></trkpt><trkpt lat="44.9025657" lon="7.2186652"><ele>612.0</ele><time>2026-05-01T09:20:15.605Z</time></trkpt><trkpt lat="44.9026097" lon="7.2183947"><ele>627.3333333333334</ele><time>2026-05-01T09:20:16.605Z</time></trkpt><trkpt lat="44.9026457" lon="7.2181228"><ele>642.6666666666667</ele><time>2026-05-01T09:20:17.605Z</time></trkpt><trkpt lat="44.9026811" lon="7.2178359"><ele>658.0</ele><time>2026-05-01T09:20:18.605Z</time></trkpt><trkpt lat="44.9027152" lon="7.2175536"><ele>659.3333333333334</ele><time>2026-05-01T09:20:19.605Z</time></trkpt><trkpt lat="44.9027458" lon="7.217295"><ele>660.6666666666666</ele><time>2026-05-01T09:20:20.605Z</time></trkpt><trkpt lat="44.9027682" lon="7.2170622"><ele>662.0</ele><time>2026-05-01T09:20:21.605Z</time></trkpt><trkpt lat="44.9027521" lon="7.2168257"><ele>662.0</ele><time>2026-05-01T09:20:22.604Z</time></trkpt><trkpt lat="44.9027127" lon="7.2165994"><ele>662.0</ele><time>2026-05-01T09:20:23.604Z</time></trkpt><trkpt lat="44.9026809" lon="7.216377"><ele>662.0</ele><time>2026-05-01T09:20:24.605Z</time></trkpt><trkpt lat="44.9026515" lon="7.2161661"><ele>662.0</ele><time>2026-05-01T09:20:25.605Z</time></trkpt><trkpt lat="44.9026618" lon="7.2159587"><ele>662.0</ele><time>2026-05-01T09:20:26.605Z</time></trkpt><trkpt lat="44.9026777" lon="7.2157302"><ele>662.0</ele><time>2026-05-01T09:20:27.605Z</time></trkpt><trkpt lat="44.9027073" lon="7.2154962"><ele>662.0</ele><time>2026-05-01T09:20:28.605Z</time></trkpt><trkpt lat="44.9027366" lon="7.2152484"><ele>662.0</ele><time>2026-05-01T09:20:29.605Z</time></trkpt><trkpt lat="44.9027599" lon="7.2150021"><ele>662.0</ele><time>2026-05-01T09:20:30.605Z</time></trkpt><trkpt lat="44.9027907" lon="7.214764"><ele>660.6666666666666</ele><time>2026-05-01T09:20:31.605Z</time></trkpt><trkpt lat="44.9028379" lon="7.2145247"><ele>659.3333333333334</ele><time>2026-05-01T09:20:32.605Z</time></trkpt><trkpt lat="44.9028964" lon="7.2142909"><ele>658.0</ele><time>2026-05-01T09:20:33.605Z</time></trkpt><trkpt lat="44.902957" lon="7.2140498"><ele>656.3333333333334</ele><time>2026-05-01T09:20:34.605Z</time></trkpt><trkpt lat="44.9030128" lon="7.2138159"><ele>654.6666666666666</ele><time>2026-05-01T09:20:35.605Z</time></trkpt><trkpt lat="44.9030632" lon="7.2135891"><ele>653.0</ele><time>2026-05-01T09:20:36.605Z</time></trkpt><trkpt lat="44.9030951" lon="7.2133539"><ele>652.3333333333333</ele><time>2026-05-01T09:20:37.605Z</time></trkpt><trkpt lat="44.9031206" lon="7.2131229"><ele>651.6666666666666</ele><time>2026-05-01T09:20:38.605Z</time></trkpt><trkpt lat="44.9031326" lon="7.2129147"><ele>651.0</ele><time>2026-05-01T09:20:39.605Z</time></trkpt><trkpt lat="44.9031344" lon="7.2127061"><ele>651.0</ele><time>2026-05-01T09:20:40.605Z</time></trkpt><trkpt lat="44.9031282" lon="7.2125026"><ele>651.0</ele><time>2026-05-01T09:20:41.605Z</time></trkpt><trkpt lat="44.9031226" lon="7.2122982"><ele>651.0</ele><time>2026-05-01T09:20:42.605Z</time></trkpt><trkpt lat="44.9031155" lon="7.2120982"><ele>651.0</ele><time>2026-05-01T09:20:43.605Z</time></trkpt><trkpt lat="44.9031094" lon="7.2118913"><ele>651.25</ele><time>2026-05-01T09:20:44.605Z</time></trkpt><trkpt lat="44.9031006" lon="7.2116803"><ele>651.5</ele><time>2026-05-01T09:20:45.605Z</time></trkpt><trkpt lat="44.9030907" lon="7.2114715"><ele>651.75</ele><time>2026-05-01T09:20:46.605Z</time></trkpt><trkpt lat="44.903081" lon="7.2112627"><ele>652.0</ele><time>2026-05-01T09:20:47.605Z</time></trkpt><trkpt lat="44.9030717" lon="7.2110598"><ele>652.0</ele><time>2026-05-01T09:20:48.605Z</time></trkpt><trkpt lat="44.9030606" lon="7.21086"><ele>652.0</ele><time>2026-05-01T09:20:49.604Z</time></trkpt><trkpt lat="44.9030521" lon="7.2106569"><ele>652.0</ele><time>2026-05-01T09:20:50.605Z</time></trkpt><trkpt lat="44.9030442" lon="7.2104522"><ele>652.0</ele><time>2026-05-01T09:20:51.605Z</time></trkpt><trkpt lat="44.9030369" lon="7.2102431"><ele>653.0</ele><time>2026-05-01T09:20:52.605Z</time></trkpt><trkpt lat="44.9030291" lon="7.2100283"><ele>654.0</ele><time>2026-05-01T09:20:53.605Z</time></trkpt><trkpt lat="44.9030255" lon="7.209809"><ele>655.0</ele><time>2026-05-01T09:20:54.605Z</time></trkpt><trkpt lat="44.9030143" lon="7.2095892"><ele>658.3333333333334</ele><time>2026-05-01T09:20:55.605Z</time></trkpt><trkpt lat="44.903002" lon="7.2093646"><ele>661.6666666666666</ele><time>2026-05-01T09:20:56.605Z</time></trkpt><trkpt lat="44.9029915" lon="7.2091438"><ele>665.0</ele><time>2026-05-01T09:20:57.605Z</time></trkpt><trkpt lat="44.902979" lon="7.2089239"><ele>669.0</ele><time>2026-05-01T09:20:58.605Z</time></trkpt><trkpt lat="44.9029699" lon="7.2087012"><ele>673.0</ele><time>2026-05-01T09:20:59.605Z</time></trkpt><trkpt lat="44.902965" lon="7.2084854"><ele>677.0</ele><time>2026-05-01T09:21:00.605Z</time></trkpt><trkpt lat="44.9029594" lon="7.2082749"><ele>678.75</ele><time>2026-05-01T09:21:01.605Z</time></trkpt><trkpt lat="44.9029503" lon="7.2080612"><ele>680.5</ele><time>2026-05-01T09:21:02.605Z</time></trkpt><trkpt lat="44.9029415" lon="7.2078472"><ele>682.25</ele><time>2026-05-01T09:21:03.605Z</time></trkpt><trkpt lat="44.902927" lon="7.2076475"><ele>684.0</ele><time>2026-05-01T09:21:04.605Z</time></trkpt><trkpt lat="44.902901" lon="7.2074578"><ele>689.5</ele><time>2026-05-01T09:21:05.605Z</time></trkpt><trkpt lat="44.9028605" lon="7.2072698"><ele>695.0</ele><time>2026-05-01T09:21:06.605Z</time></trkpt><trkpt lat="44.9028123" lon="7.2071045"><ele>700.5</ele><time>2026-05-01T09:21:07.604Z</time></trkpt><trkpt lat="44.902753" lon="7.2069611"><ele>706.0</ele><time>2026-05-01T09:21:08.605Z</time></trkpt><trkpt lat="44.9026897" lon="7.2068302"><ele>706.0</ele><time>2026-05-01T09:21:09.605Z</time></trkpt><trkpt lat="44.9026337" lon="7.2067184"><ele>706.0</ele><time>2026-05-01T09:21:10.605Z</time></trkpt><trkpt lat="44.9025785" lon="7.2066215"><ele>706.0</ele><time>2026-05-01T09:21:11.605Z</time></trkpt><trkpt lat="44.9025284" lon="7.2065393"><ele>706.0</ele><time>2026-05-01T09:21:12.605Z</time></trkpt><trkpt lat="44.9024419" lon="7.2064488"><ele>706.0</ele><time>2026-05-01T09:21:14.605Z</time></trkpt><trkpt lat="44.9023746" lon="7.2064554"><ele>706.0</ele><time>2026-05-01T09:21:16.605Z</time></trkpt><trkpt lat="44.9023204" lon="7.2065064"><ele>703.6666666666667</ele><time>2026-05-01T09:26:44.605Z</time></trkpt><trkpt lat="44.902261" lon="7.2065625"><ele>701.3333333333334</ele><time>2026-05-01T09:26:46.605Z</time></trkpt><trkpt lat="44.9021645" lon="7.2065066"><ele>699.0</ele><time>2026-05-01T09:26:48.604Z</time></trkpt><trkpt lat="44.902114" lon="7.2064312"><ele>696.6666666666666</ele><time>2026-05-01T09:26:49.605Z</time></trkpt><trkpt lat="44.9020589" lon="7.2063521"><ele>694.3333333333333</ele><time>2026-05-01T09:26:50.604Z</time></trkpt><trkpt lat="44.9019963" lon="7.2062428"><ele>692.0</ele><time>2026-05-01T09:26:51.605Z</time></trkpt><trkpt lat="44.9019149" lon="7.2061273"><ele>692.0</ele><time>2026-05-01T09:26:52.605Z</time></trkpt><trkpt lat="44.9018292" lon="7.2060252"><ele>692.0</ele><time>2026-05-01T09:26:53.605Z</time></trkpt><trkpt lat="44.901733" lon="7.2059324"><ele>692.0</ele><time>2026-05-01T09:26:54.605Z</time></trkpt><trkpt lat="44.9016418" lon="7.2058422"><ele>692.0</ele><time>2026-05-01T09:26:55.605Z</time></trkpt><trkpt lat="44.90153" lon="7.2057374"><ele>693.0</ele><time>2026-05-01T09:26:56.605Z</time></trkpt><trkpt lat="44.9014154" lon="7.2056301"><ele>694.0</ele><time>2026-05-01T09:26:57.605Z</time></trkpt><trkpt lat="44.9012939" lon="7.2055054"><ele>695.0</ele><time>2026-05-01T09:26:58.605Z</time></trkpt><trkpt lat="44.9011771" lon="7.2053923"><ele>696.0</ele><time>2026-05-01T09:26:59.605Z</time></trkpt><trkpt lat="44.9010764" lon="7.2052962"><ele>696.0</ele><time>2026-05-01T09:27:00.605Z</time></trkpt><trkpt lat="44.9010003" lon="7.2052097"><ele>696.0</ele><time>2026-05-01T09:27:01.605Z</time></trkpt><trkpt lat="44.9009478" lon="7.2051441"><ele>696.0</ele><time>2026-05-01T09:27:02.605Z</time></trkpt><trkpt lat="44.9008508" lon="7.2051219"><ele>696.0</ele><time>2026-05-01T09:27:04.605Z</time></trkpt><trkpt lat="44.9008301" lon="7.2052227"><ele>696.0</ele><time>2026-05-01T09:27:06.605Z</time></trkpt><trkpt lat="44.900921" lon="7.2053769"><ele>696.0</ele><time>2026-05-01T09:27:08.605Z</time></trkpt><trkpt lat="44.9009985" lon="7.2054837"><ele>696.0</ele><time>2026-05-01T09:27:09.605Z</time></trkpt><trkpt lat="44.901092" lon="7.2056015"><ele>696.0</ele><time>2026-05-01T09:27:10.605Z</time></trkpt><trkpt lat="44.9011802" lon="7.2057163"><ele>696.0</ele><time>2026-05-01T09:27:11.605Z</time></trkpt><trkpt lat="44.9012659" lon="7.2058422"><ele>695.25</ele><time>2026-05-01T09:27:12.605Z</time></trkpt><trkpt lat="44.9013611" lon="7.2059824"><ele>694.5</ele><time>2026-05-01T09:27:13.605Z</time></trkpt><trkpt lat="44.901466" lon="7.2061241"><ele>693.75</ele><time>2026-05-01T09:27:14.605Z</time></trkpt><trkpt lat="44.9015483" lon="7.2062501"><ele>693.0</ele><time>2026-05-01T09:27:15.605Z</time></trkpt><trkpt lat="44.9016111" lon="7.2063379"><ele>693.0</ele><time>2026-05-01T09:27:16.604Z</time></trkpt><trkpt lat="44.9016239" lon="7.2064395"><ele>693.0</ele><time>2026-05-01T09:27:18.604Z</time></trkpt><trkpt lat="44.9015321" lon="7.206383"><ele>693.0</ele><time>2026-05-01T09:27:21.605Z</time></trkpt><trkpt lat="44.901475" lon="7.2063183"><ele>693.0</ele><time>2026-05-01T09:27:22.604Z</time></trkpt><trkpt lat="44.9013975" lon="7.2062514"><ele>693.0</ele><time>2026-05-01T09:27:23.605Z</time></trkpt><trkpt lat="44.9013093" lon="7.2061631"><ele>693.0</ele><time>2026-05-01T09:27:24.605Z</time></trkpt><trkpt lat="44.9012163" lon="7.2060559"><ele>693.0</ele><time>2026-05-01T09:27:25.605Z</time></trkpt><trkpt lat="44.9011085" lon="7.2059413"><ele>693.0</ele><time>2026-05-01T09:27:26.605Z</time></trkpt><trkpt lat="44.9010052" lon="7.2058363"><ele>693.0</ele><time>2026-05-01T09:27:27.605Z</time></trkpt><trkpt lat="44.9008963" lon="7.2057274"><ele>693.0</ele><time>2026-05-01T09:27:28.604Z</time></trkpt><trkpt lat="44.9007868" lon="7.205627"><ele>696.5</ele><time>2026-05-01T09:27:29.605Z</time></trkpt><trkpt lat="44.9006896" lon="7.2055138"><ele>700.0</ele><time>2026-05-01T09:27:30.605Z</time></trkpt><trkpt lat="44.9005814" lon="7.2053985"><ele>703.5</ele><time>2026-05-01T09:27:31.605Z</time></trkpt><trkpt lat="44.9004732" lon="7.2052852"><ele>707.0</ele><time>2026-05-01T09:27:32.605Z</time></trkpt><trkpt lat="44.900333" lon="7.2051857"><ele>707.0</ele><time>2026-05-01T09:27:33.605Z</time></trkpt><trkpt lat="44.9002284" lon="7.2050963"><ele>707.0</ele><time>2026-05-01T09:27:34.605Z</time></trkpt><trkpt lat="44.900131" lon="7.2050087"><ele>707.0</ele><time>2026-05-01T09:27:35.605Z</time></trkpt><trkpt lat="44.9000288" lon="7.2049125"><ele>707.0</ele><time>2026-05-01T09:27:36.605Z</time></trkpt><trkpt lat="44.8999352" lon="7.2048028"><ele>709.75</ele><time>2026-05-01T09:27:37.605Z</time></trkpt><trkpt lat="44.8998474" lon="7.2046695"><ele>712.5</ele><time>2026-05-01T09:27:38.605Z</time></trkpt><trkpt lat="44.899751" lon="7.2045423"><ele>715.25</ele><time>2026-05-01T09:27:39.605Z</time></trkpt><trkpt lat="44.8996545" lon="7.2044114"><ele>718.0</ele><time>2026-05-01T09:27:40.605Z</time></trkpt><trkpt lat="44.8995514" lon="7.2042719"><ele>718.0</ele><time>2026-05-01T09:27:41.605Z</time></trkpt><trkpt lat="44.8994581" lon="7.2041196"><ele>718.0</ele><time>2026-05-01T09:27:42.605Z</time></trkpt><trkpt lat="44.899369" lon="7.20397"><ele>718.0</ele><time>2026-05-01T09:27:43.605Z</time></trkpt><trkpt lat="44.8992834" lon="7.2038288"><ele>718.0</ele><time>2026-05-01T09:27:44.605Z</time></trkpt><trkpt lat="44.8992173" lon="7.2037346"><ele>721.4</ele><time>2026-05-01T09:27:45.605Z</time></trkpt><trkpt lat="44.8991564" lon="7.2036364"><ele>724.8</ele><time>2026-05-01T09:27:46.605Z</time></trkpt><trkpt lat="44.8990848" lon="7.2035654"><ele>728.2</ele><time>2026-05-01T09:27:47.605Z</time></trkpt><trkpt lat="44.8989827" lon="7.2035289"><ele>731.6</ele><time>2026-05-01T09:27:49.605Z</time></trkpt><trkpt lat="44.8989445" lon="7.2036176"><ele>735.0</ele><time>2026-05-01T09:27:51.605Z</time></trkpt><trkpt lat="44.8990096" lon="7.2037354"><ele>735.0</ele><time>2026-05-01T09:27:53.605Z</time></trkpt><trkpt lat="44.8990629" lon="7.2038322"><ele>735.0</ele><time>2026-05-01T09:27:54.605Z</time></trkpt><trkpt lat="44.8991109" lon="7.203964"><ele>735.0</ele><time>2026-05-01T09:27:55.605Z</time></trkpt><trkpt lat="44.8991641" lon="7.2041124"><ele>735.0</ele><time>2026-05-01T09:27:56.605Z</time></trkpt><trkpt lat="44.8992184" lon="7.2042574"><ele>735.0</ele><time>2026-05-01T09:27:57.605Z</time></trkpt><trkpt lat="44.8992707" lon="7.2044269"><ele>735.75</ele><time>2026-05-01T09:27:58.605Z</time></trkpt><trkpt lat="44.8993184" lon="7.204607"><ele>736.5</ele><time>2026-05-01T09:27:59.605Z</time></trkpt><trkpt lat="44.8993695" lon="7.2047757"><ele>737.25</ele><time>2026-05-01T09:28:00.605Z</time></trkpt><trkpt lat="44.8994418" lon="7.2049476"><ele>738.0</ele><time>2026-05-01T09:28:01.605Z</time></trkpt><trkpt lat="44.8995234" lon="7.2051293"><ele>738.0</ele><time>2026-05-01T09:28:02.605Z</time></trkpt><trkpt lat="44.8996112" lon="7.2053054"><ele>738.0</ele><time>2026-05-01T09:28:03.605Z</time></trkpt><trkpt lat="44.8997065" lon="7.2054654"><ele>738.0</ele><time>2026-05-01T09:28:04.605Z</time></trkpt><trkpt lat="44.8998081" lon="7.2056461"><ele>734.3333333333334</ele><time>2026-05-01T09:28:05.605Z</time></trkpt><trkpt lat="44.8999089" lon="7.2058246"><ele>730.6666666666667</ele><time>2026-05-01T09:28:06.605Z</time></trkpt><trkpt lat="44.9000106" lon="7.2060054"><ele>727.0</ele><time>2026-05-01T09:28:07.605Z</time></trkpt><trkpt lat="44.9001041" lon="7.2061712"><ele>727.0</ele><time>2026-05-01T09:28:08.605Z</time></trkpt><trkpt lat="44.9001977" lon="7.2063219"><ele>727.0</ele><time>2026-05-01T09:28:09.605Z</time></trkpt><trkpt lat="44.9002842" lon="7.2064765"><ele>727.0</ele><time>2026-05-01T09:28:10.605Z</time></trkpt><trkpt lat="44.9003733" lon="7.2066194"><ele>727.0</ele><time>2026-05-01T09:28:11.605Z</time></trkpt><trkpt lat="44.9004958" lon="7.2067457"><ele>733.2</ele><time>2026-05-01T09:28:12.605Z</time></trkpt><trkpt lat="44.9005992" lon="7.2068713"><ele>739.4000000000001</ele><time>2026-05-01T09:28:13.605Z</time></trkpt><trkpt lat="44.9006673" lon="7.2069577"><ele>745.5999999999999</ele><time>2026-05-01T09:28:14.605Z</time></trkpt><trkpt lat="44.9007401" lon="7.2070552"><ele>751.8</ele><time>2026-05-01T09:28:15.605Z</time></trkpt><trkpt lat="44.9008063" lon="7.2071519"><ele>758.0</ele><time>2026-05-01T09:28:16.605Z</time></trkpt><trkpt lat="44.9008652" lon="7.2072646"><ele>758.0</ele><time>2026-05-01T09:28:17.605Z</time></trkpt><trkpt lat="44.9009099" lon="7.2073634"><ele>758.0</ele><time>2026-05-01T09:28:18.605Z</time></trkpt><trkpt lat="44.9009468" lon="7.2074902"><ele>758.0</ele><time>2026-05-01T09:28:20.605Z</time></trkpt><trkpt lat="44.9008622" lon="7.2074815"><ele>758.0</ele><time>2026-05-01T09:28:23.605Z</time></trkpt><trkpt lat="44.9007723" lon="7.2073644"><ele>758.0</ele><time>2026-05-01T09:28:25.605Z</time></trkpt><trkpt lat="44.9006962" lon="7.2073245"><ele>758.0</ele><time>2026-05-01T09:28:26.604Z</time></trkpt><trkpt lat="44.9006017" lon="7.207298"><ele>758.0</ele><time>2026-05-01T09:28:27.605Z</time></trkpt><trkpt lat="44.9005057" lon="7.2072624"><ele>758.0</ele><time>2026-05-01T09:28:28.605Z</time></trkpt><trkpt lat="44.9003883" lon="7.2072107"><ele>758.0</ele><time>2026-05-01T09:28:29.605Z</time></trkpt><trkpt lat="44.9002716" lon="7.2071486"><ele>758.0</ele><time>2026-05-01T09:28:30.605Z</time></trkpt><trkpt lat="44.9001905" lon="7.2070683"><ele>758.0</ele><time>2026-05-01T09:28:31.605Z</time></trkpt><trkpt lat="44.9000861" lon="7.2069834"><ele>758.0</ele><time>2026-05-01T09:28:32.605Z</time></trkpt><trkpt lat="44.8999794" lon="7.2068742"><ele>758.0</ele><time>2026-05-01T09:28:33.605Z</time></trkpt><trkpt lat="44.8998816" lon="7.2067759"><ele>758.0</ele><time>2026-05-01T09:28:34.605Z</time></trkpt><trkpt lat="44.8997657" lon="7.2066885"><ele>759.75</ele><time>2026-05-01T09:28:35.605Z</time></trkpt><trkpt lat="44.8996317" lon="7.2065955"><ele>761.5</ele><time>2026-05-01T09:28:36.605Z</time></trkpt><trkpt lat="44.8995068" lon="7.2064977"><ele>763.25</ele><time>2026-05-01T09:28:37.605Z</time></trkpt><trkpt lat="44.8993925" lon="7.2064048"><ele>765.0</ele><time>2026-05-01T09:28:38.604Z</time></trkpt><trkpt lat="44.8992752" lon="7.206301"><ele>774.5</ele><time>2026-05-01T09:28:39.605Z</time></trkpt><trkpt lat="44.8991714" lon="7.2062047"><ele>784.0</ele><time>2026-05-01T09:28:40.605Z</time></trkpt><trkpt lat="44.8990734" lon="7.2060972"><ele>793.5</ele><time>2026-05-01T09:28:41.605Z</time></trkpt><trkpt lat="44.8990028" lon="7.2059807"><ele>803.0</ele><time>2026-05-01T09:28:42.605Z</time></trkpt><trkpt lat="44.8989224" lon="7.2058649"><ele>803.0</ele><time>2026-05-01T09:28:43.605Z</time></trkpt><trkpt lat="44.8988409" lon="7.2057539"><ele>803.0</ele><time>2026-05-01T09:28:44.605Z</time></trkpt><trkpt lat="44.8987568" lon="7.2056451"><ele>803.0</ele><time>2026-05-01T09:28:45.605Z</time></trkpt><trkpt lat="44.8986818" lon="7.2055479"><ele>803.0</ele><time>2026-05-01T09:28:46.605Z</time></trkpt><trkpt lat="44.8986102" lon="7.2054583"><ele>803.0</ele><time>2026-05-01T09:28:47.605Z</time></trkpt><trkpt lat="44.8985383" lon="7.2053818"><ele>805.6666666666667</ele><time>2026-05-01T09:28:48.605Z</time></trkpt><trkpt lat="44.8984709" lon="7.2053004"><ele>808.3333333333334</ele><time>2026-05-01T09:28:49.605Z</time></trkpt><trkpt lat="44.8984035" lon="7.2052275"><ele>811.0</ele><time>2026-05-01T09:28:50.605Z</time></trkpt><trkpt lat="44.8983414" lon="7.2051464"><ele>813.6666666666667</ele><time>2026-05-01T09:28:51.605Z</time></trkpt><trkpt lat="44.8982752" lon="7.2050753"><ele>816.3333333333334</ele><time>2026-05-01T09:28:52.605Z</time></trkpt><trkpt lat="44.8982136" lon="7.2049908"><ele>819.0</ele><time>2026-05-01T09:28:53.605Z</time></trkpt><trkpt lat="44.8981576" lon="7.2049197"><ele>819.0</ele><time>2026-05-01T09:28:54.605Z</time></trkpt><trkpt lat="44.8981034" lon="7.204848"><ele>819.0</ele><time>2026-05-01T09:28:55.605Z</time></trkpt><trkpt lat="44.8980466" lon="7.2047772"><ele>819.0</ele><time>2026-05-01T09:28:56.605Z</time></trkpt><trkpt lat="44.8979932" lon="7.2047041"><ele>819.0</ele><time>2026-05-01T09:28:57.605Z</time></trkpt><trkpt lat="44.8979347" lon="7.2046419"><ele>819.0</ele><time>2026-05-01T09:28:58.605Z</time></trkpt><trkpt lat="44.8978784" lon="7.204588"><ele>819.0</ele><time>2026-05-01T09:28:59.604Z</time></trkpt><trkpt lat="44.8978287" lon="7.2045316"><ele>819.0</ele><time>2026-05-01T09:29:00.605Z</time></trkpt><trkpt lat="44.8977698" lon="7.2044807"><ele>820.6</ele><time>2026-05-01T09:29:01.605Z</time></trkpt><trkpt lat="44.8976563" lon="7.2044"><ele>822.2</ele><time>2026-05-01T09:29:03.604Z</time></trkpt><trkpt lat="44.8975832" lon="7.2043787"><ele>823.8000000000001</ele><time>2026-05-01T09:29:04.605Z</time></trkpt><trkpt lat="44.8975075" lon="7.2043659"><ele>825.4000000000001</ele><time>2026-05-01T09:29:05.605Z</time></trkpt><trkpt lat="44.8974372" lon="7.2043567"><ele>827.0</ele><time>2026-05-01T09:29:06.605Z</time></trkpt><trkpt lat="44.8973161" lon="7.2043601"><ele>827.0</ele><time>2026-05-01T09:29:08.605Z</time></trkpt><trkpt lat="44.8972494" lon="7.2043679"><ele>827.0</ele><time>2026-05-01T09:29:09.605Z</time></trkpt><trkpt lat="44.8971794" lon="7.2043957"><ele>827.0</ele><time>2026-05-01T09:29:10.605Z</time></trkpt><trkpt lat="44.8971115" lon="7.2044408"><ele>827.0</ele><time>2026-05-01T09:29:11.605Z</time></trkpt><trkpt lat="44.8970311" lon="7.2044808"><ele>827.0</ele><time>2026-05-01T09:29:12.605Z</time></trkpt><trkpt lat="44.896958" lon="7.2045191"><ele>827.0</ele><time>2026-05-01T09:29:13.605Z</time></trkpt><trkpt lat="44.8968951" lon="7.2045551"><ele>827.0</ele><time>2026-05-01T09:29:14.605Z</time></trkpt><trkpt lat="44.8968288" lon="7.2045949"><ele>827.0</ele><time>2026-05-01T09:29:15.605Z</time></trkpt><trkpt lat="44.8967176" lon="7.2046655"><ele>827.0</ele><time>2026-05-01T09:29:17.604Z</time></trkpt><trkpt lat="44.8966385" lon="7.204771"><ele>827.0</ele><time>2026-05-01T09:29:19.605Z</time></trkpt><trkpt lat="44.8965678" lon="7.2048884"><ele>827.0</ele><time>2026-05-01T09:29:21.605Z</time></trkpt><trkpt lat="44.8965214" lon="7.2050012"><ele>827.0</ele><time>2026-05-01T09:29:23.605Z</time></trkpt><trkpt lat="44.89649" lon="7.2050939"><ele>831.1666666666667</ele><time>2026-05-01T09:29:25.605Z</time></trkpt><trkpt lat="44.8965292" lon="7.2052009"><ele>835.3333333333334</ele><time>2026-05-01T09:29:28.605Z</time></trkpt><trkpt lat="44.8966253" lon="7.2051189"><ele>839.5</ele><time>2026-05-01T09:29:31.605Z</time></trkpt><trkpt lat="44.8966826" lon="7.2050432"><ele>843.6666666666667</ele><time>2026-05-01T09:29:32.605Z</time></trkpt><trkpt lat="44.8967575" lon="7.2049869"><ele>847.8333333333334</ele><time>2026-05-01T09:29:33.605Z</time></trkpt><trkpt lat="44.8968284" lon="7.2049488"><ele>852.0</ele><time>2026-05-01T09:29:34.605Z</time></trkpt><trkpt lat="44.8969114" lon="7.2049261"><ele>852.3333333333334</ele><time>2026-05-01T09:29:35.605Z</time></trkpt><trkpt lat="44.8970161" lon="7.2049138"><ele>852.6666666666667</ele><time>2026-05-01T09:29:36.605Z</time></trkpt><trkpt lat="44.8971086" lon="7.2049207"><ele>853.0</ele><time>2026-05-01T09:29:37.605Z</time></trkpt><trkpt lat="44.8972017" lon="7.2049302"><ele>853.3333333333334</ele><time>2026-05-01T09:29:38.605Z</time></trkpt><trkpt lat="44.8972743" lon="7.2049612"><ele>853.6666666666667</ele><time>2026-05-01T09:29:39.605Z</time></trkpt><trkpt lat="44.8973477" lon="7.2050128"><ele>854.0</ele><time>2026-05-01T09:29:40.604Z</time></trkpt><trkpt lat="44.897407" lon="7.2050896"><ele>854.0000000000001</ele><time>2026-05-01T09:29:41.605Z</time></trkpt><trkpt lat="44.8974515" lon="7.2051715"><ele>854.0</ele><time>2026-05-01T09:29:42.605Z</time></trkpt><trkpt lat="44.8974743" lon="7.2052658"><ele>854.0</ele><time>2026-05-01T09:29:43.605Z</time></trkpt><trkpt lat="44.8974916" lon="7.2053805"><ele>854.0</ele><time>2026-05-01T09:29:44.605Z</time></trkpt><trkpt lat="44.8975182" lon="7.2054994"><ele>854.0000000000001</ele><time>2026-05-01T09:29:45.605Z</time></trkpt><trkpt lat="44.8975674" lon="7.2056223"><ele>854.0</ele><time>2026-05-01T09:29:46.605Z</time></trkpt><trkpt lat="44.8976471" lon="7.2057511"><ele>852.25</ele><time>2026-05-01T09:29:47.605Z</time></trkpt><trkpt lat="44.8977268" lon="7.2058931"><ele>850.5</ele><time>2026-05-01T09:29:48.605Z</time></trkpt><trkpt lat="44.8978116" lon="7.20607"><ele>848.75</ele><time>2026-05-01T09:29:49.605Z</time></trkpt><trkpt lat="44.8978885" lon="7.2062346"><ele>847.0</ele><time>2026-05-01T09:29:50.604Z</time></trkpt><trkpt lat="44.8979699" lon="7.2063804"><ele>853.5</ele><time>2026-05-01T09:29:51.605Z</time></trkpt><trkpt lat="44.8980509" lon="7.206534"><ele>860.0</ele><time>2026-05-01T09:29:52.605Z</time></trkpt><trkpt lat="44.8981282" lon="7.2066973"><ele>866.5</ele><time>2026-05-01T09:29:53.605Z</time></trkpt><trkpt lat="44.8982025" lon="7.2068734"><ele>873.0</ele><time>2026-05-01T09:29:54.605Z</time></trkpt><trkpt lat="44.8982761" lon="7.2070581"><ele>873.0</ele><time>2026-05-01T09:29:55.605Z</time></trkpt><trkpt lat="44.8983468" lon="7.2072393"><ele>873.0</ele><time>2026-05-01T09:29:56.605Z</time></trkpt><trkpt lat="44.8984182" lon="7.2074164"><ele>873.0</ele><time>2026-05-01T09:29:57.604Z</time></trkpt><trkpt lat="44.8984739" lon="7.207584"><ele>873.0</ele><time>2026-05-01T09:29:58.605Z</time></trkpt><trkpt lat="44.8985247" lon="7.2077522"><ele>874.75</ele><time>2026-05-01T09:29:59.605Z</time></trkpt><trkpt lat="44.8985704" lon="7.2079248"><ele>876.5</ele><time>2026-05-01T09:30:00.605Z</time></trkpt><trkpt lat="44.8986149" lon="7.208086"><ele>878.25</ele><time>2026-05-01T09:30:01.605Z</time></trkpt><trkpt lat="44.8986517" lon="7.2082331"><ele>880.0</ele><time>2026-05-01T09:30:02.605Z</time></trkpt><trkpt lat="44.8986987" lon="7.2083716"><ele>879.9999999999999</ele><time>2026-05-01T09:30:03.605Z</time></trkpt><trkpt lat="44.8987429" lon="7.2084638"><ele>880.0</ele><time>2026-05-01T09:30:04.605Z</time></trkpt><trkpt lat="44.8987936" lon="7.2085204"><ele>880.0</ele><time>2026-05-01T09:30:05.605Z</time></trkpt><trkpt lat="44.8988834" lon="7.2086008"><ele>880.0</ele><time>2026-05-01T09:30:07.605Z</time></trkpt><trkpt lat="44.8988971" lon="7.2087006"><ele>879.9999999999999</ele><time>2026-05-01T09:30:09.605Z</time></trkpt><trkpt lat="44.89882" lon="7.2087019"><ele>880.0</ele><time>2026-05-01T09:30:11.605Z</time></trkpt><trkpt lat="44.8986949" lon="7.2086078"><ele>880.0</ele><time>2026-05-01T09:30:13.605Z</time></trkpt><trkpt lat="44.8986192" lon="7.2085197"><ele>880.0</ele><time>2026-05-01T09:30:14.605Z</time></trkpt><trkpt lat="44.8985369" lon="7.2084102"><ele>880.0</ele><time>2026-05-01T09:30:15.605Z</time></trkpt><trkpt lat="44.8984532" lon="7.2083178"><ele>880.0</ele><time>2026-05-01T09:30:16.605Z</time></trkpt><trkpt lat="44.8983555" lon="7.2082088"><ele>880.0</ele><time>2026-05-01T09:30:17.605Z</time></trkpt><trkpt lat="44.898246" lon="7.2080917"><ele>882.75</ele><time>2026-05-01T09:30:18.605Z</time></trkpt><trkpt lat="44.898132" lon="7.2079821"><ele>885.5</ele><time>2026-05-01T09:30:19.604Z</time></trkpt><trkpt lat="44.898016" lon="7.2078595"><ele>888.25</ele><time>2026-05-01T09:30:20.605Z</time></trkpt><trkpt lat="44.8978981" lon="7.2077305"><ele>891.0</ele><time>2026-05-01T09:30:21.605Z</time></trkpt><trkpt lat="44.8977908" lon="7.2076052"><ele>891.0</ele><time>2026-05-01T09:30:22.605Z</time></trkpt><trkpt lat="44.8976762" lon="7.2074652"><ele>891.0</ele><time>2026-05-01T09:30:23.604Z</time></trkpt><trkpt lat="44.8975701" lon="7.2073507"><ele>891.0</ele><time>2026-05-01T09:30:24.605Z</time></trkpt><trkpt lat="44.8974779" lon="7.2072529"><ele>891.0</ele><time>2026-05-01T09:30:25.605Z</time></trkpt><trkpt lat="44.8973943" lon="7.2071655"><ele>892.3333333333334</ele><time>2026-05-01T09:30:26.605Z</time></trkpt><trkpt lat="44.8973168" lon="7.2070858"><ele>893.6666666666667</ele><time>2026-05-01T09:30:27.605Z</time></trkpt><trkpt lat="44.8972367" lon="7.2070177"><ele>895.0</ele><time>2026-05-01T09:30:28.605Z</time></trkpt><trkpt lat="44.8971502" lon="7.2070111"><ele>896.3333333333334</ele><time>2026-05-01T09:30:29.605Z</time></trkpt><trkpt lat="44.8970733" lon="7.2070064"><ele>897.6666666666667</ele><time>2026-05-01T09:30:30.605Z</time></trkpt><trkpt lat="44.8969837" lon="7.2070516"><ele>899.0</ele><time>2026-05-01T09:30:31.604Z</time></trkpt><trkpt lat="44.8968873" lon="7.2071022"><ele>899.0</ele><time>2026-05-01T09:30:32.605Z</time></trkpt><trkpt lat="44.8967893" lon="7.2071493"><ele>899.0000000000001</ele><time>2026-05-01T09:30:33.605Z</time></trkpt><trkpt lat="44.8966768" lon="7.2071991"><ele>899.0000000000001</ele><time>2026-05-01T09:30:34.604Z</time></trkpt><trkpt lat="44.8965938" lon="7.2072322"><ele>899.0</ele><time>2026-05-01T09:30:35.605Z</time></trkpt><trkpt lat="44.8964927" lon="7.2072964"><ele>899.0</ele><time>2026-05-01T09:30:36.605Z</time></trkpt><trkpt lat="44.8964092" lon="7.2073588"><ele>905.0000000000001</ele><time>2026-05-01T09:30:37.605Z</time></trkpt><trkpt lat="44.8963444" lon="7.2074124"><ele>911.0</ele><time>2026-05-01T09:30:38.604Z</time></trkpt><trkpt lat="44.8962891" lon="7.2074638"><ele>917.0</ele><time>2026-05-01T09:30:39.605Z</time></trkpt><trkpt lat="44.8962319" lon="7.2075467"><ele>923.0</ele><time>2026-05-01T09:30:41.605Z</time></trkpt><trkpt lat="44.8962623" lon="7.2076274"><ele>929.0000000000001</ele><time>2026-05-01T09:30:43.605Z</time></trkpt><trkpt lat="44.8963778" lon="7.2076324"><ele>935.0</ele><time>2026-05-01T09:30:45.605Z</time></trkpt><trkpt lat="44.8964676" lon="7.2076194"><ele>935.0000000000001</ele><time>2026-05-01T09:30:46.605Z</time></trkpt><trkpt lat="44.8965701" lon="7.2076031"><ele>935.0</ele><time>2026-05-01T09:30:47.605Z</time></trkpt><trkpt lat="44.8966511" lon="7.207603"><ele>935.0</ele><time>2026-05-01T09:30:48.605Z</time></trkpt><trkpt lat="44.8967279" lon="7.2076301"><ele>935.0</ele><time>2026-05-01T09:30:49.605Z</time></trkpt><trkpt lat="44.8967998" lon="7.2076653"><ele>935.0000000000001</ele><time>2026-05-01T09:30:50.605Z</time></trkpt><trkpt lat="44.8968775" lon="7.2077247"><ele>935.0</ele><time>2026-05-01T09:30:51.605Z</time></trkpt><trkpt lat="44.8969569" lon="7.207805"><ele>937.0</ele><time>2026-05-01T09:30:52.605Z</time></trkpt><trkpt lat="44.8970422" lon="7.2078902"><ele>939.0</ele><time>2026-05-01T09:30:53.605Z</time></trkpt><trkpt lat="44.8971177" lon="7.2079779"><ele>941.0</ele><time>2026-05-01T09:30:54.605Z</time></trkpt><trkpt lat="44.8972053" lon="7.2080784"><ele>943.0</ele><time>2026-05-01T09:30:55.605Z</time></trkpt><trkpt lat="44.8972845" lon="7.208185"><ele>945.0</ele><time>2026-05-01T09:30:56.605Z</time></trkpt><trkpt lat="44.8973673" lon="7.2083012"><ele>945.0</ele><time>2026-05-01T09:30:57.605Z</time></trkpt><trkpt lat="44.8974521" lon="7.20842"><ele>945.0</ele><time>2026-05-01T09:30:58.605Z</time></trkpt><trkpt lat="44.8975309" lon="7.208533"><ele>945.0</ele><time>2026-05-01T09:30:59.605Z</time></trkpt><trkpt lat="44.897595" lon="7.2086421"><ele>945.0</ele><time>2026-05-01T09:31:00.605Z</time></trkpt><trkpt lat="44.8976504" lon="7.2087545"><ele>945.0</ele><time>2026-05-01T09:31:01.605Z</time></trkpt><trkpt lat="44.8976917" lon="7.2088494"><ele>947.0</ele><time>2026-05-01T09:31:02.605Z</time></trkpt><trkpt lat="44.8977255" lon="7.2089305"><ele>949.0</ele><time>2026-05-01T09:31:03.605Z</time></trkpt><trkpt lat="44.8977598" lon="7.2090842"><ele>951.0</ele><time>2026-05-01T09:31:05.605Z</time></trkpt><trkpt lat="44.8977055" lon="7.209171"><ele>953.0</ele><time>2026-05-01T09:31:07.605Z</time></trkpt><trkpt lat="44.8976111" lon="7.2090942"><ele>955.0</ele><time>2026-05-01T09:31:09.605Z</time></trkpt><trkpt lat="44.8975556" lon="7.2090043"><ele>953.0</ele><time>2026-05-01T09:31:10.605Z</time></trkpt><trkpt lat="44.8975071" lon="7.2089188"><ele>951.0</ele><time>2026-05-01T09:31:11.605Z</time></trkpt><trkpt lat="44.8974294" lon="7.2088686"><ele>949.0</ele><time>2026-05-01T09:31:12.604Z</time></trkpt><trkpt lat="44.8973424" lon="7.2088106"><ele>947.0</ele><time>2026-05-01T09:31:13.605Z</time></trkpt><trkpt lat="44.8972387" lon="7.2087601"><ele>945.0</ele><time>2026-05-01T09:31:14.605Z</time></trkpt><trkpt lat="44.8971332" lon="7.2087022"><ele>945.0</ele><time>2026-05-01T09:31:15.605Z</time></trkpt><trkpt lat="44.8970308" lon="7.2086575"><ele>945.0</ele><time>2026-05-01T09:31:16.605Z</time></trkpt><trkpt lat="44.8969376" lon="7.208621"><ele>945.0</ele><time>2026-05-01T09:31:17.605Z</time></trkpt><trkpt lat="44.8968465" lon="7.2085973"><ele>945.0</ele><time>2026-05-01T09:31:18.605Z</time></trkpt><trkpt lat="44.8967483" lon="7.2086013"><ele>945.0</ele><time>2026-05-01T09:31:19.605Z</time></trkpt><trkpt lat="44.8966621" lon="7.2086187"><ele>949.0</ele><time>2026-05-01T09:31:20.605Z</time></trkpt><trkpt lat="44.8965749" lon="7.2086641"><ele>953.0</ele><time>2026-05-01T09:31:21.605Z</time></trkpt><trkpt lat="44.8964761" lon="7.2087236"><ele>957.0</ele><time>2026-05-01T09:31:22.605Z</time></trkpt><trkpt lat="44.8963738" lon="7.2087935"><ele>961.0</ele><time>2026-05-01T09:31:23.605Z</time></trkpt><trkpt lat="44.8962754" lon="7.2088493"><ele>965.0</ele><time>2026-05-01T09:31:24.605Z</time></trkpt><trkpt lat="44.8961892" lon="7.2089086"><ele>965.0</ele><time>2026-05-01T09:31:25.605Z</time></trkpt><trkpt lat="44.8961124" lon="7.2089887"><ele>965.0</ele><time>2026-05-01T09:31:26.605Z</time></trkpt><trkpt lat="44.8960585" lon="7.2090933"><ele>965.0</ele><time>2026-05-01T09:31:27.605Z</time></trkpt><trkpt lat="44.8960214" lon="7.2092132"><ele>965.0</ele><time>2026-05-01T09:31:28.605Z</time></trkpt><trkpt lat="44.8959894" lon="7.2093535"><ele>965.0</ele><time>2026-05-01T09:31:29.605Z</time></trkpt><trkpt lat="44.8959561" lon="7.2095199"><ele>966.75</ele><time>2026-05-01T09:31:30.605Z</time></trkpt><trkpt lat="44.8959265" lon="7.2096971"><ele>968.5</ele><time>2026-05-01T09:31:31.605Z</time></trkpt><trkpt lat="44.8959085" lon="7.2098684"><ele>970.25</ele><time>2026-05-01T09:31:32.605Z</time></trkpt><trkpt lat="44.8958904" lon="7.2100279"><ele>972.0</ele><time>2026-05-01T09:31:33.605Z</time></trkpt><trkpt lat="44.895869" lon="7.210201"><ele>976.4000000000001</ele><time>2026-05-01T09:31:34.605Z</time></trkpt><trkpt lat="44.8958464" lon="7.2103805"><ele>980.8000000000001</ele><time>2026-05-01T09:31:35.605Z</time></trkpt><trkpt lat="44.8958243" lon="7.2105365"><ele>985.2</ele><time>2026-05-01T09:31:36.604Z</time></trkpt><trkpt lat="44.895805" lon="7.210669"><ele>989.6</ele><time>2026-05-01T09:31:37.605Z</time></trkpt><trkpt lat="44.8958076" lon="7.2107826"><ele>994.0</ele><time>2026-05-01T09:31:38.605Z</time></trkpt><trkpt lat="44.8958037" lon="7.2108713"><ele>994.0</ele><time>2026-05-01T09:31:39.605Z</time></trkpt><trkpt lat="44.8957589" lon="7.2110016"><ele>994.0000000000001</ele><time>2026-05-01T09:31:41.605Z</time></trkpt><trkpt lat="44.8956907" lon="7.210951"><ele>994.0000000000001</ele><time>2026-05-01T09:31:43.605Z</time></trkpt><trkpt lat="44.8956713" lon="7.2107789"><ele>994.0</ele><time>2026-05-01T09:31:45.605Z</time></trkpt><trkpt lat="44.8956592" lon="7.2106593"><ele>994.0</ele><time>2026-05-01T09:31:46.605Z</time></trkpt><trkpt lat="44.89565" lon="7.2105172"><ele>994.1666666666666</ele><time>2026-05-01T09:31:47.605Z</time></trkpt><trkpt lat="44.8956343" lon="7.2103839"><ele>994.3333333333333</ele><time>2026-05-01T09:31:48.605Z</time></trkpt><trkpt lat="44.8956154" lon="7.210264"><ele>994.5</ele><time>2026-05-01T09:31:49.605Z</time></trkpt><trkpt lat="44.8955847" lon="7.2101719"><ele>994.6666666666667</ele><time>2026-05-01T09:31:50.605Z</time></trkpt><trkpt lat="44.8955398" lon="7.2100889"><ele>994.8333333333334</ele><time>2026-05-01T09:31:51.605Z</time></trkpt><trkpt lat="44.8954791" lon="7.210024"><ele>995.0</ele><time>2026-05-01T09:31:52.605Z</time></trkpt><trkpt lat="44.8954235" lon="7.2099763"><ele>995.0000000000001</ele><time>2026-05-01T09:31:53.605Z</time></trkpt><trkpt lat="44.8953442" lon="7.2099631"><ele>995.0</ele><time>2026-05-01T09:31:54.604Z</time></trkpt><trkpt lat="44.89526" lon="7.2099612"><ele>995.0</ele><time>2026-05-01T09:31:55.605Z</time></trkpt><trkpt lat="44.8951706" lon="7.209971"><ele>995.0</ele><time>2026-05-01T09:31:56.605Z</time></trkpt><trkpt lat="44.8950831" lon="7.2099969"><ele>995.0000000000001</ele><time>2026-05-01T09:31:57.605Z</time></trkpt><trkpt lat="44.8949911" lon="7.2100332"><ele>995.0</ele><time>2026-05-01T09:31:58.605Z</time></trkpt><trkpt lat="44.894909" lon="7.2100871"><ele>999.2</ele><time>2026-05-01T09:31:59.605Z</time></trkpt><trkpt lat="44.8948091" lon="7.2101458"><ele>1003.4</ele><time>2026-05-01T09:32:00.605Z</time></trkpt><trkpt lat="44.8947105" lon="7.2102177"><ele>1007.5999999999999</ele><time>2026-05-01T09:32:01.604Z</time></trkpt><trkpt lat="44.8946056" lon="7.2102702"><ele>1011.8</ele><time>2026-05-01T09:32:02.605Z</time></trkpt><trkpt lat="44.8945009" lon="7.2102892"><ele>1016.0</ele><time>2026-05-01T09:32:03.604Z</time></trkpt><trkpt lat="44.8943985" lon="7.2102938"><ele>1016.0</ele><time>2026-05-01T09:32:04.605Z</time></trkpt><trkpt lat="44.894308" lon="7.2103052"><ele>1015.9999999999999</ele><time>2026-05-01T09:32:05.605Z</time></trkpt><trkpt lat="44.894212" lon="7.2103248"><ele>1015.9999999999999</ele><time>2026-05-01T09:32:06.605Z</time></trkpt><trkpt lat="44.8941289" lon="7.2103514"><ele>1016.0</ele><time>2026-05-01T09:32:07.605Z</time></trkpt><trkpt lat="44.8940243" lon="7.2104225"><ele>1016.0</ele><time>2026-05-01T09:32:09.605Z</time></trkpt><trkpt lat="44.893919" lon="7.2105015"><ele>1017.1666666666667</ele><time>2026-05-01T09:32:11.605Z</time></trkpt><trkpt lat="44.893848" lon="7.2105289"><ele>1018.3333333333334</ele><time>2026-05-01T09:32:12.605Z</time></trkpt><trkpt lat="44.8937672" lon="7.2105596"><ele>1019.5</ele><time>2026-05-01T09:32:13.605Z</time></trkpt><trkpt lat="44.8936966" lon="7.2105985"><ele>1020.6666666666667</ele><time>2026-05-01T09:32:14.605Z</time></trkpt><trkpt lat="44.8936314" lon="7.2106597"><ele>1021.8333333333334</ele><time>2026-05-01T09:32:15.605Z</time></trkpt><trkpt lat="44.8935617" lon="7.210751"><ele>1023.0</ele><time>2026-05-01T09:32:16.605Z</time></trkpt><trkpt lat="44.8934804" lon="7.2108497"><ele>1027.6</ele><time>2026-05-01T09:32:17.605Z</time></trkpt><trkpt lat="44.8934033" lon="7.2109333"><ele>1032.1999999999998</ele><time>2026-05-01T09:32:18.605Z</time></trkpt><trkpt lat="44.89333" lon="7.2109935"><ele>1036.8</ele><time>2026-05-01T09:32:19.605Z</time></trkpt><trkpt lat="44.8932359" lon="7.2110251"><ele>1041.3999999999999</ele><time>2026-05-01T09:32:20.605Z</time></trkpt><trkpt lat="44.8931386" lon="7.2110297"><ele>1046.0</ele><time>2026-05-01T09:32:21.605Z</time></trkpt><trkpt lat="44.8930528" lon="7.2110283"><ele>1046.0</ele><time>2026-05-01T09:32:22.605Z</time></trkpt><trkpt lat="44.8929895" lon="7.2110448"><ele>1046.0</ele><time>2026-05-01T09:32:23.605Z</time></trkpt><trkpt lat="44.8929202" lon="7.211076"><ele>1046.0</ele><time>2026-05-01T09:32:24.605Z</time></trkpt><trkpt lat="44.8928373" lon="7.2111725"><ele>1046.0</ele><time>2026-05-01T09:32:26.605Z</time></trkpt><trkpt lat="44.8928473" lon="7.2113058"><ele>1046.0</ele><time>2026-05-01T09:32:28.605Z</time></trkpt><trkpt lat="44.8929629" lon="7.2113767"><ele>1046.0</ele><time>2026-05-01T09:32:30.604Z</time></trkpt><trkpt lat="44.8930362" lon="7.2114028"><ele>1046.0</ele><time>2026-05-01T09:32:31.605Z</time></trkpt><trkpt lat="44.8931222" lon="7.211419"><ele>1046.0</ele><time>2026-05-01T09:32:32.605Z</time></trkpt><trkpt lat="44.8932312" lon="7.2114195"><ele>1046.0</ele><time>2026-05-01T09:32:33.605Z</time></trkpt><trkpt lat="44.8933357" lon="7.2114017"><ele>1046.0</ele><time>2026-05-01T09:32:34.605Z</time></trkpt><trkpt lat="44.8934304" lon="7.2113665"><ele>1046.0</ele><time>2026-05-01T09:32:35.605Z</time></trkpt><trkpt lat="44.8935083" lon="7.2113323"><ele>1046.0</ele><time>2026-05-01T09:32:36.605Z</time></trkpt><trkpt lat="44.8935781" lon="7.2113345"><ele>1046.0</ele><time>2026-05-01T09:32:37.605Z</time></trkpt><trkpt lat="44.8936883" lon="7.2114401"><ele>1046.0</ele><time>2026-05-01T09:32:39.605Z</time></trkpt><trkpt lat="44.8937122" lon="7.2115495"><ele>1046.0</ele><time>2026-05-01T09:32:40.605Z</time></trkpt><trkpt lat="44.8937165" lon="7.2116758"><ele>1048.2</ele><time>2026-05-01T09:32:41.605Z</time></trkpt><trkpt lat="44.8937" lon="7.2118177"><ele>1050.3999999999999</ele><time>2026-05-01T09:32:42.605Z</time></trkpt><trkpt lat="44.8936846" lon="7.2119806"><ele>1052.6</ele><time>2026-05-01T09:32:43.605Z</time></trkpt><trkpt lat="44.8936792" lon="7.2121335"><ele>1054.8</ele><time>2026-05-01T09:32:44.605Z</time></trkpt><trkpt lat="44.8936821" lon="7.212297"><ele>1057.0</ele><time>2026-05-01T09:32:45.605Z</time></trkpt><trkpt lat="44.8937213" lon="7.2124602"><ele>1059.5</ele><time>2026-05-01T09:32:46.605Z</time></trkpt><trkpt lat="44.8937739" lon="7.2126403"><ele>1062.0</ele><time>2026-05-01T09:32:47.605Z</time></trkpt><trkpt lat="44.893839" lon="7.2127905"><ele>1064.5</ele><time>2026-05-01T09:32:48.605Z</time></trkpt><trkpt lat="44.8939093" lon="7.2128961"><ele>1067.0</ele><time>2026-05-01T09:32:49.605Z</time></trkpt><trkpt lat="44.893973" lon="7.2129847"><ele>1067.0</ele><time>2026-05-01T09:32:50.605Z</time></trkpt><trkpt lat="44.8940157" lon="7.2130661"><ele>1067.0</ele><time>2026-05-01T09:32:51.605Z</time></trkpt><trkpt lat="44.8940423" lon="7.213168"><ele>1067.0</ele><time>2026-05-01T09:32:52.605Z</time></trkpt><trkpt lat="44.8940474" lon="7.2132824"><ele>1067.0</ele><time>2026-05-01T09:32:53.605Z</time></trkpt><trkpt lat="44.8940504" lon="7.2133951"><ele>1067.0</ele><time>2026-05-01T09:32:54.605Z</time></trkpt><trkpt lat="44.8940496" lon="7.2135155"><ele>1067.0</ele><time>2026-05-01T09:32:55.605Z</time></trkpt><trkpt lat="44.8940476" lon="7.2136377"><ele>1067.3333333333335</ele><time>2026-05-01T09:32:56.605Z</time></trkpt><trkpt lat="44.894049" lon="7.2137456"><ele>1067.6666666666667</ele><time>2026-05-01T09:32:57.604Z</time></trkpt><trkpt lat="44.894043" lon="7.2138441"><ele>1068.0</ele><time>2026-05-01T09:32:58.605Z</time></trkpt><trkpt lat="44.8940414" lon="7.2139349"><ele>1068.3333333333333</ele><time>2026-05-01T09:32:59.605Z</time></trkpt><trkpt lat="44.8939968" lon="7.2140278"><ele>1068.6666666666665</ele><time>2026-05-01T09:33:00.605Z</time></trkpt><trkpt lat="44.8939506" lon="7.214125"><ele>1069.0</ele><time>2026-05-01T09:33:01.605Z</time></trkpt><trkpt lat="44.8938894" lon="7.2142073"><ele>1069.0</ele><time>2026-05-01T09:33:02.605Z</time></trkpt><trkpt lat="44.8938217" lon="7.2142971"><ele>1069.0</ele><time>2026-05-01T09:33:03.605Z</time></trkpt><trkpt lat="44.8937447" lon="7.2143913"><ele>1069.0</ele><time>2026-05-01T09:33:04.605Z</time></trkpt><trkpt lat="44.8936862" lon="7.2144835"><ele>1069.0</ele><time>2026-05-01T09:33:05.605Z</time></trkpt><trkpt lat="44.8936459" lon="7.214593"><ele>1069.0</ele><time>2026-05-01T09:33:06.605Z</time></trkpt><trkpt lat="44.8936118" lon="7.2147273"><ele>1067.75</ele><time>2026-05-01T09:33:07.605Z</time></trkpt><trkpt lat="44.8935817" lon="7.2148905"><ele>1066.5</ele><time>2026-05-01T09:33:08.605Z</time></trkpt><trkpt lat="44.8935658" lon="7.2150483"><ele>1065.25</ele><time>2026-05-01T09:33:09.605Z</time></trkpt><trkpt lat="44.8935505" lon="7.2152064"><ele>1064.0</ele><time>2026-05-01T09:33:10.605Z</time></trkpt><trkpt lat="44.8935331" lon="7.2153734"><ele>1064.0</ele><time>2026-05-01T09:33:11.605Z</time></trkpt><trkpt lat="44.8935228" lon="7.2155259"><ele>1064.0</ele><time>2026-05-01T09:33:12.604Z</time></trkpt><trkpt lat="44.8935225" lon="7.2156832"><ele>1064.0</ele><time>2026-05-01T09:33:13.605Z</time></trkpt><trkpt lat="44.8935313" lon="7.2158575"><ele>1064.0</ele><time>2026-05-01T09:33:14.605Z</time></trkpt><trkpt lat="44.8935408" lon="7.215995"><ele>1064.0</ele><time>2026-05-01T09:33:15.605Z</time></trkpt><trkpt lat="44.8935393" lon="7.2161441"><ele>1064.2</ele><time>2026-05-01T09:33:16.604Z</time></trkpt><trkpt lat="44.8935339" lon="7.2162903"><ele>1064.4</ele><time>2026-05-01T09:33:17.605Z</time></trkpt><trkpt lat="44.8935191" lon="7.2164064"><ele>1064.6</ele><time>2026-05-01T09:33:18.605Z</time></trkpt><trkpt lat="44.8934855" lon="7.2165635"><ele>1064.8</ele><time>2026-05-01T09:33:20.605Z</time></trkpt><trkpt lat="44.8934269" lon="7.2166063"><ele>1065.0</ele><time>2026-05-01T09:33:22.605Z</time></trkpt><trkpt lat="44.8933927" lon="7.2164555"><ele>1072.4</ele><time>2026-05-01T09:33:25.605Z</time></trkpt><trkpt lat="44.8933617" lon="7.2162671"><ele>1079.8</ele><time>2026-05-01T09:33:27.605Z</time></trkpt><trkpt lat="44.8933244" lon="7.2161497"><ele>1087.2</ele><time>2026-05-01T09:33:28.605Z</time></trkpt><trkpt lat="44.8932908" lon="7.2160311"><ele>1094.6</ele><time>2026-05-01T09:33:29.605Z</time></trkpt><trkpt lat="44.8932363" lon="7.2159001"><ele>1102.0</ele><time>2026-05-01T09:33:30.605Z</time></trkpt><trkpt lat="44.8931769" lon="7.2157794"><ele>1102.0</ele><time>2026-05-01T09:33:31.605Z</time></trkpt><trkpt lat="44.8931233" lon="7.2156916"><ele>1102.0</ele><time>2026-05-01T09:33:32.605Z</time></trkpt><trkpt lat="44.893079" lon="7.2155948"><ele>1102.0</ele><time>2026-05-01T09:33:33.605Z</time></trkpt><trkpt lat="44.8930525" lon="7.215486"><ele>1102.0</ele><time>2026-05-01T09:33:34.605Z</time></trkpt><trkpt lat="44.8930408" lon="7.2153738"><ele>1102.0</ele><time>2026-05-01T09:33:35.605Z</time></trkpt><trkpt lat="44.8930321" lon="7.2152769"><ele>1102.0</ele><time>2026-05-01T09:33:36.605Z</time></trkpt><trkpt lat="44.8930141" lon="7.2151235"><ele>1101.6</ele><time>2026-05-01T09:33:38.605Z</time></trkpt><trkpt lat="44.8929553" lon="7.215065"><ele>1101.2</ele><time>2026-05-01T09:33:40.605Z</time></trkpt><trkpt lat="44.8929124" lon="7.2151936"><ele>1100.8</ele><time>2026-05-01T09:33:43.605Z</time></trkpt><trkpt lat="44.8929219" lon="7.2153969"><ele>1100.4</ele><time>2026-05-01T09:33:45.605Z</time></trkpt><trkpt lat="44.8929209" lon="7.2155029"><ele>1100.0</ele><time>2026-05-01T09:33:46.605Z</time></trkpt><trkpt lat="44.8929138" lon="7.2156276"><ele>1100.4</ele><time>2026-05-01T09:33:47.605Z</time></trkpt><trkpt lat="44.8928974" lon="7.2157567"><ele>1100.8</ele><time>2026-05-01T09:33:48.605Z</time></trkpt><trkpt lat="44.8928664" lon="7.2158943"><ele>1101.2</ele><time>2026-05-01T09:33:49.605Z</time></trkpt><trkpt lat="44.8928352" lon="7.2160498"><ele>1101.6</ele><time>2026-05-01T09:33:50.605Z</time></trkpt><trkpt lat="44.892809" lon="7.2161914"><ele>1102.0</ele><time>2026-05-01T09:33:51.605Z</time></trkpt><trkpt lat="44.8927843" lon="7.2163333"><ele>1102.0</ele><time>2026-05-01T09:33:52.604Z</time></trkpt><trkpt lat="44.8927565" lon="7.2164697"><ele>1102.0</ele><time>2026-05-01T09:33:53.605Z</time></trkpt><trkpt lat="44.8927342" lon="7.2165924"><ele>1102.0</ele><time>2026-05-01T09:33:54.605Z</time></trkpt><trkpt lat="44.892705" lon="7.2167238"><ele>1102.0</ele><time>2026-05-01T09:33:55.605Z</time></trkpt><trkpt lat="44.8926749" lon="7.2168227"><ele>1102.0</ele><time>2026-05-01T09:33:56.605Z</time></trkpt><trkpt lat="44.8926268" lon="7.2169185"><ele>1102.0</ele><time>2026-05-01T09:33:57.605Z</time></trkpt><trkpt lat="44.8925549" lon="7.2170211"><ele>1108.25</ele><time>2026-05-01T09:33:58.604Z</time></trkpt><trkpt lat="44.8924814" lon="7.2171164"><ele>1114.5</ele><time>2026-05-01T09:33:59.605Z</time></trkpt><trkpt lat="44.8923998" lon="7.2172227"><ele>1120.75</ele><time>2026-05-01T09:34:00.605Z</time></trkpt><trkpt lat="44.8923076" lon="7.2173675"><ele>1127.0</ele><time>2026-05-01T09:34:01.605Z</time></trkpt><trkpt lat="44.8922097" lon="7.2175002"><ele>1127.0</ele><time>2026-05-01T09:34:02.605Z</time></trkpt><trkpt lat="44.8921381" lon="7.2176158"><ele>1127.0</ele><time>2026-05-01T09:34:03.605Z</time></trkpt><trkpt lat="44.8920611" lon="7.2177278"><ele>1127.0</ele><time>2026-05-01T09:34:04.605Z</time></trkpt><trkpt lat="44.8919959" lon="7.2178393"><ele>1127.0</ele><time>2026-05-01T09:34:05.605Z</time></trkpt><trkpt lat="44.8919492" lon="7.2179451"><ele>1127.0</ele><time>2026-05-01T09:34:06.605Z</time></trkpt><trkpt lat="44.8919176" lon="7.2180406"><ele>1125.3333333333335</ele><time>2026-05-01T09:34:07.605Z</time></trkpt><trkpt lat="44.8919017" lon="7.2181523"><ele>1123.6666666666667</ele><time>2026-05-01T09:34:08.605Z</time></trkpt><trkpt lat="44.8918937" lon="7.2182645"><ele>1122.0</ele><time>2026-05-01T09:34:09.605Z</time></trkpt><trkpt lat="44.8918916" lon="7.2183679"><ele>1120.3333333333333</ele><time>2026-05-01T09:34:10.605Z</time></trkpt><trkpt lat="44.8918921" lon="7.2184687"><ele>1118.6666666666665</ele><time>2026-05-01T09:34:11.605Z</time></trkpt><trkpt lat="44.8919016" lon="7.2185598"><ele>1117.0</ele><time>2026-05-01T09:34:12.605Z</time></trkpt><trkpt lat="44.8919163" lon="7.2187157"><ele>1117.0</ele><time>2026-05-01T09:34:14.605Z</time></trkpt><trkpt lat="44.8918871" lon="7.2188269"><ele>1117.0</ele><time>2026-05-01T09:34:16.605Z</time></trkpt><trkpt lat="44.891797" lon="7.2188586"><ele>1117.0</ele><time>2026-05-01T09:34:18.605Z</time></trkpt><trkpt lat="44.8916978" lon="7.2188213"><ele>1117.0</ele><time>2026-05-01T09:34:20.605Z</time></trkpt><trkpt lat="44.891636" lon="7.2187948"><ele>1117.0</ele><time>2026-05-01T09:34:21.605Z</time></trkpt><trkpt lat="44.8915662" lon="7.2187627"><ele>1117.0</ele><time>2026-05-01T09:34:22.605Z</time></trkpt><trkpt lat="44.8914871" lon="7.2187222"><ele>1120.6666666666665</ele><time>2026-05-01T09:34:23.605Z</time></trkpt><trkpt lat="44.8914196" lon="7.2186884"><ele>1124.3333333333333</ele><time>2026-05-01T09:34:24.605Z</time></trkpt><trkpt lat="44.8913396" lon="7.2186542"><ele>1128.0</ele><time>2026-05-01T09:34:25.605Z</time></trkpt><trkpt lat="44.8912574" lon="7.2186223"><ele>1131.6666666666667</ele><time>2026-05-01T09:34:26.605Z</time></trkpt><trkpt lat="44.8911602" lon="7.2185925"><ele>1135.3333333333335</ele><time>2026-05-01T09:34:27.605Z</time></trkpt><trkpt lat="44.8910573" lon="7.2185765"><ele>1139.0</ele><time>2026-05-01T09:34:28.604Z</time></trkpt><trkpt lat="44.8909636" lon="7.2185684"><ele>1141.0</ele><time>2026-05-01T09:34:29.605Z</time></trkpt><trkpt lat="44.8908711" lon="7.2185692"><ele>1143.0</ele><time>2026-05-01T09:34:30.605Z</time></trkpt><trkpt lat="44.8907776" lon="7.2185605"><ele>1145.0</ele><time>2026-05-01T09:34:31.605Z</time></trkpt><trkpt lat="44.8907003" lon="7.2185751"><ele>1147.0</ele><time>2026-05-01T09:34:32.604Z</time></trkpt><trkpt lat="44.8906344" lon="7.2185879"><ele>1149.0</ele><time>2026-05-01T09:34:33.605Z</time></trkpt><trkpt lat="44.8905696" lon="7.2186273"><ele>1151.0</ele><time>2026-05-01T09:34:34.604Z</time></trkpt><trkpt lat="44.8905092" lon="7.2186768"><ele>1151.0</ele><time>2026-05-01T09:34:35.605Z</time></trkpt><trkpt lat="44.8904065" lon="7.2187575"><ele>1151.0</ele><time>2026-05-01T09:34:37.605Z</time></trkpt><trkpt lat="44.890324" lon="7.2188354"><ele>1151.0</ele><time>2026-05-01T09:34:39.605Z</time></trkpt><trkpt lat="44.8902569" lon="7.2188829"><ele>1151.0</ele><time>2026-05-01T09:34:41.605Z</time></trkpt><trkpt lat="44.8901667" lon="7.2188912"><ele>1151.0</ele><time>2026-05-01T09:34:44.605Z</time></trkpt><trkpt lat="44.8900946" lon="7.2188979"><ele>1153.8333333333335</ele><time>2026-05-01T09:34:46.605Z</time></trkpt><trkpt lat="44.8899961" lon="7.2188776"><ele>1156.6666666666667</ele><time>2026-05-01T09:34:48.605Z</time></trkpt><trkpt lat="44.8899202" lon="7.2188599"><ele>1159.5</ele><time>2026-05-01T09:34:49.605Z</time></trkpt><trkpt lat="44.8898513" lon="7.2188483"><ele>1162.3333333333333</ele><time>2026-05-01T09:34:50.604Z</time></trkpt><trkpt lat="44.8897625" lon="7.2188422"><ele>1165.1666666666665</ele><time>2026-05-01T09:34:51.605Z</time></trkpt><trkpt lat="44.8896781" lon="7.2188532"><ele>1168.0</ele><time>2026-05-01T09:34:52.605Z</time></trkpt><trkpt lat="44.8896073" lon="7.2188939"><ele>1168.0</ele><time>2026-05-01T09:34:53.605Z</time></trkpt><trkpt lat="44.889542" lon="7.2189212"><ele>1168.0</ele><time>2026-05-01T09:34:54.604Z</time></trkpt><trkpt lat="44.8894805" lon="7.2189954"><ele>1168.0</ele><time>2026-05-01T09:34:55.605Z</time></trkpt><trkpt lat="44.8894332" lon="7.2190716"><ele>1168.0</ele><time>2026-05-01T09:34:56.605Z</time></trkpt><trkpt lat="44.8893872" lon="7.2191642"><ele>1168.0</ele><time>2026-05-01T09:34:57.605Z</time></trkpt><trkpt lat="44.8893422" lon="7.2192498"><ele>1168.0</ele><time>2026-05-01T09:34:58.605Z</time></trkpt><trkpt lat="44.8892822" lon="7.2193426"><ele>1167.0</ele><time>2026-05-01T09:34:59.605Z</time></trkpt><trkpt lat="44.8892255" lon="7.2194335"><ele>1166.0</ele><time>2026-05-01T09:35:00.605Z</time></trkpt><trkpt lat="44.8891694" lon="7.2195243"><ele>1165.0</ele><time>2026-05-01T09:35:01.605Z</time></trkpt><trkpt lat="44.8891182" lon="7.2196481"><ele>1164.0</ele><time>2026-05-01T09:35:02.605Z</time></trkpt><trkpt lat="44.8890606" lon="7.219787"><ele>1163.0</ele><time>2026-05-01T09:35:03.605Z</time></trkpt><trkpt lat="44.8890127" lon="7.2199002"><ele>1161.3333333333335</ele><time>2026-05-01T09:35:04.605Z</time></trkpt><trkpt lat="44.8889694" lon="7.2200144"><ele>1159.6666666666667</ele><time>2026-05-01T09:35:05.605Z</time></trkpt><trkpt lat="44.8889248" lon="7.2201231"><ele>1158.0</ele><time>2026-05-01T09:35:06.605Z</time></trkpt><trkpt lat="44.8888759" lon="7.2202192"><ele>1156.3333333333333</ele><time>2026-05-01T09:35:07.605Z</time></trkpt><trkpt lat="44.8888275" lon="7.2202896"><ele>1154.6666666666665</ele><time>2026-05-01T09:35:08.605Z</time></trkpt><trkpt lat="44.8887678" lon="7.2203537"><ele>1153.0</ele><time>2026-05-01T09:35:09.605Z</time></trkpt><trkpt lat="44.8887119" lon="7.2204039"><ele>1153.0</ele><time>2026-05-01T09:35:10.604Z</time></trkpt><trkpt lat="44.8886402" lon="7.2204472"><ele>1153.0</ele><time>2026-05-01T09:35:11.605Z</time></trkpt><trkpt lat="44.8885659" lon="7.2204739"><ele>1153.0</ele><time>2026-05-01T09:35:12.605Z</time></trkpt><trkpt lat="44.8884867" lon="7.2204918"><ele>1153.0</ele><time>2026-05-01T09:35:13.605Z</time></trkpt><trkpt lat="44.8884025" lon="7.2204932"><ele>1153.0</ele><time>2026-05-01T09:35:14.605Z</time></trkpt><trkpt lat="44.8883075" lon="7.2205154"><ele>1153.0</ele><time>2026-05-01T09:35:15.605Z</time></trkpt><trkpt lat="44.8882274" lon="7.2205432"><ele>1154.3333333333333</ele><time>2026-05-01T09:35:16.605Z</time></trkpt><trkpt lat="44.888156" lon="7.2205716"><ele>1155.6666666666665</ele><time>2026-05-01T09:35:17.605Z</time></trkpt><trkpt lat="44.8880535" lon="7.2206382"><ele>1157.0</ele><time>2026-05-01T09:35:19.604Z</time></trkpt><trkpt lat="44.8879773" lon="7.2207504"><ele>1158.3333333333333</ele><time>2026-05-01T09:35:21.605Z</time></trkpt><trkpt lat="44.8879445" lon="7.2208452"><ele>1159.6666666666667</ele><time>2026-05-01T09:35:22.605Z</time></trkpt><trkpt lat="44.8879228" lon="7.2209344"><ele>1161.0</ele><time>2026-05-01T09:35:23.605Z</time></trkpt><trkpt lat="44.887859" lon="7.2210843"><ele>1161.0</ele><time>2026-05-01T09:35:25.605Z</time></trkpt><trkpt lat="44.8877531" lon="7.2211945"><ele>1161.0</ele><time>2026-05-01T09:35:27.605Z</time></trkpt><trkpt lat="44.8876981" lon="7.2212441"><ele>1161.0</ele><time>2026-05-01T09:35:28.605Z</time></trkpt><trkpt lat="44.8876017" lon="7.2213031"><ele>1161.0</ele><time>2026-05-01T09:35:30.605Z</time></trkpt><trkpt lat="44.8875287" lon="7.2213522"><ele>1161.0</ele><time>2026-05-01T09:35:32.605Z</time></trkpt><trkpt lat="44.8874632" lon="7.2213286"><ele>1161.0</ele><time>2026-05-01T09:35:34.605Z</time></trkpt><trkpt lat="44.8874826" lon="7.2212305"><ele>1161.0</ele><time>2026-05-01T09:35:36.605Z</time></trkpt><trkpt lat="44.887526" lon="7.2211277"><ele>1161.0</ele><time>2026-05-01T09:35:38.605Z</time></trkpt><trkpt lat="44.8875682" lon="7.2209768"><ele>1161.0</ele><time>2026-05-01T09:35:40.605Z</time></trkpt><trkpt lat="44.8875937" lon="7.2208802"><ele>1161.0</ele><time>2026-05-01T09:35:42.605Z</time></trkpt><trkpt lat="44.8876131" lon="7.2207276"><ele>1164.8333333333333</ele><time>2026-05-01T09:35:44.605Z</time></trkpt><trkpt lat="44.887613" lon="7.2206096"><ele>1168.6666666666667</ele><time>2026-05-01T09:35:46.605Z</time></trkpt><trkpt lat="44.8876385" lon="7.2204978"><ele>1172.5</ele><time>2026-05-01T09:35:48.605Z</time></trkpt><trkpt lat="44.8876881" lon="7.2203941"><ele>1176.3333333333335</ele><time>2026-05-01T09:35:50.605Z</time></trkpt><trkpt lat="44.8877689" lon="7.220307"><ele>1180.1666666666667</ele><time>2026-05-01T09:35:52.605Z</time></trkpt><trkpt lat="44.8878444" lon="7.220285"><ele>1184.0</ele><time>2026-05-01T09:35:53.605Z</time></trkpt><trkpt lat="44.8879029" lon="7.2202515"><ele>1184.0</ele><time>2026-05-01T09:35:54.605Z</time></trkpt><trkpt lat="44.888004" lon="7.2201806"><ele>1184.0</ele><time>2026-05-01T09:35:56.605Z</time></trkpt><trkpt lat="44.8880635" lon="7.2201171"><ele>1184.0</ele><time>2026-05-01T09:35:57.605Z</time></trkpt><trkpt lat="44.888157" lon="7.220007"><ele>1184.0</ele><time>2026-05-01T09:35:59.605Z</time></trkpt><trkpt lat="44.8882069" lon="7.2199375"><ele>1184.0</ele><time>2026-05-01T09:36:00.605Z</time></trkpt><trkpt lat="44.8882628" lon="7.2198499"><ele>1186.4285714285716</ele><time>2026-05-01T09:36:01.605Z</time></trkpt><trkpt lat="44.8883003" lon="7.2197495"><ele>1188.857142857143</ele><time>2026-05-01T09:36:02.605Z</time></trkpt><trkpt lat="44.8883439" lon="7.2196683"><ele>1191.2857142857142</ele><time>2026-05-01T09:36:03.605Z</time></trkpt><trkpt lat="44.8883779" lon="7.2195808"><ele>1193.7142857142858</ele><time>2026-05-01T09:36:04.605Z</time></trkpt><trkpt lat="44.8884058" lon="7.2194762"><ele>1196.142857142857</ele><time>2026-05-01T09:36:05.605Z</time></trkpt><trkpt lat="44.8884393" lon="7.2193839"><ele>1198.5714285714287</ele><time>2026-05-01T09:36:06.605Z</time></trkpt><trkpt lat="44.888471" lon="7.2192936"><ele>1201.0</ele><time>2026-05-01T09:36:07.605Z</time></trkpt><trkpt lat="44.8884792" lon="7.2191865"><ele>1198.8333333333333</ele><time>2026-05-01T09:36:08.605Z</time></trkpt><trkpt lat="44.8884909" lon="7.2190983"><ele>1196.6666666666665</ele><time>2026-05-01T09:36:09.605Z</time></trkpt><trkpt lat="44.8884984" lon="7.2189978"><ele>1194.5</ele><time>2026-05-01T09:36:10.605Z</time></trkpt><trkpt lat="44.8885218" lon="7.2188972"><ele>1192.3333333333333</ele><time>2026-05-01T09:36:11.605Z</time></trkpt><trkpt lat="44.8885589" lon="7.2187991"><ele>1190.1666666666667</ele><time>2026-05-01T09:36:12.605Z</time></trkpt><trkpt lat="44.8885996" lon="7.2187026"><ele>1188.0</ele><time>2026-05-01T09:36:13.605Z</time></trkpt><trkpt lat="44.8886446" lon="7.218591"><ele>1188.0</ele><time>2026-05-01T09:36:14.605Z</time></trkpt><trkpt lat="44.8886868" lon="7.2184912"><ele>1188.0</ele><time>2026-05-01T09:36:15.605Z</time></trkpt><trkpt lat="44.888735" lon="7.2184078"><ele>1188.0</ele><time>2026-05-01T09:36:16.605Z</time></trkpt><trkpt lat="44.8887993" lon="7.2183348"><ele>1188.0</ele><time>2026-05-01T09:36:17.605Z</time></trkpt><trkpt lat="44.88887" lon="7.2182632"><ele>1188.0</ele><time>2026-05-01T09:36:18.605Z</time></trkpt><trkpt lat="44.8889233" lon="7.2181975"><ele>1188.0</ele><time>2026-05-01T09:36:19.605Z</time></trkpt><trkpt lat="44.8889843" lon="7.2181297"><ele>1193.2</ele><time>2026-05-01T09:36:20.605Z</time></trkpt><trkpt lat="44.8890272" lon="7.2180553"><ele>1198.4</ele><time>2026-05-01T09:36:21.605Z</time></trkpt><trkpt lat="44.8890958" lon="7.2178865"><ele>1203.6000000000001</ele><time>2026-05-01T09:36:23.605Z</time></trkpt><trkpt lat="44.8891491" lon="7.2177808"><ele>1208.8</ele><time>2026-05-01T09:36:24.604Z</time></trkpt><trkpt lat="44.8891958" lon="7.2176789"><ele>1214.0</ele><time>2026-05-01T09:36:25.605Z</time></trkpt><trkpt lat="44.8892503" lon="7.2175757"><ele>1212.0</ele><time>2026-05-01T09:36:26.605Z</time></trkpt><trkpt lat="44.8893039" lon="7.2174678"><ele>1210.0</ele><time>2026-05-01T09:36:27.605Z</time></trkpt><trkpt lat="44.8893743" lon="7.2173722"><ele>1208.0</ele><time>2026-05-01T09:36:28.605Z</time></trkpt><trkpt lat="44.8894347" lon="7.2172782"><ele>1206.0</ele><time>2026-05-01T09:36:29.605Z</time></trkpt><trkpt lat="44.8894925" lon="7.2171788"><ele>1204.0</ele><time>2026-05-01T09:36:30.605Z</time></trkpt><trkpt lat="44.8895601" lon="7.2170892"><ele>1204.0</ele><time>2026-05-01T09:36:31.605Z</time></trkpt><trkpt lat="44.8896259" lon="7.217023"><ele>1204.0</ele><time>2026-05-01T09:36:32.605Z</time></trkpt><trkpt lat="44.8896975" lon="7.2169584"><ele>1204.0</ele><time>2026-05-01T09:36:33.605Z</time></trkpt><trkpt lat="44.8897529" lon="7.2168894"><ele>1204.0</ele><time>2026-05-01T09:36:34.605Z</time></trkpt><trkpt lat="44.8898119" lon="7.2168179"><ele>1204.0</ele><time>2026-05-01T09:36:35.605Z</time></trkpt><trkpt lat="44.8898567" lon="7.2167344"><ele>1204.0</ele><time>2026-05-01T09:36:36.605Z</time></trkpt><trkpt lat="44.889907" lon="7.2166611"><ele>1204.0</ele><time>2026-05-01T09:36:37.605Z</time></trkpt><trkpt lat="44.8899637" lon="7.2165231"><ele>1204.0</ele><time>2026-05-01T09:36:39.605Z</time></trkpt><trkpt lat="44.8899694" lon="7.2163537"><ele>1204.0</ele><time>2026-05-01T09:36:41.605Z</time></trkpt><trkpt lat="44.8899588" lon="7.2162602"><ele>1204.0</ele><time>2026-05-01T09:36:42.605Z</time></trkpt><trkpt lat="44.8899587" lon="7.2161339"><ele>1204.0</ele><time>2026-05-01T09:36:43.605Z</time></trkpt><trkpt lat="44.8899567" lon="7.2160324"><ele>1204.3333333333333</ele><time>2026-05-01T09:36:44.605Z</time></trkpt><trkpt lat="44.8899445" lon="7.2159276"><ele>1204.6666666666665</ele><time>2026-05-01T09:36:45.605Z</time></trkpt><trkpt lat="44.8899186" lon="7.215825"><ele>1205.0</ele><time>2026-05-01T09:36:46.605Z</time></trkpt><trkpt lat="44.8898881" lon="7.2157212"><ele>1205.3333333333333</ele><time>2026-05-01T09:36:47.605Z</time></trkpt><trkpt lat="44.8898443" lon="7.2156094"><ele>1205.6666666666667</ele><time>2026-05-01T09:36:48.605Z</time></trkpt><trkpt lat="44.8898067" lon="7.2154916"><ele>1206.0</ele><time>2026-05-01T09:36:49.605Z</time></trkpt><trkpt lat="44.889769" lon="7.2153779"><ele>1204.5</ele><time>2026-05-01T09:36:50.605Z</time></trkpt><trkpt lat="44.8897303" lon="7.2152726"><ele>1203.0</ele><time>2026-05-01T09:36:51.605Z</time></trkpt><trkpt lat="44.8896897" lon="7.2151863"><ele>1201.5</ele><time>2026-05-01T09:36:52.605Z</time></trkpt><trkpt lat="44.889641" lon="7.2151256"><ele>1200.0</ele><time>2026-05-01T09:36:53.605Z</time></trkpt><trkpt lat="44.8895314" lon="7.2150692"><ele>1198.5</ele><time>2026-05-01T09:36:55.605Z</time></trkpt><trkpt lat="44.8894619" lon="7.2150445"><ele>1197.0</ele><time>2026-05-01T09:36:56.605Z</time></trkpt><trkpt lat="44.8893892" lon="7.2150195"><ele>1197.0</ele><time>2026-05-01T09:36:57.605Z</time></trkpt><trkpt lat="44.8893162" lon="7.2150004"><ele>1197.0</ele><time>2026-05-01T09:36:58.605Z</time></trkpt><trkpt lat="44.8892443" lon="7.2149717"><ele>1197.0</ele><time>2026-05-01T09:36:59.605Z</time></trkpt><trkpt lat="44.8891756" lon="7.2149244"><ele>1197.0</ele><time>2026-05-01T09:37:00.605Z</time></trkpt><trkpt lat="44.8891236" lon="7.2148523"><ele>1197.0</ele><time>2026-05-01T09:37:01.605Z</time></trkpt><trkpt lat="44.8890885" lon="7.2147634"><ele>1197.0</ele><time>2026-05-01T09:37:02.604Z</time></trkpt><trkpt lat="44.8890633" lon="7.2146785"><ele>1197.0</ele><time>2026-05-01T09:37:03.604Z</time></trkpt><trkpt lat="44.8890236" lon="7.2146031"><ele>1198.3333333333333</ele><time>2026-05-01T09:37:04.605Z</time></trkpt><trkpt lat="44.8889708" lon="7.2145362"><ele>1199.6666666666667</ele><time>2026-05-01T09:37:05.605Z</time></trkpt><trkpt lat="44.8888995" lon="7.2144674"><ele>1201.0</ele><time>2026-05-01T09:37:06.605Z</time></trkpt><trkpt lat="44.8888245" lon="7.2143873"><ele>1202.3333333333335</ele><time>2026-05-01T09:37:07.605Z</time></trkpt><trkpt lat="44.8887566" lon="7.214312"><ele>1203.6666666666667</ele><time>2026-05-01T09:37:08.605Z</time></trkpt><trkpt lat="44.8886748" lon="7.2142416"><ele>1205.0</ele><time>2026-05-01T09:37:09.605Z</time></trkpt><trkpt lat="44.8885934" lon="7.2141825"><ele>1205.0</ele><time>2026-05-01T09:37:10.605Z</time></trkpt><trkpt lat="44.888503" lon="7.2141346"><ele>1205.0</ele><time>2026-05-01T09:37:11.605Z</time></trkpt><trkpt lat="44.8884009" lon="7.21408"><ele>1205.0</ele><time>2026-05-01T09:37:12.605Z</time></trkpt><trkpt lat="44.8883176" lon="7.2140223"><ele>1205.0</ele><time>2026-05-01T09:37:13.605Z</time></trkpt><trkpt lat="44.8882429" lon="7.2139603"><ele>1205.0</ele><time>2026-05-01T09:37:14.605Z</time></trkpt><trkpt lat="44.8881715" lon="7.2138853"><ele>1206.8333333333335</ele><time>2026-05-01T09:37:15.605Z</time></trkpt><trkpt lat="44.8880975" lon="7.2138164"><ele>1208.6666666666667</ele><time>2026-05-01T09:37:16.605Z</time></trkpt><trkpt lat="44.8880085" lon="7.2137352"><ele>1210.5</ele><time>2026-05-01T09:37:17.605Z</time></trkpt><trkpt lat="44.8879378" lon="7.2136738"><ele>1212.3333333333333</ele><time>2026-05-01T09:37:18.605Z</time></trkpt><trkpt lat="44.8878739" lon="7.2136114"><ele>1214.1666666666665</ele><time>2026-05-01T09:37:19.605Z</time></trkpt><trkpt lat="44.8878061" lon="7.213569"><ele>1216.0</ele><time>2026-05-01T09:37:20.605Z</time></trkpt><trkpt lat="44.8877326" lon="7.2135402"><ele>1216.0</ele><time>2026-05-01T09:37:21.605Z</time></trkpt><trkpt lat="44.8876551" lon="7.2135305"><ele>1216.0</ele><time>2026-05-01T09:37:22.605Z</time></trkpt><trkpt lat="44.8875823" lon="7.2135201"><ele>1216.0</ele><time>2026-05-01T09:37:23.605Z</time></trkpt><trkpt lat="44.8875118" lon="7.2134946"><ele>1216.0</ele><time>2026-05-01T09:37:24.605Z</time></trkpt><trkpt lat="44.8874418" lon="7.213474"><ele>1216.0</ele><time>2026-05-01T09:37:25.605Z</time></trkpt><trkpt lat="44.8873815" lon="7.2134372"><ele>1216.0</ele><time>2026-05-01T09:37:26.605Z</time></trkpt><trkpt lat="44.8873176" lon="7.2134062"><ele>1216.0</ele><time>2026-05-01T09:37:27.605Z</time></trkpt><trkpt lat="44.8872439" lon="7.2133304"><ele>1217.3999999999999</ele><time>2026-05-01T09:37:29.605Z</time></trkpt><trkpt lat="44.8871799" lon="7.2132396"><ele>1218.8</ele><time>2026-05-01T09:37:31.605Z</time></trkpt><trkpt lat="44.8871405" lon="7.2131157"><ele>1220.1999999999998</ele><time>2026-05-01T09:37:33.605Z</time></trkpt><trkpt lat="44.8870981" lon="7.2129858"><ele>1221.6</ele><time>2026-05-01T09:37:35.605Z</time></trkpt><trkpt lat="44.8870349" lon="7.2128783"><ele>1223.0</ele><time>2026-05-01T09:37:37.605Z</time></trkpt><trkpt lat="44.8869698" lon="7.2127616"><ele>1223.0</ele><time>2026-05-01T09:37:39.605Z</time></trkpt><trkpt lat="44.8868752" lon="7.2126631"><ele>1223.0</ele><time>2026-05-01T09:37:41.605Z</time></trkpt><trkpt lat="44.8868114" lon="7.2126407"><ele>1223.0</ele><time>2026-05-01T09:37:42.605Z</time></trkpt><trkpt lat="44.8867459" lon="7.2126475"><ele>1223.0</ele><time>2026-05-01T09:37:43.605Z</time></trkpt><trkpt lat="44.8866503" lon="7.2127364"><ele>1223.0</ele><time>2026-05-01T09:37:45.605Z</time></trkpt><trkpt lat="44.8865992" lon="7.2128196"><ele>1223.0</ele><time>2026-05-01T09:37:46.605Z</time></trkpt><trkpt lat="44.8865081" lon="7.21292"><ele>1225.1666666666667</ele><time>2026-05-01T09:37:48.605Z</time></trkpt><trkpt lat="44.8864107" lon="7.2129016"><ele>1227.3333333333335</ele><time>2026-05-01T09:37:50.605Z</time></trkpt><trkpt lat="44.8863581" lon="7.2128504"><ele>1229.5</ele><time>2026-05-01T09:37:51.605Z</time></trkpt><trkpt lat="44.8863045" lon="7.2127657"><ele>1231.6666666666667</ele><time>2026-05-01T09:37:52.605Z</time></trkpt><trkpt lat="44.8862297" lon="7.2126625"><ele>1233.8333333333333</ele><time>2026-05-01T09:37:53.604Z</time></trkpt><trkpt lat="44.8861736" lon="7.2125595"><ele>1236.0</ele><time>2026-05-01T09:37:54.605Z</time></trkpt><trkpt lat="44.8861338" lon="7.2124661"><ele>1236.0</ele><time>2026-05-01T09:37:55.605Z</time></trkpt><trkpt lat="44.8860982" lon="7.2123716"><ele>1236.0</ele><time>2026-05-01T09:37:56.605Z</time></trkpt><trkpt lat="44.8860645" lon="7.212278"><ele>1236.0</ele><time>2026-05-01T09:37:57.605Z</time></trkpt><trkpt lat="44.8860273" lon="7.2121677"><ele>1236.0</ele><time>2026-05-01T09:37:58.605Z</time></trkpt><trkpt lat="44.8859983" lon="7.2120561"><ele>1236.0</ele><time>2026-05-01T09:37:59.605Z</time></trkpt><trkpt lat="44.8859705" lon="7.2119553"><ele>1236.0</ele><time>2026-05-01T09:38:00.605Z</time></trkpt><trkpt lat="44.8859468" lon="7.2118622"><ele>1236.0</ele><time>2026-05-01T09:38:01.605Z</time></trkpt><trkpt lat="44.8859294" lon="7.2117702"><ele>1236.0</ele><time>2026-05-01T09:38:02.605Z</time></trkpt><trkpt lat="44.8858954" lon="7.2116827"><ele>1236.0</ele><time>2026-05-01T09:38:03.605Z</time></trkpt><trkpt lat="44.8858568" lon="7.2115849"><ele>1236.0</ele><time>2026-05-01T09:38:04.604Z</time></trkpt><trkpt lat="44.8858255" lon="7.2114708"><ele>1236.0</ele><time>2026-05-01T09:38:05.605Z</time></trkpt><trkpt lat="44.8858047" lon="7.2113645"><ele>1236.0</ele><time>2026-05-01T09:38:06.605Z</time></trkpt><trkpt lat="44.8857852" lon="7.2112724"><ele>1238.4285714285716</ele><time>2026-05-01T09:38:07.605Z</time></trkpt><trkpt lat="44.8857619" lon="7.2111852"><ele>1240.857142857143</ele><time>2026-05-01T09:38:08.605Z</time></trkpt><trkpt lat="44.8857265" lon="7.2110947"><ele>1243.2857142857142</ele><time>2026-05-01T09:38:09.605Z</time></trkpt><trkpt lat="44.8856773" lon="7.2110184"><ele>1245.7142857142858</ele><time>2026-05-01T09:38:10.605Z</time></trkpt><trkpt lat="44.8856208" lon="7.2109437"><ele>1248.142857142857</ele><time>2026-05-01T09:38:11.605Z</time></trkpt><trkpt lat="44.8855706" lon="7.2108811"><ele>1250.5714285714287</ele><time>2026-05-01T09:38:12.605Z</time></trkpt><trkpt lat="44.8855278" lon="7.2107991"><ele>1253.0</ele><time>2026-05-01T09:38:13.605Z</time></trkpt><trkpt lat="44.8854963" lon="7.2107033"><ele>1254.6666666666667</ele><time>2026-05-01T09:38:14.605Z</time></trkpt><trkpt lat="44.8854583" lon="7.2106103"><ele>1256.3333333333335</ele><time>2026-05-01T09:38:15.605Z</time></trkpt><trkpt lat="44.8854147" lon="7.2105405"><ele>1258.0</ele><time>2026-05-01T09:38:16.605Z</time></trkpt><trkpt lat="44.8853538" lon="7.2104821"><ele>1259.6666666666667</ele><time>2026-05-01T09:38:17.605Z</time></trkpt><trkpt lat="44.8852912" lon="7.2104293"><ele>1261.3333333333333</ele><time>2026-05-01T09:38:18.605Z</time></trkpt><trkpt lat="44.8851905" lon="7.2103544"><ele>1263.0</ele><time>2026-05-01T09:38:20.605Z</time></trkpt><trkpt lat="44.8850903" lon="7.2102763"><ele>1263.0</ele><time>2026-05-01T09:38:22.605Z</time></trkpt><trkpt lat="44.8849974" lon="7.2102559"><ele>1263.0</ele><time>2026-05-01T09:38:24.605Z</time></trkpt><trkpt lat="44.884887" lon="7.2103013"><ele>1263.0</ele><time>2026-05-01T09:38:26.605Z</time></trkpt><trkpt lat="44.8847738" lon="7.2103535"><ele>1263.0</ele><time>2026-05-01T09:38:28.605Z</time></trkpt><trkpt lat="44.8847103" lon="7.2103415"><ele>1263.0</ele><time>2026-05-01T09:38:29.605Z</time></trkpt><trkpt lat="44.8846289" lon="7.2102886"><ele>1263.0</ele><time>2026-05-01T09:38:30.605Z</time></trkpt><trkpt lat="44.8845549" lon="7.2102613"><ele>1263.0</ele><time>2026-05-01T09:38:31.605Z</time></trkpt><trkpt lat="44.8844161" lon="7.2102729"><ele>1263.0</ele><time>2026-05-01T09:38:33.605Z</time></trkpt><trkpt lat="44.8843298" lon="7.210299"><ele>1263.0</ele><time>2026-05-01T09:38:34.605Z</time></trkpt><trkpt lat="44.884256" lon="7.2103323"><ele>1263.0</ele><time>2026-05-01T09:38:35.605Z</time></trkpt><trkpt lat="44.8841941" lon="7.2103586"><ele>1263.0</ele><time>2026-05-01T09:38:36.605Z</time></trkpt><trkpt lat="44.8841089" lon="7.210402"><ele>1263.0</ele><time>2026-05-01T09:38:38.605Z</time></trkpt><trkpt lat="44.8840777" lon="7.2104824"><ele>1263.0</ele><time>2026-05-01T09:38:40.605Z</time></trkpt><trkpt lat="44.8841752" lon="7.2104947"><ele>1263.0</ele><time>2026-05-01T09:38:43.605Z</time></trkpt><trkpt lat="44.8842369" lon="7.2104666"><ele>1263.0</ele><time>2026-05-01T09:38:45.605Z</time></trkpt><trkpt lat="44.8843145" lon="7.2104611"><ele>1263.0</ele><time>2026-05-01T09:38:47.605Z</time></trkpt><trkpt lat="44.8844024" lon="7.2104882"><ele>1263.0</ele><time>2026-05-01T09:38:49.605Z</time></trkpt><trkpt lat="44.8844918" lon="7.2105341"><ele>1263.0</ele><time>2026-05-01T09:38:51.605Z</time></trkpt><trkpt lat="44.8845487" lon="7.210641"><ele>1263.0</ele><time>2026-05-01T09:38:53.605Z</time></trkpt><trkpt lat="44.8845608" lon="7.2107976"><ele>1263.0</ele><time>2026-05-01T09:38:55.605Z</time></trkpt><trkpt lat="44.8845577" lon="7.2109024"><ele>1263.0</ele><time>2026-05-01T09:38:56.605Z</time></trkpt><trkpt lat="44.8845616" lon="7.2109977"><ele>1263.0</ele><time>2026-05-01T09:38:57.605Z</time></trkpt><trkpt lat="44.8845977" lon="7.2111134"><ele>1263.0</ele><time>2026-05-01T09:38:58.605Z</time></trkpt><trkpt lat="44.8846274" lon="7.2112112"><ele>1265.6666666666667</ele><time>2026-05-01T09:38:59.605Z</time></trkpt><trkpt lat="44.8846605" lon="7.211316"><ele>1268.3333333333333</ele><time>2026-05-01T09:39:00.605Z</time></trkpt><trkpt lat="44.8846978" lon="7.2114036"><ele>1271.0</ele><time>2026-05-01T09:39:01.605Z</time></trkpt><trkpt lat="44.8847406" lon="7.2114889"><ele>1273.6666666666665</ele><time>2026-05-01T09:39:02.605Z</time></trkpt><trkpt lat="44.8848069" lon="7.2115509"><ele>1276.3333333333333</ele><time>2026-05-01T09:39:03.605Z</time></trkpt><trkpt lat="44.8848676" lon="7.2116422"><ele>1279.0</ele><time>2026-05-01T09:39:04.604Z</time></trkpt><trkpt lat="44.884928" lon="7.2117133"><ele>1281.3333333333333</ele><time>2026-05-01T09:39:05.605Z</time></trkpt><trkpt lat="44.8849711" lon="7.2117875"><ele>1283.6666666666665</ele><time>2026-05-01T09:39:06.605Z</time></trkpt><trkpt lat="44.8850048" lon="7.211891"><ele>1286.0</ele><time>2026-05-01T09:39:07.605Z</time></trkpt><trkpt lat="44.8850286" lon="7.2119933"><ele>1288.3333333333333</ele><time>2026-05-01T09:39:08.605Z</time></trkpt><trkpt lat="44.8850438" lon="7.2121165"><ele>1290.6666666666667</ele><time>2026-05-01T09:39:09.605Z</time></trkpt><trkpt lat="44.8850562" lon="7.2122497"><ele>1293.0</ele><time>2026-05-01T09:39:10.605Z</time></trkpt><trkpt lat="44.8850683" lon="7.2123569"><ele>1295.3333333333333</ele><time>2026-05-01T09:39:11.605Z</time></trkpt><trkpt lat="44.8851458" lon="7.2124823"><ele>1297.6666666666667</ele><time>2026-05-01T09:39:13.605Z</time></trkpt><trkpt lat="44.8851332" lon="7.2125722"><ele>1300.0</ele><time>2026-05-01T09:39:15.605Z</time></trkpt><trkpt lat="44.8850686" lon="7.2126127"><ele>1302.3333333333335</ele><time>2026-05-01T09:39:17.605Z</time></trkpt><trkpt lat="44.885006" lon="7.2124973"><ele>1304.6666666666667</ele><time>2026-05-01T09:39:19.605Z</time></trkpt><trkpt lat="44.8849617" lon="7.2124175"><ele>1307.0</ele><time>2026-05-01T09:39:20.605Z</time></trkpt><trkpt lat="44.8848998" lon="7.2123541"><ele>1304.1999999999998</ele><time>2026-05-01T09:39:21.605Z</time></trkpt><trkpt lat="44.8848376" lon="7.2122852"><ele>1301.4</ele><time>2026-05-01T09:39:22.605Z</time></trkpt><trkpt lat="44.8847676" lon="7.2121936"><ele>1298.6</ele><time>2026-05-01T09:39:23.605Z</time></trkpt><trkpt lat="44.8846904" lon="7.2120977"><ele>1295.8000000000002</ele><time>2026-05-01T09:39:24.604Z</time></trkpt><trkpt lat="44.8846232" lon="7.2120064"><ele>1293.0</ele><time>2026-05-01T09:39:25.605Z</time></trkpt><trkpt lat="44.884558" lon="7.2119049"><ele>1293.0</ele><time>2026-05-01T09:39:26.604Z</time></trkpt><trkpt lat="44.8844993" lon="7.2118302"><ele>1293.0</ele><time>2026-05-01T09:39:27.604Z</time></trkpt><trkpt lat="44.8844384" lon="7.2117434"><ele>1293.0</ele><time>2026-05-01T09:39:28.605Z</time></trkpt><trkpt lat="44.8843757" lon="7.2116934"><ele>1293.0</ele><time>2026-05-01T09:39:29.605Z</time></trkpt><trkpt lat="44.8842581" lon="7.2116549"><ele>1293.0</ele><time>2026-05-01T09:39:31.605Z</time></trkpt><trkpt lat="44.8841393" lon="7.2116869"><ele>1295.3333333333333</ele><time>2026-05-01T09:39:33.605Z</time></trkpt><trkpt lat="44.8840399" lon="7.2117863"><ele>1297.6666666666667</ele><time>2026-05-01T09:39:35.605Z</time></trkpt><trkpt lat="44.8840106" lon="7.2118771"><ele>1300.0</ele><time>2026-05-01T09:39:36.605Z</time></trkpt><trkpt lat="44.8839782" lon="7.211964"><ele>1302.3333333333335</ele><time>2026-05-01T09:39:37.605Z</time></trkpt><trkpt lat="44.8839437" lon="7.2120702"><ele>1304.6666666666667</ele><time>2026-05-01T09:39:38.605Z</time></trkpt><trkpt lat="44.8839183" lon="7.2121724"><ele>1307.0</ele><time>2026-05-01T09:39:39.604Z</time></trkpt><trkpt lat="44.8838917" lon="7.2122909"><ele>1309.8333333333335</ele><time>2026-05-01T09:39:40.605Z</time></trkpt><trkpt lat="44.8838692" lon="7.2124096"><ele>1312.6666666666667</ele><time>2026-05-01T09:39:41.605Z</time></trkpt><trkpt lat="44.8838563" lon="7.2125185"><ele>1315.5</ele><time>2026-05-01T09:39:42.605Z</time></trkpt><trkpt lat="44.8838394" lon="7.2126066"><ele>1318.3333333333333</ele><time>2026-05-01T09:39:43.605Z</time></trkpt><trkpt lat="44.883821" lon="7.2126938"><ele>1321.1666666666665</ele><time>2026-05-01T09:39:44.605Z</time></trkpt><trkpt lat="44.8837941" lon="7.2127938"><ele>1324.0</ele><time>2026-05-01T09:39:45.605Z</time></trkpt><trkpt lat="44.8837474" lon="7.2128897"><ele>1324.0</ele><time>2026-05-01T09:39:46.605Z</time></trkpt><trkpt lat="44.8836915" lon="7.2129837"><ele>1324.0</ele><time>2026-05-01T09:39:47.605Z</time></trkpt><trkpt lat="44.8836252" lon="7.2130696"><ele>1324.0</ele><time>2026-05-01T09:39:48.605Z</time></trkpt><trkpt lat="44.8835568" lon="7.2131408"><ele>1324.0</ele><time>2026-05-01T09:39:49.605Z</time></trkpt><trkpt lat="44.8834891" lon="7.2131908"><ele>1324.0</ele><time>2026-05-01T09:39:50.605Z</time></trkpt><trkpt lat="44.8834153" lon="7.2132289"><ele>1324.0</ele><time>2026-05-01T09:39:51.605Z</time></trkpt><trkpt lat="44.8833256" lon="7.2132546"><ele>1324.0</ele><time>2026-05-01T09:39:52.605Z</time></trkpt><trkpt lat="44.8832318" lon="7.2132623"><ele>1324.0</ele><time>2026-05-01T09:39:53.605Z</time></trkpt><trkpt lat="44.8831416" lon="7.2132715"><ele>1324.0</ele><time>2026-05-01T09:39:54.605Z</time></trkpt><trkpt lat="44.883057" lon="7.2132674"><ele>1324.0</ele><time>2026-05-01T09:39:55.605Z</time></trkpt><trkpt lat="44.8829528" lon="7.2132629"><ele>1324.0</ele><time>2026-05-01T09:39:56.605Z</time></trkpt><trkpt lat="44.882867" lon="7.2132358"><ele>1324.0</ele><time>2026-05-01T09:39:57.604Z</time></trkpt><trkpt lat="44.8827746" lon="7.2132"><ele>1324.0</ele><time>2026-05-01T09:39:58.605Z</time></trkpt><trkpt lat="44.8826964" lon="7.2131391"><ele>1324.0</ele><time>2026-05-01T09:39:59.605Z</time></trkpt><trkpt lat="44.8826089" lon="7.2130919"><ele>1324.0</ele><time>2026-05-01T09:40:00.605Z</time></trkpt><trkpt lat="44.882535" lon="7.2130446"><ele>1324.0</ele><time>2026-05-01T09:40:01.605Z</time></trkpt><trkpt lat="44.8824562" lon="7.2130003"><ele>1324.0</ele><time>2026-05-01T09:40:02.605Z</time></trkpt><trkpt lat="44.8824079" lon="7.2129364"><ele>1324.5</ele><time>2026-05-01T09:40:03.605Z</time></trkpt><trkpt lat="44.8823549" lon="7.2128546"><ele>1325.0</ele><time>2026-05-01T09:40:04.605Z</time></trkpt><trkpt lat="44.8823155" lon="7.2127656"><ele>1325.5</ele><time>2026-05-01T09:40:05.605Z</time></trkpt><trkpt lat="44.8822771" lon="7.2126722"><ele>1326.0</ele><time>2026-05-01T09:40:06.605Z</time></trkpt><trkpt lat="44.8822295" lon="7.2125695"><ele>1326.5</ele><time>2026-05-01T09:40:07.605Z</time></trkpt><trkpt lat="44.8821679" lon="7.2124603"><ele>1327.0</ele><time>2026-05-01T09:40:08.605Z</time></trkpt><trkpt lat="44.8820939" lon="7.21236"><ele>1326.0</ele><time>2026-05-01T09:40:09.605Z</time></trkpt><trkpt lat="44.8820183" lon="7.2122464"><ele>1325.0</ele><time>2026-05-01T09:40:10.605Z</time></trkpt><trkpt lat="44.8819459" lon="7.212132"><ele>1324.0</ele><time>2026-05-01T09:40:11.605Z</time></trkpt><trkpt lat="44.881886" lon="7.2120253"><ele>1323.0</ele><time>2026-05-01T09:40:12.604Z</time></trkpt><trkpt lat="44.8818284" lon="7.2119123"><ele>1322.0</ele><time>2026-05-01T09:40:13.605Z</time></trkpt><trkpt lat="44.8817792" lon="7.2118086"><ele>1324.3333333333335</ele><time>2026-05-01T09:40:14.605Z</time></trkpt><trkpt lat="44.8817309" lon="7.2117021"><ele>1326.6666666666667</ele><time>2026-05-01T09:40:15.605Z</time></trkpt><trkpt lat="44.8816961" lon="7.2116153"><ele>1329.0</ele><time>2026-05-01T09:40:16.605Z</time></trkpt><trkpt lat="44.8816696" lon="7.2114608"><ele>1331.3333333333333</ele><time>2026-05-01T09:40:18.605Z</time></trkpt><trkpt lat="44.8816561" lon="7.2113266"><ele>1333.6666666666665</ele><time>2026-05-01T09:40:20.605Z</time></trkpt><trkpt lat="44.8815811" lon="7.2113189"><ele>1336.0</ele><time>2026-05-01T09:40:22.605Z</time></trkpt><trkpt lat="44.8815584" lon="7.2114445"><ele>1337.4</ele><time>2026-05-01T09:40:24.605Z</time></trkpt><trkpt lat="44.8815745" lon="7.2116222"><ele>1338.8</ele><time>2026-05-01T09:40:26.605Z</time></trkpt><trkpt lat="44.8815771" lon="7.2117429"><ele>1340.2</ele><time>2026-05-01T09:40:27.605Z</time></trkpt><trkpt lat="44.8815739" lon="7.2118927"><ele>1341.6000000000001</ele><time>2026-05-01T09:40:28.605Z</time></trkpt><trkpt lat="44.8815784" lon="7.2120638"><ele>1343.0</ele><time>2026-05-01T09:40:29.605Z</time></trkpt><trkpt lat="44.8815817" lon="7.2122248"><ele>1344.5</ele><time>2026-05-01T09:40:30.605Z</time></trkpt><trkpt lat="44.8815779" lon="7.2123913"><ele>1346.0</ele><time>2026-05-01T09:40:31.605Z</time></trkpt><trkpt lat="44.881585" lon="7.2125466"><ele>1347.5</ele><time>2026-05-01T09:40:32.605Z</time></trkpt><trkpt lat="44.8815852" lon="7.2127062"><ele>1349.0</ele><time>2026-05-01T09:40:33.605Z</time></trkpt><trkpt lat="44.8815911" lon="7.2128674"><ele>1349.0</ele><time>2026-05-01T09:40:34.605Z</time></trkpt><trkpt lat="44.8816005" lon="7.2130202"><ele>1349.0</ele><time>2026-05-01T09:40:35.605Z</time></trkpt><trkpt lat="44.8816056" lon="7.2131777"><ele>1349.0</ele><time>2026-05-01T09:40:36.605Z</time></trkpt><trkpt lat="44.8816181" lon="7.2133565"><ele>1349.0</ele><time>2026-05-01T09:40:37.605Z</time></trkpt><trkpt lat="44.8816372" lon="7.2135216"><ele>1350.2</ele><time>2026-05-01T09:40:38.605Z</time></trkpt><trkpt lat="44.8816544" lon="7.2136626"><ele>1351.4</ele><time>2026-05-01T09:40:39.605Z</time></trkpt><trkpt lat="44.8816664" lon="7.2138102"><ele>1352.6</ele><time>2026-05-01T09:40:40.605Z</time></trkpt><trkpt lat="44.8816698" lon="7.2139621"><ele>1353.8</ele><time>2026-05-01T09:40:41.605Z</time></trkpt><trkpt lat="44.8816684" lon="7.2141114"><ele>1355.0</ele><time>2026-05-01T09:40:42.605Z</time></trkpt><trkpt lat="44.8816565" lon="7.2142414"><ele>1355.4285714285716</ele><time>2026-05-01T09:40:43.605Z</time></trkpt><trkpt lat="44.8816351" lon="7.2143563"><ele>1355.857142857143</ele><time>2026-05-01T09:40:44.605Z</time></trkpt><trkpt lat="44.8816136" lon="7.2144486"><ele>1356.2857142857142</ele><time>2026-05-01T09:40:45.605Z</time></trkpt><trkpt lat="44.8815802" lon="7.2145299"><ele>1356.7142857142858</ele><time>2026-05-01T09:40:46.604Z</time></trkpt><trkpt lat="44.881534" lon="7.2145965"><ele>1357.142857142857</ele><time>2026-05-01T09:40:47.605Z</time></trkpt><trkpt lat="44.8814875" lon="7.2146591"><ele>1357.5714285714287</ele><time>2026-05-01T09:40:48.605Z</time></trkpt><trkpt lat="44.8813995" lon="7.2146907"><ele>1358.0</ele><time>2026-05-01T09:40:49.605Z</time></trkpt><trkpt lat="44.8813248" lon="7.2147297"><ele>1358.0</ele><time>2026-05-01T09:40:50.605Z</time></trkpt><trkpt lat="44.8812485" lon="7.2147705"><ele>1358.0</ele><time>2026-05-01T09:40:51.605Z</time></trkpt><trkpt lat="44.8811638" lon="7.2148152"><ele>1358.0</ele><time>2026-05-01T09:40:52.605Z</time></trkpt><trkpt lat="44.8811016" lon="7.2148303"><ele>1358.0</ele><time>2026-05-01T09:40:53.604Z</time></trkpt><trkpt lat="44.881031" lon="7.2148474"><ele>1358.0</ele><time>2026-05-01T09:40:54.605Z</time></trkpt><trkpt lat="44.8809469" lon="7.214844"><ele>1358.0</ele><time>2026-05-01T09:40:55.605Z</time></trkpt><trkpt lat="44.8808574" lon="7.2148552"><ele>1359.4</ele><time>2026-05-01T09:40:56.605Z</time></trkpt><trkpt lat="44.8807625" lon="7.214859"><ele>1360.8000000000002</ele><time>2026-05-01T09:40:57.605Z</time></trkpt><trkpt lat="44.8806515" lon="7.2148569"><ele>1362.2</ele><time>2026-05-01T09:40:58.605Z</time></trkpt><trkpt lat="44.8805458" lon="7.2148419"><ele>1363.6</ele><time>2026-05-01T09:40:59.605Z</time></trkpt><trkpt lat="44.8804143" lon="7.2148518"><ele>1365.0</ele><time>2026-05-01T09:41:00.605Z</time></trkpt><trkpt lat="44.8802999" lon="7.2148548"><ele>1365.0</ele><time>2026-05-01T09:41:01.605Z</time></trkpt><trkpt lat="44.8802071" lon="7.2148804"><ele>1365.0</ele><time>2026-05-01T09:41:02.605Z</time></trkpt><trkpt lat="44.8800945" lon="7.2149107"><ele>1365.0</ele><time>2026-05-01T09:41:03.605Z</time></trkpt><trkpt lat="44.8799818" lon="7.2149589"><ele>1365.0</ele><time>2026-05-01T09:41:04.605Z</time></trkpt><trkpt lat="44.879885" lon="7.2149997"><ele>1365.0</ele><time>2026-05-01T09:41:05.605Z</time></trkpt><trkpt lat="44.8797928" lon="7.2150325"><ele>1367.6</ele><time>2026-05-01T09:41:06.605Z</time></trkpt><trkpt lat="44.8796991" lon="7.2150759"><ele>1370.2</ele><time>2026-05-01T09:41:07.605Z</time></trkpt><trkpt lat="44.8796066" lon="7.2151026"><ele>1372.8000000000002</ele><time>2026-05-01T09:41:08.605Z</time></trkpt><trkpt lat="44.8795136" lon="7.2151385"><ele>1375.4</ele><time>2026-05-01T09:41:09.605Z</time></trkpt><trkpt lat="44.879423" lon="7.2151987"><ele>1378.0</ele><time>2026-05-01T09:41:10.605Z</time></trkpt><trkpt lat="44.8793341" lon="7.215257"><ele>1380.3333333333333</ele><time>2026-05-01T09:41:11.605Z</time></trkpt><trkpt lat="44.8792392" lon="7.215312"><ele>1382.6666666666665</ele><time>2026-05-01T09:41:12.605Z</time></trkpt><trkpt lat="44.8791595" lon="7.2153683"><ele>1385.0</ele><time>2026-05-01T09:41:13.605Z</time></trkpt><trkpt lat="44.8790832" lon="7.2154166"><ele>1387.3333333333333</ele><time>2026-05-01T09:41:14.605Z</time></trkpt><trkpt lat="44.8790065" lon="7.2154643"><ele>1389.6666666666667</ele><time>2026-05-01T09:41:15.605Z</time></trkpt><trkpt lat="44.878931" lon="7.2154966"><ele>1392.0</ele><time>2026-05-01T09:41:16.604Z</time></trkpt><trkpt lat="44.8788187" lon="7.2155442"><ele>1392.0</ele><time>2026-05-01T09:41:18.605Z</time></trkpt><trkpt lat="44.8787438" lon="7.2155284"><ele>1392.0</ele><time>2026-05-01T09:41:20.605Z</time></trkpt><trkpt lat="44.8787873" lon="7.2154337"><ele>1392.0</ele><time>2026-05-01T09:41:24.605Z</time></trkpt><trkpt lat="44.8788909" lon="7.2153865"><ele>1392.0</ele><time>2026-05-01T09:41:26.605Z</time></trkpt><trkpt lat="44.8789536" lon="7.2153068"><ele>1392.0</ele><time>2026-05-01T09:41:27.605Z</time></trkpt><trkpt lat="44.8790189" lon="7.2152303"><ele>1392.0</ele><time>2026-05-01T09:41:28.605Z</time></trkpt><trkpt lat="44.8790984" lon="7.2151455"><ele>1392.0</ele><time>2026-05-01T09:41:29.605Z</time></trkpt><trkpt lat="44.8791692" lon="7.2150659"><ele>1392.0</ele><time>2026-05-01T09:41:30.605Z</time></trkpt><trkpt lat="44.8792736" lon="7.2149768"><ele>1392.0</ele><time>2026-05-01T09:41:31.605Z</time></trkpt><trkpt lat="44.8793491" lon="7.2149009"><ele>1392.0</ele><time>2026-05-01T09:41:32.605Z</time></trkpt><trkpt lat="44.8794232" lon="7.2148282"><ele>1392.0</ele><time>2026-05-01T09:41:33.605Z</time></trkpt><trkpt lat="44.8794769" lon="7.2147537"><ele>1391.6666666666667</ele><time>2026-05-01T09:41:34.604Z</time></trkpt><trkpt lat="44.8795285" lon="7.2146879"><ele>1391.3333333333333</ele><time>2026-05-01T09:41:35.605Z</time></trkpt><trkpt lat="44.8795838" lon="7.2146211"><ele>1391.0</ele><time>2026-05-01T09:41:36.605Z</time></trkpt><trkpt lat="44.879619" lon="7.2145462"><ele>1390.6666666666665</ele><time>2026-05-01T09:41:37.605Z</time></trkpt><trkpt lat="44.8796871" lon="7.214446"><ele>1390.3333333333333</ele><time>2026-05-01T09:41:39.605Z</time></trkpt><trkpt lat="44.8797465" lon="7.2143559"><ele>1390.0</ele><time>2026-05-01T09:41:41.605Z</time></trkpt><trkpt lat="44.8797682" lon="7.2142329"><ele>1390.0</ele><time>2026-05-01T09:41:43.605Z</time></trkpt><trkpt lat="44.8797459" lon="7.2140769"><ele>1390.0</ele><time>2026-05-01T09:41:45.605Z</time></trkpt><trkpt lat="44.879723" lon="7.2139314"><ele>1390.0</ele><time>2026-05-01T09:41:47.605Z</time></trkpt><trkpt lat="44.8797031" lon="7.2137595"><ele>1390.0</ele><time>2026-05-01T09:41:49.605Z</time></trkpt><trkpt lat="44.8796761" lon="7.2136609"><ele>1390.0</ele><time>2026-05-01T09:41:50.605Z</time></trkpt><trkpt lat="44.8796475" lon="7.2135639"><ele>1390.1666666666665</ele><time>2026-05-01T09:41:51.605Z</time></trkpt><trkpt lat="44.8796216" lon="7.2134673"><ele>1390.3333333333333</ele><time>2026-05-01T09:41:52.604Z</time></trkpt><trkpt lat="44.8795824" lon="7.2133625"><ele>1390.5</ele><time>2026-05-01T09:41:53.605Z</time></trkpt><trkpt lat="44.879523" lon="7.213265"><ele>1390.6666666666667</ele><time>2026-05-01T09:41:54.605Z</time></trkpt><trkpt lat="44.8794713" lon="7.2131752"><ele>1390.8333333333335</ele><time>2026-05-01T09:41:55.605Z</time></trkpt><trkpt lat="44.8793962" lon="7.2130746"><ele>1391.0</ele><time>2026-05-01T09:41:56.605Z</time></trkpt><trkpt lat="44.8793343" lon="7.2129794"><ele>1391.0</ele><time>2026-05-01T09:41:57.605Z</time></trkpt><trkpt lat="44.8792729" lon="7.2128671"><ele>1391.0</ele><time>2026-05-01T09:41:58.605Z</time></trkpt><trkpt lat="44.8792113" lon="7.2127576"><ele>1391.0</ele><time>2026-05-01T09:41:59.605Z</time></trkpt><trkpt lat="44.8791466" lon="7.2126496"><ele>1391.0</ele><time>2026-05-01T09:42:00.604Z</time></trkpt><trkpt lat="44.8790804" lon="7.2125596"><ele>1391.0</ele><time>2026-05-01T09:42:01.605Z</time></trkpt><trkpt lat="44.8790149" lon="7.2124484"><ele>1393.1999999999998</ele><time>2026-05-01T09:42:02.605Z</time></trkpt><trkpt lat="44.8789575" lon="7.2123524"><ele>1395.3999999999999</ele><time>2026-05-01T09:42:03.605Z</time></trkpt><trkpt lat="44.8788973" lon="7.212257"><ele>1397.6</ele><time>2026-05-01T09:42:04.605Z</time></trkpt><trkpt lat="44.8788352" lon="7.2121632"><ele>1399.8</ele><time>2026-05-01T09:42:05.605Z</time></trkpt><trkpt lat="44.878768" lon="7.2120695"><ele>1402.0</ele><time>2026-05-01T09:42:06.605Z</time></trkpt><trkpt lat="44.8787007" lon="7.2119765"><ele>1402.0</ele><time>2026-05-01T09:42:07.605Z</time></trkpt><trkpt lat="44.8786391" lon="7.2118849"><ele>1402.0</ele><time>2026-05-01T09:42:08.605Z</time></trkpt><trkpt lat="44.8785656" lon="7.2117979"><ele>1402.0</ele><time>2026-05-01T09:42:09.605Z</time></trkpt><trkpt lat="44.8785139" lon="7.2117169"><ele>1402.0</ele><time>2026-05-01T09:42:10.605Z</time></trkpt><trkpt lat="44.8784479" lon="7.2116332"><ele>1402.0</ele><time>2026-05-01T09:42:11.605Z</time></trkpt><trkpt lat="44.8783687" lon="7.2115359"><ele>1404.0</ele><time>2026-05-01T09:42:12.605Z</time></trkpt><trkpt lat="44.8782939" lon="7.2114382"><ele>1406.0</ele><time>2026-05-01T09:42:13.605Z</time></trkpt><trkpt lat="44.8782324" lon="7.2113453"><ele>1408.0</ele><time>2026-05-01T09:42:14.605Z</time></trkpt><trkpt lat="44.8781712" lon="7.2112422"><ele>1410.0</ele><time>2026-05-01T09:42:15.605Z</time></trkpt><trkpt lat="44.8781079" lon="7.211145"><ele>1412.0</ele><time>2026-05-01T09:42:16.605Z</time></trkpt><trkpt lat="44.878051" lon="7.2110579"><ele>1412.0</ele><time>2026-05-01T09:42:17.605Z</time></trkpt><trkpt lat="44.8779884" lon="7.2109729"><ele>1412.0</ele><time>2026-05-01T09:42:18.605Z</time></trkpt><trkpt lat="44.8779296" lon="7.2108773"><ele>1412.0</ele><time>2026-05-01T09:42:19.605Z</time></trkpt><trkpt lat="44.8778789" lon="7.2107712"><ele>1412.0</ele><time>2026-05-01T09:42:20.605Z</time></trkpt><trkpt lat="44.8778353" lon="7.2106635"><ele>1412.0</ele><time>2026-05-01T09:42:21.605Z</time></trkpt><trkpt lat="44.8777861" lon="7.2105429"><ele>1411.6666666666667</ele><time>2026-05-01T09:42:22.605Z</time></trkpt><trkpt lat="44.8777423" lon="7.2104304"><ele>1411.3333333333335</ele><time>2026-05-01T09:42:23.605Z</time></trkpt><trkpt lat="44.8776956" lon="7.2103219"><ele>1411.0</ele><time>2026-05-01T09:42:24.605Z</time></trkpt><trkpt lat="44.8776479" lon="7.2102145"><ele>1410.6666666666667</ele><time>2026-05-01T09:42:25.605Z</time></trkpt><trkpt lat="44.8775986" lon="7.210114"><ele>1410.3333333333333</ele><time>2026-05-01T09:42:26.605Z</time></trkpt><trkpt lat="44.8775595" lon="7.2100076"><ele>1410.0</ele><time>2026-05-01T09:42:27.605Z</time></trkpt><trkpt lat="44.8775248" lon="7.2098866"><ele>1412.9999999999998</ele><time>2026-05-01T09:42:28.605Z</time></trkpt><trkpt lat="44.877497" lon="7.2097741"><ele>1416.0</ele><time>2026-05-01T09:42:29.605Z</time></trkpt><trkpt lat="44.8774802" lon="7.2096678"><ele>1419.0</ele><time>2026-05-01T09:42:30.605Z</time></trkpt><trkpt lat="44.8774644" lon="7.2095587"><ele>1422.0</ele><time>2026-05-01T09:42:31.605Z</time></trkpt><trkpt lat="44.8774484" lon="7.2094558"><ele>1425.0</ele><time>2026-05-01T09:42:32.605Z</time></trkpt><trkpt lat="44.877437" lon="7.20936"><ele>1427.9999999999998</ele><time>2026-05-01T09:42:33.605Z</time></trkpt><trkpt lat="44.8774294" lon="7.2092684"><ele>1431.0</ele><time>2026-05-01T09:42:34.605Z</time></trkpt><trkpt lat="44.8774071" lon="7.2091004"><ele>1431.1666666666667</ele><time>2026-05-01T09:42:36.604Z</time></trkpt><trkpt lat="44.8773837" lon="7.2089482"><ele>1431.3333333333333</ele><time>2026-05-01T09:42:38.605Z</time></trkpt><trkpt lat="44.8773676" lon="7.2087858"><ele>1431.5</ele><time>2026-05-01T09:42:40.605Z</time></trkpt><trkpt lat="44.8773594" lon="7.2086932"><ele>1431.6666666666665</ele><time>2026-05-01T09:42:41.605Z</time></trkpt><trkpt lat="44.8773383" lon="7.2085951"><ele>1431.8333333333333</ele><time>2026-05-01T09:42:42.604Z</time></trkpt><trkpt lat="44.8773126" lon="7.2084915"><ele>1432.0</ele><time>2026-05-01T09:42:43.605Z</time></trkpt><trkpt lat="44.8772942" lon="7.2083967"><ele>1432.0</ele><time>2026-05-01T09:42:44.605Z</time></trkpt><trkpt lat="44.8772705" lon="7.2082913"><ele>1432.0</ele><time>2026-05-01T09:42:45.605Z</time></trkpt><trkpt lat="44.8772499" lon="7.208177"><ele>1432.0</ele><time>2026-05-01T09:42:46.605Z</time></trkpt><trkpt lat="44.8772347" lon="7.2080787"><ele>1432.0</ele><time>2026-05-01T09:42:47.605Z</time></trkpt><trkpt lat="44.8772187" lon="7.207974"><ele>1432.0</ele><time>2026-05-01T09:42:48.604Z</time></trkpt><trkpt lat="44.8771939" lon="7.2078695"><ele>1432.0</ele><time>2026-05-01T09:42:49.605Z</time></trkpt><trkpt lat="44.8771612" lon="7.2077405"><ele>1431.8333333333333</ele><time>2026-05-01T09:42:50.605Z</time></trkpt><trkpt lat="44.8771343" lon="7.2076268"><ele>1431.6666666666665</ele><time>2026-05-01T09:42:51.605Z</time></trkpt><trkpt lat="44.8771143" lon="7.2075143"><ele>1431.5</ele><time>2026-05-01T09:42:52.605Z</time></trkpt><trkpt lat="44.8770839" lon="7.2074032"><ele>1431.3333333333333</ele><time>2026-05-01T09:42:53.604Z</time></trkpt><trkpt lat="44.8770683" lon="7.2072944"><ele>1431.1666666666667</ele><time>2026-05-01T09:42:54.605Z</time></trkpt><trkpt lat="44.877061" lon="7.2071876"><ele>1431.0</ele><time>2026-05-01T09:42:55.605Z</time></trkpt><trkpt lat="44.8770518" lon="7.2070847"><ele>1430.8</ele><time>2026-05-01T09:42:56.605Z</time></trkpt><trkpt lat="44.8770468" lon="7.2069945"><ele>1430.6</ele><time>2026-05-01T09:42:57.605Z</time></trkpt><trkpt lat="44.8770032" lon="7.2068456"><ele>1430.4</ele><time>2026-05-01T09:42:59.605Z</time></trkpt><trkpt lat="44.8769136" lon="7.206731"><ele>1430.2</ele><time>2026-05-01T09:43:01.605Z</time></trkpt><trkpt lat="44.8768497" lon="7.2066602"><ele>1430.0</ele><time>2026-05-01T09:43:02.605Z</time></trkpt><trkpt lat="44.8767967" lon="7.2065705"><ele>1433.2</ele><time>2026-05-01T09:43:03.605Z</time></trkpt><trkpt lat="44.8767437" lon="7.2064543"><ele>1436.4</ele><time>2026-05-01T09:43:04.605Z</time></trkpt><trkpt lat="44.8767088" lon="7.2063269"><ele>1439.6</ele><time>2026-05-01T09:43:05.605Z</time></trkpt><trkpt lat="44.8766735" lon="7.2062045"><ele>1442.8</ele><time>2026-05-01T09:43:06.604Z</time></trkpt><trkpt lat="44.8766284" lon="7.2060837"><ele>1446.0</ele><time>2026-05-01T09:43:07.605Z</time></trkpt><trkpt lat="44.8765842" lon="7.205966"><ele>1446.0</ele><time>2026-05-01T09:43:08.605Z</time></trkpt><trkpt lat="44.8765448" lon="7.2058417"><ele>1446.0</ele><time>2026-05-01T09:43:09.605Z</time></trkpt><trkpt lat="44.8765012" lon="7.205719"><ele>1446.0</ele><time>2026-05-01T09:43:10.605Z</time></trkpt><trkpt lat="44.8764405" lon="7.2055721"><ele>1446.0</ele><time>2026-05-01T09:43:11.605Z</time></trkpt><trkpt lat="44.8763914" lon="7.2054429"><ele>1446.0</ele><time>2026-05-01T09:43:12.604Z</time></trkpt><trkpt lat="44.8763472" lon="7.2053168"><ele>1445.4</ele><time>2026-05-01T09:43:13.605Z</time></trkpt><trkpt lat="44.8763149" lon="7.2051992"><ele>1444.8</ele><time>2026-05-01T09:43:14.605Z</time></trkpt><trkpt lat="44.876282" lon="7.2050803"><ele>1444.2</ele><time>2026-05-01T09:43:15.605Z</time></trkpt><trkpt lat="44.8762455" lon="7.2049479"><ele>1443.6000000000001</ele><time>2026-05-01T09:43:16.605Z</time></trkpt><trkpt lat="44.8761961" lon="7.2048014"><ele>1443.0</ele><time>2026-05-01T09:43:17.605Z</time></trkpt><trkpt lat="44.8761483" lon="7.2046557"><ele>1442.6000000000001</ele><time>2026-05-01T09:43:18.605Z</time></trkpt><trkpt lat="44.8760936" lon="7.2045045"><ele>1442.2</ele><time>2026-05-01T09:43:19.605Z</time></trkpt><trkpt lat="44.8760481" lon="7.2043742"><ele>1441.8</ele><time>2026-05-01T09:43:20.605Z</time></trkpt><trkpt lat="44.8760064" lon="7.2042353"><ele>1441.4</ele><time>2026-05-01T09:43:21.605Z</time></trkpt><trkpt lat="44.8759674" lon="7.2040999"><ele>1441.0</ele><time>2026-05-01T09:43:22.605Z</time></trkpt><trkpt lat="44.8759416" lon="7.2039969"><ele>1444.5</ele><time>2026-05-01T09:43:23.605Z</time></trkpt><trkpt lat="44.8759186" lon="7.2039092"><ele>1448.0</ele><time>2026-05-01T09:43:24.605Z</time></trkpt><trkpt lat="44.8758893" lon="7.2037583"><ele>1451.5</ele><time>2026-05-01T09:43:26.605Z</time></trkpt><trkpt lat="44.8758604" lon="7.2036393"><ele>1455.0</ele><time>2026-05-01T09:43:28.605Z</time></trkpt><trkpt lat="44.8758209" lon="7.2035549"><ele>1458.5</ele><time>2026-05-01T09:43:30.605Z</time></trkpt><trkpt lat="44.8757577" lon="7.2034819"><ele>1462.0</ele><time>2026-05-01T09:43:32.605Z</time></trkpt><trkpt lat="44.8756931" lon="7.2034267"><ele>1462.0</ele><time>2026-05-01T09:43:34.605Z</time></trkpt><trkpt lat="44.8756216" lon="7.2033787"><ele>1462.0</ele><time>2026-05-01T09:43:37.605Z</time></trkpt><trkpt lat="44.8756336" lon="7.2032525"><ele>1462.0</ele><time>2026-05-01T09:58:15.614Z</time></trkpt><trkpt lat="44.8756433" lon="7.2031246"><ele>1462.0</ele><time>2026-05-01T09:58:17.614Z</time></trkpt><trkpt lat="44.8756412" lon="7.2029545"><ele>1462.0</ele><time>2026-05-01T09:58:19.615Z</time></trkpt><trkpt lat="44.8756343" lon="7.2028"><ele>1462.3999999999999</ele><time>2026-05-01T09:58:21.615Z</time></trkpt><trkpt lat="44.8756459" lon="7.2026373"><ele>1462.8</ele><time>2026-05-01T09:58:23.613Z</time></trkpt><trkpt lat="44.8756594" lon="7.2025295"><ele>1463.2</ele><time>2026-05-01T09:58:24.614Z</time></trkpt><trkpt lat="44.8756769" lon="7.2023923"><ele>1463.6</ele><time>2026-05-01T09:58:25.614Z</time></trkpt><trkpt lat="44.8756915" lon="7.2022604"><ele>1464.0</ele><time>2026-05-01T09:58:26.615Z</time></trkpt><trkpt lat="44.8757041" lon="7.2021324"><ele>1464.0</ele><time>2026-05-01T09:58:27.614Z</time></trkpt><trkpt lat="44.8757114" lon="7.2019982"><ele>1464.0</ele><time>2026-05-01T09:58:28.615Z</time></trkpt><trkpt lat="44.8757133" lon="7.2018623"><ele>1464.0</ele><time>2026-05-01T09:58:29.615Z</time></trkpt><trkpt lat="44.8757021" lon="7.2017213"><ele>1464.0</ele><time>2026-05-01T09:58:30.614Z</time></trkpt><trkpt lat="44.8756824" lon="7.2015596"><ele>1464.0</ele><time>2026-05-01T09:58:31.615Z</time></trkpt><trkpt lat="44.8756551" lon="7.2013866"><ele>1464.75</ele><time>2026-05-01T09:58:32.614Z</time></trkpt><trkpt lat="44.8756228" lon="7.2011987"><ele>1465.5</ele><time>2026-05-01T09:58:33.615Z</time></trkpt><trkpt lat="44.8755913" lon="7.2009925"><ele>1466.25</ele><time>2026-05-01T09:58:34.614Z</time></trkpt><trkpt lat="44.8755641" lon="7.2007891"><ele>1467.0</ele><time>2026-05-01T09:58:35.614Z</time></trkpt><trkpt lat="44.8755404" lon="7.2006036"><ele>1467.0</ele><time>2026-05-01T09:58:36.615Z</time></trkpt><trkpt lat="44.8755126" lon="7.2004119"><ele>1467.0</ele><time>2026-05-01T09:58:37.615Z</time></trkpt><trkpt lat="44.8754857" lon="7.2002186"><ele>1467.0</ele><time>2026-05-01T09:58:38.614Z</time></trkpt><trkpt lat="44.8754614" lon="7.2000175"><ele>1467.0</ele><time>2026-05-01T09:58:39.615Z</time></trkpt><trkpt lat="44.8754389" lon="7.1998184"><ele>1467.5</ele><time>2026-05-01T09:58:40.615Z</time></trkpt><trkpt lat="44.8754196" lon="7.1996172"><ele>1468.0</ele><time>2026-05-01T09:58:41.614Z</time></trkpt><trkpt lat="44.8753972" lon="7.19943"><ele>1468.5</ele><time>2026-05-01T09:58:42.615Z</time></trkpt><trkpt lat="44.8753793" lon="7.1992553"><ele>1469.0</ele><time>2026-05-01T09:58:43.614Z</time></trkpt><trkpt lat="44.8753684" lon="7.199073"><ele>1469.0</ele><time>2026-05-01T09:58:44.614Z</time></trkpt><trkpt lat="44.8753632" lon="7.1988823"><ele>1469.0</ele><time>2026-05-01T09:58:45.616Z</time></trkpt><trkpt lat="44.8753748" lon="7.1986823"><ele>1469.0</ele><time>2026-05-01T09:58:46.614Z</time></trkpt><trkpt lat="44.875387" lon="7.1984716"><ele>1469.0</ele><time>2026-05-01T09:58:47.615Z</time></trkpt><trkpt lat="44.8753964" lon="7.1982746"><ele>1469.0</ele><time>2026-05-01T09:58:48.615Z</time></trkpt><trkpt lat="44.875388" lon="7.1980698"><ele>1469.0</ele><time>2026-05-01T09:58:49.614Z</time></trkpt><trkpt lat="44.8753739" lon="7.1978573"><ele>1469.0</ele><time>2026-05-01T09:58:50.613Z</time></trkpt><trkpt lat="44.8753598" lon="7.1976498"><ele>1469.0</ele><time>2026-05-01T09:58:51.615Z</time></trkpt><trkpt lat="44.8753428" lon="7.1974475"><ele>1473.0</ele><time>2026-05-01T09:58:52.615Z</time></trkpt><trkpt lat="44.8753337" lon="7.1972564"><ele>1477.0</ele><time>2026-05-01T09:58:53.614Z</time></trkpt><trkpt lat="44.8753235" lon="7.1970745"><ele>1481.0</ele><time>2026-05-01T09:58:54.615Z</time></trkpt><trkpt lat="44.8752983" lon="7.1968979"><ele>1485.0</ele><time>2026-05-01T09:58:55.614Z</time></trkpt><trkpt lat="44.8752597" lon="7.1967226"><ele>1485.0</ele><time>2026-05-01T09:58:56.615Z</time></trkpt><trkpt lat="44.8752081" lon="7.196556"><ele>1485.0</ele><time>2026-05-01T09:58:57.614Z</time></trkpt><trkpt lat="44.8751557" lon="7.1964037"><ele>1485.0</ele><time>2026-05-01T09:58:58.615Z</time></trkpt><trkpt lat="44.8751091" lon="7.1962587"><ele>1485.0</ele><time>2026-05-01T09:58:59.618Z</time></trkpt><trkpt lat="44.8750627" lon="7.1961186"><ele>1480.8</ele><time>2026-05-01T09:59:00.614Z</time></trkpt><trkpt lat="44.8750235" lon="7.1959867"><ele>1476.6</ele><time>2026-05-01T09:59:01.613Z</time></trkpt><trkpt lat="44.8749925" lon="7.1958686"><ele>1472.4</ele><time>2026-05-01T09:59:02.613Z</time></trkpt><trkpt lat="44.8749642" lon="7.195756"><ele>1468.2</ele><time>2026-05-01T09:59:03.619Z</time></trkpt><trkpt lat="44.8749438" lon="7.1956589"><ele>1464.0</ele><time>2026-05-01T09:59:04.615Z</time></trkpt><trkpt lat="44.8748853" lon="7.1955337"><ele>1464.0</ele><time>2026-05-01T09:59:06.617Z</time></trkpt><trkpt lat="44.8748129" lon="7.1955822"><ele>1464.0</ele><time>2026-05-01T09:59:08.615Z</time></trkpt><trkpt lat="44.8748066" lon="7.1957439"><ele>1464.0</ele><time>2026-05-01T09:59:10.614Z</time></trkpt><trkpt lat="44.8748093" lon="7.1958621"><ele>1464.0</ele><time>2026-05-01T09:59:11.614Z</time></trkpt><trkpt lat="44.8748147" lon="7.1959868"><ele>1464.0</ele><time>2026-05-01T09:59:12.614Z</time></trkpt><trkpt lat="44.8748188" lon="7.1961237"><ele>1461.0</ele><time>2026-05-01T09:59:13.615Z</time></trkpt><trkpt lat="44.874819" lon="7.1962702"><ele>1458.0</ele><time>2026-05-01T09:59:14.613Z</time></trkpt><trkpt lat="44.8748224" lon="7.1964207"><ele>1455.0</ele><time>2026-05-01T09:59:15.613Z</time></trkpt><trkpt lat="44.8748253" lon="7.1965674"><ele>1452.0</ele><time>2026-05-01T09:59:16.613Z</time></trkpt><trkpt lat="44.8748281" lon="7.1967186"><ele>1449.0</ele><time>2026-05-01T09:59:17.613Z</time></trkpt><trkpt lat="44.8748241" lon="7.1968611"><ele>1448.2</ele><time>2026-05-01T09:59:18.614Z</time></trkpt><trkpt lat="44.8748018" lon="7.1969978"><ele>1447.4</ele><time>2026-05-01T09:59:19.615Z</time></trkpt><trkpt lat="44.8747693" lon="7.1971257"><ele>1446.6</ele><time>2026-05-01T09:59:20.614Z</time></trkpt><trkpt lat="44.8747355" lon="7.1972369"><ele>1445.8</ele><time>2026-05-01T09:59:21.616Z</time></trkpt><trkpt lat="44.8747049" lon="7.1973546"><ele>1445.0</ele><time>2026-05-01T09:59:22.614Z</time></trkpt><trkpt lat="44.8746908" lon="7.1974725"><ele>1442.8</ele><time>2026-05-01T09:59:23.613Z</time></trkpt><trkpt lat="44.8746911" lon="7.1975962"><ele>1440.6</ele><time>2026-05-01T09:59:24.614Z</time></trkpt><trkpt lat="44.8747113" lon="7.1977276"><ele>1438.4</ele><time>2026-05-01T09:59:25.614Z</time></trkpt><trkpt lat="44.874742" lon="7.1978656"><ele>1436.2</ele><time>2026-05-01T09:59:26.614Z</time></trkpt><trkpt lat="44.8747524" lon="7.1980051"><ele>1434.0</ele><time>2026-05-01T09:59:27.615Z</time></trkpt><trkpt lat="44.8747564" lon="7.1981492"><ele>1433.0</ele><time>2026-05-01T09:59:28.614Z</time></trkpt><trkpt lat="44.874725" lon="7.1983427"><ele>1432.0</ele><time>2026-05-01T09:59:29.615Z</time></trkpt><trkpt lat="44.8747107" lon="7.1985348"><ele>1431.0</ele><time>2026-05-01T09:59:30.614Z</time></trkpt><trkpt lat="44.8746964" lon="7.1987256"><ele>1430.0</ele><time>2026-05-01T09:59:31.616Z</time></trkpt><trkpt lat="44.8746819" lon="7.198913"><ele>1430.25</ele><time>2026-05-01T09:59:32.615Z</time></trkpt><trkpt lat="44.8746738" lon="7.199091"><ele>1430.5</ele><time>2026-05-01T09:59:33.614Z</time></trkpt><trkpt lat="44.8746724" lon="7.1992606"><ele>1430.75</ele><time>2026-05-01T09:59:34.614Z</time></trkpt><trkpt lat="44.8746532" lon="7.1994275"><ele>1431.0</ele><time>2026-05-01T09:59:35.613Z</time></trkpt><trkpt lat="44.8746239" lon="7.1995911"><ele>1431.0</ele><time>2026-05-01T09:59:36.613Z</time></trkpt><trkpt lat="44.8745855" lon="7.1997606"><ele>1431.0</ele><time>2026-05-01T09:59:37.615Z</time></trkpt><trkpt lat="44.8745488" lon="7.1999412"><ele>1431.0</ele><time>2026-05-01T09:59:38.616Z</time></trkpt><trkpt lat="44.8745133" lon="7.2001256"><ele>1431.0</ele><time>2026-05-01T09:59:39.615Z</time></trkpt><trkpt lat="44.8744911" lon="7.2003211"><ele>1431.75</ele><time>2026-05-01T09:59:40.614Z</time></trkpt><trkpt lat="44.8744692" lon="7.2005183"><ele>1432.5</ele><time>2026-05-01T09:59:41.615Z</time></trkpt><trkpt lat="44.8744348" lon="7.2007074"><ele>1433.25</ele><time>2026-05-01T09:59:42.613Z</time></trkpt><trkpt lat="44.8743915" lon="7.2008901"><ele>1434.0</ele><time>2026-05-01T09:59:43.615Z</time></trkpt><trkpt lat="44.8743408" lon="7.2010842"><ele>1434.6666666666667</ele><time>2026-05-01T09:59:44.614Z</time></trkpt><trkpt lat="44.8742854" lon="7.2012926"><ele>1435.3333333333335</ele><time>2026-05-01T09:59:45.614Z</time></trkpt><trkpt lat="44.8742388" lon="7.2015004"><ele>1436.0</ele><time>2026-05-01T09:59:46.616Z</time></trkpt><trkpt lat="44.8741976" lon="7.2017005"><ele>1423.6666666666667</ele><time>2026-05-01T09:59:47.615Z</time></trkpt><trkpt lat="44.8741588" lon="7.2019078"><ele>1411.3333333333333</ele><time>2026-05-01T09:59:48.615Z</time></trkpt><trkpt lat="44.874112" lon="7.2021153"><ele>1399.0</ele><time>2026-05-01T09:59:49.614Z</time></trkpt><trkpt lat="44.8740513" lon="7.2023213"><ele>1399.6666666666665</ele><time>2026-05-01T09:59:50.613Z</time></trkpt><trkpt lat="44.8739864" lon="7.2025359"><ele>1400.3333333333333</ele><time>2026-05-01T09:59:51.615Z</time></trkpt><trkpt lat="44.8739236" lon="7.2027354"><ele>1401.0</ele><time>2026-05-01T09:59:52.615Z</time></trkpt><trkpt lat="44.8738644" lon="7.2029202"><ele>1401.0</ele><time>2026-05-01T09:59:53.614Z</time></trkpt><trkpt lat="44.873813" lon="7.2030838"><ele>1401.0</ele><time>2026-05-01T09:59:54.614Z</time></trkpt><trkpt lat="44.8737769" lon="7.2032372"><ele>1401.0</ele><time>2026-05-01T09:59:55.615Z</time></trkpt><trkpt lat="44.8737582" lon="7.2033987"><ele>1401.0</ele><time>2026-05-01T09:59:56.614Z</time></trkpt><trkpt lat="44.8737375" lon="7.2035723"><ele>1403.25</ele><time>2026-05-01T09:59:57.613Z</time></trkpt><trkpt lat="44.8737119" lon="7.2037378"><ele>1405.5</ele><time>2026-05-01T09:59:58.615Z</time></trkpt><trkpt lat="44.8736683" lon="7.2038851"><ele>1407.75</ele><time>2026-05-01T09:59:59.615Z</time></trkpt><trkpt lat="44.873631" lon="7.2040415"><ele>1410.0</ele><time>2026-05-01T10:00:00.615Z</time></trkpt><trkpt lat="44.8736072" lon="7.2042213"><ele>1410.0</ele><time>2026-05-01T10:00:01.614Z</time></trkpt><trkpt lat="44.8735857" lon="7.2044156"><ele>1410.0</ele><time>2026-05-01T10:00:02.614Z</time></trkpt><trkpt lat="44.8735681" lon="7.2046017"><ele>1410.0</ele><time>2026-05-01T10:00:03.615Z</time></trkpt><trkpt lat="44.8735481" lon="7.204777"><ele>1410.0</ele><time>2026-05-01T10:00:04.613Z</time></trkpt><trkpt lat="44.8735254" lon="7.2049401"><ele>1410.4</ele><time>2026-05-01T10:00:05.614Z</time></trkpt><trkpt lat="44.8734981" lon="7.2050904"><ele>1410.8</ele><time>2026-05-01T10:00:06.614Z</time></trkpt><trkpt lat="44.8734733" lon="7.2052249"><ele>1411.1999999999998</ele><time>2026-05-01T10:00:07.614Z</time></trkpt><trkpt lat="44.8734522" lon="7.2053421"><ele>1411.6</ele><time>2026-05-01T10:00:08.614Z</time></trkpt><trkpt lat="44.8734157" lon="7.2054393"><ele>1412.0</ele><time>2026-05-01T10:00:09.614Z</time></trkpt><trkpt lat="44.8733598" lon="7.2055207"><ele>1407.0</ele><time>2026-05-01T10:00:10.614Z</time></trkpt><trkpt lat="44.8732875" lon="7.205591"><ele>1402.0</ele><time>2026-05-01T10:00:11.616Z</time></trkpt><trkpt lat="44.8732071" lon="7.2056731"><ele>1397.0</ele><time>2026-05-01T10:00:12.613Z</time></trkpt><trkpt lat="44.8731321" lon="7.2057653"><ele>1392.0</ele><time>2026-05-01T10:00:13.614Z</time></trkpt><trkpt lat="44.8730643" lon="7.2058586"><ele>1387.0</ele><time>2026-05-01T10:00:14.615Z</time></trkpt><trkpt lat="44.8730164" lon="7.2059431"><ele>1387.0</ele><time>2026-05-01T10:00:15.614Z</time></trkpt><trkpt lat="44.8729495" lon="7.2060655"><ele>1387.0</ele><time>2026-05-01T10:00:17.614Z</time></trkpt><trkpt lat="44.8728792" lon="7.2060408"><ele>1387.0</ele><time>2026-05-01T10:00:19.613Z</time></trkpt><trkpt lat="44.8728976" lon="7.2059206"><ele>1387.0</ele><time>2026-05-01T10:00:21.617Z</time></trkpt><trkpt lat="44.8729534" lon="7.2058163"><ele>1387.0</ele><time>2026-05-01T10:00:22.613Z</time></trkpt><trkpt lat="44.8730169" lon="7.2056924"><ele>1384.0</ele><time>2026-05-01T10:00:23.614Z</time></trkpt><trkpt lat="44.8730798" lon="7.2055785"><ele>1381.0</ele><time>2026-05-01T10:00:24.621Z</time></trkpt><trkpt lat="44.8731386" lon="7.2054758"><ele>1378.0</ele><time>2026-05-01T10:00:25.616Z</time></trkpt><trkpt lat="44.873189" lon="7.205384"><ele>1375.0</ele><time>2026-05-01T10:00:26.615Z</time></trkpt><trkpt lat="44.8732187" lon="7.2052757"><ele>1372.0</ele><time>2026-05-01T10:00:27.614Z</time></trkpt><trkpt lat="44.8732251" lon="7.2051606"><ele>1369.0</ele><time>2026-05-01T10:00:28.614Z</time></trkpt><trkpt lat="44.8732166" lon="7.205034"><ele>1369.0</ele><time>2026-05-01T10:00:29.615Z</time></trkpt><trkpt lat="44.8732216" lon="7.2049188"><ele>1369.0</ele><time>2026-05-01T10:00:30.614Z</time></trkpt><trkpt lat="44.873233" lon="7.2048285"><ele>1369.0</ele><time>2026-05-01T10:00:31.614Z</time></trkpt><trkpt lat="44.8731834" lon="7.2047481"><ele>1369.0</ele><time>2026-05-01T10:00:33.613Z</time></trkpt><trkpt lat="44.8731441" lon="7.20484"><ele>1369.0</ele><time>2026-05-01T10:00:35.614Z</time></trkpt><trkpt lat="44.873122" lon="7.2050274"><ele>1369.0</ele><time>2026-05-01T10:00:37.615Z</time></trkpt><trkpt lat="44.8730965" lon="7.2051523"><ele>1369.0</ele><time>2026-05-01T10:00:38.615Z</time></trkpt><trkpt lat="44.8730466" lon="7.2052497"><ele>1369.0</ele><time>2026-05-01T10:00:39.616Z</time></trkpt><trkpt lat="44.8729641" lon="7.2053277"><ele>1369.0</ele><time>2026-05-01T10:00:40.615Z</time></trkpt><trkpt lat="44.8728597" lon="7.2053886"><ele>1369.0</ele><time>2026-05-01T10:00:41.615Z</time></trkpt><trkpt lat="44.8727666" lon="7.2054648"><ele>1369.0</ele><time>2026-05-01T10:00:42.614Z</time></trkpt><trkpt lat="44.8726815" lon="7.2055516"><ele>1369.0</ele><time>2026-05-01T10:00:43.613Z</time></trkpt><trkpt lat="44.8726082" lon="7.2056586"><ele>1369.0</ele><time>2026-05-01T10:00:44.614Z</time></trkpt><trkpt lat="44.8725455" lon="7.2057967"><ele>1369.0</ele><time>2026-05-01T10:00:45.613Z</time></trkpt><trkpt lat="44.8724956" lon="7.2059533"><ele>1369.0</ele><time>2026-05-01T10:00:46.612Z</time></trkpt><trkpt lat="44.872451" lon="7.2060945"><ele>1365.6666666666665</ele><time>2026-05-01T10:00:47.614Z</time></trkpt><trkpt lat="44.87241" lon="7.206212"><ele>1362.3333333333333</ele><time>2026-05-01T10:00:48.615Z</time></trkpt><trkpt lat="44.8723868" lon="7.2063142"><ele>1359.0</ele><time>2026-05-01T10:00:49.615Z</time></trkpt><trkpt lat="44.8723909" lon="7.2064136"><ele>1355.6666666666667</ele><time>2026-05-01T10:00:50.618Z</time></trkpt><trkpt lat="44.872422" lon="7.2065083"><ele>1352.3333333333335</ele><time>2026-05-01T10:00:51.615Z</time></trkpt><trkpt lat="44.872478" lon="7.2066081"><ele>1349.0</ele><time>2026-05-01T10:00:52.614Z</time></trkpt><trkpt lat="44.8725435" lon="7.2067172"><ele>1358.5</ele><time>2026-05-01T10:00:53.614Z</time></trkpt><trkpt lat="44.8726342" lon="7.2068337"><ele>1368.0</ele><time>2026-05-01T10:00:54.614Z</time></trkpt><trkpt lat="44.8727292" lon="7.2069605"><ele>1377.5</ele><time>2026-05-01T10:00:55.613Z</time></trkpt><trkpt lat="44.8728143" lon="7.2070864"><ele>1387.0</ele><time>2026-05-01T10:00:56.615Z</time></trkpt><trkpt lat="44.8728861" lon="7.2071957"><ele>1387.0</ele><time>2026-05-01T10:00:57.614Z</time></trkpt><trkpt lat="44.8729528" lon="7.2072719"><ele>1387.0</ele><time>2026-05-01T10:00:58.615Z</time></trkpt><trkpt lat="44.8730032" lon="7.2073521"><ele>1387.0</ele><time>2026-05-01T10:00:59.615Z</time></trkpt><trkpt lat="44.8730236" lon="7.207448"><ele>1387.0</ele><time>2026-05-01T10:01:00.614Z</time></trkpt><trkpt lat="44.8730105" lon="7.2075529"><ele>1387.0</ele><time>2026-05-01T10:01:01.613Z</time></trkpt><trkpt lat="44.8729796" lon="7.2076732"><ele>1387.0</ele><time>2026-05-01T10:01:02.614Z</time></trkpt><trkpt lat="44.8729364" lon="7.2078327"><ele>1383.0</ele><time>2026-05-01T10:01:03.613Z</time></trkpt><trkpt lat="44.8728777" lon="7.2080108"><ele>1379.0</ele><time>2026-05-01T10:01:04.615Z</time></trkpt><trkpt lat="44.8728098" lon="7.2081778"><ele>1375.0</ele><time>2026-05-01T10:01:05.613Z</time></trkpt><trkpt lat="44.8727424" lon="7.2083305"><ele>1371.0</ele><time>2026-05-01T10:01:06.615Z</time></trkpt><trkpt lat="44.872682" lon="7.2084647"><ele>1371.0</ele><time>2026-05-01T10:01:07.614Z</time></trkpt><trkpt lat="44.8726254" lon="7.208585"><ele>1371.0</ele><time>2026-05-01T10:01:08.614Z</time></trkpt><trkpt lat="44.8725971" lon="7.2087103"><ele>1371.0</ele><time>2026-05-01T10:01:09.614Z</time></trkpt><trkpt lat="44.8725885" lon="7.208863"><ele>1371.0</ele><time>2026-05-01T10:01:10.614Z</time></trkpt><trkpt lat="44.872578" lon="7.2090435"><ele>1371.0</ele><time>2026-05-01T10:01:11.614Z</time></trkpt><trkpt lat="44.8725579" lon="7.2092212"><ele>1360.25</ele><time>2026-05-01T10:01:12.618Z</time></trkpt><trkpt lat="44.8725371" lon="7.2093812"><ele>1349.5</ele><time>2026-05-01T10:01:13.614Z</time></trkpt><trkpt lat="44.8724544" lon="7.2096263"><ele>1338.75</ele><time>2026-05-01T10:01:15.615Z</time></trkpt><trkpt lat="44.8723916" lon="7.2097194"><ele>1328.0</ele><time>2026-05-01T10:01:16.614Z</time></trkpt><trkpt lat="44.872318" lon="7.2097984"><ele>1330.5</ele><time>2026-05-01T10:01:17.615Z</time></trkpt><trkpt lat="44.8722263" lon="7.2098436"><ele>1333.0</ele><time>2026-05-01T10:01:18.615Z</time></trkpt><trkpt lat="44.8721313" lon="7.2098707"><ele>1335.5</ele><time>2026-05-01T10:01:19.614Z</time></trkpt><trkpt lat="44.8720484" lon="7.2099068"><ele>1338.0</ele><time>2026-05-01T10:01:20.614Z</time></trkpt><trkpt lat="44.8719733" lon="7.2099491"><ele>1340.5</ele><time>2026-05-01T10:01:21.614Z</time></trkpt><trkpt lat="44.8719044" lon="7.2100055"><ele>1343.0</ele><time>2026-05-01T10:01:22.615Z</time></trkpt><trkpt lat="44.8718393" lon="7.2100685"><ele>1343.0</ele><time>2026-05-01T10:01:23.614Z</time></trkpt><trkpt lat="44.8718225" lon="7.2101909"><ele>1343.0</ele><time>2026-05-01T10:01:24.613Z</time></trkpt><trkpt lat="44.8717982" lon="7.2103326"><ele>1343.0</ele><time>2026-05-01T10:01:25.614Z</time></trkpt><trkpt lat="44.8717694" lon="7.2104928"><ele>1343.0</ele><time>2026-05-01T10:01:26.615Z</time></trkpt><trkpt lat="44.8717273" lon="7.2106456"><ele>1343.0</ele><time>2026-05-01T10:01:27.614Z</time></trkpt><trkpt lat="44.8716898" lon="7.2107937"><ele>1338.8000000000002</ele><time>2026-05-01T10:01:28.615Z</time></trkpt><trkpt lat="44.8716549" lon="7.210938"><ele>1334.6</ele><time>2026-05-01T10:01:29.614Z</time></trkpt><trkpt lat="44.8716266" lon="7.2110787"><ele>1330.4</ele><time>2026-05-01T10:01:30.614Z</time></trkpt><trkpt lat="44.8716013" lon="7.2112134"><ele>1326.1999999999998</ele><time>2026-05-01T10:01:31.614Z</time></trkpt><trkpt lat="44.8715859" lon="7.2113495"><ele>1322.0</ele><time>2026-05-01T10:01:32.616Z</time></trkpt><trkpt lat="44.8715829" lon="7.2115012"><ele>1322.0</ele><time>2026-05-01T10:01:33.614Z</time></trkpt><trkpt lat="44.8715768" lon="7.2116574"><ele>1322.0</ele><time>2026-05-01T10:01:34.614Z</time></trkpt><trkpt lat="44.8715406" lon="7.2118073"><ele>1322.0</ele><time>2026-05-01T10:01:35.614Z</time></trkpt><trkpt lat="44.8714843" lon="7.2119607"><ele>1322.0</ele><time>2026-05-01T10:01:36.615Z</time></trkpt><trkpt lat="44.8714069" lon="7.2121128"><ele>1322.0</ele><time>2026-05-01T10:01:37.615Z</time></trkpt><trkpt lat="44.8713207" lon="7.2122722"><ele>1322.0</ele><time>2026-05-01T10:01:38.614Z</time></trkpt><trkpt lat="44.8712542" lon="7.2124352"><ele>1322.0</ele><time>2026-05-01T10:01:39.614Z</time></trkpt><trkpt lat="44.8711915" lon="7.2125702"><ele>1322.0</ele><time>2026-05-01T10:01:40.613Z</time></trkpt><trkpt lat="44.8711266" lon="7.2126763"><ele>1324.5</ele><time>2026-05-01T10:01:41.613Z</time></trkpt><trkpt lat="44.8710559" lon="7.2127523"><ele>1327.0</ele><time>2026-05-01T10:01:42.613Z</time></trkpt><trkpt lat="44.8709745" lon="7.2127784"><ele>1329.5</ele><time>2026-05-01T10:01:43.615Z</time></trkpt><trkpt lat="44.8708929" lon="7.2127602"><ele>1332.0</ele><time>2026-05-01T10:01:44.614Z</time></trkpt><trkpt lat="44.8708059" lon="7.2127413"><ele>1334.5</ele><time>2026-05-01T10:01:45.614Z</time></trkpt><trkpt lat="44.8707178" lon="7.2127405"><ele>1337.0</ele><time>2026-05-01T10:01:46.614Z</time></trkpt><trkpt lat="44.8706247" lon="7.212758"><ele>1329.3999999999999</ele><time>2026-05-01T10:01:47.615Z</time></trkpt><trkpt lat="44.8705229" lon="7.2127974"><ele>1321.8</ele><time>2026-05-01T10:01:48.614Z</time></trkpt><trkpt lat="44.8704204" lon="7.2128577"><ele>1314.2</ele><time>2026-05-01T10:01:49.614Z</time></trkpt><trkpt lat="44.8703107" lon="7.2128807"><ele>1306.6</ele><time>2026-05-01T10:01:50.615Z</time></trkpt><trkpt lat="44.8701952" lon="7.2128717"><ele>1299.0</ele><time>2026-05-01T10:01:51.615Z</time></trkpt><trkpt lat="44.8700919" lon="7.2128588"><ele>1300.6</ele><time>2026-05-01T10:01:52.615Z</time></trkpt><trkpt lat="44.8699936" lon="7.2128785"><ele>1302.2</ele><time>2026-05-01T10:01:53.637Z</time></trkpt><trkpt lat="44.8698966" lon="7.2129447"><ele>1303.8</ele><time>2026-05-01T10:01:54.614Z</time></trkpt><trkpt lat="44.8698083" lon="7.2130046"><ele>1305.3999999999999</ele><time>2026-05-01T10:01:55.615Z</time></trkpt><trkpt lat="44.8697235" lon="7.2130731"><ele>1307.0</ele><time>2026-05-01T10:01:56.614Z</time></trkpt><trkpt lat="44.8696467" lon="7.2131768"><ele>1307.0</ele><time>2026-05-01T10:01:57.614Z</time></trkpt><trkpt lat="44.8695715" lon="7.2133002"><ele>1307.0</ele><time>2026-05-01T10:01:58.614Z</time></trkpt><trkpt lat="44.8695123" lon="7.213407"><ele>1307.0</ele><time>2026-05-01T10:01:59.614Z</time></trkpt><trkpt lat="44.8694697" lon="7.2134918"><ele>1307.0</ele><time>2026-05-01T10:02:00.615Z</time></trkpt><trkpt lat="44.8694385" lon="7.2136021"><ele>1307.0</ele><time>2026-05-01T10:02:01.614Z</time></trkpt><trkpt lat="44.8694096" lon="7.2137281"><ele>1307.0</ele><time>2026-05-01T10:02:02.613Z</time></trkpt><trkpt lat="44.869373" lon="7.2138659"><ele>1307.0</ele><time>2026-05-01T10:02:03.615Z</time></trkpt><trkpt lat="44.869339" lon="7.2139895"><ele>1307.0</ele><time>2026-05-01T10:02:04.613Z</time></trkpt><trkpt lat="44.8692993" lon="7.2141062"><ele>1307.0</ele><time>2026-05-01T10:02:05.614Z</time></trkpt><trkpt lat="44.8692541" lon="7.2142138"><ele>1307.0</ele><time>2026-05-01T10:02:06.614Z</time></trkpt><trkpt lat="44.8691967" lon="7.2143156"><ele>1303.5</ele><time>2026-05-01T10:02:07.614Z</time></trkpt><trkpt lat="44.8691219" lon="7.2144055"><ele>1300.0</ele><time>2026-05-01T10:02:08.615Z</time></trkpt><trkpt lat="44.8690196" lon="7.2144728"><ele>1296.5</ele><time>2026-05-01T10:02:09.614Z</time></trkpt><trkpt lat="44.8688967" lon="7.2145248"><ele>1293.0</ele><time>2026-05-01T10:02:10.614Z</time></trkpt><trkpt lat="44.8687713" lon="7.2145629"><ele>1293.0</ele><time>2026-05-01T10:02:11.614Z</time></trkpt><trkpt lat="44.8686605" lon="7.2145983"><ele>1293.0</ele><time>2026-05-01T10:02:12.616Z</time></trkpt><trkpt lat="44.868556" lon="7.2146434"><ele>1293.0</ele><time>2026-05-01T10:02:13.615Z</time></trkpt><trkpt lat="44.8684648" lon="7.2147006"><ele>1293.0</ele><time>2026-05-01T10:02:14.614Z</time></trkpt><trkpt lat="44.8683757" lon="7.2147858"><ele>1293.0</ele><time>2026-05-01T10:02:15.614Z</time></trkpt><trkpt lat="44.8682985" lon="7.2148806"><ele>1290.25</ele><time>2026-05-01T10:02:16.615Z</time></trkpt><trkpt lat="44.8682334" lon="7.21501"><ele>1287.5</ele><time>2026-05-01T10:02:17.619Z</time></trkpt><trkpt lat="44.8681669" lon="7.2151784"><ele>1284.75</ele><time>2026-05-01T10:02:18.614Z</time></trkpt><trkpt lat="44.8680966" lon="7.215379"><ele>1282.0</ele><time>2026-05-01T10:02:19.618Z</time></trkpt><trkpt lat="44.8680237" lon="7.2155767"><ele>1285.25</ele><time>2026-05-01T10:02:20.614Z</time></trkpt><trkpt lat="44.867959" lon="7.2157521"><ele>1288.5</ele><time>2026-05-01T10:02:21.614Z</time></trkpt><trkpt lat="44.8678964" lon="7.2159184"><ele>1291.75</ele><time>2026-05-01T10:02:22.615Z</time></trkpt><trkpt lat="44.8678557" lon="7.2160679"><ele>1295.0</ele><time>2026-05-01T10:02:23.616Z</time></trkpt><trkpt lat="44.8678112" lon="7.2162126"><ele>1295.0</ele><time>2026-05-01T10:02:24.616Z</time></trkpt><trkpt lat="44.8677464" lon="7.2163243"><ele>1295.0</ele><time>2026-05-01T10:02:25.615Z</time></trkpt><trkpt lat="44.8676662" lon="7.2164317"><ele>1295.0</ele><time>2026-05-01T10:02:26.615Z</time></trkpt><trkpt lat="44.8676014" lon="7.2165577"><ele>1295.0</ele><time>2026-05-01T10:02:27.614Z</time></trkpt><trkpt lat="44.8675336" lon="7.2167036"><ele>1295.0</ele><time>2026-05-01T10:02:28.615Z</time></trkpt><trkpt lat="44.8674492" lon="7.2168394"><ele>1288.75</ele><time>2026-05-01T10:02:29.615Z</time></trkpt><trkpt lat="44.8673609" lon="7.2169747"><ele>1282.5</ele><time>2026-05-01T10:02:30.614Z</time></trkpt><trkpt lat="44.8672874" lon="7.2170995"><ele>1276.25</ele><time>2026-05-01T10:02:31.615Z</time></trkpt><trkpt lat="44.867211" lon="7.2172099"><ele>1270.0</ele><time>2026-05-01T10:02:32.615Z</time></trkpt><trkpt lat="44.8671207" lon="7.2172808"><ele>1267.75</ele><time>2026-05-01T10:02:33.614Z</time></trkpt><trkpt lat="44.8670132" lon="7.2173548"><ele>1265.5</ele><time>2026-05-01T10:02:34.616Z</time></trkpt><trkpt lat="44.8669116" lon="7.2174561"><ele>1263.25</ele><time>2026-05-01T10:02:35.615Z</time></trkpt><trkpt lat="44.8668253" lon="7.2175681"><ele>1261.0</ele><time>2026-05-01T10:02:36.614Z</time></trkpt><trkpt lat="44.8667446" lon="7.2176609"><ele>1261.0</ele><time>2026-05-01T10:02:37.614Z</time></trkpt><trkpt lat="44.8666517" lon="7.2177223"><ele>1261.0</ele><time>2026-05-01T10:02:38.613Z</time></trkpt><trkpt lat="44.8665526" lon="7.2177371"><ele>1261.0</ele><time>2026-05-01T10:02:39.614Z</time></trkpt><trkpt lat="44.8664278" lon="7.2177306"><ele>1261.0</ele><time>2026-05-01T10:02:40.615Z</time></trkpt><trkpt lat="44.8662964" lon="7.2177197"><ele>1261.0</ele><time>2026-05-01T10:02:41.614Z</time></trkpt><trkpt lat="44.8661746" lon="7.2177113"><ele>1261.0</ele><time>2026-05-01T10:02:42.615Z</time></trkpt><trkpt lat="44.8660587" lon="7.2177115"><ele>1261.0</ele><time>2026-05-01T10:02:43.615Z</time></trkpt><trkpt lat="44.865959" lon="7.2177267"><ele>1261.0</ele><time>2026-05-01T10:02:44.615Z</time></trkpt><trkpt lat="44.8658595" lon="7.2177619"><ele>1261.0</ele><time>2026-05-01T10:02:45.613Z</time></trkpt><trkpt lat="44.8657612" lon="7.2178152"><ele>1259.0</ele><time>2026-05-01T10:02:46.615Z</time></trkpt><trkpt lat="44.8655805" lon="7.21794"><ele>1257.0</ele><time>2026-05-01T10:02:48.615Z</time></trkpt><trkpt lat="44.8654833" lon="7.2179692"><ele>1255.0</ele><time>2026-05-01T10:02:49.617Z</time></trkpt><trkpt lat="44.8653966" lon="7.2179758"><ele>1253.0</ele><time>2026-05-01T10:02:50.614Z</time></trkpt><trkpt lat="44.8653124" lon="7.2180138"><ele>1253.0</ele><time>2026-05-01T10:02:51.615Z</time></trkpt><trkpt lat="44.8652386" lon="7.2180955"><ele>1253.0</ele><time>2026-05-01T10:02:52.613Z</time></trkpt><trkpt lat="44.8651581" lon="7.2182198"><ele>1253.0</ele><time>2026-05-01T10:02:53.613Z</time></trkpt><trkpt lat="44.8650717" lon="7.2183559"><ele>1253.0</ele><time>2026-05-01T10:02:54.614Z</time></trkpt><trkpt lat="44.8649844" lon="7.2184853"><ele>1251.2</ele><time>2026-05-01T10:02:55.613Z</time></trkpt><trkpt lat="44.8649084" lon="7.2186021"><ele>1249.4</ele><time>2026-05-01T10:02:56.614Z</time></trkpt><trkpt lat="44.8648362" lon="7.2187004"><ele>1247.6000000000001</ele><time>2026-05-01T10:02:57.614Z</time></trkpt><trkpt lat="44.8647877" lon="7.2187848"><ele>1245.8</ele><time>2026-05-01T10:02:58.615Z</time></trkpt><trkpt lat="44.8647073" lon="7.2188475"><ele>1244.0</ele><time>2026-05-01T10:03:00.613Z</time></trkpt><trkpt lat="44.8647048" lon="7.2187226"><ele>1244.0</ele><time>2026-05-01T10:03:03.612Z</time></trkpt><trkpt lat="44.8647931" lon="7.2186036"><ele>1244.0</ele><time>2026-05-01T10:03:05.613Z</time></trkpt><trkpt lat="44.8648505" lon="7.2185129"><ele>1244.0</ele><time>2026-05-01T10:03:06.615Z</time></trkpt><trkpt lat="44.8649024" lon="7.218406"><ele>1244.0</ele><time>2026-05-01T10:03:07.613Z</time></trkpt><trkpt lat="44.8649438" lon="7.2182891"><ele>1244.0</ele><time>2026-05-01T10:03:08.615Z</time></trkpt><trkpt lat="44.86497" lon="7.2181507"><ele>1241.0</ele><time>2026-05-01T10:03:09.616Z</time></trkpt><trkpt lat="44.8649752" lon="7.218013"><ele>1238.0</ele><time>2026-05-01T10:03:10.615Z</time></trkpt><trkpt lat="44.8649862" lon="7.217894"><ele>1235.0</ele><time>2026-05-01T10:03:11.615Z</time></trkpt><trkpt lat="44.8650216" lon="7.2177776"><ele>1232.0</ele><time>2026-05-01T10:03:12.614Z</time></trkpt><trkpt lat="44.8650683" lon="7.2176553"><ele>1229.0</ele><time>2026-05-01T10:03:13.615Z</time></trkpt><trkpt lat="44.8651118" lon="7.2175144"><ele>1231.0</ele><time>2026-05-01T10:03:14.614Z</time></trkpt><trkpt lat="44.865156" lon="7.217354"><ele>1233.0</ele><time>2026-05-01T10:03:15.615Z</time></trkpt><trkpt lat="44.8652162" lon="7.2171942"><ele>1235.0</ele><time>2026-05-01T10:03:16.614Z</time></trkpt><trkpt lat="44.8652786" lon="7.2170471"><ele>1237.0</ele><time>2026-05-01T10:03:17.615Z</time></trkpt><trkpt lat="44.8653952" lon="7.2167838"><ele>1237.0</ele><time>2026-05-01T10:03:19.614Z</time></trkpt><trkpt lat="44.8654419" lon="7.2166537"><ele>1237.0</ele><time>2026-05-01T10:03:20.615Z</time></trkpt><trkpt lat="44.8654761" lon="7.2165174"><ele>1237.0</ele><time>2026-05-01T10:03:21.613Z</time></trkpt><trkpt lat="44.8654999" lon="7.2163642"><ele>1237.0</ele><time>2026-05-01T10:03:22.614Z</time></trkpt><trkpt lat="44.8655172" lon="7.2162013"><ele>1237.0</ele><time>2026-05-01T10:03:23.614Z</time></trkpt><trkpt lat="44.8655309" lon="7.2160505"><ele>1235.0</ele><time>2026-05-01T10:03:24.615Z</time></trkpt><trkpt lat="44.8655343" lon="7.215915"><ele>1233.0</ele><time>2026-05-01T10:03:25.615Z</time></trkpt><trkpt lat="44.8655402" lon="7.2157893"><ele>1231.0</ele><time>2026-05-01T10:03:26.614Z</time></trkpt><trkpt lat="44.8655608" lon="7.2156861"><ele>1229.0</ele><time>2026-05-01T10:03:27.616Z</time></trkpt><trkpt lat="44.8656065" lon="7.2155999"><ele>1227.0</ele><time>2026-05-01T10:03:28.614Z</time></trkpt><trkpt lat="44.8656762" lon="7.2155313"><ele>1225.0</ele><time>2026-05-01T10:03:29.616Z</time></trkpt><trkpt lat="44.8657584" lon="7.2154656"><ele>1223.8333333333333</ele><time>2026-05-01T10:03:30.615Z</time></trkpt><trkpt lat="44.8658358" lon="7.2153762"><ele>1222.6666666666665</ele><time>2026-05-01T10:03:31.614Z</time></trkpt><trkpt lat="44.8659026" lon="7.2152803"><ele>1221.5</ele><time>2026-05-01T10:03:32.614Z</time></trkpt><trkpt lat="44.8659717" lon="7.2151906"><ele>1220.3333333333333</ele><time>2026-05-01T10:03:33.614Z</time></trkpt><trkpt lat="44.8660369" lon="7.2151166"><ele>1219.1666666666667</ele><time>2026-05-01T10:03:34.614Z</time></trkpt><trkpt lat="44.8661014" lon="7.2150697"><ele>1218.0</ele><time>2026-05-01T10:03:35.616Z</time></trkpt><trkpt lat="44.8661898" lon="7.2149803"><ele>1218.0</ele><time>2026-05-01T10:03:37.614Z</time></trkpt><trkpt lat="44.8661603" lon="7.2148694"><ele>1218.0</ele><time>2026-05-01T10:03:39.618Z</time></trkpt><trkpt lat="44.8660462" lon="7.2148942"><ele>1218.0</ele><time>2026-05-01T10:03:41.616Z</time></trkpt><trkpt lat="44.865961" lon="7.2149415"><ele>1218.0</ele><time>2026-05-01T10:03:42.615Z</time></trkpt><trkpt lat="44.8658655" lon="7.2149818"><ele>1218.0</ele><time>2026-05-01T10:03:43.616Z</time></trkpt><trkpt lat="44.8657685" lon="7.2149939"><ele>1216.2</ele><time>2026-05-01T10:03:44.615Z</time></trkpt><trkpt lat="44.865683" lon="7.2149967"><ele>1214.4</ele><time>2026-05-01T10:03:45.616Z</time></trkpt><trkpt lat="44.8656017" lon="7.2150243"><ele>1212.6000000000001</ele><time>2026-05-01T10:03:46.618Z</time></trkpt><trkpt lat="44.8655196" lon="7.2150881"><ele>1210.8</ele><time>2026-05-01T10:03:47.616Z</time></trkpt><trkpt lat="44.865428" lon="7.2151754"><ele>1209.0</ele><time>2026-05-01T10:03:48.615Z</time></trkpt><trkpt lat="44.8653257" lon="7.2152614"><ele>1209.0</ele><time>2026-05-01T10:03:49.616Z</time></trkpt><trkpt lat="44.8652308" lon="7.2153421"><ele>1209.0</ele><time>2026-05-01T10:03:50.615Z</time></trkpt><trkpt lat="44.8651441" lon="7.2154236"><ele>1209.0</ele><time>2026-05-01T10:03:51.616Z</time></trkpt><trkpt lat="44.8650676" lon="7.2155091"><ele>1209.0</ele><time>2026-05-01T10:03:52.619Z</time></trkpt><trkpt lat="44.8649986" lon="7.2155995"><ele>1209.0</ele><time>2026-05-01T10:03:53.616Z</time></trkpt><trkpt lat="44.8649517" lon="7.2157827"><ele>1206.0</ele><time>2026-05-01T10:03:54.617Z</time></trkpt><trkpt lat="44.864895" lon="7.2159373"><ele>1203.0</ele><time>2026-05-01T10:03:55.617Z</time></trkpt><trkpt lat="44.8648394" lon="7.2160862"><ele>1200.0</ele><time>2026-05-01T10:03:56.617Z</time></trkpt><trkpt lat="44.8647718" lon="7.2162302"><ele>1197.0</ele><time>2026-05-01T10:03:57.615Z</time></trkpt><trkpt lat="44.8646957" lon="7.2163636"><ele>1200.5</ele><time>2026-05-01T10:03:58.616Z</time></trkpt><trkpt lat="44.864613" lon="7.2164972"><ele>1204.0</ele><time>2026-05-01T10:03:59.615Z</time></trkpt><trkpt lat="44.8645267" lon="7.2166143"><ele>1207.5</ele><time>2026-05-01T10:04:00.615Z</time></trkpt><trkpt lat="44.8644389" lon="7.2167284"><ele>1211.0</ele><time>2026-05-01T10:04:01.615Z</time></trkpt><trkpt lat="44.8643454" lon="7.2168524"><ele>1205.6</ele><time>2026-05-01T10:04:02.618Z</time></trkpt><trkpt lat="44.8642443" lon="7.2169463"><ele>1200.1999999999998</ele><time>2026-05-01T10:04:03.614Z</time></trkpt><trkpt lat="44.8641469" lon="7.2170137"><ele>1194.8000000000002</ele><time>2026-05-01T10:04:04.614Z</time></trkpt><trkpt lat="44.864059" lon="7.2170699"><ele>1189.4</ele><time>2026-05-01T10:04:05.616Z</time></trkpt><trkpt lat="44.8639878" lon="7.2171278"><ele>1184.0</ele><time>2026-05-01T10:04:06.616Z</time></trkpt><trkpt lat="44.8639374" lon="7.2172098"><ele>1184.0</ele><time>2026-05-01T10:04:07.616Z</time></trkpt><trkpt lat="44.8639067" lon="7.2173071"><ele>1184.0</ele><time>2026-05-01T10:04:08.615Z</time></trkpt><trkpt lat="44.8638993" lon="7.2173997"><ele>1184.0</ele><time>2026-05-01T10:04:09.614Z</time></trkpt><trkpt lat="44.863902" lon="7.2175415"><ele>1184.0</ele><time>2026-05-01T10:04:10.615Z</time></trkpt><trkpt lat="44.8638944" lon="7.2176746"><ele>1184.0</ele><time>2026-05-01T10:04:11.616Z</time></trkpt><trkpt lat="44.8638675" lon="7.2178071"><ele>1184.0</ele><time>2026-05-01T10:04:12.615Z</time></trkpt><trkpt lat="44.8638171" lon="7.2179283"><ele>1185.8</ele><time>2026-05-01T10:04:13.615Z</time></trkpt><trkpt lat="44.8637567" lon="7.2180282"><ele>1187.6000000000001</ele><time>2026-05-01T10:04:14.615Z</time></trkpt><trkpt lat="44.8637156" lon="7.2181412"><ele>1189.4</ele><time>2026-05-01T10:04:15.615Z</time></trkpt><trkpt lat="44.8636962" lon="7.2182745"><ele>1191.2</ele><time>2026-05-01T10:04:16.615Z</time></trkpt><trkpt lat="44.8636857" lon="7.2184135"><ele>1193.0</ele><time>2026-05-01T10:04:17.616Z</time></trkpt><trkpt lat="44.8636728" lon="7.2185623"><ele>1195.0</ele><time>2026-05-01T10:04:18.614Z</time></trkpt><trkpt lat="44.8636483" lon="7.2187044"><ele>1197.0</ele><time>2026-05-01T10:04:19.615Z</time></trkpt><trkpt lat="44.8636" lon="7.2188404"><ele>1199.0</ele><time>2026-05-01T10:04:20.616Z</time></trkpt><trkpt lat="44.8635443" lon="7.2189677"><ele>1201.0</ele><time>2026-05-01T10:04:21.615Z</time></trkpt><trkpt lat="44.863484" lon="7.2190918"><ele>1203.0</ele><time>2026-05-01T10:04:22.616Z</time></trkpt><trkpt lat="44.8634075" lon="7.2191889"><ele>1196.8</ele><time>2026-05-01T10:04:23.616Z</time></trkpt><trkpt lat="44.8633122" lon="7.2192626"><ele>1190.6</ele><time>2026-05-01T10:04:24.615Z</time></trkpt><trkpt lat="44.8632217" lon="7.2193354"><ele>1184.4</ele><time>2026-05-01T10:04:25.615Z</time></trkpt><trkpt lat="44.8631349" lon="7.2194325"><ele>1178.2</ele><time>2026-05-01T10:04:26.615Z</time></trkpt><trkpt lat="44.8630489" lon="7.2195304"><ele>1172.0</ele><time>2026-05-01T10:04:27.615Z</time></trkpt><trkpt lat="44.8629684" lon="7.2196221"><ele>1172.0</ele><time>2026-05-01T10:04:28.614Z</time></trkpt><trkpt lat="44.8628902" lon="7.2197159"><ele>1172.0</ele><time>2026-05-01T10:04:29.615Z</time></trkpt><trkpt lat="44.8628063" lon="7.2197906"><ele>1172.0</ele><time>2026-05-01T10:04:30.616Z</time></trkpt><trkpt lat="44.8627218" lon="7.2198346"><ele>1172.0</ele><time>2026-05-01T10:04:31.614Z</time></trkpt><trkpt lat="44.8626262" lon="7.2198517"><ele>1172.0</ele><time>2026-05-01T10:04:32.615Z</time></trkpt><trkpt lat="44.8625233" lon="7.2198313"><ele>1166.8</ele><time>2026-05-01T10:04:33.614Z</time></trkpt><trkpt lat="44.8624062" lon="7.2197896"><ele>1161.6</ele><time>2026-05-01T10:04:34.614Z</time></trkpt><trkpt lat="44.862301" lon="7.2197457"><ele>1156.3999999999999</ele><time>2026-05-01T10:04:35.615Z</time></trkpt><trkpt lat="44.8621995" lon="7.2197197"><ele>1151.2</ele><time>2026-05-01T10:04:36.615Z</time></trkpt><trkpt lat="44.862089" lon="7.2196968"><ele>1146.0</ele><time>2026-05-01T10:04:37.616Z</time></trkpt><trkpt lat="44.8619855" lon="7.2196995"><ele>1146.0</ele><time>2026-05-01T10:04:38.615Z</time></trkpt><trkpt lat="44.8618702" lon="7.2197194"><ele>1146.0</ele><time>2026-05-01T10:04:39.615Z</time></trkpt><trkpt lat="44.8617522" lon="7.2197593"><ele>1146.0</ele><time>2026-05-01T10:04:40.616Z</time></trkpt><trkpt lat="44.8616344" lon="7.2198212"><ele>1146.0</ele><time>2026-05-01T10:04:41.615Z</time></trkpt><trkpt lat="44.8615173" lon="7.219884"><ele>1149.6</ele><time>2026-05-01T10:04:42.615Z</time></trkpt><trkpt lat="44.8614206" lon="7.2199478"><ele>1153.1999999999998</ele><time>2026-05-01T10:04:43.615Z</time></trkpt><trkpt lat="44.8613415" lon="7.2200187"><ele>1156.8000000000002</ele><time>2026-05-01T10:04:44.643Z</time></trkpt><trkpt lat="44.8612673" lon="7.2200946"><ele>1160.4</ele><time>2026-05-01T10:04:45.615Z</time></trkpt><trkpt lat="44.8611976" lon="7.2201594"><ele>1164.0</ele><time>2026-05-01T10:04:46.615Z</time></trkpt><trkpt lat="44.8611286" lon="7.2201998"><ele>1164.0</ele><time>2026-05-01T10:04:47.617Z</time></trkpt><trkpt lat="44.8610622" lon="7.2201988"><ele>1164.0</ele><time>2026-05-01T10:04:48.615Z</time></trkpt><trkpt lat="44.8610052" lon="7.2201527"><ele>1164.0</ele><time>2026-05-01T10:04:49.617Z</time></trkpt><trkpt lat="44.860947" lon="7.2199897"><ele>1164.0</ele><time>2026-05-01T10:04:51.616Z</time></trkpt><trkpt lat="44.8609467" lon="7.2198809"><ele>1164.0</ele><time>2026-05-01T10:04:52.619Z</time></trkpt><trkpt lat="44.8609352" lon="7.2197735"><ele>1164.0</ele><time>2026-05-01T10:04:53.614Z</time></trkpt><trkpt lat="44.8608954" lon="7.219682"><ele>1159.2</ele><time>2026-05-01T10:04:54.614Z</time></trkpt><trkpt lat="44.8608361" lon="7.2196237"><ele>1154.4</ele><time>2026-05-01T10:04:55.615Z</time></trkpt><trkpt lat="44.8607595" lon="7.2195978"><ele>1149.6</ele><time>2026-05-01T10:04:56.616Z</time></trkpt><trkpt lat="44.8606596" lon="7.2196108"><ele>1144.8</ele><time>2026-05-01T10:04:57.617Z</time></trkpt><trkpt lat="44.8605259" lon="7.2196453"><ele>1140.0</ele><time>2026-05-01T10:04:58.616Z</time></trkpt><trkpt lat="44.8603766" lon="7.2196669"><ele>1140.0</ele><time>2026-05-01T10:04:59.615Z</time></trkpt><trkpt lat="44.8602366" lon="7.2196709"><ele>1140.0</ele><time>2026-05-01T10:05:00.616Z</time></trkpt><trkpt lat="44.8601106" lon="7.2196769"><ele>1140.0</ele><time>2026-05-01T10:05:01.616Z</time></trkpt><trkpt lat="44.8599899" lon="7.2196748"><ele>1140.0</ele><time>2026-05-01T10:05:02.615Z</time></trkpt><trkpt lat="44.8599084" lon="7.219647"><ele>1140.8</ele><time>2026-05-01T10:05:03.615Z</time></trkpt><trkpt lat="44.8598194" lon="7.2196577"><ele>1141.6</ele><time>2026-05-01T10:05:04.615Z</time></trkpt><trkpt lat="44.8597371" lon="7.2196943"><ele>1142.4</ele><time>2026-05-01T10:05:05.615Z</time></trkpt><trkpt lat="44.8596677" lon="7.2197561"><ele>1143.2</ele><time>2026-05-01T10:05:06.616Z</time></trkpt><trkpt lat="44.8595985" lon="7.2198669"><ele>1144.0</ele><time>2026-05-01T10:05:07.616Z</time></trkpt><trkpt lat="44.8595306" lon="7.219991"><ele>1144.0</ele><time>2026-05-01T10:05:08.615Z</time></trkpt><trkpt lat="44.8594497" lon="7.2201521"><ele>1144.0</ele><time>2026-05-01T10:05:09.617Z</time></trkpt><trkpt lat="44.8593599" lon="7.2203259"><ele>1144.0</ele><time>2026-05-01T10:05:10.614Z</time></trkpt><trkpt lat="44.8592605" lon="7.2204897"><ele>1144.0</ele><time>2026-05-01T10:05:11.616Z</time></trkpt><trkpt lat="44.8591701" lon="7.2206458"><ele>1140.25</ele><time>2026-05-01T10:05:12.617Z</time></trkpt><trkpt lat="44.8590931" lon="7.2207938"><ele>1136.5</ele><time>2026-05-01T10:05:13.614Z</time></trkpt><trkpt lat="44.8590165" lon="7.2209522"><ele>1132.75</ele><time>2026-05-01T10:05:14.617Z</time></trkpt><trkpt lat="44.8589621" lon="7.2211078"><ele>1129.0</ele><time>2026-05-01T10:05:15.616Z</time></trkpt><trkpt lat="44.8588907" lon="7.2212516"><ele>1129.0</ele><time>2026-05-01T10:05:16.615Z</time></trkpt><trkpt lat="44.858807" lon="7.2213739"><ele>1129.0</ele><time>2026-05-01T10:05:17.616Z</time></trkpt><trkpt lat="44.8587195" lon="7.2214714"><ele>1129.0</ele><time>2026-05-01T10:05:18.618Z</time></trkpt><trkpt lat="44.8586448" lon="7.221609"><ele>1129.0</ele><time>2026-05-01T10:05:19.615Z</time></trkpt><trkpt lat="44.8585756" lon="7.221758"><ele>1129.75</ele><time>2026-05-01T10:05:20.615Z</time></trkpt><trkpt lat="44.8584929" lon="7.2218834"><ele>1130.5</ele><time>2026-05-01T10:05:21.615Z</time></trkpt><trkpt lat="44.8584156" lon="7.2220085"><ele>1131.25</ele><time>2026-05-01T10:05:22.615Z</time></trkpt><trkpt lat="44.8583575" lon="7.2221499"><ele>1132.0</ele><time>2026-05-01T10:05:23.615Z</time></trkpt><trkpt lat="44.8583089" lon="7.2222816"><ele>1130.0</ele><time>2026-05-01T10:05:24.615Z</time></trkpt><trkpt lat="44.8582393" lon="7.2223849"><ele>1128.0</ele><time>2026-05-01T10:05:25.615Z</time></trkpt><trkpt lat="44.8581511" lon="7.22246"><ele>1126.0</ele><time>2026-05-01T10:05:26.615Z</time></trkpt><trkpt lat="44.8580668" lon="7.2225553"><ele>1124.0</ele><time>2026-05-01T10:05:27.614Z</time></trkpt><trkpt lat="44.8579867" lon="7.2226883"><ele>1122.0</ele><time>2026-05-01T10:05:28.616Z</time></trkpt><trkpt lat="44.8579039" lon="7.2228083"><ele>1122.0</ele><time>2026-05-01T10:05:29.614Z</time></trkpt><trkpt lat="44.8578143" lon="7.2229006"><ele>1122.0</ele><time>2026-05-01T10:05:30.614Z</time></trkpt><trkpt lat="44.8577148" lon="7.2229487"><ele>1122.0</ele><time>2026-05-01T10:05:31.615Z</time></trkpt><trkpt lat="44.8576092" lon="7.2229716"><ele>1122.0</ele><time>2026-05-01T10:05:32.616Z</time></trkpt><trkpt lat="44.8574963" lon="7.222968"><ele>1122.0</ele><time>2026-05-01T10:05:33.615Z</time></trkpt><trkpt lat="44.8573903" lon="7.2229759"><ele>1122.0</ele><time>2026-05-01T10:05:34.617Z</time></trkpt><trkpt lat="44.8572855" lon="7.2229986"><ele>1122.0</ele><time>2026-05-01T10:05:35.616Z</time></trkpt><trkpt lat="44.8571703" lon="7.223049"><ele>1122.0</ele><time>2026-05-01T10:05:36.615Z</time></trkpt><trkpt lat="44.8570422" lon="7.2231289"><ele>1122.0</ele><time>2026-05-01T10:05:37.616Z</time></trkpt><trkpt lat="44.8569105" lon="7.2231985"><ele>1117.75</ele><time>2026-05-01T10:05:38.616Z</time></trkpt><trkpt lat="44.8567739" lon="7.2232574"><ele>1113.5</ele><time>2026-05-01T10:05:39.617Z</time></trkpt><trkpt lat="44.8566293" lon="7.2233232"><ele>1109.25</ele><time>2026-05-01T10:05:40.616Z</time></trkpt><trkpt lat="44.856496" lon="7.2234039"><ele>1105.0</ele><time>2026-05-01T10:05:41.614Z</time></trkpt><trkpt lat="44.8563768" lon="7.2234867"><ele>1105.0</ele><time>2026-05-01T10:05:42.615Z</time></trkpt><trkpt lat="44.856277" lon="7.2235654"><ele>1105.0</ele><time>2026-05-01T10:05:43.614Z</time></trkpt><trkpt lat="44.85619" lon="7.2236277"><ele>1105.0</ele><time>2026-05-01T10:05:44.615Z</time></trkpt><trkpt lat="44.8560948" lon="7.2236575"><ele>1105.0</ele><time>2026-05-01T10:05:45.615Z</time></trkpt><trkpt lat="44.8559925" lon="7.2236907"><ele>1105.0</ele><time>2026-05-01T10:05:46.615Z</time></trkpt><trkpt lat="44.8559046" lon="7.2237427"><ele>1103.4</ele><time>2026-05-01T10:05:47.615Z</time></trkpt><trkpt lat="44.8558372" lon="7.2238156"><ele>1101.8</ele><time>2026-05-01T10:05:48.615Z</time></trkpt><trkpt lat="44.8557879" lon="7.2239245"><ele>1100.2</ele><time>2026-05-01T10:05:49.614Z</time></trkpt><trkpt lat="44.8557461" lon="7.2240645"><ele>1098.6</ele><time>2026-05-01T10:05:50.616Z</time></trkpt><trkpt lat="44.8557015" lon="7.2242434"><ele>1097.0</ele><time>2026-05-01T10:05:51.617Z</time></trkpt><trkpt lat="44.8556398" lon="7.2244461"><ele>1097.0</ele><time>2026-05-01T10:05:52.616Z</time></trkpt><trkpt lat="44.8555699" lon="7.224635"><ele>1097.0</ele><time>2026-05-01T10:05:53.616Z</time></trkpt><trkpt lat="44.8554981" lon="7.224812"><ele>1097.0</ele><time>2026-05-01T10:05:54.618Z</time></trkpt><trkpt lat="44.8554386" lon="7.2249808"><ele>1097.0</ele><time>2026-05-01T10:05:55.618Z</time></trkpt><trkpt lat="44.8553904" lon="7.2251466"><ele>1098.75</ele><time>2026-05-01T10:05:56.616Z</time></trkpt><trkpt lat="44.8553543" lon="7.2253066"><ele>1100.5</ele><time>2026-05-01T10:05:57.616Z</time></trkpt><trkpt lat="44.8553147" lon="7.2254638"><ele>1102.25</ele><time>2026-05-01T10:05:58.616Z</time></trkpt><trkpt lat="44.8552635" lon="7.2256177"><ele>1104.0</ele><time>2026-05-01T10:05:59.616Z</time></trkpt><trkpt lat="44.8552022" lon="7.2257673"><ele>1106.6666666666667</ele><time>2026-05-01T10:06:00.615Z</time></trkpt><trkpt lat="44.8551272" lon="7.2259638"><ele>1109.3333333333335</ele><time>2026-05-01T10:06:01.616Z</time></trkpt><trkpt lat="44.8550591" lon="7.2261684"><ele>1112.0</ele><time>2026-05-01T10:06:02.616Z</time></trkpt><trkpt lat="44.8549914" lon="7.2263841"><ele>1104.0</ele><time>2026-05-01T10:06:03.616Z</time></trkpt><trkpt lat="44.8549312" lon="7.2266084"><ele>1096.0</ele><time>2026-05-01T10:06:04.615Z</time></trkpt><trkpt lat="44.8548692" lon="7.226816"><ele>1088.0</ele><time>2026-05-01T10:06:05.616Z</time></trkpt><trkpt lat="44.8548145" lon="7.2270036"><ele>1088.0</ele><time>2026-05-01T10:06:06.616Z</time></trkpt><trkpt lat="44.8547651" lon="7.2271614"><ele>1088.0</ele><time>2026-05-01T10:06:07.615Z</time></trkpt><trkpt lat="44.854713" lon="7.2273022"><ele>1088.0</ele><time>2026-05-01T10:06:08.615Z</time></trkpt><trkpt lat="44.8546693" lon="7.2274431"><ele>1088.0</ele><time>2026-05-01T10:06:09.616Z</time></trkpt><trkpt lat="44.8546175" lon="7.2275683"><ele>1088.0</ele><time>2026-05-01T10:06:10.614Z</time></trkpt><trkpt lat="44.8545394" lon="7.2276637"><ele>1089.0</ele><time>2026-05-01T10:06:11.615Z</time></trkpt><trkpt lat="44.8544541" lon="7.2277405"><ele>1090.0</ele><time>2026-05-01T10:06:12.614Z</time></trkpt><trkpt lat="44.8543415" lon="7.2277955"><ele>1091.0</ele><time>2026-05-01T10:06:13.616Z</time></trkpt><trkpt lat="44.8542073" lon="7.2278494"><ele>1092.0</ele><time>2026-05-01T10:06:14.614Z</time></trkpt><trkpt lat="44.8540778" lon="7.2279045"><ele>1091.5</ele><time>2026-05-01T10:06:15.615Z</time></trkpt><trkpt lat="44.8539482" lon="7.2279541"><ele>1091.0</ele><time>2026-05-01T10:06:16.614Z</time></trkpt><trkpt lat="44.8538273" lon="7.228002"><ele>1090.5</ele><time>2026-05-01T10:06:17.615Z</time></trkpt><trkpt lat="44.8537208" lon="7.2280779"><ele>1090.0</ele><time>2026-05-01T10:06:18.616Z</time></trkpt><trkpt lat="44.8536214" lon="7.2281682"><ele>1090.0</ele><time>2026-05-01T10:06:19.617Z</time></trkpt><trkpt lat="44.8535199" lon="7.2282795"><ele>1090.0</ele><time>2026-05-01T10:06:20.615Z</time></trkpt><trkpt lat="44.8534137" lon="7.2284383"><ele>1090.0</ele><time>2026-05-01T10:06:21.616Z</time></trkpt><trkpt lat="44.8532921" lon="7.2286057"><ele>1088.0</ele><time>2026-05-01T10:06:22.615Z</time></trkpt><trkpt lat="44.8531822" lon="7.2287607"><ele>1086.0</ele><time>2026-05-01T10:06:23.615Z</time></trkpt><trkpt lat="44.8530664" lon="7.228898"><ele>1084.0</ele><time>2026-05-01T10:06:24.615Z</time></trkpt><trkpt lat="44.8529295" lon="7.2290226"><ele>1084.0</ele><time>2026-05-01T10:06:25.615Z</time></trkpt><trkpt lat="44.8527814" lon="7.2291384"><ele>1084.0</ele><time>2026-05-01T10:06:26.614Z</time></trkpt><trkpt lat="44.8526494" lon="7.229252"><ele>1084.0</ele><time>2026-05-01T10:06:27.615Z</time></trkpt><trkpt lat="44.8525204" lon="7.2293359"><ele>1079.5</ele><time>2026-05-01T10:06:28.616Z</time></trkpt><trkpt lat="44.8524092" lon="7.2294043"><ele>1075.0</ele><time>2026-05-01T10:06:29.615Z</time></trkpt><trkpt lat="44.852307" lon="7.2294705"><ele>1070.5</ele><time>2026-05-01T10:06:30.616Z</time></trkpt><trkpt lat="44.8522132" lon="7.2295459"><ele>1066.0</ele><time>2026-05-01T10:06:31.615Z</time></trkpt><trkpt lat="44.8521282" lon="7.2296414"><ele>1066.0</ele><time>2026-05-01T10:06:32.615Z</time></trkpt><trkpt lat="44.8520547" lon="7.2297566"><ele>1066.0</ele><time>2026-05-01T10:06:33.615Z</time></trkpt><trkpt lat="44.8519974" lon="7.2298994"><ele>1066.0</ele><time>2026-05-01T10:06:34.615Z</time></trkpt><trkpt lat="44.8519476" lon="7.2300602"><ele>1066.0</ele><time>2026-05-01T10:06:35.617Z</time></trkpt><trkpt lat="44.8518993" lon="7.2302407"><ele>1066.2</ele><time>2026-05-01T10:06:36.616Z</time></trkpt><trkpt lat="44.8518542" lon="7.2304153"><ele>1066.3999999999999</ele><time>2026-05-01T10:06:37.616Z</time></trkpt><trkpt lat="44.8518089" lon="7.2305728"><ele>1066.6</ele><time>2026-05-01T10:06:38.614Z</time></trkpt><trkpt lat="44.8517736" lon="7.2306904"><ele>1066.8</ele><time>2026-05-01T10:06:39.616Z</time></trkpt><trkpt lat="44.8517546" lon="7.2308239"><ele>1067.0</ele><time>2026-05-01T10:06:40.615Z</time></trkpt><trkpt lat="44.8517705" lon="7.2309553"><ele>1067.0</ele><time>2026-05-01T10:06:41.615Z</time></trkpt><trkpt lat="44.851797" lon="7.2310784"><ele>1067.0</ele><time>2026-05-01T10:06:42.615Z</time></trkpt><trkpt lat="44.8518087" lon="7.23118"><ele>1067.0</ele><time>2026-05-01T10:06:43.616Z</time></trkpt><trkpt lat="44.8517516" lon="7.2313229"><ele>1067.0</ele><time>2026-05-01T10:06:45.614Z</time></trkpt><trkpt lat="44.8516786" lon="7.2313596"><ele>1067.0</ele><time>2026-05-01T10:06:46.614Z</time></trkpt><trkpt lat="44.8515896" lon="7.231384"><ele>1067.0</ele><time>2026-05-01T10:06:47.615Z</time></trkpt><trkpt lat="44.8514986" lon="7.2314391"><ele>1070.25</ele><time>2026-05-01T10:06:48.616Z</time></trkpt><trkpt lat="44.8514016" lon="7.2315244"><ele>1073.5</ele><time>2026-05-01T10:06:49.616Z</time></trkpt><trkpt lat="44.851286" lon="7.2315894"><ele>1076.75</ele><time>2026-05-01T10:06:50.617Z</time></trkpt><trkpt lat="44.8511637" lon="7.2316284"><ele>1080.0</ele><time>2026-05-01T10:06:51.617Z</time></trkpt><trkpt lat="44.8510544" lon="7.2316492"><ele>1078.25</ele><time>2026-05-01T10:06:52.616Z</time></trkpt><trkpt lat="44.8509529" lon="7.2316476"><ele>1076.5</ele><time>2026-05-01T10:06:53.616Z</time></trkpt><trkpt lat="44.850836" lon="7.2316194"><ele>1074.75</ele><time>2026-05-01T10:06:54.615Z</time></trkpt><trkpt lat="44.8507148" lon="7.2315744"><ele>1073.0</ele><time>2026-05-01T10:06:55.615Z</time></trkpt><trkpt lat="44.8506006" lon="7.231534"><ele>1073.0</ele><time>2026-05-01T10:06:56.616Z</time></trkpt><trkpt lat="44.8504833" lon="7.2315059"><ele>1073.0</ele><time>2026-05-01T10:06:57.615Z</time></trkpt><trkpt lat="44.8503534" lon="7.2314803"><ele>1073.0</ele><time>2026-05-01T10:06:58.615Z</time></trkpt><trkpt lat="44.8502088" lon="7.2314655"><ele>1073.0</ele><time>2026-05-01T10:06:59.615Z</time></trkpt><trkpt lat="44.8500647" lon="7.2314641"><ele>1073.75</ele><time>2026-05-01T10:07:00.616Z</time></trkpt><trkpt lat="44.8499315" lon="7.231466"><ele>1074.5</ele><time>2026-05-01T10:07:01.615Z</time></trkpt><trkpt lat="44.8498054" lon="7.2314726"><ele>1075.25</ele><time>2026-05-01T10:07:02.615Z</time></trkpt><trkpt lat="44.8496864" lon="7.2314763"><ele>1076.0</ele><time>2026-05-01T10:07:03.616Z</time></trkpt><trkpt lat="44.8495767" lon="7.2314935"><ele>1076.0</ele><time>2026-05-01T10:07:04.615Z</time></trkpt><trkpt lat="44.8494694" lon="7.2315434"><ele>1076.0</ele><time>2026-05-01T10:07:05.615Z</time></trkpt><trkpt lat="44.8493804" lon="7.2316177"><ele>1076.0</ele><time>2026-05-01T10:07:06.616Z</time></trkpt><trkpt lat="44.8493022" lon="7.2317169"><ele>1076.0</ele><time>2026-05-01T10:07:07.615Z</time></trkpt><trkpt lat="44.8492383" lon="7.2318452"><ele>1076.0</ele><time>2026-05-01T10:07:08.615Z</time></trkpt><trkpt lat="44.8491921" lon="7.2319868"><ele>1073.5</ele><time>2026-05-01T10:07:09.615Z</time></trkpt><trkpt lat="44.8491694" lon="7.2321432"><ele>1071.0</ele><time>2026-05-01T10:07:10.615Z</time></trkpt><trkpt lat="44.8491655" lon="7.2323283"><ele>1068.5</ele><time>2026-05-01T10:07:11.614Z</time></trkpt><trkpt lat="44.8491594" lon="7.2325346"><ele>1066.0</ele><time>2026-05-01T10:07:12.616Z</time></trkpt><trkpt lat="44.8491431" lon="7.232755"><ele>1066.0</ele><time>2026-05-01T10:07:13.616Z</time></trkpt><trkpt lat="44.8491233" lon="7.232963"><ele>1066.0</ele><time>2026-05-01T10:07:14.616Z</time></trkpt><trkpt lat="44.8491112" lon="7.2331643"><ele>1066.0</ele><time>2026-05-01T10:07:15.616Z</time></trkpt><trkpt lat="44.8491162" lon="7.2333489"><ele>1066.0</ele><time>2026-05-01T10:07:16.614Z</time></trkpt><trkpt lat="44.8491194" lon="7.233526"><ele>1066.75</ele><time>2026-05-01T10:07:17.615Z</time></trkpt><trkpt lat="44.8491086" lon="7.2336924"><ele>1067.5</ele><time>2026-05-01T10:07:18.615Z</time></trkpt><trkpt lat="44.8490852" lon="7.233858"><ele>1068.25</ele><time>2026-05-01T10:07:19.616Z</time></trkpt><trkpt lat="44.8490633" lon="7.234016"><ele>1069.0</ele><time>2026-05-01T10:07:20.615Z</time></trkpt><trkpt lat="44.8490462" lon="7.2341751"><ele>1070.2</ele><time>2026-05-01T10:07:21.614Z</time></trkpt><trkpt lat="44.8490214" lon="7.2343229"><ele>1071.4</ele><time>2026-05-01T10:07:22.615Z</time></trkpt><trkpt lat="44.8490008" lon="7.234462"><ele>1072.6</ele><time>2026-05-01T10:07:23.615Z</time></trkpt><trkpt lat="44.8489777" lon="7.2345948"><ele>1073.8</ele><time>2026-05-01T10:07:24.614Z</time></trkpt><trkpt lat="44.8489672" lon="7.2347186"><ele>1075.0</ele><time>2026-05-01T10:07:25.615Z</time></trkpt><trkpt lat="44.8489627" lon="7.2348436"><ele>1075.2</ele><time>2026-05-01T10:07:26.616Z</time></trkpt><trkpt lat="44.8490336" lon="7.2349693"><ele>1075.4</ele><time>2026-05-01T10:07:27.615Z</time></trkpt><trkpt lat="44.8490928" lon="7.2350862"><ele>1075.6</ele><time>2026-05-01T10:07:28.615Z</time></trkpt><trkpt lat="44.8491479" lon="7.2351952"><ele>1075.8</ele><time>2026-05-01T10:07:29.614Z</time></trkpt><trkpt lat="44.8491825" lon="7.2353043"><ele>1076.0</ele><time>2026-05-01T10:07:30.615Z</time></trkpt><trkpt lat="44.8491817" lon="7.2354131"><ele>1076.0</ele><time>2026-05-01T10:07:31.615Z</time></trkpt><trkpt lat="44.8491418" lon="7.235512"><ele>1076.0</ele><time>2026-05-01T10:07:32.616Z</time></trkpt><trkpt lat="44.849067" lon="7.2355932"><ele>1076.0</ele><time>2026-05-01T10:07:33.615Z</time></trkpt><trkpt lat="44.8489722" lon="7.2356774"><ele>1076.0</ele><time>2026-05-01T10:07:34.615Z</time></trkpt><trkpt lat="44.8488937" lon="7.235761"><ele>1076.0</ele><time>2026-05-01T10:07:35.616Z</time></trkpt><trkpt lat="44.8488214" lon="7.2358526"><ele>1075.5</ele><time>2026-05-01T10:07:36.616Z</time></trkpt><trkpt lat="44.8487538" lon="7.2359578"><ele>1075.0</ele><time>2026-05-01T10:07:37.615Z</time></trkpt><trkpt lat="44.8486965" lon="7.2360576"><ele>1074.5</ele><time>2026-05-01T10:07:38.615Z</time></trkpt><trkpt lat="44.848653" lon="7.2361486"><ele>1074.0</ele><time>2026-05-01T10:07:39.615Z</time></trkpt><trkpt lat="44.8486046" lon="7.2362417"><ele>1073.5</ele><time>2026-05-01T10:07:40.616Z</time></trkpt><trkpt lat="44.8485862" lon="7.2363509"><ele>1073.0</ele><time>2026-05-01T10:07:41.614Z</time></trkpt><trkpt lat="44.8485781" lon="7.2364899"><ele>1075.8</ele><time>2026-05-01T10:07:42.617Z</time></trkpt><trkpt lat="44.8485682" lon="7.2366425"><ele>1078.6</ele><time>2026-05-01T10:07:43.613Z</time></trkpt><trkpt lat="44.8485533" lon="7.2367825"><ele>1081.4</ele><time>2026-05-01T10:07:44.615Z</time></trkpt><trkpt lat="44.8485055" lon="7.2368917"><ele>1084.2</ele><time>2026-05-01T10:07:45.616Z</time></trkpt><trkpt lat="44.8484362" lon="7.2369639"><ele>1087.0</ele><time>2026-05-01T10:07:46.616Z</time></trkpt><trkpt lat="44.8483559" lon="7.2370186"><ele>1082.4</ele><time>2026-05-01T10:07:47.615Z</time></trkpt><trkpt lat="44.8482507" lon="7.2370504"><ele>1077.8000000000002</ele><time>2026-05-01T10:07:48.616Z</time></trkpt><trkpt lat="44.8481588" lon="7.2370878"><ele>1073.2</ele><time>2026-05-01T10:07:49.615Z</time></trkpt><trkpt lat="44.8480663" lon="7.2371273"><ele>1068.6000000000001</ele><time>2026-05-01T10:07:50.615Z</time></trkpt><trkpt lat="44.8479843" lon="7.2371981"><ele>1064.0</ele><time>2026-05-01T10:07:51.614Z</time></trkpt><trkpt lat="44.8479036" lon="7.2373116"><ele>1064.0</ele><time>2026-05-01T10:07:52.615Z</time></trkpt><trkpt lat="44.8478181" lon="7.237455"><ele>1064.0</ele><time>2026-05-01T10:07:53.614Z</time></trkpt><trkpt lat="44.8477256" lon="7.2375932"><ele>1064.0</ele><time>2026-05-01T10:07:54.615Z</time></trkpt><trkpt lat="44.8476254" lon="7.237736"><ele>1064.0</ele><time>2026-05-01T10:07:55.616Z</time></trkpt><trkpt lat="44.8475173" lon="7.2378894"><ele>1058.25</ele><time>2026-05-01T10:07:56.615Z</time></trkpt><trkpt lat="44.8474125" lon="7.2380463"><ele>1052.5</ele><time>2026-05-01T10:07:57.614Z</time></trkpt><trkpt lat="44.8473173" lon="7.238194"><ele>1046.75</ele><time>2026-05-01T10:07:58.615Z</time></trkpt><trkpt lat="44.8472344" lon="7.2383291"><ele>1041.0</ele><time>2026-05-01T10:07:59.615Z</time></trkpt><trkpt lat="44.8471593" lon="7.2384511"><ele>1041.0</ele><time>2026-05-01T10:08:00.616Z</time></trkpt><trkpt lat="44.8470948" lon="7.2385627"><ele>1041.0</ele><time>2026-05-01T10:08:01.615Z</time></trkpt><trkpt lat="44.8470388" lon="7.2386935"><ele>1041.0</ele><time>2026-05-01T10:08:02.617Z</time></trkpt><trkpt lat="44.8469824" lon="7.2388164"><ele>1041.0</ele><time>2026-05-01T10:08:03.615Z</time></trkpt><trkpt lat="44.8469619" lon="7.2389513"><ele>1041.0</ele><time>2026-05-01T10:08:04.616Z</time></trkpt><trkpt lat="44.8469415" lon="7.2390743"><ele>1041.0</ele><time>2026-05-01T10:08:05.62Z</time></trkpt><trkpt lat="44.8469481" lon="7.2392035"><ele>1041.0</ele><time>2026-05-01T10:08:06.615Z</time></trkpt><trkpt lat="44.8469837" lon="7.2393358"><ele>1041.0</ele><time>2026-05-01T10:08:07.615Z</time></trkpt><trkpt lat="44.8470402" lon="7.23947"><ele>1041.0</ele><time>2026-05-01T10:08:08.615Z</time></trkpt><trkpt lat="44.8471019" lon="7.2396079"><ele>1041.0</ele><time>2026-05-01T10:08:09.615Z</time></trkpt><trkpt lat="44.8471647" lon="7.2397389"><ele>1038.6666666666667</ele><time>2026-05-01T10:08:10.615Z</time></trkpt><trkpt lat="44.847232" lon="7.2398445"><ele>1036.3333333333333</ele><time>2026-05-01T10:08:11.616Z</time></trkpt><trkpt lat="44.8472876" lon="7.2399199"><ele>1034.0</ele><time>2026-05-01T10:08:12.615Z</time></trkpt><trkpt lat="44.8473539" lon="7.2399782"><ele>1031.6666666666665</ele><time>2026-05-01T10:08:13.615Z</time></trkpt><trkpt lat="44.8474326" lon="7.2400098"><ele>1029.3333333333333</ele><time>2026-05-01T10:08:14.613Z</time></trkpt><trkpt lat="44.84751" lon="7.2400178"><ele>1027.0</ele><time>2026-05-01T10:08:15.615Z</time></trkpt><trkpt lat="44.8475758" lon="7.2400018"><ele>1027.0</ele><time>2026-05-01T10:08:16.614Z</time></trkpt><trkpt lat="44.8476733" lon="7.2400268"><ele>1027.0</ele><time>2026-05-01T10:08:18.615Z</time></trkpt><trkpt lat="44.8476752" lon="7.2401353"><ele>1027.0</ele><time>2026-05-01T10:08:20.614Z</time></trkpt><trkpt lat="44.8475687" lon="7.2401588"><ele>1027.0</ele><time>2026-05-01T10:08:22.614Z</time></trkpt><trkpt lat="44.8474809" lon="7.2401315"><ele>1027.0</ele><time>2026-05-01T10:08:23.616Z</time></trkpt><trkpt lat="44.8473683" lon="7.2400976"><ele>1027.0</ele><time>2026-05-01T10:08:24.615Z</time></trkpt><trkpt lat="44.8472424" lon="7.2400593"><ele>1027.0</ele><time>2026-05-01T10:08:25.616Z</time></trkpt><trkpt lat="44.8471258" lon="7.2400185"><ele>1027.0</ele><time>2026-05-01T10:08:26.615Z</time></trkpt><trkpt lat="44.8470239" lon="7.2399575"><ele>1027.0</ele><time>2026-05-01T10:08:27.619Z</time></trkpt><trkpt lat="44.8469219" lon="7.2399238"><ele>1027.0</ele><time>2026-05-01T10:08:28.617Z</time></trkpt><trkpt lat="44.8468187" lon="7.2398972"><ele>1027.0</ele><time>2026-05-01T10:08:29.615Z</time></trkpt><trkpt lat="44.8467152" lon="7.2398796"><ele>1027.0</ele><time>2026-05-01T10:08:30.615Z</time></trkpt><trkpt lat="44.8465995" lon="7.239889"><ele>1027.0</ele><time>2026-05-01T10:08:31.614Z</time></trkpt><trkpt lat="44.8464707" lon="7.2399171"><ele>1024.0</ele><time>2026-05-01T10:08:32.616Z</time></trkpt><trkpt lat="44.8463525" lon="7.2399433"><ele>1021.0</ele><time>2026-05-01T10:08:33.615Z</time></trkpt><trkpt lat="44.8462374" lon="7.2399722"><ele>1018.0</ele><time>2026-05-01T10:08:34.614Z</time></trkpt><trkpt lat="44.8461311" lon="7.2400206"><ele>1015.0</ele><time>2026-05-01T10:08:35.614Z</time></trkpt><trkpt lat="44.8460222" lon="7.2400484"><ele>1012.75</ele><time>2026-05-01T10:08:36.615Z</time></trkpt><trkpt lat="44.8459015" lon="7.2400666"><ele>1010.5</ele><time>2026-05-01T10:08:37.615Z</time></trkpt><trkpt lat="44.8457724" lon="7.2400569"><ele>1008.25</ele><time>2026-05-01T10:08:38.618Z</time></trkpt><trkpt lat="44.845648" lon="7.2400297"><ele>1006.0</ele><time>2026-05-01T10:08:39.615Z</time></trkpt><trkpt lat="44.8455403" lon="7.2399911"><ele>1006.0</ele><time>2026-05-01T10:08:40.615Z</time></trkpt><trkpt lat="44.8454377" lon="7.2399331"><ele>1005.9999999999999</ele><time>2026-05-01T10:08:41.619Z</time></trkpt><trkpt lat="44.8453483" lon="7.2398431"><ele>1005.9999999999999</ele><time>2026-05-01T10:08:42.615Z</time></trkpt><trkpt lat="44.8452784" lon="7.2397219"><ele>1006.0</ele><time>2026-05-01T10:08:43.614Z</time></trkpt><trkpt lat="44.8452243" lon="7.2395888"><ele>1006.0</ele><time>2026-05-01T10:08:44.615Z</time></trkpt><trkpt lat="44.8451795" lon="7.2394721"><ele>1006.1666666666666</ele><time>2026-05-01T10:08:45.614Z</time></trkpt><trkpt lat="44.8451296" lon="7.2393762"><ele>1006.3333333333333</ele><time>2026-05-01T10:08:46.615Z</time></trkpt><trkpt lat="44.8450738" lon="7.2392998"><ele>1006.5</ele><time>2026-05-01T10:08:47.615Z</time></trkpt><trkpt lat="44.8450114" lon="7.2392579"><ele>1006.6666666666667</ele><time>2026-05-01T10:08:48.614Z</time></trkpt><trkpt lat="44.8449389" lon="7.2392464"><ele>1006.8333333333334</ele><time>2026-05-01T10:08:49.615Z</time></trkpt><trkpt lat="44.844862" lon="7.2392623"><ele>1007.0</ele><time>2026-05-01T10:08:50.616Z</time></trkpt><trkpt lat="44.8447861" lon="7.239295"><ele>1005.0</ele><time>2026-05-01T10:08:51.615Z</time></trkpt><trkpt lat="44.8447138" lon="7.2393537"><ele>1003.0</ele><time>2026-05-01T10:08:52.617Z</time></trkpt><trkpt lat="44.8446438" lon="7.239435"><ele>1001.0</ele><time>2026-05-01T10:08:53.616Z</time></trkpt><trkpt lat="44.8445755" lon="7.2395379"><ele>999.0</ele><time>2026-05-01T10:08:54.618Z</time></trkpt><trkpt lat="44.8445012" lon="7.2396697"><ele>997.0</ele><time>2026-05-01T10:08:55.617Z</time></trkpt><trkpt lat="44.8444264" lon="7.2398283"><ele>996.75</ele><time>2026-05-01T10:08:56.616Z</time></trkpt><trkpt lat="44.8443682" lon="7.2399895"><ele>996.5</ele><time>2026-05-01T10:08:57.617Z</time></trkpt><trkpt lat="44.8443241" lon="7.2401495"><ele>996.25</ele><time>2026-05-01T10:08:58.617Z</time></trkpt><trkpt lat="44.844294" lon="7.2403058"><ele>996.0</ele><time>2026-05-01T10:08:59.616Z</time></trkpt><trkpt lat="44.8442653" lon="7.2404588"><ele>994.4</ele><time>2026-05-01T10:09:00.616Z</time></trkpt><trkpt lat="44.8442334" lon="7.2406116"><ele>992.8</ele><time>2026-05-01T10:09:01.617Z</time></trkpt><trkpt lat="44.8442018" lon="7.2407473"><ele>991.1999999999999</ele><time>2026-05-01T10:09:02.616Z</time></trkpt><trkpt lat="44.8441586" lon="7.24086"><ele>989.5999999999999</ele><time>2026-05-01T10:09:03.616Z</time></trkpt><trkpt lat="44.8440877" lon="7.2409594"><ele>988.0</ele><time>2026-05-01T10:09:04.616Z</time></trkpt><trkpt lat="44.8439839" lon="7.2410494"><ele>986.0</ele><time>2026-05-01T10:09:05.616Z</time></trkpt><trkpt lat="44.8438833" lon="7.2411346"><ele>984.0</ele><time>2026-05-01T10:09:06.616Z</time></trkpt><trkpt lat="44.8437714" lon="7.2412178"><ele>982.0</ele><time>2026-05-01T10:09:07.615Z</time></trkpt><trkpt lat="44.8436513" lon="7.2412942"><ele>980.0</ele><time>2026-05-01T10:09:08.618Z</time></trkpt><trkpt lat="44.8435168" lon="7.2413712"><ele>976.6666666666667</ele><time>2026-05-01T10:09:09.62Z</time></trkpt><trkpt lat="44.8433632" lon="7.2414607"><ele>973.3333333333333</ele><time>2026-05-01T10:09:10.615Z</time></trkpt><trkpt lat="44.8432155" lon="7.2415517"><ele>970.0</ele><time>2026-05-01T10:09:11.616Z</time></trkpt><trkpt lat="44.8430738" lon="7.2416427"><ele>969.5</ele><time>2026-05-01T10:09:12.618Z</time></trkpt><trkpt lat="44.8429441" lon="7.2417506"><ele>969.0</ele><time>2026-05-01T10:09:13.618Z</time></trkpt><trkpt lat="44.8428328" lon="7.241846"><ele>968.5</ele><time>2026-05-01T10:09:14.617Z</time></trkpt><trkpt lat="44.8427271" lon="7.2419185"><ele>968.0</ele><time>2026-05-01T10:09:15.617Z</time></trkpt><trkpt lat="44.842615" lon="7.2419607"><ele>966.5</ele><time>2026-05-01T10:09:16.616Z</time></trkpt><trkpt lat="44.8424914" lon="7.2419681"><ele>965.0</ele><time>2026-05-01T10:09:17.619Z</time></trkpt><trkpt lat="44.8423512" lon="7.2419691"><ele>963.5</ele><time>2026-05-01T10:09:18.615Z</time></trkpt><trkpt lat="44.8422192" lon="7.2419649"><ele>962.0</ele><time>2026-05-01T10:09:19.617Z</time></trkpt><trkpt lat="44.8420989" lon="7.2419535"><ele>962.0</ele><time>2026-05-01T10:09:20.619Z</time></trkpt><trkpt lat="44.8419898" lon="7.2419256"><ele>962.0</ele><time>2026-05-01T10:09:21.617Z</time></trkpt><trkpt lat="44.8418919" lon="7.2418813"><ele>962.0</ele><time>2026-05-01T10:09:22.617Z</time></trkpt><trkpt lat="44.8418116" lon="7.2418144"><ele>962.0</ele><time>2026-05-01T10:09:23.616Z</time></trkpt><trkpt lat="44.8417459" lon="7.2417263"><ele>962.0</ele><time>2026-05-01T10:09:24.617Z</time></trkpt><trkpt lat="44.8416938" lon="7.241624"><ele>960.6</ele><time>2026-05-01T10:09:25.617Z</time></trkpt><trkpt lat="44.8416681" lon="7.2415057"><ele>959.2</ele><time>2026-05-01T10:09:26.62Z</time></trkpt><trkpt lat="44.8416628" lon="7.2413734"><ele>957.8</ele><time>2026-05-01T10:09:27.616Z</time></trkpt><trkpt lat="44.8416709" lon="7.2412281"><ele>956.4</ele><time>2026-05-01T10:09:28.617Z</time></trkpt><trkpt lat="44.8416903" lon="7.2410834"><ele>955.0</ele><time>2026-05-01T10:09:29.617Z</time></trkpt><trkpt lat="44.8417144" lon="7.2409579"><ele>954.4999999999999</ele><time>2026-05-01T10:09:30.617Z</time></trkpt><trkpt lat="44.8417442" lon="7.2408471"><ele>954.0</ele><time>2026-05-01T10:09:31.617Z</time></trkpt><trkpt lat="44.8417985" lon="7.2407593"><ele>953.5</ele><time>2026-05-01T10:09:32.616Z</time></trkpt><trkpt lat="44.8418564" lon="7.2407044"><ele>953.0</ele><time>2026-05-01T10:09:33.617Z</time></trkpt><trkpt lat="44.8419275" lon="7.2406713"><ele>952.4999999999999</ele><time>2026-05-01T10:09:34.616Z</time></trkpt><trkpt lat="44.8420122" lon="7.2406656"><ele>952.0</ele><time>2026-05-01T10:09:35.616Z</time></trkpt><trkpt lat="44.8420922" lon="7.2406862"><ele>951.9999999999999</ele><time>2026-05-01T10:09:36.615Z</time></trkpt><trkpt lat="44.8421707" lon="7.2407305"><ele>952.0</ele><time>2026-05-01T10:09:37.616Z</time></trkpt><trkpt lat="44.8422577" lon="7.2407711"><ele>952.0</ele><time>2026-05-01T10:09:38.616Z</time></trkpt><trkpt lat="44.8423318" lon="7.2407688"><ele>952.0</ele><time>2026-05-01T10:09:39.617Z</time></trkpt><trkpt lat="44.8424004" lon="7.2407197"><ele>951.9999999999999</ele><time>2026-05-01T10:09:40.616Z</time></trkpt><trkpt lat="44.8424507" lon="7.2406156"><ele>952.0</ele><time>2026-05-01T10:09:41.617Z</time></trkpt><trkpt lat="44.8425076" lon="7.2405035"><ele>949.8</ele><time>2026-05-01T10:09:42.615Z</time></trkpt><trkpt lat="44.8425689" lon="7.2403955"><ele>947.6</ele><time>2026-05-01T10:09:43.615Z</time></trkpt><trkpt lat="44.842623" lon="7.2402798"><ele>945.3999999999999</ele><time>2026-05-01T10:09:44.616Z</time></trkpt><trkpt lat="44.8426321" lon="7.2401199"><ele>943.1999999999999</ele><time>2026-05-01T10:09:45.616Z</time></trkpt><trkpt lat="44.8426846" lon="7.2399755"><ele>941.0</ele><time>2026-05-01T10:09:46.617Z</time></trkpt><trkpt lat="44.842729" lon="7.2398351"><ele>945.5</ele><time>2026-05-01T10:09:47.615Z</time></trkpt><trkpt lat="44.8427691" lon="7.2396905"><ele>950.0</ele><time>2026-05-01T10:09:48.617Z</time></trkpt><trkpt lat="44.8427693" lon="7.2395114"><ele>954.5</ele><time>2026-05-01T10:09:49.617Z</time></trkpt><trkpt lat="44.8427681" lon="7.2393219"><ele>959.0</ele><time>2026-05-01T10:09:50.615Z</time></trkpt><trkpt lat="44.8427647" lon="7.2391365"><ele>956.5</ele><time>2026-05-01T10:09:51.617Z</time></trkpt><trkpt lat="44.8427669" lon="7.2389659"><ele>954.0</ele><time>2026-05-01T10:09:52.615Z</time></trkpt><trkpt lat="44.8427614" lon="7.2388013"><ele>951.5</ele><time>2026-05-01T10:09:53.618Z</time></trkpt><trkpt lat="44.8427576" lon="7.2386385"><ele>949.0</ele><time>2026-05-01T10:09:54.617Z</time></trkpt><trkpt lat="44.8427635" lon="7.2384807"><ele>949.0</ele><time>2026-05-01T10:09:55.615Z</time></trkpt><trkpt lat="44.8427953" lon="7.2383214"><ele>949.0</ele><time>2026-05-01T10:09:56.615Z</time></trkpt><trkpt lat="44.8428423" lon="7.2381537"><ele>949.0</ele><time>2026-05-01T10:09:57.615Z</time></trkpt><trkpt lat="44.8428926" lon="7.237987"><ele>949.0</ele><time>2026-05-01T10:09:58.615Z</time></trkpt><trkpt lat="44.842938" lon="7.2378437"><ele>945.5</ele><time>2026-05-01T10:09:59.616Z</time></trkpt><trkpt lat="44.8429644" lon="7.2377006"><ele>942.0</ele><time>2026-05-01T10:10:00.616Z</time></trkpt><trkpt lat="44.8429896" lon="7.237549"><ele>938.5</ele><time>2026-05-01T10:10:01.617Z</time></trkpt><trkpt lat="44.8429874" lon="7.2373831"><ele>935.0</ele><time>2026-05-01T10:10:02.616Z</time></trkpt><trkpt lat="44.8429629" lon="7.2372132"><ele>932.8</ele><time>2026-05-01T10:10:03.616Z</time></trkpt><trkpt lat="44.8429391" lon="7.2370554"><ele>930.6</ele><time>2026-05-01T10:10:04.617Z</time></trkpt><trkpt lat="44.8429268" lon="7.2369223"><ele>928.4000000000001</ele><time>2026-05-01T10:10:05.616Z</time></trkpt><trkpt lat="44.8429458" lon="7.2368059"><ele>926.2</ele><time>2026-05-01T10:10:06.615Z</time></trkpt><trkpt lat="44.8429762" lon="7.2367021"><ele>924.0</ele><time>2026-05-01T10:10:07.616Z</time></trkpt><trkpt lat="44.8430215" lon="7.2366125"><ele>924.0</ele><time>2026-05-01T10:10:08.616Z</time></trkpt><trkpt lat="44.8430866" lon="7.2365358"><ele>924.0000000000001</ele><time>2026-05-01T10:10:09.618Z</time></trkpt><trkpt lat="44.8431694" lon="7.2364735"><ele>924.0000000000001</ele><time>2026-05-01T10:10:10.616Z</time></trkpt><trkpt lat="44.8432651" lon="7.2364121"><ele>924.0</ele><time>2026-05-01T10:10:11.616Z</time></trkpt><trkpt lat="44.8433611" lon="7.236349"><ele>924.0</ele><time>2026-05-01T10:10:12.616Z</time></trkpt><trkpt lat="44.8434511" lon="7.236268"><ele>926.2</ele><time>2026-05-01T10:10:13.617Z</time></trkpt><trkpt lat="44.8435287" lon="7.2361766"><ele>928.4000000000001</ele><time>2026-05-01T10:10:14.615Z</time></trkpt><trkpt lat="44.843598" lon="7.236088"><ele>930.6</ele><time>2026-05-01T10:10:15.616Z</time></trkpt><trkpt lat="44.8435971" lon="7.2359488"><ele>932.8</ele><time>2026-05-01T10:10:16.617Z</time></trkpt><trkpt lat="44.8435825" lon="7.2358153"><ele>935.0</ele><time>2026-05-01T10:10:17.615Z</time></trkpt><trkpt lat="44.8435748" lon="7.235687"><ele>932.6</ele><time>2026-05-01T10:10:18.616Z</time></trkpt><trkpt lat="44.8435601" lon="7.2355703"><ele>930.2</ele><time>2026-05-01T10:10:19.616Z</time></trkpt><trkpt lat="44.8435651" lon="7.2354511"><ele>927.8</ele><time>2026-05-01T10:10:20.615Z</time></trkpt><trkpt lat="44.8435943" lon="7.2353301"><ele>925.4</ele><time>2026-05-01T10:10:21.616Z</time></trkpt><trkpt lat="44.8436452" lon="7.2351983"><ele>923.0</ele><time>2026-05-01T10:10:22.616Z</time></trkpt><trkpt lat="44.8437173" lon="7.2350715"><ele>923.0</ele><time>2026-05-01T10:10:23.615Z</time></trkpt><trkpt lat="44.84378" lon="7.2349244"><ele>923.0</ele><time>2026-05-01T10:10:24.616Z</time></trkpt><trkpt lat="44.8438114" lon="7.2347704"><ele>923.0</ele><time>2026-05-01T10:10:25.616Z</time></trkpt><trkpt lat="44.8438259" lon="7.2346222"><ele>923.0</ele><time>2026-05-01T10:10:26.617Z</time></trkpt><trkpt lat="44.8438405" lon="7.2344941"><ele>923.0</ele><time>2026-05-01T10:10:27.616Z</time></trkpt><trkpt lat="44.8438732" lon="7.2343765"><ele>920.5999999999999</ele><time>2026-05-01T10:10:28.616Z</time></trkpt><trkpt lat="44.8439242" lon="7.2342613"><ele>918.1999999999999</ele><time>2026-05-01T10:10:29.616Z</time></trkpt><trkpt lat="44.8439838" lon="7.2341633"><ele>915.8</ele><time>2026-05-01T10:10:30.615Z</time></trkpt><trkpt lat="44.8440614" lon="7.2340791"><ele>913.4</ele><time>2026-05-01T10:10:31.617Z</time></trkpt><trkpt lat="44.8441389" lon="7.2340037"><ele>911.0</ele><time>2026-05-01T10:10:32.615Z</time></trkpt><trkpt lat="44.8442062" lon="7.2339443"><ele>910.3333333333334</ele><time>2026-05-01T10:10:33.617Z</time></trkpt><trkpt lat="44.8442706" lon="7.2338953"><ele>909.6666666666667</ele><time>2026-05-01T10:10:34.616Z</time></trkpt><trkpt lat="44.8443409" lon="7.2338795"><ele>909.0</ele><time>2026-05-01T10:10:35.617Z</time></trkpt><trkpt lat="44.844412" lon="7.2339066"><ele>908.3333333333333</ele><time>2026-05-01T10:10:36.616Z</time></trkpt><trkpt lat="44.8444823" lon="7.2339659"><ele>907.6666666666666</ele><time>2026-05-01T10:10:37.617Z</time></trkpt><trkpt lat="44.8445562" lon="7.234018"><ele>907.0</ele><time>2026-05-01T10:10:38.62Z</time></trkpt><trkpt lat="44.8446315" lon="7.2340151"><ele>907.0</ele><time>2026-05-01T10:10:39.617Z</time></trkpt><trkpt lat="44.8446981" lon="7.2339619"><ele>907.0</ele><time>2026-05-01T10:10:40.616Z</time></trkpt><trkpt lat="44.8447437" lon="7.2338646"><ele>907.0</ele><time>2026-05-01T10:10:41.616Z</time></trkpt><trkpt lat="44.8447758" lon="7.2337366"><ele>907.0</ele><time>2026-05-01T10:10:42.617Z</time></trkpt><trkpt lat="44.8448248" lon="7.2335658"><ele>907.0</ele><time>2026-05-01T10:10:43.615Z</time></trkpt><trkpt lat="44.8448688" lon="7.2334071"><ele>907.0</ele><time>2026-05-01T10:10:44.617Z</time></trkpt><trkpt lat="44.8449125" lon="7.2332603"><ele>907.0</ele><time>2026-05-01T10:10:45.618Z</time></trkpt><trkpt lat="44.8449655" lon="7.2331209"><ele>907.0</ele><time>2026-05-01T10:10:46.617Z</time></trkpt><trkpt lat="44.8450263" lon="7.2329939"><ele>907.0</ele><time>2026-05-01T10:10:47.615Z</time></trkpt><trkpt lat="44.8450844" lon="7.2328884"><ele>907.0</ele><time>2026-05-01T10:10:48.617Z</time></trkpt><trkpt lat="44.8451684" lon="7.2327913"><ele>909.75</ele><time>2026-05-01T10:10:49.616Z</time></trkpt><trkpt lat="44.8452617" lon="7.2326913"><ele>912.5</ele><time>2026-05-01T10:10:50.617Z</time></trkpt><trkpt lat="44.8453638" lon="7.2325901"><ele>915.25</ele><time>2026-05-01T10:10:51.616Z</time></trkpt><trkpt lat="44.8454702" lon="7.2324996"><ele>918.0</ele><time>2026-05-01T10:10:52.618Z</time></trkpt><trkpt lat="44.8455587" lon="7.2324301"><ele>918.0</ele><time>2026-05-01T10:10:53.617Z</time></trkpt><trkpt lat="44.8456228" lon="7.2323635"><ele>918.0</ele><time>2026-05-01T10:10:54.617Z</time></trkpt><trkpt lat="44.8456616" lon="7.2322626"><ele>918.0</ele><time>2026-05-01T10:10:55.616Z</time></trkpt><trkpt lat="44.8456526" lon="7.2321208"><ele>918.0</ele><time>2026-05-01T10:10:56.616Z</time></trkpt><trkpt lat="44.8456283" lon="7.2319663"><ele>918.0</ele><time>2026-05-01T10:10:57.616Z</time></trkpt><trkpt lat="44.8455781" lon="7.2318022"><ele>917.25</ele><time>2026-05-01T10:10:58.616Z</time></trkpt><trkpt lat="44.8455212" lon="7.2316681"><ele>916.5</ele><time>2026-05-01T10:10:59.617Z</time></trkpt><trkpt lat="44.8454407" lon="7.2315517"><ele>915.75</ele><time>2026-05-01T10:11:00.616Z</time></trkpt><trkpt lat="44.8453422" lon="7.2314321"><ele>915.0</ele><time>2026-05-01T10:11:01.616Z</time></trkpt><trkpt lat="44.8452337" lon="7.2313205"><ele>911.25</ele><time>2026-05-01T10:11:02.616Z</time></trkpt><trkpt lat="44.845122" lon="7.2312175"><ele>907.5</ele><time>2026-05-01T10:11:03.615Z</time></trkpt><trkpt lat="44.8450103" lon="7.2311321"><ele>903.75</ele><time>2026-05-01T10:11:04.615Z</time></trkpt><trkpt lat="44.8449061" lon="7.231061"><ele>900.0</ele><time>2026-05-01T10:11:05.615Z</time></trkpt><trkpt lat="44.8448141" lon="7.2309965"><ele>900.0</ele><time>2026-05-01T10:11:06.615Z</time></trkpt><trkpt lat="44.8447421" lon="7.230915"><ele>900.0</ele><time>2026-05-01T10:11:07.616Z</time></trkpt><trkpt lat="44.8446907" lon="7.2308126"><ele>900.0</ele><time>2026-05-01T10:11:08.616Z</time></trkpt><trkpt lat="44.8446666" lon="7.2307013"><ele>900.0</ele><time>2026-05-01T10:11:09.616Z</time></trkpt><trkpt lat="44.8446677" lon="7.2305929"><ele>900.0</ele><time>2026-05-01T10:11:10.617Z</time></trkpt><trkpt lat="44.8446895" lon="7.2304882"><ele>900.0</ele><time>2026-05-01T10:11:11.615Z</time></trkpt><trkpt lat="44.8447341" lon="7.2303785"><ele>898.25</ele><time>2026-05-01T10:11:12.617Z</time></trkpt><trkpt lat="44.8447919" lon="7.2302504"><ele>896.5</ele><time>2026-05-01T10:11:13.617Z</time></trkpt><trkpt lat="44.8448624" lon="7.2301038"><ele>894.75</ele><time>2026-05-01T10:11:14.616Z</time></trkpt><trkpt lat="44.8449372" lon="7.2299494"><ele>893.0</ele><time>2026-05-01T10:11:15.616Z</time></trkpt><trkpt lat="44.8450141" lon="7.2298144"><ele>895.5</ele><time>2026-05-01T10:11:16.617Z</time></trkpt><trkpt lat="44.8450942" lon="7.2296757"><ele>898.0</ele><time>2026-05-01T10:11:17.616Z</time></trkpt><trkpt lat="44.8451693" lon="7.2295404"><ele>900.5</ele><time>2026-05-01T10:11:18.617Z</time></trkpt><trkpt lat="44.8452366" lon="7.2294009"><ele>903.0</ele><time>2026-05-01T10:11:19.617Z</time></trkpt><trkpt lat="44.8452895" lon="7.2292474"><ele>903.0</ele><time>2026-05-01T10:11:20.617Z</time></trkpt><trkpt lat="44.8453343" lon="7.2290853"><ele>903.0</ele><time>2026-05-01T10:11:21.616Z</time></trkpt><trkpt lat="44.8453817" lon="7.2289401"><ele>903.0</ele><time>2026-05-01T10:11:22.616Z</time></trkpt><trkpt lat="44.8454262" lon="7.2288192"><ele>903.0</ele><time>2026-05-01T10:11:23.616Z</time></trkpt><trkpt lat="44.8454572" lon="7.2287269"><ele>903.0</ele><time>2026-05-01T10:11:24.617Z</time></trkpt><trkpt lat="44.8454283" lon="7.2285637"><ele>900.8333333333334</ele><time>2026-05-01T10:11:26.617Z</time></trkpt><trkpt lat="44.8453961" lon="7.2284812"><ele>898.6666666666667</ele><time>2026-05-01T10:11:27.617Z</time></trkpt><trkpt lat="44.8453778" lon="7.2283917"><ele>896.5</ele><time>2026-05-01T10:11:28.617Z</time></trkpt><trkpt lat="44.8453798" lon="7.2282983"><ele>894.3333333333334</ele><time>2026-05-01T10:11:29.616Z</time></trkpt><trkpt lat="44.845414" lon="7.2281981"><ele>892.1666666666667</ele><time>2026-05-01T10:11:30.616Z</time></trkpt><trkpt lat="44.8454653" lon="7.2280951"><ele>890.0</ele><time>2026-05-01T10:11:31.615Z</time></trkpt><trkpt lat="44.84553" lon="7.2279959"><ele>886.8</ele><time>2026-05-01T10:11:32.618Z</time></trkpt><trkpt lat="44.8456172" lon="7.2279009"><ele>883.6</ele><time>2026-05-01T10:11:33.617Z</time></trkpt><trkpt lat="44.8457132" lon="7.2278051"><ele>880.4000000000001</ele><time>2026-05-01T10:11:34.617Z</time></trkpt><trkpt lat="44.8457984" lon="7.2277017"><ele>877.2</ele><time>2026-05-01T10:11:35.616Z</time></trkpt><trkpt lat="44.8458642" lon="7.2275816"><ele>874.0</ele><time>2026-05-01T10:11:36.616Z</time></trkpt><trkpt lat="44.8459366" lon="7.2274522"><ele>875.8000000000001</ele><time>2026-05-01T10:11:37.617Z</time></trkpt><trkpt lat="44.8459901" lon="7.2273206"><ele>877.6000000000001</ele><time>2026-05-01T10:11:38.616Z</time></trkpt><trkpt lat="44.8460368" lon="7.2271773"><ele>879.4</ele><time>2026-05-01T10:11:39.616Z</time></trkpt><trkpt lat="44.8460699" lon="7.2270273"><ele>881.2</ele><time>2026-05-01T10:11:40.618Z</time></trkpt><trkpt lat="44.8461061" lon="7.2269014"><ele>883.0</ele><time>2026-05-01T10:11:41.616Z</time></trkpt><trkpt lat="44.8461296" lon="7.2267702"><ele>882.9999999999999</ele><time>2026-05-01T10:11:42.617Z</time></trkpt><trkpt lat="44.8461507" lon="7.2266644"><ele>883.0</ele><time>2026-05-01T10:11:43.614Z</time></trkpt><trkpt lat="44.8461684" lon="7.2265719"><ele>883.0</ele><time>2026-05-01T10:11:44.616Z</time></trkpt><trkpt lat="44.8461227" lon="7.2264727"><ele>883.0</ele><time>2026-05-01T10:11:46.616Z</time></trkpt><trkpt lat="44.8460443" lon="7.2265622"><ele>882.9999999999999</ele><time>2026-05-01T10:11:48.616Z</time></trkpt><trkpt lat="44.8460059" lon="7.2266565"><ele>883.0</ele><time>2026-05-01T10:11:49.617Z</time></trkpt><trkpt lat="44.8459622" lon="7.2267447"><ele>879.7142857142858</ele><time>2026-05-01T10:11:50.616Z</time></trkpt><trkpt lat="44.8459074" lon="7.2268024"><ele>876.4285714285713</ele><time>2026-05-01T10:11:51.617Z</time></trkpt><trkpt lat="44.845842" lon="7.2268274"><ele>873.1428571428571</ele><time>2026-05-01T10:11:52.616Z</time></trkpt><trkpt lat="44.8457727" lon="7.2268015"><ele>869.8571428571429</ele><time>2026-05-01T10:11:53.622Z</time></trkpt><trkpt lat="44.845711" lon="7.2267439"><ele>866.5714285714287</ele><time>2026-05-01T10:11:54.616Z</time></trkpt><trkpt lat="44.845645" lon="7.2266799"><ele>863.2857142857142</ele><time>2026-05-01T10:11:55.615Z</time></trkpt><trkpt lat="44.8455717" lon="7.2266198"><ele>860.0</ele><time>2026-05-01T10:11:56.616Z</time></trkpt><trkpt lat="44.845492" lon="7.2265978"><ele>860.0</ele><time>2026-05-01T10:11:57.616Z</time></trkpt><trkpt lat="44.8454072" lon="7.2266427"><ele>860.0</ele><time>2026-05-01T10:11:58.616Z</time></trkpt><trkpt lat="44.8453126" lon="7.2266966"><ele>860.0</ele><time>2026-05-01T10:11:59.617Z</time></trkpt><trkpt lat="44.8452297" lon="7.2267709"><ele>860.0</ele><time>2026-05-01T10:12:00.617Z</time></trkpt><trkpt lat="44.8451472" lon="7.2268792"><ele>860.0</ele><time>2026-05-01T10:12:01.618Z</time></trkpt><trkpt lat="44.8450565" lon="7.2270147"><ele>859.25</ele><time>2026-05-01T10:12:02.618Z</time></trkpt><trkpt lat="44.8449664" lon="7.2271306"><ele>858.5</ele><time>2026-05-01T10:12:03.617Z</time></trkpt><trkpt lat="44.8448705" lon="7.2272295"><ele>857.75</ele><time>2026-05-01T10:12:04.619Z</time></trkpt><trkpt lat="44.8447758" lon="7.2273098"><ele>857.0</ele><time>2026-05-01T10:12:05.615Z</time></trkpt><trkpt lat="44.8446797" lon="7.2273887"><ele>857.0</ele><time>2026-05-01T10:12:06.617Z</time></trkpt><trkpt lat="44.8445855" lon="7.2274733"><ele>857.0</ele><time>2026-05-01T10:12:07.616Z</time></trkpt><trkpt lat="44.8444952" lon="7.2275453"><ele>857.0</ele><time>2026-05-01T10:12:08.619Z</time></trkpt><trkpt lat="44.8444158" lon="7.2276153"><ele>857.0</ele><time>2026-05-01T10:12:09.618Z</time></trkpt><trkpt lat="44.8443447" lon="7.2276918"><ele>857.0</ele><time>2026-05-01T10:12:10.617Z</time></trkpt><trkpt lat="44.844292" lon="7.2277961"><ele>853.2</ele><time>2026-05-01T10:12:11.617Z</time></trkpt><trkpt lat="44.8442507" lon="7.2279281"><ele>849.4000000000001</ele><time>2026-05-01T10:12:12.617Z</time></trkpt><trkpt lat="44.8442106" lon="7.2280581"><ele>845.5999999999999</ele><time>2026-05-01T10:12:13.616Z</time></trkpt><trkpt lat="44.8441587" lon="7.2281699"><ele>841.8</ele><time>2026-05-01T10:12:14.616Z</time></trkpt><trkpt lat="44.8440718" lon="7.228256"><ele>838.0</ele><time>2026-05-01T10:12:15.619Z</time></trkpt><trkpt lat="44.8439809" lon="7.2283238"><ele>838.0</ele><time>2026-05-01T10:12:16.614Z</time></trkpt><trkpt lat="44.8438764" lon="7.2283737"><ele>838.0</ele><time>2026-05-01T10:12:17.616Z</time></trkpt><trkpt lat="44.8437728" lon="7.2284113"><ele>838.0</ele><time>2026-05-01T10:12:18.617Z</time></trkpt><trkpt lat="44.8436756" lon="7.2284598"><ele>838.0</ele><time>2026-05-01T10:12:19.616Z</time></trkpt><trkpt lat="44.8435938" lon="7.2285012"><ele>838.0</ele><time>2026-05-01T10:12:20.617Z</time></trkpt><trkpt lat="44.8435299" lon="7.2285222"><ele>838.0</ele><time>2026-05-01T10:12:21.617Z</time></trkpt><trkpt lat="44.8434588" lon="7.228436"><ele>838.0</ele><time>2026-05-01T10:12:23.618Z</time></trkpt><trkpt lat="44.8435465" lon="7.2282996"><ele>838.0</ele><time>2026-05-01T10:12:25.615Z</time></trkpt><trkpt lat="44.8436338" lon="7.2282358"><ele>838.0</ele><time>2026-05-01T10:12:26.617Z</time></trkpt><trkpt lat="44.8437176" lon="7.2281624"><ele>838.0</ele><time>2026-05-01T10:12:27.617Z</time></trkpt><trkpt lat="44.8438006" lon="7.2280974"><ele>835.8</ele><time>2026-05-01T10:12:28.618Z</time></trkpt><trkpt lat="44.8438697" lon="7.2280351"><ele>833.5999999999999</ele><time>2026-05-01T10:12:29.617Z</time></trkpt><trkpt lat="44.8439139" lon="7.227842"><ele>831.4000000000001</ele><time>2026-05-01T10:12:31.616Z</time></trkpt><trkpt lat="44.8438958" lon="7.2277132"><ele>829.2</ele><time>2026-05-01T10:12:32.62Z</time></trkpt><trkpt lat="44.8438803" lon="7.2275663"><ele>827.0</ele><time>2026-05-01T10:12:33.617Z</time></trkpt><trkpt lat="44.843861" lon="7.2274306"><ele>824.8333333333334</ele><time>2026-05-01T10:12:34.616Z</time></trkpt><trkpt lat="44.8438396" lon="7.2273089"><ele>822.6666666666667</ele><time>2026-05-01T10:12:35.621Z</time></trkpt><trkpt lat="44.843837" lon="7.2271834"><ele>820.5</ele><time>2026-05-01T10:12:36.617Z</time></trkpt><trkpt lat="44.8438662" lon="7.227076"><ele>818.3333333333333</ele><time>2026-05-01T10:12:37.615Z</time></trkpt><trkpt lat="44.8439164" lon="7.2269812"><ele>816.1666666666666</ele><time>2026-05-01T10:12:38.616Z</time></trkpt><trkpt lat="44.8439698" lon="7.226903"><ele>814.0</ele><time>2026-05-01T10:12:39.616Z</time></trkpt><trkpt lat="44.8439884" lon="7.2267596"><ele>814.0</ele><time>2026-05-01T10:12:41.616Z</time></trkpt><trkpt lat="44.843895" lon="7.226751"><ele>814.0</ele><time>2026-05-01T10:12:43.616Z</time></trkpt><trkpt lat="44.8438328" lon="7.2268091"><ele>814.0</ele><time>2026-05-01T10:12:44.617Z</time></trkpt><trkpt lat="44.8437629" lon="7.2268935"><ele>814.0</ele><time>2026-05-01T10:12:45.615Z</time></trkpt><trkpt lat="44.8436976" lon="7.227007"><ele>814.0</ele><time>2026-05-01T10:12:46.621Z</time></trkpt><trkpt lat="44.8436423" lon="7.2271652"><ele>813.1666666666666</ele><time>2026-05-01T10:12:47.616Z</time></trkpt><trkpt lat="44.8436018" lon="7.227312"><ele>812.3333333333333</ele><time>2026-05-01T10:12:48.616Z</time></trkpt><trkpt lat="44.8435626" lon="7.2274319"><ele>811.5</ele><time>2026-05-01T10:12:49.618Z</time></trkpt><trkpt lat="44.8435087" lon="7.2275142"><ele>810.6666666666667</ele><time>2026-05-01T10:12:50.618Z</time></trkpt><trkpt lat="44.8434378" lon="7.2275363"><ele>809.8333333333334</ele><time>2026-05-01T10:12:51.622Z</time></trkpt><trkpt lat="44.8433641" lon="7.227507"><ele>809.0</ele><time>2026-05-01T10:12:52.617Z</time></trkpt><trkpt lat="44.8433028" lon="7.2274256"><ele>804.5</ele><time>2026-05-01T10:12:53.616Z</time></trkpt><trkpt lat="44.8432618" lon="7.2273047"><ele>800.0</ele><time>2026-05-01T10:12:54.616Z</time></trkpt><trkpt lat="44.8432194" lon="7.2271444"><ele>795.5</ele><time>2026-05-01T10:12:55.619Z</time></trkpt><trkpt lat="44.8431698" lon="7.2269749"><ele>791.0</ele><time>2026-05-01T10:12:56.616Z</time></trkpt><trkpt lat="44.8431175" lon="7.2268187"><ele>791.0</ele><time>2026-05-01T10:12:57.617Z</time></trkpt><trkpt lat="44.8430634" lon="7.226674"><ele>791.0</ele><time>2026-05-01T10:12:58.618Z</time></trkpt><trkpt lat="44.8429983" lon="7.2265403"><ele>791.0</ele><time>2026-05-01T10:12:59.616Z</time></trkpt><trkpt lat="44.8429185" lon="7.2264222"><ele>791.0</ele><time>2026-05-01T10:13:00.617Z</time></trkpt><trkpt lat="44.8428237" lon="7.2263045"><ele>788.5999999999999</ele><time>2026-05-01T10:13:01.617Z</time></trkpt><trkpt lat="44.8427278" lon="7.2262141"><ele>786.2</ele><time>2026-05-01T10:13:02.616Z</time></trkpt><trkpt lat="44.8426321" lon="7.2261332"><ele>783.8</ele><time>2026-05-01T10:13:03.617Z</time></trkpt><trkpt lat="44.8425549" lon="7.2260759"><ele>781.4000000000001</ele><time>2026-05-01T10:13:04.616Z</time></trkpt><trkpt lat="44.8424984" lon="7.2260305"><ele>779.0</ele><time>2026-05-01T10:13:05.617Z</time></trkpt><trkpt lat="44.842484" lon="7.2259315"><ele>779.0</ele><time>2026-05-01T10:13:07.617Z</time></trkpt><trkpt lat="44.8425796" lon="7.2259102"><ele>779.0</ele><time>2026-05-01T10:13:09.62Z</time></trkpt><trkpt lat="44.8426609" lon="7.2259484"><ele>779.0</ele><time>2026-05-01T10:13:10.619Z</time></trkpt><trkpt lat="44.8427706" lon="7.2259824"><ele>779.0</ele><time>2026-05-01T10:13:11.616Z</time></trkpt><trkpt lat="44.8428827" lon="7.2260157"><ele>779.0</ele><time>2026-05-01T10:13:12.616Z</time></trkpt><trkpt lat="44.8429829" lon="7.2260492"><ele>778.6666666666667</ele><time>2026-05-01T10:13:13.616Z</time></trkpt><trkpt lat="44.8430741" lon="7.2260745"><ele>778.3333333333334</ele><time>2026-05-01T10:13:14.617Z</time></trkpt><trkpt lat="44.8431545" lon="7.2260757"><ele>778.0</ele><time>2026-05-01T10:13:15.616Z</time></trkpt><trkpt lat="44.8432232" lon="7.2260416"><ele>777.6666666666667</ele><time>2026-05-01T10:13:16.616Z</time></trkpt><trkpt lat="44.8432763" lon="7.2259711"><ele>777.3333333333334</ele><time>2026-05-01T10:13:17.617Z</time></trkpt><trkpt lat="44.843321" lon="7.2258556"><ele>777.0</ele><time>2026-05-01T10:13:18.617Z</time></trkpt><trkpt lat="44.8433677" lon="7.2257074"><ele>779.0</ele><time>2026-05-01T10:13:19.617Z</time></trkpt><trkpt lat="44.8434257" lon="7.2255342"><ele>781.0</ele><time>2026-05-01T10:13:20.616Z</time></trkpt><trkpt lat="44.8434814" lon="7.2253708"><ele>783.0</ele><time>2026-05-01T10:13:21.616Z</time></trkpt><trkpt lat="44.8435329" lon="7.2252113"><ele>785.0</ele><time>2026-05-01T10:13:22.617Z</time></trkpt><trkpt lat="44.8435765" lon="7.2250622"><ele>785.0</ele><time>2026-05-01T10:13:23.616Z</time></trkpt><trkpt lat="44.8436181" lon="7.2249232"><ele>785.0</ele><time>2026-05-01T10:13:24.617Z</time></trkpt><trkpt lat="44.8436526" lon="7.2247929"><ele>785.0</ele><time>2026-05-01T10:13:25.616Z</time></trkpt><trkpt lat="44.8436856" lon="7.2246649"><ele>785.0</ele><time>2026-05-01T10:13:26.617Z</time></trkpt><trkpt lat="44.8437169" lon="7.2245427"><ele>785.0</ele><time>2026-05-01T10:13:27.616Z</time></trkpt><trkpt lat="44.843754" lon="7.2244265"><ele>782.3333333333334</ele><time>2026-05-01T10:13:28.617Z</time></trkpt><trkpt lat="44.8438018" lon="7.2243234"><ele>779.6666666666667</ele><time>2026-05-01T10:13:29.615Z</time></trkpt><trkpt lat="44.8438506" lon="7.2242372"><ele>777.0</ele><time>2026-05-01T10:13:30.616Z</time></trkpt><trkpt lat="44.8438851" lon="7.2241557"><ele>774.3333333333333</ele><time>2026-05-01T10:13:31.617Z</time></trkpt><trkpt lat="44.8438645" lon="7.2240357"><ele>771.6666666666666</ele><time>2026-05-01T10:13:33.616Z</time></trkpt><trkpt lat="44.8437724" lon="7.2240169"><ele>769.0</ele><time>2026-05-01T10:13:35.616Z</time></trkpt><trkpt lat="44.8437094" lon="7.2240403"><ele>769.0</ele><time>2026-05-01T10:13:36.616Z</time></trkpt><trkpt lat="44.8436348" lon="7.2240569"><ele>769.0</ele><time>2026-05-01T10:13:37.618Z</time></trkpt><trkpt lat="44.8435525" lon="7.2240718"><ele>769.0</ele><time>2026-05-01T10:13:38.618Z</time></trkpt><trkpt lat="44.8434589" lon="7.2240932"><ele>769.0</ele><time>2026-05-01T10:13:39.617Z</time></trkpt><trkpt lat="44.8433588" lon="7.2241382"><ele>769.0</ele><time>2026-05-01T10:13:40.617Z</time></trkpt><trkpt lat="44.8432601" lon="7.2241796"><ele>766.8000000000001</ele><time>2026-05-01T10:13:41.617Z</time></trkpt><trkpt lat="44.8431669" lon="7.2242091"><ele>764.6</ele><time>2026-05-01T10:13:42.616Z</time></trkpt><trkpt lat="44.8430836" lon="7.2242598"><ele>762.4</ele><time>2026-05-01T10:13:43.616Z</time></trkpt><trkpt lat="44.8430175" lon="7.2243425"><ele>760.2</ele><time>2026-05-01T10:13:44.617Z</time></trkpt><trkpt lat="44.8429721" lon="7.2244676"><ele>758.0</ele><time>2026-05-01T10:13:45.617Z</time></trkpt><trkpt lat="44.8429395" lon="7.2246262"><ele>758.0</ele><time>2026-05-01T10:13:46.616Z</time></trkpt><trkpt lat="44.8429015" lon="7.2247681"><ele>758.0</ele><time>2026-05-01T10:13:47.617Z</time></trkpt><trkpt lat="44.8428624" lon="7.2248762"><ele>758.0</ele><time>2026-05-01T10:13:48.617Z</time></trkpt><trkpt lat="44.84281" lon="7.224937"><ele>758.0</ele><time>2026-05-01T10:13:49.616Z</time></trkpt><trkpt lat="44.842733" lon="7.2249573"><ele>758.0</ele><time>2026-05-01T10:13:50.616Z</time></trkpt><trkpt lat="44.8426523" lon="7.2249247"><ele>758.0</ele><time>2026-05-01T10:13:51.617Z</time></trkpt><trkpt lat="44.8425553" lon="7.2248413"><ele>754.25</ele><time>2026-05-01T10:13:52.616Z</time></trkpt><trkpt lat="44.8424457" lon="7.2247291"><ele>750.5</ele><time>2026-05-01T10:13:53.616Z</time></trkpt><trkpt lat="44.8423371" lon="7.2246318"><ele>746.75</ele><time>2026-05-01T10:13:54.617Z</time></trkpt><trkpt lat="44.8422201" lon="7.2245498"><ele>743.0</ele><time>2026-05-01T10:13:55.616Z</time></trkpt><trkpt lat="44.8421004" lon="7.2244912"><ele>743.0</ele><time>2026-05-01T10:13:56.618Z</time></trkpt><trkpt lat="44.8419728" lon="7.2244576"><ele>743.0</ele><time>2026-05-01T10:13:57.616Z</time></trkpt><trkpt lat="44.8418292" lon="7.2244622"><ele>743.0</ele><time>2026-05-01T10:13:58.617Z</time></trkpt><trkpt lat="44.8416922" lon="7.2244907"><ele>743.0</ele><time>2026-05-01T10:13:59.616Z</time></trkpt><trkpt lat="44.8415611" lon="7.224534"><ele>744.6666666666666</ele><time>2026-05-01T10:14:00.616Z</time></trkpt><trkpt lat="44.8414335" lon="7.2246106"><ele>746.3333333333334</ele><time>2026-05-01T10:14:01.616Z</time></trkpt><trkpt lat="44.8412351" lon="7.2248469"><ele>748.0</ele><time>2026-05-01T10:14:03.617Z</time></trkpt><trkpt lat="44.8411721" lon="7.2250077"><ele>748.0</ele><time>2026-05-01T10:14:04.616Z</time></trkpt><trkpt lat="44.8411379" lon="7.2251885"><ele>748.0</ele><time>2026-05-01T10:14:05.616Z</time></trkpt><trkpt lat="44.8411376" lon="7.2253683"><ele>748.0</ele><time>2026-05-01T10:14:06.617Z</time></trkpt><trkpt lat="44.8411678" lon="7.2255561"><ele>748.0</ele><time>2026-05-01T10:14:07.617Z</time></trkpt><trkpt lat="44.841229" lon="7.2257537"><ele>751.3333333333334</ele><time>2026-05-01T10:14:08.614Z</time></trkpt><trkpt lat="44.8413126" lon="7.2259589"><ele>754.6666666666666</ele><time>2026-05-01T10:14:09.617Z</time></trkpt><trkpt lat="44.8413934" lon="7.2261488"><ele>758.0</ele><time>2026-05-01T10:14:10.617Z</time></trkpt><trkpt lat="44.8414641" lon="7.2263271"><ele>758.0</ele><time>2026-05-01T10:14:11.616Z</time></trkpt><trkpt lat="44.8415187" lon="7.2265061"><ele>758.0</ele><time>2026-05-01T10:14:12.617Z</time></trkpt><trkpt lat="44.841549" lon="7.2266684"><ele>758.0</ele><time>2026-05-01T10:14:13.616Z</time></trkpt><trkpt lat="44.8415611" lon="7.2268134"><ele>758.0</ele><time>2026-05-01T10:14:14.617Z</time></trkpt><trkpt lat="44.8415486" lon="7.2269184"><ele>758.0</ele><time>2026-05-01T10:14:15.615Z</time></trkpt><trkpt lat="44.8415078" lon="7.2269935"><ele>758.0</ele><time>2026-05-01T10:14:16.618Z</time></trkpt><trkpt lat="44.8414409" lon="7.2270164"><ele>758.0</ele><time>2026-05-01T10:14:17.618Z</time></trkpt><trkpt lat="44.8413627" lon="7.2269894"><ele>758.0</ele><time>2026-05-01T10:14:18.618Z</time></trkpt><trkpt lat="44.8412693" lon="7.2269275"><ele>758.0</ele><time>2026-05-01T10:14:19.618Z</time></trkpt><trkpt lat="44.8411555" lon="7.2268556"><ele>758.0</ele><time>2026-05-01T10:14:20.618Z</time></trkpt><trkpt lat="44.8410371" lon="7.2267871"><ele>749.75</ele><time>2026-05-01T10:14:21.618Z</time></trkpt><trkpt lat="44.8409226" lon="7.2267505"><ele>741.5</ele><time>2026-05-01T10:14:22.619Z</time></trkpt><trkpt lat="44.8408013" lon="7.2267333"><ele>733.25</ele><time>2026-05-01T10:14:23.617Z</time></trkpt><trkpt lat="44.840671" lon="7.2267497"><ele>725.0</ele><time>2026-05-01T10:14:24.616Z</time></trkpt><trkpt lat="44.840542" lon="7.2267808"><ele>725.0</ele><time>2026-05-01T10:14:25.618Z</time></trkpt><trkpt lat="44.8404058" lon="7.2268442"><ele>725.0</ele><time>2026-05-01T10:14:26.618Z</time></trkpt><trkpt lat="44.8402978" lon="7.2269007"><ele>725.0</ele><time>2026-05-01T10:14:27.617Z</time></trkpt><trkpt lat="44.8402158" lon="7.2269725"><ele>725.0</ele><time>2026-05-01T10:14:28.617Z</time></trkpt><trkpt lat="44.8401576" lon="7.2270771"><ele>725.0</ele><time>2026-05-01T10:14:29.618Z</time></trkpt><trkpt lat="44.8401204" lon="7.2272203"><ele>724.2</ele><time>2026-05-01T10:14:30.617Z</time></trkpt><trkpt lat="44.8400796" lon="7.2273709"><ele>723.4</ele><time>2026-05-01T10:14:31.618Z</time></trkpt><trkpt lat="44.8400691" lon="7.227529"><ele>722.5999999999999</ele><time>2026-05-01T10:14:32.618Z</time></trkpt><trkpt lat="44.8400411" lon="7.2276581"><ele>721.8</ele><time>2026-05-01T10:14:33.622Z</time></trkpt><trkpt lat="44.840011" lon="7.2277557"><ele>721.0</ele><time>2026-05-01T10:14:34.618Z</time></trkpt><trkpt lat="44.8399041" lon="7.2278102"><ele>721.0</ele><time>2026-05-01T10:14:36.617Z</time></trkpt><trkpt lat="44.8398513" lon="7.2277491"><ele>721.0</ele><time>2026-05-01T10:14:37.619Z</time></trkpt><trkpt lat="44.8398162" lon="7.2276422"><ele>721.0</ele><time>2026-05-01T10:14:38.617Z</time></trkpt><trkpt lat="44.8397798" lon="7.2275042"><ele>721.0</ele><time>2026-05-01T10:14:39.618Z</time></trkpt><trkpt lat="44.8397255" lon="7.2273278"><ele>721.0</ele><time>2026-05-01T10:14:40.617Z</time></trkpt><trkpt lat="44.8396628" lon="7.22713"><ele>716.0</ele><time>2026-05-01T10:14:41.618Z</time></trkpt><trkpt lat="44.8395984" lon="7.226937"><ele>711.0</ele><time>2026-05-01T10:14:42.618Z</time></trkpt><trkpt lat="44.8395252" lon="7.2267566"><ele>706.0</ele><time>2026-05-01T10:14:43.617Z</time></trkpt><trkpt lat="44.8394313" lon="7.226582"><ele>701.3333333333334</ele><time>2026-05-01T10:14:44.618Z</time></trkpt><trkpt lat="44.8392938" lon="7.2264172"><ele>696.6666666666666</ele><time>2026-05-01T10:14:45.617Z</time></trkpt><trkpt lat="44.8391501" lon="7.226227"><ele>692.0</ele><time>2026-05-01T10:14:46.616Z</time></trkpt><trkpt lat="44.8390141" lon="7.2260496"><ele>692.0</ele><time>2026-05-01T10:14:47.617Z</time></trkpt><trkpt lat="44.8388864" lon="7.2258759"><ele>692.0</ele><time>2026-05-01T10:14:48.619Z</time></trkpt><trkpt lat="44.838763" lon="7.2257185"><ele>692.0</ele><time>2026-05-01T10:14:49.617Z</time></trkpt><trkpt lat="44.8386579" lon="7.225586"><ele>689.0</ele><time>2026-05-01T10:14:50.618Z</time></trkpt><trkpt lat="44.8385692" lon="7.2254807"><ele>686.0</ele><time>2026-05-01T10:14:51.621Z</time></trkpt><trkpt lat="44.8384674" lon="7.225415"><ele>683.0</ele><time>2026-05-01T10:14:52.617Z</time></trkpt><trkpt lat="44.838357" lon="7.2253926"><ele>680.0</ele><time>2026-05-01T10:14:53.617Z</time></trkpt><trkpt lat="44.8382449" lon="7.2254107"><ele>679.6666666666666</ele><time>2026-05-01T10:14:54.621Z</time></trkpt><trkpt lat="44.8381132" lon="7.2254774"><ele>679.3333333333334</ele><time>2026-05-01T10:14:55.616Z</time></trkpt><trkpt lat="44.8379639" lon="7.2255732"><ele>679.0</ele><time>2026-05-01T10:14:56.617Z</time></trkpt><trkpt lat="44.8378" lon="7.2256741"><ele>681.0</ele><time>2026-05-01T10:14:57.617Z</time></trkpt><trkpt lat="44.8376441" lon="7.2257724"><ele>683.0</ele><time>2026-05-01T10:14:58.617Z</time></trkpt><trkpt lat="44.8374932" lon="7.225867"><ele>685.0</ele><time>2026-05-01T10:14:59.618Z</time></trkpt><trkpt lat="44.8373604" lon="7.2259512"><ele>685.0</ele><time>2026-05-01T10:15:00.617Z</time></trkpt><trkpt lat="44.8372515" lon="7.2260262"><ele>685.0</ele><time>2026-05-01T10:15:01.616Z</time></trkpt><trkpt lat="44.8371492" lon="7.2261363"><ele>685.0</ele><time>2026-05-01T10:15:02.618Z</time></trkpt><trkpt lat="44.8370485" lon="7.2262803"><ele>685.0</ele><time>2026-05-01T10:15:03.617Z</time></trkpt><trkpt lat="44.8369597" lon="7.2264327"><ele>684.8</ele><time>2026-05-01T10:15:04.617Z</time></trkpt><trkpt lat="44.836882" lon="7.2265696"><ele>684.6</ele><time>2026-05-01T10:15:05.617Z</time></trkpt><trkpt lat="44.8368098" lon="7.2266785"><ele>684.4000000000001</ele><time>2026-05-01T10:15:06.618Z</time></trkpt><trkpt lat="44.8367403" lon="7.2267549"><ele>684.2</ele><time>2026-05-01T10:15:07.617Z</time></trkpt><trkpt lat="44.8366693" lon="7.2267975"><ele>684.0</ele><time>2026-05-01T10:15:08.618Z</time></trkpt><trkpt lat="44.8365942" lon="7.226778"><ele>684.0</ele><time>2026-05-01T10:15:09.618Z</time></trkpt><trkpt lat="44.8365278" lon="7.2266939"><ele>684.0</ele><time>2026-05-01T10:15:10.617Z</time></trkpt><trkpt lat="44.8364606" lon="7.2265745"><ele>684.0</ele><time>2026-05-01T10:15:11.617Z</time></trkpt><trkpt lat="44.8363731" lon="7.2264186"><ele>684.0</ele><time>2026-05-01T10:15:12.616Z</time></trkpt><trkpt lat="44.8362795" lon="7.2262778"><ele>678.75</ele><time>2026-05-01T10:15:13.618Z</time></trkpt><trkpt lat="44.8361915" lon="7.2261513"><ele>673.5</ele><time>2026-05-01T10:15:14.617Z</time></trkpt><trkpt lat="44.8360974" lon="7.2260437"><ele>668.25</ele><time>2026-05-01T10:15:15.617Z</time></trkpt><trkpt lat="44.8359954" lon="7.2259726"><ele>663.0</ele><time>2026-05-01T10:15:16.616Z</time></trkpt><trkpt lat="44.8358796" lon="7.2259249"><ele>661.0</ele><time>2026-05-01T10:15:17.617Z</time></trkpt><trkpt lat="44.8357514" lon="7.2259095"><ele>659.0</ele><time>2026-05-01T10:15:18.617Z</time></trkpt><trkpt lat="44.8355869" lon="7.2259024"><ele>657.0</ele><time>2026-05-01T10:15:19.619Z</time></trkpt><trkpt lat="44.8354149" lon="7.2258808"><ele>657.0</ele><time>2026-05-01T10:15:20.618Z</time></trkpt><trkpt lat="44.8352332" lon="7.2258726"><ele>657.0</ele><time>2026-05-01T10:15:21.618Z</time></trkpt><trkpt lat="44.8350304" lon="7.2258789"><ele>657.0</ele><time>2026-05-01T10:15:22.617Z</time></trkpt><trkpt lat="44.8348382" lon="7.2258688"><ele>657.0</ele><time>2026-05-01T10:15:23.619Z</time></trkpt><trkpt lat="44.8346411" lon="7.2258462"><ele>657.0</ele><time>2026-05-01T10:15:24.618Z</time></trkpt><trkpt lat="44.834456" lon="7.225808"><ele>657.0</ele><time>2026-05-01T10:15:25.618Z</time></trkpt><trkpt lat="44.8342771" lon="7.2257667"><ele>657.6666666666666</ele><time>2026-05-01T10:15:26.617Z</time></trkpt><trkpt lat="44.8340997" lon="7.2257031"><ele>658.3333333333333</ele><time>2026-05-01T10:15:27.618Z</time></trkpt><trkpt lat="44.8339227" lon="7.2256253"><ele>659.0</ele><time>2026-05-01T10:15:28.621Z</time></trkpt><trkpt lat="44.8337362" lon="7.2255356"><ele>653.0</ele><time>2026-05-01T10:15:29.618Z</time></trkpt><trkpt lat="44.8335385" lon="7.2254482"><ele>647.0</ele><time>2026-05-01T10:15:30.618Z</time></trkpt><trkpt lat="44.8333509" lon="7.2253648"><ele>641.0</ele><time>2026-05-01T10:15:31.617Z</time></trkpt><trkpt lat="44.833172" lon="7.2252758"><ele>641.0</ele><time>2026-05-01T10:15:32.617Z</time></trkpt><trkpt lat="44.8330045" lon="7.2251946"><ele>641.0</ele><time>2026-05-01T10:15:33.617Z</time></trkpt><trkpt lat="44.8328382" lon="7.2251183"><ele>641.0</ele><time>2026-05-01T10:15:34.618Z</time></trkpt><trkpt lat="44.8326908" lon="7.2250466"><ele>639.25</ele><time>2026-05-01T10:15:35.618Z</time></trkpt><trkpt lat="44.8325561" lon="7.2249873"><ele>637.5</ele><time>2026-05-01T10:15:36.617Z</time></trkpt><trkpt lat="44.8324365" lon="7.2249494"><ele>635.75</ele><time>2026-05-01T10:15:37.617Z</time></trkpt><trkpt lat="44.8323271" lon="7.2249399"><ele>634.0</ele><time>2026-05-01T10:15:38.619Z</time></trkpt><trkpt lat="44.8322112" lon="7.2249724"><ele>634.0</ele><time>2026-05-01T10:15:39.617Z</time></trkpt><trkpt lat="44.8320857" lon="7.2250603"><ele>634.0</ele><time>2026-05-01T10:15:40.617Z</time></trkpt><trkpt lat="44.8319475" lon="7.2251686"><ele>634.0</ele><time>2026-05-01T10:15:41.62Z</time></trkpt><trkpt lat="44.8317984" lon="7.2252847"><ele>637.3333333333334</ele><time>2026-05-01T10:15:42.624Z</time></trkpt><trkpt lat="44.8316451" lon="7.2254007"><ele>640.6666666666666</ele><time>2026-05-01T10:15:43.618Z</time></trkpt><trkpt lat="44.8314901" lon="7.2255202"><ele>644.0</ele><time>2026-05-01T10:15:44.617Z</time></trkpt><trkpt lat="44.8313339" lon="7.2256511"><ele>644.0</ele><time>2026-05-01T10:15:45.616Z</time></trkpt><trkpt lat="44.8311836" lon="7.2257844"><ele>644.0</ele><time>2026-05-01T10:15:46.616Z</time></trkpt><trkpt lat="44.8310348" lon="7.2259309"><ele>644.0</ele><time>2026-05-01T10:15:47.618Z</time></trkpt><trkpt lat="44.830888" lon="7.2260633"><ele>643.0</ele><time>2026-05-01T10:15:48.618Z</time></trkpt><trkpt lat="44.8307541" lon="7.2262024"><ele>642.0</ele><time>2026-05-01T10:15:49.619Z</time></trkpt><trkpt lat="44.8306278" lon="7.2263391"><ele>641.0</ele><time>2026-05-01T10:15:50.617Z</time></trkpt><trkpt lat="44.8305092" lon="7.2264879"><ele>641.0</ele><time>2026-05-01T10:15:51.617Z</time></trkpt><trkpt lat="44.8304086" lon="7.2266645"><ele>641.0</ele><time>2026-05-01T10:15:52.618Z</time></trkpt><trkpt lat="44.8303161" lon="7.2268657"><ele>641.0</ele><time>2026-05-01T10:15:53.617Z</time></trkpt><trkpt lat="44.8302275" lon="7.227073"><ele>632.0</ele><time>2026-05-01T10:15:54.617Z</time></trkpt><trkpt lat="44.8301351" lon="7.2273049"><ele>623.0</ele><time>2026-05-01T10:15:55.617Z</time></trkpt><trkpt lat="44.8300295" lon="7.2275407"><ele>614.0</ele><time>2026-05-01T10:15:56.617Z</time></trkpt><trkpt lat="44.8299264" lon="7.2277774"><ele>614.0</ele><time>2026-05-01T10:15:57.617Z</time></trkpt><trkpt lat="44.8298312" lon="7.2280103"><ele>614.0</ele><time>2026-05-01T10:15:58.618Z</time></trkpt><trkpt lat="44.8297276" lon="7.2282509"><ele>614.0</ele><time>2026-05-01T10:15:59.616Z</time></trkpt><trkpt lat="44.8296205" lon="7.2285018"><ele>618.0</ele><time>2026-05-01T10:16:00.617Z</time></trkpt><trkpt lat="44.8295204" lon="7.2287403"><ele>622.0</ele><time>2026-05-01T10:16:01.617Z</time></trkpt><trkpt lat="44.8294246" lon="7.2289695"><ele>626.0</ele><time>2026-05-01T10:16:02.616Z</time></trkpt><trkpt lat="44.8293329" lon="7.229198"><ele>619.0</ele><time>2026-05-01T10:16:03.618Z</time></trkpt><trkpt lat="44.8292441" lon="7.2294157"><ele>612.0</ele><time>2026-05-01T10:16:04.618Z</time></trkpt><trkpt lat="44.8291574" lon="7.2296216"><ele>605.0</ele><time>2026-05-01T10:16:05.618Z</time></trkpt><trkpt lat="44.829075" lon="7.2298053"><ele>607.6666666666666</ele><time>2026-05-01T10:16:06.617Z</time></trkpt><trkpt lat="44.8289784" lon="7.2299609"><ele>610.3333333333334</ele><time>2026-05-01T10:16:07.616Z</time></trkpt><trkpt lat="44.8288496" lon="7.2300914"><ele>613.0</ele><time>2026-05-01T10:16:08.617Z</time></trkpt><trkpt lat="44.8287019" lon="7.2302125"><ele>613.0</ele><time>2026-05-01T10:16:09.617Z</time></trkpt><trkpt lat="44.8285715" lon="7.2303248"><ele>613.0</ele><time>2026-05-01T10:16:10.617Z</time></trkpt><trkpt lat="44.8284689" lon="7.2304276"><ele>613.0</ele><time>2026-05-01T10:16:11.617Z</time></trkpt><trkpt lat="44.8283787" lon="7.2305456"><ele>613.0</ele><time>2026-05-01T10:16:12.617Z</time></trkpt><trkpt lat="44.8283067" lon="7.2306917"><ele>609.0</ele><time>2026-05-01T10:16:13.617Z</time></trkpt><trkpt lat="44.828257" lon="7.2308583"><ele>605.0</ele><time>2026-05-01T10:16:14.617Z</time></trkpt><trkpt lat="44.8282245" lon="7.2310383"><ele>601.0</ele><time>2026-05-01T10:16:15.617Z</time></trkpt><trkpt lat="44.8282232" lon="7.2312391"><ele>597.0</ele><time>2026-05-01T10:16:16.618Z</time></trkpt><trkpt lat="44.8282188" lon="7.2314367"><ele>598.25</ele><time>2026-05-01T10:16:17.619Z</time></trkpt><trkpt lat="44.8281994" lon="7.2316286"><ele>599.5</ele><time>2026-05-01T10:16:18.618Z</time></trkpt><trkpt lat="44.8281516" lon="7.231823"><ele>600.75</ele><time>2026-05-01T10:16:19.617Z</time></trkpt><trkpt lat="44.8280881" lon="7.2320338"><ele>602.0</ele><time>2026-05-01T10:16:20.616Z</time></trkpt><trkpt lat="44.8280298" lon="7.2322503"><ele>601.75</ele><time>2026-05-01T10:16:21.617Z</time></trkpt><trkpt lat="44.8279677" lon="7.2324464"><ele>601.5</ele><time>2026-05-01T10:16:22.617Z</time></trkpt><trkpt lat="44.8279159" lon="7.232636"><ele>601.25</ele><time>2026-05-01T10:16:23.617Z</time></trkpt><trkpt lat="44.8278697" lon="7.2328253"><ele>601.0</ele><time>2026-05-01T10:16:24.618Z</time></trkpt><trkpt lat="44.827841" lon="7.2329845"><ele>601.6</ele><time>2026-05-01T10:16:25.618Z</time></trkpt><trkpt lat="44.8278224" lon="7.2331396"><ele>602.2</ele><time>2026-05-01T10:16:26.616Z</time></trkpt><trkpt lat="44.8278168" lon="7.2332867"><ele>602.8</ele><time>2026-05-01T10:16:27.618Z</time></trkpt><trkpt lat="44.8278115" lon="7.2333918"><ele>603.4</ele><time>2026-05-01T10:16:28.618Z</time></trkpt><trkpt lat="44.8277284" lon="7.2334717"><ele>604.0</ele><time>2026-05-01T10:16:30.617Z</time></trkpt><trkpt lat="44.8276415" lon="7.2333593"><ele>600.0</ele><time>2026-05-01T10:16:32.617Z</time></trkpt><trkpt lat="44.8275935" lon="7.2332622"><ele>596.0</ele><time>2026-05-01T10:16:33.617Z</time></trkpt><trkpt lat="44.8275223" lon="7.2331645"><ele>592.0</ele><time>2026-05-01T10:16:34.617Z</time></trkpt><trkpt lat="44.8274298" lon="7.2330637"><ele>588.0</ele><time>2026-05-01T10:16:35.617Z</time></trkpt><trkpt lat="44.8271378" lon="7.232962"><ele>588.0</ele><time>2026-05-01T10:16:37.616Z</time></trkpt><trkpt lat="44.826973" lon="7.232957"><ele>588.0</ele><time>2026-05-01T10:16:38.617Z</time></trkpt><trkpt lat="44.8268114" lon="7.2329653"><ele>588.0</ele><time>2026-05-01T10:16:39.617Z</time></trkpt><trkpt lat="44.8266491" lon="7.2329824"><ele>585.0</ele><time>2026-05-01T10:16:40.617Z</time></trkpt><trkpt lat="44.8264983" lon="7.233034"><ele>582.0</ele><time>2026-05-01T10:16:41.618Z</time></trkpt><trkpt lat="44.8263491" lon="7.2331222"><ele>579.0</ele><time>2026-05-01T10:16:42.618Z</time></trkpt><trkpt lat="44.8262002" lon="7.2332485"><ele>577.6666666666666</ele><time>2026-05-01T10:16:43.618Z</time></trkpt><trkpt lat="44.8260469" lon="7.2334231"><ele>576.3333333333333</ele><time>2026-05-01T10:16:44.617Z</time></trkpt><trkpt lat="44.8258812" lon="7.2336142"><ele>575.0</ele><time>2026-05-01T10:16:45.617Z</time></trkpt><trkpt lat="44.8257073" lon="7.2338102"><ele>573.0</ele><time>2026-05-01T10:16:46.618Z</time></trkpt><trkpt lat="44.8255233" lon="7.2340241"><ele>571.0</ele><time>2026-05-01T10:16:47.617Z</time></trkpt><trkpt lat="44.8253371" lon="7.234246"><ele>571.0</ele><time>2026-05-01T10:16:48.617Z</time></trkpt><trkpt lat="44.8251523" lon="7.2344624"><ele>571.0</ele><time>2026-05-01T10:16:49.618Z</time></trkpt><trkpt lat="44.8249791" lon="7.2346653"><ele>567.0</ele><time>2026-05-01T10:16:50.62Z</time></trkpt><trkpt lat="44.8248064" lon="7.234852"><ele>563.0</ele><time>2026-05-01T10:16:51.618Z</time></trkpt><trkpt lat="44.8246401" lon="7.2350247"><ele>559.0</ele><time>2026-05-01T10:16:52.617Z</time></trkpt><trkpt lat="44.8244668" lon="7.2351762"><ele>556.3333333333334</ele><time>2026-05-01T10:16:53.618Z</time></trkpt><trkpt lat="44.8243044" lon="7.235309"><ele>553.6666666666666</ele><time>2026-05-01T10:16:54.617Z</time></trkpt><trkpt lat="44.8241626" lon="7.2354125"><ele>551.0</ele><time>2026-05-01T10:16:55.619Z</time></trkpt><trkpt lat="44.8240388" lon="7.2354998"><ele>551.0</ele><time>2026-05-01T10:16:56.618Z</time></trkpt><trkpt lat="44.8239316" lon="7.2355855"><ele>551.0</ele><time>2026-05-01T10:16:57.618Z</time></trkpt><trkpt lat="44.8238493" lon="7.235678"><ele>551.0</ele><time>2026-05-01T10:16:58.617Z</time></trkpt><trkpt lat="44.8237949" lon="7.2357925"><ele>551.0</ele><time>2026-05-01T10:16:59.616Z</time></trkpt><trkpt lat="44.8237752" lon="7.235932"><ele>551.0</ele><time>2026-05-01T10:17:00.619Z</time></trkpt><trkpt lat="44.8237822" lon="7.2360858"><ele>550.8</ele><time>2026-05-01T10:17:01.616Z</time></trkpt><trkpt lat="44.8237904" lon="7.2362458"><ele>550.6</ele><time>2026-05-01T10:17:02.618Z</time></trkpt><trkpt lat="44.823791" lon="7.2363973"><ele>550.4</ele><time>2026-05-01T10:17:03.617Z</time></trkpt><trkpt lat="44.8237761" lon="7.2365406"><ele>550.2</ele><time>2026-05-01T10:17:04.617Z</time></trkpt><trkpt lat="44.8237223" lon="7.2366594"><ele>550.0</ele><time>2026-05-01T10:17:05.618Z</time></trkpt><trkpt lat="44.8236498" lon="7.2367479"><ele>549.25</ele><time>2026-05-01T10:17:06.617Z</time></trkpt><trkpt lat="44.8235479" lon="7.2368134"><ele>548.5</ele><time>2026-05-01T10:17:07.618Z</time></trkpt><trkpt lat="44.8234131" lon="7.2368779"><ele>547.75</ele><time>2026-05-01T10:17:08.617Z</time></trkpt><trkpt lat="44.8232627" lon="7.2369612"><ele>547.0</ele><time>2026-05-01T10:17:09.617Z</time></trkpt><trkpt lat="44.8230917" lon="7.2370585"><ele>546.6666666666667</ele><time>2026-05-01T10:17:10.617Z</time></trkpt><trkpt lat="44.8229173" lon="7.2371616"><ele>546.3333333333334</ele><time>2026-05-01T10:17:11.617Z</time></trkpt><trkpt lat="44.8227404" lon="7.2372634"><ele>546.0</ele><time>2026-05-01T10:17:12.618Z</time></trkpt><trkpt lat="44.8225662" lon="7.2373598"><ele>542.3333333333334</ele><time>2026-05-01T10:17:13.616Z</time></trkpt><trkpt lat="44.8223929" lon="7.2374473"><ele>538.6666666666667</ele><time>2026-05-01T10:17:14.616Z</time></trkpt><trkpt lat="44.8222213" lon="7.2375419"><ele>535.0</ele><time>2026-05-01T10:17:15.616Z</time></trkpt><trkpt lat="44.8220385" lon="7.2376275"><ele>535.0</ele><time>2026-05-01T10:17:16.618Z</time></trkpt><trkpt lat="44.8218475" lon="7.2377025"><ele>535.0</ele><time>2026-05-01T10:17:17.618Z</time></trkpt><trkpt lat="44.8216688" lon="7.2377806"><ele>535.0</ele><time>2026-05-01T10:17:18.618Z</time></trkpt><trkpt lat="44.8215248" lon="7.2378293"><ele>533.0</ele><time>2026-05-01T10:17:19.619Z</time></trkpt><trkpt lat="44.8213824" lon="7.2378572"><ele>531.0</ele><time>2026-05-01T10:17:20.617Z</time></trkpt><trkpt lat="44.8212561" lon="7.2378772"><ele>529.0</ele><time>2026-05-01T10:17:21.617Z</time></trkpt><trkpt lat="44.8211263" lon="7.2378788"><ele>527.0</ele><time>2026-05-01T10:17:22.616Z</time></trkpt><trkpt lat="44.8209962" lon="7.2378468"><ele>523.6666666666666</ele><time>2026-05-01T10:17:23.616Z</time></trkpt><trkpt lat="44.8208534" lon="7.2378108"><ele>520.3333333333334</ele><time>2026-05-01T10:17:24.617Z</time></trkpt><trkpt lat="44.8207045" lon="7.2377736"><ele>517.0</ele><time>2026-05-01T10:17:25.617Z</time></trkpt><trkpt lat="44.8205524" lon="7.2377301"><ele>517.0</ele><time>2026-05-01T10:17:26.617Z</time></trkpt><trkpt lat="44.8203971" lon="7.2376887"><ele>517.0</ele><time>2026-05-01T10:17:27.617Z</time></trkpt><trkpt lat="44.8202446" lon="7.237644"><ele>517.0</ele><time>2026-05-01T10:17:28.618Z</time></trkpt><trkpt lat="44.8200891" lon="7.2376024"><ele>516.0</ele><time>2026-05-01T10:17:29.62Z</time></trkpt><trkpt lat="44.819932" lon="7.2375644"><ele>515.0</ele><time>2026-05-01T10:17:30.617Z</time></trkpt><trkpt lat="44.8197737" lon="7.2375195"><ele>514.0</ele><time>2026-05-01T10:17:31.62Z</time></trkpt><trkpt lat="44.819612" lon="7.2374764"><ele>514.0</ele><time>2026-05-01T10:17:32.618Z</time></trkpt><trkpt lat="44.8194498" lon="7.2374349"><ele>514.0</ele><time>2026-05-01T10:17:33.618Z</time></trkpt><trkpt lat="44.8192847" lon="7.2373959"><ele>514.0</ele><time>2026-05-01T10:17:34.618Z</time></trkpt><trkpt lat="44.8191242" lon="7.2373582"><ele>512.0</ele><time>2026-05-01T10:17:35.621Z</time></trkpt><trkpt lat="44.8189709" lon="7.2373233"><ele>510.0</ele><time>2026-05-01T10:17:36.619Z</time></trkpt><trkpt lat="44.8188221" lon="7.2372881"><ele>508.0</ele><time>2026-05-01T10:17:37.618Z</time></trkpt><trkpt lat="44.8185415" lon="7.2372168"><ele>506.75</ele><time>2026-05-01T10:17:39.618Z</time></trkpt><trkpt lat="44.8184177" lon="7.2371829"><ele>505.5</ele><time>2026-05-01T10:17:40.617Z</time></trkpt><trkpt lat="44.8183009" lon="7.2371535"><ele>504.25</ele><time>2026-05-01T10:17:41.618Z</time></trkpt><trkpt lat="44.8181884" lon="7.2371222"><ele>503.0</ele><time>2026-05-01T10:17:42.617Z</time></trkpt><trkpt lat="44.8180877" lon="7.2370955"><ele>502.99999999999994</ele><time>2026-05-01T10:17:43.617Z</time></trkpt><trkpt lat="44.8180093" lon="7.2370677"><ele>503.0</ele><time>2026-05-01T10:17:44.619Z</time></trkpt><trkpt lat="44.8179483" lon="7.2370449"><ele>503.0</ele><time>2026-05-01T10:17:45.618Z</time></trkpt><trkpt lat="44.81788" lon="7.2369845"><ele>503.0</ele><time>2026-05-01T10:17:47.617Z</time></trkpt><trkpt lat="44.817826" lon="7.2368728"><ele>502.99999999999994</ele><time>2026-05-01T10:17:49.62Z</time></trkpt><trkpt lat="44.8177294" lon="7.2368496"><ele>503.0</ele><time>2026-05-01T10:17:51.617Z</time></trkpt><trkpt lat="44.8176758" lon="7.2369929"><ele>502.99999999999994</ele><time>2026-05-01T10:17:53.618Z</time></trkpt><trkpt lat="44.8176665" lon="7.2370952"><ele>503.0</ele><time>2026-05-01T10:17:54.617Z</time></trkpt><trkpt lat="44.8176406" lon="7.2372027"><ele>503.0</ele><time>2026-05-01T10:17:55.617Z</time></trkpt><trkpt lat="44.8175974" lon="7.2373172"><ele>503.0</ele><time>2026-05-01T10:17:56.617Z</time></trkpt><trkpt lat="44.8175492" lon="7.2374268"><ele>502.99999999999994</ele><time>2026-05-01T10:17:57.618Z</time></trkpt><trkpt lat="44.8175004" lon="7.2375342"><ele>503.0</ele><time>2026-05-01T10:17:58.617Z</time></trkpt><trkpt lat="44.8174468" lon="7.2376486"><ele>502.0</ele><time>2026-05-01T10:17:59.617Z</time></trkpt><trkpt lat="44.8173918" lon="7.237768"><ele>500.99999999999994</ele><time>2026-05-01T10:18:00.617Z</time></trkpt><trkpt lat="44.8173333" lon="7.2378944"><ele>499.99999999999994</ele><time>2026-05-01T10:18:01.617Z</time></trkpt><trkpt lat="44.8172697" lon="7.2380253"><ele>499.0</ele><time>2026-05-01T10:18:02.619Z</time></trkpt><trkpt lat="44.8172027" lon="7.2381644"><ele>498.0</ele><time>2026-05-01T10:18:03.62Z</time></trkpt><trkpt lat="44.8171395" lon="7.238295"><ele>497.59999999999997</ele><time>2026-05-01T10:18:04.617Z</time></trkpt><trkpt lat="44.817077" lon="7.2384217"><ele>497.19999999999993</ele><time>2026-05-01T10:18:05.616Z</time></trkpt><trkpt lat="44.8170167" lon="7.2385488"><ele>496.8</ele><time>2026-05-01T10:18:06.617Z</time></trkpt><trkpt lat="44.8169536" lon="7.2386737"><ele>496.4</ele><time>2026-05-01T10:18:07.618Z</time></trkpt><trkpt lat="44.8168897" lon="7.2387974"><ele>496.0</ele><time>2026-05-01T10:18:08.617Z</time></trkpt><trkpt lat="44.8167675" lon="7.23905"><ele>494.8</ele><time>2026-05-01T10:18:10.617Z</time></trkpt><trkpt lat="44.8167096" lon="7.2391711"><ele>493.6</ele><time>2026-05-01T10:18:11.619Z</time></trkpt><trkpt lat="44.816653" lon="7.2392848"><ele>492.4</ele><time>2026-05-01T10:18:12.618Z</time></trkpt><trkpt lat="44.8166007" lon="7.2393966"><ele>491.2</ele><time>2026-05-01T10:18:13.619Z</time></trkpt><trkpt lat="44.8165452" lon="7.2395125"><ele>490.0</ele><time>2026-05-01T10:18:14.618Z</time></trkpt><trkpt lat="44.8164871" lon="7.2396297"><ele>490.0</ele><time>2026-05-01T10:18:15.618Z</time></trkpt><trkpt lat="44.8164291" lon="7.2397494"><ele>490.0</ele><time>2026-05-01T10:18:16.618Z</time></trkpt><trkpt lat="44.8163709" lon="7.2398683"><ele>490.0</ele><time>2026-05-01T10:18:17.617Z</time></trkpt><trkpt lat="44.816309" lon="7.2399965"><ele>490.0</ele><time>2026-05-01T10:18:18.618Z</time></trkpt><trkpt lat="44.8162458" lon="7.2401246"><ele>490.0</ele><time>2026-05-01T10:18:19.618Z</time></trkpt><trkpt lat="44.8161872" lon="7.2402493"><ele>489.8</ele><time>2026-05-01T10:18:20.619Z</time></trkpt><trkpt lat="44.8161317" lon="7.2403726"><ele>489.6</ele><time>2026-05-01T10:18:21.617Z</time></trkpt><trkpt lat="44.8160737" lon="7.240495"><ele>489.4</ele><time>2026-05-01T10:18:22.616Z</time></trkpt><trkpt lat="44.8160131" lon="7.2406175"><ele>489.2</ele><time>2026-05-01T10:18:23.617Z</time></trkpt><trkpt lat="44.8159516" lon="7.2407369"><ele>489.0</ele><time>2026-05-01T10:18:24.617Z</time></trkpt><trkpt lat="44.8158927" lon="7.2408556"><ele>488.79999999999995</ele><time>2026-05-01T10:18:25.618Z</time></trkpt><trkpt lat="44.8158317" lon="7.2409811"><ele>488.59999999999997</ele><time>2026-05-01T10:18:26.617Z</time></trkpt><trkpt lat="44.8157703" lon="7.2411057"><ele>488.4</ele><time>2026-05-01T10:18:27.618Z</time></trkpt><trkpt lat="44.8157098" lon="7.2412354"><ele>488.2</ele><time>2026-05-01T10:18:28.617Z</time></trkpt><trkpt lat="44.8156506" lon="7.2413583"><ele>488.0</ele><time>2026-05-01T10:18:29.618Z</time></trkpt><trkpt lat="44.8155917" lon="7.2414858"><ele>487.59999999999997</ele><time>2026-05-01T10:18:30.617Z</time></trkpt><trkpt lat="44.8155312" lon="7.2416129"><ele>487.19999999999993</ele><time>2026-05-01T10:18:31.618Z</time></trkpt><trkpt lat="44.815467" lon="7.2417406"><ele>486.8</ele><time>2026-05-01T10:18:32.617Z</time></trkpt><trkpt lat="44.8154032" lon="7.2418738"><ele>486.4</ele><time>2026-05-01T10:18:33.618Z</time></trkpt><trkpt lat="44.8153415" lon="7.2420017"><ele>486.0</ele><time>2026-05-01T10:18:34.617Z</time></trkpt><trkpt lat="44.8152814" lon="7.2421209"><ele>486.0</ele><time>2026-05-01T10:18:35.617Z</time></trkpt><trkpt lat="44.8152233" lon="7.2422356"><ele>486.0</ele><time>2026-05-01T10:18:36.618Z</time></trkpt><trkpt lat="44.8151698" lon="7.2423373"><ele>486.0</ele><time>2026-05-01T10:18:37.617Z</time></trkpt><trkpt lat="44.815118" lon="7.2424403"><ele>486.0</ele><time>2026-05-01T10:18:38.618Z</time></trkpt><trkpt lat="44.8150737" lon="7.2425339"><ele>486.0</ele><time>2026-05-01T10:18:39.618Z</time></trkpt><trkpt lat="44.8150261" lon="7.2426231"><ele>486.0</ele><time>2026-05-01T10:18:40.617Z</time></trkpt><trkpt lat="44.8149813" lon="7.2427126"><ele>485.3333333333333</ele><time>2026-05-01T10:18:41.616Z</time></trkpt><trkpt lat="44.8149409" lon="7.2427992"><ele>484.66666666666663</ele><time>2026-05-01T10:18:42.618Z</time></trkpt><trkpt lat="44.8148945" lon="7.242895"><ele>484.0</ele><time>2026-05-01T10:18:43.618Z</time></trkpt><trkpt lat="44.8148497" lon="7.2429887"><ele>483.3333333333333</ele><time>2026-05-01T10:18:44.618Z</time></trkpt><trkpt lat="44.8147991" lon="7.2430853"><ele>482.66666666666663</ele><time>2026-05-01T10:18:45.617Z</time></trkpt><trkpt lat="44.8147514" lon="7.2431915"><ele>482.0</ele><time>2026-05-01T10:18:46.618Z</time></trkpt><trkpt lat="44.8146997" lon="7.2432996"><ele>481.6</ele><time>2026-05-01T10:18:47.617Z</time></trkpt><trkpt lat="44.814649" lon="7.2434125"><ele>481.20000000000005</ele><time>2026-05-01T10:18:48.617Z</time></trkpt><trkpt lat="44.8145973" lon="7.2435251"><ele>480.8</ele><time>2026-05-01T10:18:49.62Z</time></trkpt><trkpt lat="44.8145449" lon="7.2436322"><ele>480.4</ele><time>2026-05-01T10:18:50.618Z</time></trkpt><trkpt lat="44.8144911" lon="7.2437284"><ele>480.0</ele><time>2026-05-01T10:18:51.617Z</time></trkpt><trkpt lat="44.8144541" lon="7.2438296"><ele>480.0</ele><time>2026-05-01T10:18:52.619Z</time></trkpt><trkpt lat="44.8144103" lon="7.2439233"><ele>480.0</ele><time>2026-05-01T10:18:53.617Z</time></trkpt><trkpt lat="44.8143663" lon="7.2440138"><ele>480.0</ele><time>2026-05-01T10:18:54.617Z</time></trkpt><trkpt lat="44.8143229" lon="7.2440971"><ele>480.0</ele><time>2026-05-01T10:18:55.618Z</time></trkpt><trkpt lat="44.8142812" lon="7.2441752"><ele>480.0</ele><time>2026-05-01T10:18:56.617Z</time></trkpt><trkpt lat="44.8142413" lon="7.2442505"><ele>480.0</ele><time>2026-05-01T10:18:57.617Z</time></trkpt><trkpt lat="44.8142033" lon="7.244326"><ele>480.0</ele><time>2026-05-01T10:18:58.617Z</time></trkpt><trkpt lat="44.8141349" lon="7.2444551"><ele>479.8333333333333</ele><time>2026-05-01T10:19:00.616Z</time></trkpt><trkpt lat="44.8140792" lon="7.2445628"><ele>479.66666666666663</ele><time>2026-05-01T10:19:02.619Z</time></trkpt><trkpt lat="44.8140166" lon="7.2446897"><ele>479.5</ele><time>2026-05-01T10:19:04.618Z</time></trkpt><trkpt lat="44.8139682" lon="7.2447782"><ele>479.3333333333333</ele><time>2026-05-01T10:19:06.618Z</time></trkpt><trkpt lat="44.8139271" lon="7.2448641"><ele>479.16666666666663</ele><time>2026-05-01T10:19:09.616Z</time></trkpt><trkpt lat="44.8138719" lon="7.2449466"><ele>479.0</ele><time>2026-05-01T10:19:14.618Z</time></trkpt><trkpt lat="44.8137729" lon="7.245013"><ele>478.8333333333333</ele><time>2026-05-01T10:19:16.617Z</time></trkpt><trkpt lat="44.8136715" lon="7.2450439"><ele>478.66666666666663</ele><time>2026-05-01T10:19:18.616Z</time></trkpt><trkpt lat="44.8135976" lon="7.2450225"><ele>478.5</ele><time>2026-05-01T10:19:21.617Z</time></trkpt><trkpt lat="44.8135178" lon="7.2449985"><ele>478.33333333333337</ele><time>2026-05-01T10:19:26.619Z</time></trkpt><trkpt lat="44.8134384" lon="7.2449724"><ele>478.1666666666667</ele><time>2026-05-01T10:19:28.621Z</time></trkpt><trkpt lat="44.8133375" lon="7.2449247"><ele>478.0</ele><time>2026-05-01T10:19:30.617Z</time></trkpt><trkpt lat="44.813235" lon="7.2448768"><ele>477.4</ele><time>2026-05-01T10:19:32.617Z</time></trkpt><trkpt lat="44.8131243" lon="7.2448298"><ele>476.79999999999995</ele><time>2026-05-01T10:19:34.618Z</time></trkpt><trkpt lat="44.8130051" lon="7.2447762"><ele>476.2</ele><time>2026-05-01T10:19:36.617Z</time></trkpt><trkpt lat="44.8129453" lon="7.2447472"><ele>475.6</ele><time>2026-05-01T10:19:37.616Z</time></trkpt><trkpt lat="44.8128359" lon="7.2446978"><ele>475.0</ele><time>2026-05-01T10:19:39.618Z</time></trkpt><trkpt lat="44.8127398" lon="7.2446513"><ele>474.0</ele><time>2026-05-01T10:19:41.618Z</time></trkpt><trkpt lat="44.8126326" lon="7.2446079"><ele>473.0</ele><time>2026-05-01T10:19:43.616Z</time></trkpt><trkpt lat="44.812516" lon="7.2445631"><ele>472.0</ele><time>2026-05-01T10:19:45.618Z</time></trkpt><trkpt lat="44.8123953" lon="7.2445166"><ele>471.0</ele><time>2026-05-01T10:19:47.619Z</time></trkpt><trkpt lat="44.8122773" lon="7.2444685"><ele>471.0</ele><time>2026-05-01T10:19:49.617Z</time></trkpt><trkpt lat="44.8121595" lon="7.2444265"><ele>471.0</ele><time>2026-05-01T10:19:51.617Z</time></trkpt><trkpt lat="44.8120981" lon="7.2443991"><ele>471.0</ele><time>2026-05-01T10:19:52.618Z</time></trkpt><trkpt lat="44.8120353" lon="7.2443664"><ele>471.0</ele><time>2026-05-01T10:19:53.618Z</time></trkpt><trkpt lat="44.8119587" lon="7.2443474"><ele>471.0</ele><time>2026-05-01T10:19:54.617Z</time></trkpt><trkpt lat="44.8118613" lon="7.2443162"><ele>471.0</ele><time>2026-05-01T10:19:55.617Z</time></trkpt><trkpt lat="44.8117535" lon="7.2442708"><ele>470.5</ele><time>2026-05-01T10:19:56.617Z</time></trkpt><trkpt lat="44.8116383" lon="7.2442191"><ele>470.0</ele><time>2026-05-01T10:19:57.616Z</time></trkpt><trkpt lat="44.8115187" lon="7.2441666"><ele>469.5</ele><time>2026-05-01T10:19:58.618Z</time></trkpt><trkpt lat="44.8114092" lon="7.2441166"><ele>469.0</ele><time>2026-05-01T10:19:59.618Z</time></trkpt><trkpt lat="44.8113081" lon="7.2440685"><ele>469.00000000000006</ele><time>2026-05-01T10:20:00.617Z</time></trkpt><trkpt lat="44.8112195" lon="7.2440275"><ele>469.0</ele><time>2026-05-01T10:20:01.621Z</time></trkpt><trkpt lat="44.8111355" lon="7.2439851"><ele>469.0</ele><time>2026-05-01T10:20:02.618Z</time></trkpt><trkpt lat="44.8110539" lon="7.24395"><ele>469.0</ele><time>2026-05-01T10:20:03.617Z</time></trkpt><trkpt lat="44.8109768" lon="7.2439199"><ele>469.00000000000006</ele><time>2026-05-01T10:20:04.618Z</time></trkpt><trkpt lat="44.8109052" lon="7.2438892"><ele>469.0</ele><time>2026-05-01T10:20:05.618Z</time></trkpt><trkpt lat="44.8108285" lon="7.2438578"><ele>469.0</ele><time>2026-05-01T10:20:06.618Z</time></trkpt><trkpt lat="44.8107595" lon="7.2438333"><ele>469.0</ele><time>2026-05-01T10:20:07.62Z</time></trkpt><trkpt lat="44.8106909" lon="7.2438013"><ele>469.0</ele><time>2026-05-01T10:20:08.618Z</time></trkpt><trkpt lat="44.8106249" lon="7.2437647"><ele>469.0</ele><time>2026-05-01T10:20:09.617Z</time></trkpt><trkpt lat="44.8105613" lon="7.2437208"><ele>469.0</ele><time>2026-05-01T10:20:10.618Z</time></trkpt><trkpt lat="44.8105073" lon="7.2436643"><ele>469.0</ele><time>2026-05-01T10:20:11.617Z</time></trkpt><trkpt lat="44.810465" lon="7.2435949"><ele>469.0</ele><time>2026-05-01T10:20:12.618Z</time></trkpt><trkpt lat="44.8104297" lon="7.2435205"><ele>469.0</ele><time>2026-05-01T10:20:13.617Z</time></trkpt><trkpt lat="44.810403" lon="7.2434392"><ele>469.0</ele><time>2026-05-01T10:20:14.618Z</time></trkpt><trkpt lat="44.8103839" lon="7.2433541"><ele>469.0</ele><time>2026-05-01T10:20:15.616Z</time></trkpt><trkpt lat="44.8103694" lon="7.2432625"><ele>469.0</ele><time>2026-05-01T10:20:16.618Z</time></trkpt><trkpt lat="44.8103578" lon="7.2431694"><ele>469.0</ele><time>2026-05-01T10:20:17.618Z</time></trkpt><trkpt lat="44.8103479" lon="7.2430771"><ele>469.0</ele><time>2026-05-01T10:20:18.618Z</time></trkpt><trkpt lat="44.8103408" lon="7.2429827"><ele>469.0</ele><time>2026-05-01T10:20:19.617Z</time></trkpt><trkpt lat="44.810328" lon="7.2428831"><ele>469.00000000000006</ele><time>2026-05-01T10:20:20.618Z</time></trkpt><trkpt lat="44.8103168" lon="7.2427838"><ele>469.0</ele><time>2026-05-01T10:20:21.618Z</time></trkpt><trkpt lat="44.810308" lon="7.2426849"><ele>469.0</ele><time>2026-05-01T10:20:22.618Z</time></trkpt><trkpt lat="44.810301" lon="7.2425895"><ele>469.0</ele><time>2026-05-01T10:20:23.619Z</time></trkpt><trkpt lat="44.810292" lon="7.2424984"><ele>469.00000000000006</ele><time>2026-05-01T10:20:24.618Z</time></trkpt><trkpt lat="44.8102691" lon="7.2423298"><ele>469.0</ele><time>2026-05-01T10:20:26.623Z</time></trkpt><trkpt lat="44.8102528" lon="7.2421654"><ele>469.33333333333337</ele><time>2026-05-01T10:20:28.618Z</time></trkpt><trkpt lat="44.8102346" lon="7.24199"><ele>469.6666666666667</ele><time>2026-05-01T10:20:30.617Z</time></trkpt><trkpt lat="44.8102218" lon="7.2418963"><ele>470.0</ele><time>2026-05-01T10:20:31.616Z</time></trkpt><trkpt lat="44.8102063" lon="7.2417994"><ele>470.33333333333337</ele><time>2026-05-01T10:20:32.617Z</time></trkpt><trkpt lat="44.8101749" lon="7.2417116"><ele>470.6666666666667</ele><time>2026-05-01T10:20:33.617Z</time></trkpt><trkpt lat="44.8101131" lon="7.2416636"><ele>471.0</ele><time>2026-05-01T10:20:34.617Z</time></trkpt><trkpt lat="44.8100343" lon="7.2416573"><ele>473.6</ele><time>2026-05-01T10:20:35.618Z</time></trkpt><trkpt lat="44.8099665" lon="7.241708"><ele>476.20000000000005</ele><time>2026-05-01T10:20:36.617Z</time></trkpt><trkpt lat="44.8099219" lon="7.2418014"><ele>478.79999999999995</ele><time>2026-05-01T10:20:37.616Z</time></trkpt><trkpt lat="44.8098841" lon="7.2419297"><ele>481.4</ele><time>2026-05-01T10:20:38.616Z</time></trkpt><trkpt lat="44.8098443" lon="7.2420912"><ele>484.0</ele><time>2026-05-01T10:20:39.619Z</time></trkpt><trkpt lat="44.8097934" lon="7.2422821"><ele>483.0</ele><time>2026-05-01T10:20:40.617Z</time></trkpt><trkpt lat="44.8097481" lon="7.2424547"><ele>482.0</ele><time>2026-05-01T10:20:41.618Z</time></trkpt><trkpt lat="44.8097127" lon="7.2426121"><ele>481.0</ele><time>2026-05-01T10:20:42.62Z</time></trkpt><trkpt lat="44.8096767" lon="7.2427597"><ele>480.0</ele><time>2026-05-01T10:20:43.619Z</time></trkpt><trkpt lat="44.8096386" lon="7.2429051"><ele>480.0</ele><time>2026-05-01T10:20:44.618Z</time></trkpt><trkpt lat="44.8096065" lon="7.243029"><ele>480.0</ele><time>2026-05-01T10:20:45.618Z</time></trkpt><trkpt lat="44.8095733" lon="7.2431429"><ele>480.0</ele><time>2026-05-01T10:20:46.617Z</time></trkpt><trkpt lat="44.8095222" lon="7.2432295"><ele>480.0</ele><time>2026-05-01T10:20:47.617Z</time></trkpt><trkpt lat="44.8094444" lon="7.2432761"><ele>480.0</ele><time>2026-05-01T10:20:48.618Z</time></trkpt><trkpt lat="44.8093596" lon="7.2432888"><ele>480.0</ele><time>2026-05-01T10:20:49.619Z</time></trkpt><trkpt lat="44.8092664" lon="7.2432908"><ele>482.0</ele><time>2026-05-01T10:20:50.619Z</time></trkpt><trkpt lat="44.8091731" lon="7.2432872"><ele>484.0</ele><time>2026-05-01T10:20:51.622Z</time></trkpt><trkpt lat="44.8090805" lon="7.2432816"><ele>486.0</ele><time>2026-05-01T10:20:52.619Z</time></trkpt><trkpt lat="44.8089933" lon="7.2432709"><ele>488.0</ele><time>2026-05-01T10:20:53.619Z</time></trkpt><trkpt lat="44.8089149" lon="7.2432461"><ele>490.0</ele><time>2026-05-01T10:20:54.619Z</time></trkpt><trkpt lat="44.8088385" lon="7.2431984"><ele>492.0</ele><time>2026-05-01T10:20:55.618Z</time></trkpt><trkpt lat="44.8087539" lon="7.2431205"><ele>492.0</ele><time>2026-05-01T10:20:56.62Z</time></trkpt><trkpt lat="44.8086594" lon="7.2430261"><ele>492.0</ele><time>2026-05-01T10:20:57.618Z</time></trkpt><trkpt lat="44.8085433" lon="7.2429413"><ele>492.0</ele><time>2026-05-01T10:20:58.618Z</time></trkpt><trkpt lat="44.8084254" lon="7.2428707"><ele>492.0</ele><time>2026-05-01T10:20:59.618Z</time></trkpt><trkpt lat="44.808306" lon="7.2428305"><ele>493.25</ele><time>2026-05-01T10:21:00.617Z</time></trkpt><trkpt lat="44.8081749" lon="7.2428075"><ele>494.5</ele><time>2026-05-01T10:21:01.618Z</time></trkpt><trkpt lat="44.8080437" lon="7.2427922"><ele>495.75</ele><time>2026-05-01T10:21:02.619Z</time></trkpt><trkpt lat="44.8079155" lon="7.2427811"><ele>497.0</ele><time>2026-05-01T10:21:03.619Z</time></trkpt><trkpt lat="44.8077896" lon="7.2427728"><ele>497.0</ele><time>2026-05-01T10:21:04.619Z</time></trkpt><trkpt lat="44.8076666" lon="7.2427683"><ele>497.0</ele><time>2026-05-01T10:21:05.618Z</time></trkpt><trkpt lat="44.8075434" lon="7.2427603"><ele>497.0</ele><time>2026-05-01T10:21:06.619Z</time></trkpt><trkpt lat="44.8074188" lon="7.2427456"><ele>497.0</ele><time>2026-05-01T10:21:07.619Z</time></trkpt><trkpt lat="44.8072858" lon="7.2427424"><ele>498.0</ele><time>2026-05-01T10:21:08.619Z</time></trkpt><trkpt lat="44.8071575" lon="7.2427373"><ele>499.0</ele><time>2026-05-01T10:21:09.619Z</time></trkpt><trkpt lat="44.80703" lon="7.2427318"><ele>500.0</ele><time>2026-05-01T10:21:10.618Z</time></trkpt><trkpt lat="44.8068947" lon="7.2427399"><ele>501.0</ele><time>2026-05-01T10:21:11.618Z</time></trkpt><trkpt lat="44.8067708" lon="7.2427766"><ele>502.5</ele><time>2026-05-01T10:21:12.618Z</time></trkpt><trkpt lat="44.8066448" lon="7.2428493"><ele>504.0</ele><time>2026-05-01T10:21:13.618Z</time></trkpt><trkpt lat="44.8065142" lon="7.2429297"><ele>505.5</ele><time>2026-05-01T10:21:14.619Z</time></trkpt><trkpt lat="44.8063881" lon="7.2430048"><ele>507.0</ele><time>2026-05-01T10:21:15.619Z</time></trkpt><trkpt lat="44.8062701" lon="7.2430726"><ele>507.0</ele><time>2026-05-01T10:21:16.618Z</time></trkpt><trkpt lat="44.8061557" lon="7.2431119"><ele>507.0</ele><time>2026-05-01T10:21:17.619Z</time></trkpt><trkpt lat="44.8060382" lon="7.243117"><ele>507.0</ele><time>2026-05-01T10:21:18.618Z</time></trkpt><trkpt lat="44.8059182" lon="7.2431019"><ele>507.0</ele><time>2026-05-01T10:21:19.619Z</time></trkpt><trkpt lat="44.8058065" lon="7.2430865"><ele>510.6</ele><time>2026-05-01T10:21:20.618Z</time></trkpt><trkpt lat="44.805695" lon="7.2430703"><ele>514.2</ele><time>2026-05-01T10:21:21.618Z</time></trkpt><trkpt lat="44.805581" lon="7.2430323"><ele>517.8</ele><time>2026-05-01T10:21:22.62Z</time></trkpt><trkpt lat="44.8054799" lon="7.2429803"><ele>521.4</ele><time>2026-05-01T10:21:23.618Z</time></trkpt><trkpt lat="44.805396" lon="7.2429233"><ele>525.0</ele><time>2026-05-01T10:21:24.616Z</time></trkpt><trkpt lat="44.8053265" lon="7.2428687"><ele>525.0</ele><time>2026-05-01T10:21:25.619Z</time></trkpt><trkpt lat="44.8052688" lon="7.2427996"><ele>525.0</ele><time>2026-05-01T10:21:26.617Z</time></trkpt><trkpt lat="44.8052174" lon="7.2427425"><ele>525.0</ele><time>2026-05-01T10:21:27.618Z</time></trkpt><trkpt lat="44.8051041" lon="7.2426996"><ele>525.0</ele><time>2026-05-01T10:21:29.618Z</time></trkpt><trkpt lat="44.8050337" lon="7.2428098"><ele>525.0</ele><time>2026-05-01T10:21:31.617Z</time></trkpt><trkpt lat="44.8050525" lon="7.2429791"><ele>521.6</ele><time>2026-05-01T10:21:33.619Z</time></trkpt><trkpt lat="44.8050718" lon="7.2430857"><ele>518.2</ele><time>2026-05-01T10:21:34.619Z</time></trkpt><trkpt lat="44.8050859" lon="7.2432068"><ele>514.8</ele><time>2026-05-01T10:21:35.618Z</time></trkpt><trkpt lat="44.8050874" lon="7.2433364"><ele>511.4</ele><time>2026-05-01T10:21:36.618Z</time></trkpt><trkpt lat="44.8050848" lon="7.2434717"><ele>508.0</ele><time>2026-05-01T10:21:37.618Z</time></trkpt><trkpt lat="44.8050765" lon="7.2436184"><ele>506.2</ele><time>2026-05-01T10:21:38.62Z</time></trkpt><trkpt lat="44.8050612" lon="7.2437692"><ele>504.4</ele><time>2026-05-01T10:21:39.618Z</time></trkpt><trkpt lat="44.8050402" lon="7.2439249"><ele>502.59999999999997</ele><time>2026-05-01T10:21:40.619Z</time></trkpt><trkpt lat="44.8050116" lon="7.2440772"><ele>500.79999999999995</ele><time>2026-05-01T10:21:41.618Z</time></trkpt><trkpt lat="44.80498" lon="7.2442201"><ele>499.0</ele><time>2026-05-01T10:21:42.619Z</time></trkpt><trkpt lat="44.8049411" lon="7.2443647"><ele>498.0</ele><time>2026-05-01T10:21:43.619Z</time></trkpt><trkpt lat="44.8048946" lon="7.2445091"><ele>497.0</ele><time>2026-05-01T10:21:44.62Z</time></trkpt><trkpt lat="44.8048389" lon="7.2446484"><ele>496.0</ele><time>2026-05-01T10:21:45.618Z</time></trkpt><trkpt lat="44.8047816" lon="7.2447793"><ele>495.0</ele><time>2026-05-01T10:21:46.619Z</time></trkpt><trkpt lat="44.8047164" lon="7.2449104"><ele>494.0</ele><time>2026-05-01T10:21:47.619Z</time></trkpt><trkpt lat="44.8046484" lon="7.2450412"><ele>493.6</ele><time>2026-05-01T10:21:48.619Z</time></trkpt><trkpt lat="44.8045832" lon="7.2451792"><ele>493.2</ele><time>2026-05-01T10:21:49.619Z</time></trkpt><trkpt lat="44.8045252" lon="7.2453035"><ele>492.80000000000007</ele><time>2026-05-01T10:21:50.619Z</time></trkpt><trkpt lat="44.8044671" lon="7.2454199"><ele>492.40000000000003</ele><time>2026-05-01T10:21:51.618Z</time></trkpt><trkpt lat="44.8044115" lon="7.2455341"><ele>492.0</ele><time>2026-05-01T10:21:52.62Z</time></trkpt><trkpt lat="44.8043585" lon="7.2456488"><ele>491.8</ele><time>2026-05-01T10:21:53.619Z</time></trkpt><trkpt lat="44.8043047" lon="7.2457608"><ele>491.6</ele><time>2026-05-01T10:21:54.618Z</time></trkpt><trkpt lat="44.8042463" lon="7.2458784"><ele>491.40000000000003</ele><time>2026-05-01T10:21:55.618Z</time></trkpt><trkpt lat="44.8041925" lon="7.2459957"><ele>491.20000000000005</ele><time>2026-05-01T10:21:56.619Z</time></trkpt><trkpt lat="44.8041409" lon="7.2461227"><ele>491.0</ele><time>2026-05-01T10:21:57.619Z</time></trkpt><trkpt lat="44.8041056" lon="7.2462539"><ele>491.0</ele><time>2026-05-01T10:21:58.619Z</time></trkpt><trkpt lat="44.8040843" lon="7.2463956"><ele>491.0</ele><time>2026-05-01T10:21:59.618Z</time></trkpt><trkpt lat="44.8040849" lon="7.2465327"><ele>491.0</ele><time>2026-05-01T10:22:00.619Z</time></trkpt><trkpt lat="44.8041002" lon="7.2466734"><ele>491.0</ele><time>2026-05-01T10:22:01.618Z</time></trkpt><trkpt lat="44.804118" lon="7.2468124"><ele>491.0</ele><time>2026-05-01T10:22:02.618Z</time></trkpt><trkpt lat="44.8041547" lon="7.2469403"><ele>491.0</ele><time>2026-05-01T10:22:03.619Z</time></trkpt><trkpt lat="44.8042029" lon="7.2470676"><ele>491.0</ele><time>2026-05-01T10:22:04.62Z</time></trkpt><trkpt lat="44.8043019" lon="7.2472077"><ele>491.0</ele><time>2026-05-01T10:22:05.619Z</time></trkpt><trkpt lat="44.8044107" lon="7.2473698"><ele>491.0</ele><time>2026-05-01T10:22:06.619Z</time></trkpt><trkpt lat="44.8045198" lon="7.2475363"><ele>488.5</ele><time>2026-05-01T10:22:07.619Z</time></trkpt><trkpt lat="44.8046174" lon="7.2477022"><ele>486.0</ele><time>2026-05-01T10:22:08.618Z</time></trkpt><trkpt lat="44.8047023" lon="7.2478708"><ele>483.5</ele><time>2026-05-01T10:22:09.618Z</time></trkpt><trkpt lat="44.8047838" lon="7.2480236"><ele>481.0</ele><time>2026-05-01T10:22:10.62Z</time></trkpt><trkpt lat="44.8048559" lon="7.2481688"><ele>481.0</ele><time>2026-05-01T10:22:11.619Z</time></trkpt><trkpt lat="44.8049245" lon="7.2483021"><ele>481.0</ele><time>2026-05-01T10:22:12.619Z</time></trkpt><trkpt lat="44.8049924" lon="7.2484407"><ele>481.0</ele><time>2026-05-01T10:22:13.62Z</time></trkpt><trkpt lat="44.8050529" lon="7.2485935"><ele>481.0</ele><time>2026-05-01T10:22:14.62Z</time></trkpt><trkpt lat="44.8051052" lon="7.2487453"><ele>481.0</ele><time>2026-05-01T10:22:15.619Z</time></trkpt><trkpt lat="44.8051504" lon="7.2489028"><ele>481.0</ele><time>2026-05-01T10:22:16.619Z</time></trkpt><trkpt lat="44.8052071" lon="7.2490732"><ele>481.0</ele><time>2026-05-01T10:22:17.62Z</time></trkpt><trkpt lat="44.8052745" lon="7.2492833"><ele>481.0</ele><time>2026-05-01T10:22:18.618Z</time></trkpt><trkpt lat="44.8053422" lon="7.2495317"><ele>475.6666666666667</ele><time>2026-05-01T10:22:19.62Z</time></trkpt><trkpt lat="44.8054065" lon="7.2497939"><ele>470.33333333333337</ele><time>2026-05-01T10:22:20.619Z</time></trkpt><trkpt lat="44.8054834" lon="7.2500787"><ele>465.0</ele><time>2026-05-01T10:22:21.616Z</time></trkpt><trkpt lat="44.8055658" lon="7.2503731"><ele>466.66666666666663</ele><time>2026-05-01T10:22:22.618Z</time></trkpt><trkpt lat="44.8056483" lon="7.2506543"><ele>468.3333333333333</ele><time>2026-05-01T10:22:23.619Z</time></trkpt><trkpt lat="44.8057262" lon="7.2509163"><ele>470.0</ele><time>2026-05-01T10:22:24.622Z</time></trkpt><trkpt lat="44.8057968" lon="7.2511637"><ele>470.0</ele><time>2026-05-01T10:22:25.618Z</time></trkpt><trkpt lat="44.8058507" lon="7.2514115"><ele>470.0</ele><time>2026-05-01T10:22:26.619Z</time></trkpt><trkpt lat="44.8058853" lon="7.2516504"><ele>470.0</ele><time>2026-05-01T10:22:27.618Z</time></trkpt><trkpt lat="44.8058988" lon="7.2518989"><ele>471.3333333333333</ele><time>2026-05-01T10:22:28.618Z</time></trkpt><trkpt lat="44.8058919" lon="7.2521668"><ele>472.66666666666663</ele><time>2026-05-01T10:22:29.619Z</time></trkpt><trkpt lat="44.8058675" lon="7.2524533"><ele>474.0</ele><time>2026-05-01T10:22:30.618Z</time></trkpt><trkpt lat="44.8058527" lon="7.2527547"><ele>474.0</ele><time>2026-05-01T10:22:31.62Z</time></trkpt><trkpt lat="44.8058398" lon="7.2530714"><ele>474.0</ele><time>2026-05-01T10:22:32.617Z</time></trkpt><trkpt lat="44.8058347" lon="7.253394"><ele>474.0</ele><time>2026-05-01T10:22:33.618Z</time></trkpt><trkpt lat="44.8058313" lon="7.2536892"><ele>474.0</ele><time>2026-05-01T10:22:34.618Z</time></trkpt><trkpt lat="44.805826" lon="7.2539595"><ele>474.0</ele><time>2026-05-01T10:22:35.618Z</time></trkpt><trkpt lat="44.8058167" lon="7.2542065"><ele>475.33333333333337</ele><time>2026-05-01T10:22:36.618Z</time></trkpt><trkpt lat="44.8057921" lon="7.254432"><ele>476.6666666666667</ele><time>2026-05-01T10:22:37.619Z</time></trkpt><trkpt lat="44.8057509" lon="7.254658"><ele>478.0</ele><time>2026-05-01T10:22:38.618Z</time></trkpt><trkpt lat="44.8056886" lon="7.2548724"><ele>479.6666666666667</ele><time>2026-05-01T10:22:39.619Z</time></trkpt><trkpt lat="44.8056012" lon="7.2550682"><ele>481.33333333333337</ele><time>2026-05-01T10:22:40.619Z</time></trkpt><trkpt lat="44.8055125" lon="7.2552611"><ele>483.0</ele><time>2026-05-01T10:22:41.62Z</time></trkpt><trkpt lat="44.8053716" lon="7.255381"><ele>483.0</ele><time>2026-05-01T10:22:42.618Z</time></trkpt><trkpt lat="44.8052325" lon="7.2555075"><ele>483.0</ele><time>2026-05-01T10:22:43.618Z</time></trkpt><trkpt lat="44.8050969" lon="7.2556101"><ele>483.0</ele><time>2026-05-01T10:22:44.619Z</time></trkpt><trkpt lat="44.8049843" lon="7.2556816"><ele>483.0</ele><time>2026-05-01T10:22:45.617Z</time></trkpt><trkpt lat="44.8048872" lon="7.2557356"><ele>483.8333333333333</ele><time>2026-05-01T10:22:46.618Z</time></trkpt><trkpt lat="44.8047966" lon="7.2557521"><ele>484.66666666666663</ele><time>2026-05-01T10:22:47.617Z</time></trkpt><trkpt lat="44.8047141" lon="7.2557344"><ele>485.5</ele><time>2026-05-01T10:22:48.618Z</time></trkpt><trkpt lat="44.8046395" lon="7.2557434"><ele>486.3333333333333</ele><time>2026-05-01T10:22:49.618Z</time></trkpt><trkpt lat="44.8045844" lon="7.2558037"><ele>487.16666666666663</ele><time>2026-05-01T10:22:50.618Z</time></trkpt><trkpt lat="44.8045507" lon="7.2558905"><ele>488.0</ele><time>2026-05-01T10:22:51.618Z</time></trkpt><trkpt lat="44.8045518" lon="7.2559961"><ele>488.0</ele><time>2026-05-01T10:22:52.617Z</time></trkpt><trkpt lat="44.8045892" lon="7.2561168"><ele>488.0</ele><time>2026-05-01T10:22:53.621Z</time></trkpt><trkpt lat="44.8046455" lon="7.2562728"><ele>488.0</ele><time>2026-05-01T10:22:54.618Z</time></trkpt><trkpt lat="44.8047073" lon="7.2564643"><ele>488.0</ele><time>2026-05-01T10:22:55.618Z</time></trkpt><trkpt lat="44.8047837" lon="7.2566725"><ele>487.0</ele><time>2026-05-01T10:22:56.618Z</time></trkpt><trkpt lat="44.8048563" lon="7.2568733"><ele>486.0</ele><time>2026-05-01T10:22:57.618Z</time></trkpt><trkpt lat="44.8049345" lon="7.2570732"><ele>485.0</ele><time>2026-05-01T10:22:58.618Z</time></trkpt><trkpt lat="44.8050085" lon="7.2572767"><ele>484.0</ele><time>2026-05-01T10:22:59.619Z</time></trkpt><trkpt lat="44.8050738" lon="7.2574714"><ele>483.0</ele><time>2026-05-01T10:23:00.618Z</time></trkpt><trkpt lat="44.8051422" lon="7.2576678"><ele>482.0</ele><time>2026-05-01T10:23:01.618Z</time></trkpt><trkpt lat="44.8052015" lon="7.2578593"><ele>482.0</ele><time>2026-05-01T10:23:02.619Z</time></trkpt><trkpt lat="44.8052422" lon="7.2580596"><ele>482.0</ele><time>2026-05-01T10:23:03.62Z</time></trkpt><trkpt lat="44.8052673" lon="7.2582785"><ele>482.0</ele><time>2026-05-01T10:23:04.618Z</time></trkpt><trkpt lat="44.8052746" lon="7.258526"><ele>480.66666666666663</ele><time>2026-05-01T10:23:05.619Z</time></trkpt><trkpt lat="44.8052811" lon="7.2588005"><ele>479.33333333333337</ele><time>2026-05-01T10:23:06.617Z</time></trkpt><trkpt lat="44.8052787" lon="7.2591148"><ele>478.0</ele><time>2026-05-01T10:23:07.617Z</time></trkpt><trkpt lat="44.805265" lon="7.2594459"><ele>476.0</ele><time>2026-05-01T10:23:08.617Z</time></trkpt><trkpt lat="44.8052422" lon="7.2597733"><ele>474.0</ele><time>2026-05-01T10:23:09.617Z</time></trkpt><trkpt lat="44.8052283" lon="7.2601096"><ele>472.0</ele><time>2026-05-01T10:23:10.619Z</time></trkpt><trkpt lat="44.8052274" lon="7.2604364"><ele>470.0</ele><time>2026-05-01T10:23:11.619Z</time></trkpt><trkpt lat="44.8052373" lon="7.2607477"><ele>469.0</ele><time>2026-05-01T10:23:12.618Z</time></trkpt><trkpt lat="44.8052479" lon="7.2610363"><ele>468.0</ele><time>2026-05-01T10:23:13.619Z</time></trkpt><trkpt lat="44.8052531" lon="7.2613099"><ele>467.0</ele><time>2026-05-01T10:23:14.618Z</time></trkpt><trkpt lat="44.8052776" lon="7.2615667"><ele>465.0</ele><time>2026-05-01T10:23:15.619Z</time></trkpt><trkpt lat="44.8053299" lon="7.261819"><ele>463.0</ele><time>2026-05-01T10:23:16.621Z</time></trkpt><trkpt lat="44.8053875" lon="7.2620705"><ele>461.0</ele><time>2026-05-01T10:23:17.618Z</time></trkpt><trkpt lat="44.8054413" lon="7.2623022"><ele>460.3333333333333</ele><time>2026-05-01T10:23:18.619Z</time></trkpt><trkpt lat="44.8054833" lon="7.2625245"><ele>459.66666666666663</ele><time>2026-05-01T10:23:19.618Z</time></trkpt><trkpt lat="44.8055199" lon="7.2627416"><ele>459.0</ele><time>2026-05-01T10:23:20.618Z</time></trkpt><trkpt lat="44.8055363" lon="7.2629687"><ele>460.33333333333337</ele><time>2026-05-01T10:23:21.618Z</time></trkpt><trkpt lat="44.8055398" lon="7.2631983"><ele>461.6666666666667</ele><time>2026-05-01T10:23:22.619Z</time></trkpt><trkpt lat="44.8055301" lon="7.2634186"><ele>463.0</ele><time>2026-05-01T10:23:23.618Z</time></trkpt><trkpt lat="44.8055024" lon="7.2636445"><ele>463.0</ele><time>2026-05-01T10:23:24.619Z</time></trkpt><trkpt lat="44.8054648" lon="7.2638723"><ele>463.0</ele><time>2026-05-01T10:23:25.62Z</time></trkpt><trkpt lat="44.8054252" lon="7.264097"><ele>463.0</ele><time>2026-05-01T10:23:26.619Z</time></trkpt><trkpt lat="44.8053886" lon="7.2643154"><ele>464.0</ele><time>2026-05-01T10:23:27.618Z</time></trkpt><trkpt lat="44.8053512" lon="7.2645297"><ele>465.0</ele><time>2026-05-01T10:23:28.619Z</time></trkpt><trkpt lat="44.8053137" lon="7.2647419"><ele>466.0</ele><time>2026-05-01T10:23:29.618Z</time></trkpt><trkpt lat="44.8052793" lon="7.2649526"><ele>466.0</ele><time>2026-05-01T10:23:30.619Z</time></trkpt><trkpt lat="44.8052452" lon="7.2651453"><ele>466.0</ele><time>2026-05-01T10:23:31.618Z</time></trkpt><trkpt lat="44.8052102" lon="7.2653312"><ele>466.0</ele><time>2026-05-01T10:23:32.619Z</time></trkpt><trkpt lat="44.8051828" lon="7.2655116"><ele>466.0</ele><time>2026-05-01T10:23:33.619Z</time></trkpt><trkpt lat="44.8051635" lon="7.2656947"><ele>466.0</ele><time>2026-05-01T10:23:34.619Z</time></trkpt><trkpt lat="44.8051564" lon="7.2658814"><ele>466.0</ele><time>2026-05-01T10:23:35.62Z</time></trkpt><trkpt lat="44.805157" lon="7.2660679"><ele>466.0</ele><time>2026-05-01T10:23:36.618Z</time></trkpt><trkpt lat="44.8051645" lon="7.266267"><ele>466.0</ele><time>2026-05-01T10:23:37.619Z</time></trkpt><trkpt lat="44.8051771" lon="7.2664658"><ele>465.75</ele><time>2026-05-01T10:23:38.618Z</time></trkpt><trkpt lat="44.8051986" lon="7.26667"><ele>465.5</ele><time>2026-05-01T10:23:39.618Z</time></trkpt><trkpt lat="44.8052318" lon="7.2668746"><ele>465.25</ele><time>2026-05-01T10:23:40.618Z</time></trkpt><trkpt lat="44.8052744" lon="7.2670805"><ele>465.0</ele><time>2026-05-01T10:23:41.619Z</time></trkpt><trkpt lat="44.8053263" lon="7.2672855"><ele>465.0</ele><time>2026-05-01T10:23:42.619Z</time></trkpt><trkpt lat="44.8053807" lon="7.2674959"><ele>465.0</ele><time>2026-05-01T10:23:43.618Z</time></trkpt><trkpt lat="44.8054305" lon="7.2677078"><ele>465.0</ele><time>2026-05-01T10:23:44.619Z</time></trkpt><trkpt lat="44.8054606" lon="7.2679195"><ele>463.66666666666663</ele><time>2026-05-01T10:23:45.618Z</time></trkpt><trkpt lat="44.8054921" lon="7.2681354"><ele>462.3333333333333</ele><time>2026-05-01T10:23:46.618Z</time></trkpt><trkpt lat="44.8055249" lon="7.2683556"><ele>461.0</ele><time>2026-05-01T10:23:47.619Z</time></trkpt><trkpt lat="44.8055595" lon="7.2685745"><ele>461.0</ele><time>2026-05-01T10:23:48.619Z</time></trkpt><trkpt lat="44.805597" lon="7.268794"><ele>461.0</ele><time>2026-05-01T10:23:49.617Z</time></trkpt><trkpt lat="44.8056333" lon="7.2690131"><ele>461.0</ele><time>2026-05-01T10:23:50.618Z</time></trkpt><trkpt lat="44.8056693" lon="7.2692338"><ele>461.0</ele><time>2026-05-01T10:23:51.619Z</time></trkpt><trkpt lat="44.8057028" lon="7.2694561"><ele>461.0</ele><time>2026-05-01T10:23:52.62Z</time></trkpt><trkpt lat="44.8057386" lon="7.2696788"><ele>461.0</ele><time>2026-05-01T10:23:53.618Z</time></trkpt><trkpt lat="44.8057785" lon="7.2698919"><ele>460.0</ele><time>2026-05-01T10:23:54.619Z</time></trkpt><trkpt lat="44.8058275" lon="7.2701036"><ele>459.0</ele><time>2026-05-01T10:23:55.619Z</time></trkpt><trkpt lat="44.8058874" lon="7.2703111"><ele>458.0</ele><time>2026-05-01T10:23:56.62Z</time></trkpt><trkpt lat="44.8059589" lon="7.2705182"><ele>454.3333333333333</ele><time>2026-05-01T10:23:57.619Z</time></trkpt><trkpt lat="44.8060426" lon="7.2707271"><ele>450.66666666666663</ele><time>2026-05-01T10:23:58.62Z</time></trkpt><trkpt lat="44.8061234" lon="7.2709223"><ele>447.0</ele><time>2026-05-01T10:23:59.619Z</time></trkpt><trkpt lat="44.8061967" lon="7.2711115"><ele>447.0</ele><time>2026-05-01T10:24:00.619Z</time></trkpt><trkpt lat="44.8062671" lon="7.2712872"><ele>447.0</ele><time>2026-05-01T10:24:01.618Z</time></trkpt><trkpt lat="44.80634" lon="7.2714686"><ele>447.0</ele><time>2026-05-01T10:24:02.618Z</time></trkpt><trkpt lat="44.8064078" lon="7.2716391"><ele>447.0</ele><time>2026-05-01T10:24:03.619Z</time></trkpt><trkpt lat="44.8064718" lon="7.2717991"><ele>448.8</ele><time>2026-05-01T10:24:04.619Z</time></trkpt><trkpt lat="44.806527" lon="7.2719422"><ele>450.6</ele><time>2026-05-01T10:24:05.619Z</time></trkpt><trkpt lat="44.8065689" lon="7.272073"><ele>452.40000000000003</ele><time>2026-05-01T10:24:06.618Z</time></trkpt><trkpt lat="44.8065996" lon="7.2721935"><ele>454.20000000000005</ele><time>2026-05-01T10:24:07.619Z</time></trkpt><trkpt lat="44.8066131" lon="7.2723079"><ele>456.0</ele><time>2026-05-01T10:24:08.619Z</time></trkpt><trkpt lat="44.8066124" lon="7.2724222"><ele>456.0</ele><time>2026-05-01T10:24:09.619Z</time></trkpt><trkpt lat="44.806592" lon="7.2725236"><ele>456.0</ele><time>2026-05-01T10:24:10.618Z</time></trkpt><trkpt lat="44.8065639" lon="7.2726097"><ele>456.0</ele><time>2026-05-01T10:24:11.621Z</time></trkpt><trkpt lat="44.8065587" lon="7.2727822"><ele>456.0</ele><time>2026-05-01T10:24:13.619Z</time></trkpt><trkpt lat="44.8066414" lon="7.2728969"><ele>456.0</ele><time>2026-05-01T10:24:15.618Z</time></trkpt><trkpt lat="44.8067087" lon="7.2729248"><ele>456.0</ele><time>2026-05-01T10:24:16.618Z</time></trkpt><trkpt lat="44.806783" lon="7.2729627"><ele>456.0</ele><time>2026-05-01T10:24:17.618Z</time></trkpt><trkpt lat="44.8068623" lon="7.2730213"><ele>456.0</ele><time>2026-05-01T10:24:18.618Z</time></trkpt><trkpt lat="44.8069366" lon="7.2730975"><ele>456.0</ele><time>2026-05-01T10:24:19.619Z</time></trkpt><trkpt lat="44.807007" lon="7.2731854"><ele>456.0</ele><time>2026-05-01T10:24:20.618Z</time></trkpt><trkpt lat="44.8070868" lon="7.2732918"><ele>456.5</ele><time>2026-05-01T10:24:21.618Z</time></trkpt><trkpt lat="44.8071692" lon="7.273406"><ele>457.0</ele><time>2026-05-01T10:24:22.618Z</time></trkpt><trkpt lat="44.8072544" lon="7.27352"><ele>457.5</ele><time>2026-05-01T10:24:23.619Z</time></trkpt><trkpt lat="44.8073366" lon="7.2736385"><ele>458.0</ele><time>2026-05-01T10:24:24.622Z</time></trkpt><trkpt lat="44.8074143" lon="7.2737604"><ele>458.0</ele><time>2026-05-01T10:24:25.618Z</time></trkpt><trkpt lat="44.8074807" lon="7.273893"><ele>458.0</ele><time>2026-05-01T10:24:26.619Z</time></trkpt><trkpt lat="44.807531" lon="7.2740361"><ele>458.0</ele><time>2026-05-01T10:24:27.618Z</time></trkpt><trkpt lat="44.8075657" lon="7.2741942"><ele>458.0</ele><time>2026-05-01T10:24:28.618Z</time></trkpt><trkpt lat="44.8075825" lon="7.2743657"><ele>457.0</ele><time>2026-05-01T10:24:29.618Z</time></trkpt><trkpt lat="44.8075785" lon="7.2745436"><ele>456.0</ele><time>2026-05-01T10:24:30.619Z</time></trkpt><trkpt lat="44.8075498" lon="7.2747238"><ele>455.0</ele><time>2026-05-01T10:24:31.618Z</time></trkpt><trkpt lat="44.807498" lon="7.2749408"><ele>454.0</ele><time>2026-05-01T10:24:32.618Z</time></trkpt><trkpt lat="44.807429" lon="7.275194"><ele>452.33333333333337</ele><time>2026-05-01T10:24:33.618Z</time></trkpt><trkpt lat="44.8073511" lon="7.2754539"><ele>450.66666666666663</ele><time>2026-05-01T10:24:34.618Z</time></trkpt><trkpt lat="44.8072605" lon="7.2757314"><ele>449.0</ele><time>2026-05-01T10:24:35.618Z</time></trkpt><trkpt lat="44.807165" lon="7.2760225"><ele>443.5</ele><time>2026-05-01T10:24:36.623Z</time></trkpt><trkpt lat="44.80707" lon="7.2763147"><ele>438.0</ele><time>2026-05-01T10:24:37.618Z</time></trkpt><trkpt lat="44.8069757" lon="7.2766113"><ele>436.66666666666663</ele><time>2026-05-01T10:24:38.619Z</time></trkpt><trkpt lat="44.8068873" lon="7.2768893"><ele>435.3333333333333</ele><time>2026-05-01T10:24:39.618Z</time></trkpt><trkpt lat="44.8068044" lon="7.2771564"><ele>434.0</ele><time>2026-05-01T10:24:40.619Z</time></trkpt><trkpt lat="44.8067328" lon="7.2774309"><ele>434.0</ele><time>2026-05-01T10:24:41.618Z</time></trkpt><trkpt lat="44.8066745" lon="7.2777201"><ele>434.0</ele><time>2026-05-01T10:24:42.618Z</time></trkpt><trkpt lat="44.8066389" lon="7.2780161"><ele>434.0</ele><time>2026-05-01T10:24:43.618Z</time></trkpt><trkpt lat="44.8066201" lon="7.2783363"><ele>431.5</ele><time>2026-05-01T10:24:44.617Z</time></trkpt><trkpt lat="44.8066178" lon="7.278681"><ele>429.0</ele><time>2026-05-01T10:24:45.619Z</time></trkpt><trkpt lat="44.806624" lon="7.2790346"><ele>427.0</ele><time>2026-05-01T10:24:46.62Z</time></trkpt><trkpt lat="44.8066358" lon="7.2793795"><ele>425.0</ele><time>2026-05-01T10:24:47.618Z</time></trkpt><trkpt lat="44.8066526" lon="7.2797058"><ele>424.66666666666663</ele><time>2026-05-01T10:24:48.619Z</time></trkpt><trkpt lat="44.8066539" lon="7.2800173"><ele>424.33333333333337</ele><time>2026-05-01T10:24:49.618Z</time></trkpt><trkpt lat="44.8066444" lon="7.2803269"><ele>424.0</ele><time>2026-05-01T10:24:50.618Z</time></trkpt><trkpt lat="44.8066199" lon="7.2806248"><ele>423.6666666666667</ele><time>2026-05-01T10:24:51.618Z</time></trkpt><trkpt lat="44.8065807" lon="7.2809173"><ele>423.33333333333337</ele><time>2026-05-01T10:24:52.622Z</time></trkpt><trkpt lat="44.8065275" lon="7.2812034"><ele>423.0</ele><time>2026-05-01T10:24:53.617Z</time></trkpt><trkpt lat="44.8064681" lon="7.2814767"><ele>422.33333333333337</ele><time>2026-05-01T10:24:54.617Z</time></trkpt><trkpt lat="44.8064087" lon="7.2817309"><ele>421.6666666666667</ele><time>2026-05-01T10:24:55.617Z</time></trkpt><trkpt lat="44.8063582" lon="7.2819815"><ele>421.0</ele><time>2026-05-01T10:24:56.618Z</time></trkpt><trkpt lat="44.806329" lon="7.2822328"><ele>421.33333333333337</ele><time>2026-05-01T10:24:57.618Z</time></trkpt><trkpt lat="44.8063135" lon="7.2824825"><ele>421.66666666666663</ele><time>2026-05-01T10:24:58.618Z</time></trkpt><trkpt lat="44.8063176" lon="7.2827495"><ele>422.0</ele><time>2026-05-01T10:24:59.617Z</time></trkpt><trkpt lat="44.8063373" lon="7.2830312"><ele>421.0</ele><time>2026-05-01T10:25:00.618Z</time></trkpt><trkpt lat="44.8063548" lon="7.283294"><ele>420.0</ele><time>2026-05-01T10:25:01.618Z</time></trkpt><trkpt lat="44.8063771" lon="7.2835455"><ele>419.0</ele><time>2026-05-01T10:25:02.618Z</time></trkpt><trkpt lat="44.8063972" lon="7.2837741"><ele>419.0</ele><time>2026-05-01T10:25:03.619Z</time></trkpt><trkpt lat="44.8064101" lon="7.283992"><ele>419.0</ele><time>2026-05-01T10:25:04.618Z</time></trkpt><trkpt lat="44.8064109" lon="7.2842113"><ele>419.0</ele><time>2026-05-01T10:25:05.618Z</time></trkpt><trkpt lat="44.8064197" lon="7.2844341"><ele>419.0</ele><time>2026-05-01T10:25:06.618Z</time></trkpt><trkpt lat="44.8064246" lon="7.2846393"><ele>419.0</ele><time>2026-05-01T10:25:07.621Z</time></trkpt><trkpt lat="44.8064179" lon="7.2848302"><ele>419.0</ele><time>2026-05-01T10:25:08.618Z</time></trkpt><trkpt lat="44.8063991" lon="7.2850127"><ele>419.0</ele><time>2026-05-01T10:25:09.619Z</time></trkpt><trkpt lat="44.8063828" lon="7.2851928"><ele>419.0</ele><time>2026-05-01T10:25:10.619Z</time></trkpt><trkpt lat="44.8063669" lon="7.2853528"><ele>419.0</ele><time>2026-05-01T10:25:11.62Z</time></trkpt><trkpt lat="44.8063518" lon="7.285513"><ele>419.0</ele><time>2026-05-01T10:25:12.619Z</time></trkpt><trkpt lat="44.8063409" lon="7.2856653"><ele>419.0</ele><time>2026-05-01T10:25:13.618Z</time></trkpt><trkpt lat="44.8063357" lon="7.2858141"><ele>419.0</ele><time>2026-05-01T10:25:14.618Z</time></trkpt><trkpt lat="44.8063313" lon="7.2859656"><ele>418.5</ele><time>2026-05-01T10:25:15.62Z</time></trkpt><trkpt lat="44.8063294" lon="7.2861147"><ele>418.0</ele><time>2026-05-01T10:25:16.619Z</time></trkpt><trkpt lat="44.8063282" lon="7.2862657"><ele>417.5</ele><time>2026-05-01T10:25:17.618Z</time></trkpt><trkpt lat="44.8063303" lon="7.2864113"><ele>417.0</ele><time>2026-05-01T10:25:18.618Z</time></trkpt><trkpt lat="44.8063373" lon="7.2866789"><ele>416.5</ele><time>2026-05-01T10:25:20.62Z</time></trkpt><trkpt lat="44.8063571" lon="7.286807"><ele>416.0</ele><time>2026-05-01T10:25:21.619Z</time></trkpt><trkpt lat="44.8063737" lon="7.286921"><ele>415.5</ele><time>2026-05-01T10:25:22.618Z</time></trkpt><trkpt lat="44.8063865" lon="7.2870178"><ele>415.0</ele><time>2026-05-01T10:25:23.618Z</time></trkpt><trkpt lat="44.8063893" lon="7.2871426"><ele>414.5</ele><time>2026-05-01T10:25:25.619Z</time></trkpt><trkpt lat="44.8063757" lon="7.2872476"><ele>414.0</ele><time>2026-05-01T10:25:29.619Z</time></trkpt><trkpt lat="44.8063321" lon="7.2873229"><ele>413.8333333333333</ele><time>2026-05-01T10:25:33.619Z</time></trkpt><trkpt lat="44.8062693" lon="7.2873946"><ele>413.66666666666663</ele><time>2026-05-01T10:25:39.618Z</time></trkpt><trkpt lat="44.8061964" lon="7.2874928"><ele>413.5</ele><time>2026-05-01T10:25:41.617Z</time></trkpt><trkpt lat="44.8061638" lon="7.2875734"><ele>413.3333333333333</ele><time>2026-05-01T10:25:42.618Z</time></trkpt><trkpt lat="44.8061425" lon="7.2876694"><ele>413.16666666666663</ele><time>2026-05-01T10:25:43.619Z</time></trkpt><trkpt lat="44.8061152" lon="7.2877915"><ele>413.0</ele><time>2026-05-01T10:25:44.618Z</time></trkpt><trkpt lat="44.8060673" lon="7.2879412"><ele>413.0</ele><time>2026-05-01T10:25:45.62Z</time></trkpt><trkpt lat="44.8060014" lon="7.2881148"><ele>413.0</ele><time>2026-05-01T10:25:46.619Z</time></trkpt><trkpt lat="44.8059327" lon="7.2882842"><ele>413.0</ele><time>2026-05-01T10:25:47.619Z</time></trkpt><trkpt lat="44.8058579" lon="7.2884823"><ele>413.0</ele><time>2026-05-01T10:25:48.619Z</time></trkpt><trkpt lat="44.8057715" lon="7.2886888"><ele>413.0</ele><time>2026-05-01T10:25:49.619Z</time></trkpt><trkpt lat="44.8056799" lon="7.2889037"><ele>413.0</ele><time>2026-05-01T10:25:50.619Z</time></trkpt><trkpt lat="44.8055889" lon="7.2891289"><ele>413.0</ele><time>2026-05-01T10:25:51.617Z</time></trkpt><trkpt lat="44.8054891" lon="7.2893903"><ele>412.0</ele><time>2026-05-01T10:25:52.618Z</time></trkpt><trkpt lat="44.8053841" lon="7.2896695"><ele>411.0</ele><time>2026-05-01T10:25:53.618Z</time></trkpt><trkpt lat="44.805269" lon="7.2899712"><ele>410.5</ele><time>2026-05-01T10:25:54.62Z</time></trkpt><trkpt lat="44.8051547" lon="7.2902593"><ele>410.0</ele><time>2026-05-01T10:25:55.618Z</time></trkpt><trkpt lat="44.8050455" lon="7.2905337"><ele>409.66666666666663</ele><time>2026-05-01T10:25:56.618Z</time></trkpt><trkpt lat="44.8049469" lon="7.2907966"><ele>409.33333333333337</ele><time>2026-05-01T10:25:57.618Z</time></trkpt><trkpt lat="44.8048569" lon="7.2910574"><ele>409.0</ele><time>2026-05-01T10:25:58.618Z</time></trkpt><trkpt lat="44.8047638" lon="7.2913184"><ele>408.6666666666667</ele><time>2026-05-01T10:25:59.618Z</time></trkpt><trkpt lat="44.8046815" lon="7.2915646"><ele>408.33333333333337</ele><time>2026-05-01T10:26:00.619Z</time></trkpt><trkpt lat="44.804599" lon="7.291805"><ele>408.0</ele><time>2026-05-01T10:26:01.619Z</time></trkpt><trkpt lat="44.804519" lon="7.2920402"><ele>408.0</ele><time>2026-05-01T10:26:02.618Z</time></trkpt><trkpt lat="44.8044372" lon="7.2922663"><ele>408.0</ele><time>2026-05-01T10:26:03.618Z</time></trkpt><trkpt lat="44.8043527" lon="7.2924871"><ele>408.0</ele><time>2026-05-01T10:26:04.618Z</time></trkpt><trkpt lat="44.8042658" lon="7.2926914"><ele>408.0</ele><time>2026-05-01T10:26:05.618Z</time></trkpt><trkpt lat="44.8041747" lon="7.292895"><ele>408.0</ele><time>2026-05-01T10:26:06.618Z</time></trkpt><trkpt lat="44.8040799" lon="7.2930944"><ele>408.0</ele><time>2026-05-01T10:26:07.619Z</time></trkpt><trkpt lat="44.8039756" lon="7.2932843"><ele>407.0</ele><time>2026-05-01T10:26:08.618Z</time></trkpt><trkpt lat="44.8038627" lon="7.2934666"><ele>406.0</ele><time>2026-05-01T10:26:09.618Z</time></trkpt><trkpt lat="44.8037469" lon="7.2936433"><ele>405.0</ele><time>2026-05-01T10:26:10.618Z</time></trkpt><trkpt lat="44.8036271" lon="7.2938203"><ele>404.66666666666663</ele><time>2026-05-01T10:26:11.618Z</time></trkpt><trkpt lat="44.8035111" lon="7.2939955"><ele>404.3333333333333</ele><time>2026-05-01T10:26:12.618Z</time></trkpt><trkpt lat="44.8033953" lon="7.2941585"><ele>404.0</ele><time>2026-05-01T10:26:13.619Z</time></trkpt><trkpt lat="44.8032805" lon="7.2943095"><ele>404.0</ele><time>2026-05-01T10:26:14.619Z</time></trkpt><trkpt lat="44.8031582" lon="7.2944526"><ele>404.0</ele><time>2026-05-01T10:26:15.618Z</time></trkpt><trkpt lat="44.8030334" lon="7.2945945"><ele>404.0</ele><time>2026-05-01T10:26:16.619Z</time></trkpt><trkpt lat="44.8029015" lon="7.2947355"><ele>403.66666666666663</ele><time>2026-05-01T10:26:17.619Z</time></trkpt><trkpt lat="44.8027703" lon="7.2948692"><ele>403.33333333333337</ele><time>2026-05-01T10:26:18.618Z</time></trkpt><trkpt lat="44.8026334" lon="7.2949936"><ele>403.0</ele><time>2026-05-01T10:26:19.618Z</time></trkpt><trkpt lat="44.802493" lon="7.295113"><ele>402.33333333333337</ele><time>2026-05-01T10:26:20.618Z</time></trkpt><trkpt lat="44.8023485" lon="7.2952278"><ele>401.66666666666663</ele><time>2026-05-01T10:26:21.618Z</time></trkpt><trkpt lat="44.8022015" lon="7.2953373"><ele>401.0</ele><time>2026-05-01T10:26:22.619Z</time></trkpt><trkpt lat="44.802053" lon="7.2954383"><ele>401.0</ele><time>2026-05-01T10:26:23.619Z</time></trkpt><trkpt lat="44.8019004" lon="7.2955369"><ele>401.0</ele><time>2026-05-01T10:26:24.618Z</time></trkpt><trkpt lat="44.8017467" lon="7.295632"><ele>401.0</ele><time>2026-05-01T10:26:25.619Z</time></trkpt><trkpt lat="44.8015928" lon="7.2957152"><ele>401.0</ele><time>2026-05-01T10:26:26.619Z</time></trkpt><trkpt lat="44.8014376" lon="7.2957969"><ele>401.0</ele><time>2026-05-01T10:26:27.618Z</time></trkpt><trkpt lat="44.8012833" lon="7.2958737"><ele>401.0</ele><time>2026-05-01T10:26:28.618Z</time></trkpt><trkpt lat="44.8011212" lon="7.2959468"><ele>401.0</ele><time>2026-05-01T10:26:29.619Z</time></trkpt><trkpt lat="44.8009482" lon="7.2960146"><ele>401.0</ele><time>2026-05-01T10:26:30.619Z</time></trkpt><trkpt lat="44.8007662" lon="7.2960727"><ele>401.0</ele><time>2026-05-01T10:26:31.618Z</time></trkpt><trkpt lat="44.8005631" lon="7.2961304"><ele>401.0</ele><time>2026-05-01T10:26:32.618Z</time></trkpt><trkpt lat="44.8003453" lon="7.2961756"><ele>401.0</ele><time>2026-05-01T10:26:33.619Z</time></trkpt><trkpt lat="44.8001174" lon="7.2962066"><ele>401.0</ele><time>2026-05-01T10:26:34.618Z</time></trkpt><trkpt lat="44.799882" lon="7.2962304"><ele>400.5</ele><time>2026-05-01T10:26:35.619Z</time></trkpt><trkpt lat="44.7996423" lon="7.2962513"><ele>400.0</ele><time>2026-05-01T10:26:36.619Z</time></trkpt><trkpt lat="44.7994109" lon="7.2962702"><ele>400.0</ele><time>2026-05-01T10:26:37.617Z</time></trkpt><trkpt lat="44.7991744" lon="7.296286"><ele>400.0</ele><time>2026-05-01T10:26:38.619Z</time></trkpt><trkpt lat="44.7989391" lon="7.2963029"><ele>400.0</ele><time>2026-05-01T10:26:39.619Z</time></trkpt><trkpt lat="44.7987063" lon="7.2963112"><ele>400.0</ele><time>2026-05-01T10:26:40.618Z</time></trkpt><trkpt lat="44.7984806" lon="7.2963215"><ele>399.5</ele><time>2026-05-01T10:26:41.619Z</time></trkpt><trkpt lat="44.7982479" lon="7.2963367"><ele>399.0</ele><time>2026-05-01T10:26:42.619Z</time></trkpt><trkpt lat="44.7980132" lon="7.2963525"><ele>399.0</ele><time>2026-05-01T10:26:43.618Z</time></trkpt><trkpt lat="44.7977938" lon="7.296368"><ele>399.0</ele><time>2026-05-01T10:26:44.619Z</time></trkpt><trkpt lat="44.7975845" lon="7.2963801"><ele>399.0</ele><time>2026-05-01T10:26:45.618Z</time></trkpt><trkpt lat="44.7973918" lon="7.2963897"><ele>399.0</ele><time>2026-05-01T10:26:46.618Z</time></trkpt><trkpt lat="44.797217" lon="7.2963928"><ele>399.0</ele><time>2026-05-01T10:26:47.618Z</time></trkpt><trkpt lat="44.7970504" lon="7.2963961"><ele>399.0</ele><time>2026-05-01T10:26:48.618Z</time></trkpt><trkpt lat="44.7968947" lon="7.2963942"><ele>399.0</ele><time>2026-05-01T10:26:49.618Z</time></trkpt><trkpt lat="44.796753" lon="7.2963834"><ele>399.0</ele><time>2026-05-01T10:26:50.618Z</time></trkpt><trkpt lat="44.7966312" lon="7.2963648"><ele>399.0</ele><time>2026-05-01T10:26:51.619Z</time></trkpt><trkpt lat="44.7965241" lon="7.2963231"><ele>399.0</ele><time>2026-05-01T10:26:52.618Z</time></trkpt><trkpt lat="44.7964288" lon="7.2962607"><ele>399.0</ele><time>2026-05-01T10:26:53.618Z</time></trkpt><trkpt lat="44.7963324" lon="7.2962351"><ele>399.0</ele><time>2026-05-01T10:26:54.618Z</time></trkpt><trkpt lat="44.7962212" lon="7.2962641"><ele>399.0</ele><time>2026-05-01T10:26:55.618Z</time></trkpt><trkpt lat="44.7960977" lon="7.296311"><ele>399.0</ele><time>2026-05-01T10:26:56.618Z</time></trkpt><trkpt lat="44.7959539" lon="7.2963219"><ele>399.0</ele><time>2026-05-01T10:26:57.619Z</time></trkpt><trkpt lat="44.7957919" lon="7.2963132"><ele>399.0</ele><time>2026-05-01T10:26:58.618Z</time></trkpt><trkpt lat="44.7956124" lon="7.2962962"><ele>399.0</ele><time>2026-05-01T10:26:59.619Z</time></trkpt><trkpt lat="44.7954186" lon="7.2962574"><ele>399.0</ele><time>2026-05-01T10:27:00.617Z</time></trkpt><trkpt lat="44.7952172" lon="7.2962011"><ele>399.0</ele><time>2026-05-01T10:27:01.617Z</time></trkpt><trkpt lat="44.7950189" lon="7.2961248"><ele>399.0</ele><time>2026-05-01T10:27:02.618Z</time></trkpt><trkpt lat="44.794811" lon="7.2960193"><ele>398.5</ele><time>2026-05-01T10:27:03.618Z</time></trkpt><trkpt lat="44.7946" lon="7.2958982"><ele>398.0</ele><time>2026-05-01T10:27:04.618Z</time></trkpt><trkpt lat="44.7943809" lon="7.2957708"><ele>397.5</ele><time>2026-05-01T10:27:05.621Z</time></trkpt><trkpt lat="44.7941554" lon="7.2956318"><ele>397.0</ele><time>2026-05-01T10:27:06.618Z</time></trkpt><trkpt lat="44.7939245" lon="7.295492"><ele>397.0</ele><time>2026-05-01T10:27:07.618Z</time></trkpt><trkpt lat="44.793687" lon="7.2953443"><ele>397.0</ele><time>2026-05-01T10:27:08.618Z</time></trkpt><trkpt lat="44.7934577" lon="7.295204"><ele>396.0</ele><time>2026-05-01T10:27:09.619Z</time></trkpt><trkpt lat="44.7932301" lon="7.2950586"><ele>395.0</ele><time>2026-05-01T10:27:10.618Z</time></trkpt><trkpt lat="44.7930017" lon="7.2949135"><ele>395.0</ele><time>2026-05-01T10:27:11.618Z</time></trkpt><trkpt lat="44.7927718" lon="7.2947648"><ele>395.0</ele><time>2026-05-01T10:27:12.616Z</time></trkpt><trkpt lat="44.7925413" lon="7.2946304"><ele>396.5</ele><time>2026-05-01T10:27:13.617Z</time></trkpt><trkpt lat="44.7923061" lon="7.2945069"><ele>398.0</ele><time>2026-05-01T10:27:14.619Z</time></trkpt><trkpt lat="44.7920716" lon="7.2943873"><ele>397.0</ele><time>2026-05-01T10:27:15.618Z</time></trkpt><trkpt lat="44.7918352" lon="7.2942807"><ele>396.0</ele><time>2026-05-01T10:27:16.618Z</time></trkpt><trkpt lat="44.7916097" lon="7.2941907"><ele>396.0</ele><time>2026-05-01T10:27:17.619Z</time></trkpt><trkpt lat="44.7913966" lon="7.2941033"><ele>396.0</ele><time>2026-05-01T10:27:18.618Z</time></trkpt><trkpt lat="44.7911835" lon="7.2940229"><ele>396.0</ele><time>2026-05-01T10:27:19.619Z</time></trkpt><trkpt lat="44.7909699" lon="7.293955"><ele>396.0</ele><time>2026-05-01T10:27:20.619Z</time></trkpt><trkpt lat="44.790755" lon="7.2938866"><ele>396.0</ele><time>2026-05-01T10:27:21.618Z</time></trkpt><trkpt lat="44.7905416" lon="7.2938222"><ele>396.0</ele><time>2026-05-01T10:27:22.619Z</time></trkpt><trkpt lat="44.7903406" lon="7.2937636"><ele>395.33333333333337</ele><time>2026-05-01T10:27:23.62Z</time></trkpt><trkpt lat="44.7901473" lon="7.2937067"><ele>394.6666666666667</ele><time>2026-05-01T10:27:24.618Z</time></trkpt><trkpt lat="44.7899757" lon="7.2936556"><ele>394.0</ele><time>2026-05-01T10:27:25.618Z</time></trkpt><trkpt lat="44.7898211" lon="7.29361"><ele>394.0</ele><time>2026-05-01T10:27:26.619Z</time></trkpt><trkpt lat="44.7896945" lon="7.2935709"><ele>394.0</ele><time>2026-05-01T10:27:27.618Z</time></trkpt><trkpt lat="44.789586" lon="7.293529"><ele>394.0</ele><time>2026-05-01T10:27:28.618Z</time></trkpt><trkpt lat="44.7894956" lon="7.2934659"><ele>394.0</ele><time>2026-05-01T10:27:29.619Z</time></trkpt><trkpt lat="44.789435" lon="7.2933685"><ele>394.0</ele><time>2026-05-01T10:27:30.619Z</time></trkpt><trkpt lat="44.7893864" lon="7.2932588"><ele>395.0</ele><time>2026-05-01T10:27:31.618Z</time></trkpt><trkpt lat="44.7893218" lon="7.293192"><ele>396.0</ele><time>2026-05-01T10:27:32.617Z</time></trkpt><trkpt lat="44.7892414" lon="7.2931697"><ele>397.0</ele><time>2026-05-01T10:27:33.618Z</time></trkpt><trkpt lat="44.7891535" lon="7.2932004"><ele>398.0</ele><time>2026-05-01T10:27:34.619Z</time></trkpt><trkpt lat="44.7890369" lon="7.2932423"><ele>399.0</ele><time>2026-05-01T10:27:35.618Z</time></trkpt><trkpt lat="44.7888913" lon="7.2932652"><ele>399.0</ele><time>2026-05-01T10:27:36.625Z</time></trkpt><trkpt lat="44.7887274" lon="7.2933043"><ele>399.0</ele><time>2026-05-01T10:27:37.619Z</time></trkpt><trkpt lat="44.7885659" lon="7.2933559"><ele>399.0</ele><time>2026-05-01T10:27:38.618Z</time></trkpt><trkpt lat="44.7883874" lon="7.2934256"><ele>400.0</ele><time>2026-05-01T10:27:39.618Z</time></trkpt><trkpt lat="44.7881966" lon="7.2934985"><ele>401.0</ele><time>2026-05-01T10:27:40.619Z</time></trkpt><trkpt lat="44.7880067" lon="7.2935886"><ele>402.0</ele><time>2026-05-01T10:27:41.618Z</time></trkpt><trkpt lat="44.7878246" lon="7.2936805"><ele>403.33333333333337</ele><time>2026-05-01T10:27:42.618Z</time></trkpt><trkpt lat="44.7876492" lon="7.2937842"><ele>404.6666666666667</ele><time>2026-05-01T10:27:43.619Z</time></trkpt><trkpt lat="44.787477" lon="7.2939001"><ele>406.0</ele><time>2026-05-01T10:27:44.618Z</time></trkpt><trkpt lat="44.7873073" lon="7.2940319"><ele>406.6666666666667</ele><time>2026-05-01T10:27:45.618Z</time></trkpt><trkpt lat="44.7871408" lon="7.2941737"><ele>407.33333333333337</ele><time>2026-05-01T10:27:46.619Z</time></trkpt><trkpt lat="44.7869776" lon="7.2943324"><ele>408.0</ele><time>2026-05-01T10:27:47.619Z</time></trkpt><trkpt lat="44.7868173" lon="7.2945007"><ele>408.0</ele><time>2026-05-01T10:27:48.618Z</time></trkpt><trkpt lat="44.7866603" lon="7.2946821"><ele>408.0</ele><time>2026-05-01T10:27:49.618Z</time></trkpt><trkpt lat="44.7865075" lon="7.2948579"><ele>408.0</ele><time>2026-05-01T10:27:50.619Z</time></trkpt><trkpt lat="44.786364" lon="7.2950323"><ele>411.0</ele><time>2026-05-01T10:27:51.618Z</time></trkpt><trkpt lat="44.786076" lon="7.2953846"><ele>414.0</ele><time>2026-05-01T10:27:53.62Z</time></trkpt><trkpt lat="44.7859352" lon="7.2955607"><ele>409.0</ele><time>2026-05-01T10:27:54.619Z</time></trkpt><trkpt lat="44.7857945" lon="7.2957327"><ele>404.0</ele><time>2026-05-01T10:27:55.618Z</time></trkpt><trkpt lat="44.785664" lon="7.2958944"><ele>399.0</ele><time>2026-05-01T10:27:56.618Z</time></trkpt><trkpt lat="44.7855361" lon="7.2960513"><ele>399.0</ele><time>2026-05-01T10:27:57.619Z</time></trkpt><trkpt lat="44.7853992" lon="7.2962251"><ele>399.0</ele><time>2026-05-01T10:27:58.619Z</time></trkpt><trkpt lat="44.7852544" lon="7.2964037"><ele>399.0</ele><time>2026-05-01T10:27:59.619Z</time></trkpt><trkpt lat="44.7851024" lon="7.2965855"><ele>398.33333333333337</ele><time>2026-05-01T10:28:00.617Z</time></trkpt><trkpt lat="44.7849555" lon="7.2967638"><ele>397.6666666666667</ele><time>2026-05-01T10:28:01.619Z</time></trkpt><trkpt lat="44.7848165" lon="7.2969375"><ele>397.0</ele><time>2026-05-01T10:28:02.618Z</time></trkpt><trkpt lat="44.7846756" lon="7.2971097"><ele>395.6666666666667</ele><time>2026-05-01T10:28:03.619Z</time></trkpt><trkpt lat="44.7845383" lon="7.2972866"><ele>394.33333333333337</ele><time>2026-05-01T10:28:04.619Z</time></trkpt><trkpt lat="44.7844001" lon="7.2974604"><ele>393.0</ele><time>2026-05-01T10:28:05.619Z</time></trkpt><trkpt lat="44.7842554" lon="7.297637"><ele>393.0</ele><time>2026-05-01T10:28:06.62Z</time></trkpt><trkpt lat="44.78411" lon="7.2978111"><ele>393.0</ele><time>2026-05-01T10:28:07.618Z</time></trkpt><trkpt lat="44.7839634" lon="7.2979842"><ele>393.0</ele><time>2026-05-01T10:28:08.619Z</time></trkpt><trkpt lat="44.7837997" lon="7.2981656"><ele>394.33333333333337</ele><time>2026-05-01T10:28:09.617Z</time></trkpt><trkpt lat="44.7836222" lon="7.2983392"><ele>395.6666666666667</ele><time>2026-05-01T10:28:10.618Z</time></trkpt><trkpt lat="44.7834468" lon="7.2984822"><ele>397.0</ele><time>2026-05-01T10:28:11.618Z</time></trkpt><trkpt lat="44.7832749" lon="7.2986105"><ele>397.0</ele><time>2026-05-01T10:28:12.618Z</time></trkpt><trkpt lat="44.7830983" lon="7.2987268"><ele>397.0</ele><time>2026-05-01T10:28:13.619Z</time></trkpt><trkpt lat="44.7829228" lon="7.2988325"><ele>397.0</ele><time>2026-05-01T10:28:14.621Z</time></trkpt><trkpt lat="44.7827446" lon="7.2989173"><ele>392.33333333333337</ele><time>2026-05-01T10:28:15.618Z</time></trkpt><trkpt lat="44.782563" lon="7.2989977"><ele>387.6666666666667</ele><time>2026-05-01T10:28:16.62Z</time></trkpt><trkpt lat="44.7823772" lon="7.2990714"><ele>383.0</ele><time>2026-05-01T10:28:17.619Z</time></trkpt><trkpt lat="44.7821861" lon="7.2991345"><ele>383.0</ele><time>2026-05-01T10:28:18.619Z</time></trkpt><trkpt lat="44.7819939" lon="7.2991995"><ele>383.0</ele><time>2026-05-01T10:28:19.619Z</time></trkpt><trkpt lat="44.7818124" lon="7.2992562"><ele>383.0</ele><time>2026-05-01T10:28:20.618Z</time></trkpt><trkpt lat="44.7816227" lon="7.299314"><ele>382.33333333333337</ele><time>2026-05-01T10:28:21.621Z</time></trkpt><trkpt lat="44.7814395" lon="7.2993745"><ele>381.6666666666667</ele><time>2026-05-01T10:28:22.617Z</time></trkpt><trkpt lat="44.7812613" lon="7.299448"><ele>381.0</ele><time>2026-05-01T10:28:23.617Z</time></trkpt><trkpt lat="44.7810912" lon="7.2995433"><ele>380.0</ele><time>2026-05-01T10:28:24.62Z</time></trkpt><trkpt lat="44.7809185" lon="7.2996542"><ele>379.0</ele><time>2026-05-01T10:28:25.618Z</time></trkpt><trkpt lat="44.7807465" lon="7.2997849"><ele>378.0</ele><time>2026-05-01T10:28:26.619Z</time></trkpt><trkpt lat="44.7805805" lon="7.2999095"><ele>378.0</ele><time>2026-05-01T10:28:27.618Z</time></trkpt><trkpt lat="44.7804226" lon="7.3000307"><ele>378.0</ele><time>2026-05-01T10:28:28.618Z</time></trkpt><trkpt lat="44.7802686" lon="7.3001458"><ele>378.0</ele><time>2026-05-01T10:28:29.618Z</time></trkpt><trkpt lat="44.7801115" lon="7.300253"><ele>382.33333333333337</ele><time>2026-05-01T10:28:30.62Z</time></trkpt><trkpt lat="44.7799449" lon="7.3003447"><ele>386.6666666666667</ele><time>2026-05-01T10:28:31.619Z</time></trkpt><trkpt lat="44.7797712" lon="7.3004237"><ele>391.0</ele><time>2026-05-01T10:28:32.618Z</time></trkpt><trkpt lat="44.7795954" lon="7.3004941"><ele>391.0</ele><time>2026-05-01T10:28:33.619Z</time></trkpt><trkpt lat="44.7794163" lon="7.3005606"><ele>391.0</ele><time>2026-05-01T10:28:34.618Z</time></trkpt><trkpt lat="44.7792409" lon="7.3006278"><ele>391.0</ele><time>2026-05-01T10:28:35.619Z</time></trkpt><trkpt lat="44.7790686" lon="7.3006967"><ele>388.6666666666667</ele><time>2026-05-01T10:28:36.621Z</time></trkpt><trkpt lat="44.7789041" lon="7.300761"><ele>386.33333333333337</ele><time>2026-05-01T10:28:37.618Z</time></trkpt><trkpt lat="44.7787443" lon="7.3008315"><ele>384.0</ele><time>2026-05-01T10:28:38.618Z</time></trkpt><trkpt lat="44.7785962" lon="7.3009188"><ele>384.66666666666663</ele><time>2026-05-01T10:28:39.619Z</time></trkpt><trkpt lat="44.7784522" lon="7.3010127"><ele>385.3333333333333</ele><time>2026-05-01T10:28:40.618Z</time></trkpt><trkpt lat="44.7783114" lon="7.3011071"><ele>386.0</ele><time>2026-05-01T10:28:41.618Z</time></trkpt><trkpt lat="44.7781675" lon="7.3011994"><ele>386.0</ele><time>2026-05-01T10:28:42.618Z</time></trkpt><trkpt lat="44.7780228" lon="7.3012928"><ele>386.0</ele><time>2026-05-01T10:28:43.618Z</time></trkpt><trkpt lat="44.7778761" lon="7.301386"><ele>386.0</ele><time>2026-05-01T10:28:44.619Z</time></trkpt><trkpt lat="44.7777254" lon="7.3014721"><ele>385.0</ele><time>2026-05-01T10:28:45.618Z</time></trkpt><trkpt lat="44.7775692" lon="7.3015316"><ele>384.0</ele><time>2026-05-01T10:28:46.619Z</time></trkpt><trkpt lat="44.7773997" lon="7.3015753"><ele>383.0</ele><time>2026-05-01T10:28:47.62Z</time></trkpt><trkpt lat="44.7772226" lon="7.3016066"><ele>383.0</ele><time>2026-05-01T10:28:48.618Z</time></trkpt><trkpt lat="44.7770383" lon="7.3016355"><ele>383.0</ele><time>2026-05-01T10:28:49.618Z</time></trkpt><trkpt lat="44.7768556" lon="7.3016634"><ele>383.0</ele><time>2026-05-01T10:28:50.619Z</time></trkpt><trkpt lat="44.7766751" lon="7.3016899"><ele>383.33333333333337</ele><time>2026-05-01T10:28:51.618Z</time></trkpt><trkpt lat="44.776499" lon="7.3017183"><ele>383.6666666666667</ele><time>2026-05-01T10:28:52.619Z</time></trkpt><trkpt lat="44.7763238" lon="7.3017429"><ele>384.0</ele><time>2026-05-01T10:28:53.618Z</time></trkpt><trkpt lat="44.776148" lon="7.3017706"><ele>383.6666666666667</ele><time>2026-05-01T10:28:54.623Z</time></trkpt><trkpt lat="44.7759713" lon="7.3017952"><ele>383.33333333333337</ele><time>2026-05-01T10:28:55.619Z</time></trkpt><trkpt lat="44.7757971" lon="7.301826"><ele>383.0</ele><time>2026-05-01T10:28:56.632Z</time></trkpt><trkpt lat="44.7756238" lon="7.3018568"><ele>383.0</ele><time>2026-05-01T10:28:57.621Z</time></trkpt><trkpt lat="44.7754564" lon="7.3018833"><ele>383.0</ele><time>2026-05-01T10:28:58.619Z</time></trkpt><trkpt lat="44.7752939" lon="7.3019177"><ele>383.0</ele><time>2026-05-01T10:28:59.619Z</time></trkpt><trkpt lat="44.7751392" lon="7.3019673"><ele>383.33333333333337</ele><time>2026-05-01T10:29:00.62Z</time></trkpt><trkpt lat="44.7749817" lon="7.3020407"><ele>383.6666666666667</ele><time>2026-05-01T10:29:01.619Z</time></trkpt><trkpt lat="44.7748367" lon="7.3021436"><ele>384.0</ele><time>2026-05-01T10:29:02.621Z</time></trkpt><trkpt lat="44.7746954" lon="7.3022796"><ele>384.0</ele><time>2026-05-01T10:29:03.617Z</time></trkpt><trkpt lat="44.7745574" lon="7.3024303"><ele>384.0</ele><time>2026-05-01T10:29:04.619Z</time></trkpt><trkpt lat="44.7744222" lon="7.3025894"><ele>384.0</ele><time>2026-05-01T10:29:05.619Z</time></trkpt><trkpt lat="44.7742874" lon="7.302757"><ele>384.0</ele><time>2026-05-01T10:29:06.62Z</time></trkpt><trkpt lat="44.7741571" lon="7.3029165"><ele>384.0</ele><time>2026-05-01T10:29:07.618Z</time></trkpt><trkpt lat="44.7740292" lon="7.3030744"><ele>384.0</ele><time>2026-05-01T10:29:08.621Z</time></trkpt><trkpt lat="44.7739027" lon="7.3032304"><ele>380.0</ele><time>2026-05-01T10:29:09.621Z</time></trkpt><trkpt lat="44.7737768" lon="7.3033879"><ele>376.0</ele><time>2026-05-01T10:29:10.62Z</time></trkpt><trkpt lat="44.7736461" lon="7.3035446"><ele>372.0</ele><time>2026-05-01T10:29:11.62Z</time></trkpt><trkpt lat="44.7735243" lon="7.3037056"><ele>372.3333333333333</ele><time>2026-05-01T10:29:12.621Z</time></trkpt><trkpt lat="44.7734076" lon="7.3038701"><ele>372.66666666666663</ele><time>2026-05-01T10:29:13.619Z</time></trkpt><trkpt lat="44.7733018" lon="7.3040371"><ele>373.0</ele><time>2026-05-01T10:29:14.62Z</time></trkpt><trkpt lat="44.7732075" lon="7.3041979"><ele>373.0</ele><time>2026-05-01T10:29:15.62Z</time></trkpt><trkpt lat="44.7731089" lon="7.3043572"><ele>373.0</ele><time>2026-05-01T10:29:16.62Z</time></trkpt><trkpt lat="44.7730112" lon="7.3045203"><ele>373.0</ele><time>2026-05-01T10:29:17.619Z</time></trkpt><trkpt lat="44.7729146" lon="7.3046874"><ele>372.3333333333333</ele><time>2026-05-01T10:29:18.62Z</time></trkpt><trkpt lat="44.7728157" lon="7.3048532"><ele>371.6666666666667</ele><time>2026-05-01T10:29:19.62Z</time></trkpt><trkpt lat="44.7727145" lon="7.3050074"><ele>371.0</ele><time>2026-05-01T10:29:20.621Z</time></trkpt><trkpt lat="44.7726056" lon="7.3051644"><ele>371.0</ele><time>2026-05-01T10:29:21.619Z</time></trkpt><trkpt lat="44.7724925" lon="7.3053055"><ele>371.0</ele><time>2026-05-01T10:29:22.62Z</time></trkpt><trkpt lat="44.7723736" lon="7.305442"><ele>371.0</ele><time>2026-05-01T10:29:23.619Z</time></trkpt><trkpt lat="44.7722567" lon="7.305567"><ele>371.75</ele><time>2026-05-01T10:29:24.62Z</time></trkpt><trkpt lat="44.772138" lon="7.3056879"><ele>372.5</ele><time>2026-05-01T10:29:25.619Z</time></trkpt><trkpt lat="44.7720227" lon="7.3058032"><ele>373.25</ele><time>2026-05-01T10:29:26.62Z</time></trkpt><trkpt lat="44.7719081" lon="7.3059187"><ele>374.0</ele><time>2026-05-01T10:29:27.619Z</time></trkpt><trkpt lat="44.7717901" lon="7.306026"><ele>374.0</ele><time>2026-05-01T10:29:28.619Z</time></trkpt><trkpt lat="44.7716795" lon="7.3061273"><ele>374.0</ele><time>2026-05-01T10:29:29.619Z</time></trkpt><trkpt lat="44.7715696" lon="7.3062217"><ele>374.0</ele><time>2026-05-01T10:29:30.62Z</time></trkpt><trkpt lat="44.7714594" lon="7.3063177"><ele>374.0</ele><time>2026-05-01T10:29:31.62Z</time></trkpt><trkpt lat="44.77135" lon="7.3064134"><ele>372.5</ele><time>2026-05-01T10:29:32.619Z</time></trkpt><trkpt lat="44.7712432" lon="7.3065105"><ele>371.0</ele><time>2026-05-01T10:29:33.621Z</time></trkpt><trkpt lat="44.7711419" lon="7.3065975"><ele>369.5</ele><time>2026-05-01T10:29:34.619Z</time></trkpt><trkpt lat="44.771044" lon="7.3066803"><ele>368.0</ele><time>2026-05-01T10:29:35.619Z</time></trkpt><trkpt lat="44.7709575" lon="7.3067624"><ele>368.0</ele><time>2026-05-01T10:29:36.62Z</time></trkpt><trkpt lat="44.7708731" lon="7.3068377"><ele>368.0</ele><time>2026-05-01T10:29:37.619Z</time></trkpt><trkpt lat="44.7707975" lon="7.3069073"><ele>368.0</ele><time>2026-05-01T10:29:38.619Z</time></trkpt><trkpt lat="44.7707285" lon="7.3069659"><ele>368.0</ele><time>2026-05-01T10:29:39.62Z</time></trkpt><trkpt lat="44.770659" lon="7.307016"><ele>368.0</ele><time>2026-05-01T10:29:40.624Z</time></trkpt><trkpt lat="44.7705838" lon="7.3070531"><ele>368.0</ele><time>2026-05-01T10:29:41.62Z</time></trkpt><trkpt lat="44.7705088" lon="7.3070602"><ele>368.0</ele><time>2026-05-01T10:29:42.619Z</time></trkpt><trkpt lat="44.770436" lon="7.3070743"><ele>368.0</ele><time>2026-05-01T10:29:43.62Z</time></trkpt><trkpt lat="44.7703767" lon="7.3071214"><ele>368.0</ele><time>2026-05-01T10:29:44.622Z</time></trkpt><trkpt lat="44.7703329" lon="7.3071967"><ele>368.0</ele><time>2026-05-01T10:29:45.621Z</time></trkpt><trkpt lat="44.7702993" lon="7.3072901"><ele>368.0</ele><time>2026-05-01T10:29:46.618Z</time></trkpt><trkpt lat="44.7702499" lon="7.307379"><ele>368.0</ele><time>2026-05-01T10:29:47.622Z</time></trkpt><trkpt lat="44.7701814" lon="7.3074587"><ele>368.0</ele><time>2026-05-01T10:29:48.62Z</time></trkpt><trkpt lat="44.7701022" lon="7.3075393"><ele>368.0</ele><time>2026-05-01T10:29:49.62Z</time></trkpt><trkpt lat="44.7700138" lon="7.3076267"><ele>368.0</ele><time>2026-05-01T10:29:50.619Z</time></trkpt><trkpt lat="44.7699074" lon="7.3077118"><ele>368.0</ele><time>2026-05-01T10:29:51.618Z</time></trkpt><trkpt lat="44.7698051" lon="7.3077908"><ele>368.0</ele><time>2026-05-01T10:29:52.619Z</time></trkpt><trkpt lat="44.7696924" lon="7.3078592"><ele>368.0</ele><time>2026-05-01T10:29:53.619Z</time></trkpt><trkpt lat="44.7695672" lon="7.3079178"><ele>368.0</ele><time>2026-05-01T10:29:54.62Z</time></trkpt><trkpt lat="44.7694388" lon="7.3079773"><ele>368.0</ele><time>2026-05-01T10:29:55.619Z</time></trkpt><trkpt lat="44.7693054" lon="7.3080289"><ele>368.0</ele><time>2026-05-01T10:29:56.62Z</time></trkpt><trkpt lat="44.7691677" lon="7.3080937"><ele>367.5</ele><time>2026-05-01T10:29:57.618Z</time></trkpt><trkpt lat="44.7690303" lon="7.3081539"><ele>367.0</ele><time>2026-05-01T10:29:58.62Z</time></trkpt><trkpt lat="44.7688957" lon="7.3082149"><ele>366.5</ele><time>2026-05-01T10:29:59.62Z</time></trkpt><trkpt lat="44.7687703" lon="7.3082765"><ele>366.0</ele><time>2026-05-01T10:30:00.62Z</time></trkpt><trkpt lat="44.7686527" lon="7.308338"><ele>366.0</ele><time>2026-05-01T10:30:01.619Z</time></trkpt><trkpt lat="44.768535" lon="7.3084093"><ele>366.0</ele><time>2026-05-01T10:30:02.62Z</time></trkpt><trkpt lat="44.7684135" lon="7.3084949"><ele>366.0</ele><time>2026-05-01T10:30:03.62Z</time></trkpt><trkpt lat="44.7682934" lon="7.308589"><ele>366.0</ele><time>2026-05-01T10:30:04.619Z</time></trkpt><trkpt lat="44.7681714" lon="7.3086895"><ele>365.25</ele><time>2026-05-01T10:30:05.62Z</time></trkpt><trkpt lat="44.7680467" lon="7.3087997"><ele>364.5</ele><time>2026-05-01T10:30:06.62Z</time></trkpt><trkpt lat="44.7679214" lon="7.3089141"><ele>363.75</ele><time>2026-05-01T10:30:07.619Z</time></trkpt><trkpt lat="44.767804" lon="7.3090273"><ele>363.0</ele><time>2026-05-01T10:30:08.618Z</time></trkpt><trkpt lat="44.7676869" lon="7.3091359"><ele>362.25</ele><time>2026-05-01T10:30:09.619Z</time></trkpt><trkpt lat="44.7675714" lon="7.3092545"><ele>361.5</ele><time>2026-05-01T10:30:10.621Z</time></trkpt><trkpt lat="44.7674529" lon="7.3093701"><ele>360.75</ele><time>2026-05-01T10:30:11.621Z</time></trkpt><trkpt lat="44.7673318" lon="7.3094881"><ele>360.0</ele><time>2026-05-01T10:30:12.619Z</time></trkpt><trkpt lat="44.7672123" lon="7.3096055"><ele>360.0</ele><time>2026-05-01T10:30:13.623Z</time></trkpt><trkpt lat="44.7670918" lon="7.3097202"><ele>360.0</ele><time>2026-05-01T10:30:14.619Z</time></trkpt><trkpt lat="44.7669792" lon="7.3098347"><ele>360.0</ele><time>2026-05-01T10:30:15.619Z</time></trkpt><trkpt lat="44.7668683" lon="7.3099489"><ele>360.0</ele><time>2026-05-01T10:30:16.619Z</time></trkpt><trkpt lat="44.7667575" lon="7.3100643"><ele>359.25</ele><time>2026-05-01T10:30:17.619Z</time></trkpt><trkpt lat="44.7666447" lon="7.3101761"><ele>358.5</ele><time>2026-05-01T10:30:18.62Z</time></trkpt><trkpt lat="44.7665318" lon="7.3102954"><ele>357.75</ele><time>2026-05-01T10:30:19.619Z</time></trkpt><trkpt lat="44.7664185" lon="7.3104197"><ele>357.0</ele><time>2026-05-01T10:30:20.62Z</time></trkpt><trkpt lat="44.766308" lon="7.3105337"><ele>357.0</ele><time>2026-05-01T10:30:21.62Z</time></trkpt><trkpt lat="44.7662024" lon="7.3106386"><ele>357.0</ele><time>2026-05-01T10:30:22.621Z</time></trkpt><trkpt lat="44.7661044" lon="7.3107373"><ele>357.0</ele><time>2026-05-01T10:30:23.619Z</time></trkpt><trkpt lat="44.7660172" lon="7.3108298"><ele>357.0</ele><time>2026-05-01T10:30:24.62Z</time></trkpt><trkpt lat="44.7659328" lon="7.3109176"><ele>357.75</ele><time>2026-05-01T10:30:25.619Z</time></trkpt><trkpt lat="44.7657573" lon="7.3110878"><ele>358.5</ele><time>2026-05-01T10:30:27.619Z</time></trkpt><trkpt lat="44.7656701" lon="7.3111738"><ele>359.25</ele><time>2026-05-01T10:30:28.62Z</time></trkpt><trkpt lat="44.7655839" lon="7.3112617"><ele>360.0</ele><time>2026-05-01T10:30:29.621Z</time></trkpt><trkpt lat="44.7654975" lon="7.3113425"><ele>360.0</ele><time>2026-05-01T10:30:30.62Z</time></trkpt><trkpt lat="44.7654115" lon="7.3114253"><ele>360.0</ele><time>2026-05-01T10:30:31.619Z</time></trkpt><trkpt lat="44.7653205" lon="7.3115064"><ele>360.0</ele><time>2026-05-01T10:30:32.619Z</time></trkpt><trkpt lat="44.7652267" lon="7.3115903"><ele>360.0</ele><time>2026-05-01T10:30:33.619Z</time></trkpt><trkpt lat="44.7651277" lon="7.3116786"><ele>360.0</ele><time>2026-05-01T10:30:34.62Z</time></trkpt><trkpt lat="44.7650257" lon="7.311774"><ele>360.0</ele><time>2026-05-01T10:30:35.619Z</time></trkpt><trkpt lat="44.7649179" lon="7.3118725"><ele>360.0</ele><time>2026-05-01T10:30:36.619Z</time></trkpt><trkpt lat="44.7648034" lon="7.3119744"><ele>360.0</ele><time>2026-05-01T10:30:37.618Z</time></trkpt><trkpt lat="44.7646866" lon="7.3120778"><ele>360.0</ele><time>2026-05-01T10:30:38.62Z</time></trkpt><trkpt lat="44.7645658" lon="7.3121826"><ele>360.25</ele><time>2026-05-01T10:30:39.619Z</time></trkpt><trkpt lat="44.7644415" lon="7.3122913"><ele>360.5</ele><time>2026-05-01T10:30:40.62Z</time></trkpt><trkpt lat="44.7643167" lon="7.3124025"><ele>360.75</ele><time>2026-05-01T10:30:41.621Z</time></trkpt><trkpt lat="44.7641855" lon="7.3125162"><ele>361.0</ele><time>2026-05-01T10:30:42.619Z</time></trkpt><trkpt lat="44.7640532" lon="7.3126277"><ele>361.0</ele><time>2026-05-01T10:30:43.619Z</time></trkpt><trkpt lat="44.7639338" lon="7.3127364"><ele>361.0</ele><time>2026-05-01T10:30:44.62Z</time></trkpt><trkpt lat="44.7638202" lon="7.3128381"><ele>361.0</ele><time>2026-05-01T10:30:45.621Z</time></trkpt><trkpt lat="44.7637099" lon="7.3129378"><ele>361.0</ele><time>2026-05-01T10:30:46.62Z</time></trkpt><trkpt lat="44.7635973" lon="7.3130408"><ele>361.5</ele><time>2026-05-01T10:30:47.621Z</time></trkpt><trkpt lat="44.7634834" lon="7.3131423"><ele>362.0</ele><time>2026-05-01T10:30:48.62Z</time></trkpt><trkpt lat="44.7633669" lon="7.3132491"><ele>362.5</ele><time>2026-05-01T10:30:49.62Z</time></trkpt><trkpt lat="44.7632439" lon="7.3133582"><ele>363.0</ele><time>2026-05-01T10:30:50.62Z</time></trkpt><trkpt lat="44.7631177" lon="7.3134666"><ele>363.0</ele><time>2026-05-01T10:30:51.621Z</time></trkpt><trkpt lat="44.7629859" lon="7.3135839"><ele>363.0</ele><time>2026-05-01T10:30:52.621Z</time></trkpt><trkpt lat="44.7628582" lon="7.3136996"><ele>363.0</ele><time>2026-05-01T10:30:53.62Z</time></trkpt><trkpt lat="44.7627328" lon="7.3138102"><ele>363.25</ele><time>2026-05-01T10:30:54.623Z</time></trkpt><trkpt lat="44.7626107" lon="7.3139216"><ele>363.5</ele><time>2026-05-01T10:30:55.619Z</time></trkpt><trkpt lat="44.7624902" lon="7.3140317"><ele>363.75</ele><time>2026-05-01T10:30:56.62Z</time></trkpt><trkpt lat="44.7623634" lon="7.3141346"><ele>364.0</ele><time>2026-05-01T10:30:57.62Z</time></trkpt><trkpt lat="44.7622486" lon="7.3142373"><ele>364.0</ele><time>2026-05-01T10:30:58.619Z</time></trkpt><trkpt lat="44.7621397" lon="7.3143358"><ele>364.0</ele><time>2026-05-01T10:30:59.619Z</time></trkpt><trkpt lat="44.7620343" lon="7.3144294"><ele>364.0</ele><time>2026-05-01T10:31:00.62Z</time></trkpt><trkpt lat="44.7619291" lon="7.3145245"><ele>364.0</ele><time>2026-05-01T10:31:01.619Z</time></trkpt><trkpt lat="44.7618231" lon="7.3146212"><ele>364.75</ele><time>2026-05-01T10:31:02.619Z</time></trkpt><trkpt lat="44.7617122" lon="7.3147195"><ele>365.5</ele><time>2026-05-01T10:31:03.621Z</time></trkpt><trkpt lat="44.7616031" lon="7.3148157"><ele>366.25</ele><time>2026-05-01T10:31:04.621Z</time></trkpt><trkpt lat="44.7614987" lon="7.3149156"><ele>367.0</ele><time>2026-05-01T10:31:05.619Z</time></trkpt><trkpt lat="44.7613913" lon="7.3150132"><ele>367.0</ele><time>2026-05-01T10:31:06.62Z</time></trkpt><trkpt lat="44.7612872" lon="7.3151058"><ele>367.0</ele><time>2026-05-01T10:31:07.62Z</time></trkpt><trkpt lat="44.7611922" lon="7.3151906"><ele>367.0</ele><time>2026-05-01T10:31:08.619Z</time></trkpt><trkpt lat="44.7611019" lon="7.3152753"><ele>367.0</ele><time>2026-05-01T10:31:09.619Z</time></trkpt><trkpt lat="44.76102" lon="7.315355"><ele>367.0</ele><time>2026-05-01T10:31:10.62Z</time></trkpt><trkpt lat="44.7609357" lon="7.3154367"><ele>367.16666666666663</ele><time>2026-05-01T10:31:11.619Z</time></trkpt><trkpt lat="44.7608561" lon="7.3155084"><ele>367.3333333333333</ele><time>2026-05-01T10:31:12.619Z</time></trkpt><trkpt lat="44.760776" lon="7.3155493"><ele>367.5</ele><time>2026-05-01T10:31:13.62Z</time></trkpt><trkpt lat="44.7607065" lon="7.3155416"><ele>367.6666666666667</ele><time>2026-05-01T10:31:14.618Z</time></trkpt><trkpt lat="44.7606444" lon="7.3154888"><ele>367.83333333333337</ele><time>2026-05-01T10:31:15.619Z</time></trkpt><trkpt lat="44.7605908" lon="7.3153979"><ele>368.0</ele><time>2026-05-01T10:31:16.619Z</time></trkpt><trkpt lat="44.760533" lon="7.3152871"><ele>368.0</ele><time>2026-05-01T10:31:17.62Z</time></trkpt><trkpt lat="44.7604736" lon="7.3151737"><ele>368.0</ele><time>2026-05-01T10:31:18.619Z</time></trkpt><trkpt lat="44.7604178" lon="7.3150618"><ele>368.0</ele><time>2026-05-01T10:31:19.62Z</time></trkpt><trkpt lat="44.7603678" lon="7.3149436"><ele>368.0</ele><time>2026-05-01T10:31:20.619Z</time></trkpt><trkpt lat="44.7603109" lon="7.3148253"><ele>368.0</ele><time>2026-05-01T10:31:21.62Z</time></trkpt><trkpt lat="44.7602521" lon="7.3147051"><ele>369.0</ele><time>2026-05-01T10:31:22.62Z</time></trkpt><trkpt lat="44.7601937" lon="7.3145765"><ele>370.0</ele><time>2026-05-01T10:31:23.619Z</time></trkpt><trkpt lat="44.7601332" lon="7.3144424"><ele>371.0</ele><time>2026-05-01T10:31:24.62Z</time></trkpt><trkpt lat="44.7600723" lon="7.3143103"><ele>372.0</ele><time>2026-05-01T10:31:25.621Z</time></trkpt><trkpt lat="44.7600124" lon="7.3141725"><ele>373.0</ele><time>2026-05-01T10:31:26.62Z</time></trkpt><trkpt lat="44.7599523" lon="7.3140355"><ele>373.0</ele><time>2026-05-01T10:31:27.619Z</time></trkpt><trkpt lat="44.7598988" lon="7.3139102"><ele>373.0</ele><time>2026-05-01T10:31:28.62Z</time></trkpt><trkpt lat="44.7598474" lon="7.3137935"><ele>373.0</ele><time>2026-05-01T10:31:29.62Z</time></trkpt><trkpt lat="44.7597898" lon="7.3136808"><ele>373.0</ele><time>2026-05-01T10:31:30.619Z</time></trkpt><trkpt lat="44.7597243" lon="7.3135826"><ele>373.0</ele><time>2026-05-01T10:31:31.619Z</time></trkpt><trkpt lat="44.7596422" lon="7.3135217"><ele>373.25</ele><time>2026-05-01T10:31:32.62Z</time></trkpt><trkpt lat="44.7595441" lon="7.3134947"><ele>373.5</ele><time>2026-05-01T10:31:33.619Z</time></trkpt><trkpt lat="44.7594295" lon="7.3135073"><ele>373.75</ele><time>2026-05-01T10:31:34.619Z</time></trkpt><trkpt lat="44.7593026" lon="7.3135295"><ele>374.0</ele><time>2026-05-01T10:31:35.619Z</time></trkpt><trkpt lat="44.7591668" lon="7.3135472"><ele>374.25</ele><time>2026-05-01T10:31:36.62Z</time></trkpt><trkpt lat="44.7590305" lon="7.3135682"><ele>374.5</ele><time>2026-05-01T10:31:37.62Z</time></trkpt><trkpt lat="44.7588984" lon="7.3135903"><ele>374.75</ele><time>2026-05-01T10:31:38.62Z</time></trkpt><trkpt lat="44.7587667" lon="7.3136134"><ele>375.0</ele><time>2026-05-01T10:31:39.62Z</time></trkpt><trkpt lat="44.7586371" lon="7.3136322"><ele>375.5</ele><time>2026-05-01T10:31:40.621Z</time></trkpt><trkpt lat="44.7585086" lon="7.3136507"><ele>376.0</ele><time>2026-05-01T10:31:41.621Z</time></trkpt><trkpt lat="44.7583809" lon="7.3136727"><ele>376.5</ele><time>2026-05-01T10:31:42.621Z</time></trkpt><trkpt lat="44.7582553" lon="7.3136969"><ele>377.0</ele><time>2026-05-01T10:31:43.619Z</time></trkpt><trkpt lat="44.7581268" lon="7.3137199"><ele>377.0</ele><time>2026-05-01T10:31:44.618Z</time></trkpt><trkpt lat="44.7580078" lon="7.3137427"><ele>377.0</ele><time>2026-05-01T10:31:45.619Z</time></trkpt><trkpt lat="44.7578946" lon="7.3137601"><ele>377.0</ele><time>2026-05-01T10:31:46.621Z</time></trkpt><trkpt lat="44.7577823" lon="7.3137758"><ele>377.0</ele><time>2026-05-01T10:31:47.619Z</time></trkpt><trkpt lat="44.7576883" lon="7.3137926"><ele>377.0</ele><time>2026-05-01T10:31:48.619Z</time></trkpt><trkpt lat="44.757605" lon="7.3138022"><ele>377.4285714285714</ele><time>2026-05-01T10:31:49.62Z</time></trkpt><trkpt lat="44.7575347" lon="7.3138009"><ele>377.85714285714283</ele><time>2026-05-01T10:31:50.621Z</time></trkpt><trkpt lat="44.7574697" lon="7.313779"><ele>378.2857142857143</ele><time>2026-05-01T10:31:51.619Z</time></trkpt><trkpt lat="44.7574097" lon="7.3137361"><ele>378.71428571428567</ele><time>2026-05-01T10:31:52.62Z</time></trkpt><trkpt lat="44.7573445" lon="7.3137201"><ele>379.14285714285717</ele><time>2026-05-01T10:31:53.619Z</time></trkpt><trkpt lat="44.7572763" lon="7.3137497"><ele>379.57142857142856</ele><time>2026-05-01T10:31:54.619Z</time></trkpt><trkpt lat="44.7571876" lon="7.3138035"><ele>380.0</ele><time>2026-05-01T10:31:55.619Z</time></trkpt><trkpt lat="44.7570831" lon="7.3138573"><ele>380.0</ele><time>2026-05-01T10:31:56.621Z</time></trkpt><trkpt lat="44.7569523" lon="7.3139003"><ele>380.0</ele><time>2026-05-01T10:31:57.62Z</time></trkpt><trkpt lat="44.7568021" lon="7.3139411"><ele>380.0</ele><time>2026-05-01T10:31:58.62Z</time></trkpt><trkpt lat="44.7566496" lon="7.3139808"><ele>380.0</ele><time>2026-05-01T10:31:59.62Z</time></trkpt><trkpt lat="44.7564906" lon="7.3140216"><ele>379.0</ele><time>2026-05-01T10:32:00.619Z</time></trkpt><trkpt lat="44.7563245" lon="7.3140755"><ele>378.0</ele><time>2026-05-01T10:32:01.619Z</time></trkpt><trkpt lat="44.756158" lon="7.3141461"><ele>377.0</ele><time>2026-05-01T10:32:02.618Z</time></trkpt><trkpt lat="44.7559824" lon="7.3142399"><ele>376.33333333333337</ele><time>2026-05-01T10:32:03.619Z</time></trkpt><trkpt lat="44.7558105" lon="7.3143451"><ele>375.6666666666667</ele><time>2026-05-01T10:32:04.619Z</time></trkpt><trkpt lat="44.7556331" lon="7.3144732"><ele>375.0</ele><time>2026-05-01T10:32:05.62Z</time></trkpt><trkpt lat="44.7554597" lon="7.3146198"><ele>375.0</ele><time>2026-05-01T10:32:06.619Z</time></trkpt><trkpt lat="44.7552863" lon="7.3147762"><ele>375.0</ele><time>2026-05-01T10:32:07.619Z</time></trkpt><trkpt lat="44.7551203" lon="7.3149293"><ele>375.0</ele><time>2026-05-01T10:32:08.619Z</time></trkpt><trkpt lat="44.7549588" lon="7.3150702"><ele>377.6666666666667</ele><time>2026-05-01T10:32:09.619Z</time></trkpt><trkpt lat="44.7548102" lon="7.315203"><ele>380.33333333333337</ele><time>2026-05-01T10:32:10.62Z</time></trkpt><trkpt lat="44.7546667" lon="7.3153311"><ele>383.0</ele><time>2026-05-01T10:32:11.62Z</time></trkpt><trkpt lat="44.7545351" lon="7.3154523"><ele>383.0</ele><time>2026-05-01T10:32:12.62Z</time></trkpt><trkpt lat="44.7544041" lon="7.3155681"><ele>383.0</ele><time>2026-05-01T10:32:13.618Z</time></trkpt><trkpt lat="44.7542693" lon="7.3156901"><ele>383.0</ele><time>2026-05-01T10:32:14.619Z</time></trkpt><trkpt lat="44.7541335" lon="7.3158122"><ele>382.6666666666667</ele><time>2026-05-01T10:32:15.62Z</time></trkpt><trkpt lat="44.7539963" lon="7.3159373"><ele>382.3333333333333</ele><time>2026-05-01T10:32:16.621Z</time></trkpt><trkpt lat="44.7538569" lon="7.3160703"><ele>382.0</ele><time>2026-05-01T10:32:17.619Z</time></trkpt><trkpt lat="44.7537066" lon="7.3162135"><ele>383.3333333333333</ele><time>2026-05-01T10:32:18.621Z</time></trkpt><trkpt lat="44.7535381" lon="7.3163474"><ele>384.66666666666663</ele><time>2026-05-01T10:32:19.62Z</time></trkpt><trkpt lat="44.7533662" lon="7.3164889"><ele>386.0</ele><time>2026-05-01T10:32:20.619Z</time></trkpt><trkpt lat="44.7531953" lon="7.3166213"><ele>386.0</ele><time>2026-05-01T10:32:21.619Z</time></trkpt><trkpt lat="44.7530248" lon="7.3167354"><ele>386.0</ele><time>2026-05-01T10:32:22.619Z</time></trkpt><trkpt lat="44.7528544" lon="7.3168332"><ele>386.0</ele><time>2026-05-01T10:32:23.62Z</time></trkpt><trkpt lat="44.7526835" lon="7.3169285"><ele>386.66666666666663</ele><time>2026-05-01T10:32:24.617Z</time></trkpt><trkpt lat="44.7525123" lon="7.3170039"><ele>387.33333333333337</ele><time>2026-05-01T10:32:25.619Z</time></trkpt><trkpt lat="44.7523374" lon="7.3170654"><ele>388.0</ele><time>2026-05-01T10:32:26.619Z</time></trkpt><trkpt lat="44.7521631" lon="7.3171097"><ele>388.0</ele><time>2026-05-01T10:32:27.619Z</time></trkpt><trkpt lat="44.7519816" lon="7.3171397"><ele>388.0</ele><time>2026-05-01T10:32:28.618Z</time></trkpt><trkpt lat="44.7518005" lon="7.3171607"><ele>388.0</ele><time>2026-05-01T10:32:29.621Z</time></trkpt><trkpt lat="44.7516158" lon="7.3171676"><ele>388.6666666666667</ele><time>2026-05-01T10:32:30.618Z</time></trkpt><trkpt lat="44.7514269" lon="7.3171707"><ele>389.33333333333337</ele><time>2026-05-01T10:32:31.62Z</time></trkpt><trkpt lat="44.7512387" lon="7.3171737"><ele>390.0</ele><time>2026-05-01T10:32:32.619Z</time></trkpt><trkpt lat="44.7510501" lon="7.317175"><ele>390.66666666666663</ele><time>2026-05-01T10:32:33.619Z</time></trkpt><trkpt lat="44.7508633" lon="7.317178"><ele>391.3333333333333</ele><time>2026-05-01T10:32:34.62Z</time></trkpt><trkpt lat="44.7506726" lon="7.3171879"><ele>392.0</ele><time>2026-05-01T10:32:35.62Z</time></trkpt><trkpt lat="44.7504825" lon="7.317194"><ele>392.0</ele><time>2026-05-01T10:32:36.618Z</time></trkpt><trkpt lat="44.7502927" lon="7.3172039"><ele>392.0</ele><time>2026-05-01T10:32:37.62Z</time></trkpt><trkpt lat="44.7501002" lon="7.3172105"><ele>392.0</ele><time>2026-05-01T10:32:38.618Z</time></trkpt><trkpt lat="44.7499063" lon="7.3172177"><ele>392.0</ele><time>2026-05-01T10:32:39.621Z</time></trkpt><trkpt lat="44.7497126" lon="7.3172277"><ele>392.0</ele><time>2026-05-01T10:32:40.619Z</time></trkpt><trkpt lat="44.7495183" lon="7.3172396"><ele>392.0</ele><time>2026-05-01T10:32:41.621Z</time></trkpt><trkpt lat="44.7493276" lon="7.3172473"><ele>392.3333333333333</ele><time>2026-05-01T10:32:42.62Z</time></trkpt><trkpt lat="44.7491356" lon="7.3172537"><ele>392.66666666666663</ele><time>2026-05-01T10:32:43.621Z</time></trkpt><trkpt lat="44.7489403" lon="7.3172614"><ele>393.0</ele><time>2026-05-01T10:32:44.619Z</time></trkpt><trkpt lat="44.7487461" lon="7.3172689"><ele>393.0</ele><time>2026-05-01T10:32:45.62Z</time></trkpt><trkpt lat="44.7485544" lon="7.3172833"><ele>393.0</ele><time>2026-05-01T10:32:46.62Z</time></trkpt><trkpt lat="44.7483626" lon="7.3173041"><ele>393.0</ele><time>2026-05-01T10:32:47.62Z</time></trkpt><trkpt lat="44.74818" lon="7.3173378"><ele>393.33333333333337</ele><time>2026-05-01T10:32:48.62Z</time></trkpt><trkpt lat="44.747994" lon="7.3173926"><ele>393.6666666666667</ele><time>2026-05-01T10:32:49.623Z</time></trkpt><trkpt lat="44.7478117" lon="7.3174625"><ele>394.0</ele><time>2026-05-01T10:32:50.621Z</time></trkpt><trkpt lat="44.7476283" lon="7.3175394"><ele>395.6666666666667</ele><time>2026-05-01T10:32:51.621Z</time></trkpt><trkpt lat="44.7474498" lon="7.3176295"><ele>397.33333333333337</ele><time>2026-05-01T10:32:52.619Z</time></trkpt><trkpt lat="44.7472655" lon="7.317742"><ele>399.0</ele><time>2026-05-01T10:32:53.62Z</time></trkpt><trkpt lat="44.7470862" lon="7.3178647"><ele>399.0</ele><time>2026-05-01T10:32:54.62Z</time></trkpt><trkpt lat="44.7469196" lon="7.317977"><ele>399.0</ele><time>2026-05-01T10:32:55.62Z</time></trkpt><trkpt lat="44.7467556" lon="7.318087"><ele>399.0</ele><time>2026-05-01T10:32:56.62Z</time></trkpt><trkpt lat="44.7466044" lon="7.3181936"><ele>398.25</ele><time>2026-05-01T10:32:57.622Z</time></trkpt><trkpt lat="44.7464603" lon="7.3182933"><ele>397.5</ele><time>2026-05-01T10:32:58.62Z</time></trkpt><trkpt lat="44.74633" lon="7.3183853"><ele>396.75</ele><time>2026-05-01T10:32:59.62Z</time></trkpt><trkpt lat="44.7462108" lon="7.318467"><ele>396.0</ele><time>2026-05-01T10:33:00.619Z</time></trkpt><trkpt lat="44.7461025" lon="7.3185399"><ele>397.0</ele><time>2026-05-01T10:33:01.619Z</time></trkpt><trkpt lat="44.7459993" lon="7.3186136"><ele>398.0</ele><time>2026-05-01T10:33:02.619Z</time></trkpt><trkpt lat="44.7458932" lon="7.3186892"><ele>399.0</ele><time>2026-05-01T10:33:03.62Z</time></trkpt><trkpt lat="44.7457877" lon="7.3187611"><ele>400.0</ele><time>2026-05-01T10:33:04.619Z</time></trkpt><trkpt lat="44.7456867" lon="7.31883"><ele>400.0</ele><time>2026-05-01T10:33:05.62Z</time></trkpt><trkpt lat="44.7455861" lon="7.3189005"><ele>400.0</ele><time>2026-05-01T10:33:06.619Z</time></trkpt><trkpt lat="44.7454853" lon="7.3189712"><ele>400.0</ele><time>2026-05-01T10:33:07.62Z</time></trkpt><trkpt lat="44.7453862" lon="7.3190413"><ele>400.0</ele><time>2026-05-01T10:33:08.619Z</time></trkpt><trkpt lat="44.7452781" lon="7.3191249"><ele>401.33333333333337</ele><time>2026-05-01T10:33:09.62Z</time></trkpt><trkpt lat="44.7451575" lon="7.3192232"><ele>402.66666666666663</ele><time>2026-05-01T10:33:10.618Z</time></trkpt><trkpt lat="44.7450196" lon="7.3193139"><ele>404.0</ele><time>2026-05-01T10:33:11.619Z</time></trkpt><trkpt lat="44.7448649" lon="7.3194085"><ele>404.0</ele><time>2026-05-01T10:33:12.619Z</time></trkpt><trkpt lat="44.7447015" lon="7.3195137"><ele>404.0</ele><time>2026-05-01T10:33:13.619Z</time></trkpt><trkpt lat="44.7445315" lon="7.3196303"><ele>404.0</ele><time>2026-05-01T10:33:14.62Z</time></trkpt><trkpt lat="44.7443467" lon="7.3197558"><ele>403.66666666666663</ele><time>2026-05-01T10:33:15.619Z</time></trkpt><trkpt lat="44.7441617" lon="7.3198789"><ele>403.33333333333337</ele><time>2026-05-01T10:33:16.619Z</time></trkpt><trkpt lat="44.7439799" lon="7.32"><ele>403.0</ele><time>2026-05-01T10:33:17.622Z</time></trkpt><trkpt lat="44.743793" lon="7.3201309"><ele>403.0</ele><time>2026-05-01T10:33:18.619Z</time></trkpt><trkpt lat="44.7435987" lon="7.3202631"><ele>403.0</ele><time>2026-05-01T10:33:19.62Z</time></trkpt><trkpt lat="44.7434062" lon="7.3203942"><ele>403.0</ele><time>2026-05-01T10:33:20.624Z</time></trkpt><trkpt lat="44.743208" lon="7.3205304"><ele>402.33333333333337</ele><time>2026-05-01T10:33:21.621Z</time></trkpt><trkpt lat="44.7430105" lon="7.3206681"><ele>401.66666666666663</ele><time>2026-05-01T10:33:22.619Z</time></trkpt><trkpt lat="44.7428099" lon="7.320809"><ele>401.0</ele><time>2026-05-01T10:33:23.619Z</time></trkpt><trkpt lat="44.7426064" lon="7.3209487"><ele>401.0</ele><time>2026-05-01T10:33:24.62Z</time></trkpt><trkpt lat="44.7424037" lon="7.3210931"><ele>401.0</ele><time>2026-05-01T10:33:25.619Z</time></trkpt><trkpt lat="44.7422019" lon="7.3212354"><ele>401.0</ele><time>2026-05-01T10:33:26.618Z</time></trkpt><trkpt lat="44.7419994" lon="7.3213749"><ele>401.0</ele><time>2026-05-01T10:33:27.619Z</time></trkpt><trkpt lat="44.7417998" lon="7.321515"><ele>401.0</ele><time>2026-05-01T10:33:28.62Z</time></trkpt><trkpt lat="44.7415978" lon="7.3216524"><ele>400.3333333333333</ele><time>2026-05-01T10:33:29.619Z</time></trkpt><trkpt lat="44.7413967" lon="7.3217818"><ele>399.66666666666663</ele><time>2026-05-01T10:33:30.619Z</time></trkpt><trkpt lat="44.7411947" lon="7.3219019"><ele>399.0</ele><time>2026-05-01T10:33:31.62Z</time></trkpt><trkpt lat="44.7409874" lon="7.3220075"><ele>399.0</ele><time>2026-05-01T10:33:32.619Z</time></trkpt><trkpt lat="44.7407788" lon="7.3220987"><ele>399.0</ele><time>2026-05-01T10:33:33.619Z</time></trkpt><trkpt lat="44.74056" lon="7.3221753"><ele>399.0</ele><time>2026-05-01T10:33:34.619Z</time></trkpt><trkpt lat="44.7403264" lon="7.3222416"><ele>398.0</ele><time>2026-05-01T10:33:35.62Z</time></trkpt><trkpt lat="44.7400879" lon="7.3222941"><ele>397.0</ele><time>2026-05-01T10:33:36.618Z</time></trkpt><trkpt lat="44.7398417" lon="7.3223436"><ele>397.0</ele><time>2026-05-01T10:33:37.619Z</time></trkpt><trkpt lat="44.7395908" lon="7.322392"><ele>397.0</ele><time>2026-05-01T10:33:38.619Z</time></trkpt><trkpt lat="44.7393417" lon="7.3224402"><ele>397.5</ele><time>2026-05-01T10:33:39.619Z</time></trkpt><trkpt lat="44.7391043" lon="7.3224839"><ele>398.0</ele><time>2026-05-01T10:33:40.622Z</time></trkpt><trkpt lat="44.7388617" lon="7.3225291"><ele>398.0</ele><time>2026-05-01T10:33:41.619Z</time></trkpt><trkpt lat="44.7386183" lon="7.3225745"><ele>398.0</ele><time>2026-05-01T10:33:42.621Z</time></trkpt><trkpt lat="44.738372" lon="7.3226187"><ele>398.0</ele><time>2026-05-01T10:33:43.621Z</time></trkpt><trkpt lat="44.738121" lon="7.322664"><ele>398.0</ele><time>2026-05-01T10:33:44.618Z</time></trkpt><trkpt lat="44.7378712" lon="7.3227073"><ele>399.0</ele><time>2026-05-01T10:33:45.62Z</time></trkpt><trkpt lat="44.7376251" lon="7.3227529"><ele>400.0</ele><time>2026-05-01T10:33:46.62Z</time></trkpt><trkpt lat="44.7373908" lon="7.3227943"><ele>400.0</ele><time>2026-05-01T10:33:47.62Z</time></trkpt><trkpt lat="44.7371733" lon="7.3228323"><ele>400.0</ele><time>2026-05-01T10:33:48.62Z</time></trkpt><trkpt lat="44.7369626" lon="7.3228701"><ele>400.0</ele><time>2026-05-01T10:33:49.62Z</time></trkpt><trkpt lat="44.7367601" lon="7.3229058"><ele>400.0</ele><time>2026-05-01T10:33:50.619Z</time></trkpt><trkpt lat="44.736556" lon="7.3229405"><ele>400.0</ele><time>2026-05-01T10:33:51.621Z</time></trkpt><trkpt lat="44.7363515" lon="7.3229789"><ele>400.0</ele><time>2026-05-01T10:33:52.62Z</time></trkpt><trkpt lat="44.7361436" lon="7.3230178"><ele>399.6666666666667</ele><time>2026-05-01T10:33:53.62Z</time></trkpt><trkpt lat="44.7359339" lon="7.3230579"><ele>399.33333333333337</ele><time>2026-05-01T10:33:54.619Z</time></trkpt><trkpt lat="44.7357241" lon="7.323097"><ele>399.0</ele><time>2026-05-01T10:33:55.62Z</time></trkpt><trkpt lat="44.735518" lon="7.323136"><ele>398.33333333333337</ele><time>2026-05-01T10:33:56.62Z</time></trkpt><trkpt lat="44.735312" lon="7.3232005"><ele>397.6666666666667</ele><time>2026-05-01T10:33:57.619Z</time></trkpt><trkpt lat="44.7351052" lon="7.3232736"><ele>397.0</ele><time>2026-05-01T10:33:58.62Z</time></trkpt><trkpt lat="44.7349033" lon="7.3233572"><ele>397.0</ele><time>2026-05-01T10:33:59.619Z</time></trkpt><trkpt lat="44.734703" lon="7.3234469"><ele>397.0</ele><time>2026-05-01T10:34:00.619Z</time></trkpt><trkpt lat="44.7345085" lon="7.3235381"><ele>397.0</ele><time>2026-05-01T10:34:01.62Z</time></trkpt><trkpt lat="44.7343174" lon="7.32363"><ele>397.6666666666667</ele><time>2026-05-01T10:34:02.62Z</time></trkpt><trkpt lat="44.7341412" lon="7.3237115"><ele>398.33333333333337</ele><time>2026-05-01T10:34:03.619Z</time></trkpt><trkpt lat="44.7339708" lon="7.3237933"><ele>399.0</ele><time>2026-05-01T10:34:04.619Z</time></trkpt><trkpt lat="44.7337992" lon="7.3238748"><ele>397.66666666666663</ele><time>2026-05-01T10:34:05.619Z</time></trkpt><trkpt lat="44.7336346" lon="7.3239556"><ele>396.3333333333333</ele><time>2026-05-01T10:34:06.62Z</time></trkpt><trkpt lat="44.733477" lon="7.3240322"><ele>395.0</ele><time>2026-05-01T10:34:07.62Z</time></trkpt><trkpt lat="44.7333249" lon="7.3241022"><ele>394.75</ele><time>2026-05-01T10:34:08.62Z</time></trkpt><trkpt lat="44.7331858" lon="7.3241738"><ele>394.5</ele><time>2026-05-01T10:34:09.621Z</time></trkpt><trkpt lat="44.7330477" lon="7.3242369"><ele>394.25</ele><time>2026-05-01T10:34:10.619Z</time></trkpt><trkpt lat="44.7329154" lon="7.324301"><ele>394.0</ele><time>2026-05-01T10:34:11.619Z</time></trkpt><trkpt lat="44.7327817" lon="7.3243622"><ele>393.5</ele><time>2026-05-01T10:34:12.621Z</time></trkpt><trkpt lat="44.7326561" lon="7.3244237"><ele>393.0</ele><time>2026-05-01T10:34:13.619Z</time></trkpt><trkpt lat="44.7325297" lon="7.324485"><ele>392.5</ele><time>2026-05-01T10:34:14.623Z</time></trkpt><trkpt lat="44.7324042" lon="7.3245449"><ele>392.0</ele><time>2026-05-01T10:34:15.62Z</time></trkpt><trkpt lat="44.7322801" lon="7.3246015"><ele>392.0</ele><time>2026-05-01T10:34:16.62Z</time></trkpt><trkpt lat="44.7321541" lon="7.3246632"><ele>392.0</ele><time>2026-05-01T10:34:17.619Z</time></trkpt><trkpt lat="44.7320306" lon="7.32472"><ele>392.0</ele><time>2026-05-01T10:34:18.619Z</time></trkpt><trkpt lat="44.7318982" lon="7.3247861"><ele>392.0</ele><time>2026-05-01T10:34:19.619Z</time></trkpt><trkpt lat="44.7317406" lon="7.3248657"><ele>390.0</ele><time>2026-05-01T10:34:20.619Z</time></trkpt><trkpt lat="44.7315806" lon="7.3249414"><ele>388.0</ele><time>2026-05-01T10:34:21.62Z</time></trkpt><trkpt lat="44.7314321" lon="7.3250181"><ele>386.0</ele><time>2026-05-01T10:34:22.62Z</time></trkpt><trkpt lat="44.7312823" lon="7.3250919"><ele>386.0</ele><time>2026-05-01T10:34:23.619Z</time></trkpt><trkpt lat="44.7311328" lon="7.3251695"><ele>386.0</ele><time>2026-05-01T10:34:24.62Z</time></trkpt><trkpt lat="44.7309875" lon="7.325247"><ele>386.0</ele><time>2026-05-01T10:34:25.62Z</time></trkpt><trkpt lat="44.7308441" lon="7.3253198"><ele>385.3333333333333</ele><time>2026-05-01T10:34:26.619Z</time></trkpt><trkpt lat="44.7307" lon="7.3253892"><ele>384.66666666666663</ele><time>2026-05-01T10:34:27.619Z</time></trkpt><trkpt lat="44.7305539" lon="7.3254587"><ele>384.0</ele><time>2026-05-01T10:34:28.619Z</time></trkpt><trkpt lat="44.730406" lon="7.3255329"><ele>383.0</ele><time>2026-05-01T10:34:29.619Z</time></trkpt><trkpt lat="44.7302565" lon="7.3256067"><ele>382.0</ele><time>2026-05-01T10:34:30.62Z</time></trkpt><trkpt lat="44.7301072" lon="7.3256834"><ele>381.0</ele><time>2026-05-01T10:34:31.619Z</time></trkpt><trkpt lat="44.729953" lon="7.3257561"><ele>381.0</ele><time>2026-05-01T10:34:32.618Z</time></trkpt><trkpt lat="44.7298034" lon="7.3258191"><ele>381.0</ele><time>2026-05-01T10:34:33.62Z</time></trkpt><trkpt lat="44.7296603" lon="7.3258797"><ele>381.0</ele><time>2026-05-01T10:34:34.619Z</time></trkpt><trkpt lat="44.7295248" lon="7.3259291"><ele>381.0</ele><time>2026-05-01T10:34:35.619Z</time></trkpt><trkpt lat="44.7293917" lon="7.3259686"><ele>380.25</ele><time>2026-05-01T10:34:36.619Z</time></trkpt><trkpt lat="44.729266" lon="7.3259995"><ele>379.5</ele><time>2026-05-01T10:34:37.62Z</time></trkpt><trkpt lat="44.7291425" lon="7.3260206"><ele>378.75</ele><time>2026-05-01T10:34:38.619Z</time></trkpt><trkpt lat="44.7290252" lon="7.3260402"><ele>378.0</ele><time>2026-05-01T10:34:39.618Z</time></trkpt><trkpt lat="44.7289133" lon="7.3260462"><ele>378.0</ele><time>2026-05-01T10:34:40.618Z</time></trkpt><trkpt lat="44.7288014" lon="7.3260527"><ele>378.0</ele><time>2026-05-01T10:34:41.619Z</time></trkpt><trkpt lat="44.7286862" lon="7.3260528"><ele>378.0</ele><time>2026-05-01T10:34:42.621Z</time></trkpt><trkpt lat="44.7285728" lon="7.3260495"><ele>378.0</ele><time>2026-05-01T10:34:43.619Z</time></trkpt><trkpt lat="44.7284642" lon="7.3260362"><ele>377.1666666666667</ele><time>2026-05-01T10:34:44.619Z</time></trkpt><trkpt lat="44.7283625" lon="7.3260264"><ele>376.3333333333333</ele><time>2026-05-01T10:34:45.62Z</time></trkpt><trkpt lat="44.7282744" lon="7.3260169"><ele>375.5</ele><time>2026-05-01T10:34:46.618Z</time></trkpt><trkpt lat="44.7281905" lon="7.3260029"><ele>374.66666666666663</ele><time>2026-05-01T10:34:47.619Z</time></trkpt><trkpt lat="44.7281063" lon="7.3259828"><ele>373.8333333333333</ele><time>2026-05-01T10:34:48.618Z</time></trkpt><trkpt lat="44.7280254" lon="7.3259307"><ele>373.0</ele><time>2026-05-01T10:34:49.617Z</time></trkpt><trkpt lat="44.7279514" lon="7.3258366"><ele>373.0</ele><time>2026-05-01T10:34:50.619Z</time></trkpt><trkpt lat="44.7278888" lon="7.3257046"><ele>373.0</ele><time>2026-05-01T10:34:51.618Z</time></trkpt><trkpt lat="44.7278459" lon="7.3255517"><ele>373.0</ele><time>2026-05-01T10:34:52.621Z</time></trkpt><trkpt lat="44.7278095" lon="7.32538"><ele>373.0</ele><time>2026-05-01T10:34:53.62Z</time></trkpt><trkpt lat="44.7277699" lon="7.3251902"><ele>372.3333333333333</ele><time>2026-05-01T10:34:54.619Z</time></trkpt><trkpt lat="44.7277238" lon="7.3249869"><ele>371.6666666666667</ele><time>2026-05-01T10:34:55.62Z</time></trkpt><trkpt lat="44.7276778" lon="7.3247831"><ele>371.0</ele><time>2026-05-01T10:34:56.619Z</time></trkpt><trkpt lat="44.7276319" lon="7.3245735"><ele>371.0</ele><time>2026-05-01T10:34:57.62Z</time></trkpt><trkpt lat="44.7275909" lon="7.3243531"><ele>371.0</ele><time>2026-05-01T10:34:58.619Z</time></trkpt><trkpt lat="44.7275464" lon="7.3241331"><ele>371.0</ele><time>2026-05-01T10:34:59.619Z</time></trkpt><trkpt lat="44.727504" lon="7.3239184"><ele>371.33333333333337</ele><time>2026-05-01T10:35:00.619Z</time></trkpt><trkpt lat="44.7274514" lon="7.3237217"><ele>371.6666666666667</ele><time>2026-05-01T10:35:01.62Z</time></trkpt><trkpt lat="44.7273802" lon="7.3235354"><ele>372.0</ele><time>2026-05-01T10:35:02.619Z</time></trkpt><trkpt lat="44.72729" lon="7.3233668"><ele>372.0</ele><time>2026-05-01T10:35:03.62Z</time></trkpt><trkpt lat="44.7271916" lon="7.3232079"><ele>372.0</ele><time>2026-05-01T10:35:04.62Z</time></trkpt><trkpt lat="44.7271072" lon="7.3230562"><ele>372.0</ele><time>2026-05-01T10:35:05.619Z</time></trkpt><trkpt lat="44.7270271" lon="7.3229231"><ele>372.0</ele><time>2026-05-01T10:35:06.619Z</time></trkpt><trkpt lat="44.7269561" lon="7.3227942"><ele>372.3333333333333</ele><time>2026-05-01T10:35:07.62Z</time></trkpt><trkpt lat="44.7269048" lon="7.322663"><ele>372.6666666666667</ele><time>2026-05-01T10:35:08.619Z</time></trkpt><trkpt lat="44.7268632" lon="7.3225386"><ele>373.0</ele><time>2026-05-01T10:35:09.618Z</time></trkpt><trkpt lat="44.7268055" lon="7.322455"><ele>373.33333333333337</ele><time>2026-05-01T10:35:10.619Z</time></trkpt><trkpt lat="44.7267392" lon="7.3224141"><ele>373.6666666666667</ele><time>2026-05-01T10:35:11.625Z</time></trkpt><trkpt lat="44.7266577" lon="7.322416"><ele>374.0</ele><time>2026-05-01T10:35:12.62Z</time></trkpt><trkpt lat="44.7265701" lon="7.3224242"><ele>374.79999999999995</ele><time>2026-05-01T10:35:13.62Z</time></trkpt><trkpt lat="44.7264853" lon="7.3224188"><ele>375.59999999999997</ele><time>2026-05-01T10:35:14.62Z</time></trkpt><trkpt lat="44.7263968" lon="7.322411"><ele>376.4</ele><time>2026-05-01T10:35:15.619Z</time></trkpt><trkpt lat="44.7263009" lon="7.3224039"><ele>377.2</ele><time>2026-05-01T10:35:16.619Z</time></trkpt><trkpt lat="44.7261955" lon="7.3223928"><ele>378.0</ele><time>2026-05-01T10:35:17.619Z</time></trkpt><trkpt lat="44.7260904" lon="7.3223787"><ele>378.2</ele><time>2026-05-01T10:35:18.621Z</time></trkpt><trkpt lat="44.7259869" lon="7.3223658"><ele>378.4</ele><time>2026-05-01T10:35:19.619Z</time></trkpt><trkpt lat="44.725887" lon="7.3223479"><ele>378.59999999999997</ele><time>2026-05-01T10:35:20.62Z</time></trkpt><trkpt lat="44.7257893" lon="7.322331"><ele>378.79999999999995</ele><time>2026-05-01T10:35:21.619Z</time></trkpt><trkpt lat="44.7257026" lon="7.3223189"><ele>379.0</ele><time>2026-05-01T10:35:22.62Z</time></trkpt><trkpt lat="44.7256173" lon="7.322305"><ele>379.0</ele><time>2026-05-01T10:35:23.618Z</time></trkpt><trkpt lat="44.7255443" lon="7.3222996"><ele>379.0</ele><time>2026-05-01T10:35:24.619Z</time></trkpt><trkpt lat="44.7254804" lon="7.3222925"><ele>379.0</ele><time>2026-05-01T10:35:25.62Z</time></trkpt><trkpt lat="44.7253723" lon="7.3222896"><ele>379.0</ele><time>2026-05-01T10:35:27.619Z</time></trkpt><trkpt lat="44.7253034" lon="7.3222865"><ele>379.0</ele><time>2026-05-01T10:35:28.623Z</time></trkpt><trkpt lat="44.7252159" lon="7.3222751"><ele>379.0</ele><time>2026-05-01T10:35:29.62Z</time></trkpt><trkpt lat="44.7251245" lon="7.3222708"><ele>378.5</ele><time>2026-05-01T10:35:30.62Z</time></trkpt><trkpt lat="44.7250386" lon="7.3222679"><ele>378.0</ele><time>2026-05-01T10:35:31.621Z</time></trkpt><trkpt lat="44.724952" lon="7.3222577"><ele>377.5</ele><time>2026-05-01T10:35:32.621Z</time></trkpt><trkpt lat="44.7247605" lon="7.3222261"><ele>377.0</ele><time>2026-05-01T10:35:34.621Z</time></trkpt><trkpt lat="44.7246415" lon="7.3222126"><ele>377.5</ele><time>2026-05-01T10:35:35.618Z</time></trkpt><trkpt lat="44.724501" lon="7.3221925"><ele>378.0</ele><time>2026-05-01T10:35:36.621Z</time></trkpt><trkpt lat="44.7243555" lon="7.3221625"><ele>378.5</ele><time>2026-05-01T10:35:37.619Z</time></trkpt><trkpt lat="44.7242125" lon="7.3221294"><ele>379.0</ele><time>2026-05-01T10:35:38.619Z</time></trkpt><trkpt lat="44.7240772" lon="7.3221008"><ele>379.0</ele><time>2026-05-01T10:35:39.62Z</time></trkpt><trkpt lat="44.7239448" lon="7.3220793"><ele>379.0</ele><time>2026-05-01T10:35:40.62Z</time></trkpt><trkpt lat="44.7238114" lon="7.3220635"><ele>379.0</ele><time>2026-05-01T10:35:41.619Z</time></trkpt><trkpt lat="44.7236783" lon="7.322045"><ele>379.0</ele><time>2026-05-01T10:35:42.62Z</time></trkpt><trkpt lat="44.7235472" lon="7.3220228"><ele>379.0</ele><time>2026-05-01T10:35:43.621Z</time></trkpt><trkpt lat="44.7234076" lon="7.3219806"><ele>379.0</ele><time>2026-05-01T10:35:44.621Z</time></trkpt><trkpt lat="44.7232598" lon="7.321924"><ele>379.0</ele><time>2026-05-01T10:35:45.62Z</time></trkpt><trkpt lat="44.7231027" lon="7.3218484"><ele>379.0</ele><time>2026-05-01T10:35:46.62Z</time></trkpt><trkpt lat="44.7229284" lon="7.3217554"><ele>379.0</ele><time>2026-05-01T10:35:47.62Z</time></trkpt><trkpt lat="44.7227452" lon="7.3216499"><ele>379.0</ele><time>2026-05-01T10:35:48.619Z</time></trkpt><trkpt lat="44.7225686" lon="7.3215567"><ele>378.66666666666663</ele><time>2026-05-01T10:35:49.619Z</time></trkpt><trkpt lat="44.7223869" lon="7.3214601"><ele>378.3333333333333</ele><time>2026-05-01T10:35:50.618Z</time></trkpt><trkpt lat="44.7222109" lon="7.3213785"><ele>378.0</ele><time>2026-05-01T10:35:51.62Z</time></trkpt><trkpt lat="44.722023" lon="7.3213143"><ele>379.0</ele><time>2026-05-01T10:35:52.619Z</time></trkpt><trkpt lat="44.7218271" lon="7.3212744"><ele>380.0</ele><time>2026-05-01T10:35:53.619Z</time></trkpt><trkpt lat="44.7216287" lon="7.32126"><ele>381.0</ele><time>2026-05-01T10:35:54.62Z</time></trkpt><trkpt lat="44.7214284" lon="7.3212662"><ele>381.0</ele><time>2026-05-01T10:35:55.619Z</time></trkpt><trkpt lat="44.7212285" lon="7.3213042"><ele>381.0</ele><time>2026-05-01T10:35:56.62Z</time></trkpt><trkpt lat="44.7210267" lon="7.3213682"><ele>381.0</ele><time>2026-05-01T10:35:57.619Z</time></trkpt><trkpt lat="44.7208281" lon="7.3214521"><ele>380.3333333333333</ele><time>2026-05-01T10:35:58.62Z</time></trkpt><trkpt lat="44.7206314" lon="7.321558"><ele>379.66666666666663</ele><time>2026-05-01T10:35:59.619Z</time></trkpt><trkpt lat="44.7204494" lon="7.3216623"><ele>379.0</ele><time>2026-05-01T10:36:00.622Z</time></trkpt><trkpt lat="44.7202727" lon="7.3217558"><ele>382.3333333333333</ele><time>2026-05-01T10:36:01.618Z</time></trkpt><trkpt lat="44.7201071" lon="7.3218376"><ele>385.66666666666663</ele><time>2026-05-01T10:36:02.623Z</time></trkpt><trkpt lat="44.7199355" lon="7.3218969"><ele>389.0</ele><time>2026-05-01T10:36:03.619Z</time></trkpt><trkpt lat="44.7195798" lon="7.3219223"><ele>386.0</ele><time>2026-05-01T10:36:05.619Z</time></trkpt><trkpt lat="44.7193976" lon="7.3218845"><ele>383.0</ele><time>2026-05-01T10:36:06.618Z</time></trkpt><trkpt lat="44.7192177" lon="7.3218121"><ele>380.0</ele><time>2026-05-01T10:36:07.619Z</time></trkpt><trkpt lat="44.7190381" lon="7.3217131"><ele>380.0</ele><time>2026-05-01T10:36:08.621Z</time></trkpt><trkpt lat="44.7188596" lon="7.3216027"><ele>380.0</ele><time>2026-05-01T10:36:09.62Z</time></trkpt><trkpt lat="44.7186941" lon="7.3214968"><ele>380.0</ele><time>2026-05-01T10:36:10.62Z</time></trkpt><trkpt lat="44.7185363" lon="7.3214001"><ele>380.6666666666667</ele><time>2026-05-01T10:36:11.62Z</time></trkpt><trkpt lat="44.7183784" lon="7.3213296"><ele>381.3333333333333</ele><time>2026-05-01T10:36:12.621Z</time></trkpt><trkpt lat="44.7182108" lon="7.3212849"><ele>382.0</ele><time>2026-05-01T10:36:13.621Z</time></trkpt><trkpt lat="44.718039" lon="7.3212497"><ele>382.0</ele><time>2026-05-01T10:36:14.619Z</time></trkpt><trkpt lat="44.7178638" lon="7.321232"><ele>382.0</ele><time>2026-05-01T10:36:15.62Z</time></trkpt><trkpt lat="44.7176758" lon="7.3212259"><ele>382.0</ele><time>2026-05-01T10:36:16.621Z</time></trkpt><trkpt lat="44.717484" lon="7.3212016"><ele>382.3333333333333</ele><time>2026-05-01T10:36:17.62Z</time></trkpt><trkpt lat="44.7172814" lon="7.321156"><ele>382.6666666666667</ele><time>2026-05-01T10:36:18.618Z</time></trkpt><trkpt lat="44.717074" lon="7.3210966"><ele>383.0</ele><time>2026-05-01T10:36:19.62Z</time></trkpt><trkpt lat="44.7168834" lon="7.3210336"><ele>383.0</ele><time>2026-05-01T10:36:20.618Z</time></trkpt><trkpt lat="44.7167067" lon="7.3209674"><ele>383.0</ele><time>2026-05-01T10:36:21.619Z</time></trkpt><trkpt lat="44.7165245" lon="7.3208929"><ele>383.0</ele><time>2026-05-01T10:36:22.619Z</time></trkpt><trkpt lat="44.7163528" lon="7.3208045"><ele>383.0</ele><time>2026-05-01T10:36:23.619Z</time></trkpt><trkpt lat="44.7161945" lon="7.3206977"><ele>383.0</ele><time>2026-05-01T10:36:24.618Z</time></trkpt><trkpt lat="44.716052" lon="7.3205729"><ele>383.0</ele><time>2026-05-01T10:36:25.618Z</time></trkpt><trkpt lat="44.7159188" lon="7.3204349"><ele>383.6666666666667</ele><time>2026-05-01T10:36:26.619Z</time></trkpt><trkpt lat="44.7158003" lon="7.3202891"><ele>384.33333333333337</ele><time>2026-05-01T10:36:27.619Z</time></trkpt><trkpt lat="44.7156881" lon="7.3201255"><ele>385.0</ele><time>2026-05-01T10:36:28.619Z</time></trkpt><trkpt lat="44.7155964" lon="7.3199519"><ele>385.0</ele><time>2026-05-01T10:36:29.618Z</time></trkpt><trkpt lat="44.7155137" lon="7.3197673"><ele>385.0</ele><time>2026-05-01T10:36:30.621Z</time></trkpt><trkpt lat="44.7154369" lon="7.3195706"><ele>385.0</ele><time>2026-05-01T10:36:31.619Z</time></trkpt><trkpt lat="44.7153699" lon="7.3193677"><ele>386.6666666666667</ele><time>2026-05-01T10:36:32.619Z</time></trkpt><trkpt lat="44.7153066" lon="7.3191563"><ele>388.33333333333337</ele><time>2026-05-01T10:36:33.621Z</time></trkpt><trkpt lat="44.715242" lon="7.3189537"><ele>390.0</ele><time>2026-05-01T10:36:34.62Z</time></trkpt><trkpt lat="44.7150932" lon="7.3185639"><ele>390.33333333333337</ele><time>2026-05-01T10:36:36.62Z</time></trkpt><trkpt lat="44.7150055" lon="7.3183779"><ele>390.6666666666667</ele><time>2026-05-01T10:36:37.618Z</time></trkpt><trkpt lat="44.7149152" lon="7.3181996"><ele>391.0</ele><time>2026-05-01T10:36:38.618Z</time></trkpt><trkpt lat="44.71483" lon="7.3180416"><ele>391.0</ele><time>2026-05-01T10:36:39.62Z</time></trkpt><trkpt lat="44.7147405" lon="7.3179044"><ele>391.0</ele><time>2026-05-01T10:36:40.619Z</time></trkpt><trkpt lat="44.7146541" lon="7.317779"><ele>391.0</ele><time>2026-05-01T10:36:41.62Z</time></trkpt><trkpt lat="44.7145679" lon="7.3176765"><ele>391.0</ele><time>2026-05-01T10:36:42.62Z</time></trkpt><trkpt lat="44.7144812" lon="7.3176059"><ele>391.20000000000005</ele><time>2026-05-01T10:36:43.64Z</time></trkpt><trkpt lat="44.7143885" lon="7.3175736"><ele>391.40000000000003</ele><time>2026-05-01T10:36:44.618Z</time></trkpt><trkpt lat="44.7142898" lon="7.3175877"><ele>391.6</ele><time>2026-05-01T10:36:45.618Z</time></trkpt><trkpt lat="44.7141824" lon="7.3176366"><ele>391.8</ele><time>2026-05-01T10:36:46.619Z</time></trkpt><trkpt lat="44.714064" lon="7.3176823"><ele>392.0</ele><time>2026-05-01T10:36:47.618Z</time></trkpt><trkpt lat="44.7139295" lon="7.317711"><ele>392.0</ele><time>2026-05-01T10:36:48.62Z</time></trkpt><trkpt lat="44.7137885" lon="7.3177401"><ele>392.0</ele><time>2026-05-01T10:36:49.619Z</time></trkpt><trkpt lat="44.7136566" lon="7.3177769"><ele>392.0</ele><time>2026-05-01T10:36:50.62Z</time></trkpt><trkpt lat="44.7135454" lon="7.3178333"><ele>392.0</ele><time>2026-05-01T10:36:51.619Z</time></trkpt><trkpt lat="44.713452" lon="7.3179436"><ele>395.5</ele><time>2026-05-01T10:36:52.619Z</time></trkpt><trkpt lat="44.713368" lon="7.3180904"><ele>399.0</ele><time>2026-05-01T10:36:53.618Z</time></trkpt><trkpt lat="44.7132807" lon="7.3182504"><ele>402.5</ele><time>2026-05-01T10:36:54.619Z</time></trkpt><trkpt lat="44.7131908" lon="7.3184251"><ele>406.0</ele><time>2026-05-01T10:36:55.619Z</time></trkpt><trkpt lat="44.7130903" lon="7.3186116"><ele>406.0</ele><time>2026-05-01T10:36:56.62Z</time></trkpt><trkpt lat="44.7129752" lon="7.3187974"><ele>406.0</ele><time>2026-05-01T10:36:57.62Z</time></trkpt><trkpt lat="44.7128489" lon="7.318985"><ele>406.0</ele><time>2026-05-01T10:36:58.619Z</time></trkpt><trkpt lat="44.71272" lon="7.3191634"><ele>411.6666666666667</ele><time>2026-05-01T10:36:59.619Z</time></trkpt><trkpt lat="44.7125955" lon="7.3193129"><ele>417.33333333333337</ele><time>2026-05-01T10:37:00.62Z</time></trkpt><trkpt lat="44.7124888" lon="7.3194609"><ele>423.0</ele><time>2026-05-01T10:37:01.619Z</time></trkpt><trkpt lat="44.7124053" lon="7.3196221"><ele>425.33333333333337</ele><time>2026-05-01T10:37:02.619Z</time></trkpt><trkpt lat="44.7123427" lon="7.3198088"><ele>427.6666666666667</ele><time>2026-05-01T10:37:03.619Z</time></trkpt><trkpt lat="44.7123048" lon="7.3200149"><ele>430.0</ele><time>2026-05-01T10:37:04.62Z</time></trkpt><trkpt lat="44.7122622" lon="7.3202323"><ele>430.0</ele><time>2026-05-01T10:37:05.619Z</time></trkpt><trkpt lat="44.7122206" lon="7.3204642"><ele>430.0</ele><time>2026-05-01T10:37:06.622Z</time></trkpt><trkpt lat="44.7121802" lon="7.3206969"><ele>430.0</ele><time>2026-05-01T10:37:07.621Z</time></trkpt><trkpt lat="44.7121347" lon="7.3209053"><ele>431.0</ele><time>2026-05-01T10:37:08.619Z</time></trkpt><trkpt lat="44.7120799" lon="7.3210824"><ele>432.0</ele><time>2026-05-01T10:37:09.619Z</time></trkpt><trkpt lat="44.7120183" lon="7.3212138"><ele>433.0</ele><time>2026-05-01T10:37:10.619Z</time></trkpt><trkpt lat="44.7119574" lon="7.3212794"><ele>434.0</ele><time>2026-05-01T10:37:11.619Z</time></trkpt><trkpt lat="44.7118948" lon="7.3212926"><ele>435.0</ele><time>2026-05-01T10:37:12.618Z</time></trkpt><trkpt lat="44.7118045" lon="7.3211589"><ele>439.3333333333333</ele><time>2026-05-01T10:37:14.619Z</time></trkpt><trkpt lat="44.7117912" lon="7.3210455"><ele>443.66666666666663</ele><time>2026-05-01T10:37:15.618Z</time></trkpt><trkpt lat="44.7117722" lon="7.3209293"><ele>448.0</ele><time>2026-05-01T10:37:16.619Z</time></trkpt><trkpt lat="44.7117253" lon="7.3208518"><ele>452.3333333333333</ele><time>2026-05-01T10:37:17.619Z</time></trkpt><trkpt lat="44.7116569" lon="7.3208302"><ele>456.66666666666663</ele><time>2026-05-01T10:37:18.619Z</time></trkpt><trkpt lat="44.7115965" lon="7.320871"><ele>461.0</ele><time>2026-05-01T10:37:19.618Z</time></trkpt><trkpt lat="44.7115573" lon="7.3209595"><ele>461.0</ele><time>2026-05-01T10:37:20.618Z</time></trkpt><trkpt lat="44.7115265" lon="7.3210767"><ele>461.0</ele><time>2026-05-01T10:37:21.619Z</time></trkpt><trkpt lat="44.7114901" lon="7.3212175"><ele>461.0</ele><time>2026-05-01T10:37:22.619Z</time></trkpt><trkpt lat="44.7114509" lon="7.3213765"><ele>461.0</ele><time>2026-05-01T10:37:23.619Z</time></trkpt><trkpt lat="44.7114309" lon="7.3215309"><ele>461.0</ele><time>2026-05-01T10:37:24.619Z</time></trkpt><trkpt lat="44.7114307" lon="7.3216814"><ele>461.0</ele><time>2026-05-01T10:37:25.619Z</time></trkpt><trkpt lat="44.7114557" lon="7.3218484"><ele>461.0</ele><time>2026-05-01T10:37:26.619Z</time></trkpt><trkpt lat="44.7115097" lon="7.3220096"><ele>461.0</ele><time>2026-05-01T10:37:27.62Z</time></trkpt><trkpt lat="44.7115702" lon="7.3221639"><ele>461.0</ele><time>2026-05-01T10:37:28.619Z</time></trkpt><trkpt lat="44.7116054" lon="7.3223103"><ele>463.0</ele><time>2026-05-01T10:37:29.62Z</time></trkpt><trkpt lat="44.7116179" lon="7.3224773"><ele>465.0</ele><time>2026-05-01T10:37:30.619Z</time></trkpt><trkpt lat="44.7115984" lon="7.3226564"><ele>467.0</ele><time>2026-05-01T10:37:31.62Z</time></trkpt><trkpt lat="44.7115482" lon="7.3228343"><ele>469.0</ele><time>2026-05-01T10:37:32.621Z</time></trkpt><trkpt lat="44.7114621" lon="7.3229974"><ele>470.25</ele><time>2026-05-01T10:37:33.619Z</time></trkpt><trkpt lat="44.7113527" lon="7.3231605"><ele>471.5</ele><time>2026-05-01T10:37:34.618Z</time></trkpt><trkpt lat="44.7112352" lon="7.3233"><ele>472.75</ele><time>2026-05-01T10:37:35.619Z</time></trkpt><trkpt lat="44.7111317" lon="7.323419"><ele>474.0</ele><time>2026-05-01T10:37:36.619Z</time></trkpt><trkpt lat="44.7110434" lon="7.3235738"><ele>477.5</ele><time>2026-05-01T10:37:37.619Z</time></trkpt><trkpt lat="44.7109743" lon="7.3237575"><ele>481.0</ele><time>2026-05-01T10:37:38.619Z</time></trkpt><trkpt lat="44.7109047" lon="7.3239513"><ele>484.5</ele><time>2026-05-01T10:37:39.617Z</time></trkpt><trkpt lat="44.7108307" lon="7.3241092"><ele>488.0</ele><time>2026-05-01T10:37:40.618Z</time></trkpt><trkpt lat="44.7107481" lon="7.3242377"><ele>488.0</ele><time>2026-05-01T10:37:41.619Z</time></trkpt><trkpt lat="44.7106374" lon="7.3243425"><ele>488.0</ele><time>2026-05-01T10:37:42.619Z</time></trkpt><trkpt lat="44.7105024" lon="7.3244094"><ele>488.0</ele><time>2026-05-01T10:37:43.622Z</time></trkpt><trkpt lat="44.7103579" lon="7.3244779"><ele>488.0</ele><time>2026-05-01T10:37:44.621Z</time></trkpt><trkpt lat="44.7102139" lon="7.3245576"><ele>497.0</ele><time>2026-05-01T10:37:45.623Z</time></trkpt><trkpt lat="44.7100821" lon="7.3246558"><ele>506.0</ele><time>2026-05-01T10:37:46.619Z</time></trkpt><trkpt lat="44.7099485" lon="7.3247877"><ele>515.0</ele><time>2026-05-01T10:37:47.619Z</time></trkpt><trkpt lat="44.7098059" lon="7.3249118"><ele>515.0</ele><time>2026-05-01T10:37:48.62Z</time></trkpt><trkpt lat="44.7096633" lon="7.3250199"><ele>515.0</ele><time>2026-05-01T10:37:49.619Z</time></trkpt><trkpt lat="44.7095271" lon="7.325144"><ele>515.0</ele><time>2026-05-01T10:37:50.62Z</time></trkpt><trkpt lat="44.7094032" lon="7.3252793"><ele>519.2</ele><time>2026-05-01T10:37:51.621Z</time></trkpt><trkpt lat="44.7093075" lon="7.3253818"><ele>523.4</ele><time>2026-05-01T10:37:52.619Z</time></trkpt><trkpt lat="44.7092337" lon="7.3254471"><ele>527.6</ele><time>2026-05-01T10:37:53.62Z</time></trkpt><trkpt lat="44.7091316" lon="7.3254599"><ele>531.8</ele><time>2026-05-01T10:37:55.621Z</time></trkpt><trkpt lat="44.7091046" lon="7.3253264"><ele>536.0</ele><time>2026-05-01T10:37:57.619Z</time></trkpt><trkpt lat="44.7091345" lon="7.325229"><ele>536.0</ele><time>2026-05-01T10:37:58.619Z</time></trkpt><trkpt lat="44.7091747" lon="7.3251262"><ele>536.0</ele><time>2026-05-01T10:37:59.621Z</time></trkpt><trkpt lat="44.7092267" lon="7.3249945"><ele>536.0</ele><time>2026-05-01T10:38:00.619Z</time></trkpt><trkpt lat="44.7092842" lon="7.3248141"><ele>536.0</ele><time>2026-05-01T10:38:01.619Z</time></trkpt><trkpt lat="44.7093496" lon="7.3246152"><ele>532.75</ele><time>2026-05-01T10:38:02.619Z</time></trkpt><trkpt lat="44.7094204" lon="7.3244334"><ele>529.5</ele><time>2026-05-01T10:38:03.623Z</time></trkpt><trkpt lat="44.7094904" lon="7.3242495"><ele>526.25</ele><time>2026-05-01T10:38:04.62Z</time></trkpt><trkpt lat="44.7095557" lon="7.3240947"><ele>523.0</ele><time>2026-05-01T10:38:05.62Z</time></trkpt><trkpt lat="44.7096297" lon="7.3239695"><ele>524.4</ele><time>2026-05-01T10:38:06.619Z</time></trkpt><trkpt lat="44.7097096" lon="7.3238703"><ele>525.8</ele><time>2026-05-01T10:38:07.619Z</time></trkpt><trkpt lat="44.7097728" lon="7.3237853"><ele>527.2</ele><time>2026-05-01T10:38:08.619Z</time></trkpt><trkpt lat="44.7097976" lon="7.3236978"><ele>528.6</ele><time>2026-05-01T10:38:09.619Z</time></trkpt><trkpt lat="44.7097453" lon="7.3235569"><ele>530.0</ele><time>2026-05-01T10:38:11.618Z</time></trkpt><trkpt lat="44.7096089" lon="7.3235722"><ele>530.0</ele><time>2026-05-01T10:38:13.62Z</time></trkpt><trkpt lat="44.7095195" lon="7.3236308"><ele>530.0</ele><time>2026-05-01T10:38:14.619Z</time></trkpt><trkpt lat="44.7094191" lon="7.3237066"><ele>530.0</ele><time>2026-05-01T10:38:15.618Z</time></trkpt><trkpt lat="44.7093071" lon="7.3238107"><ele>530.0</ele><time>2026-05-01T10:38:16.618Z</time></trkpt><trkpt lat="44.7091798" lon="7.3239299"><ele>533.5</ele><time>2026-05-01T10:38:17.618Z</time></trkpt><trkpt lat="44.7090566" lon="7.3240477"><ele>537.0</ele><time>2026-05-01T10:38:18.618Z</time></trkpt><trkpt lat="44.7089554" lon="7.3241567"><ele>540.5</ele><time>2026-05-01T10:38:19.62Z</time></trkpt><trkpt lat="44.7088658" lon="7.3242725"><ele>544.0</ele><time>2026-05-01T10:38:20.619Z</time></trkpt><trkpt lat="44.7088002" lon="7.3244071"><ele>544.0</ele><time>2026-05-01T10:38:21.619Z</time></trkpt><trkpt lat="44.7087511" lon="7.3245428"><ele>544.0</ele><time>2026-05-01T10:38:22.619Z</time></trkpt><trkpt lat="44.708724" lon="7.3246256"><ele>544.0</ele><time>2026-05-01T10:38:23.62Z</time></trkpt><trkpt lat="44.7086297" lon="7.3246938"><ele>544.0</ele><time>2026-05-01T10:38:25.617Z</time></trkpt><trkpt lat="44.7085904" lon="7.3245552"><ele>544.0</ele><time>2026-05-01T10:38:27.619Z</time></trkpt><trkpt lat="44.7086159" lon="7.3244453"><ele>544.0</ele><time>2026-05-01T10:38:28.618Z</time></trkpt><trkpt lat="44.7086253" lon="7.3243203"><ele>544.0</ele><time>2026-05-01T10:38:29.62Z</time></trkpt><trkpt lat="44.7086262" lon="7.3241997"><ele>544.0</ele><time>2026-05-01T10:38:30.619Z</time></trkpt><trkpt lat="44.7085452" lon="7.3241502"><ele>544.0</ele><time>2026-05-01T10:38:31.621Z</time></trkpt><trkpt lat="44.7084716" lon="7.324138"><ele>544.0</ele><time>2026-05-01T10:38:32.625Z</time></trkpt><trkpt lat="44.7083654" lon="7.3241623"><ele>544.0</ele><time>2026-05-01T10:38:33.621Z</time></trkpt><trkpt lat="44.7082398" lon="7.3241707"><ele>549.5</ele><time>2026-05-01T10:38:34.62Z</time></trkpt><trkpt lat="44.7080992" lon="7.324149"><ele>555.0</ele><time>2026-05-01T10:38:35.618Z</time></trkpt><trkpt lat="44.7079604" lon="7.3241114"><ele>560.5</ele><time>2026-05-01T10:38:36.619Z</time></trkpt><trkpt lat="44.7078125" lon="7.3240835"><ele>566.0</ele><time>2026-05-01T10:38:37.619Z</time></trkpt><trkpt lat="44.7075614" lon="7.324145"><ele>571.0</ele><time>2026-05-01T10:38:39.621Z</time></trkpt><trkpt lat="44.7074613" lon="7.324243"><ele>576.0</ele><time>2026-05-01T10:38:40.618Z</time></trkpt><trkpt lat="44.7073786" lon="7.3243594"><ele>581.0</ele><time>2026-05-01T10:38:41.619Z</time></trkpt><trkpt lat="44.7073304" lon="7.3245052"><ele>586.0</ele><time>2026-05-01T10:38:42.619Z</time></trkpt><trkpt lat="44.7073154" lon="7.3246718"><ele>586.8</ele><time>2026-05-01T10:38:43.618Z</time></trkpt><trkpt lat="44.7073387" lon="7.3248485"><ele>587.6</ele><time>2026-05-01T10:38:44.619Z</time></trkpt><trkpt lat="44.7073739" lon="7.3250022"><ele>588.4</ele><time>2026-05-01T10:38:45.619Z</time></trkpt><trkpt lat="44.7073944" lon="7.3251244"><ele>589.2</ele><time>2026-05-01T10:38:46.618Z</time></trkpt><trkpt lat="44.7073594" lon="7.3252634"><ele>590.0</ele><time>2026-05-01T10:38:48.618Z</time></trkpt><trkpt lat="44.7072695" lon="7.3252209"><ele>590.0</ele><time>2026-05-01T10:38:50.618Z</time></trkpt><trkpt lat="44.7072216" lon="7.3251264"><ele>590.0</ele><time>2026-05-01T10:38:51.619Z</time></trkpt><trkpt lat="44.7071594" lon="7.3250008"><ele>590.0</ele><time>2026-05-01T10:38:52.619Z</time></trkpt><trkpt lat="44.7070764" lon="7.3248675"><ele>590.0</ele><time>2026-05-01T10:38:53.618Z</time></trkpt><trkpt lat="44.7070008" lon="7.3247684"><ele>590.0</ele><time>2026-05-01T10:38:54.619Z</time></trkpt><trkpt lat="44.7069096" lon="7.3247071"><ele>592.0</ele><time>2026-05-01T10:38:55.619Z</time></trkpt><trkpt lat="44.7068258" lon="7.324676"><ele>594.0</ele><time>2026-05-01T10:38:56.619Z</time></trkpt><trkpt lat="44.7067029" lon="7.3247203"><ele>596.0</ele><time>2026-05-01T10:38:57.619Z</time></trkpt><trkpt lat="44.7065781" lon="7.3247932"><ele>598.0</ele><time>2026-05-01T10:38:58.619Z</time></trkpt><trkpt lat="44.7064625" lon="7.3248719"><ele>601.75</ele><time>2026-05-01T10:38:59.618Z</time></trkpt><trkpt lat="44.7063367" lon="7.3249574"><ele>605.5</ele><time>2026-05-01T10:39:00.618Z</time></trkpt><trkpt lat="44.7061937" lon="7.3250164"><ele>609.25</ele><time>2026-05-01T10:39:01.619Z</time></trkpt><trkpt lat="44.7060388" lon="7.3250235"><ele>613.0</ele><time>2026-05-01T10:39:02.619Z</time></trkpt><trkpt lat="44.7059077" lon="7.3250351"><ele>614.6</ele><time>2026-05-01T10:39:03.619Z</time></trkpt><trkpt lat="44.7057997" lon="7.3250503"><ele>616.1999999999999</ele><time>2026-05-01T10:39:04.619Z</time></trkpt><trkpt lat="44.7057242" lon="7.3250828"><ele>617.8</ele><time>2026-05-01T10:39:05.619Z</time></trkpt><trkpt lat="44.7056936" lon="7.3252093"><ele>619.4</ele><time>2026-05-01T10:39:07.623Z</time></trkpt><trkpt lat="44.7058143" lon="7.3252739"><ele>621.0</ele><time>2026-05-01T10:39:09.621Z</time></trkpt><trkpt lat="44.705911" lon="7.3252828"><ele>621.0</ele><time>2026-05-01T10:39:10.62Z</time></trkpt><trkpt lat="44.7060193" lon="7.3253386"><ele>621.0</ele><time>2026-05-01T10:39:11.621Z</time></trkpt><trkpt lat="44.7061327" lon="7.325416"><ele>621.0</ele><time>2026-05-01T10:39:12.62Z</time></trkpt><trkpt lat="44.7062418" lon="7.3255016"><ele>621.0</ele><time>2026-05-01T10:39:13.62Z</time></trkpt><trkpt lat="44.7063607" lon="7.3256036"><ele>624.4</ele><time>2026-05-01T10:39:14.62Z</time></trkpt><trkpt lat="44.7064723" lon="7.3256936"><ele>627.8</ele><time>2026-05-01T10:39:15.619Z</time></trkpt><trkpt lat="44.7065534" lon="7.3257674"><ele>631.1999999999999</ele><time>2026-05-01T10:39:16.62Z</time></trkpt><trkpt lat="44.7066026" lon="7.3258287"><ele>634.6</ele><time>2026-05-01T10:39:17.621Z</time></trkpt><trkpt lat="44.7065831" lon="7.3259558"><ele>638.0</ele><time>2026-05-01T10:39:19.621Z</time></trkpt><trkpt lat="44.706461" lon="7.3259296"><ele>638.0</ele><time>2026-05-01T10:39:21.621Z</time></trkpt><trkpt lat="44.7063701" lon="7.3258648"><ele>638.0</ele><time>2026-05-01T10:39:22.621Z</time></trkpt><trkpt lat="44.7062564" lon="7.3257927"><ele>638.0</ele><time>2026-05-01T10:39:23.623Z</time></trkpt><trkpt lat="44.7061453" lon="7.3257383"><ele>638.0</ele><time>2026-05-01T10:39:24.62Z</time></trkpt><trkpt lat="44.7060377" lon="7.3256898"><ele>640.8</ele><time>2026-05-01T10:39:25.62Z</time></trkpt><trkpt lat="44.705936" lon="7.3256747"><ele>643.5999999999999</ele><time>2026-05-01T10:39:26.62Z</time></trkpt><trkpt lat="44.7058397" lon="7.3257021"><ele>646.4000000000001</ele><time>2026-05-01T10:39:27.62Z</time></trkpt><trkpt lat="44.7057413" lon="7.3257475"><ele>649.2</ele><time>2026-05-01T10:39:28.62Z</time></trkpt><trkpt lat="44.7056485" lon="7.3257972"><ele>652.0</ele><time>2026-05-01T10:39:29.621Z</time></trkpt><trkpt lat="44.7055624" lon="7.325825"><ele>652.0</ele><time>2026-05-01T10:39:30.62Z</time></trkpt><trkpt lat="44.7054809" lon="7.3258244"><ele>652.0</ele><time>2026-05-01T10:39:31.62Z</time></trkpt><trkpt lat="44.705411" lon="7.325776"><ele>652.0</ele><time>2026-05-01T10:39:32.621Z</time></trkpt><trkpt lat="44.7053631" lon="7.3256912"><ele>652.0</ele><time>2026-05-01T10:39:33.62Z</time></trkpt><trkpt lat="44.7053172" lon="7.3255988"><ele>652.0</ele><time>2026-05-01T10:39:34.621Z</time></trkpt><trkpt lat="44.7052538" lon="7.325529"><ele>652.0</ele><time>2026-05-01T10:39:35.622Z</time></trkpt><trkpt lat="44.7051614" lon="7.3254785"><ele>652.25</ele><time>2026-05-01T10:39:36.621Z</time></trkpt><trkpt lat="44.7050492" lon="7.3254515"><ele>652.5</ele><time>2026-05-01T10:39:37.62Z</time></trkpt><trkpt lat="44.704927" lon="7.3254162"><ele>652.75</ele><time>2026-05-01T10:39:38.62Z</time></trkpt><trkpt lat="44.7047984" lon="7.3253527"><ele>653.0</ele><time>2026-05-01T10:39:39.621Z</time></trkpt><trkpt lat="44.7046778" lon="7.3252835"><ele>653.0</ele><time>2026-05-01T10:39:40.62Z</time></trkpt><trkpt lat="44.7045798" lon="7.3252087"><ele>653.0</ele><time>2026-05-01T10:39:41.621Z</time></trkpt><trkpt lat="44.7045069" lon="7.3251151"><ele>653.0</ele><time>2026-05-01T10:39:42.62Z</time></trkpt><trkpt lat="44.7044751" lon="7.3249919"><ele>653.0</ele><time>2026-05-01T10:39:43.627Z</time></trkpt><trkpt lat="44.7044713" lon="7.3248534"><ele>653.0</ele><time>2026-05-01T10:39:44.621Z</time></trkpt><trkpt lat="44.7044843" lon="7.3247076"><ele>653.0</ele><time>2026-05-01T10:39:45.62Z</time></trkpt><trkpt lat="44.7044758" lon="7.3245986"><ele>653.0</ele><time>2026-05-01T10:39:46.621Z</time></trkpt><trkpt lat="44.7043912" lon="7.3245048"><ele>653.0</ele><time>2026-05-01T10:39:48.62Z</time></trkpt><trkpt lat="44.7043077" lon="7.3246202"><ele>653.0</ele><time>2026-05-01T10:39:50.62Z</time></trkpt><trkpt lat="44.7042677" lon="7.3247405"><ele>653.0</ele><time>2026-05-01T10:39:51.622Z</time></trkpt><trkpt lat="44.7042249" lon="7.3248907"><ele>657.0</ele><time>2026-05-01T10:39:52.62Z</time></trkpt><trkpt lat="44.704186" lon="7.3250626"><ele>661.0</ele><time>2026-05-01T10:39:53.621Z</time></trkpt><trkpt lat="44.7041485" lon="7.3252482"><ele>665.0</ele><time>2026-05-01T10:39:54.621Z</time></trkpt><trkpt lat="44.704107" lon="7.3254085"><ele>669.0</ele><time>2026-05-01T10:39:55.621Z</time></trkpt><trkpt lat="44.7040423" lon="7.3255461"><ele>671.0</ele><time>2026-05-01T10:39:56.62Z</time></trkpt><trkpt lat="44.7039564" lon="7.3256476"><ele>673.0</ele><time>2026-05-01T10:39:57.62Z</time></trkpt><trkpt lat="44.7038594" lon="7.3256934"><ele>675.0</ele><time>2026-05-01T10:39:58.621Z</time></trkpt><trkpt lat="44.7037452" lon="7.3256914"><ele>677.0</ele><time>2026-05-01T10:39:59.622Z</time></trkpt><trkpt lat="44.7036336" lon="7.3256852"><ele>679.0</ele><time>2026-05-01T10:40:00.62Z</time></trkpt><trkpt lat="44.7035403" lon="7.3257"><ele>679.0</ele><time>2026-05-01T10:40:01.619Z</time></trkpt><trkpt lat="44.7034621" lon="7.3257574"><ele>679.0</ele><time>2026-05-01T10:40:02.619Z</time></trkpt><trkpt lat="44.7033865" lon="7.3258678"><ele>679.0</ele><time>2026-05-01T10:40:03.62Z</time></trkpt><trkpt lat="44.7033151" lon="7.3260181"><ele>679.0</ele><time>2026-05-01T10:40:04.622Z</time></trkpt><trkpt lat="44.7032359" lon="7.3261826"><ele>679.0</ele><time>2026-05-01T10:40:05.62Z</time></trkpt><trkpt lat="44.703161" lon="7.3263233"><ele>679.0</ele><time>2026-05-01T10:40:06.62Z</time></trkpt><trkpt lat="44.7030734" lon="7.3264469"><ele>679.0</ele><time>2026-05-01T10:40:07.619Z</time></trkpt><trkpt lat="44.7029726" lon="7.3265331"><ele>679.0</ele><time>2026-05-01T10:40:08.62Z</time></trkpt><trkpt lat="44.7028672" lon="7.3265868"><ele>679.4000000000001</ele><time>2026-05-01T10:40:09.622Z</time></trkpt><trkpt lat="44.702785" lon="7.3266562"><ele>679.8</ele><time>2026-05-01T10:40:10.621Z</time></trkpt><trkpt lat="44.7027312" lon="7.3267671"><ele>680.2</ele><time>2026-05-01T10:40:11.619Z</time></trkpt><trkpt lat="44.7027091" lon="7.3269046"><ele>680.5999999999999</ele><time>2026-05-01T10:40:12.62Z</time></trkpt><trkpt lat="44.7027179" lon="7.3270791"><ele>681.0</ele><time>2026-05-01T10:40:13.62Z</time></trkpt><trkpt lat="44.7027327" lon="7.3272775"><ele>698.6666666666666</ele><time>2026-05-01T10:40:14.62Z</time></trkpt><trkpt lat="44.702769" lon="7.3274982"><ele>716.3333333333333</ele><time>2026-05-01T10:40:15.621Z</time></trkpt><trkpt lat="44.7028224" lon="7.3277134"><ele>734.0</ele><time>2026-05-01T10:40:16.62Z</time></trkpt><trkpt lat="44.7028714" lon="7.3279028"><ele>732.2</ele><time>2026-05-01T10:40:17.623Z</time></trkpt><trkpt lat="44.7029026" lon="7.3280648"><ele>730.4000000000001</ele><time>2026-05-01T10:40:18.62Z</time></trkpt><trkpt lat="44.7029005" lon="7.3282113"><ele>728.6</ele><time>2026-05-01T10:40:19.619Z</time></trkpt><trkpt lat="44.7028632" lon="7.3283468"><ele>726.8</ele><time>2026-05-01T10:40:20.62Z</time></trkpt><trkpt lat="44.7027942" lon="7.3284599"><ele>725.0</ele><time>2026-05-01T10:40:21.62Z</time></trkpt><trkpt lat="44.7027025" lon="7.3285649"><ele>724.0</ele><time>2026-05-01T10:40:22.62Z</time></trkpt><trkpt lat="44.7026103" lon="7.3286863"><ele>723.0</ele><time>2026-05-01T10:40:23.62Z</time></trkpt><trkpt lat="44.7025135" lon="7.3288353"><ele>722.0</ele><time>2026-05-01T10:40:24.619Z</time></trkpt><trkpt lat="44.7024109" lon="7.3289822"><ele>721.0</ele><time>2026-05-01T10:40:25.621Z</time></trkpt><trkpt lat="44.7023151" lon="7.3291298"><ele>721.0</ele><time>2026-05-01T10:40:26.62Z</time></trkpt><trkpt lat="44.702227" lon="7.3292654"><ele>721.0</ele><time>2026-05-01T10:40:27.62Z</time></trkpt><trkpt lat="44.7021522" lon="7.3293924"><ele>721.0</ele><time>2026-05-01T10:40:28.62Z</time></trkpt><trkpt lat="44.7020824" lon="7.3294912"><ele>721.0</ele><time>2026-05-01T10:40:29.621Z</time></trkpt><trkpt lat="44.702019" lon="7.3295556"><ele>721.0</ele><time>2026-05-01T10:40:30.621Z</time></trkpt><trkpt lat="44.7019478" lon="7.3295875"><ele>723.1666666666667</ele><time>2026-05-01T10:40:31.62Z</time></trkpt><trkpt lat="44.7018832" lon="7.3295679"><ele>725.3333333333334</ele><time>2026-05-01T10:40:32.621Z</time></trkpt><trkpt lat="44.7018386" lon="7.329496"><ele>727.5</ele><time>2026-05-01T10:40:33.621Z</time></trkpt><trkpt lat="44.701826" lon="7.329395"><ele>729.6666666666666</ele><time>2026-05-01T10:40:34.623Z</time></trkpt><trkpt lat="44.7018412" lon="7.3292639"><ele>731.8333333333333</ele><time>2026-05-01T10:40:35.62Z</time></trkpt><trkpt lat="44.7018744" lon="7.3291144"><ele>734.0</ele><time>2026-05-01T10:40:36.62Z</time></trkpt><trkpt lat="44.701911" lon="7.3289648"><ele>733.0</ele><time>2026-05-01T10:40:37.621Z</time></trkpt><trkpt lat="44.7019403" lon="7.3288383"><ele>732.0</ele><time>2026-05-01T10:40:38.62Z</time></trkpt><trkpt lat="44.7019521" lon="7.3287108"><ele>731.0</ele><time>2026-05-01T10:40:39.621Z</time></trkpt><trkpt lat="44.7019382" lon="7.3285949"><ele>730.0</ele><time>2026-05-01T10:40:40.622Z</time></trkpt><trkpt lat="44.7018951" lon="7.3284992"><ele>729.0</ele><time>2026-05-01T10:40:41.621Z</time></trkpt><trkpt lat="44.7017303" lon="7.3283545"><ele>729.0</ele><time>2026-05-01T10:40:43.62Z</time></trkpt><trkpt lat="44.7016229" lon="7.3282768"><ele>729.0</ele><time>2026-05-01T10:40:44.62Z</time></trkpt><trkpt lat="44.7015149" lon="7.3282013"><ele>729.0</ele><time>2026-05-01T10:40:45.622Z</time></trkpt><trkpt lat="44.7014082" lon="7.3281241"><ele>729.0</ele><time>2026-05-01T10:40:46.621Z</time></trkpt><trkpt lat="44.7012992" lon="7.3280347"><ele>730.0</ele><time>2026-05-01T10:40:47.62Z</time></trkpt><trkpt lat="44.7012053" lon="7.3279401"><ele>731.0</ele><time>2026-05-01T10:40:48.621Z</time></trkpt><trkpt lat="44.701129" lon="7.3278602"><ele>732.0</ele><time>2026-05-01T10:40:49.619Z</time></trkpt><trkpt lat="44.7010617" lon="7.3278447"><ele>733.0</ele><time>2026-05-01T10:40:50.618Z</time></trkpt><trkpt lat="44.7009999" lon="7.3278777"><ele>734.0</ele><time>2026-05-01T10:40:51.62Z</time></trkpt><trkpt lat="44.700968" lon="7.3279568"><ele>735.0</ele><time>2026-05-01T10:40:52.619Z</time></trkpt><trkpt lat="44.7009709" lon="7.3280511"><ele>733.5</ele><time>2026-05-01T10:40:53.621Z</time></trkpt><trkpt lat="44.7010108" lon="7.3281592"><ele>732.0</ele><time>2026-05-01T10:40:54.62Z</time></trkpt><trkpt lat="44.7010801" lon="7.3282886"><ele>730.5</ele><time>2026-05-01T10:40:55.625Z</time></trkpt><trkpt lat="44.7011576" lon="7.3284247"><ele>729.0</ele><time>2026-05-01T10:40:56.622Z</time></trkpt><trkpt lat="44.7012336" lon="7.328568"><ele>729.0</ele><time>2026-05-01T10:40:57.623Z</time></trkpt><trkpt lat="44.7012744" lon="7.3287347"><ele>729.0</ele><time>2026-05-01T10:40:58.619Z</time></trkpt><trkpt lat="44.7012931" lon="7.3289042"><ele>729.0</ele><time>2026-05-01T10:40:59.62Z</time></trkpt><trkpt lat="44.7012765" lon="7.3290871"><ele>729.0</ele><time>2026-05-01T10:41:00.62Z</time></trkpt><trkpt lat="44.7012383" lon="7.3292734"><ele>730.25</ele><time>2026-05-01T10:41:01.621Z</time></trkpt><trkpt lat="44.7012054" lon="7.3294549"><ele>731.5</ele><time>2026-05-01T10:41:02.621Z</time></trkpt><trkpt lat="44.701195" lon="7.3296485"><ele>732.75</ele><time>2026-05-01T10:41:03.621Z</time></trkpt><trkpt lat="44.7012013" lon="7.3298566"><ele>734.0</ele><time>2026-05-01T10:41:04.621Z</time></trkpt><trkpt lat="44.7011963" lon="7.3300775"><ele>735.75</ele><time>2026-05-01T10:41:05.621Z</time></trkpt><trkpt lat="44.7011794" lon="7.3302796"><ele>737.5</ele><time>2026-05-01T10:41:06.621Z</time></trkpt><trkpt lat="44.7011553" lon="7.330484"><ele>739.25</ele><time>2026-05-01T10:41:07.621Z</time></trkpt><trkpt lat="44.7011073" lon="7.330694"><ele>741.0</ele><time>2026-05-01T10:41:08.62Z</time></trkpt><trkpt lat="44.7010347" lon="7.3309199"><ele>754.6666666666667</ele><time>2026-05-01T10:41:09.622Z</time></trkpt><trkpt lat="44.7009525" lon="7.3311578"><ele>768.3333333333334</ele><time>2026-05-01T10:41:10.619Z</time></trkpt><trkpt lat="44.7008701" lon="7.3313917"><ele>782.0</ele><time>2026-05-01T10:41:11.621Z</time></trkpt><trkpt lat="44.7007967" lon="7.3315959"><ele>782.0</ele><time>2026-05-01T10:41:12.622Z</time></trkpt><trkpt lat="44.7007399" lon="7.331765"><ele>782.0</ele><time>2026-05-01T10:41:13.621Z</time></trkpt><trkpt lat="44.7007117" lon="7.3319238"><ele>782.0</ele><time>2026-05-01T10:41:14.621Z</time></trkpt><trkpt lat="44.7006975" lon="7.3320761"><ele>782.0</ele><time>2026-05-01T10:41:15.626Z</time></trkpt><trkpt lat="44.7007059" lon="7.3322036"><ele>782.0</ele><time>2026-05-01T10:41:16.621Z</time></trkpt><trkpt lat="44.7007378" lon="7.3323113"><ele>783.4000000000001</ele><time>2026-05-01T10:41:17.619Z</time></trkpt><trkpt lat="44.7007993" lon="7.33238"><ele>784.8000000000001</ele><time>2026-05-01T10:41:18.62Z</time></trkpt><trkpt lat="44.7008859" lon="7.3324045"><ele>786.2</ele><time>2026-05-01T10:41:19.621Z</time></trkpt><trkpt lat="44.7009875" lon="7.3323858"><ele>787.6</ele><time>2026-05-01T10:41:20.62Z</time></trkpt><trkpt lat="44.7011044" lon="7.3323186"><ele>789.0</ele><time>2026-05-01T10:41:21.62Z</time></trkpt><trkpt lat="44.7012113" lon="7.3322287"><ele>790.5</ele><time>2026-05-01T10:41:22.621Z</time></trkpt><trkpt lat="44.7013011" lon="7.3321565"><ele>792.0</ele><time>2026-05-01T10:41:23.62Z</time></trkpt><trkpt lat="44.7013824" lon="7.3321274"><ele>793.5</ele><time>2026-05-01T10:41:24.62Z</time></trkpt><trkpt lat="44.7014432" lon="7.3321533"><ele>795.0</ele><time>2026-05-01T10:41:25.622Z</time></trkpt><trkpt lat="44.7014677" lon="7.3322918"><ele>796.5</ele><time>2026-05-01T10:41:27.621Z</time></trkpt><trkpt lat="44.7014283" lon="7.3323677"><ele>798.0</ele><time>2026-05-01T10:41:28.624Z</time></trkpt><trkpt lat="44.7013766" lon="7.3324519"><ele>798.0</ele><time>2026-05-01T10:41:29.62Z</time></trkpt><trkpt lat="44.7013158" lon="7.3325472"><ele>798.0</ele><time>2026-05-01T10:41:30.62Z</time></trkpt><trkpt lat="44.7012381" lon="7.3326429"><ele>798.0</ele><time>2026-05-01T10:41:31.621Z</time></trkpt><trkpt lat="44.7011514" lon="7.3327181"><ele>798.0</ele><time>2026-05-01T10:41:32.619Z</time></trkpt><trkpt lat="44.7010873" lon="7.3327688"><ele>798.0</ele><time>2026-05-01T10:41:33.62Z</time></trkpt><trkpt lat="44.7010417" lon="7.3328337"><ele>798.0</ele><time>2026-05-01T10:41:34.625Z</time></trkpt><trkpt lat="44.7010736" lon="7.332979"><ele>798.0</ele><time>2026-05-01T10:41:36.619Z</time></trkpt><trkpt lat="44.7011401" lon="7.3330056"><ele>798.0</ele><time>2026-05-01T10:41:37.62Z</time></trkpt><trkpt lat="44.7012237" lon="7.3329831"><ele>798.0</ele><time>2026-05-01T10:41:38.62Z</time></trkpt><trkpt lat="44.7013218" lon="7.3329176"><ele>798.0</ele><time>2026-05-01T10:41:39.621Z</time></trkpt><trkpt lat="44.7014288" lon="7.332815"><ele>798.0</ele><time>2026-05-01T10:41:40.622Z</time></trkpt><trkpt lat="44.7015348" lon="7.3327018"><ele>798.0</ele><time>2026-05-01T10:41:41.619Z</time></trkpt><trkpt lat="44.7016494" lon="7.3325804"><ele>798.0</ele><time>2026-05-01T10:41:42.62Z</time></trkpt><trkpt lat="44.7017861" lon="7.3324595"><ele>798.0</ele><time>2026-05-01T10:41:43.62Z</time></trkpt><trkpt lat="44.701923" lon="7.3323535"><ele>799.3333333333333</ele><time>2026-05-01T10:41:44.621Z</time></trkpt><trkpt lat="44.7020376" lon="7.3322307"><ele>800.6666666666666</ele><time>2026-05-01T10:41:45.62Z</time></trkpt><trkpt lat="44.7021406" lon="7.3320546"><ele>802.0</ele><time>2026-05-01T10:41:46.62Z</time></trkpt><trkpt lat="44.7022352" lon="7.3318651"><ele>802.0</ele><time>2026-05-01T10:41:47.621Z</time></trkpt><trkpt lat="44.7023255" lon="7.3317124"><ele>802.0</ele><time>2026-05-01T10:41:48.623Z</time></trkpt><trkpt lat="44.7024185" lon="7.3315983"><ele>802.0</ele><time>2026-05-01T10:41:49.62Z</time></trkpt><trkpt lat="44.7025176" lon="7.3315334"><ele>802.0</ele><time>2026-05-01T10:41:50.62Z</time></trkpt><trkpt lat="44.7026257" lon="7.3315217"><ele>802.0</ele><time>2026-05-01T10:41:51.62Z</time></trkpt><trkpt lat="44.7027324" lon="7.3315162"><ele>802.0</ele><time>2026-05-01T10:41:52.621Z</time></trkpt><trkpt lat="44.702817" lon="7.3314995"><ele>802.0</ele><time>2026-05-01T10:41:53.621Z</time></trkpt><trkpt lat="44.702882" lon="7.3315005"><ele>802.0</ele><time>2026-05-01T10:41:54.622Z</time></trkpt><trkpt lat="44.7029334" lon="7.3316128"><ele>802.0</ele><time>2026-05-01T10:41:56.619Z</time></trkpt><trkpt lat="44.7028432" lon="7.3317094"><ele>801.9999999999999</ele><time>2026-05-01T10:41:58.621Z</time></trkpt><trkpt lat="44.7027641" lon="7.3317388"><ele>802.0</ele><time>2026-05-01T10:41:59.621Z</time></trkpt><trkpt lat="44.7026767" lon="7.3317786"><ele>802.0</ele><time>2026-05-01T10:42:00.62Z</time></trkpt><trkpt lat="44.7025965" lon="7.3318337"><ele>802.0</ele><time>2026-05-01T10:42:01.622Z</time></trkpt><trkpt lat="44.7025322" lon="7.3319015"><ele>801.9999999999999</ele><time>2026-05-01T10:42:02.621Z</time></trkpt><trkpt lat="44.7024889" lon="7.3319779"><ele>802.0</ele><time>2026-05-01T10:42:03.621Z</time></trkpt><trkpt lat="44.702513" lon="7.3321228"><ele>802.0</ele><time>2026-05-01T10:42:05.62Z</time></trkpt><trkpt lat="44.7026529" lon="7.3321388"><ele>802.0</ele><time>2026-05-01T10:42:07.621Z</time></trkpt><trkpt lat="44.7027519" lon="7.3321233"><ele>802.0</ele><time>2026-05-01T10:42:08.621Z</time></trkpt><trkpt lat="44.702869" lon="7.3321057"><ele>802.0</ele><time>2026-05-01T10:42:09.62Z</time></trkpt><trkpt lat="44.7029812" lon="7.3320832"><ele>806.2</ele><time>2026-05-01T10:42:10.62Z</time></trkpt><trkpt lat="44.7030662" lon="7.3320569"><ele>810.4000000000001</ele><time>2026-05-01T10:42:11.621Z</time></trkpt><trkpt lat="44.7031381" lon="7.3320417"><ele>814.5999999999999</ele><time>2026-05-01T10:42:12.62Z</time></trkpt><trkpt lat="44.7032284" lon="7.3321813"><ele>818.8</ele><time>2026-05-01T10:42:15.62Z</time></trkpt><trkpt lat="44.7031677" lon="7.3323365"><ele>823.0</ele><time>2026-05-01T10:42:17.621Z</time></trkpt><trkpt lat="44.7031278" lon="7.3324166"><ele>826.4285714285714</ele><time>2026-05-01T10:42:18.62Z</time></trkpt><trkpt lat="44.7030868" lon="7.332496"><ele>829.8571428571429</ele><time>2026-05-01T10:42:19.62Z</time></trkpt><trkpt lat="44.7030475" lon="7.3325679"><ele>833.2857142857142</ele><time>2026-05-01T10:42:20.626Z</time></trkpt><trkpt lat="44.7030026" lon="7.3326469"><ele>836.7142857142858</ele><time>2026-05-01T10:42:21.621Z</time></trkpt><trkpt lat="44.7029589" lon="7.3327222"><ele>840.1428571428571</ele><time>2026-05-01T10:42:22.62Z</time></trkpt><trkpt lat="44.7029199" lon="7.3328036"><ele>843.5714285714286</ele><time>2026-05-01T10:42:23.621Z</time></trkpt><trkpt lat="44.7028867" lon="7.3328909"><ele>847.0</ele><time>2026-05-01T10:42:24.621Z</time></trkpt><trkpt lat="44.7028532" lon="7.332987"><ele>848.0</ele><time>2026-05-01T10:42:25.621Z</time></trkpt><trkpt lat="44.7028225" lon="7.3330829"><ele>849.0</ele><time>2026-05-01T10:42:26.621Z</time></trkpt><trkpt lat="44.7027966" lon="7.3331877"><ele>850.0</ele><time>2026-05-01T10:42:27.62Z</time></trkpt><trkpt lat="44.7027693" lon="7.3332857"><ele>851.0</ele><time>2026-05-01T10:42:28.622Z</time></trkpt><trkpt lat="44.7027387" lon="7.3333782"><ele>852.0</ele><time>2026-05-01T10:42:29.621Z</time></trkpt><trkpt lat="44.7027036" lon="7.3334637"><ele>853.0</ele><time>2026-05-01T10:42:30.621Z</time></trkpt><trkpt lat="44.7026599" lon="7.3335515"><ele>854.0</ele><time>2026-05-01T10:42:31.621Z</time></trkpt><trkpt lat="44.7026083" lon="7.3336284"><ele>854.0</ele><time>2026-05-01T10:42:32.621Z</time></trkpt><trkpt lat="44.7025467" lon="7.3336977"><ele>854.0</ele><time>2026-05-01T10:42:33.62Z</time></trkpt><trkpt lat="44.7024866" lon="7.3337592"><ele>854.0</ele><time>2026-05-01T10:42:34.621Z</time></trkpt><trkpt lat="44.7024356" lon="7.3338238"><ele>854.0</ele><time>2026-05-01T10:42:35.62Z</time></trkpt><trkpt lat="44.7023931" lon="7.3338905"><ele>854.0</ele><time>2026-05-01T10:42:36.621Z</time></trkpt><trkpt lat="44.7023522" lon="7.3339646"><ele>854.0</ele><time>2026-05-01T10:42:37.621Z</time></trkpt><trkpt lat="44.7023121" lon="7.334039"><ele>854.0</ele><time>2026-05-01T10:42:38.621Z</time></trkpt><trkpt lat="44.7022723" lon="7.3341121"><ele>857.0000000000001</ele><time>2026-05-01T10:42:39.62Z</time></trkpt><trkpt lat="44.7022285" lon="7.3341781"><ele>860.0</ele><time>2026-05-01T10:42:40.621Z</time></trkpt><trkpt lat="44.702162" lon="7.3343205"><ele>863.0</ele><time>2026-05-01T10:42:42.621Z</time></trkpt><trkpt lat="44.7021481" lon="7.3344146"><ele>866.0</ele><time>2026-05-01T10:42:43.62Z</time></trkpt><trkpt lat="44.7021374" lon="7.3345147"><ele>869.0000000000001</ele><time>2026-05-01T10:42:44.621Z</time></trkpt><trkpt lat="44.7021259" lon="7.3346209"><ele>872.0</ele><time>2026-05-01T10:42:45.622Z</time></trkpt><trkpt lat="44.702098" lon="7.3347265"><ele>872.8571428571429</ele><time>2026-05-01T10:42:46.621Z</time></trkpt><trkpt lat="44.7020549" lon="7.3348106"><ele>873.7142857142858</ele><time>2026-05-01T10:42:47.62Z</time></trkpt><trkpt lat="44.7020062" lon="7.334894"><ele>874.5714285714286</ele><time>2026-05-01T10:42:48.619Z</time></trkpt><trkpt lat="44.7019534" lon="7.3349769"><ele>875.4285714285714</ele><time>2026-05-01T10:42:49.62Z</time></trkpt><trkpt lat="44.7019012" lon="7.3350544"><ele>876.2857142857142</ele><time>2026-05-01T10:42:50.621Z</time></trkpt><trkpt lat="44.7018486" lon="7.3351172"><ele>877.1428571428571</ele><time>2026-05-01T10:42:51.619Z</time></trkpt><trkpt lat="44.7018016" lon="7.3351908"><ele>878.0</ele><time>2026-05-01T10:42:52.622Z</time></trkpt><trkpt lat="44.7017536" lon="7.3352666"><ele>878.0000000000001</ele><time>2026-05-01T10:42:53.62Z</time></trkpt><trkpt lat="44.7017068" lon="7.3353495"><ele>878.0</ele><time>2026-05-01T10:42:54.622Z</time></trkpt><trkpt lat="44.701656" lon="7.3354303"><ele>878.0</ele><time>2026-05-01T10:42:55.622Z</time></trkpt><trkpt lat="44.7015943" lon="7.3355007"><ele>878.0</ele><time>2026-05-01T10:42:56.622Z</time></trkpt><trkpt lat="44.7015263" lon="7.3355622"><ele>878.0000000000001</ele><time>2026-05-01T10:42:57.621Z</time></trkpt><trkpt lat="44.7014588" lon="7.3356106"><ele>878.0</ele><time>2026-05-01T10:42:58.62Z</time></trkpt><trkpt lat="44.7013891" lon="7.3356559"><ele>878.1428571428571</ele><time>2026-05-01T10:42:59.62Z</time></trkpt><trkpt lat="44.7013188" lon="7.3356947"><ele>878.2857142857142</ele><time>2026-05-01T10:43:00.621Z</time></trkpt><trkpt lat="44.7012537" lon="7.3357282"><ele>878.4285714285714</ele><time>2026-05-01T10:43:01.621Z</time></trkpt><trkpt lat="44.7011932" lon="7.3357648"><ele>878.5714285714286</ele><time>2026-05-01T10:43:02.621Z</time></trkpt><trkpt lat="44.701137" lon="7.3358167"><ele>878.7142857142858</ele><time>2026-05-01T10:43:03.62Z</time></trkpt><trkpt lat="44.7010835" lon="7.3358711"><ele>878.8571428571429</ele><time>2026-05-01T10:43:04.62Z</time></trkpt><trkpt lat="44.7010362" lon="7.3359422"><ele>879.0</ele><time>2026-05-01T10:43:05.621Z</time></trkpt><trkpt lat="44.7009893" lon="7.3360187"><ele>879.0</ele><time>2026-05-01T10:43:06.62Z</time></trkpt><trkpt lat="44.7009333" lon="7.336101"><ele>879.0</ele><time>2026-05-01T10:43:07.622Z</time></trkpt><trkpt lat="44.7008825" lon="7.336191"><ele>879.0</ele><time>2026-05-01T10:43:08.621Z</time></trkpt><trkpt lat="44.700828" lon="7.336287"><ele>879.0</ele><time>2026-05-01T10:43:09.621Z</time></trkpt><trkpt lat="44.7007755" lon="7.3363809"><ele>879.0</ele><time>2026-05-01T10:43:10.62Z</time></trkpt><trkpt lat="44.7007228" lon="7.3364825"><ele>879.0</ele><time>2026-05-01T10:43:11.622Z</time></trkpt><trkpt lat="44.7006653" lon="7.3365837"><ele>881.8333333333334</ele><time>2026-05-01T10:43:12.622Z</time></trkpt><trkpt lat="44.700611" lon="7.33669"><ele>884.6666666666667</ele><time>2026-05-01T10:43:13.622Z</time></trkpt><trkpt lat="44.700559" lon="7.3367845"><ele>887.5</ele><time>2026-05-01T10:43:14.621Z</time></trkpt><trkpt lat="44.7005132" lon="7.3368831"><ele>890.3333333333334</ele><time>2026-05-01T10:43:15.621Z</time></trkpt><trkpt lat="44.7004725" lon="7.3369962"><ele>893.1666666666667</ele><time>2026-05-01T10:43:16.619Z</time></trkpt><trkpt lat="44.7004413" lon="7.3371146"><ele>896.0</ele><time>2026-05-01T10:43:17.622Z</time></trkpt><trkpt lat="44.7004124" lon="7.3372268"><ele>898.5000000000001</ele><time>2026-05-01T10:43:18.621Z</time></trkpt><trkpt lat="44.7003876" lon="7.337339"><ele>901.0</ele><time>2026-05-01T10:43:19.621Z</time></trkpt><trkpt lat="44.7003632" lon="7.3374426"><ele>903.5</ele><time>2026-05-01T10:43:20.62Z</time></trkpt><trkpt lat="44.7003437" lon="7.3375392"><ele>906.0</ele><time>2026-05-01T10:43:21.62Z</time></trkpt><trkpt lat="44.7003346" lon="7.3376318"><ele>908.5000000000001</ele><time>2026-05-01T10:43:22.621Z</time></trkpt><trkpt lat="44.7003332" lon="7.3377891"><ele>911.0</ele><time>2026-05-01T10:43:24.621Z</time></trkpt><trkpt lat="44.7003763" lon="7.337911"><ele>911.0</ele><time>2026-05-01T10:43:26.621Z</time></trkpt><trkpt lat="44.7004598" lon="7.3380218"><ele>910.9999999999999</ele><time>2026-05-01T10:43:28.619Z</time></trkpt><trkpt lat="44.7005054" lon="7.3380909"><ele>910.9999999999999</ele><time>2026-05-01T10:43:29.619Z</time></trkpt><trkpt lat="44.7005792" lon="7.3382238"><ele>911.0</ele><time>2026-05-01T10:43:31.63Z</time></trkpt><trkpt lat="44.700647" lon="7.3383683"><ele>911.0</ele><time>2026-05-01T10:43:33.623Z</time></trkpt><trkpt lat="44.7006643" lon="7.3384554"><ele>911.5000000000001</ele><time>2026-05-01T10:43:34.62Z</time></trkpt><trkpt lat="44.7006515" lon="7.3386322"><ele>912.0</ele><time>2026-05-01T10:43:36.621Z</time></trkpt><trkpt lat="44.7006198" lon="7.3387122"><ele>912.5</ele><time>2026-05-01T10:43:37.62Z</time></trkpt><trkpt lat="44.7005716" lon="7.3387753"><ele>913.0</ele><time>2026-05-01T10:43:38.621Z</time></trkpt><trkpt lat="44.700503" lon="7.338848"><ele>913.5000000000001</ele><time>2026-05-01T10:43:40.62Z</time></trkpt><trkpt lat="44.7004442" lon="7.3389055"><ele>914.0</ele><time>2026-05-01T10:43:43.622Z</time></trkpt><trkpt lat="44.7003898" lon="7.3389728"><ele>913.0000000000001</ele><time>2026-05-01T10:43:46.619Z</time></trkpt><trkpt lat="44.7003285" lon="7.3390625"><ele>912.0</ele><time>2026-05-01T10:43:48.619Z</time></trkpt><trkpt lat="44.7002387" lon="7.3391697"><ele>911.0</ele><time>2026-05-01T10:43:50.62Z</time></trkpt><trkpt lat="44.7001828" lon="7.3392326"><ele>910.0</ele><time>2026-05-01T10:43:51.622Z</time></trkpt><trkpt lat="44.7001212" lon="7.3392909"><ele>909.0000000000001</ele><time>2026-05-01T10:43:52.621Z</time></trkpt><trkpt lat="44.7000522" lon="7.3393401"><ele>908.0</ele><time>2026-05-01T10:43:53.621Z</time></trkpt><trkpt lat="44.6999901" lon="7.3393751"><ele>908.0</ele><time>2026-05-01T10:43:54.62Z</time></trkpt><trkpt lat="44.6999297" lon="7.339404"><ele>908.0000000000001</ele><time>2026-05-01T10:43:55.621Z</time></trkpt><trkpt lat="44.6998121" lon="7.3394524"><ele>908.0</ele><time>2026-05-01T10:43:57.618Z</time></trkpt><trkpt lat="44.6997543" lon="7.3394883"><ele>908.0</ele><time>2026-05-01T10:43:58.619Z</time></trkpt><trkpt lat="44.6997034" lon="7.3395458"><ele>908.0000000000001</ele><time>2026-05-01T10:43:59.622Z</time></trkpt><trkpt lat="44.6996611" lon="7.3396158"><ele>908.0</ele><time>2026-05-01T10:44:00.624Z</time></trkpt><trkpt lat="44.6996293" lon="7.3396935"><ele>908.0</ele><time>2026-05-01T10:44:01.623Z</time></trkpt><trkpt lat="44.6996118" lon="7.3397807"><ele>910.4</ele><time>2026-05-01T10:44:02.621Z</time></trkpt><trkpt lat="44.6996" lon="7.3398724"><ele>912.8</ele><time>2026-05-01T10:44:03.62Z</time></trkpt><trkpt lat="44.6995969" lon="7.3399619"><ele>915.2</ele><time>2026-05-01T10:44:04.62Z</time></trkpt><trkpt lat="44.6996" lon="7.3401316"><ele>917.6</ele><time>2026-05-01T10:44:06.62Z</time></trkpt><trkpt lat="44.6995914" lon="7.3402913"><ele>920.0</ele><time>2026-05-01T10:44:08.621Z</time></trkpt><trkpt lat="44.6995768" lon="7.340437"><ele>922.0</ele><time>2026-05-01T10:44:10.622Z</time></trkpt><trkpt lat="44.6995562" lon="7.34058"><ele>924.0</ele><time>2026-05-01T10:44:12.622Z</time></trkpt><trkpt lat="44.6995201" lon="7.3407216"><ele>926.0</ele><time>2026-05-01T10:44:14.619Z</time></trkpt><trkpt lat="44.699474" lon="7.3408688"><ele>928.0</ele><time>2026-05-01T10:44:16.621Z</time></trkpt><trkpt lat="44.6994428" lon="7.3409985"><ele>930.0</ele><time>2026-05-01T10:44:18.62Z</time></trkpt><trkpt lat="44.6994226" lon="7.3411143"><ele>928.7142857142857</ele><time>2026-05-01T10:44:20.62Z</time></trkpt><trkpt lat="44.6994104" lon="7.3412149"><ele>927.4285714285716</ele><time>2026-05-01T10:44:22.621Z</time></trkpt><trkpt lat="44.6993936" lon="7.3413123"><ele>926.1428571428572</ele><time>2026-05-01T10:44:25.621Z</time></trkpt><trkpt lat="44.6993791" lon="7.3414121"><ele>924.8571428571429</ele><time>2026-05-01T10:44:29.62Z</time></trkpt><trkpt lat="44.699338" lon="7.3414841"><ele>923.5714285714287</ele><time>2026-05-01T10:44:33.622Z</time></trkpt><trkpt lat="44.6992839" lon="7.3415376"><ele>922.2857142857144</ele><time>2026-05-01T10:44:37.619Z</time></trkpt><trkpt lat="44.6992158" lon="7.3415491"><ele>921.0000000000001</ele><time>2026-05-01T10:44:40.622Z</time></trkpt><trkpt lat="44.6991331" lon="7.3414978"><ele>921.0</ele><time>2026-05-01T10:44:43.621Z</time></trkpt><trkpt lat="44.6990422" lon="7.3414725"><ele>921.0</ele><time>2026-05-01T10:44:45.621Z</time></trkpt><trkpt lat="44.6989782" lon="7.3414528"><ele>921.0</ele><time>2026-05-01T10:44:46.621Z</time></trkpt><trkpt lat="44.6988509" lon="7.3414189"><ele>921.0</ele><time>2026-05-01T10:44:48.619Z</time></trkpt><trkpt lat="44.6987867" lon="7.3413994"><ele>921.0</ele><time>2026-05-01T10:44:49.623Z</time></trkpt><trkpt lat="44.6987247" lon="7.3413795"><ele>921.0</ele><time>2026-05-01T10:44:50.621Z</time></trkpt><trkpt lat="44.698639" lon="7.341345"><ele>918.5999999999999</ele><time>2026-05-01T10:44:52.62Z</time></trkpt><trkpt lat="44.6985476" lon="7.341347"><ele>916.1999999999999</ele><time>2026-05-01T10:45:41.619Z</time></trkpt><trkpt lat="44.6984727" lon="7.3413358"><ele>913.8000000000001</ele><time>2026-05-01T10:45:43.62Z</time></trkpt><trkpt lat="44.6983936" lon="7.341318"><ele>911.4000000000001</ele><time>2026-05-01T10:45:52.62Z</time></trkpt><trkpt lat="44.6982915" lon="7.3412858"><ele>909.0</ele><time>2026-05-01T10:45:54.619Z</time></trkpt><trkpt lat="44.6981701" lon="7.3412388"><ele>909.0</ele><time>2026-05-01T10:45:56.621Z</time></trkpt><trkpt lat="44.6980994" lon="7.3411938"><ele>909.0</ele><time>2026-05-01T10:45:57.624Z</time></trkpt><trkpt lat="44.6980278" lon="7.3411465"><ele>909.0</ele><time>2026-05-01T10:45:58.621Z</time></trkpt><trkpt lat="44.6979636" lon="7.3410994"><ele>909.0</ele><time>2026-05-01T10:45:59.622Z</time></trkpt><trkpt lat="44.6978974" lon="7.3410494"><ele>909.0</ele><time>2026-05-01T10:46:00.621Z</time></trkpt><trkpt lat="44.6978289" lon="7.3410043"><ele>909.0</ele><time>2026-05-01T10:46:01.62Z</time></trkpt><trkpt lat="44.6977634" lon="7.3409577"><ele>912.5</ele><time>2026-05-01T10:46:02.621Z</time></trkpt><trkpt lat="44.6976996" lon="7.3408947"><ele>916.0</ele><time>2026-05-01T10:46:03.62Z</time></trkpt><trkpt lat="44.6976382" lon="7.3408434"><ele>919.5</ele><time>2026-05-01T10:46:04.622Z</time></trkpt><trkpt lat="44.6975719" lon="7.3407925"><ele>923.0</ele><time>2026-05-01T10:46:05.621Z</time></trkpt><trkpt lat="44.6975068" lon="7.3407351"><ele>926.5</ele><time>2026-05-01T10:46:06.621Z</time></trkpt><trkpt lat="44.6974356" lon="7.3406795"><ele>930.0</ele><time>2026-05-01T10:46:07.62Z</time></trkpt><trkpt lat="44.697369" lon="7.3406145"><ele>930.0</ele><time>2026-05-01T10:46:08.621Z</time></trkpt><trkpt lat="44.6972961" lon="7.3405515"><ele>930.0</ele><time>2026-05-01T10:46:09.621Z</time></trkpt><trkpt lat="44.6972291" lon="7.3404904"><ele>930.0</ele><time>2026-05-01T10:46:10.621Z</time></trkpt><trkpt lat="44.697153" lon="7.3404313"><ele>930.0</ele><time>2026-05-01T10:46:11.622Z</time></trkpt><trkpt lat="44.6970803" lon="7.3403707"><ele>930.0</ele><time>2026-05-01T10:46:12.625Z</time></trkpt><trkpt lat="44.6970082" lon="7.3403347"><ele>930.0</ele><time>2026-05-01T10:46:13.626Z</time></trkpt><trkpt lat="44.6969304" lon="7.3402808"><ele>933.5</ele><time>2026-05-01T10:46:14.63Z</time></trkpt><trkpt lat="44.6968543" lon="7.3402178"><ele>937.0</ele><time>2026-05-01T10:46:15.631Z</time></trkpt><trkpt lat="44.6967892" lon="7.3401587"><ele>940.5</ele><time>2026-05-01T10:46:16.622Z</time></trkpt><trkpt lat="44.6967351" lon="7.3401129"><ele>944.0</ele><time>2026-05-01T10:46:17.621Z</time></trkpt><trkpt lat="44.6966523" lon="7.3400151"><ele>947.5</ele><time>2026-05-01T10:46:19.623Z</time></trkpt><trkpt lat="44.6966661" lon="7.3398834"><ele>951.0</ele><time>2026-05-01T10:46:21.622Z</time></trkpt><trkpt lat="44.6967432" lon="7.339771"><ele>954.4</ele><time>2026-05-01T10:46:23.621Z</time></trkpt><trkpt lat="44.6968591" lon="7.3396877"><ele>957.8</ele><time>2026-05-01T10:46:25.62Z</time></trkpt><trkpt lat="44.6969241" lon="7.3396516"><ele>961.1999999999999</ele><time>2026-05-01T10:46:26.62Z</time></trkpt><trkpt lat="44.6969879" lon="7.3395335"><ele>964.5999999999999</ele><time>2026-05-01T10:46:28.62Z</time></trkpt><trkpt lat="44.6969872" lon="7.3394325"><ele>968.0</ele><time>2026-05-01T10:46:29.624Z</time></trkpt><trkpt lat="44.6969978" lon="7.3393233"><ele>962.2</ele><time>2026-05-01T10:46:30.62Z</time></trkpt><trkpt lat="44.6969934" lon="7.3392071"><ele>956.4</ele><time>2026-05-01T10:46:31.621Z</time></trkpt><trkpt lat="44.6969746" lon="7.3390809"><ele>950.6000000000001</ele><time>2026-05-01T10:46:32.62Z</time></trkpt><trkpt lat="44.69695" lon="7.3389542"><ele>944.8000000000001</ele><time>2026-05-01T10:46:33.621Z</time></trkpt><trkpt lat="44.6969486" lon="7.3388178"><ele>939.0</ele><time>2026-05-01T10:46:34.629Z</time></trkpt><trkpt lat="44.6969361" lon="7.3386957"><ele>939.0</ele><time>2026-05-01T10:46:35.62Z</time></trkpt><trkpt lat="44.6969339" lon="7.3385829"><ele>939.0000000000001</ele><time>2026-05-01T10:46:36.619Z</time></trkpt><trkpt lat="44.6969199" lon="7.3384954"><ele>939.0000000000001</ele><time>2026-05-01T10:46:37.619Z</time></trkpt><trkpt lat="44.6969298" lon="7.3383261"><ele>939.0</ele><time>2026-05-01T10:46:39.62Z</time></trkpt><trkpt lat="44.696898" lon="7.3381718"><ele>939.0</ele><time>2026-05-01T10:46:41.621Z</time></trkpt><trkpt lat="44.6968425" lon="7.3380975"><ele>943.3333333333334</ele><time>2026-05-01T10:46:42.621Z</time></trkpt><trkpt lat="44.6967687" lon="7.3380438"><ele>947.6666666666667</ele><time>2026-05-01T10:46:43.62Z</time></trkpt><trkpt lat="44.6967214" lon="7.3379789"><ele>952.0</ele><time>2026-05-01T10:46:44.62Z</time></trkpt><trkpt lat="44.6966661" lon="7.3378967"><ele>956.3333333333334</ele><time>2026-05-01T10:46:45.621Z</time></trkpt><trkpt lat="44.6966205" lon="7.3378247"><ele>960.6666666666667</ele><time>2026-05-01T10:46:46.62Z</time></trkpt><trkpt lat="44.696551" lon="7.3377558"><ele>965.0</ele><time>2026-05-01T10:46:47.621Z</time></trkpt><trkpt lat="44.6964878" lon="7.3376789"><ele>965.0000000000001</ele><time>2026-05-01T10:46:48.621Z</time></trkpt><trkpt lat="44.6964329" lon="7.3375997"><ele>965.0</ele><time>2026-05-01T10:46:49.622Z</time></trkpt><trkpt lat="44.696374" lon="7.337517"><ele>965.0</ele><time>2026-05-01T10:46:50.62Z</time></trkpt><trkpt lat="44.6963133" lon="7.3374163"><ele>965.0</ele><time>2026-05-01T10:46:51.62Z</time></trkpt><trkpt lat="44.6962581" lon="7.3373266"><ele>965.0000000000001</ele><time>2026-05-01T10:46:52.621Z</time></trkpt><trkpt lat="44.6961962" lon="7.3372227"><ele>965.0</ele><time>2026-05-01T10:46:53.622Z</time></trkpt><trkpt lat="44.6961352" lon="7.3371163"><ele>970.2</ele><time>2026-05-01T10:46:54.62Z</time></trkpt><trkpt lat="44.6960743" lon="7.3370095"><ele>975.4</ele><time>2026-05-01T10:46:55.621Z</time></trkpt><trkpt lat="44.6960216" lon="7.3369024"><ele>980.5999999999999</ele><time>2026-05-01T10:46:56.621Z</time></trkpt><trkpt lat="44.6959761" lon="7.3367933"><ele>985.8</ele><time>2026-05-01T10:46:57.619Z</time></trkpt><trkpt lat="44.6959327" lon="7.3366793"><ele>991.0</ele><time>2026-05-01T10:46:58.621Z</time></trkpt><trkpt lat="44.6958953" lon="7.3365656"><ele>991.0</ele><time>2026-05-01T10:46:59.622Z</time></trkpt><trkpt lat="44.6958577" lon="7.336442"><ele>990.9999999999999</ele><time>2026-05-01T10:47:00.62Z</time></trkpt><trkpt lat="44.6958217" lon="7.3363213"><ele>990.9999999999999</ele><time>2026-05-01T10:47:01.62Z</time></trkpt><trkpt lat="44.6957844" lon="7.3362023"><ele>991.0</ele><time>2026-05-01T10:47:02.621Z</time></trkpt><trkpt lat="44.6957594" lon="7.3360896"><ele>991.0</ele><time>2026-05-01T10:47:03.62Z</time></trkpt><trkpt lat="44.6957678" lon="7.3359396"><ele>991.4999999999999</ele><time>2026-05-01T10:47:04.62Z</time></trkpt><trkpt lat="44.6957687" lon="7.3358065"><ele>992.0</ele><time>2026-05-01T10:47:05.62Z</time></trkpt><trkpt lat="44.6957918" lon="7.3356789"><ele>992.5</ele><time>2026-05-01T10:47:06.623Z</time></trkpt><trkpt lat="44.6958177" lon="7.3355666"><ele>993.0</ele><time>2026-05-01T10:47:07.62Z</time></trkpt><trkpt lat="44.6958643" lon="7.3354781"><ele>993.4999999999999</ele><time>2026-05-01T10:47:08.62Z</time></trkpt><trkpt lat="44.6959039" lon="7.3354"><ele>994.0</ele><time>2026-05-01T10:47:09.624Z</time></trkpt><trkpt lat="44.6959795" lon="7.3352922"><ele>994.6</ele><time>2026-05-01T10:47:11.621Z</time></trkpt><trkpt lat="44.6959311" lon="7.3351648"><ele>995.2</ele><time>2026-05-01T10:47:13.62Z</time></trkpt><trkpt lat="44.6958692" lon="7.335046"><ele>995.8000000000001</ele><time>2026-05-01T10:47:15.627Z</time></trkpt><trkpt lat="44.6957992" lon="7.3348839"><ele>996.4000000000001</ele><time>2026-05-01T10:47:17.621Z</time></trkpt><trkpt lat="44.695751" lon="7.3348068"><ele>997.0</ele><time>2026-05-01T10:47:18.621Z</time></trkpt><trkpt lat="44.695704" lon="7.3347437"><ele>994.0</ele><time>2026-05-01T10:47:19.621Z</time></trkpt><trkpt lat="44.6956088" lon="7.3346122"><ele>991.0</ele><time>2026-05-01T10:47:21.621Z</time></trkpt><trkpt lat="44.6955313" lon="7.3345546"><ele>988.0</ele><time>2026-05-01T10:47:22.625Z</time></trkpt><trkpt lat="44.6954666" lon="7.3345002"><ele>985.0</ele><time>2026-05-01T10:47:23.62Z</time></trkpt><trkpt lat="44.6953915" lon="7.3344472"><ele>982.0</ele><time>2026-05-01T10:47:24.623Z</time></trkpt><trkpt lat="44.6952934" lon="7.3344194"><ele>988.4000000000001</ele><time>2026-05-01T10:47:25.621Z</time></trkpt><trkpt lat="44.6951918" lon="7.3343997"><ele>994.8000000000001</ele><time>2026-05-01T10:47:26.62Z</time></trkpt><trkpt lat="44.6950796" lon="7.3343829"><ele>1001.2</ele><time>2026-05-01T10:47:27.619Z</time></trkpt><trkpt lat="44.6949942" lon="7.334364"><ele>1007.6</ele><time>2026-05-01T10:47:28.621Z</time></trkpt><trkpt lat="44.6949032" lon="7.3343313"><ele>1014.0</ele><time>2026-05-01T10:47:29.62Z</time></trkpt><trkpt lat="44.6948043" lon="7.3342804"><ele>1014.0</ele><time>2026-05-01T10:47:30.62Z</time></trkpt><trkpt lat="44.6947065" lon="7.3342394"><ele>1014.0000000000001</ele><time>2026-05-01T10:47:31.62Z</time></trkpt><trkpt lat="44.6945981" lon="7.3342121"><ele>1014.0000000000001</ele><time>2026-05-01T10:47:32.625Z</time></trkpt><trkpt lat="44.6944959" lon="7.3342014"><ele>1014.0</ele><time>2026-05-01T10:47:33.621Z</time></trkpt><trkpt lat="44.6943929" lon="7.3342078"><ele>1014.0</ele><time>2026-05-01T10:47:34.621Z</time></trkpt><trkpt lat="44.694304" lon="7.334214"><ele>1017.4000000000001</ele><time>2026-05-01T10:47:35.632Z</time></trkpt><trkpt lat="44.6942119" lon="7.3342364"><ele>1020.8000000000001</ele><time>2026-05-01T10:47:36.621Z</time></trkpt><trkpt lat="44.6941182" lon="7.3342847"><ele>1024.1999999999998</ele><time>2026-05-01T10:47:37.62Z</time></trkpt><trkpt lat="44.6940222" lon="7.3343261"><ele>1027.6</ele><time>2026-05-01T10:47:38.621Z</time></trkpt><trkpt lat="44.6939226" lon="7.3343472"><ele>1031.0</ele><time>2026-05-01T10:47:39.619Z</time></trkpt><trkpt lat="44.6938325" lon="7.3343561"><ele>1031.0</ele><time>2026-05-01T10:47:40.62Z</time></trkpt><trkpt lat="44.6937604" lon="7.3343585"><ele>1031.0</ele><time>2026-05-01T10:47:41.62Z</time></trkpt><trkpt lat="44.6936576" lon="7.3343531"><ele>1031.0</ele><time>2026-05-01T10:47:43.62Z</time></trkpt><trkpt lat="44.6936564" lon="7.334449"><ele>1031.0</ele><time>2026-05-01T10:47:45.62Z</time></trkpt><trkpt lat="44.693751" lon="7.3345261"><ele>1031.0</ele><time>2026-05-01T10:47:47.628Z</time></trkpt><trkpt lat="44.6938419" lon="7.3345556"><ele>1031.0</ele><time>2026-05-01T10:47:48.62Z</time></trkpt><trkpt lat="44.693924" lon="7.3346053"><ele>1031.0</ele><time>2026-05-01T10:47:49.619Z</time></trkpt><trkpt lat="44.6940094" lon="7.3346661"><ele>1031.0</ele><time>2026-05-01T10:47:50.62Z</time></trkpt><trkpt lat="44.6940909" lon="7.3347239"><ele>1031.0</ele><time>2026-05-01T10:47:51.622Z</time></trkpt><trkpt lat="44.6941629" lon="7.3347697"><ele>1031.0</ele><time>2026-05-01T10:47:52.623Z</time></trkpt><trkpt lat="44.6942222" lon="7.3348293"><ele>1031.0</ele><time>2026-05-01T10:47:53.62Z</time></trkpt><trkpt lat="44.694278" lon="7.3348766"><ele>1031.0</ele><time>2026-05-01T10:47:54.62Z</time></trkpt><trkpt lat="44.6943961" lon="7.3349218"><ele>1031.6</ele><time>2026-05-01T10:47:56.62Z</time></trkpt><trkpt lat="44.694483" lon="7.3349834"><ele>1032.1999999999998</ele><time>2026-05-01T10:47:58.62Z</time></trkpt><trkpt lat="44.6944936" lon="7.335103"><ele>1032.8000000000002</ele><time>2026-05-01T10:48:00.62Z</time></trkpt><trkpt lat="44.6944232" lon="7.3351694"><ele>1033.4</ele><time>2026-05-01T10:48:02.621Z</time></trkpt><trkpt lat="44.6942993" lon="7.3351982"><ele>1034.0</ele><time>2026-05-01T10:48:04.621Z</time></trkpt><trkpt lat="44.6942231" lon="7.3352168"><ele>1037.142857142857</ele><time>2026-05-01T10:48:05.62Z</time></trkpt><trkpt lat="44.6941485" lon="7.3352352"><ele>1040.2857142857144</ele><time>2026-05-01T10:48:06.62Z</time></trkpt><trkpt lat="44.6940757" lon="7.335258"><ele>1043.4285714285716</ele><time>2026-05-01T10:48:07.621Z</time></trkpt><trkpt lat="44.6940055" lon="7.335279"><ele>1046.5714285714287</ele><time>2026-05-01T10:48:08.621Z</time></trkpt><trkpt lat="44.6939338" lon="7.335312"><ele>1049.7142857142858</ele><time>2026-05-01T10:48:09.623Z</time></trkpt><trkpt lat="44.6938672" lon="7.3353395"><ele>1052.857142857143</ele><time>2026-05-01T10:48:10.622Z</time></trkpt><trkpt lat="44.6937995" lon="7.3353892"><ele>1056.0</ele><time>2026-05-01T10:48:11.624Z</time></trkpt><trkpt lat="44.6937322" lon="7.3354442"><ele>1056.0</ele><time>2026-05-01T10:48:12.622Z</time></trkpt><trkpt lat="44.6936706" lon="7.3355064"><ele>1056.0</ele><time>2026-05-01T10:48:13.621Z</time></trkpt><trkpt lat="44.6936182" lon="7.3355841"><ele>1056.0</ele><time>2026-05-01T10:48:14.621Z</time></trkpt><trkpt lat="44.6935698" lon="7.3356764"><ele>1056.0</ele><time>2026-05-01T10:48:15.62Z</time></trkpt><trkpt lat="44.6935288" lon="7.3357655"><ele>1056.0</ele><time>2026-05-01T10:48:16.624Z</time></trkpt><trkpt lat="44.6934767" lon="7.3358174"><ele>1056.0</ele><time>2026-05-01T10:48:17.622Z</time></trkpt><trkpt lat="44.6934067" lon="7.335865"><ele>1061.2</ele><time>2026-05-01T10:48:18.622Z</time></trkpt><trkpt lat="44.6933322" lon="7.3358783"><ele>1066.3999999999999</ele><time>2026-05-01T10:48:19.624Z</time></trkpt><trkpt lat="44.6932484" lon="7.3358745"><ele>1071.6</ele><time>2026-05-01T10:48:20.623Z</time></trkpt><trkpt lat="44.6931681" lon="7.3358895"><ele>1076.8</ele><time>2026-05-01T10:48:21.621Z</time></trkpt><trkpt lat="44.6930343" lon="7.3359688"><ele>1082.0</ele><time>2026-05-01T10:48:23.622Z</time></trkpt><trkpt lat="44.6929105" lon="7.3360505"><ele>1082.0</ele><time>2026-05-01T10:48:25.621Z</time></trkpt><trkpt lat="44.6928432" lon="7.3360975"><ele>1082.0</ele><time>2026-05-01T10:48:26.621Z</time></trkpt><trkpt lat="44.692771" lon="7.3361255"><ele>1082.0</ele><time>2026-05-01T10:48:27.621Z</time></trkpt><trkpt lat="44.6926988" lon="7.3361346"><ele>1082.0</ele><time>2026-05-01T10:48:28.621Z</time></trkpt><trkpt lat="44.6926363" lon="7.3361559"><ele>1082.0</ele><time>2026-05-01T10:48:29.623Z</time></trkpt><trkpt lat="44.6925546" lon="7.33617"><ele>1082.0</ele><time>2026-05-01T10:48:30.621Z</time></trkpt><trkpt lat="44.6924721" lon="7.3362002"><ele>1082.5</ele><time>2026-05-01T10:48:31.627Z</time></trkpt><trkpt lat="44.6923943" lon="7.3362275"><ele>1083.0</ele><time>2026-05-01T10:48:32.622Z</time></trkpt><trkpt lat="44.6923192" lon="7.3362689"><ele>1083.5</ele><time>2026-05-01T10:48:33.622Z</time></trkpt><trkpt lat="44.6922465" lon="7.336339"><ele>1084.0</ele><time>2026-05-01T10:48:34.62Z</time></trkpt><trkpt lat="44.6921652" lon="7.336424"><ele>1084.5</ele><time>2026-05-01T10:48:35.621Z</time></trkpt><trkpt lat="44.6920854" lon="7.336472"><ele>1085.0</ele><time>2026-05-01T10:48:36.622Z</time></trkpt><trkpt lat="44.6920072" lon="7.3365444"><ele>1086.6666666666667</ele><time>2026-05-01T10:48:37.62Z</time></trkpt><trkpt lat="44.691946" lon="7.3365999"><ele>1088.3333333333335</ele><time>2026-05-01T10:48:38.621Z</time></trkpt><trkpt lat="44.6918864" lon="7.3366501"><ele>1090.0</ele><time>2026-05-01T10:48:39.621Z</time></trkpt><trkpt lat="44.6918251" lon="7.3366956"><ele>1091.6666666666667</ele><time>2026-05-01T10:48:40.622Z</time></trkpt><trkpt lat="44.6917578" lon="7.336719"><ele>1093.3333333333333</ele><time>2026-05-01T10:48:41.621Z</time></trkpt><trkpt lat="44.6916925" lon="7.3367202"><ele>1095.0</ele><time>2026-05-01T10:48:42.621Z</time></trkpt><trkpt lat="44.6915709" lon="7.336675"><ele>1096.3333333333333</ele><time>2026-05-01T10:48:44.623Z</time></trkpt><trkpt lat="44.6915082" lon="7.3366468"><ele>1097.6666666666667</ele><time>2026-05-01T10:48:45.622Z</time></trkpt><trkpt lat="44.6913929" lon="7.3366044"><ele>1099.0</ele><time>2026-05-01T10:48:47.621Z</time></trkpt><trkpt lat="44.6912758" lon="7.3366324"><ele>1100.3333333333335</ele><time>2026-05-01T10:48:49.622Z</time></trkpt><trkpt lat="44.6912177" lon="7.3366727"><ele>1101.6666666666667</ele><time>2026-05-01T10:48:50.621Z</time></trkpt><trkpt lat="44.6911437" lon="7.3367049"><ele>1103.0</ele><time>2026-05-01T10:48:51.625Z</time></trkpt><trkpt lat="44.6910589" lon="7.3367496"><ele>1103.8333333333335</ele><time>2026-05-01T10:48:52.621Z</time></trkpt><trkpt lat="44.6909835" lon="7.336783"><ele>1104.6666666666667</ele><time>2026-05-01T10:48:53.62Z</time></trkpt><trkpt lat="44.6909077" lon="7.3368067"><ele>1105.5</ele><time>2026-05-01T10:48:54.621Z</time></trkpt><trkpt lat="44.6908191" lon="7.3368485"><ele>1106.3333333333333</ele><time>2026-05-01T10:48:55.622Z</time></trkpt><trkpt lat="44.6907381" lon="7.3368613"><ele>1107.1666666666665</ele><time>2026-05-01T10:48:56.622Z</time></trkpt><trkpt lat="44.6906649" lon="7.336885"><ele>1108.0</ele><time>2026-05-01T10:48:57.622Z</time></trkpt><trkpt lat="44.690591" lon="7.3369113"><ele>1108.0</ele><time>2026-05-01T10:48:58.622Z</time></trkpt><trkpt lat="44.6905084" lon="7.3369447"><ele>1108.0</ele><time>2026-05-01T10:48:59.622Z</time></trkpt><trkpt lat="44.6904283" lon="7.3369983"><ele>1108.0</ele><time>2026-05-01T10:49:00.621Z</time></trkpt><trkpt lat="44.6903659" lon="7.3370575"><ele>1108.0</ele><time>2026-05-01T10:49:01.623Z</time></trkpt><trkpt lat="44.6903147" lon="7.3371178"><ele>1108.0</ele><time>2026-05-01T10:49:02.621Z</time></trkpt><trkpt lat="44.6902667" lon="7.337193"><ele>1108.0</ele><time>2026-05-01T10:49:03.621Z</time></trkpt><trkpt lat="44.6902174" lon="7.3372792"><ele>1110.6666666666665</ele><time>2026-05-01T10:49:04.622Z</time></trkpt><trkpt lat="44.6901971" lon="7.3373744"><ele>1113.3333333333333</ele><time>2026-05-01T10:49:05.621Z</time></trkpt><trkpt lat="44.6901471" lon="7.3374584"><ele>1116.0</ele><time>2026-05-01T10:49:06.621Z</time></trkpt><trkpt lat="44.6900906" lon="7.3375228"><ele>1118.6666666666667</ele><time>2026-05-01T10:49:07.622Z</time></trkpt><trkpt lat="44.6900145" lon="7.3375931"><ele>1121.3333333333335</ele><time>2026-05-01T10:49:08.621Z</time></trkpt><trkpt lat="44.6899447" lon="7.3376727"><ele>1124.0</ele><time>2026-05-01T10:49:09.623Z</time></trkpt><trkpt lat="44.6898498" lon="7.3377489"><ele>1124.0</ele><time>2026-05-01T10:49:10.625Z</time></trkpt><trkpt lat="44.6897482" lon="7.3378366"><ele>1124.0</ele><time>2026-05-01T10:49:11.622Z</time></trkpt><trkpt lat="44.6896465" lon="7.3379273"><ele>1124.0</ele><time>2026-05-01T10:49:12.623Z</time></trkpt><trkpt lat="44.6895547" lon="7.3380072"><ele>1124.0</ele><time>2026-05-01T10:49:13.623Z</time></trkpt><trkpt lat="44.6894642" lon="7.3380874"><ele>1126.2</ele><time>2026-05-01T10:49:14.622Z</time></trkpt><trkpt lat="44.6893841" lon="7.3381535"><ele>1128.4</ele><time>2026-05-01T10:49:15.623Z</time></trkpt><trkpt lat="44.68931" lon="7.3382201"><ele>1130.6</ele><time>2026-05-01T10:49:16.622Z</time></trkpt><trkpt lat="44.6892467" lon="7.338264"><ele>1132.8</ele><time>2026-05-01T10:49:17.621Z</time></trkpt><trkpt lat="44.6891202" lon="7.3382741"><ele>1135.0</ele><time>2026-05-01T10:49:19.622Z</time></trkpt><trkpt lat="44.6889985" lon="7.3381864"><ele>1135.0</ele><time>2026-05-01T10:49:21.622Z</time></trkpt><trkpt lat="44.6889209" lon="7.3381121"><ele>1135.0</ele><time>2026-05-01T10:49:22.621Z</time></trkpt><trkpt lat="44.6888421" lon="7.3380153"><ele>1135.0</ele><time>2026-05-01T10:49:23.622Z</time></trkpt><trkpt lat="44.6887674" lon="7.3379307"><ele>1135.0</ele><time>2026-05-01T10:49:24.621Z</time></trkpt><trkpt lat="44.6886924" lon="7.3378459"><ele>1135.0</ele><time>2026-05-01T10:49:25.621Z</time></trkpt><trkpt lat="44.6886382" lon="7.3377982"><ele>1137.2</ele><time>2026-05-01T10:49:26.622Z</time></trkpt><trkpt lat="44.6885686" lon="7.3377471"><ele>1139.4</ele><time>2026-05-01T10:49:27.622Z</time></trkpt><trkpt lat="44.6884573" lon="7.3376701"><ele>1141.6</ele><time>2026-05-01T10:49:29.622Z</time></trkpt><trkpt lat="44.6883594" lon="7.3375992"><ele>1143.8</ele><time>2026-05-01T10:49:31.622Z</time></trkpt><trkpt lat="44.6882676" lon="7.3375532"><ele>1146.0</ele><time>2026-05-01T10:49:33.622Z</time></trkpt><trkpt lat="44.6881797" lon="7.3374839"><ele>1146.0</ele><time>2026-05-01T10:49:35.621Z</time></trkpt><trkpt lat="44.6881187" lon="7.3374603"><ele>1146.0</ele><time>2026-05-01T10:49:36.628Z</time></trkpt><trkpt lat="44.688003" lon="7.3374001"><ele>1146.0</ele><time>2026-05-01T10:49:38.621Z</time></trkpt><trkpt lat="44.6879407" lon="7.3373676"><ele>1146.0</ele><time>2026-05-01T10:49:39.622Z</time></trkpt><trkpt lat="44.6878799" lon="7.3373301"><ele>1146.0</ele><time>2026-05-01T10:49:40.622Z</time></trkpt><trkpt lat="44.6878144" lon="7.3372991"><ele>1146.0</ele><time>2026-05-01T10:49:41.621Z</time></trkpt><trkpt lat="44.687754" lon="7.3372691"><ele>1146.5</ele><time>2026-05-01T10:49:42.624Z</time></trkpt><trkpt lat="44.6876766" lon="7.3372304"><ele>1147.0</ele><time>2026-05-01T10:49:43.621Z</time></trkpt><trkpt lat="44.6876126" lon="7.3371961"><ele>1147.5</ele><time>2026-05-01T10:49:44.621Z</time></trkpt><trkpt lat="44.6875407" lon="7.3371502"><ele>1148.0</ele><time>2026-05-01T10:49:45.622Z</time></trkpt><trkpt lat="44.6874726" lon="7.3371077"><ele>1148.5</ele><time>2026-05-01T10:49:46.622Z</time></trkpt><trkpt lat="44.6874094" lon="7.3370679"><ele>1149.0</ele><time>2026-05-01T10:49:47.621Z</time></trkpt><trkpt lat="44.6872937" lon="7.3369836"><ele>1149.0</ele><time>2026-05-01T10:49:49.621Z</time></trkpt><trkpt lat="44.6872247" lon="7.33693"><ele>1149.0</ele><time>2026-05-01T10:49:50.622Z</time></trkpt><trkpt lat="44.6871561" lon="7.3368835"><ele>1149.0</ele><time>2026-05-01T10:49:51.621Z</time></trkpt><trkpt lat="44.6870974" lon="7.3368333"><ele>1149.0</ele><time>2026-05-01T10:49:52.622Z</time></trkpt><trkpt lat="44.6870422" lon="7.3367893"><ele>1149.0</ele><time>2026-05-01T10:49:53.623Z</time></trkpt><trkpt lat="44.6869776" lon="7.3367509"><ele>1149.0</ele><time>2026-05-01T10:49:54.622Z</time></trkpt><trkpt lat="44.6868577" lon="7.3366894"><ele>1152.5714285714287</ele><time>2026-05-01T10:49:56.621Z</time></trkpt><trkpt lat="44.6867956" lon="7.3366665"><ele>1156.142857142857</ele><time>2026-05-01T10:49:57.622Z</time></trkpt><trkpt lat="44.6867299" lon="7.3366582"><ele>1159.7142857142858</ele><time>2026-05-01T10:49:58.621Z</time></trkpt><trkpt lat="44.686655" lon="7.3366621"><ele>1163.2857142857142</ele><time>2026-05-01T10:49:59.623Z</time></trkpt><trkpt lat="44.6865805" lon="7.3366619"><ele>1166.857142857143</ele><time>2026-05-01T10:50:00.621Z</time></trkpt><trkpt lat="44.6865095" lon="7.3366549"><ele>1170.4285714285716</ele><time>2026-05-01T10:50:01.621Z</time></trkpt><trkpt lat="44.6864421" lon="7.336644"><ele>1174.0</ele><time>2026-05-01T10:50:02.621Z</time></trkpt><trkpt lat="44.6863192" lon="7.336641"><ele>1174.0</ele><time>2026-05-01T10:50:04.622Z</time></trkpt><trkpt lat="44.6862066" lon="7.3366841"><ele>1174.0</ele><time>2026-05-01T10:50:06.62Z</time></trkpt><trkpt lat="44.6861426" lon="7.3367102"><ele>1174.0</ele><time>2026-05-01T10:50:07.622Z</time></trkpt><trkpt lat="44.6860227" lon="7.336762"><ele>1174.0</ele><time>2026-05-01T10:50:09.622Z</time></trkpt><trkpt lat="44.6859448" lon="7.3367841"><ele>1174.0</ele><time>2026-05-01T10:50:10.621Z</time></trkpt><trkpt lat="44.6858836" lon="7.3368071"><ele>1176.5714285714287</ele><time>2026-05-01T10:50:11.623Z</time></trkpt><trkpt lat="44.6858158" lon="7.33684"><ele>1179.1428571428573</ele><time>2026-05-01T10:50:12.622Z</time></trkpt><trkpt lat="44.6857564" lon="7.3368759"><ele>1181.7142857142858</ele><time>2026-05-01T10:50:13.621Z</time></trkpt><trkpt lat="44.685694" lon="7.3369078"><ele>1184.2857142857142</ele><time>2026-05-01T10:50:14.622Z</time></trkpt><trkpt lat="44.6856378" lon="7.3369566"><ele>1186.8571428571427</ele><time>2026-05-01T10:50:15.622Z</time></trkpt><trkpt lat="44.6855767" lon="7.3370096"><ele>1189.4285714285713</ele><time>2026-05-01T10:50:16.622Z</time></trkpt><trkpt lat="44.6855209" lon="7.3370775"><ele>1192.0</ele><time>2026-05-01T10:50:17.622Z</time></trkpt><trkpt lat="44.6854643" lon="7.33714"><ele>1192.0</ele><time>2026-05-01T10:50:18.621Z</time></trkpt><trkpt lat="44.6853961" lon="7.3372099"><ele>1192.0</ele><time>2026-05-01T10:50:19.622Z</time></trkpt><trkpt lat="44.685344" lon="7.3372688"><ele>1192.0</ele><time>2026-05-01T10:50:20.621Z</time></trkpt><trkpt lat="44.6852888" lon="7.3373325"><ele>1192.0</ele><time>2026-05-01T10:50:21.621Z</time></trkpt><trkpt lat="44.6851997" lon="7.3374155"><ele>1192.0</ele><time>2026-05-01T10:50:23.622Z</time></trkpt><trkpt lat="44.6850907" lon="7.3374391"><ele>1192.0</ele><time>2026-05-01T10:50:25.621Z</time></trkpt><trkpt lat="44.6850045" lon="7.3373746"><ele>1193.5714285714284</ele><time>2026-05-01T10:50:27.62Z</time></trkpt><trkpt lat="44.6849549" lon="7.3373065"><ele>1195.142857142857</ele><time>2026-05-01T10:50:28.627Z</time></trkpt><trkpt lat="44.6848965" lon="7.3372561"><ele>1196.7142857142858</ele><time>2026-05-01T10:50:29.621Z</time></trkpt><trkpt lat="44.6848271" lon="7.3372424"><ele>1198.2857142857142</ele><time>2026-05-01T10:50:30.621Z</time></trkpt><trkpt lat="44.6847647" lon="7.3372227"><ele>1199.857142857143</ele><time>2026-05-01T10:50:31.622Z</time></trkpt><trkpt lat="44.6846996" lon="7.3371949"><ele>1201.4285714285713</ele><time>2026-05-01T10:50:32.62Z</time></trkpt><trkpt lat="44.6846413" lon="7.3371455"><ele>1203.0</ele><time>2026-05-01T10:50:33.621Z</time></trkpt><trkpt lat="44.6845871" lon="7.3370888"><ele>1204.8</ele><time>2026-05-01T10:50:34.622Z</time></trkpt><trkpt lat="44.6845136" lon="7.3369571"><ele>1206.6</ele><time>2026-05-01T10:50:36.62Z</time></trkpt><trkpt lat="44.684466" lon="7.3368836"><ele>1208.4</ele><time>2026-05-01T10:50:37.622Z</time></trkpt><trkpt lat="44.6844345" lon="7.3367356"><ele>1210.2</ele><time>2026-05-01T10:50:39.621Z</time></trkpt><trkpt lat="44.6844224" lon="7.3366457"><ele>1212.0</ele><time>2026-05-01T10:50:40.621Z</time></trkpt><trkpt lat="44.6844381" lon="7.336456"><ele>1211.6666666666667</ele><time>2026-05-01T10:50:42.622Z</time></trkpt><trkpt lat="44.6844434" lon="7.336355"><ele>1211.3333333333333</ele><time>2026-05-01T10:50:43.621Z</time></trkpt><trkpt lat="44.6844476" lon="7.3362353"><ele>1211.0</ele><time>2026-05-01T10:50:44.621Z</time></trkpt><trkpt lat="44.684441" lon="7.3360976"><ele>1210.6666666666665</ele><time>2026-05-01T10:50:45.628Z</time></trkpt><trkpt lat="44.684443" lon="7.3359956"><ele>1210.3333333333333</ele><time>2026-05-01T10:50:46.622Z</time></trkpt><trkpt lat="44.6844504" lon="7.335907"><ele>1210.0</ele><time>2026-05-01T10:50:47.621Z</time></trkpt><trkpt lat="44.6844397" lon="7.3357558"><ele>1214.6</ele><time>2026-05-01T10:50:49.621Z</time></trkpt><trkpt lat="44.6843877" lon="7.3356579"><ele>1219.2</ele><time>2026-05-01T10:50:51.622Z</time></trkpt><trkpt lat="44.6843238" lon="7.3356499"><ele>1223.8</ele><time>2026-05-01T10:50:52.625Z</time></trkpt><trkpt lat="44.6842196" lon="7.3357005"><ele>1228.4</ele><time>2026-05-01T10:50:54.621Z</time></trkpt><trkpt lat="44.6841385" lon="7.3358104"><ele>1233.0</ele><time>2026-05-01T10:50:56.621Z</time></trkpt><trkpt lat="44.6840837" lon="7.3359108"><ele>1233.0</ele><time>2026-05-01T10:50:58.623Z</time></trkpt><trkpt lat="44.6840414" lon="7.3359793"><ele>1233.0</ele><time>2026-05-01T10:51:14.623Z</time></trkpt><trkpt lat="44.6839643" lon="7.3359203"><ele>1233.0</ele><time>2026-05-01T10:51:17.622Z</time></trkpt><trkpt lat="44.6838702" lon="7.3358335"><ele>1233.0</ele><time>2026-05-01T10:51:19.621Z</time></trkpt><trkpt lat="44.6837799" lon="7.3357287"><ele>1233.0</ele><time>2026-05-01T10:51:21.621Z</time></trkpt><trkpt lat="44.6837267" lon="7.3356778"><ele>1233.0</ele><time>2026-05-01T10:51:22.621Z</time></trkpt><trkpt lat="44.6836587" lon="7.3356192"><ele>1234.0</ele><time>2026-05-01T10:51:23.622Z</time></trkpt><trkpt lat="44.683591" lon="7.3355607"><ele>1235.0</ele><time>2026-05-01T10:51:24.622Z</time></trkpt><trkpt lat="44.6835212" lon="7.3355036"><ele>1236.0</ele><time>2026-05-01T10:51:25.621Z</time></trkpt><trkpt lat="44.6834626" lon="7.335455"><ele>1237.0</ele><time>2026-05-01T10:51:26.624Z</time></trkpt><trkpt lat="44.6833983" lon="7.3354131"><ele>1238.0</ele><time>2026-05-01T10:51:27.622Z</time></trkpt><trkpt lat="44.6833049" lon="7.3353243"><ele>1239.0</ele><time>2026-05-01T10:51:29.621Z</time></trkpt><trkpt lat="44.6832119" lon="7.3352436"><ele>1239.0</ele><time>2026-05-01T10:51:31.622Z</time></trkpt><trkpt lat="44.6831136" lon="7.335144"><ele>1239.0</ele><time>2026-05-01T10:51:33.621Z</time></trkpt><trkpt lat="44.6830106" lon="7.3350284"><ele>1239.0</ele><time>2026-05-01T10:51:35.621Z</time></trkpt><trkpt lat="44.6829455" lon="7.3349631"><ele>1239.0</ele><time>2026-05-01T10:51:36.623Z</time></trkpt><trkpt lat="44.6828789" lon="7.3348876"><ele>1239.0</ele><time>2026-05-01T10:51:37.622Z</time></trkpt><trkpt lat="44.6828068" lon="7.3348115"><ele>1239.1666666666667</ele><time>2026-05-01T10:51:38.623Z</time></trkpt><trkpt lat="44.6827368" lon="7.3347446"><ele>1239.3333333333333</ele><time>2026-05-01T10:51:39.621Z</time></trkpt><trkpt lat="44.6826745" lon="7.3346832"><ele>1239.5</ele><time>2026-05-01T10:51:40.622Z</time></trkpt><trkpt lat="44.6826153" lon="7.3346192"><ele>1239.6666666666665</ele><time>2026-05-01T10:51:41.621Z</time></trkpt><trkpt lat="44.6825548" lon="7.334545"><ele>1239.8333333333333</ele><time>2026-05-01T10:51:42.625Z</time></trkpt><trkpt lat="44.6824944" lon="7.3344705"><ele>1240.0</ele><time>2026-05-01T10:51:43.621Z</time></trkpt><trkpt lat="44.6824186" lon="7.3343727"><ele>1240.0</ele><time>2026-05-01T10:51:44.621Z</time></trkpt><trkpt lat="44.6823513" lon="7.3342635"><ele>1240.0</ele><time>2026-05-01T10:51:45.622Z</time></trkpt><trkpt lat="44.6823005" lon="7.3341761"><ele>1240.0</ele><time>2026-05-01T10:51:46.623Z</time></trkpt><trkpt lat="44.682264" lon="7.3340848"><ele>1240.0</ele><time>2026-05-01T10:51:47.623Z</time></trkpt><trkpt lat="44.6822216" lon="7.3339878"><ele>1240.0</ele><time>2026-05-01T10:51:48.622Z</time></trkpt><trkpt lat="44.6821893" lon="7.3339023"><ele>1240.0</ele><time>2026-05-01T10:51:49.622Z</time></trkpt><trkpt lat="44.6821354" lon="7.3338515"><ele>1239.5</ele><time>2026-05-01T10:51:50.623Z</time></trkpt><trkpt lat="44.6820673" lon="7.333797"><ele>1239.0</ele><time>2026-05-01T10:51:51.622Z</time></trkpt><trkpt lat="44.6820091" lon="7.3337172"><ele>1238.5</ele><time>2026-05-01T10:51:52.621Z</time></trkpt><trkpt lat="44.6819564" lon="7.3336483"><ele>1238.0</ele><time>2026-05-01T10:51:53.623Z</time></trkpt><trkpt lat="44.6818615" lon="7.3335461"><ele>1237.5</ele><time>2026-05-01T10:51:55.622Z</time></trkpt><trkpt lat="44.681801" lon="7.3334915"><ele>1237.0</ele><time>2026-05-01T10:51:56.623Z</time></trkpt><trkpt lat="44.6817308" lon="7.3334369"><ele>1239.2</ele><time>2026-05-01T10:51:57.62Z</time></trkpt><trkpt lat="44.68166" lon="7.3333886"><ele>1241.4</ele><time>2026-05-01T10:51:58.622Z</time></trkpt><trkpt lat="44.6815694" lon="7.3332897"><ele>1243.6</ele><time>2026-05-01T10:51:59.623Z</time></trkpt><trkpt lat="44.6814864" lon="7.333198"><ele>1245.8</ele><time>2026-05-01T10:52:00.622Z</time></trkpt><trkpt lat="44.6814063" lon="7.3331237"><ele>1248.0</ele><time>2026-05-01T10:52:01.623Z</time></trkpt><trkpt lat="44.6813332" lon="7.3330409"><ele>1248.0</ele><time>2026-05-01T10:52:02.621Z</time></trkpt><trkpt lat="44.6812683" lon="7.3329606"><ele>1248.0</ele><time>2026-05-01T10:52:03.623Z</time></trkpt><trkpt lat="44.6812074" lon="7.3328888"><ele>1248.0</ele><time>2026-05-01T10:52:04.622Z</time></trkpt><trkpt lat="44.681152" lon="7.3328055"><ele>1248.0</ele><time>2026-05-01T10:52:05.645Z</time></trkpt><trkpt lat="44.6810916" lon="7.3327219"><ele>1248.0</ele><time>2026-05-01T10:52:06.622Z</time></trkpt><trkpt lat="44.681031" lon="7.3326284"><ele>1248.0</ele><time>2026-05-01T10:52:07.624Z</time></trkpt><trkpt lat="44.6809835" lon="7.3325541"><ele>1247.6666666666667</ele><time>2026-05-01T10:52:08.622Z</time></trkpt><trkpt lat="44.6809416" lon="7.3324727"><ele>1247.3333333333333</ele><time>2026-05-01T10:52:09.622Z</time></trkpt><trkpt lat="44.6808498" lon="7.33237"><ele>1247.0</ele><time>2026-05-01T10:52:11.621Z</time></trkpt><trkpt lat="44.6807812" lon="7.3323263"><ele>1246.6666666666665</ele><time>2026-05-01T10:52:12.621Z</time></trkpt><trkpt lat="44.6807095" lon="7.3322747"><ele>1246.3333333333333</ele><time>2026-05-01T10:52:13.623Z</time></trkpt><trkpt lat="44.680633" lon="7.3322358"><ele>1246.0</ele><time>2026-05-01T10:52:14.622Z</time></trkpt><trkpt lat="44.6805656" lon="7.332195"><ele>1246.0</ele><time>2026-05-01T10:52:15.621Z</time></trkpt><trkpt lat="44.6804918" lon="7.3321602"><ele>1246.0</ele><time>2026-05-01T10:52:16.622Z</time></trkpt><trkpt lat="44.6804262" lon="7.3321237"><ele>1246.0</ele><time>2026-05-01T10:52:17.622Z</time></trkpt><trkpt lat="44.6803384" lon="7.3320822"><ele>1246.0</ele><time>2026-05-01T10:52:18.622Z</time></trkpt><trkpt lat="44.68026" lon="7.3320412"><ele>1246.0</ele><time>2026-05-01T10:52:19.622Z</time></trkpt><trkpt lat="44.6801883" lon="7.3320008"><ele>1246.0</ele><time>2026-05-01T10:52:20.621Z</time></trkpt><trkpt lat="44.6801165" lon="7.331968"><ele>1247.0</ele><time>2026-05-01T10:52:21.622Z</time></trkpt><trkpt lat="44.6800434" lon="7.3319353"><ele>1248.0</ele><time>2026-05-01T10:52:22.622Z</time></trkpt><trkpt lat="44.6799786" lon="7.3319125"><ele>1249.0</ele><time>2026-05-01T10:52:23.622Z</time></trkpt><trkpt lat="44.6798712" lon="7.3318737"><ele>1250.0</ele><time>2026-05-01T10:52:25.621Z</time></trkpt><trkpt lat="44.6797771" lon="7.3318623"><ele>1251.0</ele><time>2026-05-01T10:52:27.62Z</time></trkpt><trkpt lat="44.6796921" lon="7.3318037"><ele>1252.0</ele><time>2026-05-01T10:52:29.626Z</time></trkpt><trkpt lat="44.6795993" lon="7.3317712"><ele>1252.0</ele><time>2026-05-01T10:52:31.623Z</time></trkpt><trkpt lat="44.6795026" lon="7.3317436"><ele>1252.0</ele><time>2026-05-01T10:52:33.621Z</time></trkpt><trkpt lat="44.6793955" lon="7.3317405"><ele>1252.0</ele><time>2026-05-01T10:52:35.622Z</time></trkpt><trkpt lat="44.6793313" lon="7.3317502"><ele>1252.0</ele><time>2026-05-01T10:52:36.622Z</time></trkpt><trkpt lat="44.6792632" lon="7.3317743"><ele>1252.0</ele><time>2026-05-01T10:52:37.622Z</time></trkpt><trkpt lat="44.679196" lon="7.3317943"><ele>1252.0</ele><time>2026-05-01T10:52:38.621Z</time></trkpt><trkpt lat="44.6790826" lon="7.331836"><ele>1251.8</ele><time>2026-05-01T10:52:40.622Z</time></trkpt><trkpt lat="44.6789702" lon="7.3318737"><ele>1251.6</ele><time>2026-05-01T10:52:42.622Z</time></trkpt><trkpt lat="44.6788644" lon="7.331925"><ele>1251.3999999999999</ele><time>2026-05-01T10:52:44.621Z</time></trkpt><trkpt lat="44.6787791" lon="7.331962"><ele>1251.2</ele><time>2026-05-01T10:52:46.621Z</time></trkpt><trkpt lat="44.6786955" lon="7.3319728"><ele>1251.0</ele><time>2026-05-01T10:52:48.622Z</time></trkpt><trkpt lat="44.6786547" lon="7.3320404"><ele>1251.0</ele><time>2026-05-01T10:52:50.621Z</time></trkpt><trkpt lat="44.6786943" lon="7.3321804"><ele>1251.0</ele><time>2026-05-01T10:52:53.632Z</time></trkpt><trkpt lat="44.6787437" lon="7.3322494"><ele>1251.0</ele><time>2026-05-01T10:52:54.622Z</time></trkpt><trkpt lat="44.6787795" lon="7.3323256"><ele>1251.0</ele><time>2026-05-01T10:52:55.621Z</time></trkpt><trkpt lat="44.6788241" lon="7.3323911"><ele>1251.0</ele><time>2026-05-01T10:52:56.621Z</time></trkpt><trkpt lat="44.6788819" lon="7.3324353"><ele>1251.0</ele><time>2026-05-01T10:52:57.621Z</time></trkpt><trkpt lat="44.678943" lon="7.3324683"><ele>1251.0</ele><time>2026-05-01T10:52:58.622Z</time></trkpt><trkpt lat="44.6790344" lon="7.3325421"><ele>1251.2</ele><time>2026-05-01T10:53:00.621Z</time></trkpt><trkpt lat="44.6790814" lon="7.3326353"><ele>1251.3999999999999</ele><time>2026-05-01T10:53:02.624Z</time></trkpt><trkpt lat="44.6790857" lon="7.3327654"><ele>1251.6</ele><time>2026-05-01T10:53:04.621Z</time></trkpt><trkpt lat="44.6791467" lon="7.3329013"><ele>1251.8</ele><time>2026-05-01T10:53:06.621Z</time></trkpt><trkpt lat="44.6792303" lon="7.3330196"><ele>1252.0</ele><time>2026-05-01T10:53:08.622Z</time></trkpt><trkpt lat="44.6793197" lon="7.3331371"><ele>1252.0</ele><time>2026-05-01T10:53:10.622Z</time></trkpt><trkpt lat="44.6793634" lon="7.3332164"><ele>1252.0</ele><time>2026-05-01T10:53:11.622Z</time></trkpt><trkpt lat="44.6794019" lon="7.3332966"><ele>1252.0</ele><time>2026-05-01T10:53:12.622Z</time></trkpt><trkpt lat="44.679452" lon="7.3333969"><ele>1252.0</ele><time>2026-05-01T10:53:13.622Z</time></trkpt><trkpt lat="44.6795109" lon="7.3334904"><ele>1252.0</ele><time>2026-05-01T10:53:14.622Z</time></trkpt><trkpt lat="44.6795745" lon="7.3335988"><ele>1252.0</ele><time>2026-05-01T10:53:15.622Z</time></trkpt><trkpt lat="44.6796404" lon="7.3337139"><ele>1253.8333333333333</ele><time>2026-05-01T10:53:16.622Z</time></trkpt><trkpt lat="44.6797075" lon="7.3338226"><ele>1255.6666666666665</ele><time>2026-05-01T10:53:17.623Z</time></trkpt><trkpt lat="44.6797705" lon="7.3339169"><ele>1257.5</ele><time>2026-05-01T10:53:18.622Z</time></trkpt><trkpt lat="44.6798348" lon="7.3340083"><ele>1259.3333333333333</ele><time>2026-05-01T10:53:19.621Z</time></trkpt><trkpt lat="44.679891" lon="7.3340822"><ele>1261.1666666666667</ele><time>2026-05-01T10:53:20.621Z</time></trkpt><trkpt lat="44.6799384" lon="7.3341545"><ele>1263.0</ele><time>2026-05-01T10:53:21.621Z</time></trkpt><trkpt lat="44.6799735" lon="7.3342324"><ele>1263.3333333333333</ele><time>2026-05-01T10:53:22.623Z</time></trkpt><trkpt lat="44.6800142" lon="7.3343241"><ele>1263.6666666666667</ele><time>2026-05-01T10:53:23.62Z</time></trkpt><trkpt lat="44.6800529" lon="7.3344249"><ele>1264.0</ele><time>2026-05-01T10:53:24.622Z</time></trkpt><trkpt lat="44.6800897" lon="7.3345377"><ele>1264.3333333333335</ele><time>2026-05-01T10:53:25.621Z</time></trkpt><trkpt lat="44.6801212" lon="7.3346352"><ele>1264.6666666666667</ele><time>2026-05-01T10:53:26.622Z</time></trkpt><trkpt lat="44.6801537" lon="7.334721"><ele>1265.0</ele><time>2026-05-01T10:53:27.621Z</time></trkpt><trkpt lat="44.680178" lon="7.3348063"><ele>1265.0</ele><time>2026-05-01T10:53:28.621Z</time></trkpt><trkpt lat="44.6802192" lon="7.3349392"><ele>1265.0</ele><time>2026-05-01T10:53:30.622Z</time></trkpt><trkpt lat="44.6802608" lon="7.3350723"><ele>1265.0</ele><time>2026-05-01T10:53:32.624Z</time></trkpt><trkpt lat="44.680305" lon="7.3352015"><ele>1265.0</ele><time>2026-05-01T10:53:34.622Z</time></trkpt><trkpt lat="44.6803474" lon="7.3353207"><ele>1265.0</ele><time>2026-05-01T10:53:36.621Z</time></trkpt><trkpt lat="44.6804091" lon="7.3353623"><ele>1266.3333333333335</ele><time>2026-05-01T10:53:38.62Z</time></trkpt><trkpt lat="44.6804723" lon="7.3354391"><ele>1267.6666666666667</ele><time>2026-05-01T10:53:40.621Z</time></trkpt><trkpt lat="44.6805605" lon="7.3355744"><ele>1269.0</ele><time>2026-05-01T10:53:42.62Z</time></trkpt><trkpt lat="44.680598" lon="7.3356518"><ele>1270.3333333333333</ele><time>2026-05-01T10:53:43.622Z</time></trkpt><trkpt lat="44.6806325" lon="7.3357308"><ele>1271.6666666666665</ele><time>2026-05-01T10:53:44.623Z</time></trkpt><trkpt lat="44.6806632" lon="7.3358213"><ele>1273.0</ele><time>2026-05-01T10:53:45.625Z</time></trkpt><trkpt lat="44.6806902" lon="7.3359155"><ele>1274.0</ele><time>2026-05-01T10:53:46.621Z</time></trkpt><trkpt lat="44.6807072" lon="7.3360887"><ele>1275.0</ele><time>2026-05-01T10:53:48.622Z</time></trkpt><trkpt lat="44.680733" lon="7.3361898"><ele>1276.0</ele><time>2026-05-01T10:53:49.621Z</time></trkpt><trkpt lat="44.6807623" lon="7.336291"><ele>1277.0</ele><time>2026-05-01T10:53:50.622Z</time></trkpt><trkpt lat="44.6807842" lon="7.3364042"><ele>1278.0</ele><time>2026-05-01T10:53:51.623Z</time></trkpt><trkpt lat="44.6808216" lon="7.3365202"><ele>1278.6</ele><time>2026-05-01T10:53:52.622Z</time></trkpt><trkpt lat="44.6808708" lon="7.3366296"><ele>1279.1999999999998</ele><time>2026-05-01T10:53:53.623Z</time></trkpt><trkpt lat="44.6809216" lon="7.3367415"><ele>1279.8</ele><time>2026-05-01T10:53:54.621Z</time></trkpt><trkpt lat="44.6809581" lon="7.3368374"><ele>1280.3999999999999</ele><time>2026-05-01T10:53:55.621Z</time></trkpt><trkpt lat="44.680989" lon="7.3369934"><ele>1281.0</ele><time>2026-05-01T10:53:57.62Z</time></trkpt><trkpt lat="44.6809951" lon="7.3371363"><ele>1282.1999999999998</ele><time>2026-05-01T10:53:59.62Z</time></trkpt><trkpt lat="44.6809669" lon="7.3372759"><ele>1283.3999999999999</ele><time>2026-05-01T10:54:01.621Z</time></trkpt><trkpt lat="44.6809501" lon="7.3374476"><ele>1284.6</ele><time>2026-05-01T10:54:03.623Z</time></trkpt><trkpt lat="44.6809396" lon="7.3375581"><ele>1285.8</ele><time>2026-05-01T10:54:04.621Z</time></trkpt><trkpt lat="44.6809272" lon="7.3376836"><ele>1287.0</ele><time>2026-05-01T10:54:05.621Z</time></trkpt><trkpt lat="44.6809039" lon="7.3378516"><ele>1287.0</ele><time>2026-05-01T10:54:07.621Z</time></trkpt><trkpt lat="44.6809134" lon="7.3379439"><ele>1287.0</ele><time>2026-05-01T10:54:08.621Z</time></trkpt><trkpt lat="44.6809351" lon="7.3380297"><ele>1287.0</ele><time>2026-05-01T10:54:09.621Z</time></trkpt><trkpt lat="44.6809684" lon="7.338109"><ele>1287.0</ele><time>2026-05-01T10:54:10.621Z</time></trkpt><trkpt lat="44.6810013" lon="7.3381888"><ele>1287.0</ele><time>2026-05-01T10:54:11.622Z</time></trkpt><trkpt lat="44.6810467" lon="7.338301"><ele>1287.0</ele><time>2026-05-01T10:54:13.62Z</time></trkpt><trkpt lat="44.6810834" lon="7.338378"><ele>1287.0</ele><time>2026-05-01T10:54:15.621Z</time></trkpt><trkpt lat="44.6810817" lon="7.3384679"><ele>1287.0</ele><time>2026-05-01T10:54:18.62Z</time></trkpt><trkpt lat="44.6810993" lon="7.3383793"><ele>1287.0</ele><time>2026-05-01T11:13:25.623Z</time></trkpt><trkpt lat="44.6810521" lon="7.3383125"><ele>1287.0</ele><time>2026-05-01T11:13:27.623Z</time></trkpt><trkpt lat="44.6810098" lon="7.3382329"><ele>1287.0</ele><time>2026-05-01T11:13:29.623Z</time></trkpt><trkpt lat="44.6809586" lon="7.3381266"><ele>1287.0</ele><time>2026-05-01T11:13:32.623Z</time></trkpt><trkpt lat="44.6809254" lon="7.3380322"><ele>1287.0</ele><time>2026-05-01T11:13:34.623Z</time></trkpt><trkpt lat="44.6808959" lon="7.3379263"><ele>1287.0</ele><time>2026-05-01T11:13:36.623Z</time></trkpt><trkpt lat="44.6808932" lon="7.3378163"><ele>1287.0</ele><time>2026-05-01T11:13:38.623Z</time></trkpt><trkpt lat="44.6809166" lon="7.3377021"><ele>1287.0</ele><time>2026-05-01T11:13:40.623Z</time></trkpt><trkpt lat="44.6809371" lon="7.3375636"><ele>1287.0</ele><time>2026-05-01T11:13:42.623Z</time></trkpt><trkpt lat="44.6809451" lon="7.3374171"><ele>1287.0</ele><time>2026-05-01T11:13:44.623Z</time></trkpt><trkpt lat="44.6809636" lon="7.3372817"><ele>1285.8</ele><time>2026-05-01T11:13:46.623Z</time></trkpt><trkpt lat="44.6809919" lon="7.3371505"><ele>1284.6</ele><time>2026-05-01T11:13:48.623Z</time></trkpt><trkpt lat="44.68099" lon="7.3370256"><ele>1283.3999999999999</ele><time>2026-05-01T11:13:50.623Z</time></trkpt><trkpt lat="44.6809696" lon="7.3368876"><ele>1282.1999999999998</ele><time>2026-05-01T11:13:52.623Z</time></trkpt><trkpt lat="44.6809194" lon="7.3367477"><ele>1281.0</ele><time>2026-05-01T11:13:54.623Z</time></trkpt><trkpt lat="44.6808552" lon="7.3366092"><ele>1281.0</ele><time>2026-05-01T11:13:56.623Z</time></trkpt><trkpt lat="44.6808066" lon="7.3364572"><ele>1281.0</ele><time>2026-05-01T11:13:58.623Z</time></trkpt><trkpt lat="44.6807633" lon="7.3363197"><ele>1281.0</ele><time>2026-05-01T11:14:00.623Z</time></trkpt><trkpt lat="44.6807329" lon="7.3361957"><ele>1281.0</ele><time>2026-05-01T11:14:02.623Z</time></trkpt><trkpt lat="44.6807024" lon="7.3360619"><ele>1281.0</ele><time>2026-05-01T11:14:04.623Z</time></trkpt><trkpt lat="44.6806904" lon="7.3359723"><ele>1280.5</ele><time>2026-05-01T11:14:05.623Z</time></trkpt><trkpt lat="44.6806599" lon="7.3358146"><ele>1280.0</ele><time>2026-05-01T11:14:07.622Z</time></trkpt><trkpt lat="44.6806249" lon="7.3357273"><ele>1279.5</ele><time>2026-05-01T11:14:08.622Z</time></trkpt><trkpt lat="44.6805845" lon="7.3356418"><ele>1279.0</ele><time>2026-05-01T11:14:09.623Z</time></trkpt><trkpt lat="44.6805431" lon="7.3355701"><ele>1278.5</ele><time>2026-05-01T11:14:10.623Z</time></trkpt><trkpt lat="44.6804873" lon="7.3354575"><ele>1278.0</ele><time>2026-05-01T11:14:12.623Z</time></trkpt><trkpt lat="44.6804276" lon="7.3353869"><ele>1277.0</ele><time>2026-05-01T11:14:14.623Z</time></trkpt><trkpt lat="44.6803479" lon="7.3353355"><ele>1276.0</ele><time>2026-05-01T11:14:17.623Z</time></trkpt><trkpt lat="44.6803003" lon="7.335215"><ele>1275.0</ele><time>2026-05-01T11:14:20.623Z</time></trkpt><trkpt lat="44.6802728" lon="7.3351111"><ele>1274.0</ele><time>2026-05-01T11:14:22.623Z</time></trkpt><trkpt lat="44.6802331" lon="7.3349715"><ele>1273.0</ele><time>2026-05-01T11:14:24.623Z</time></trkpt><trkpt lat="44.6801807" lon="7.3348241"><ele>1271.4</ele><time>2026-05-01T11:14:26.623Z</time></trkpt><trkpt lat="44.6801442" lon="7.3347186"><ele>1269.8</ele><time>2026-05-01T11:14:28.623Z</time></trkpt><trkpt lat="44.6801082" lon="7.334592"><ele>1268.2</ele><time>2026-05-01T11:14:30.623Z</time></trkpt><trkpt lat="44.6800527" lon="7.3344483"><ele>1266.6</ele><time>2026-05-01T11:14:32.622Z</time></trkpt><trkpt lat="44.6799955" lon="7.3342981"><ele>1265.0</ele><time>2026-05-01T11:14:34.623Z</time></trkpt><trkpt lat="44.6799319" lon="7.3341566"><ele>1265.0</ele><time>2026-05-01T11:14:36.623Z</time></trkpt><trkpt lat="44.6798902" lon="7.3340838"><ele>1265.0</ele><time>2026-05-01T11:14:37.623Z</time></trkpt><trkpt lat="44.6797977" lon="7.3339621"><ele>1265.0</ele><time>2026-05-01T11:14:39.623Z</time></trkpt><trkpt lat="44.6797446" lon="7.3338914"><ele>1265.0</ele><time>2026-05-01T11:14:40.623Z</time></trkpt><trkpt lat="44.6796918" lon="7.3338052"><ele>1265.0</ele><time>2026-05-01T11:14:41.623Z</time></trkpt><trkpt lat="44.679644" lon="7.3337267"><ele>1265.0</ele><time>2026-05-01T11:14:42.623Z</time></trkpt><trkpt lat="44.679599" lon="7.333649"><ele>1264.6666666666667</ele><time>2026-05-01T11:14:43.623Z</time></trkpt><trkpt lat="44.6795539" lon="7.3335731"><ele>1264.3333333333335</ele><time>2026-05-01T11:14:44.623Z</time></trkpt><trkpt lat="44.6795093" lon="7.3335032"><ele>1264.0</ele><time>2026-05-01T11:14:45.623Z</time></trkpt><trkpt lat="44.6794376" lon="7.3333731"><ele>1263.6666666666667</ele><time>2026-05-01T11:14:47.623Z</time></trkpt><trkpt lat="44.6793773" lon="7.3332507"><ele>1263.3333333333333</ele><time>2026-05-01T11:14:49.623Z</time></trkpt><trkpt lat="44.6793406" lon="7.3331765"><ele>1263.0</ele><time>2026-05-01T11:14:50.623Z</time></trkpt><trkpt lat="44.679262" lon="7.3330636"><ele>1261.8333333333333</ele><time>2026-05-01T11:14:52.623Z</time></trkpt><trkpt lat="44.6791968" lon="7.3329708"><ele>1260.6666666666667</ele><time>2026-05-01T11:14:54.623Z</time></trkpt><trkpt lat="44.6791467" lon="7.3328942"><ele>1259.5</ele><time>2026-05-01T11:14:56.623Z</time></trkpt><trkpt lat="44.6790991" lon="7.332782"><ele>1258.3333333333335</ele><time>2026-05-01T11:14:59.623Z</time></trkpt><trkpt lat="44.6790875" lon="7.3326635"><ele>1257.1666666666667</ele><time>2026-05-01T11:15:01.623Z</time></trkpt><trkpt lat="44.6790615" lon="7.3325493"><ele>1256.0</ele><time>2026-05-01T11:15:03.623Z</time></trkpt><trkpt lat="44.6789827" lon="7.3324779"><ele>1256.0</ele><time>2026-05-01T11:15:05.623Z</time></trkpt><trkpt lat="44.6788951" lon="7.3324411"><ele>1256.0</ele><time>2026-05-01T11:15:07.623Z</time></trkpt><trkpt lat="44.6788187" lon="7.332371"><ele>1256.0</ele><time>2026-05-01T11:15:09.623Z</time></trkpt><trkpt lat="44.6787543" lon="7.3322651"><ele>1256.0</ele><time>2026-05-01T11:15:11.623Z</time></trkpt><trkpt lat="44.6786914" lon="7.3321608"><ele>1256.0</ele><time>2026-05-01T11:15:13.622Z</time></trkpt><trkpt lat="44.6786468" lon="7.3320676"><ele>1255.0</ele><time>2026-05-01T11:15:15.623Z</time></trkpt><trkpt lat="44.6786912" lon="7.331967"><ele>1254.0</ele><time>2026-05-01T11:15:18.623Z</time></trkpt><trkpt lat="44.6787565" lon="7.3319814"><ele>1253.0</ele><time>2026-05-01T11:15:20.623Z</time></trkpt><trkpt lat="44.6788224" lon="7.331934"><ele>1252.0</ele><time>2026-05-01T11:15:30.623Z</time></trkpt><trkpt lat="44.6789225" lon="7.3318864"><ele>1251.0</ele><time>2026-05-01T11:15:32.622Z</time></trkpt><trkpt lat="44.6790387" lon="7.3318331"><ele>1251.0</ele><time>2026-05-01T11:15:34.622Z</time></trkpt><trkpt lat="44.6791269" lon="7.3317692"><ele>1251.0</ele><time>2026-05-01T11:15:36.623Z</time></trkpt><trkpt lat="44.6792324" lon="7.3317326"><ele>1251.0</ele><time>2026-05-01T11:15:38.623Z</time></trkpt><trkpt lat="44.6793495" lon="7.3317193"><ele>1251.0</ele><time>2026-05-01T11:15:40.623Z</time></trkpt><trkpt lat="44.6794509" lon="7.3317201"><ele>1251.0</ele><time>2026-05-01T11:15:42.623Z</time></trkpt><trkpt lat="44.6795543" lon="7.3317358"><ele>1251.1666666666667</ele><time>2026-05-01T11:15:44.623Z</time></trkpt><trkpt lat="44.679641" lon="7.3317659"><ele>1251.3333333333333</ele><time>2026-05-01T11:15:46.623Z</time></trkpt><trkpt lat="44.6797306" lon="7.3318029"><ele>1251.5</ele><time>2026-05-01T11:15:48.623Z</time></trkpt><trkpt lat="44.6798421" lon="7.3318544"><ele>1251.6666666666665</ele><time>2026-05-01T11:15:50.623Z</time></trkpt><trkpt lat="44.6799056" lon="7.3318879"><ele>1251.8333333333333</ele><time>2026-05-01T11:15:51.623Z</time></trkpt><trkpt lat="44.6799722" lon="7.3319138"><ele>1252.0</ele><time>2026-05-01T11:15:52.623Z</time></trkpt><trkpt lat="44.6800961" lon="7.3319636"><ele>1252.0</ele><time>2026-05-01T11:15:54.623Z</time></trkpt><trkpt lat="44.6801707" lon="7.3319994"><ele>1252.0</ele><time>2026-05-01T11:15:55.623Z</time></trkpt><trkpt lat="44.6802413" lon="7.3320347"><ele>1252.0</ele><time>2026-05-01T11:15:56.622Z</time></trkpt><trkpt lat="44.6803075" lon="7.3320696"><ele>1252.0</ele><time>2026-05-01T11:15:57.623Z</time></trkpt><trkpt lat="44.6803723" lon="7.3321014"><ele>1252.0</ele><time>2026-05-01T11:15:58.623Z</time></trkpt><trkpt lat="44.6804331" lon="7.33213"><ele>1252.0</ele><time>2026-05-01T11:15:59.623Z</time></trkpt><trkpt lat="44.6805438" lon="7.3321792"><ele>1251.8</ele><time>2026-05-01T11:16:01.623Z</time></trkpt><trkpt lat="44.6806518" lon="7.3322349"><ele>1251.6</ele><time>2026-05-01T11:16:03.623Z</time></trkpt><trkpt lat="44.6807513" lon="7.3322916"><ele>1251.3999999999999</ele><time>2026-05-01T11:16:05.623Z</time></trkpt><trkpt lat="44.6808432" lon="7.3323499"><ele>1251.2</ele><time>2026-05-01T11:16:07.623Z</time></trkpt><trkpt lat="44.6809303" lon="7.3324256"><ele>1251.0</ele><time>2026-05-01T11:16:09.623Z</time></trkpt><trkpt lat="44.6809998" lon="7.3325325"><ele>1251.0</ele><time>2026-05-01T11:16:11.623Z</time></trkpt><trkpt lat="44.6810678" lon="7.332645"><ele>1251.0</ele><time>2026-05-01T11:16:13.623Z</time></trkpt><trkpt lat="44.6811406" lon="7.3327494"><ele>1251.0</ele><time>2026-05-01T11:16:15.623Z</time></trkpt><trkpt lat="44.6812188" lon="7.3328708"><ele>1251.0</ele><time>2026-05-01T11:16:17.622Z</time></trkpt><trkpt lat="44.6812893" lon="7.3329388"><ele>1251.0</ele><time>2026-05-01T11:16:19.623Z</time></trkpt><trkpt lat="44.6813564" lon="7.3329969"><ele>1250.5</ele><time>2026-05-01T11:16:21.623Z</time></trkpt><trkpt lat="44.6814316" lon="7.3331134"><ele>1250.0</ele><time>2026-05-01T11:16:23.622Z</time></trkpt><trkpt lat="44.6814972" lon="7.3331786"><ele>1249.5</ele><time>2026-05-01T11:16:24.622Z</time></trkpt><trkpt lat="44.6815605" lon="7.333237"><ele>1249.0</ele><time>2026-05-01T11:16:25.623Z</time></trkpt><trkpt lat="44.68163" lon="7.3332947"><ele>1248.5</ele><time>2026-05-01T11:16:26.622Z</time></trkpt><trkpt lat="44.681691" lon="7.3333671"><ele>1248.0</ele><time>2026-05-01T11:16:27.623Z</time></trkpt><trkpt lat="44.6817535" lon="7.3334152"><ele>1248.0</ele><time>2026-05-01T11:16:28.623Z</time></trkpt><trkpt lat="44.681809" lon="7.3334609"><ele>1248.0</ele><time>2026-05-01T11:16:29.623Z</time></trkpt><trkpt lat="44.6818991" lon="7.3335206"><ele>1248.0</ele><time>2026-05-01T11:16:31.623Z</time></trkpt><trkpt lat="44.6819714" lon="7.3335842"><ele>1248.0</ele><time>2026-05-01T11:16:33.623Z</time></trkpt><trkpt lat="44.6820409" lon="7.3336647"><ele>1248.0</ele><time>2026-05-01T11:16:35.623Z</time></trkpt><trkpt lat="44.6820951" lon="7.3337467"><ele>1248.0</ele><time>2026-05-01T11:16:37.623Z</time></trkpt><trkpt lat="44.6821517" lon="7.3338242"><ele>1246.857142857143</ele><time>2026-05-01T11:16:39.623Z</time></trkpt><trkpt lat="44.6822271" lon="7.3339436"><ele>1245.7142857142856</ele><time>2026-05-01T11:16:41.623Z</time></trkpt><trkpt lat="44.6822573" lon="7.334029"><ele>1244.5714285714284</ele><time>2026-05-01T11:16:42.623Z</time></trkpt><trkpt lat="44.6822907" lon="7.3341108"><ele>1243.4285714285716</ele><time>2026-05-01T11:16:43.623Z</time></trkpt><trkpt lat="44.6823278" lon="7.3341873"><ele>1242.2857142857142</ele><time>2026-05-01T11:16:44.623Z</time></trkpt><trkpt lat="44.6823687" lon="7.3342588"><ele>1241.142857142857</ele><time>2026-05-01T11:16:45.623Z</time></trkpt><trkpt lat="44.6824132" lon="7.3343282"><ele>1240.0</ele><time>2026-05-01T11:16:46.623Z</time></trkpt><trkpt lat="44.6824584" lon="7.3343936"><ele>1240.0</ele><time>2026-05-01T11:16:47.623Z</time></trkpt><trkpt lat="44.682502" lon="7.3344629"><ele>1240.0</ele><time>2026-05-01T11:16:48.623Z</time></trkpt><trkpt lat="44.6825568" lon="7.3345246"><ele>1240.0</ele><time>2026-05-01T11:16:49.623Z</time></trkpt><trkpt lat="44.6826135" lon="7.3345919"><ele>1240.0</ele><time>2026-05-01T11:16:50.622Z</time></trkpt><trkpt lat="44.6826942" lon="7.3346638"><ele>1240.0</ele><time>2026-05-01T11:16:51.623Z</time></trkpt><trkpt lat="44.6827737" lon="7.3347494"><ele>1240.0</ele><time>2026-05-01T11:16:52.622Z</time></trkpt><trkpt lat="44.6828565" lon="7.3348341"><ele>1239.8</ele><time>2026-05-01T11:16:53.622Z</time></trkpt><trkpt lat="44.6829197" lon="7.3348951"><ele>1239.6</ele><time>2026-05-01T11:16:54.623Z</time></trkpt><trkpt lat="44.6829721" lon="7.3349458"><ele>1239.4</ele><time>2026-05-01T11:16:55.623Z</time></trkpt><trkpt lat="44.6830667" lon="7.3350391"><ele>1239.2</ele><time>2026-05-01T11:16:57.623Z</time></trkpt><trkpt lat="44.6831407" lon="7.335132"><ele>1239.0</ele><time>2026-05-01T11:16:59.623Z</time></trkpt><trkpt lat="44.6832318" lon="7.3352113"><ele>1239.0</ele><time>2026-05-01T11:17:01.623Z</time></trkpt><trkpt lat="44.6833435" lon="7.3353156"><ele>1239.0</ele><time>2026-05-01T11:17:03.622Z</time></trkpt><trkpt lat="44.6834042" lon="7.335373"><ele>1239.0</ele><time>2026-05-01T11:17:04.623Z</time></trkpt><trkpt lat="44.6834776" lon="7.3354387"><ele>1239.0</ele><time>2026-05-01T11:17:05.623Z</time></trkpt><trkpt lat="44.6835636" lon="7.3355172"><ele>1239.0</ele><time>2026-05-01T11:17:06.623Z</time></trkpt><trkpt lat="44.6836332" lon="7.3355817"><ele>1237.8</ele><time>2026-05-01T11:17:07.623Z</time></trkpt><trkpt lat="44.6837017" lon="7.3356434"><ele>1236.6000000000001</ele><time>2026-05-01T11:17:08.623Z</time></trkpt><trkpt lat="44.6837634" lon="7.3357062"><ele>1235.4</ele><time>2026-05-01T11:17:09.623Z</time></trkpt><trkpt lat="44.6838237" lon="7.3357663"><ele>1234.2</ele><time>2026-05-01T11:17:10.623Z</time></trkpt><trkpt lat="44.6839225" lon="7.3358642"><ele>1233.0</ele><time>2026-05-01T11:17:12.623Z</time></trkpt><trkpt lat="44.6840097" lon="7.3359405"><ele>1233.0</ele><time>2026-05-01T11:17:14.623Z</time></trkpt><trkpt lat="44.6840808" lon="7.3359331"><ele>1233.0</ele><time>2026-05-01T11:17:16.623Z</time></trkpt><trkpt lat="44.6841323" lon="7.3358619"><ele>1233.0</ele><time>2026-05-01T11:17:18.623Z</time></trkpt><trkpt lat="44.6841864" lon="7.3357494"><ele>1233.0</ele><time>2026-05-01T11:17:20.623Z</time></trkpt><trkpt lat="44.6842687" lon="7.3356823"><ele>1233.0</ele><time>2026-05-01T11:17:22.623Z</time></trkpt><trkpt lat="44.6843529" lon="7.3356722"><ele>1233.0</ele><time>2026-05-01T11:17:24.623Z</time></trkpt><trkpt lat="44.6844185" lon="7.3357115"><ele>1233.0</ele><time>2026-05-01T11:17:26.623Z</time></trkpt><trkpt lat="44.6844435" lon="7.3358194"><ele>1233.0</ele><time>2026-05-01T11:17:28.623Z</time></trkpt><trkpt lat="44.6844358" lon="7.335944"><ele>1233.0</ele><time>2026-05-01T11:17:30.623Z</time></trkpt><trkpt lat="44.6844283" lon="7.3361125"><ele>1233.0</ele><time>2026-05-01T11:17:32.623Z</time></trkpt><trkpt lat="44.6844297" lon="7.3362605"><ele>1233.0</ele><time>2026-05-01T11:17:34.623Z</time></trkpt><trkpt lat="44.6844344" lon="7.3363831"><ele>1231.6666666666667</ele><time>2026-05-01T11:17:36.623Z</time></trkpt><trkpt lat="44.6844295" lon="7.3364965"><ele>1230.3333333333333</ele><time>2026-05-01T11:17:38.623Z</time></trkpt><trkpt lat="44.6844212" lon="7.336611"><ele>1229.0</ele><time>2026-05-01T11:17:40.623Z</time></trkpt><trkpt lat="44.684425" lon="7.3367286"><ele>1227.6666666666665</ele><time>2026-05-01T11:17:42.623Z</time></trkpt><trkpt lat="44.6844575" lon="7.3368451"><ele>1226.3333333333333</ele><time>2026-05-01T11:17:44.623Z</time></trkpt><trkpt lat="44.6845255" lon="7.3369465"><ele>1225.0</ele><time>2026-05-01T11:17:46.623Z</time></trkpt><trkpt lat="44.6845976" lon="7.3370625"><ele>1222.4</ele><time>2026-05-01T11:17:48.623Z</time></trkpt><trkpt lat="44.6846904" lon="7.3371637"><ele>1219.8</ele><time>2026-05-01T11:17:50.623Z</time></trkpt><trkpt lat="44.6847838" lon="7.337202"><ele>1217.2</ele><time>2026-05-01T11:17:52.623Z</time></trkpt><trkpt lat="44.6848695" lon="7.337234"><ele>1214.6</ele><time>2026-05-01T11:17:54.623Z</time></trkpt><trkpt lat="44.6849529" lon="7.3372994"><ele>1212.0</ele><time>2026-05-01T11:17:56.623Z</time></trkpt><trkpt lat="44.6850361" lon="7.3373935"><ele>1210.2</ele><time>2026-05-01T11:17:58.623Z</time></trkpt><trkpt lat="44.6851298" lon="7.3374247"><ele>1208.4</ele><time>2026-05-01T11:18:00.623Z</time></trkpt><trkpt lat="44.6852318" lon="7.3373766"><ele>1206.6</ele><time>2026-05-01T11:18:02.622Z</time></trkpt><trkpt lat="44.6853054" lon="7.3372929"><ele>1204.8</ele><time>2026-05-01T11:18:04.623Z</time></trkpt><trkpt lat="44.6853587" lon="7.3372335"><ele>1203.0</ele><time>2026-05-01T11:18:05.623Z</time></trkpt><trkpt lat="44.6854434" lon="7.3371221"><ele>1200.8</ele><time>2026-05-01T11:18:07.623Z</time></trkpt><trkpt lat="44.6855191" lon="7.337015"><ele>1198.6</ele><time>2026-05-01T11:18:09.623Z</time></trkpt><trkpt lat="44.685595" lon="7.3369031"><ele>1196.4</ele><time>2026-05-01T11:18:11.623Z</time></trkpt><trkpt lat="44.6856835" lon="7.3368364"><ele>1194.2</ele><time>2026-05-01T11:18:13.623Z</time></trkpt><trkpt lat="44.6857627" lon="7.3367986"><ele>1192.0</ele><time>2026-05-01T11:18:15.622Z</time></trkpt><trkpt lat="44.6858496" lon="7.3367502"><ele>1192.0</ele><time>2026-05-01T11:18:17.623Z</time></trkpt><trkpt lat="44.6859515" lon="7.3367208"><ele>1192.0</ele><time>2026-05-01T11:18:19.623Z</time></trkpt><trkpt lat="44.6860328" lon="7.3366943"><ele>1192.0</ele><time>2026-05-01T11:18:21.623Z</time></trkpt><trkpt lat="44.6861165" lon="7.3366379"><ele>1192.0</ele><time>2026-05-01T11:18:23.623Z</time></trkpt><trkpt lat="44.6862115" lon="7.3366141"><ele>1192.0</ele><time>2026-05-01T11:18:25.623Z</time></trkpt><trkpt lat="44.6863175" lon="7.3366003"><ele>1188.4</ele><time>2026-05-01T11:18:27.623Z</time></trkpt><trkpt lat="44.6864135" lon="7.3365923"><ele>1184.8000000000002</ele><time>2026-05-01T11:18:29.623Z</time></trkpt><trkpt lat="44.6865358" lon="7.3366018"><ele>1181.2</ele><time>2026-05-01T11:18:31.622Z</time></trkpt><trkpt lat="44.6866008" lon="7.3366187"><ele>1177.6000000000001</ele><time>2026-05-01T11:18:32.623Z</time></trkpt><trkpt lat="44.6866681" lon="7.3366323"><ele>1174.0</ele><time>2026-05-01T11:18:33.623Z</time></trkpt><trkpt lat="44.6867693" lon="7.3366502"><ele>1174.0</ele><time>2026-05-01T11:18:35.623Z</time></trkpt><trkpt lat="44.6868629" lon="7.336685"><ele>1174.0</ele><time>2026-05-01T11:18:37.623Z</time></trkpt><trkpt lat="44.6869548" lon="7.3367289"><ele>1174.0</ele><time>2026-05-01T11:18:39.623Z</time></trkpt><trkpt lat="44.6870538" lon="7.3367818"><ele>1174.0</ele><time>2026-05-01T11:18:41.623Z</time></trkpt><trkpt lat="44.6871464" lon="7.3368598"><ele>1174.0</ele><time>2026-05-01T11:18:43.623Z</time></trkpt><trkpt lat="44.6872471" lon="7.3369414"><ele>1173.0</ele><time>2026-05-01T11:18:45.623Z</time></trkpt><trkpt lat="44.6873454" lon="7.3370084"><ele>1172.0</ele><time>2026-05-01T11:18:47.623Z</time></trkpt><trkpt lat="44.6874334" lon="7.3370624"><ele>1171.0</ele><time>2026-05-01T11:18:49.623Z</time></trkpt><trkpt lat="44.687532" lon="7.3371239"><ele>1170.0</ele><time>2026-05-01T11:18:51.623Z</time></trkpt><trkpt lat="44.6876273" lon="7.3371744"><ele>1169.0</ele><time>2026-05-01T11:18:53.623Z</time></trkpt><trkpt lat="44.6877232" lon="7.337227"><ele>1164.4</ele><time>2026-05-01T11:18:55.623Z</time></trkpt><trkpt lat="44.6878261" lon="7.337286"><ele>1159.8000000000002</ele><time>2026-05-01T11:18:57.623Z</time></trkpt><trkpt lat="44.6879256" lon="7.3373308"><ele>1155.1999999999998</ele><time>2026-05-01T11:18:59.623Z</time></trkpt><trkpt lat="44.6880301" lon="7.3373799"><ele>1150.6</ele><time>2026-05-01T11:19:01.623Z</time></trkpt><trkpt lat="44.6881338" lon="7.3374331"><ele>1146.0</ele><time>2026-05-01T11:19:03.623Z</time></trkpt><trkpt lat="44.6882309" lon="7.3374886"><ele>1146.0</ele><time>2026-05-01T11:19:05.623Z</time></trkpt><trkpt lat="44.6883178" lon="7.3375387"><ele>1146.0</ele><time>2026-05-01T11:19:07.623Z</time></trkpt><trkpt lat="44.6884125" lon="7.3376095"><ele>1146.0</ele><time>2026-05-01T11:19:09.623Z</time></trkpt><trkpt lat="44.68847" lon="7.3376458"><ele>1146.0</ele><time>2026-05-01T11:19:10.623Z</time></trkpt><trkpt lat="44.6885271" lon="7.337685"><ele>1146.0</ele><time>2026-05-01T11:19:11.622Z</time></trkpt><trkpt lat="44.6886359" lon="7.3377688"><ele>1144.1666666666667</ele><time>2026-05-01T11:19:13.623Z</time></trkpt><trkpt lat="44.6886992" lon="7.3378145"><ele>1142.3333333333333</ele><time>2026-05-01T11:19:14.623Z</time></trkpt><trkpt lat="44.688795" lon="7.3379284"><ele>1140.5</ele><time>2026-05-01T11:19:16.623Z</time></trkpt><trkpt lat="44.6888456" lon="7.3379887"><ele>1138.6666666666665</ele><time>2026-05-01T11:19:17.622Z</time></trkpt><trkpt lat="44.688909" lon="7.3380539"><ele>1136.8333333333333</ele><time>2026-05-01T11:19:18.623Z</time></trkpt><trkpt lat="44.6889641" lon="7.3381145"><ele>1135.0</ele><time>2026-05-01T11:19:19.623Z</time></trkpt><trkpt lat="44.6890206" lon="7.3381695"><ele>1135.0</ele><time>2026-05-01T11:19:20.623Z</time></trkpt><trkpt lat="44.6890782" lon="7.3382162"><ele>1135.0</ele><time>2026-05-01T11:19:21.623Z</time></trkpt><trkpt lat="44.6891394" lon="7.3382495"><ele>1135.0</ele><time>2026-05-01T11:19:22.623Z</time></trkpt><trkpt lat="44.6892545" lon="7.3382525"><ele>1135.0</ele><time>2026-05-01T11:19:24.623Z</time></trkpt><trkpt lat="44.6893584" lon="7.3381896"><ele>1135.0</ele><time>2026-05-01T11:19:26.623Z</time></trkpt><trkpt lat="44.6894686" lon="7.3381014"><ele>1132.25</ele><time>2026-05-01T11:19:28.623Z</time></trkpt><trkpt lat="44.6895669" lon="7.3380041"><ele>1129.5</ele><time>2026-05-01T11:19:30.623Z</time></trkpt><trkpt lat="44.6896665" lon="7.3379163"><ele>1126.75</ele><time>2026-05-01T11:19:32.623Z</time></trkpt><trkpt lat="44.6897616" lon="7.3378171"><ele>1124.0</ele><time>2026-05-01T11:19:34.623Z</time></trkpt><trkpt lat="44.689854" lon="7.3377375"><ele>1124.0</ele><time>2026-05-01T11:19:36.623Z</time></trkpt><trkpt lat="44.6899499" lon="7.3376652"><ele>1124.0</ele><time>2026-05-01T11:19:38.622Z</time></trkpt><trkpt lat="44.6900313" lon="7.3375848"><ele>1124.0</ele><time>2026-05-01T11:19:40.623Z</time></trkpt><trkpt lat="44.6901048" lon="7.3375083"><ele>1124.0</ele><time>2026-05-01T11:19:42.623Z</time></trkpt><trkpt lat="44.6901694" lon="7.3374218"><ele>1124.0</ele><time>2026-05-01T11:19:44.623Z</time></trkpt><trkpt lat="44.6902063" lon="7.337331"><ele>1124.0</ele><time>2026-05-01T11:19:46.623Z</time></trkpt><trkpt lat="44.6902402" lon="7.3372278"><ele>1124.0</ele><time>2026-05-01T11:19:48.623Z</time></trkpt><trkpt lat="44.6902883" lon="7.3371282"><ele>1124.0</ele><time>2026-05-01T11:19:50.623Z</time></trkpt><trkpt lat="44.6903637" lon="7.3370494"><ele>1124.0</ele><time>2026-05-01T11:19:52.623Z</time></trkpt><trkpt lat="44.6904462" lon="7.3369733"><ele>1124.0</ele><time>2026-05-01T11:19:54.623Z</time></trkpt><trkpt lat="44.6905461" lon="7.3369042"><ele>1120.8</ele><time>2026-05-01T11:19:56.623Z</time></trkpt><trkpt lat="44.6906084" lon="7.3368783"><ele>1117.6000000000001</ele><time>2026-05-01T11:19:57.623Z</time></trkpt><trkpt lat="44.690727" lon="7.3368502"><ele>1114.4</ele><time>2026-05-01T11:19:59.623Z</time></trkpt><trkpt lat="44.6907894" lon="7.3368321"><ele>1111.2</ele><time>2026-05-01T11:20:00.623Z</time></trkpt><trkpt lat="44.6909105" lon="7.3367887"><ele>1108.0</ele><time>2026-05-01T11:20:02.623Z</time></trkpt><trkpt lat="44.691034" lon="7.3367512"><ele>1107.0</ele><time>2026-05-01T11:20:04.623Z</time></trkpt><trkpt lat="44.6910957" lon="7.3367244"><ele>1106.0</ele><time>2026-05-01T11:20:05.623Z</time></trkpt><trkpt lat="44.6912079" lon="7.3366672"><ele>1105.0</ele><time>2026-05-01T11:20:07.623Z</time></trkpt><trkpt lat="44.6912943" lon="7.3366131"><ele>1104.0</ele><time>2026-05-01T11:20:09.623Z</time></trkpt><trkpt lat="44.6913807" lon="7.3366133"><ele>1103.0</ele><time>2026-05-01T11:20:11.623Z</time></trkpt><trkpt lat="44.6914823" lon="7.3366659"><ele>1103.0</ele><time>2026-05-01T11:20:13.623Z</time></trkpt><trkpt lat="44.6915991" lon="7.3367006"><ele>1103.0</ele><time>2026-05-01T11:20:15.623Z</time></trkpt><trkpt lat="44.691716" lon="7.3367199"><ele>1103.0</ele><time>2026-05-01T11:20:17.623Z</time></trkpt><trkpt lat="44.6918119" lon="7.3366795"><ele>1103.0</ele><time>2026-05-01T11:20:19.623Z</time></trkpt><trkpt lat="44.6918981" lon="7.33662"><ele>1103.0</ele><time>2026-05-01T11:20:21.623Z</time></trkpt><trkpt lat="44.6919834" lon="7.3365293"><ele>1101.4</ele><time>2026-05-01T11:20:23.623Z</time></trkpt><trkpt lat="44.6920697" lon="7.3364554"><ele>1099.8</ele><time>2026-05-01T11:20:25.623Z</time></trkpt><trkpt lat="44.6921634" lon="7.3363735"><ele>1098.2</ele><time>2026-05-01T11:20:27.623Z</time></trkpt><trkpt lat="44.6922491" lon="7.3362824"><ele>1096.6</ele><time>2026-05-01T11:20:29.623Z</time></trkpt><trkpt lat="44.6923517" lon="7.3362192"><ele>1095.0</ele><time>2026-05-01T11:20:31.623Z</time></trkpt><trkpt lat="44.6924639" lon="7.336172"><ele>1093.0</ele><time>2026-05-01T11:20:33.623Z</time></trkpt><trkpt lat="44.6925758" lon="7.3361375"><ele>1091.0</ele><time>2026-05-01T11:20:35.623Z</time></trkpt><trkpt lat="44.6926872" lon="7.3361367"><ele>1089.0</ele><time>2026-05-01T11:20:37.623Z</time></trkpt><trkpt lat="44.6927992" lon="7.3361152"><ele>1087.0</ele><time>2026-05-01T11:20:39.623Z</time></trkpt><trkpt lat="44.692858" lon="7.3360733"><ele>1085.0</ele><time>2026-05-01T11:20:40.623Z</time></trkpt><trkpt lat="44.6929522" lon="7.3359915"><ele>1084.25</ele><time>2026-05-01T11:20:42.623Z</time></trkpt><trkpt lat="44.6930431" lon="7.3359325"><ele>1083.5</ele><time>2026-05-01T11:20:44.623Z</time></trkpt><trkpt lat="44.6931329" lon="7.3358903"><ele>1082.75</ele><time>2026-05-01T11:20:46.623Z</time></trkpt><trkpt lat="44.6932538" lon="7.3358519"><ele>1082.0</ele><time>2026-05-01T11:20:48.622Z</time></trkpt><trkpt lat="44.6933933" lon="7.3358442"><ele>1082.0</ele><time>2026-05-01T11:20:50.623Z</time></trkpt><trkpt lat="44.6934961" lon="7.3357599"><ele>1082.0</ele><time>2026-05-01T11:20:52.623Z</time></trkpt><trkpt lat="44.6935786" lon="7.3356378"><ele>1082.0</ele><time>2026-05-01T11:20:54.623Z</time></trkpt><trkpt lat="44.6936212" lon="7.3355692"><ele>1082.0</ele><time>2026-05-01T11:20:55.623Z</time></trkpt><trkpt lat="44.6937052" lon="7.3354502"><ele>1082.0</ele><time>2026-05-01T11:20:57.623Z</time></trkpt><trkpt lat="44.6937916" lon="7.3353619"><ele>1076.8</ele><time>2026-05-01T11:20:59.623Z</time></trkpt><trkpt lat="44.693897" lon="7.3352842"><ele>1071.6</ele><time>2026-05-01T11:21:01.623Z</time></trkpt><trkpt lat="44.6939607" lon="7.3352491"><ele>1066.3999999999999</ele><time>2026-05-01T11:21:02.623Z</time></trkpt><trkpt lat="44.6940758" lon="7.3352048"><ele>1061.2</ele><time>2026-05-01T11:21:04.622Z</time></trkpt><trkpt lat="44.6941879" lon="7.3351692"><ele>1056.0</ele><time>2026-05-01T11:21:06.623Z</time></trkpt><trkpt lat="44.6942898" lon="7.3351429"><ele>1056.0</ele><time>2026-05-01T11:21:08.623Z</time></trkpt><trkpt lat="44.6943951" lon="7.3351133"><ele>1056.0</ele><time>2026-05-01T11:21:10.623Z</time></trkpt><trkpt lat="44.6944663" lon="7.3350634"><ele>1056.0</ele><time>2026-05-01T11:21:12.623Z</time></trkpt><trkpt lat="44.69441" lon="7.3349537"><ele>1056.0</ele><time>2026-05-01T11:21:16.623Z</time></trkpt><trkpt lat="44.6943192" lon="7.3349132"><ele>1056.0</ele><time>2026-05-01T11:21:18.623Z</time></trkpt><trkpt lat="44.6942176" lon="7.3348469"><ele>1056.0</ele><time>2026-05-01T11:21:20.623Z</time></trkpt><trkpt lat="44.6941495" lon="7.3348012"><ele>1056.0</ele><time>2026-05-01T11:21:21.623Z</time></trkpt><trkpt lat="44.6940943" lon="7.3347488"><ele>1056.0</ele><time>2026-05-01T11:21:22.623Z</time></trkpt><trkpt lat="44.6940401" lon="7.334701"><ele>1056.0</ele><time>2026-05-01T11:21:23.623Z</time></trkpt><trkpt lat="44.6939852" lon="7.3346509"><ele>1056.0</ele><time>2026-05-01T11:21:24.623Z</time></trkpt><trkpt lat="44.6939199" lon="7.3346037"><ele>1056.0</ele><time>2026-05-01T11:21:25.623Z</time></trkpt><trkpt lat="44.6938562" lon="7.3345766"><ele>1056.0</ele><time>2026-05-01T11:21:26.622Z</time></trkpt><trkpt lat="44.693792" lon="7.3345582"><ele>1051.0</ele><time>2026-05-01T11:21:27.623Z</time></trkpt><trkpt lat="44.6936867" lon="7.3345115"><ele>1046.0</ele><time>2026-05-01T11:21:29.623Z</time></trkpt><trkpt lat="44.6936375" lon="7.3344358"><ele>1041.0</ele><time>2026-05-01T11:21:31.623Z</time></trkpt><trkpt lat="44.6936714" lon="7.3343573"><ele>1036.0</ele><time>2026-05-01T11:21:33.623Z</time></trkpt><trkpt lat="44.6937489" lon="7.3343355"><ele>1031.0</ele><time>2026-05-01T11:21:35.623Z</time></trkpt><trkpt lat="44.6938723" lon="7.3343105"><ele>1031.0</ele><time>2026-05-01T11:21:37.623Z</time></trkpt><trkpt lat="44.6939448" lon="7.3342871"><ele>1031.0</ele><time>2026-05-01T11:21:38.623Z</time></trkpt><trkpt lat="44.694022" lon="7.3342615"><ele>1031.0</ele><time>2026-05-01T11:21:39.623Z</time></trkpt><trkpt lat="44.6941047" lon="7.3342207"><ele>1031.0</ele><time>2026-05-01T11:21:40.623Z</time></trkpt><trkpt lat="44.6941912" lon="7.3341822"><ele>1031.0</ele><time>2026-05-01T11:21:41.623Z</time></trkpt><trkpt lat="44.6942868" lon="7.3341585"><ele>1031.0</ele><time>2026-05-01T11:21:42.623Z</time></trkpt><trkpt lat="44.6943888" lon="7.334143"><ele>1027.6</ele><time>2026-05-01T11:21:43.623Z</time></trkpt><trkpt lat="44.6944908" lon="7.3341333"><ele>1024.1999999999998</ele><time>2026-05-01T11:21:44.623Z</time></trkpt><trkpt lat="44.6945937" lon="7.3341477"><ele>1020.8000000000001</ele><time>2026-05-01T11:21:45.623Z</time></trkpt><trkpt lat="44.6946953" lon="7.3341673"><ele>1017.4000000000001</ele><time>2026-05-01T11:21:46.623Z</time></trkpt><trkpt lat="44.6947929" lon="7.3341999"><ele>1014.0</ele><time>2026-05-01T11:21:47.623Z</time></trkpt><trkpt lat="44.6948845" lon="7.3342404"><ele>1014.0</ele><time>2026-05-01T11:21:48.623Z</time></trkpt><trkpt lat="44.6949736" lon="7.3342696"><ele>1014.0</ele><time>2026-05-01T11:21:49.623Z</time></trkpt><trkpt lat="44.6950537" lon="7.3342905"><ele>1014.0</ele><time>2026-05-01T11:21:50.623Z</time></trkpt><trkpt lat="44.6951359" lon="7.3343037"><ele>1014.0</ele><time>2026-05-01T11:21:51.623Z</time></trkpt><trkpt lat="44.6952129" lon="7.3343304"><ele>1014.0</ele><time>2026-05-01T11:21:52.623Z</time></trkpt><trkpt lat="44.6952956" lon="7.3343694"><ele>1014.0</ele><time>2026-05-01T11:21:53.623Z</time></trkpt><trkpt lat="44.6953847" lon="7.3344044"><ele>1011.1666666666666</ele><time>2026-05-01T11:21:54.623Z</time></trkpt><trkpt lat="44.6954457" lon="7.3344649"><ele>1008.3333333333333</ele><time>2026-05-01T11:21:55.623Z</time></trkpt><trkpt lat="44.6955079" lon="7.3345124"><ele>1005.5</ele><time>2026-05-01T11:21:56.623Z</time></trkpt><trkpt lat="44.6955705" lon="7.3345703"><ele>1002.6666666666666</ele><time>2026-05-01T11:21:57.623Z</time></trkpt><trkpt lat="44.6956324" lon="7.3346274"><ele>999.8333333333333</ele><time>2026-05-01T11:21:58.623Z</time></trkpt><trkpt lat="44.6956882" lon="7.3346987"><ele>997.0</ele><time>2026-05-01T11:21:59.623Z</time></trkpt><trkpt lat="44.6957477" lon="7.3347881"><ele>996.9999999999999</ele><time>2026-05-01T11:22:00.623Z</time></trkpt><trkpt lat="44.6958036" lon="7.3348797"><ele>997.0</ele><time>2026-05-01T11:22:01.623Z</time></trkpt><trkpt lat="44.6958572" lon="7.3349836"><ele>997.0</ele><time>2026-05-01T11:22:02.623Z</time></trkpt><trkpt lat="44.6958968" lon="7.3350749"><ele>997.0</ele><time>2026-05-01T11:22:03.623Z</time></trkpt><trkpt lat="44.6959491" lon="7.3351548"><ele>996.9999999999999</ele><time>2026-05-01T11:22:04.623Z</time></trkpt><trkpt lat="44.6959843" lon="7.335236"><ele>997.0</ele><time>2026-05-01T11:22:05.623Z</time></trkpt><trkpt lat="44.6959816" lon="7.3353662"><ele>997.0</ele><time>2026-05-01T11:22:07.623Z</time></trkpt><trkpt lat="44.6958998" lon="7.3354662"><ele>997.0</ele><time>2026-05-01T11:22:09.623Z</time></trkpt><trkpt lat="44.6958368" lon="7.3355928"><ele>997.0</ele><time>2026-05-01T11:22:11.622Z</time></trkpt><trkpt lat="44.6957904" lon="7.335742"><ele>997.0</ele><time>2026-05-01T11:22:13.623Z</time></trkpt><trkpt lat="44.6957963" lon="7.3358343"><ele>997.0</ele><time>2026-05-01T11:22:14.623Z</time></trkpt><trkpt lat="44.695792" lon="7.3359448"><ele>996.4000000000001</ele><time>2026-05-01T11:22:15.623Z</time></trkpt><trkpt lat="44.6957999" lon="7.3360616"><ele>995.8000000000001</ele><time>2026-05-01T11:22:16.623Z</time></trkpt><trkpt lat="44.6958139" lon="7.3361707"><ele>995.2</ele><time>2026-05-01T11:22:17.623Z</time></trkpt><trkpt lat="44.6958577" lon="7.3363047"><ele>994.6</ele><time>2026-05-01T11:22:18.623Z</time></trkpt><trkpt lat="44.6958809" lon="7.3364186"><ele>994.0</ele><time>2026-05-01T11:22:19.623Z</time></trkpt><trkpt lat="44.6959332" lon="7.3365389"><ele>993.4000000000001</ele><time>2026-05-01T11:22:20.623Z</time></trkpt><trkpt lat="44.6959894" lon="7.336669"><ele>992.8000000000001</ele><time>2026-05-01T11:22:21.623Z</time></trkpt><trkpt lat="44.6960343" lon="7.3367913"><ele>992.1999999999999</ele><time>2026-05-01T11:22:22.623Z</time></trkpt><trkpt lat="44.6960795" lon="7.3368938"><ele>991.5999999999999</ele><time>2026-05-01T11:22:23.623Z</time></trkpt><trkpt lat="44.6961433" lon="7.3370111"><ele>991.0</ele><time>2026-05-01T11:22:24.622Z</time></trkpt><trkpt lat="44.6962105" lon="7.3371223"><ele>986.6666666666666</ele><time>2026-05-01T11:22:25.623Z</time></trkpt><trkpt lat="44.696268" lon="7.3372159"><ele>982.3333333333333</ele><time>2026-05-01T11:22:26.623Z</time></trkpt><trkpt lat="44.6963342" lon="7.3373124"><ele>978.0</ele><time>2026-05-01T11:22:27.623Z</time></trkpt><trkpt lat="44.6963761" lon="7.3374044"><ele>973.6666666666667</ele><time>2026-05-01T11:22:28.623Z</time></trkpt><trkpt lat="44.6964394" lon="7.3374856"><ele>969.3333333333334</ele><time>2026-05-01T11:22:29.623Z</time></trkpt><trkpt lat="44.696502" lon="7.3375816"><ele>965.0</ele><time>2026-05-01T11:22:30.622Z</time></trkpt><trkpt lat="44.6965571" lon="7.3376681"><ele>965.0</ele><time>2026-05-01T11:22:31.623Z</time></trkpt><trkpt lat="44.6966173" lon="7.3377531"><ele>965.0</ele><time>2026-05-01T11:22:32.623Z</time></trkpt><trkpt lat="44.6967213" lon="7.3378922"><ele>965.0</ele><time>2026-05-01T11:22:34.623Z</time></trkpt><trkpt lat="44.6967726" lon="7.33797"><ele>965.0</ele><time>2026-05-01T11:22:35.623Z</time></trkpt><trkpt lat="44.696873" lon="7.3380567"><ele>965.0</ele><time>2026-05-01T11:22:37.623Z</time></trkpt><trkpt lat="44.6969446" lon="7.3381665"><ele>960.6666666666667</ele><time>2026-05-01T11:22:39.623Z</time></trkpt><trkpt lat="44.6969876" lon="7.3382802"><ele>956.3333333333334</ele><time>2026-05-01T11:22:41.623Z</time></trkpt><trkpt lat="44.6969851" lon="7.3384413"><ele>952.0</ele><time>2026-05-01T11:22:43.622Z</time></trkpt><trkpt lat="44.6969632" lon="7.3385288"><ele>947.6666666666667</ele><time>2026-05-01T11:22:44.623Z</time></trkpt><trkpt lat="44.6969496" lon="7.3386261"><ele>943.3333333333334</ele><time>2026-05-01T11:22:45.623Z</time></trkpt><trkpt lat="44.6969561" lon="7.3387432"><ele>939.0</ele><time>2026-05-01T11:22:46.623Z</time></trkpt><trkpt lat="44.6969687" lon="7.3388386"><ele>937.1666666666666</ele><time>2026-05-01T11:22:47.623Z</time></trkpt><trkpt lat="44.6969879" lon="7.3389613"><ele>935.3333333333333</ele><time>2026-05-01T11:22:48.623Z</time></trkpt><trkpt lat="44.6969991" lon="7.3390583"><ele>933.5</ele><time>2026-05-01T11:22:49.623Z</time></trkpt><trkpt lat="44.6970155" lon="7.3391562"><ele>931.6666666666666</ele><time>2026-05-01T11:22:50.623Z</time></trkpt><trkpt lat="44.6970179" lon="7.3393264"><ele>929.8333333333333</ele><time>2026-05-01T11:22:52.623Z</time></trkpt><trkpt lat="44.6970122" lon="7.339418"><ele>928.0</ele><time>2026-05-01T11:22:53.623Z</time></trkpt><trkpt lat="44.6969948" lon="7.3395402"><ele>928.0</ele><time>2026-05-01T11:22:55.623Z</time></trkpt><trkpt lat="44.6969194" lon="7.3396519"><ele>928.0</ele><time>2026-05-01T11:22:57.623Z</time></trkpt><trkpt lat="44.6968389" lon="7.339743"><ele>928.0</ele><time>2026-05-01T11:22:59.623Z</time></trkpt><trkpt lat="44.6967559" lon="7.3398071"><ele>928.0</ele><time>2026-05-01T11:23:01.623Z</time></trkpt><trkpt lat="44.6966886" lon="7.339891"><ele>928.0</ele><time>2026-05-01T11:23:03.623Z</time></trkpt><trkpt lat="44.6966864" lon="7.3400254"><ele>926.4</ele><time>2026-05-01T11:23:05.623Z</time></trkpt><trkpt lat="44.6967502" lon="7.3401386"><ele>924.8</ele><time>2026-05-01T11:23:07.623Z</time></trkpt><trkpt lat="44.69687" lon="7.3402031"><ele>923.2</ele><time>2026-05-01T11:23:09.622Z</time></trkpt><trkpt lat="44.6969297" lon="7.3402529"><ele>921.6</ele><time>2026-05-01T11:23:10.623Z</time></trkpt><trkpt lat="44.6969959" lon="7.3402957"><ele>920.0</ele><time>2026-05-01T11:23:11.623Z</time></trkpt><trkpt lat="44.6970657" lon="7.3403463"><ele>920.0</ele><time>2026-05-01T11:23:12.623Z</time></trkpt><trkpt lat="44.6971442" lon="7.3403954"><ele>920.0</ele><time>2026-05-01T11:23:13.623Z</time></trkpt><trkpt lat="44.697229" lon="7.3404603"><ele>920.0</ele><time>2026-05-01T11:23:14.623Z</time></trkpt><trkpt lat="44.6973192" lon="7.3405352"><ele>920.0</ele><time>2026-05-01T11:23:15.623Z</time></trkpt><trkpt lat="44.6974131" lon="7.3406224"><ele>920.0</ele><time>2026-05-01T11:23:16.623Z</time></trkpt><trkpt lat="44.697526" lon="7.3407204"><ele>922.5</ele><time>2026-05-01T11:23:17.623Z</time></trkpt><trkpt lat="44.6976454" lon="7.3408126"><ele>925.0</ele><time>2026-05-01T11:23:18.623Z</time></trkpt><trkpt lat="44.6977535" lon="7.3408995"><ele>927.5</ele><time>2026-05-01T11:23:19.623Z</time></trkpt><trkpt lat="44.6978626" lon="7.3409825"><ele>930.0</ele><time>2026-05-01T11:23:20.622Z</time></trkpt><trkpt lat="44.69796" lon="7.3410544"><ele>925.8</ele><time>2026-05-01T11:23:21.623Z</time></trkpt><trkpt lat="44.6980418" lon="7.3411214"><ele>921.6</ele><time>2026-05-01T11:23:22.623Z</time></trkpt><trkpt lat="44.6981194" lon="7.3411736"><ele>917.4000000000001</ele><time>2026-05-01T11:23:23.623Z</time></trkpt><trkpt lat="44.6981964" lon="7.3412177"><ele>913.2</ele><time>2026-05-01T11:23:24.623Z</time></trkpt><trkpt lat="44.6982742" lon="7.3412641"><ele>909.0</ele><time>2026-05-01T11:23:25.623Z</time></trkpt><trkpt lat="44.6983758" lon="7.341297"><ele>909.0</ele><time>2026-05-01T11:23:26.623Z</time></trkpt><trkpt lat="44.6984961" lon="7.3413229"><ele>909.0000000000001</ele><time>2026-05-01T11:23:27.622Z</time></trkpt><trkpt lat="44.6985953" lon="7.3413475"><ele>909.0000000000001</ele><time>2026-05-01T11:23:28.623Z</time></trkpt><trkpt lat="44.6986839" lon="7.3413666"><ele>909.0</ele><time>2026-05-01T11:23:29.623Z</time></trkpt><trkpt lat="44.6987706" lon="7.3413835"><ele>909.0</ele><time>2026-05-01T11:23:30.623Z</time></trkpt><trkpt lat="44.6988628" lon="7.3414062"><ele>911.0</ele><time>2026-05-01T11:23:31.622Z</time></trkpt><trkpt lat="44.6989553" lon="7.3414321"><ele>913.0</ele><time>2026-05-01T11:23:32.623Z</time></trkpt><trkpt lat="44.699032" lon="7.3414532"><ele>915.0</ele><time>2026-05-01T11:23:33.623Z</time></trkpt><trkpt lat="44.6990978" lon="7.341474"><ele>917.0</ele><time>2026-05-01T11:23:34.623Z</time></trkpt><trkpt lat="44.6991631" lon="7.3414952"><ele>919.0</ele><time>2026-05-01T11:23:35.623Z</time></trkpt><trkpt lat="44.6992226" lon="7.341528"><ele>921.0</ele><time>2026-05-01T11:23:36.623Z</time></trkpt><trkpt lat="44.699311" lon="7.3415802"><ele>921.0</ele><time>2026-05-01T11:23:38.623Z</time></trkpt><trkpt lat="44.6993672" lon="7.3415299"><ele>920.9999999999999</ele><time>2026-05-01T11:24:57.623Z</time></trkpt><trkpt lat="44.6993857" lon="7.3413645"><ele>920.9999999999999</ele><time>2026-05-01T11:24:59.623Z</time></trkpt><trkpt lat="44.6994097" lon="7.3412396"><ele>921.0</ele><time>2026-05-01T11:25:00.623Z</time></trkpt><trkpt lat="44.6994377" lon="7.3410919"><ele>921.0</ele><time>2026-05-01T11:25:01.623Z</time></trkpt><trkpt lat="44.6994776" lon="7.340933"><ele>920.75</ele><time>2026-05-01T11:25:02.623Z</time></trkpt><trkpt lat="44.6995183" lon="7.3407689"><ele>920.5</ele><time>2026-05-01T11:25:03.623Z</time></trkpt><trkpt lat="44.6995557" lon="7.3405818"><ele>920.25</ele><time>2026-05-01T11:25:04.623Z</time></trkpt><trkpt lat="44.6995812" lon="7.3403751"><ele>920.0</ele><time>2026-05-01T11:25:05.623Z</time></trkpt><trkpt lat="44.6995941" lon="7.3401851"><ele>920.0</ele><time>2026-05-01T11:25:06.623Z</time></trkpt><trkpt lat="44.6996027" lon="7.3400183"><ele>920.0</ele><time>2026-05-01T11:25:07.623Z</time></trkpt><trkpt lat="44.699612" lon="7.33987"><ele>920.0</ele><time>2026-05-01T11:25:08.623Z</time></trkpt><trkpt lat="44.699628" lon="7.3397416"><ele>920.0</ele><time>2026-05-01T11:25:09.623Z</time></trkpt><trkpt lat="44.699678" lon="7.3396202"><ele>920.0</ele><time>2026-05-01T11:25:10.623Z</time></trkpt><trkpt lat="44.6997501" lon="7.3395234"><ele>917.0</ele><time>2026-05-01T11:25:11.623Z</time></trkpt><trkpt lat="44.6998515" lon="7.3394568"><ele>914.0</ele><time>2026-05-01T11:25:12.623Z</time></trkpt><trkpt lat="44.6999761" lon="7.3393946"><ele>911.0</ele><time>2026-05-01T11:25:13.623Z</time></trkpt><trkpt lat="44.7001011" lon="7.3393011"><ele>908.0</ele><time>2026-05-01T11:25:14.623Z</time></trkpt><trkpt lat="44.7002201" lon="7.3391778"><ele>909.5</ele><time>2026-05-01T11:25:15.622Z</time></trkpt><trkpt lat="44.7003399" lon="7.3390393"><ele>911.0</ele><time>2026-05-01T11:25:16.623Z</time></trkpt><trkpt lat="44.7004463" lon="7.3389228"><ele>912.5</ele><time>2026-05-01T11:25:17.623Z</time></trkpt><trkpt lat="44.7005408" lon="7.3388233"><ele>914.0</ele><time>2026-05-01T11:25:18.623Z</time></trkpt><trkpt lat="44.7006124" lon="7.3387102"><ele>914.0</ele><time>2026-05-01T11:25:19.623Z</time></trkpt><trkpt lat="44.7006525" lon="7.3385874"><ele>914.0000000000001</ele><time>2026-05-01T11:25:20.623Z</time></trkpt><trkpt lat="44.7006593" lon="7.3384505"><ele>914.0000000000001</ele><time>2026-05-01T11:25:21.623Z</time></trkpt><trkpt lat="44.7006312" lon="7.3383142"><ele>914.0</ele><time>2026-05-01T11:25:22.623Z</time></trkpt><trkpt lat="44.7005683" lon="7.3381726"><ele>914.0</ele><time>2026-05-01T11:25:23.623Z</time></trkpt><trkpt lat="44.7004732" lon="7.3380374"><ele>913.4000000000001</ele><time>2026-05-01T11:25:24.623Z</time></trkpt><trkpt lat="44.7004016" lon="7.3379254"><ele>912.8000000000001</ele><time>2026-05-01T11:25:25.623Z</time></trkpt><trkpt lat="44.7003604" lon="7.3378108"><ele>912.1999999999999</ele><time>2026-05-01T11:25:26.623Z</time></trkpt><trkpt lat="44.7003484" lon="7.3376861"><ele>911.5999999999999</ele><time>2026-05-01T11:25:27.623Z</time></trkpt><trkpt lat="44.7003646" lon="7.33754"><ele>911.0</ele><time>2026-05-01T11:25:28.623Z</time></trkpt><trkpt lat="44.700394" lon="7.3373572"><ele>907.25</ele><time>2026-05-01T11:25:29.622Z</time></trkpt><trkpt lat="44.7004291" lon="7.3371746"><ele>903.5</ele><time>2026-05-01T11:25:30.623Z</time></trkpt><trkpt lat="44.7004813" lon="7.337004"><ele>899.75</ele><time>2026-05-01T11:25:31.623Z</time></trkpt><trkpt lat="44.7005476" lon="7.3368373"><ele>896.0</ele><time>2026-05-01T11:25:32.622Z</time></trkpt><trkpt lat="44.7006328" lon="7.3366656"><ele>896.0</ele><time>2026-05-01T11:25:33.623Z</time></trkpt><trkpt lat="44.7007272" lon="7.336482"><ele>896.0</ele><time>2026-05-01T11:25:34.623Z</time></trkpt><trkpt lat="44.7008193" lon="7.3363184"><ele>896.0</ele><time>2026-05-01T11:25:35.623Z</time></trkpt><trkpt lat="44.7009072" lon="7.3361581"><ele>896.75</ele><time>2026-05-01T11:25:36.623Z</time></trkpt><trkpt lat="44.7009911" lon="7.3360088"><ele>897.5</ele><time>2026-05-01T11:25:37.623Z</time></trkpt><trkpt lat="44.7010769" lon="7.3358867"><ele>898.25</ele><time>2026-05-01T11:25:38.623Z</time></trkpt><trkpt lat="44.7011771" lon="7.3357913"><ele>899.0</ele><time>2026-05-01T11:25:39.623Z</time></trkpt><trkpt lat="44.7013028" lon="7.3357132"><ele>899.0</ele><time>2026-05-01T11:25:40.623Z</time></trkpt><trkpt lat="44.7014304" lon="7.3356383"><ele>899.0</ele><time>2026-05-01T11:25:41.623Z</time></trkpt><trkpt lat="44.7015432" lon="7.3355434"><ele>899.0</ele><time>2026-05-01T11:25:42.623Z</time></trkpt><trkpt lat="44.7016492" lon="7.3354168"><ele>899.0</ele><time>2026-05-01T11:25:43.623Z</time></trkpt><trkpt lat="44.7017565" lon="7.3352537"><ele>898.25</ele><time>2026-05-01T11:25:44.623Z</time></trkpt><trkpt lat="44.7018635" lon="7.3350995"><ele>897.5</ele><time>2026-05-01T11:25:45.623Z</time></trkpt><trkpt lat="44.7019618" lon="7.3349717"><ele>896.75</ele><time>2026-05-01T11:25:46.623Z</time></trkpt><trkpt lat="44.7020438" lon="7.3348488"><ele>896.0</ele><time>2026-05-01T11:25:47.623Z</time></trkpt><trkpt lat="44.7021008" lon="7.3347075"><ele>891.1999999999999</ele><time>2026-05-01T11:25:48.623Z</time></trkpt><trkpt lat="44.7021286" lon="7.3345567"><ele>886.3999999999999</ele><time>2026-05-01T11:25:49.623Z</time></trkpt><trkpt lat="44.7021534" lon="7.334414"><ele>881.6</ele><time>2026-05-01T11:25:50.623Z</time></trkpt><trkpt lat="44.7021995" lon="7.3342753"><ele>876.8</ele><time>2026-05-01T11:25:51.623Z</time></trkpt><trkpt lat="44.7022706" lon="7.3341386"><ele>872.0</ele><time>2026-05-01T11:25:52.623Z</time></trkpt><trkpt lat="44.7023404" lon="7.3339912"><ele>867.5</ele><time>2026-05-01T11:25:53.623Z</time></trkpt><trkpt lat="44.7024157" lon="7.3338722"><ele>863.0</ele><time>2026-05-01T11:25:54.623Z</time></trkpt><trkpt lat="44.7025138" lon="7.333764"><ele>858.5</ele><time>2026-05-01T11:25:55.623Z</time></trkpt><trkpt lat="44.7026147" lon="7.3336583"><ele>854.0</ele><time>2026-05-01T11:25:56.623Z</time></trkpt><trkpt lat="44.702696" lon="7.3335216"><ele>852.25</ele><time>2026-05-01T11:25:57.623Z</time></trkpt><trkpt lat="44.7027588" lon="7.3333545"><ele>850.5</ele><time>2026-05-01T11:25:58.623Z</time></trkpt><trkpt lat="44.7028107" lon="7.3331773"><ele>848.75</ele><time>2026-05-01T11:25:59.623Z</time></trkpt><trkpt lat="44.7028633" lon="7.332998"><ele>847.0</ele><time>2026-05-01T11:26:00.623Z</time></trkpt><trkpt lat="44.7029311" lon="7.332829"><ele>847.0</ele><time>2026-05-01T11:26:01.623Z</time></trkpt><trkpt lat="44.7030049" lon="7.3326815"><ele>847.0</ele><time>2026-05-01T11:26:02.623Z</time></trkpt><trkpt lat="44.7030719" lon="7.3325368"><ele>847.0</ele><time>2026-05-01T11:26:03.623Z</time></trkpt><trkpt lat="44.7031343" lon="7.3324088"><ele>847.0</ele><time>2026-05-01T11:26:04.622Z</time></trkpt><trkpt lat="44.7031843" lon="7.3322944"><ele>842.9999999999999</ele><time>2026-05-01T11:26:05.623Z</time></trkpt><trkpt lat="44.7032162" lon="7.3322078"><ele>839.0</ele><time>2026-05-01T11:26:06.623Z</time></trkpt><trkpt lat="44.703198" lon="7.3320569"><ele>835.0</ele><time>2026-05-01T11:26:08.623Z</time></trkpt><trkpt lat="44.7031373" lon="7.3320271"><ele>831.0</ele><time>2026-05-01T11:26:09.623Z</time></trkpt><trkpt lat="44.7030499" lon="7.3320456"><ele>826.9999999999999</ele><time>2026-05-01T11:26:10.623Z</time></trkpt><trkpt lat="44.7029376" lon="7.3320793"><ele>823.0</ele><time>2026-05-01T11:26:11.623Z</time></trkpt><trkpt lat="44.7028311" lon="7.3321031"><ele>818.8</ele><time>2026-05-01T11:26:12.623Z</time></trkpt><trkpt lat="44.702734" lon="7.332124"><ele>814.5999999999999</ele><time>2026-05-01T11:26:13.623Z</time></trkpt><trkpt lat="44.7026456" lon="7.3321471"><ele>810.4000000000001</ele><time>2026-05-01T11:26:14.623Z</time></trkpt><trkpt lat="44.7025768" lon="7.3321542"><ele>806.2</ele><time>2026-05-01T11:26:15.623Z</time></trkpt><trkpt lat="44.7024895" lon="7.3320773"><ele>802.0</ele><time>2026-05-01T11:26:17.623Z</time></trkpt><trkpt lat="44.7025159" lon="7.3319321"><ele>801.9999999999999</ele><time>2026-05-01T11:26:19.623Z</time></trkpt><trkpt lat="44.7025816" lon="7.3318704"><ele>802.0</ele><time>2026-05-01T11:26:20.623Z</time></trkpt><trkpt lat="44.7026677" lon="7.331815"><ele>802.0</ele><time>2026-05-01T11:26:21.623Z</time></trkpt><trkpt lat="44.702754" lon="7.3317651"><ele>802.0</ele><time>2026-05-01T11:26:22.623Z</time></trkpt><trkpt lat="44.7028321" lon="7.3317208"><ele>801.9999999999999</ele><time>2026-05-01T11:26:23.623Z</time></trkpt><trkpt lat="44.7028987" lon="7.3316762"><ele>802.0</ele><time>2026-05-01T11:26:24.622Z</time></trkpt><trkpt lat="44.702944" lon="7.331543"><ele>802.0</ele><time>2026-05-01T11:26:26.623Z</time></trkpt><trkpt lat="44.7028515" lon="7.3314809"><ele>802.0</ele><time>2026-05-01T11:26:28.622Z</time></trkpt><trkpt lat="44.7027705" lon="7.3314979"><ele>802.0</ele><time>2026-05-01T11:26:29.623Z</time></trkpt><trkpt lat="44.7026734" lon="7.3314998"><ele>802.0</ele><time>2026-05-01T11:26:30.623Z</time></trkpt><trkpt lat="44.7025788" lon="7.3314998"><ele>802.0</ele><time>2026-05-01T11:26:31.623Z</time></trkpt><trkpt lat="44.7024856" lon="7.3315293"><ele>802.0</ele><time>2026-05-01T11:26:32.623Z</time></trkpt><trkpt lat="44.7023944" lon="7.3316133"><ele>802.0</ele><time>2026-05-01T11:26:33.623Z</time></trkpt><trkpt lat="44.7023051" lon="7.3317495"><ele>802.0</ele><time>2026-05-01T11:26:34.623Z</time></trkpt><trkpt lat="44.7022173" lon="7.3319183"><ele>802.0</ele><time>2026-05-01T11:26:35.623Z</time></trkpt><trkpt lat="44.702134" lon="7.3320709"><ele>802.0</ele><time>2026-05-01T11:26:36.623Z</time></trkpt><trkpt lat="44.7020403" lon="7.3322016"><ele>802.0</ele><time>2026-05-01T11:26:37.623Z</time></trkpt><trkpt lat="44.7019236" lon="7.3323105"><ele>802.0</ele><time>2026-05-01T11:26:38.623Z</time></trkpt><trkpt lat="44.7017947" lon="7.332417"><ele>802.0</ele><time>2026-05-01T11:26:39.623Z</time></trkpt><trkpt lat="44.7016652" lon="7.3325509"><ele>801.0</ele><time>2026-05-01T11:26:40.623Z</time></trkpt><trkpt lat="44.7015373" lon="7.3326903"><ele>800.0</ele><time>2026-05-01T11:26:41.623Z</time></trkpt><trkpt lat="44.7014165" lon="7.3328058"><ele>799.0</ele><time>2026-05-01T11:26:42.623Z</time></trkpt><trkpt lat="44.7013144" lon="7.3328921"><ele>798.0</ele><time>2026-05-01T11:26:43.623Z</time></trkpt><trkpt lat="44.7012276" lon="7.3329492"><ele>798.0</ele><time>2026-05-01T11:26:44.623Z</time></trkpt><trkpt lat="44.7011605" lon="7.3329837"><ele>798.0</ele><time>2026-05-01T11:26:45.623Z</time></trkpt><trkpt lat="44.7010538" lon="7.3329533"><ele>798.0</ele><time>2026-05-01T11:26:47.622Z</time></trkpt><trkpt lat="44.701045" lon="7.3328141"><ele>798.0</ele><time>2026-05-01T11:26:49.623Z</time></trkpt><trkpt lat="44.7010919" lon="7.3327462"><ele>798.0</ele><time>2026-05-01T11:26:50.623Z</time></trkpt><trkpt lat="44.7011747" lon="7.3326799"><ele>798.0</ele><time>2026-05-01T11:26:51.623Z</time></trkpt><trkpt lat="44.7012706" lon="7.3325789"><ele>798.0</ele><time>2026-05-01T11:26:52.623Z</time></trkpt><trkpt lat="44.7013487" lon="7.3324743"><ele>798.0</ele><time>2026-05-01T11:26:53.623Z</time></trkpt><trkpt lat="44.7014166" lon="7.3323809"><ele>798.0</ele><time>2026-05-01T11:26:54.623Z</time></trkpt><trkpt lat="44.7014686" lon="7.3322982"><ele>798.0</ele><time>2026-05-01T11:26:55.623Z</time></trkpt><trkpt lat="44.7014928" lon="7.3322104"><ele>798.0</ele><time>2026-05-01T11:26:56.623Z</time></trkpt><trkpt lat="44.7014207" lon="7.3320871"><ele>798.0</ele><time>2026-05-01T11:26:58.623Z</time></trkpt><trkpt lat="44.7013518" lon="7.3320937"><ele>798.0</ele><time>2026-05-01T11:26:59.623Z</time></trkpt><trkpt lat="44.7012695" lon="7.3321555"><ele>798.0</ele><time>2026-05-01T11:27:00.623Z</time></trkpt><trkpt lat="44.7011685" lon="7.3322492"><ele>798.0</ele><time>2026-05-01T11:27:01.623Z</time></trkpt><trkpt lat="44.7010681" lon="7.3323265"><ele>798.0</ele><time>2026-05-01T11:27:02.623Z</time></trkpt><trkpt lat="44.7009673" lon="7.3323671"><ele>796.5</ele><time>2026-05-01T11:27:03.623Z</time></trkpt><trkpt lat="44.7008751" lon="7.3323782"><ele>795.0</ele><time>2026-05-01T11:27:04.623Z</time></trkpt><trkpt lat="44.7008042" lon="7.3323412"><ele>793.5</ele><time>2026-05-01T11:27:05.623Z</time></trkpt><trkpt lat="44.7007481" lon="7.3322669"><ele>792.0</ele><time>2026-05-01T11:27:06.623Z</time></trkpt><trkpt lat="44.7007196" lon="7.3321474"><ele>790.5</ele><time>2026-05-01T11:27:07.623Z</time></trkpt><trkpt lat="44.7007169" lon="7.331995"><ele>789.0</ele><time>2026-05-01T11:27:08.623Z</time></trkpt><trkpt lat="44.7007415" lon="7.3318243"><ele>787.0</ele><time>2026-05-01T11:27:09.623Z</time></trkpt><trkpt lat="44.7007932" lon="7.3316353"><ele>785.0</ele><time>2026-05-01T11:27:10.623Z</time></trkpt><trkpt lat="44.7008724" lon="7.3314207"><ele>783.0</ele><time>2026-05-01T11:27:11.623Z</time></trkpt><trkpt lat="44.7009486" lon="7.3312207"><ele>783.0</ele><time>2026-05-01T11:27:12.623Z</time></trkpt><trkpt lat="44.7010195" lon="7.3310249"><ele>783.0</ele><time>2026-05-01T11:27:13.623Z</time></trkpt><trkpt lat="44.7010873" lon="7.3308391"><ele>783.0</ele><time>2026-05-01T11:27:14.623Z</time></trkpt><trkpt lat="44.7011434" lon="7.3306593"><ele>783.0</ele><time>2026-05-01T11:27:15.623Z</time></trkpt><trkpt lat="44.7011777" lon="7.3304659"><ele>772.5</ele><time>2026-05-01T11:27:16.623Z</time></trkpt><trkpt lat="44.7012052" lon="7.3302663"><ele>762.0</ele><time>2026-05-01T11:27:17.623Z</time></trkpt><trkpt lat="44.701218" lon="7.3300674"><ele>751.5</ele><time>2026-05-01T11:27:18.623Z</time></trkpt><trkpt lat="44.7012163" lon="7.3298625"><ele>741.0</ele><time>2026-05-01T11:27:19.623Z</time></trkpt><trkpt lat="44.7012117" lon="7.3296627"><ele>739.25</ele><time>2026-05-01T11:27:20.622Z</time></trkpt><trkpt lat="44.7012273" lon="7.3294685"><ele>737.5</ele><time>2026-05-01T11:27:21.623Z</time></trkpt><trkpt lat="44.7012581" lon="7.3292873"><ele>735.75</ele><time>2026-05-01T11:27:22.623Z</time></trkpt><trkpt lat="44.7012864" lon="7.3291214"><ele>734.0</ele><time>2026-05-01T11:27:23.623Z</time></trkpt><trkpt lat="44.7013132" lon="7.3289699"><ele>732.75</ele><time>2026-05-01T11:27:24.623Z</time></trkpt><trkpt lat="44.7013091" lon="7.3288226"><ele>731.5</ele><time>2026-05-01T11:27:25.623Z</time></trkpt><trkpt lat="44.7012768" lon="7.3286747"><ele>730.25</ele><time>2026-05-01T11:27:26.623Z</time></trkpt><trkpt lat="44.7012146" lon="7.3285189"><ele>729.0</ele><time>2026-05-01T11:27:27.623Z</time></trkpt><trkpt lat="44.7011414" lon="7.3283747"><ele>730.2</ele><time>2026-05-01T11:27:28.623Z</time></trkpt><trkpt lat="44.7010667" lon="7.3282476"><ele>731.4000000000001</ele><time>2026-05-01T11:27:29.623Z</time></trkpt><trkpt lat="44.7010103" lon="7.3281371"><ele>732.6</ele><time>2026-05-01T11:27:30.623Z</time></trkpt><trkpt lat="44.7009716" lon="7.3280412"><ele>733.8</ele><time>2026-05-01T11:27:31.623Z</time></trkpt><trkpt lat="44.7009899" lon="7.3278816"><ele>735.0</ele><time>2026-05-01T11:27:33.623Z</time></trkpt><trkpt lat="44.7011084" lon="7.3278706"><ele>733.5</ele><time>2026-05-01T11:27:35.623Z</time></trkpt><trkpt lat="44.7011895" lon="7.3279398"><ele>732.0</ele><time>2026-05-01T11:27:36.623Z</time></trkpt><trkpt lat="44.7012845" lon="7.3280328"><ele>730.5</ele><time>2026-05-01T11:27:37.623Z</time></trkpt><trkpt lat="44.7014126" lon="7.3281295"><ele>729.0</ele><time>2026-05-01T11:27:38.623Z</time></trkpt><trkpt lat="44.7015456" lon="7.3282224"><ele>729.0</ele><time>2026-05-01T11:27:39.623Z</time></trkpt><trkpt lat="44.7016719" lon="7.3283108"><ele>729.0</ele><time>2026-05-01T11:27:40.623Z</time></trkpt><trkpt lat="44.7017801" lon="7.3283852"><ele>729.0</ele><time>2026-05-01T11:27:41.623Z</time></trkpt><trkpt lat="44.7018662" lon="7.3284554"><ele>729.0</ele><time>2026-05-01T11:27:42.623Z</time></trkpt><trkpt lat="44.7019259" lon="7.3285419"><ele>729.0</ele><time>2026-05-01T11:27:43.623Z</time></trkpt><trkpt lat="44.7019522" lon="7.3286504"><ele>730.25</ele><time>2026-05-01T11:27:44.622Z</time></trkpt><trkpt lat="44.7019447" lon="7.32879"><ele>731.5</ele><time>2026-05-01T11:27:45.623Z</time></trkpt><trkpt lat="44.7019067" lon="7.3289613"><ele>732.75</ele><time>2026-05-01T11:27:46.623Z</time></trkpt><trkpt lat="44.7018654" lon="7.3291275"><ele>734.0</ele><time>2026-05-01T11:27:47.623Z</time></trkpt><trkpt lat="44.7018366" lon="7.3292693"><ele>734.0</ele><time>2026-05-01T11:27:48.623Z</time></trkpt><trkpt lat="44.7018246" lon="7.3293902"><ele>734.0</ele><time>2026-05-01T11:27:49.623Z</time></trkpt><trkpt lat="44.7018423" lon="7.3294934"><ele>734.0</ele><time>2026-05-01T11:27:50.623Z</time></trkpt><trkpt lat="44.7018889" lon="7.329566"><ele>734.0</ele><time>2026-05-01T11:27:51.623Z</time></trkpt><trkpt lat="44.7019535" lon="7.3295866"><ele>734.0</ele><time>2026-05-01T11:27:52.623Z</time></trkpt><trkpt lat="44.7020283" lon="7.3295419"><ele>734.0</ele><time>2026-05-01T11:27:53.623Z</time></trkpt><trkpt lat="44.7021078" lon="7.3294356"><ele>729.6666666666666</ele><time>2026-05-01T11:27:54.623Z</time></trkpt><trkpt lat="44.7022015" lon="7.3292883"><ele>725.3333333333334</ele><time>2026-05-01T11:27:55.623Z</time></trkpt><trkpt lat="44.702303" lon="7.3291319"><ele>721.0</ele><time>2026-05-01T11:27:56.623Z</time></trkpt><trkpt lat="44.7024164" lon="7.3289523"><ele>722.0</ele><time>2026-05-01T11:27:57.623Z</time></trkpt><trkpt lat="44.7025287" lon="7.3287911"><ele>723.0</ele><time>2026-05-01T11:27:58.623Z</time></trkpt><trkpt lat="44.7026354" lon="7.32864"><ele>724.0</ele><time>2026-05-01T11:27:59.623Z</time></trkpt><trkpt lat="44.7027425" lon="7.3285192"><ele>725.0</ele><time>2026-05-01T11:28:00.623Z</time></trkpt><trkpt lat="44.7028312" lon="7.3284108"><ele>725.0</ele><time>2026-05-01T11:28:01.622Z</time></trkpt><trkpt lat="44.7028948" lon="7.3282944"><ele>725.0</ele><time>2026-05-01T11:28:02.623Z</time></trkpt><trkpt lat="44.7029281" lon="7.3281621"><ele>725.0</ele><time>2026-05-01T11:28:03.622Z</time></trkpt><trkpt lat="44.702916" lon="7.3280192"><ele>725.0</ele><time>2026-05-01T11:28:04.623Z</time></trkpt><trkpt lat="44.7028707" lon="7.3278552"><ele>725.0</ele><time>2026-05-01T11:28:05.623Z</time></trkpt><trkpt lat="44.7028196" lon="7.3276484"><ele>727.25</ele><time>2026-05-01T11:28:06.623Z</time></trkpt><trkpt lat="44.7027754" lon="7.3274397"><ele>729.5</ele><time>2026-05-01T11:28:07.622Z</time></trkpt><trkpt lat="44.702752" lon="7.3272412"><ele>731.75</ele><time>2026-05-01T11:28:08.622Z</time></trkpt><trkpt lat="44.7027385" lon="7.3270695"><ele>734.0</ele><time>2026-05-01T11:28:09.623Z</time></trkpt><trkpt lat="44.7027277" lon="7.3269229"><ele>728.8000000000001</ele><time>2026-05-01T11:28:10.623Z</time></trkpt><trkpt lat="44.7027454" lon="7.3268019"><ele>723.6</ele><time>2026-05-01T11:28:11.623Z</time></trkpt><trkpt lat="44.7027852" lon="7.3266905"><ele>718.4</ele><time>2026-05-01T11:28:12.623Z</time></trkpt><trkpt lat="44.7028616" lon="7.3266048"><ele>713.2</ele><time>2026-05-01T11:28:13.623Z</time></trkpt><trkpt lat="44.7029589" lon="7.3265454"><ele>708.0</ele><time>2026-05-01T11:28:14.623Z</time></trkpt><trkpt lat="44.7030604" lon="7.3264553"><ele>700.75</ele><time>2026-05-01T11:28:15.623Z</time></trkpt><trkpt lat="44.7031501" lon="7.326326"><ele>693.5</ele><time>2026-05-01T11:28:16.623Z</time></trkpt><trkpt lat="44.7032323" lon="7.3261555"><ele>686.25</ele><time>2026-05-01T11:28:17.623Z</time></trkpt><trkpt lat="44.7033117" lon="7.3260022"><ele>679.0</ele><time>2026-05-01T11:28:18.623Z</time></trkpt><trkpt lat="44.703386" lon="7.3258617"><ele>679.0</ele><time>2026-05-01T11:28:19.623Z</time></trkpt><trkpt lat="44.7034514" lon="7.3257615"><ele>679.0</ele><time>2026-05-01T11:28:20.623Z</time></trkpt><trkpt lat="44.703536" lon="7.3257047"><ele>679.0</ele><time>2026-05-01T11:28:21.623Z</time></trkpt><trkpt lat="44.703646" lon="7.3256922"><ele>679.0</ele><time>2026-05-01T11:28:22.623Z</time></trkpt><trkpt lat="44.7037721" lon="7.3256945"><ele>679.0</ele><time>2026-05-01T11:28:23.623Z</time></trkpt><trkpt lat="44.7038861" lon="7.3256706"><ele>677.0</ele><time>2026-05-01T11:28:24.623Z</time></trkpt><trkpt lat="44.7039847" lon="7.3256164"><ele>675.0</ele><time>2026-05-01T11:28:25.623Z</time></trkpt><trkpt lat="44.704063" lon="7.325522"><ele>673.0</ele><time>2026-05-01T11:28:26.623Z</time></trkpt><trkpt lat="44.7041147" lon="7.3253839"><ele>671.0</ele><time>2026-05-01T11:28:27.623Z</time></trkpt><trkpt lat="44.7041521" lon="7.3252099"><ele>669.0</ele><time>2026-05-01T11:28:28.623Z</time></trkpt><trkpt lat="44.704191" lon="7.3250362"><ele>669.0</ele><time>2026-05-01T11:28:29.623Z</time></trkpt><trkpt lat="44.7042325" lon="7.3248734"><ele>669.0</ele><time>2026-05-01T11:28:30.623Z</time></trkpt><trkpt lat="44.704276" lon="7.3247272"><ele>669.0</ele><time>2026-05-01T11:28:31.623Z</time></trkpt><trkpt lat="44.7043117" lon="7.3246235"><ele>669.0</ele><time>2026-05-01T11:28:32.623Z</time></trkpt><trkpt lat="44.7043483" lon="7.3245481"><ele>669.0</ele><time>2026-05-01T11:28:33.623Z</time></trkpt><trkpt lat="44.7044409" lon="7.3245327"><ele>665.8000000000001</ele><time>2026-05-01T11:28:35.623Z</time></trkpt><trkpt lat="44.704479" lon="7.324703"><ele>662.6</ele><time>2026-05-01T11:28:37.623Z</time></trkpt><trkpt lat="44.7044653" lon="7.3248219"><ele>659.4</ele><time>2026-05-01T11:28:38.623Z</time></trkpt><trkpt lat="44.7044588" lon="7.3249415"><ele>656.2</ele><time>2026-05-01T11:28:39.623Z</time></trkpt><trkpt lat="44.7044688" lon="7.3250594"><ele>653.0</ele><time>2026-05-01T11:28:40.623Z</time></trkpt><trkpt lat="44.7045277" lon="7.3251613"><ele>653.0</ele><time>2026-05-01T11:28:41.623Z</time></trkpt><trkpt lat="44.7046227" lon="7.3252427"><ele>653.0</ele><time>2026-05-01T11:28:42.622Z</time></trkpt><trkpt lat="44.7047379" lon="7.3253097"><ele>653.0</ele><time>2026-05-01T11:28:43.623Z</time></trkpt><trkpt lat="44.7048609" lon="7.3253587"><ele>653.0</ele><time>2026-05-01T11:28:44.623Z</time></trkpt><trkpt lat="44.7049824" lon="7.3253984"><ele>653.0</ele><time>2026-05-01T11:28:45.623Z</time></trkpt><trkpt lat="44.7050963" lon="7.3254269"><ele>653.0</ele><time>2026-05-01T11:28:46.623Z</time></trkpt><trkpt lat="44.7051949" lon="7.325474"><ele>653.0</ele><time>2026-05-01T11:28:47.623Z</time></trkpt><trkpt lat="44.7052781" lon="7.3255696"><ele>653.0</ele><time>2026-05-01T11:28:48.623Z</time></trkpt><trkpt lat="44.7053448" lon="7.3256914"><ele>653.0</ele><time>2026-05-01T11:28:49.623Z</time></trkpt><trkpt lat="44.7054078" lon="7.3257809"><ele>652.8</ele><time>2026-05-01T11:28:50.623Z</time></trkpt><trkpt lat="44.7054913" lon="7.3258224"><ele>652.5999999999999</ele><time>2026-05-01T11:28:51.623Z</time></trkpt><trkpt lat="44.7055861" lon="7.3258134"><ele>652.4000000000001</ele><time>2026-05-01T11:28:52.623Z</time></trkpt><trkpt lat="44.7057023" lon="7.3257599"><ele>652.2</ele><time>2026-05-01T11:28:53.623Z</time></trkpt><trkpt lat="44.7058065" lon="7.3257105"><ele>652.0</ele><time>2026-05-01T11:28:54.623Z</time></trkpt><trkpt lat="44.7059097" lon="7.3256842"><ele>652.0</ele><time>2026-05-01T11:28:55.623Z</time></trkpt><trkpt lat="44.7060266" lon="7.3257006"><ele>652.0</ele><time>2026-05-01T11:28:56.623Z</time></trkpt><trkpt lat="44.7061567" lon="7.3257518"><ele>652.0</ele><time>2026-05-01T11:28:57.623Z</time></trkpt><trkpt lat="44.7062756" lon="7.3258099"><ele>652.0</ele><time>2026-05-01T11:28:58.622Z</time></trkpt><trkpt lat="44.7063729" lon="7.325873"><ele>649.2</ele><time>2026-05-01T11:28:59.623Z</time></trkpt><trkpt lat="44.7064551" lon="7.3259273"><ele>646.4000000000001</ele><time>2026-05-01T11:29:00.623Z</time></trkpt><trkpt lat="44.7065274" lon="7.3259461"><ele>643.5999999999999</ele><time>2026-05-01T11:29:01.623Z</time></trkpt><trkpt lat="44.7066176" lon="7.3258572"><ele>640.8</ele><time>2026-05-01T11:29:03.623Z</time></trkpt><trkpt lat="44.7065465" lon="7.3257322"><ele>638.0</ele><time>2026-05-01T11:29:05.623Z</time></trkpt><trkpt lat="44.7064587" lon="7.3256636"><ele>638.0</ele><time>2026-05-01T11:29:06.623Z</time></trkpt><trkpt lat="44.7063574" lon="7.3255751"><ele>638.0</ele><time>2026-05-01T11:29:07.623Z</time></trkpt><trkpt lat="44.706251" lon="7.3254807"><ele>638.0</ele><time>2026-05-01T11:29:08.623Z</time></trkpt><trkpt lat="44.7061407" lon="7.3253905"><ele>638.0</ele><time>2026-05-01T11:29:09.623Z</time></trkpt><trkpt lat="44.7060356" lon="7.3253188"><ele>634.6</ele><time>2026-05-01T11:29:10.623Z</time></trkpt><trkpt lat="44.7059355" lon="7.3252802"><ele>631.1999999999999</ele><time>2026-05-01T11:29:11.623Z</time></trkpt><trkpt lat="44.7058442" lon="7.3252709"><ele>627.8</ele><time>2026-05-01T11:29:12.622Z</time></trkpt><trkpt lat="44.7057734" lon="7.3252687"><ele>624.4</ele><time>2026-05-01T11:29:13.623Z</time></trkpt><trkpt lat="44.7056992" lon="7.3251718"><ele>621.0</ele><time>2026-05-01T11:29:15.623Z</time></trkpt><trkpt lat="44.7057697" lon="7.3250714"><ele>621.0</ele><time>2026-05-01T11:29:17.623Z</time></trkpt><trkpt lat="44.7058548" lon="7.3250512"><ele>621.0</ele><time>2026-05-01T11:29:18.623Z</time></trkpt><trkpt lat="44.7059651" lon="7.3250437"><ele>621.0</ele><time>2026-05-01T11:29:19.623Z</time></trkpt><trkpt lat="44.7060868" lon="7.3250419"><ele>621.0</ele><time>2026-05-01T11:29:20.623Z</time></trkpt><trkpt lat="44.7062096" lon="7.3250184"><ele>621.0</ele><time>2026-05-01T11:29:21.623Z</time></trkpt><trkpt lat="44.7063311" lon="7.3249716"><ele>619.0</ele><time>2026-05-01T11:29:22.623Z</time></trkpt><trkpt lat="44.7064491" lon="7.3248582"><ele>617.0</ele><time>2026-05-01T11:29:23.623Z</time></trkpt><trkpt lat="44.7065748" lon="7.3247888"><ele>615.0</ele><time>2026-05-01T11:29:24.623Z</time></trkpt><trkpt lat="44.7066915" lon="7.3247274"><ele>613.0</ele><time>2026-05-01T11:29:25.623Z</time></trkpt><trkpt lat="44.7067884" lon="7.3246931"><ele>609.25</ele><time>2026-05-01T11:29:26.622Z</time></trkpt><trkpt lat="44.7068856" lon="7.3246919"><ele>605.5</ele><time>2026-05-01T11:29:27.623Z</time></trkpt><trkpt lat="44.7069833" lon="7.3247546"><ele>601.75</ele><time>2026-05-01T11:29:28.622Z</time></trkpt><trkpt lat="44.7070735" lon="7.3248818"><ele>598.0</ele><time>2026-05-01T11:29:29.623Z</time></trkpt><trkpt lat="44.7071505" lon="7.3250218"><ele>596.4</ele><time>2026-05-01T11:29:30.623Z</time></trkpt><trkpt lat="44.7072086" lon="7.3251374"><ele>594.8</ele><time>2026-05-01T11:29:31.623Z</time></trkpt><trkpt lat="44.7072577" lon="7.3252276"><ele>593.2</ele><time>2026-05-01T11:29:32.623Z</time></trkpt><trkpt lat="44.7073583" lon="7.3252761"><ele>591.6</ele><time>2026-05-01T11:29:34.623Z</time></trkpt><trkpt lat="44.7073878" lon="7.3251322"><ele>590.0</ele><time>2026-05-01T11:29:36.623Z</time></trkpt><trkpt lat="44.7073616" lon="7.3250126"><ele>590.0</ele><time>2026-05-01T11:29:37.623Z</time></trkpt><trkpt lat="44.7073342" lon="7.3248528"><ele>590.0</ele><time>2026-05-01T11:29:38.623Z</time></trkpt><trkpt lat="44.7073194" lon="7.3247015"><ele>590.0</ele><time>2026-05-01T11:29:39.623Z</time></trkpt><trkpt lat="44.7073284" lon="7.3245476"><ele>590.0</ele><time>2026-05-01T11:29:40.623Z</time></trkpt><trkpt lat="44.7073683" lon="7.3243966"><ele>589.0</ele><time>2026-05-01T11:29:41.623Z</time></trkpt><trkpt lat="44.7074233" lon="7.3242579"><ele>588.0</ele><time>2026-05-01T11:29:42.623Z</time></trkpt><trkpt lat="44.7075267" lon="7.3241682"><ele>587.0</ele><time>2026-05-01T11:29:43.623Z</time></trkpt><trkpt lat="44.7076367" lon="7.3241058"><ele>586.0</ele><time>2026-05-01T11:29:44.623Z</time></trkpt><trkpt lat="44.7077627" lon="7.3240955"><ele>581.0</ele><time>2026-05-01T11:29:45.623Z</time></trkpt><trkpt lat="44.7079074" lon="7.3241198"><ele>576.0</ele><time>2026-05-01T11:29:46.623Z</time></trkpt><trkpt lat="44.7080479" lon="7.3241603"><ele>571.0</ele><time>2026-05-01T11:29:47.623Z</time></trkpt><trkpt lat="44.7081733" lon="7.3241834"><ele>566.0</ele><time>2026-05-01T11:29:48.623Z</time></trkpt><trkpt lat="44.7082943" lon="7.3241764"><ele>566.0</ele><time>2026-05-01T11:29:49.623Z</time></trkpt><trkpt lat="44.7084025" lon="7.3241481"><ele>566.0</ele><time>2026-05-01T11:29:50.623Z</time></trkpt><trkpt lat="44.708488" lon="7.3241384"><ele>566.0</ele><time>2026-05-01T11:29:51.623Z</time></trkpt><trkpt lat="44.7085548" lon="7.3241708"><ele>566.0</ele><time>2026-05-01T11:29:52.623Z</time></trkpt><trkpt lat="44.7085979" lon="7.3242502"><ele>566.0</ele><time>2026-05-01T11:29:53.622Z</time></trkpt><trkpt lat="44.7085992" lon="7.3243511"><ele>566.0</ele><time>2026-05-01T11:29:54.623Z</time></trkpt><trkpt lat="44.7085837" lon="7.3244689"><ele>562.3333333333333</ele><time>2026-05-01T11:29:55.623Z</time></trkpt><trkpt lat="44.7085785" lon="7.324579"><ele>558.6666666666666</ele><time>2026-05-01T11:29:56.623Z</time></trkpt><trkpt lat="44.7085958" lon="7.3246664"><ele>555.0</ele><time>2026-05-01T11:29:57.623Z</time></trkpt><trkpt lat="44.7086846" lon="7.3246836"><ele>551.3333333333334</ele><time>2026-05-01T11:29:59.623Z</time></trkpt><trkpt lat="44.7087232" lon="7.3246077"><ele>547.6666666666667</ele><time>2026-05-01T11:30:00.623Z</time></trkpt><trkpt lat="44.7087623" lon="7.3244814"><ele>544.0</ele><time>2026-05-01T11:30:01.623Z</time></trkpt><trkpt lat="44.7088372" lon="7.3243272"><ele>544.0</ele><time>2026-05-01T11:30:02.623Z</time></trkpt><trkpt lat="44.7089553" lon="7.3241681"><ele>544.0</ele><time>2026-05-01T11:30:03.623Z</time></trkpt><trkpt lat="44.7090896" lon="7.3240243"><ele>544.0</ele><time>2026-05-01T11:30:04.623Z</time></trkpt><trkpt lat="44.7092345" lon="7.3238807"><ele>545.5</ele><time>2026-05-01T11:30:05.623Z</time></trkpt><trkpt lat="44.7093674" lon="7.3237602"><ele>547.0</ele><time>2026-05-01T11:30:06.622Z</time></trkpt><trkpt lat="44.7094809" lon="7.3236697"><ele>548.5</ele><time>2026-05-01T11:30:07.623Z</time></trkpt><trkpt lat="44.7095783" lon="7.3235916"><ele>550.0</ele><time>2026-05-01T11:30:08.623Z</time></trkpt><trkpt lat="44.7096555" lon="7.3235529"><ele>546.0</ele><time>2026-05-01T11:30:09.623Z</time></trkpt><trkpt lat="44.7097642" lon="7.3236111"><ele>542.0</ele><time>2026-05-01T11:30:11.623Z</time></trkpt><trkpt lat="44.7097811" lon="7.3236972"><ele>538.0</ele><time>2026-05-01T11:30:12.623Z</time></trkpt><trkpt lat="44.7096985" lon="7.3238472"><ele>534.0</ele><time>2026-05-01T11:30:14.623Z</time></trkpt><trkpt lat="44.709611" lon="7.3239498"><ele>530.0</ele><time>2026-05-01T11:30:15.623Z</time></trkpt><trkpt lat="44.7095335" lon="7.3241163"><ele>527.6666666666666</ele><time>2026-05-01T11:30:16.622Z</time></trkpt><trkpt lat="44.7094538" lon="7.324302"><ele>525.3333333333334</ele><time>2026-05-01T11:30:17.623Z</time></trkpt><trkpt lat="44.7093762" lon="7.324503"><ele>523.0</ele><time>2026-05-01T11:30:18.623Z</time></trkpt><trkpt lat="44.7093014" lon="7.3247106"><ele>526.25</ele><time>2026-05-01T11:30:19.622Z</time></trkpt><trkpt lat="44.7092348" lon="7.3249088"><ele>529.5</ele><time>2026-05-01T11:30:20.623Z</time></trkpt><trkpt lat="44.7091778" lon="7.3250753"><ele>532.75</ele><time>2026-05-01T11:30:21.623Z</time></trkpt><trkpt lat="44.70913" lon="7.3252047"><ele>536.0</ele><time>2026-05-01T11:30:22.623Z</time></trkpt><trkpt lat="44.7090948" lon="7.3253095"><ele>536.0</ele><time>2026-05-01T11:30:23.622Z</time></trkpt><trkpt lat="44.7090782" lon="7.3253969"><ele>536.0</ele><time>2026-05-01T11:30:24.623Z</time></trkpt><trkpt lat="44.7091163" lon="7.3254767"><ele>536.0</ele><time>2026-05-01T11:30:25.623Z</time></trkpt><trkpt lat="44.70924" lon="7.3254557"><ele>536.0</ele><time>2026-05-01T11:30:27.623Z</time></trkpt><trkpt lat="44.7093232" lon="7.3253641"><ele>536.0</ele><time>2026-05-01T11:30:28.623Z</time></trkpt><trkpt lat="44.7094295" lon="7.3252521"><ele>529.0</ele><time>2026-05-01T11:30:29.623Z</time></trkpt><trkpt lat="44.7095514" lon="7.3251274"><ele>522.0</ele><time>2026-05-01T11:30:30.622Z</time></trkpt><trkpt lat="44.7096971" lon="7.3250139"><ele>515.0</ele><time>2026-05-01T11:30:31.623Z</time></trkpt><trkpt lat="44.7098499" lon="7.3248729"><ele>515.0</ele><time>2026-05-01T11:30:32.623Z</time></trkpt><trkpt lat="44.709989" lon="7.3247342"><ele>515.0</ele><time>2026-05-01T11:30:33.623Z</time></trkpt><trkpt lat="44.7101262" lon="7.3246181"><ele>515.0</ele><time>2026-05-01T11:30:34.623Z</time></trkpt><trkpt lat="44.7102712" lon="7.3245308"><ele>508.25</ele><time>2026-05-01T11:30:35.623Z</time></trkpt><trkpt lat="44.7104203" lon="7.324463"><ele>501.5</ele><time>2026-05-01T11:30:36.622Z</time></trkpt><trkpt lat="44.7105522" lon="7.3244006"><ele>494.75</ele><time>2026-05-01T11:30:37.623Z</time></trkpt><trkpt lat="44.7106676" lon="7.3243285"><ele>488.0</ele><time>2026-05-01T11:30:38.622Z</time></trkpt><trkpt lat="44.710768" lon="7.3242119"><ele>488.0</ele><time>2026-05-01T11:30:39.623Z</time></trkpt><trkpt lat="44.710856" lon="7.3240351"><ele>488.0</ele><time>2026-05-01T11:30:40.623Z</time></trkpt><trkpt lat="44.710928" lon="7.3238461"><ele>488.0</ele><time>2026-05-01T11:30:41.623Z</time></trkpt><trkpt lat="44.7109997" lon="7.323669"><ele>484.5</ele><time>2026-05-01T11:30:42.623Z</time></trkpt><trkpt lat="44.7110876" lon="7.3235063"><ele>481.0</ele><time>2026-05-01T11:30:43.623Z</time></trkpt><trkpt lat="44.7112029" lon="7.3233699"><ele>477.5</ele><time>2026-05-01T11:30:44.622Z</time></trkpt><trkpt lat="44.7113171" lon="7.3232376"><ele>474.0</ele><time>2026-05-01T11:30:45.623Z</time></trkpt><trkpt lat="44.7114251" lon="7.3230854"><ele>472.75</ele><time>2026-05-01T11:30:46.622Z</time></trkpt><trkpt lat="44.7115174" lon="7.3229298"><ele>471.5</ele><time>2026-05-01T11:30:47.623Z</time></trkpt><trkpt lat="44.7115865" lon="7.3227732"><ele>470.25</ele><time>2026-05-01T11:30:48.623Z</time></trkpt><trkpt lat="44.7116268" lon="7.322609"><ele>469.0</ele><time>2026-05-01T11:30:49.623Z</time></trkpt><trkpt lat="44.7116333" lon="7.322438"><ele>469.0</ele><time>2026-05-01T11:30:50.623Z</time></trkpt><trkpt lat="44.7116136" lon="7.3222827"><ele>469.0</ele><time>2026-05-01T11:30:51.623Z</time></trkpt><trkpt lat="44.7115672" lon="7.3221345"><ele>469.0</ele><time>2026-05-01T11:30:52.623Z</time></trkpt><trkpt lat="44.7115105" lon="7.3219802"><ele>469.0</ele><time>2026-05-01T11:30:53.623Z</time></trkpt><trkpt lat="44.7114745" lon="7.3218174"><ele>467.0</ele><time>2026-05-01T11:30:54.623Z</time></trkpt><trkpt lat="44.7114536" lon="7.3216515"><ele>465.0</ele><time>2026-05-01T11:30:55.623Z</time></trkpt><trkpt lat="44.711461" lon="7.3214742"><ele>463.0</ele><time>2026-05-01T11:30:56.623Z</time></trkpt><trkpt lat="44.7114927" lon="7.3212969"><ele>461.0</ele><time>2026-05-01T11:30:57.623Z</time></trkpt><trkpt lat="44.7115271" lon="7.3211412"><ele>461.0</ele><time>2026-05-01T11:30:58.623Z</time></trkpt><trkpt lat="44.711557" lon="7.321006"><ele>461.0</ele><time>2026-05-01T11:30:59.623Z</time></trkpt><trkpt lat="44.7115883" lon="7.3208943"><ele>461.0</ele><time>2026-05-01T11:31:00.623Z</time></trkpt><trkpt lat="44.7116266" lon="7.3208206"><ele>461.0</ele><time>2026-05-01T11:31:01.623Z</time></trkpt><trkpt lat="44.711735" lon="7.3208372"><ele>461.0</ele><time>2026-05-01T11:31:03.623Z</time></trkpt><trkpt lat="44.7117784" lon="7.3210194"><ele>461.0</ele><time>2026-05-01T11:31:05.623Z</time></trkpt><trkpt lat="44.7117896" lon="7.3211298"><ele>461.0</ele><time>2026-05-01T11:31:06.623Z</time></trkpt><trkpt lat="44.7118161" lon="7.3212271"><ele>461.0</ele><time>2026-05-01T11:31:07.623Z</time></trkpt><trkpt lat="44.7118726" lon="7.3212938"><ele>461.0</ele><time>2026-05-01T11:31:08.622Z</time></trkpt><trkpt lat="44.7119995" lon="7.3212464"><ele>461.0</ele><time>2026-05-01T11:31:10.623Z</time></trkpt><trkpt lat="44.7120588" lon="7.3211487"><ele>454.5</ele><time>2026-05-01T11:31:11.623Z</time></trkpt><trkpt lat="44.7121105" lon="7.3210219"><ele>448.0</ele><time>2026-05-01T11:31:12.623Z</time></trkpt><trkpt lat="44.7121513" lon="7.3208725"><ele>441.5</ele><time>2026-05-01T11:31:13.623Z</time></trkpt><trkpt lat="44.7121863" lon="7.3207015"><ele>435.0</ele><time>2026-05-01T11:31:14.623Z</time></trkpt><trkpt lat="44.7122181" lon="7.3205204"><ele>433.75</ele><time>2026-05-01T11:31:15.623Z</time></trkpt><trkpt lat="44.7122484" lon="7.3203462"><ele>432.5</ele><time>2026-05-01T11:31:16.622Z</time></trkpt><trkpt lat="44.712277" lon="7.3201726"><ele>431.25</ele><time>2026-05-01T11:31:17.623Z</time></trkpt><trkpt lat="44.7123091" lon="7.3200115"><ele>430.0</ele><time>2026-05-01T11:31:18.623Z</time></trkpt><trkpt lat="44.712344" lon="7.3198544"><ele>428.25</ele><time>2026-05-01T11:31:19.623Z</time></trkpt><trkpt lat="44.7123896" lon="7.3197054"><ele>426.5</ele><time>2026-05-01T11:31:20.623Z</time></trkpt><trkpt lat="44.7124529" lon="7.3195622"><ele>424.75</ele><time>2026-05-01T11:31:21.623Z</time></trkpt><trkpt lat="44.7125451" lon="7.3194273"><ele>423.0</ele><time>2026-05-01T11:31:22.623Z</time></trkpt><trkpt lat="44.7126569" lon="7.3192864"><ele>420.5</ele><time>2026-05-01T11:31:23.622Z</time></trkpt><trkpt lat="44.7127636" lon="7.3191438"><ele>418.0</ele><time>2026-05-01T11:31:24.623Z</time></trkpt><trkpt lat="44.7128638" lon="7.3189987"><ele>415.5</ele><time>2026-05-01T11:31:25.623Z</time></trkpt><trkpt lat="44.7129579" lon="7.3188545"><ele>413.0</ele><time>2026-05-01T11:31:26.623Z</time></trkpt><trkpt lat="44.7130522" lon="7.3187021"><ele>411.25</ele><time>2026-05-01T11:31:27.623Z</time></trkpt><trkpt lat="44.7131402" lon="7.3185469"><ele>409.5</ele><time>2026-05-01T11:31:28.622Z</time></trkpt><trkpt lat="44.7132173" lon="7.3183891"><ele>407.75</ele><time>2026-05-01T11:31:29.623Z</time></trkpt><trkpt lat="44.7132984" lon="7.3182382"><ele>406.0</ele><time>2026-05-01T11:31:30.623Z</time></trkpt><trkpt lat="44.7133652" lon="7.3181032"><ele>405.4</ele><time>2026-05-01T11:31:31.623Z</time></trkpt><trkpt lat="44.7134339" lon="7.317975"><ele>404.8</ele><time>2026-05-01T11:31:32.623Z</time></trkpt><trkpt lat="44.7135168" lon="7.3178737"><ele>404.2</ele><time>2026-05-01T11:31:33.623Z</time></trkpt><trkpt lat="44.7136161" lon="7.3178114"><ele>403.59999999999997</ele><time>2026-05-01T11:31:34.623Z</time></trkpt><trkpt lat="44.7137281" lon="7.3177773"><ele>403.0</ele><time>2026-05-01T11:31:35.623Z</time></trkpt><trkpt lat="44.7138515" lon="7.3177468"><ele>400.79999999999995</ele><time>2026-05-01T11:31:36.623Z</time></trkpt><trkpt lat="44.7139637" lon="7.3177223"><ele>398.6</ele><time>2026-05-01T11:31:37.622Z</time></trkpt><trkpt lat="44.7140627" lon="7.317697"><ele>396.4</ele><time>2026-05-01T11:31:38.623Z</time></trkpt><trkpt lat="44.7141512" lon="7.317667"><ele>394.20000000000005</ele><time>2026-05-01T11:31:39.623Z</time></trkpt><trkpt lat="44.7142283" lon="7.3176293"><ele>392.0</ele><time>2026-05-01T11:31:40.623Z</time></trkpt><trkpt lat="44.7142929" lon="7.3176081"><ele>392.0</ele><time>2026-05-01T11:31:41.623Z</time></trkpt><trkpt lat="44.7143925" lon="7.317587"><ele>392.0</ele><time>2026-05-01T11:31:43.623Z</time></trkpt><trkpt lat="44.7145065" lon="7.3176541"><ele>392.0</ele><time>2026-05-01T11:31:45.623Z</time></trkpt><trkpt lat="44.7145745" lon="7.3177339"><ele>392.0</ele><time>2026-05-01T11:31:46.623Z</time></trkpt><trkpt lat="44.7146604" lon="7.3178475"><ele>392.0</ele><time>2026-05-01T11:31:47.623Z</time></trkpt><trkpt lat="44.7147464" lon="7.3179738"><ele>391.66666666666663</ele><time>2026-05-01T11:31:48.623Z</time></trkpt><trkpt lat="44.7148378" lon="7.3181085"><ele>391.33333333333337</ele><time>2026-05-01T11:31:49.622Z</time></trkpt><trkpt lat="44.7149332" lon="7.3182805"><ele>391.0</ele><time>2026-05-01T11:31:50.623Z</time></trkpt><trkpt lat="44.7150315" lon="7.3184798"><ele>391.0</ele><time>2026-05-01T11:31:51.623Z</time></trkpt><trkpt lat="44.7151247" lon="7.3186924"><ele>391.0</ele><time>2026-05-01T11:31:52.623Z</time></trkpt><trkpt lat="44.7152158" lon="7.3189363"><ele>391.0</ele><time>2026-05-01T11:31:53.623Z</time></trkpt><trkpt lat="44.7152987" lon="7.3191992"><ele>390.6666666666667</ele><time>2026-05-01T11:31:54.623Z</time></trkpt><trkpt lat="44.7153785" lon="7.3194588"><ele>390.33333333333337</ele><time>2026-05-01T11:31:55.623Z</time></trkpt><trkpt lat="44.7154634" lon="7.3196894"><ele>390.0</ele><time>2026-05-01T11:31:56.623Z</time></trkpt><trkpt lat="44.715557" lon="7.3199014"><ele>388.33333333333337</ele><time>2026-05-01T11:31:57.623Z</time></trkpt><trkpt lat="44.7156634" lon="7.3201014"><ele>386.6666666666667</ele><time>2026-05-01T11:31:58.623Z</time></trkpt><trkpt lat="44.7157866" lon="7.3202888"><ele>385.0</ele><time>2026-05-01T11:31:59.623Z</time></trkpt><trkpt lat="44.7159186" lon="7.3204597"><ele>384.33333333333337</ele><time>2026-05-01T11:32:00.623Z</time></trkpt><trkpt lat="44.7160733" lon="7.3206147"><ele>383.6666666666667</ele><time>2026-05-01T11:32:01.623Z</time></trkpt><trkpt lat="44.7162489" lon="7.3207523"><ele>383.0</ele><time>2026-05-01T11:32:02.623Z</time></trkpt><trkpt lat="44.7164417" lon="7.3208648"><ele>383.0</ele><time>2026-05-01T11:32:03.623Z</time></trkpt><trkpt lat="44.7166422" lon="7.3209528"><ele>383.0</ele><time>2026-05-01T11:32:04.623Z</time></trkpt><trkpt lat="44.7168446" lon="7.321039"><ele>383.0</ele><time>2026-05-01T11:32:05.622Z</time></trkpt><trkpt lat="44.717039" lon="7.3211117"><ele>382.0</ele><time>2026-05-01T11:32:06.623Z</time></trkpt><trkpt lat="44.7172307" lon="7.3211675"><ele>381.0</ele><time>2026-05-01T11:32:07.623Z</time></trkpt><trkpt lat="44.7174264" lon="7.3212119"><ele>380.0</ele><time>2026-05-01T11:32:08.623Z</time></trkpt><trkpt lat="44.7176214" lon="7.3212385"><ele>380.6666666666667</ele><time>2026-05-01T11:32:09.622Z</time></trkpt><trkpt lat="44.717816" lon="7.3212518"><ele>381.3333333333333</ele><time>2026-05-01T11:32:10.622Z</time></trkpt><trkpt lat="44.7180084" lon="7.3212703"><ele>382.0</ele><time>2026-05-01T11:32:11.622Z</time></trkpt><trkpt lat="44.7182065" lon="7.3213134"><ele>382.0</ele><time>2026-05-01T11:32:12.623Z</time></trkpt><trkpt lat="44.7184057" lon="7.3213787"><ele>382.0</ele><time>2026-05-01T11:32:13.623Z</time></trkpt><trkpt lat="44.7186031" lon="7.321483"><ele>382.0</ele><time>2026-05-01T11:32:14.622Z</time></trkpt><trkpt lat="44.7187932" lon="7.3216052"><ele>381.3333333333333</ele><time>2026-05-01T11:32:15.623Z</time></trkpt><trkpt lat="44.7189724" lon="7.3217175"><ele>380.6666666666667</ele><time>2026-05-01T11:32:16.623Z</time></trkpt><trkpt lat="44.7191435" lon="7.3218156"><ele>380.0</ele><time>2026-05-01T11:32:17.623Z</time></trkpt><trkpt lat="44.71932" lon="7.3218876"><ele>383.0</ele><time>2026-05-01T11:32:18.623Z</time></trkpt><trkpt lat="44.7194917" lon="7.321938"><ele>386.0</ele><time>2026-05-01T11:32:19.623Z</time></trkpt><trkpt lat="44.7196678" lon="7.3219633"><ele>389.0</ele><time>2026-05-01T11:32:20.623Z</time></trkpt><trkpt lat="44.7198512" lon="7.321949"><ele>389.0</ele><time>2026-05-01T11:32:21.623Z</time></trkpt><trkpt lat="44.7200412" lon="7.3219007"><ele>389.0</ele><time>2026-05-01T11:32:22.623Z</time></trkpt><trkpt lat="44.7202321" lon="7.3218156"><ele>389.0</ele><time>2026-05-01T11:32:23.623Z</time></trkpt><trkpt lat="44.7204246" lon="7.3217091"><ele>385.66666666666663</ele><time>2026-05-01T11:32:24.623Z</time></trkpt><trkpt lat="44.7206192" lon="7.3215993"><ele>382.3333333333333</ele><time>2026-05-01T11:32:25.623Z</time></trkpt><trkpt lat="44.7208171" lon="7.3214885"><ele>379.0</ele><time>2026-05-01T11:32:26.622Z</time></trkpt><trkpt lat="44.721007" lon="7.3213931"><ele>379.66666666666663</ele><time>2026-05-01T11:32:27.623Z</time></trkpt><trkpt lat="44.7212004" lon="7.3213315"><ele>380.3333333333333</ele><time>2026-05-01T11:32:28.623Z</time></trkpt><trkpt lat="44.721402" lon="7.3212926"><ele>381.0</ele><time>2026-05-01T11:32:29.623Z</time></trkpt><trkpt lat="44.7216034" lon="7.3212789"><ele>381.0</ele><time>2026-05-01T11:32:30.623Z</time></trkpt><trkpt lat="44.7218088" lon="7.3212946"><ele>381.0</ele><time>2026-05-01T11:32:31.623Z</time></trkpt><trkpt lat="44.7220073" lon="7.3213344"><ele>381.0</ele><time>2026-05-01T11:32:32.623Z</time></trkpt><trkpt lat="44.7221901" lon="7.3213972"><ele>379.3333333333333</ele><time>2026-05-01T11:32:33.623Z</time></trkpt><trkpt lat="44.7223569" lon="7.321474"><ele>377.66666666666663</ele><time>2026-05-01T11:32:34.623Z</time></trkpt><trkpt lat="44.7225105" lon="7.3215519"><ele>376.0</ele><time>2026-05-01T11:32:35.623Z</time></trkpt><trkpt lat="44.7226553" lon="7.3216311"><ele>377.0</ele><time>2026-05-01T11:32:36.623Z</time></trkpt><trkpt lat="44.7227981" lon="7.3217139"><ele>378.0</ele><time>2026-05-01T11:32:37.623Z</time></trkpt><trkpt lat="44.7229382" lon="7.3217938"><ele>379.0</ele><time>2026-05-01T11:32:38.623Z</time></trkpt><trkpt lat="44.7230822" lon="7.3218638"><ele>379.0</ele><time>2026-05-01T11:32:39.623Z</time></trkpt><trkpt lat="44.7232241" lon="7.3219336"><ele>379.0</ele><time>2026-05-01T11:32:40.623Z</time></trkpt><trkpt lat="44.7233673" lon="7.3219898"><ele>379.0</ele><time>2026-05-01T11:32:41.623Z</time></trkpt><trkpt lat="44.7235123" lon="7.322034"><ele>379.0</ele><time>2026-05-01T11:32:42.622Z</time></trkpt><trkpt lat="44.7236612" lon="7.3220643"><ele>379.0</ele><time>2026-05-01T11:32:43.623Z</time></trkpt><trkpt lat="44.7238087" lon="7.3220877"><ele>379.0</ele><time>2026-05-01T11:32:44.623Z</time></trkpt><trkpt lat="44.7239567" lon="7.3221081"><ele>379.0</ele><time>2026-05-01T11:32:45.623Z</time></trkpt><trkpt lat="44.7241051" lon="7.3221238"><ele>379.0</ele><time>2026-05-01T11:32:46.623Z</time></trkpt><trkpt lat="44.7242511" lon="7.3221449"><ele>379.5</ele><time>2026-05-01T11:32:47.623Z</time></trkpt><trkpt lat="44.7243985" lon="7.3221627"><ele>380.0</ele><time>2026-05-01T11:32:48.623Z</time></trkpt><trkpt lat="44.7245407" lon="7.3221901"><ele>380.5</ele><time>2026-05-01T11:32:49.623Z</time></trkpt><trkpt lat="44.7246855" lon="7.3222096"><ele>381.0</ele><time>2026-05-01T11:32:50.623Z</time></trkpt><trkpt lat="44.7248314" lon="7.3222265"><ele>380.5</ele><time>2026-05-01T11:32:51.623Z</time></trkpt><trkpt lat="44.7249753" lon="7.3222442"><ele>380.0</ele><time>2026-05-01T11:32:52.623Z</time></trkpt><trkpt lat="44.7251165" lon="7.3222659"><ele>379.5</ele><time>2026-05-01T11:32:53.623Z</time></trkpt><trkpt lat="44.7252633" lon="7.3222844"><ele>379.0</ele><time>2026-05-01T11:32:54.623Z</time></trkpt><trkpt lat="44.7254023" lon="7.3223011"><ele>379.0</ele><time>2026-05-01T11:32:55.623Z</time></trkpt><trkpt lat="44.7255487" lon="7.3223211"><ele>379.0</ele><time>2026-05-01T11:32:56.623Z</time></trkpt><trkpt lat="44.7256925" lon="7.322336"><ele>379.0</ele><time>2026-05-01T11:32:57.623Z</time></trkpt><trkpt lat="44.7258329" lon="7.3223545"><ele>379.0</ele><time>2026-05-01T11:32:58.623Z</time></trkpt><trkpt lat="44.7259698" lon="7.3223728"><ele>378.75</ele><time>2026-05-01T11:32:59.623Z</time></trkpt><trkpt lat="44.7260951" lon="7.3223937"><ele>378.5</ele><time>2026-05-01T11:33:00.623Z</time></trkpt><trkpt lat="44.7262153" lon="7.3224183"><ele>378.25</ele><time>2026-05-01T11:33:01.623Z</time></trkpt><trkpt lat="44.7263304" lon="7.3224354"><ele>378.0</ele><time>2026-05-01T11:33:02.623Z</time></trkpt><trkpt lat="44.7264367" lon="7.3224571"><ele>378.0</ele><time>2026-05-01T11:33:03.623Z</time></trkpt><trkpt lat="44.7265389" lon="7.3224744"><ele>378.0</ele><time>2026-05-01T11:33:04.623Z</time></trkpt><trkpt lat="44.7266411" lon="7.3225109"><ele>378.0</ele><time>2026-05-01T11:33:05.623Z</time></trkpt><trkpt lat="44.7267354" lon="7.3225742"><ele>378.0</ele><time>2026-05-01T11:33:06.623Z</time></trkpt><trkpt lat="44.7268293" lon="7.3226686"><ele>378.0</ele><time>2026-05-01T11:33:07.623Z</time></trkpt><trkpt lat="44.7269232" lon="7.3228022"><ele>376.6666666666667</ele><time>2026-05-01T11:33:08.623Z</time></trkpt><trkpt lat="44.7270252" lon="7.3229524"><ele>375.33333333333337</ele><time>2026-05-01T11:33:09.622Z</time></trkpt><trkpt lat="44.7271364" lon="7.323118"><ele>374.0</ele><time>2026-05-01T11:33:10.623Z</time></trkpt><trkpt lat="44.7272424" lon="7.3232886"><ele>373.5</ele><time>2026-05-01T11:33:11.623Z</time></trkpt><trkpt lat="44.7273291" lon="7.3234654"><ele>373.0</ele><time>2026-05-01T11:33:12.623Z</time></trkpt><trkpt lat="44.7274048" lon="7.3236439"><ele>372.5</ele><time>2026-05-01T11:33:13.622Z</time></trkpt><trkpt lat="44.7274596" lon="7.3238312"><ele>372.0</ele><time>2026-05-01T11:33:14.623Z</time></trkpt><trkpt lat="44.7275102" lon="7.3240464"><ele>371.6666666666667</ele><time>2026-05-01T11:33:15.623Z</time></trkpt><trkpt lat="44.727559" lon="7.3242663"><ele>371.33333333333337</ele><time>2026-05-01T11:33:16.623Z</time></trkpt><trkpt lat="44.7276037" lon="7.3244706"><ele>371.0</ele><time>2026-05-01T11:33:17.623Z</time></trkpt><trkpt lat="44.7276467" lon="7.3246699"><ele>370.75</ele><time>2026-05-01T11:33:18.623Z</time></trkpt><trkpt lat="44.727687" lon="7.324867"><ele>370.5</ele><time>2026-05-01T11:33:19.623Z</time></trkpt><trkpt lat="44.7277268" lon="7.3250614"><ele>370.25</ele><time>2026-05-01T11:33:20.623Z</time></trkpt><trkpt lat="44.727765" lon="7.3252498"><ele>370.0</ele><time>2026-05-01T11:33:21.623Z</time></trkpt><trkpt lat="44.7278046" lon="7.325426"><ele>370.6</ele><time>2026-05-01T11:33:22.623Z</time></trkpt><trkpt lat="44.7278411" lon="7.3255822"><ele>371.2</ele><time>2026-05-01T11:33:23.623Z</time></trkpt><trkpt lat="44.7278731" lon="7.3257203"><ele>371.79999999999995</ele><time>2026-05-01T11:33:24.623Z</time></trkpt><trkpt lat="44.7278995" lon="7.3258563"><ele>372.4</ele><time>2026-05-01T11:33:25.623Z</time></trkpt><trkpt lat="44.7279191" lon="7.3259885"><ele>373.0</ele><time>2026-05-01T11:33:26.623Z</time></trkpt><trkpt lat="44.7279411" lon="7.3261004"><ele>373.0</ele><time>2026-05-01T11:33:27.623Z</time></trkpt><trkpt lat="44.7279769" lon="7.326184"><ele>373.0</ele><time>2026-05-01T11:33:28.623Z</time></trkpt><trkpt lat="44.7280327" lon="7.3262347"><ele>373.0</ele><time>2026-05-01T11:33:29.623Z</time></trkpt><trkpt lat="44.7280984" lon="7.3262383"><ele>373.0</ele><time>2026-05-01T11:33:30.623Z</time></trkpt><trkpt lat="44.7281683" lon="7.326197"><ele>373.0</ele><time>2026-05-01T11:33:31.623Z</time></trkpt><trkpt lat="44.7282574" lon="7.3261386"><ele>373.0</ele><time>2026-05-01T11:33:32.623Z</time></trkpt><trkpt lat="44.728366" lon="7.3261022"><ele>373.0</ele><time>2026-05-01T11:33:33.623Z</time></trkpt><trkpt lat="44.7284961" lon="7.3260914"><ele>373.0</ele><time>2026-05-01T11:33:34.623Z</time></trkpt><trkpt lat="44.7286462" lon="7.3260921"><ele>373.0</ele><time>2026-05-01T11:33:35.622Z</time></trkpt><trkpt lat="44.7287939" lon="7.3260924"><ele>373.0</ele><time>2026-05-01T11:33:36.623Z</time></trkpt><trkpt lat="44.7289436" lon="7.326087"><ele>374.66666666666663</ele><time>2026-05-01T11:33:37.623Z</time></trkpt><trkpt lat="44.7291123" lon="7.3260749"><ele>376.3333333333333</ele><time>2026-05-01T11:33:38.623Z</time></trkpt><trkpt lat="44.7292915" lon="7.3260453"><ele>378.0</ele><time>2026-05-01T11:33:39.623Z</time></trkpt><trkpt lat="44.729465" lon="7.3260002"><ele>379.0</ele><time>2026-05-01T11:33:40.623Z</time></trkpt><trkpt lat="44.729621" lon="7.3259481"><ele>380.0</ele><time>2026-05-01T11:33:41.623Z</time></trkpt><trkpt lat="44.729765" lon="7.3258908"><ele>381.0</ele><time>2026-05-01T11:33:42.623Z</time></trkpt><trkpt lat="44.7299024" lon="7.3258307"><ele>381.0</ele><time>2026-05-01T11:33:43.623Z</time></trkpt><trkpt lat="44.7300342" lon="7.3257658"><ele>381.0</ele><time>2026-05-01T11:33:44.623Z</time></trkpt><trkpt lat="44.7301672" lon="7.3256991"><ele>381.0</ele><time>2026-05-01T11:33:45.623Z</time></trkpt><trkpt lat="44.7303048" lon="7.3256305"><ele>381.0</ele><time>2026-05-01T11:33:46.623Z</time></trkpt><trkpt lat="44.7304464" lon="7.3255649"><ele>382.0</ele><time>2026-05-01T11:33:47.623Z</time></trkpt><trkpt lat="44.7305959" lon="7.3254959"><ele>383.0</ele><time>2026-05-01T11:33:48.623Z</time></trkpt><trkpt lat="44.7307515" lon="7.3254207"><ele>384.0</ele><time>2026-05-01T11:33:49.623Z</time></trkpt><trkpt lat="44.7309165" lon="7.3253402"><ele>384.66666666666663</ele><time>2026-05-01T11:33:50.623Z</time></trkpt><trkpt lat="44.7310925" lon="7.3252552"><ele>385.3333333333333</ele><time>2026-05-01T11:33:51.623Z</time></trkpt><trkpt lat="44.7312763" lon="7.3251655"><ele>386.0</ele><time>2026-05-01T11:33:52.623Z</time></trkpt><trkpt lat="44.7314554" lon="7.3250767"><ele>386.0</ele><time>2026-05-01T11:33:53.623Z</time></trkpt><trkpt lat="44.7316375" lon="7.3249865"><ele>386.0</ele><time>2026-05-01T11:33:54.623Z</time></trkpt><trkpt lat="44.7318227" lon="7.3248972"><ele>386.0</ele><time>2026-05-01T11:33:55.623Z</time></trkpt><trkpt lat="44.7320069" lon="7.3248065"><ele>388.0</ele><time>2026-05-01T11:33:56.623Z</time></trkpt><trkpt lat="44.7321893" lon="7.3247222"><ele>390.0</ele><time>2026-05-01T11:33:57.623Z</time></trkpt><trkpt lat="44.7323719" lon="7.3246336"><ele>392.0</ele><time>2026-05-01T11:33:58.623Z</time></trkpt><trkpt lat="44.7325557" lon="7.3245415"><ele>392.66666666666663</ele><time>2026-05-01T11:33:59.623Z</time></trkpt><trkpt lat="44.7327336" lon="7.3244556"><ele>393.33333333333337</ele><time>2026-05-01T11:34:00.622Z</time></trkpt><trkpt lat="44.7328951" lon="7.324376"><ele>394.0</ele><time>2026-05-01T11:34:01.623Z</time></trkpt><trkpt lat="44.7330524" lon="7.3243007"><ele>394.0</ele><time>2026-05-01T11:34:02.623Z</time></trkpt><trkpt lat="44.7332061" lon="7.3242296"><ele>394.0</ele><time>2026-05-01T11:34:03.622Z</time></trkpt><trkpt lat="44.7333549" lon="7.3241583"><ele>394.0</ele><time>2026-05-01T11:34:04.623Z</time></trkpt><trkpt lat="44.7335011" lon="7.3240853"><ele>394.33333333333337</ele><time>2026-05-01T11:34:05.623Z</time></trkpt><trkpt lat="44.7336452" lon="7.3240132"><ele>394.66666666666663</ele><time>2026-05-01T11:34:06.623Z</time></trkpt><trkpt lat="44.733789" lon="7.3239436"><ele>395.0</ele><time>2026-05-01T11:34:07.623Z</time></trkpt><trkpt lat="44.7339358" lon="7.3238721"><ele>396.3333333333333</ele><time>2026-05-01T11:34:08.622Z</time></trkpt><trkpt lat="44.7340843" lon="7.3237995"><ele>397.66666666666663</ele><time>2026-05-01T11:34:09.623Z</time></trkpt><trkpt lat="44.734232" lon="7.3237258"><ele>399.0</ele><time>2026-05-01T11:34:10.623Z</time></trkpt><trkpt lat="44.7343794" lon="7.3236527"><ele>398.33333333333337</ele><time>2026-05-01T11:34:11.623Z</time></trkpt><trkpt lat="44.7345271" lon="7.3235795"><ele>397.6666666666667</ele><time>2026-05-01T11:34:12.623Z</time></trkpt><trkpt lat="44.7346773" lon="7.3235099"><ele>397.0</ele><time>2026-05-01T11:34:13.623Z</time></trkpt><trkpt lat="44.7348279" lon="7.3234404"><ele>397.0</ele><time>2026-05-01T11:34:14.623Z</time></trkpt><trkpt lat="44.7349815" lon="7.3233743"><ele>397.0</ele><time>2026-05-01T11:34:15.622Z</time></trkpt><trkpt lat="44.7351399" lon="7.3233092"><ele>397.0</ele><time>2026-05-01T11:34:16.623Z</time></trkpt><trkpt lat="44.7353038" lon="7.3232489"><ele>396.6666666666667</ele><time>2026-05-01T11:34:17.622Z</time></trkpt><trkpt lat="44.7354736" lon="7.3231991"><ele>396.33333333333337</ele><time>2026-05-01T11:34:18.623Z</time></trkpt><trkpt lat="44.7356413" lon="7.3231579"><ele>396.0</ele><time>2026-05-01T11:34:19.623Z</time></trkpt><trkpt lat="44.735813" lon="7.323125"><ele>396.0</ele><time>2026-05-01T11:34:20.623Z</time></trkpt><trkpt lat="44.7359902" lon="7.323093"><ele>396.0</ele><time>2026-05-01T11:34:21.623Z</time></trkpt><trkpt lat="44.7361658" lon="7.3230541"><ele>396.0</ele><time>2026-05-01T11:34:22.623Z</time></trkpt><trkpt lat="44.736346" lon="7.323023"><ele>397.33333333333337</ele><time>2026-05-01T11:34:23.623Z</time></trkpt><trkpt lat="44.7365281" lon="7.3229926"><ele>398.6666666666667</ele><time>2026-05-01T11:34:24.623Z</time></trkpt><trkpt lat="44.736711" lon="7.322965"><ele>400.0</ele><time>2026-05-01T11:34:25.623Z</time></trkpt><trkpt lat="44.7368986" lon="7.3229277"><ele>400.0</ele><time>2026-05-01T11:34:26.622Z</time></trkpt><trkpt lat="44.7370837" lon="7.3228943"><ele>400.0</ele><time>2026-05-01T11:34:27.623Z</time></trkpt><trkpt lat="44.7372675" lon="7.3228608"><ele>400.0</ele><time>2026-05-01T11:34:28.623Z</time></trkpt><trkpt lat="44.7374542" lon="7.3228273"><ele>400.0</ele><time>2026-05-01T11:34:29.623Z</time></trkpt><trkpt lat="44.7376417" lon="7.3227904"><ele>400.0</ele><time>2026-05-01T11:34:30.623Z</time></trkpt><trkpt lat="44.7378305" lon="7.3227521"><ele>400.0</ele><time>2026-05-01T11:34:31.623Z</time></trkpt><trkpt lat="44.7380216" lon="7.3227156"><ele>399.33333333333337</ele><time>2026-05-01T11:34:32.623Z</time></trkpt><trkpt lat="44.7382157" lon="7.3226811"><ele>398.66666666666663</ele><time>2026-05-01T11:34:33.622Z</time></trkpt><trkpt lat="44.7384015" lon="7.3226442"><ele>398.0</ele><time>2026-05-01T11:34:34.623Z</time></trkpt><trkpt lat="44.7385774" lon="7.3226118"><ele>398.0</ele><time>2026-05-01T11:34:35.623Z</time></trkpt><trkpt lat="44.7387486" lon="7.3225865"><ele>398.0</ele><time>2026-05-01T11:34:36.623Z</time></trkpt><trkpt lat="44.7389225" lon="7.32256"><ele>398.0</ele><time>2026-05-01T11:34:37.623Z</time></trkpt><trkpt lat="44.7390972" lon="7.3225326"><ele>398.0</ele><time>2026-05-01T11:34:38.623Z</time></trkpt><trkpt lat="44.7392747" lon="7.3225017"><ele>398.0</ele><time>2026-05-01T11:34:39.623Z</time></trkpt><trkpt lat="44.7394588" lon="7.3224632"><ele>398.0</ele><time>2026-05-01T11:34:40.623Z</time></trkpt><trkpt lat="44.7396483" lon="7.3224226"><ele>397.66666666666663</ele><time>2026-05-01T11:34:41.623Z</time></trkpt><trkpt lat="44.7398417" lon="7.3223827"><ele>397.33333333333337</ele><time>2026-05-01T11:34:42.623Z</time></trkpt><trkpt lat="44.7400412" lon="7.3223479"><ele>397.0</ele><time>2026-05-01T11:34:43.623Z</time></trkpt><trkpt lat="44.7402442" lon="7.3223092"><ele>396.33333333333337</ele><time>2026-05-01T11:34:44.623Z</time></trkpt><trkpt lat="44.7404498" lon="7.3222598"><ele>395.66666666666663</ele><time>2026-05-01T11:34:45.623Z</time></trkpt><trkpt lat="44.740655" lon="7.3221996"><ele>395.0</ele><time>2026-05-01T11:34:46.623Z</time></trkpt><trkpt lat="44.7408591" lon="7.3221216"><ele>396.0</ele><time>2026-05-01T11:34:47.623Z</time></trkpt><trkpt lat="44.7410629" lon="7.3220254"><ele>397.0</ele><time>2026-05-01T11:34:48.623Z</time></trkpt><trkpt lat="44.7412628" lon="7.3219126"><ele>398.0</ele><time>2026-05-01T11:34:49.623Z</time></trkpt><trkpt lat="44.7414593" lon="7.3217846"><ele>398.0</ele><time>2026-05-01T11:34:50.623Z</time></trkpt><trkpt lat="44.7416536" lon="7.3216536"><ele>398.0</ele><time>2026-05-01T11:34:51.623Z</time></trkpt><trkpt lat="44.7418569" lon="7.3215139"><ele>398.0</ele><time>2026-05-01T11:34:52.623Z</time></trkpt><trkpt lat="44.7420678" lon="7.3213618"><ele>399.5</ele><time>2026-05-01T11:34:53.623Z</time></trkpt><trkpt lat="44.7422861" lon="7.3212029"><ele>401.0</ele><time>2026-05-01T11:34:54.623Z</time></trkpt><trkpt lat="44.7425079" lon="7.3210391"><ele>400.5</ele><time>2026-05-01T11:34:55.623Z</time></trkpt><trkpt lat="44.7427368" lon="7.3208898"><ele>400.0</ele><time>2026-05-01T11:34:56.623Z</time></trkpt><trkpt lat="44.7429706" lon="7.320741"><ele>400.0</ele><time>2026-05-01T11:34:57.623Z</time></trkpt><trkpt lat="44.7431967" lon="7.3205888"><ele>400.0</ele><time>2026-05-01T11:34:58.623Z</time></trkpt><trkpt lat="44.7434072" lon="7.3204435"><ele>401.0</ele><time>2026-05-01T11:34:59.623Z</time></trkpt><trkpt lat="44.7436062" lon="7.3203112"><ele>402.0</ele><time>2026-05-01T11:35:00.623Z</time></trkpt><trkpt lat="44.7438062" lon="7.3201729"><ele>403.0</ele><time>2026-05-01T11:35:01.623Z</time></trkpt><trkpt lat="44.7440035" lon="7.3200377"><ele>403.0</ele><time>2026-05-01T11:35:02.623Z</time></trkpt><trkpt lat="44.744197" lon="7.3199008"><ele>403.0</ele><time>2026-05-01T11:35:03.623Z</time></trkpt><trkpt lat="44.7443887" lon="7.319771"><ele>403.0</ele><time>2026-05-01T11:35:04.623Z</time></trkpt><trkpt lat="44.7445763" lon="7.3196436"><ele>403.33333333333337</ele><time>2026-05-01T11:35:05.623Z</time></trkpt><trkpt lat="44.7447625" lon="7.3195205"><ele>403.66666666666663</ele><time>2026-05-01T11:35:06.623Z</time></trkpt><trkpt lat="44.7449491" lon="7.3193945"><ele>404.0</ele><time>2026-05-01T11:35:07.623Z</time></trkpt><trkpt lat="44.7451353" lon="7.3192662"><ele>402.66666666666663</ele><time>2026-05-01T11:35:08.623Z</time></trkpt><trkpt lat="44.7453227" lon="7.3191366"><ele>401.33333333333337</ele><time>2026-05-01T11:35:09.623Z</time></trkpt><trkpt lat="44.7455109" lon="7.3190061"><ele>400.0</ele><time>2026-05-01T11:35:10.623Z</time></trkpt><trkpt lat="44.7457019" lon="7.318875"><ele>400.0</ele><time>2026-05-01T11:35:11.623Z</time></trkpt><trkpt lat="44.7458923" lon="7.3187464"><ele>400.0</ele><time>2026-05-01T11:35:12.623Z</time></trkpt><trkpt lat="44.7460881" lon="7.3186091"><ele>400.0</ele><time>2026-05-01T11:35:13.622Z</time></trkpt><trkpt lat="44.7462821" lon="7.3184686"><ele>399.6666666666667</ele><time>2026-05-01T11:35:14.623Z</time></trkpt><trkpt lat="44.7464781" lon="7.3183304"><ele>399.33333333333337</ele><time>2026-05-01T11:35:15.623Z</time></trkpt><trkpt lat="44.7466767" lon="7.3181948"><ele>399.0</ele><time>2026-05-01T11:35:16.623Z</time></trkpt><trkpt lat="44.7468687" lon="7.318066"><ele>399.0</ele><time>2026-05-01T11:35:17.623Z</time></trkpt><trkpt lat="44.7470583" lon="7.3179366"><ele>399.0</ele><time>2026-05-01T11:35:18.623Z</time></trkpt><trkpt lat="44.7472442" lon="7.3178104"><ele>399.0</ele><time>2026-05-01T11:35:19.623Z</time></trkpt><trkpt lat="44.7474346" lon="7.3176977"><ele>399.0</ele><time>2026-05-01T11:35:20.623Z</time></trkpt><trkpt lat="44.7476266" lon="7.3175938"><ele>399.0</ele><time>2026-05-01T11:35:21.623Z</time></trkpt><trkpt lat="44.7478248" lon="7.3175058"><ele>399.0</ele><time>2026-05-01T11:35:22.623Z</time></trkpt><trkpt lat="44.7480283" lon="7.3174324"><ele>397.33333333333337</ele><time>2026-05-01T11:35:23.623Z</time></trkpt><trkpt lat="44.7482348" lon="7.3173742"><ele>395.6666666666667</ele><time>2026-05-01T11:35:24.623Z</time></trkpt><trkpt lat="44.748456" lon="7.3173373"><ele>394.0</ele><time>2026-05-01T11:35:25.623Z</time></trkpt><trkpt lat="44.7486813" lon="7.3173151"><ele>393.5</ele><time>2026-05-01T11:35:26.623Z</time></trkpt><trkpt lat="44.7489133" lon="7.3173065"><ele>393.0</ele><time>2026-05-01T11:35:27.623Z</time></trkpt><trkpt lat="44.7491539" lon="7.3173018"><ele>392.5</ele><time>2026-05-01T11:35:28.623Z</time></trkpt><trkpt lat="44.7493999" lon="7.3172956"><ele>392.0</ele><time>2026-05-01T11:35:29.623Z</time></trkpt><trkpt lat="44.7496507" lon="7.3172831"><ele>392.0</ele><time>2026-05-01T11:35:30.623Z</time></trkpt><trkpt lat="44.7499065" lon="7.3172733"><ele>392.0</ele><time>2026-05-01T11:35:31.622Z</time></trkpt><trkpt lat="44.7501643" lon="7.3172651"><ele>391.5</ele><time>2026-05-01T11:35:32.623Z</time></trkpt><trkpt lat="44.7504291" lon="7.3172544"><ele>391.0</ele><time>2026-05-01T11:35:33.623Z</time></trkpt><trkpt lat="44.7506818" lon="7.3172455"><ele>391.0</ele><time>2026-05-01T11:35:34.623Z</time></trkpt><trkpt lat="44.7509203" lon="7.317238"><ele>391.0</ele><time>2026-05-01T11:35:35.623Z</time></trkpt><trkpt lat="44.7511476" lon="7.3172289"><ele>390.6666666666667</ele><time>2026-05-01T11:35:36.623Z</time></trkpt><trkpt lat="44.7513669" lon="7.3172258"><ele>390.33333333333337</ele><time>2026-05-01T11:35:37.623Z</time></trkpt><trkpt lat="44.7515804" lon="7.3172192"><ele>390.0</ele><time>2026-05-01T11:35:38.623Z</time></trkpt><trkpt lat="44.7517887" lon="7.317205"><ele>389.33333333333337</ele><time>2026-05-01T11:35:39.622Z</time></trkpt><trkpt lat="44.7519923" lon="7.3171776"><ele>388.6666666666667</ele><time>2026-05-01T11:35:40.623Z</time></trkpt><trkpt lat="44.7521975" lon="7.3171361"><ele>388.0</ele><time>2026-05-01T11:35:41.623Z</time></trkpt><trkpt lat="44.7524015" lon="7.3170822"><ele>388.0</ele><time>2026-05-01T11:35:42.623Z</time></trkpt><trkpt lat="44.7526013" lon="7.3170104"><ele>388.0</ele><time>2026-05-01T11:35:43.622Z</time></trkpt><trkpt lat="44.75279" lon="7.3169222"><ele>388.0</ele><time>2026-05-01T11:35:44.623Z</time></trkpt><trkpt lat="44.7529644" lon="7.3168247"><ele>387.33333333333337</ele><time>2026-05-01T11:35:45.623Z</time></trkpt><trkpt lat="44.7531273" lon="7.3167215"><ele>386.66666666666663</ele><time>2026-05-01T11:35:46.623Z</time></trkpt><trkpt lat="44.7532778" lon="7.3166147"><ele>386.0</ele><time>2026-05-01T11:35:47.623Z</time></trkpt><trkpt lat="44.7534184" lon="7.316505"><ele>385.0</ele><time>2026-05-01T11:35:48.622Z</time></trkpt><trkpt lat="44.7535482" lon="7.3163927"><ele>384.0</ele><time>2026-05-01T11:35:49.623Z</time></trkpt><trkpt lat="44.7536715" lon="7.3162848"><ele>383.0</ele><time>2026-05-01T11:35:50.623Z</time></trkpt><trkpt lat="44.7537934" lon="7.316179"><ele>382.0</ele><time>2026-05-01T11:35:51.623Z</time></trkpt><trkpt lat="44.7539112" lon="7.316074"><ele>382.0</ele><time>2026-05-01T11:35:52.623Z</time></trkpt><trkpt lat="44.7540274" lon="7.3159769"><ele>382.0</ele><time>2026-05-01T11:35:53.623Z</time></trkpt><trkpt lat="44.7541434" lon="7.3158704"><ele>382.0</ele><time>2026-05-01T11:35:54.623Z</time></trkpt><trkpt lat="44.7542602" lon="7.3157646"><ele>382.0</ele><time>2026-05-01T11:35:55.623Z</time></trkpt><trkpt lat="44.7543791" lon="7.3156549"><ele>382.25</ele><time>2026-05-01T11:35:56.623Z</time></trkpt><trkpt lat="44.7544984" lon="7.3155458"><ele>382.5</ele><time>2026-05-01T11:35:57.623Z</time></trkpt><trkpt lat="44.7546195" lon="7.3154296"><ele>382.75</ele><time>2026-05-01T11:35:58.623Z</time></trkpt><trkpt lat="44.7547413" lon="7.3153182"><ele>383.0</ele><time>2026-05-01T11:35:59.623Z</time></trkpt><trkpt lat="44.754866" lon="7.3152018"><ele>383.0</ele><time>2026-05-01T11:36:00.622Z</time></trkpt><trkpt lat="44.7549961" lon="7.3150938"><ele>383.0</ele><time>2026-05-01T11:36:01.622Z</time></trkpt><trkpt lat="44.7551274" lon="7.3149768"><ele>383.0</ele><time>2026-05-01T11:36:02.623Z</time></trkpt><trkpt lat="44.7552581" lon="7.3148576"><ele>380.33333333333337</ele><time>2026-05-01T11:36:03.623Z</time></trkpt><trkpt lat="44.7553915" lon="7.3147424"><ele>377.6666666666667</ele><time>2026-05-01T11:36:04.623Z</time></trkpt><trkpt lat="44.7555281" lon="7.3146252"><ele>375.0</ele><time>2026-05-01T11:36:05.623Z</time></trkpt><trkpt lat="44.7556647" lon="7.3145109"><ele>375.0</ele><time>2026-05-01T11:36:06.623Z</time></trkpt><trkpt lat="44.7558068" lon="7.314399"><ele>375.0</ele><time>2026-05-01T11:36:07.623Z</time></trkpt><trkpt lat="44.7559483" lon="7.3143086"><ele>375.0</ele><time>2026-05-01T11:36:08.623Z</time></trkpt><trkpt lat="44.756094" lon="7.3142271"><ele>375.6666666666667</ele><time>2026-05-01T11:36:09.623Z</time></trkpt><trkpt lat="44.7562451" lon="7.3141543"><ele>376.33333333333337</ele><time>2026-05-01T11:36:10.623Z</time></trkpt><trkpt lat="44.7563947" lon="7.3140903"><ele>377.0</ele><time>2026-05-01T11:36:11.623Z</time></trkpt><trkpt lat="44.7565422" lon="7.3140395"><ele>377.0</ele><time>2026-05-01T11:36:12.623Z</time></trkpt><trkpt lat="44.7566807" lon="7.313997"><ele>377.0</ele><time>2026-05-01T11:36:13.623Z</time></trkpt><trkpt lat="44.7568162" lon="7.3139628"><ele>377.0</ele><time>2026-05-01T11:36:14.623Z</time></trkpt><trkpt lat="44.756939" lon="7.3139283"><ele>377.0</ele><time>2026-05-01T11:36:15.623Z</time></trkpt><trkpt lat="44.7570605" lon="7.3138994"><ele>377.75</ele><time>2026-05-01T11:36:16.623Z</time></trkpt><trkpt lat="44.7571802" lon="7.3138757"><ele>378.5</ele><time>2026-05-01T11:36:17.622Z</time></trkpt><trkpt lat="44.7573015" lon="7.3138607"><ele>379.25</ele><time>2026-05-01T11:36:18.623Z</time></trkpt><trkpt lat="44.7574276" lon="7.3138621"><ele>380.0</ele><time>2026-05-01T11:36:19.623Z</time></trkpt><trkpt lat="44.757557" lon="7.3138531"><ele>380.0</ele><time>2026-05-01T11:36:20.623Z</time></trkpt><trkpt lat="44.7576933" lon="7.3138317"><ele>380.0</ele><time>2026-05-01T11:36:21.623Z</time></trkpt><trkpt lat="44.7578387" lon="7.3138091"><ele>380.0</ele><time>2026-05-01T11:36:22.623Z</time></trkpt><trkpt lat="44.7579856" lon="7.3137948"><ele>380.0</ele><time>2026-05-01T11:36:23.623Z</time></trkpt><trkpt lat="44.7581359" lon="7.3137708"><ele>379.25</ele><time>2026-05-01T11:36:24.623Z</time></trkpt><trkpt lat="44.7582775" lon="7.313747"><ele>378.5</ele><time>2026-05-01T11:36:25.623Z</time></trkpt><trkpt lat="44.7584157" lon="7.3137229"><ele>377.75</ele><time>2026-05-01T11:36:26.623Z</time></trkpt><trkpt lat="44.7585516" lon="7.313698"><ele>377.0</ele><time>2026-05-01T11:36:27.623Z</time></trkpt><trkpt lat="44.7586881" lon="7.3136707"><ele>376.5</ele><time>2026-05-01T11:36:28.623Z</time></trkpt><trkpt lat="44.7588268" lon="7.3136461"><ele>376.0</ele><time>2026-05-01T11:36:29.623Z</time></trkpt><trkpt lat="44.7589665" lon="7.313626"><ele>375.5</ele><time>2026-05-01T11:36:30.623Z</time></trkpt><trkpt lat="44.7591073" lon="7.313602"><ele>375.0</ele><time>2026-05-01T11:36:31.623Z</time></trkpt><trkpt lat="44.7592416" lon="7.3135818"><ele>374.75</ele><time>2026-05-01T11:36:32.623Z</time></trkpt><trkpt lat="44.7593684" lon="7.3135615"><ele>374.5</ele><time>2026-05-01T11:36:33.623Z</time></trkpt><trkpt lat="44.7594875" lon="7.3135551"><ele>374.25</ele><time>2026-05-01T11:36:34.623Z</time></trkpt><trkpt lat="44.7595997" lon="7.313574"><ele>374.0</ele><time>2026-05-01T11:36:35.623Z</time></trkpt><trkpt lat="44.7596982" lon="7.3136321"><ele>374.0</ele><time>2026-05-01T11:36:36.623Z</time></trkpt><trkpt lat="44.7597826" lon="7.313732"><ele>374.0</ele><time>2026-05-01T11:36:37.623Z</time></trkpt><trkpt lat="44.7598526" lon="7.3138661"><ele>374.0</ele><time>2026-05-01T11:36:38.623Z</time></trkpt><trkpt lat="44.7599246" lon="7.3140166"><ele>374.0</ele><time>2026-05-01T11:36:39.623Z</time></trkpt><trkpt lat="44.7600004" lon="7.3141855"><ele>373.75</ele><time>2026-05-01T11:36:40.623Z</time></trkpt><trkpt lat="44.7600831" lon="7.3143624"><ele>373.5</ele><time>2026-05-01T11:36:41.623Z</time></trkpt><trkpt lat="44.7601573" lon="7.3145318"><ele>373.25</ele><time>2026-05-01T11:36:42.623Z</time></trkpt><trkpt lat="44.76023" lon="7.3146925"><ele>373.0</ele><time>2026-05-01T11:36:43.623Z</time></trkpt><trkpt lat="44.7603033" lon="7.3148494"><ele>371.75</ele><time>2026-05-01T11:36:44.623Z</time></trkpt><trkpt lat="44.7603785" lon="7.3150094"><ele>370.5</ele><time>2026-05-01T11:36:45.623Z</time></trkpt><trkpt lat="44.7604499" lon="7.315161"><ele>369.25</ele><time>2026-05-01T11:36:46.623Z</time></trkpt><trkpt lat="44.7605113" lon="7.3153057"><ele>368.0</ele><time>2026-05-01T11:36:47.623Z</time></trkpt><trkpt lat="44.7605753" lon="7.3154353"><ele>368.0</ele><time>2026-05-01T11:36:48.623Z</time></trkpt><trkpt lat="44.7606401" lon="7.3155315"><ele>368.0</ele><time>2026-05-01T11:36:49.623Z</time></trkpt><trkpt lat="44.7607176" lon="7.3155873"><ele>368.0</ele><time>2026-05-01T11:36:50.623Z</time></trkpt><trkpt lat="44.7607923" lon="7.3156067"><ele>368.0</ele><time>2026-05-01T11:36:51.623Z</time></trkpt><trkpt lat="44.7608766" lon="7.3155397"><ele>368.0</ele><time>2026-05-01T11:36:52.623Z</time></trkpt><trkpt lat="44.7609614" lon="7.3154612"><ele>367.75</ele><time>2026-05-01T11:36:53.623Z</time></trkpt><trkpt lat="44.761061" lon="7.3153736"><ele>367.5</ele><time>2026-05-01T11:36:54.623Z</time></trkpt><trkpt lat="44.761171" lon="7.3152773"><ele>367.25</ele><time>2026-05-01T11:36:55.623Z</time></trkpt><trkpt lat="44.7612858" lon="7.3151746"><ele>367.0</ele><time>2026-05-01T11:36:56.623Z</time></trkpt><trkpt lat="44.7613924" lon="7.3150757"><ele>367.0</ele><time>2026-05-01T11:36:57.623Z</time></trkpt><trkpt lat="44.7615034" lon="7.3149751"><ele>367.0</ele><time>2026-05-01T11:36:58.623Z</time></trkpt><trkpt lat="44.761616" lon="7.3148754"><ele>367.0</ele><time>2026-05-01T11:36:59.623Z</time></trkpt><trkpt lat="44.7617279" lon="7.3147709"><ele>367.0</ele><time>2026-05-01T11:37:00.623Z</time></trkpt><trkpt lat="44.7618424" lon="7.3146665"><ele>366.25</ele><time>2026-05-01T11:37:01.623Z</time></trkpt><trkpt lat="44.7619584" lon="7.3145591"><ele>365.5</ele><time>2026-05-01T11:37:02.623Z</time></trkpt><trkpt lat="44.7620773" lon="7.3144475"><ele>364.75</ele><time>2026-05-01T11:37:03.623Z</time></trkpt><trkpt lat="44.7622004" lon="7.3143322"><ele>364.0</ele><time>2026-05-01T11:37:04.623Z</time></trkpt><trkpt lat="44.76233" lon="7.3142204"><ele>364.0</ele><time>2026-05-01T11:37:05.623Z</time></trkpt><trkpt lat="44.7624628" lon="7.3141015"><ele>364.0</ele><time>2026-05-01T11:37:06.623Z</time></trkpt><trkpt lat="44.7626127" lon="7.3139723"><ele>364.0</ele><time>2026-05-01T11:37:07.623Z</time></trkpt><trkpt lat="44.7627693" lon="7.3138308"><ele>363.66666666666663</ele><time>2026-05-01T11:37:08.623Z</time></trkpt><trkpt lat="44.7629279" lon="7.3136897"><ele>363.3333333333333</ele><time>2026-05-01T11:37:09.623Z</time></trkpt><trkpt lat="44.763076" lon="7.3135579"><ele>363.0</ele><time>2026-05-01T11:37:10.623Z</time></trkpt><trkpt lat="44.7632182" lon="7.3134262"><ele>363.0</ele><time>2026-05-01T11:37:11.623Z</time></trkpt><trkpt lat="44.7633561" lon="7.3133025"><ele>363.0</ele><time>2026-05-01T11:37:12.623Z</time></trkpt><trkpt lat="44.7634925" lon="7.3131768"><ele>363.0</ele><time>2026-05-01T11:37:13.623Z</time></trkpt><trkpt lat="44.7636302" lon="7.3130536"><ele>362.3333333333333</ele><time>2026-05-01T11:37:14.623Z</time></trkpt><trkpt lat="44.7637658" lon="7.3129325"><ele>361.66666666666663</ele><time>2026-05-01T11:37:15.623Z</time></trkpt><trkpt lat="44.7639023" lon="7.3128132"><ele>361.0</ele><time>2026-05-01T11:37:16.623Z</time></trkpt><trkpt lat="44.7640384" lon="7.3126933"><ele>361.0</ele><time>2026-05-01T11:37:17.623Z</time></trkpt><trkpt lat="44.7641755" lon="7.3125715"><ele>361.0</ele><time>2026-05-01T11:37:18.623Z</time></trkpt><trkpt lat="44.7643135" lon="7.3124526"><ele>361.0</ele><time>2026-05-01T11:37:19.623Z</time></trkpt><trkpt lat="44.7644506" lon="7.312325"><ele>360.66666666666663</ele><time>2026-05-01T11:37:20.623Z</time></trkpt><trkpt lat="44.7645911" lon="7.3122024"><ele>360.3333333333333</ele><time>2026-05-01T11:37:21.623Z</time></trkpt><trkpt lat="44.7647321" lon="7.3120765"><ele>360.0</ele><time>2026-05-01T11:37:22.623Z</time></trkpt><trkpt lat="44.7648725" lon="7.311951"><ele>360.0</ele><time>2026-05-01T11:37:23.623Z</time></trkpt><trkpt lat="44.7650115" lon="7.3118261"><ele>360.0</ele><time>2026-05-01T11:37:24.623Z</time></trkpt><trkpt lat="44.7651469" lon="7.3116994"><ele>360.0</ele><time>2026-05-01T11:37:25.623Z</time></trkpt><trkpt lat="44.7652838" lon="7.3115743"><ele>360.0</ele><time>2026-05-01T11:37:26.623Z</time></trkpt><trkpt lat="44.7654201" lon="7.3114493"><ele>360.0</ele><time>2026-05-01T11:37:27.623Z</time></trkpt><trkpt lat="44.7655524" lon="7.3113247"><ele>360.0</ele><time>2026-05-01T11:37:28.622Z</time></trkpt><trkpt lat="44.7656824" lon="7.3111969"><ele>360.0</ele><time>2026-05-01T11:37:29.623Z</time></trkpt><trkpt lat="44.7658125" lon="7.3110727"><ele>360.0</ele><time>2026-05-01T11:37:30.623Z</time></trkpt><trkpt lat="44.7659448" lon="7.3109376"><ele>360.0</ele><time>2026-05-01T11:37:31.623Z</time></trkpt><trkpt lat="44.7660776" lon="7.3108032"><ele>359.0</ele><time>2026-05-01T11:37:32.623Z</time></trkpt><trkpt lat="44.7662094" lon="7.3106656"><ele>358.0</ele><time>2026-05-01T11:37:33.623Z</time></trkpt><trkpt lat="44.7663407" lon="7.3105292"><ele>357.0</ele><time>2026-05-01T11:37:34.623Z</time></trkpt><trkpt lat="44.7664759" lon="7.3103933"><ele>357.0</ele><time>2026-05-01T11:37:35.623Z</time></trkpt><trkpt lat="44.7666099" lon="7.3102563"><ele>357.0</ele><time>2026-05-01T11:37:36.623Z</time></trkpt><trkpt lat="44.7667473" lon="7.3101195"><ele>357.0</ele><time>2026-05-01T11:37:37.623Z</time></trkpt><trkpt lat="44.7668829" lon="7.3099874"><ele>357.6666666666667</ele><time>2026-05-01T11:37:38.623Z</time></trkpt><trkpt lat="44.7670188" lon="7.3098533"><ele>358.33333333333337</ele><time>2026-05-01T11:37:39.623Z</time></trkpt><trkpt lat="44.7671533" lon="7.3097201"><ele>359.0</ele><time>2026-05-01T11:37:40.623Z</time></trkpt><trkpt lat="44.7672862" lon="7.3095859"><ele>359.33333333333337</ele><time>2026-05-01T11:37:41.623Z</time></trkpt><trkpt lat="44.7674144" lon="7.3094627"><ele>359.6666666666667</ele><time>2026-05-01T11:37:42.623Z</time></trkpt><trkpt lat="44.767537" lon="7.3093412"><ele>360.0</ele><time>2026-05-01T11:37:43.623Z</time></trkpt><trkpt lat="44.7676569" lon="7.3092242"><ele>360.5</ele><time>2026-05-01T11:37:44.623Z</time></trkpt><trkpt lat="44.7677753" lon="7.309107"><ele>361.0</ele><time>2026-05-01T11:37:45.623Z</time></trkpt><trkpt lat="44.767896" lon="7.3089896"><ele>361.5</ele><time>2026-05-01T11:37:46.623Z</time></trkpt><trkpt lat="44.7680148" lon="7.3088763"><ele>362.0</ele><time>2026-05-01T11:37:47.623Z</time></trkpt><trkpt lat="44.768126" lon="7.3087767"><ele>362.25</ele><time>2026-05-01T11:37:48.622Z</time></trkpt><trkpt lat="44.768235" lon="7.3086854"><ele>362.5</ele><time>2026-05-01T11:37:49.623Z</time></trkpt><trkpt lat="44.7683462" lon="7.3085955"><ele>362.75</ele><time>2026-05-01T11:37:50.623Z</time></trkpt><trkpt lat="44.7684616" lon="7.3085126"><ele>363.0</ele><time>2026-05-01T11:37:51.623Z</time></trkpt><trkpt lat="44.7685806" lon="7.3084381"><ele>363.75</ele><time>2026-05-01T11:37:52.623Z</time></trkpt><trkpt lat="44.7687013" lon="7.3083676"><ele>364.5</ele><time>2026-05-01T11:37:53.623Z</time></trkpt><trkpt lat="44.768823" lon="7.3083042"><ele>365.25</ele><time>2026-05-01T11:37:54.623Z</time></trkpt><trkpt lat="44.7689449" lon="7.3082453"><ele>366.0</ele><time>2026-05-01T11:37:55.623Z</time></trkpt><trkpt lat="44.7690673" lon="7.3081907"><ele>366.0</ele><time>2026-05-01T11:37:56.623Z</time></trkpt><trkpt lat="44.769193" lon="7.3081335"><ele>366.0</ele><time>2026-05-01T11:37:57.623Z</time></trkpt><trkpt lat="44.7693177" lon="7.3080813"><ele>366.0</ele><time>2026-05-01T11:37:58.623Z</time></trkpt><trkpt lat="44.7694322" lon="7.3080395"><ele>366.0</ele><time>2026-05-01T11:37:59.623Z</time></trkpt><trkpt lat="44.7695423" lon="7.3079902"><ele>366.4</ele><time>2026-05-01T11:38:00.623Z</time></trkpt><trkpt lat="44.7696538" lon="7.3079367"><ele>366.8</ele><time>2026-05-01T11:38:01.623Z</time></trkpt><trkpt lat="44.7697531" lon="7.3078795"><ele>367.2</ele><time>2026-05-01T11:38:02.623Z</time></trkpt><trkpt lat="44.7698449" lon="7.307814"><ele>367.59999999999997</ele><time>2026-05-01T11:38:03.623Z</time></trkpt><trkpt lat="44.769936" lon="7.3077428"><ele>368.0</ele><time>2026-05-01T11:38:04.623Z</time></trkpt><trkpt lat="44.7700243" lon="7.3076699"><ele>368.0</ele><time>2026-05-01T11:38:05.623Z</time></trkpt><trkpt lat="44.7701052" lon="7.3075934"><ele>368.0</ele><time>2026-05-01T11:38:06.623Z</time></trkpt><trkpt lat="44.7701832" lon="7.3075279"><ele>368.0</ele><time>2026-05-01T11:38:07.623Z</time></trkpt><trkpt lat="44.7702518" lon="7.3074645"><ele>368.0</ele><time>2026-05-01T11:38:08.623Z</time></trkpt><trkpt lat="44.770317" lon="7.3073973"><ele>368.0</ele><time>2026-05-01T11:38:09.623Z</time></trkpt><trkpt lat="44.7703876" lon="7.3073373"><ele>368.0</ele><time>2026-05-01T11:38:10.622Z</time></trkpt><trkpt lat="44.7704638" lon="7.3072684"><ele>368.0</ele><time>2026-05-01T11:38:11.623Z</time></trkpt><trkpt lat="44.7705462" lon="7.3071898"><ele>368.0</ele><time>2026-05-01T11:38:12.623Z</time></trkpt><trkpt lat="44.7706428" lon="7.3071263"><ele>368.0</ele><time>2026-05-01T11:38:13.623Z</time></trkpt><trkpt lat="44.7707387" lon="7.3070349"><ele>368.0</ele><time>2026-05-01T11:38:14.623Z</time></trkpt><trkpt lat="44.7708393" lon="7.3069336"><ele>368.0</ele><time>2026-05-01T11:38:15.623Z</time></trkpt><trkpt lat="44.770942" lon="7.306838"><ele>368.0</ele><time>2026-05-01T11:38:16.623Z</time></trkpt><trkpt lat="44.7710462" lon="7.3067434"><ele>368.0</ele><time>2026-05-01T11:38:17.623Z</time></trkpt><trkpt lat="44.7711512" lon="7.3066516"><ele>368.0</ele><time>2026-05-01T11:38:18.623Z</time></trkpt><trkpt lat="44.7712537" lon="7.306561"><ele>368.0</ele><time>2026-05-01T11:38:19.623Z</time></trkpt><trkpt lat="44.7713589" lon="7.3064613"><ele>369.5</ele><time>2026-05-01T11:38:20.623Z</time></trkpt><trkpt lat="44.7714718" lon="7.3063579"><ele>371.0</ele><time>2026-05-01T11:38:21.623Z</time></trkpt><trkpt lat="44.7715936" lon="7.3062505"><ele>372.5</ele><time>2026-05-01T11:38:22.623Z</time></trkpt><trkpt lat="44.7717208" lon="7.3061334"><ele>374.0</ele><time>2026-05-01T11:38:23.622Z</time></trkpt><trkpt lat="44.7718455" lon="7.306019"><ele>373.25</ele><time>2026-05-01T11:38:24.623Z</time></trkpt><trkpt lat="44.7719674" lon="7.3059055"><ele>372.5</ele><time>2026-05-01T11:38:25.623Z</time></trkpt><trkpt lat="44.7720888" lon="7.3057908"><ele>371.75</ele><time>2026-05-01T11:38:26.623Z</time></trkpt><trkpt lat="44.7722131" lon="7.3056693"><ele>371.0</ele><time>2026-05-01T11:38:27.623Z</time></trkpt><trkpt lat="44.7723375" lon="7.3055421"><ele>371.0</ele><time>2026-05-01T11:38:28.623Z</time></trkpt><trkpt lat="44.7724594" lon="7.3054041"><ele>371.0</ele><time>2026-05-01T11:38:29.623Z</time></trkpt><trkpt lat="44.7725787" lon="7.3052615"><ele>371.0</ele><time>2026-05-01T11:38:30.623Z</time></trkpt><trkpt lat="44.7726956" lon="7.3051091"><ele>370.33333333333337</ele><time>2026-05-01T11:38:31.623Z</time></trkpt><trkpt lat="44.7728081" lon="7.3049449"><ele>369.6666666666667</ele><time>2026-05-01T11:38:32.623Z</time></trkpt><trkpt lat="44.7729104" lon="7.3047696"><ele>369.0</ele><time>2026-05-01T11:38:33.623Z</time></trkpt><trkpt lat="44.7730102" lon="7.3045953"><ele>370.3333333333333</ele><time>2026-05-01T11:38:34.623Z</time></trkpt><trkpt lat="44.7731093" lon="7.3044156"><ele>371.66666666666663</ele><time>2026-05-01T11:38:35.623Z</time></trkpt><trkpt lat="44.7732122" lon="7.3042414"><ele>373.0</ele><time>2026-05-01T11:38:36.623Z</time></trkpt><trkpt lat="44.7733179" lon="7.3040734"><ele>372.66666666666663</ele><time>2026-05-01T11:38:37.623Z</time></trkpt><trkpt lat="44.7734296" lon="7.3039111"><ele>372.3333333333333</ele><time>2026-05-01T11:38:38.623Z</time></trkpt><trkpt lat="44.7735419" lon="7.3037573"><ele>372.0</ele><time>2026-05-01T11:38:39.622Z</time></trkpt><trkpt lat="44.7736587" lon="7.3036076"><ele>372.0</ele><time>2026-05-01T11:38:40.623Z</time></trkpt><trkpt lat="44.7737743" lon="7.3034578"><ele>372.0</ele><time>2026-05-01T11:38:41.623Z</time></trkpt><trkpt lat="44.773893" lon="7.3033027"><ele>372.0</ele><time>2026-05-01T11:38:42.623Z</time></trkpt><trkpt lat="44.7740133" lon="7.3031461"><ele>373.3333333333333</ele><time>2026-05-01T11:38:43.623Z</time></trkpt><trkpt lat="44.7741371" lon="7.3029895"><ele>374.66666666666663</ele><time>2026-05-01T11:38:44.623Z</time></trkpt><trkpt lat="44.774262" lon="7.3028376"><ele>376.0</ele><time>2026-05-01T11:38:45.623Z</time></trkpt><trkpt lat="44.7743837" lon="7.3026905"><ele>376.0</ele><time>2026-05-01T11:38:46.623Z</time></trkpt><trkpt lat="44.7745031" lon="7.3025481"><ele>376.0</ele><time>2026-05-01T11:38:47.622Z</time></trkpt><trkpt lat="44.7746239" lon="7.302413"><ele>376.0</ele><time>2026-05-01T11:38:48.623Z</time></trkpt><trkpt lat="44.7747455" lon="7.3022893"><ele>378.66666666666663</ele><time>2026-05-01T11:38:49.623Z</time></trkpt><trkpt lat="44.774869" lon="7.3021756"><ele>381.3333333333333</ele><time>2026-05-01T11:38:50.623Z</time></trkpt><trkpt lat="44.7750083" lon="7.3020763"><ele>384.0</ele><time>2026-05-01T11:38:51.623Z</time></trkpt><trkpt lat="44.7751584" lon="7.3019998"><ele>383.6666666666667</ele><time>2026-05-01T11:38:52.623Z</time></trkpt><trkpt lat="44.7753164" lon="7.3019443"><ele>383.33333333333337</ele><time>2026-05-01T11:38:53.623Z</time></trkpt><trkpt lat="44.775481" lon="7.3019123"><ele>383.0</ele><time>2026-05-01T11:38:54.623Z</time></trkpt><trkpt lat="44.7756511" lon="7.3018872"><ele>383.0</ele><time>2026-05-01T11:38:55.623Z</time></trkpt><trkpt lat="44.7758234" lon="7.3018612"><ele>383.0</ele><time>2026-05-01T11:38:56.623Z</time></trkpt><trkpt lat="44.7759803" lon="7.3018389"><ele>383.0</ele><time>2026-05-01T11:38:57.623Z</time></trkpt><trkpt lat="44.7761356" lon="7.3018145"><ele>383.33333333333337</ele><time>2026-05-01T11:38:58.623Z</time></trkpt><trkpt lat="44.7762898" lon="7.3017928"><ele>383.6666666666667</ele><time>2026-05-01T11:38:59.623Z</time></trkpt><trkpt lat="44.7764443" lon="7.3017773"><ele>384.0</ele><time>2026-05-01T11:39:00.623Z</time></trkpt><trkpt lat="44.7766061" lon="7.3017533"><ele>384.0</ele><time>2026-05-01T11:39:01.623Z</time></trkpt><trkpt lat="44.7767706" lon="7.3017255"><ele>384.0</ele><time>2026-05-01T11:39:02.623Z</time></trkpt><trkpt lat="44.7769348" lon="7.3017012"><ele>384.0</ele><time>2026-05-01T11:39:03.623Z</time></trkpt><trkpt lat="44.777096" lon="7.3016761"><ele>383.6666666666667</ele><time>2026-05-01T11:39:04.623Z</time></trkpt><trkpt lat="44.7772541" lon="7.301651"><ele>383.33333333333337</ele><time>2026-05-01T11:39:05.623Z</time></trkpt><trkpt lat="44.7774078" lon="7.3016161"><ele>383.0</ele><time>2026-05-01T11:39:06.623Z</time></trkpt><trkpt lat="44.7775588" lon="7.3015776"><ele>382.33333333333337</ele><time>2026-05-01T11:39:07.623Z</time></trkpt><trkpt lat="44.7777051" lon="7.3015136"><ele>381.6666666666667</ele><time>2026-05-01T11:39:08.623Z</time></trkpt><trkpt lat="44.7778641" lon="7.301419"><ele>381.0</ele><time>2026-05-01T11:39:09.623Z</time></trkpt><trkpt lat="44.7780252" lon="7.301315"><ele>382.66666666666663</ele><time>2026-05-01T11:39:10.623Z</time></trkpt><trkpt lat="44.7781782" lon="7.3012161"><ele>384.3333333333333</ele><time>2026-05-01T11:39:11.623Z</time></trkpt><trkpt lat="44.7783297" lon="7.301123"><ele>386.0</ele><time>2026-05-01T11:39:12.623Z</time></trkpt><trkpt lat="44.7784822" lon="7.3010322"><ele>385.3333333333333</ele><time>2026-05-01T11:39:13.623Z</time></trkpt><trkpt lat="44.7786359" lon="7.3009471"><ele>384.66666666666663</ele><time>2026-05-01T11:39:14.623Z</time></trkpt><trkpt lat="44.7787921" lon="7.3008671"><ele>384.0</ele><time>2026-05-01T11:39:15.623Z</time></trkpt><trkpt lat="44.7789501" lon="7.3007889"><ele>384.0</ele><time>2026-05-01T11:39:16.623Z</time></trkpt><trkpt lat="44.7791111" lon="7.3007229"><ele>384.0</ele><time>2026-05-01T11:39:17.623Z</time></trkpt><trkpt lat="44.7792695" lon="7.3006612"><ele>384.0</ele><time>2026-05-01T11:39:18.623Z</time></trkpt><trkpt lat="44.7794276" lon="7.3005986"><ele>386.33333333333337</ele><time>2026-05-01T11:39:19.623Z</time></trkpt><trkpt lat="44.7795892" lon="7.3005392"><ele>388.6666666666667</ele><time>2026-05-01T11:39:20.623Z</time></trkpt><trkpt lat="44.7797484" lon="7.3004741"><ele>391.0</ele><time>2026-05-01T11:39:21.623Z</time></trkpt><trkpt lat="44.7799026" lon="7.3004067"><ele>391.0</ele><time>2026-05-01T11:39:22.622Z</time></trkpt><trkpt lat="44.7800552" lon="7.3003285"><ele>391.0</ele><time>2026-05-01T11:39:23.623Z</time></trkpt><trkpt lat="44.7802035" lon="7.3002298"><ele>391.0</ele><time>2026-05-01T11:39:24.623Z</time></trkpt><trkpt lat="44.7803507" lon="7.300117"><ele>386.6666666666667</ele><time>2026-05-01T11:39:25.623Z</time></trkpt><trkpt lat="44.7804974" lon="7.3000017"><ele>382.33333333333337</ele><time>2026-05-01T11:39:26.623Z</time></trkpt><trkpt lat="44.7806464" lon="7.2998886"><ele>378.0</ele><time>2026-05-01T11:39:27.623Z</time></trkpt><trkpt lat="44.7807996" lon="7.2997761"><ele>379.0</ele><time>2026-05-01T11:39:28.623Z</time></trkpt><trkpt lat="44.7809539" lon="7.2996663"><ele>380.0</ele><time>2026-05-01T11:39:29.623Z</time></trkpt><trkpt lat="44.7811135" lon="7.2995648"><ele>381.0</ele><time>2026-05-01T11:39:30.623Z</time></trkpt><trkpt lat="44.7812792" lon="7.2994798"><ele>381.0</ele><time>2026-05-01T11:39:31.623Z</time></trkpt><trkpt lat="44.7814494" lon="7.2994137"><ele>381.0</ele><time>2026-05-01T11:39:32.623Z</time></trkpt><trkpt lat="44.7816209" lon="7.2993635"><ele>381.0</ele><time>2026-05-01T11:39:33.623Z</time></trkpt><trkpt lat="44.7817865" lon="7.2993114"><ele>381.6666666666667</ele><time>2026-05-01T11:39:34.623Z</time></trkpt><trkpt lat="44.7819535" lon="7.2992614"><ele>382.33333333333337</ele><time>2026-05-01T11:39:35.623Z</time></trkpt><trkpt lat="44.782119" lon="7.2992092"><ele>383.0</ele><time>2026-05-01T11:39:36.623Z</time></trkpt><trkpt lat="44.7822828" lon="7.2991551"><ele>383.0</ele><time>2026-05-01T11:39:37.623Z</time></trkpt><trkpt lat="44.7824386" lon="7.2991026"><ele>383.0</ele><time>2026-05-01T11:39:38.623Z</time></trkpt><trkpt lat="44.7825936" lon="7.2990404"><ele>383.0</ele><time>2026-05-01T11:39:39.623Z</time></trkpt><trkpt lat="44.7827552" lon="7.2989637"><ele>387.6666666666667</ele><time>2026-05-01T11:39:40.623Z</time></trkpt><trkpt lat="44.7829246" lon="7.2988775"><ele>392.33333333333337</ele><time>2026-05-01T11:39:41.622Z</time></trkpt><trkpt lat="44.7830954" lon="7.2987804"><ele>397.0</ele><time>2026-05-01T11:39:42.623Z</time></trkpt><trkpt lat="44.7832616" lon="7.2986766"><ele>397.0</ele><time>2026-05-01T11:39:43.623Z</time></trkpt><trkpt lat="44.7834272" lon="7.2985542"><ele>397.0</ele><time>2026-05-01T11:39:44.623Z</time></trkpt><trkpt lat="44.783597" lon="7.2983984"><ele>397.0</ele><time>2026-05-01T11:39:45.623Z</time></trkpt><trkpt lat="44.7837723" lon="7.2982138"><ele>395.0</ele><time>2026-05-01T11:39:46.623Z</time></trkpt><trkpt lat="44.7839586" lon="7.298011"><ele>393.0</ele><time>2026-05-01T11:39:47.623Z</time></trkpt><trkpt lat="44.7841434" lon="7.2977984"><ele>393.0</ele><time>2026-05-01T11:39:48.623Z</time></trkpt><trkpt lat="44.7843286" lon="7.297575"><ele>393.0</ele><time>2026-05-01T11:39:49.623Z</time></trkpt><trkpt lat="44.7845198" lon="7.2973495"><ele>395.0</ele><time>2026-05-01T11:39:50.623Z</time></trkpt><trkpt lat="44.7847117" lon="7.2971192"><ele>397.0</ele><time>2026-05-01T11:39:51.623Z</time></trkpt><trkpt lat="44.7849038" lon="7.296882"><ele>397.0</ele><time>2026-05-01T11:39:52.623Z</time></trkpt><trkpt lat="44.7850989" lon="7.2966428"><ele>397.0</ele><time>2026-05-01T11:39:53.623Z</time></trkpt><trkpt lat="44.7852886" lon="7.296409"><ele>398.0</ele><time>2026-05-01T11:39:54.623Z</time></trkpt><trkpt lat="44.7854677" lon="7.2961897"><ele>399.0</ele><time>2026-05-01T11:39:55.623Z</time></trkpt><trkpt lat="44.785651" lon="7.2959649"><ele>399.0</ele><time>2026-05-01T11:39:56.623Z</time></trkpt><trkpt lat="44.7858376" lon="7.2957284"><ele>399.0</ele><time>2026-05-01T11:39:57.623Z</time></trkpt><trkpt lat="44.7860303" lon="7.2954858"><ele>396.5</ele><time>2026-05-01T11:39:58.622Z</time></trkpt><trkpt lat="44.7862168" lon="7.2952558"><ele>394.0</ele><time>2026-05-01T11:39:59.622Z</time></trkpt><trkpt lat="44.7863914" lon="7.2950415"><ele>394.0</ele><time>2026-05-01T11:40:00.623Z</time></trkpt><trkpt lat="44.7865619" lon="7.2948321"><ele>394.0</ele><time>2026-05-01T11:40:01.623Z</time></trkpt><trkpt lat="44.7867361" lon="7.294627"><ele>394.0</ele><time>2026-05-01T11:40:02.623Z</time></trkpt><trkpt lat="44.7869216" lon="7.2944276"><ele>394.0</ele><time>2026-05-01T11:40:03.623Z</time></trkpt><trkpt lat="44.7871137" lon="7.2942367"><ele>394.0</ele><time>2026-05-01T11:40:04.623Z</time></trkpt><trkpt lat="44.787316" lon="7.2940575"><ele>394.0</ele><time>2026-05-01T11:40:05.623Z</time></trkpt><trkpt lat="44.787516" lon="7.2939072"><ele>396.6666666666667</ele><time>2026-05-01T11:40:06.623Z</time></trkpt><trkpt lat="44.787708" lon="7.2937786"><ele>399.33333333333337</ele><time>2026-05-01T11:40:07.623Z</time></trkpt><trkpt lat="44.7878891" lon="7.2936753"><ele>402.0</ele><time>2026-05-01T11:40:08.623Z</time></trkpt><trkpt lat="44.7880627" lon="7.2935865"><ele>402.0</ele><time>2026-05-01T11:40:09.623Z</time></trkpt><trkpt lat="44.7882287" lon="7.2935127"><ele>402.0</ele><time>2026-05-01T11:40:10.623Z</time></trkpt><trkpt lat="44.788396" lon="7.2934414"><ele>402.0</ele><time>2026-05-01T11:40:11.623Z</time></trkpt><trkpt lat="44.7885651" lon="7.2933813"><ele>401.25</ele><time>2026-05-01T11:40:12.623Z</time></trkpt><trkpt lat="44.7887185" lon="7.2933369"><ele>400.5</ele><time>2026-05-01T11:40:13.623Z</time></trkpt><trkpt lat="44.7888604" lon="7.2933142"><ele>399.75</ele><time>2026-05-01T11:40:14.623Z</time></trkpt><trkpt lat="44.7889898" lon="7.2933292"><ele>399.0</ele><time>2026-05-01T11:40:15.623Z</time></trkpt><trkpt lat="44.7891125" lon="7.2933826"><ele>399.0</ele><time>2026-05-01T11:40:16.623Z</time></trkpt><trkpt lat="44.7892496" lon="7.2934589"><ele>399.0</ele><time>2026-05-01T11:40:17.623Z</time></trkpt><trkpt lat="44.7894059" lon="7.2935164"><ele>399.0</ele><time>2026-05-01T11:40:18.623Z</time></trkpt><trkpt lat="44.7895803" lon="7.2935685"><ele>397.33333333333337</ele><time>2026-05-01T11:40:19.623Z</time></trkpt><trkpt lat="44.7897656" lon="7.2936231"><ele>395.6666666666667</ele><time>2026-05-01T11:40:20.623Z</time></trkpt><trkpt lat="44.7899621" lon="7.2936809"><ele>394.0</ele><time>2026-05-01T11:40:21.623Z</time></trkpt><trkpt lat="44.7901628" lon="7.2937391"><ele>394.6666666666667</ele><time>2026-05-01T11:40:22.623Z</time></trkpt><trkpt lat="44.7903513" lon="7.2937925"><ele>395.33333333333337</ele><time>2026-05-01T11:40:23.623Z</time></trkpt><trkpt lat="44.7905454" lon="7.2938476"><ele>396.0</ele><time>2026-05-01T11:40:24.623Z</time></trkpt><trkpt lat="44.7907326" lon="7.2939046"><ele>396.0</ele><time>2026-05-01T11:40:25.623Z</time></trkpt><trkpt lat="44.7909133" lon="7.2939565"><ele>396.0</ele><time>2026-05-01T11:40:26.623Z</time></trkpt><trkpt lat="44.791086" lon="7.2940107"><ele>396.0</ele><time>2026-05-01T11:40:27.623Z</time></trkpt><trkpt lat="44.7912604" lon="7.2940711"><ele>396.0</ele><time>2026-05-01T11:40:28.623Z</time></trkpt><trkpt lat="44.7914343" lon="7.2941379"><ele>396.0</ele><time>2026-05-01T11:40:29.623Z</time></trkpt><trkpt lat="44.7916102" lon="7.2942124"><ele>396.0</ele><time>2026-05-01T11:40:30.623Z</time></trkpt><trkpt lat="44.7917838" lon="7.2942905"><ele>396.66666666666663</ele><time>2026-05-01T11:40:31.623Z</time></trkpt><trkpt lat="44.7919571" lon="7.2943689"><ele>397.3333333333333</ele><time>2026-05-01T11:40:32.623Z</time></trkpt><trkpt lat="44.7921317" lon="7.2944472"><ele>398.0</ele><time>2026-05-01T11:40:33.623Z</time></trkpt><trkpt lat="44.7923091" lon="7.2945327"><ele>398.0</ele><time>2026-05-01T11:40:34.623Z</time></trkpt><trkpt lat="44.7924895" lon="7.2946303"><ele>398.0</ele><time>2026-05-01T11:40:35.623Z</time></trkpt><trkpt lat="44.7926619" lon="7.2947312"><ele>398.0</ele><time>2026-05-01T11:40:36.623Z</time></trkpt><trkpt lat="44.7928264" lon="7.2948371"><ele>397.0</ele><time>2026-05-01T11:40:37.623Z</time></trkpt><trkpt lat="44.7929839" lon="7.2949402"><ele>396.0</ele><time>2026-05-01T11:40:38.623Z</time></trkpt><trkpt lat="44.7931496" lon="7.2950378"><ele>395.0</ele><time>2026-05-01T11:40:39.622Z</time></trkpt><trkpt lat="44.793321" lon="7.2951413"><ele>395.0</ele><time>2026-05-01T11:40:40.623Z</time></trkpt><trkpt lat="44.7934908" lon="7.2952481"><ele>395.0</ele><time>2026-05-01T11:40:41.623Z</time></trkpt><trkpt lat="44.7936573" lon="7.2953529"><ele>395.0</ele><time>2026-05-01T11:40:42.622Z</time></trkpt><trkpt lat="44.7938234" lon="7.2954544"><ele>395.3333333333333</ele><time>2026-05-01T11:40:43.623Z</time></trkpt><trkpt lat="44.7939874" lon="7.2955527"><ele>395.66666666666663</ele><time>2026-05-01T11:40:44.623Z</time></trkpt><trkpt lat="44.7941524" lon="7.295649"><ele>396.0</ele><time>2026-05-01T11:40:45.623Z</time></trkpt><trkpt lat="44.7943131" lon="7.2957488"><ele>396.66666666666663</ele><time>2026-05-01T11:40:46.623Z</time></trkpt><trkpt lat="44.7944654" lon="7.2958446"><ele>397.3333333333333</ele><time>2026-05-01T11:40:47.623Z</time></trkpt><trkpt lat="44.7946087" lon="7.2959319"><ele>398.0</ele><time>2026-05-01T11:40:48.623Z</time></trkpt><trkpt lat="44.7947483" lon="7.2960135"><ele>398.0</ele><time>2026-05-01T11:40:49.623Z</time></trkpt><trkpt lat="44.7948868" lon="7.2960955"><ele>398.0</ele><time>2026-05-01T11:40:50.623Z</time></trkpt><trkpt lat="44.7950268" lon="7.2961654"><ele>398.0</ele><time>2026-05-01T11:40:51.623Z</time></trkpt><trkpt lat="44.7951705" lon="7.2962237"><ele>398.0</ele><time>2026-05-01T11:40:52.623Z</time></trkpt><trkpt lat="44.7953063" lon="7.2962609"><ele>398.25</ele><time>2026-05-01T11:40:53.623Z</time></trkpt><trkpt lat="44.795436" lon="7.2962892"><ele>398.5</ele><time>2026-05-01T11:40:54.623Z</time></trkpt><trkpt lat="44.7955596" lon="7.2963085"><ele>398.75</ele><time>2026-05-01T11:40:55.622Z</time></trkpt><trkpt lat="44.7956839" lon="7.2963243"><ele>399.0</ele><time>2026-05-01T11:40:56.623Z</time></trkpt><trkpt lat="44.7958021" lon="7.2963378"><ele>399.0</ele><time>2026-05-01T11:40:57.623Z</time></trkpt><trkpt lat="44.7959058" lon="7.296349"><ele>399.0</ele><time>2026-05-01T11:40:58.623Z</time></trkpt><trkpt lat="44.7960071" lon="7.2963587"><ele>399.0</ele><time>2026-05-01T11:40:59.623Z</time></trkpt><trkpt lat="44.7960994" lon="7.2963736"><ele>399.0</ele><time>2026-05-01T11:41:00.623Z</time></trkpt><trkpt lat="44.7961844" lon="7.2964172"><ele>399.0</ele><time>2026-05-01T11:41:01.623Z</time></trkpt><trkpt lat="44.7962718" lon="7.296468"><ele>398.25</ele><time>2026-05-01T11:41:02.623Z</time></trkpt><trkpt lat="44.7963725" lon="7.2964726"><ele>397.5</ele><time>2026-05-01T11:41:03.623Z</time></trkpt><trkpt lat="44.7964852" lon="7.2964491"><ele>396.75</ele><time>2026-05-01T11:41:04.623Z</time></trkpt><trkpt lat="44.7966171" lon="7.2964276"><ele>396.0</ele><time>2026-05-01T11:41:05.623Z</time></trkpt><trkpt lat="44.796773" lon="7.2964213"><ele>397.0</ele><time>2026-05-01T11:41:06.623Z</time></trkpt><trkpt lat="44.7969398" lon="7.2964091"><ele>398.0</ele><time>2026-05-01T11:41:07.622Z</time></trkpt><trkpt lat="44.7971037" lon="7.2963965"><ele>399.0</ele><time>2026-05-01T11:41:08.623Z</time></trkpt><trkpt lat="44.7972939" lon="7.2963878"><ele>399.0</ele><time>2026-05-01T11:41:09.623Z</time></trkpt><trkpt lat="44.7974941" lon="7.2963873"><ele>399.0</ele><time>2026-05-01T11:41:10.623Z</time></trkpt><trkpt lat="44.7976989" lon="7.2963867"><ele>399.0</ele><time>2026-05-01T11:41:11.623Z</time></trkpt><trkpt lat="44.7979187" lon="7.2963817"><ele>399.0</ele><time>2026-05-01T11:41:12.623Z</time></trkpt><trkpt lat="44.7981437" lon="7.2963721"><ele>399.0</ele><time>2026-05-01T11:41:13.623Z</time></trkpt><trkpt lat="44.7983766" lon="7.2963569"><ele>399.5</ele><time>2026-05-01T11:41:14.622Z</time></trkpt><trkpt lat="44.798617" lon="7.2963394"><ele>400.0</ele><time>2026-05-01T11:41:15.623Z</time></trkpt><trkpt lat="44.798855" lon="7.2963228"><ele>400.0</ele><time>2026-05-01T11:41:16.623Z</time></trkpt><trkpt lat="44.7990982" lon="7.2963074"><ele>400.0</ele><time>2026-05-01T11:41:17.623Z</time></trkpt><trkpt lat="44.7993459" lon="7.2962905"><ele>400.0</ele><time>2026-05-01T11:41:18.623Z</time></trkpt><trkpt lat="44.7995903" lon="7.2962699"><ele>400.0</ele><time>2026-05-01T11:41:19.623Z</time></trkpt><trkpt lat="44.7998217" lon="7.2962465"><ele>400.0</ele><time>2026-05-01T11:41:20.623Z</time></trkpt><trkpt lat="44.8000572" lon="7.2962268"><ele>400.0</ele><time>2026-05-01T11:41:21.623Z</time></trkpt><trkpt lat="44.8002916" lon="7.2961943"><ele>400.5</ele><time>2026-05-01T11:41:22.622Z</time></trkpt><trkpt lat="44.8005226" lon="7.2961508"><ele>401.0</ele><time>2026-05-01T11:41:23.623Z</time></trkpt><trkpt lat="44.8007503" lon="7.2960956"><ele>401.0</ele><time>2026-05-01T11:41:24.623Z</time></trkpt><trkpt lat="44.8009761" lon="7.2960279"><ele>401.0</ele><time>2026-05-01T11:41:25.623Z</time></trkpt><trkpt lat="44.8011916" lon="7.295951"><ele>401.0</ele><time>2026-05-01T11:41:26.623Z</time></trkpt><trkpt lat="44.8014131" lon="7.2958604"><ele>401.0</ele><time>2026-05-01T11:41:27.623Z</time></trkpt><trkpt lat="44.8016329" lon="7.2957533"><ele>401.0</ele><time>2026-05-01T11:41:28.623Z</time></trkpt><trkpt lat="44.8018495" lon="7.2956261"><ele>401.0</ele><time>2026-05-01T11:41:29.623Z</time></trkpt><trkpt lat="44.8020669" lon="7.295481"><ele>401.0</ele><time>2026-05-01T11:41:30.623Z</time></trkpt><trkpt lat="44.8022672" lon="7.2953358"><ele>401.0</ele><time>2026-05-01T11:41:31.623Z</time></trkpt><trkpt lat="44.8024651" lon="7.2951831"><ele>402.0</ele><time>2026-05-01T11:41:32.623Z</time></trkpt><trkpt lat="44.802666" lon="7.2950135"><ele>403.0</ele><time>2026-05-01T11:41:33.623Z</time></trkpt><trkpt lat="44.8028638" lon="7.2948251"><ele>403.5</ele><time>2026-05-01T11:41:34.623Z</time></trkpt><trkpt lat="44.8030579" lon="7.2946202"><ele>404.0</ele><time>2026-05-01T11:41:35.623Z</time></trkpt><trkpt lat="44.8032472" lon="7.294399"><ele>404.0</ele><time>2026-05-01T11:41:36.623Z</time></trkpt><trkpt lat="44.8034302" lon="7.2941646"><ele>404.0</ele><time>2026-05-01T11:41:37.623Z</time></trkpt><trkpt lat="44.8035955" lon="7.293928"><ele>404.5</ele><time>2026-05-01T11:41:38.623Z</time></trkpt><trkpt lat="44.8037582" lon="7.2936686"><ele>405.0</ele><time>2026-05-01T11:41:39.623Z</time></trkpt><trkpt lat="44.8039115" lon="7.2934211"><ele>405.0</ele><time>2026-05-01T11:41:40.623Z</time></trkpt><trkpt lat="44.8040527" lon="7.2931686"><ele>405.0</ele><time>2026-05-01T11:41:41.623Z</time></trkpt><trkpt lat="44.804189" lon="7.2928978"><ele>406.5</ele><time>2026-05-01T11:41:42.623Z</time></trkpt><trkpt lat="44.8043146" lon="7.2926037"><ele>408.0</ele><time>2026-05-01T11:41:43.623Z</time></trkpt><trkpt lat="44.8044354" lon="7.2923043"><ele>408.0</ele><time>2026-05-01T11:41:44.623Z</time></trkpt><trkpt lat="44.8045509" lon="7.2919927"><ele>408.0</ele><time>2026-05-01T11:41:45.623Z</time></trkpt><trkpt lat="44.8046642" lon="7.2916702"><ele>408.5</ele><time>2026-05-01T11:41:46.623Z</time></trkpt><trkpt lat="44.804776" lon="7.2913486"><ele>409.0</ele><time>2026-05-01T11:41:47.623Z</time></trkpt><trkpt lat="44.8048916" lon="7.2910215"><ele>409.0</ele><time>2026-05-01T11:41:48.623Z</time></trkpt><trkpt lat="44.805008" lon="7.2906923"><ele>409.0</ele><time>2026-05-01T11:41:49.623Z</time></trkpt><trkpt lat="44.8051321" lon="7.2903587"><ele>409.5</ele><time>2026-05-01T11:41:50.623Z</time></trkpt><trkpt lat="44.8052608" lon="7.29003"><ele>410.0</ele><time>2026-05-01T11:41:51.623Z</time></trkpt><trkpt lat="44.8053913" lon="7.289704"><ele>410.5</ele><time>2026-05-01T11:41:52.623Z</time></trkpt><trkpt lat="44.8055156" lon="7.2893983"><ele>411.0</ele><time>2026-05-01T11:41:53.623Z</time></trkpt><trkpt lat="44.8056325" lon="7.2891164"><ele>411.66666666666663</ele><time>2026-05-01T11:41:54.623Z</time></trkpt><trkpt lat="44.8057375" lon="7.2888645"><ele>412.3333333333333</ele><time>2026-05-01T11:41:55.623Z</time></trkpt><trkpt lat="44.8058275" lon="7.2886427"><ele>413.0</ele><time>2026-05-01T11:41:56.622Z</time></trkpt><trkpt lat="44.8059111" lon="7.2884406"><ele>413.0</ele><time>2026-05-01T11:41:57.623Z</time></trkpt><trkpt lat="44.8059805" lon="7.2882661"><ele>413.0</ele><time>2026-05-01T11:41:58.623Z</time></trkpt><trkpt lat="44.8060435" lon="7.2881217"><ele>413.0</ele><time>2026-05-01T11:41:59.623Z</time></trkpt><trkpt lat="44.8061034" lon="7.2880003"><ele>413.0</ele><time>2026-05-01T11:42:00.623Z</time></trkpt><trkpt lat="44.8061647" lon="7.2878989"><ele>413.0</ele><time>2026-05-01T11:42:01.623Z</time></trkpt><trkpt lat="44.8062322" lon="7.2878283"><ele>413.0</ele><time>2026-05-01T11:42:02.623Z</time></trkpt><trkpt lat="44.806307" lon="7.2877793"><ele>413.0</ele><time>2026-05-01T11:42:03.623Z</time></trkpt><trkpt lat="44.8063887" lon="7.2877285"><ele>413.0</ele><time>2026-05-01T11:42:04.623Z</time></trkpt><trkpt lat="44.8064795" lon="7.2876599"><ele>413.0</ele><time>2026-05-01T11:42:05.623Z</time></trkpt><trkpt lat="44.8065793" lon="7.2876137"><ele>413.0</ele><time>2026-05-01T11:42:06.623Z</time></trkpt><trkpt lat="44.8066935" lon="7.2876023"><ele>413.0</ele><time>2026-05-01T11:42:07.623Z</time></trkpt><trkpt lat="44.8068221" lon="7.2876281"><ele>413.0</ele><time>2026-05-01T11:42:08.623Z</time></trkpt><trkpt lat="44.8069697" lon="7.287686"><ele>413.0</ele><time>2026-05-01T11:42:09.623Z</time></trkpt><trkpt lat="44.8071281" lon="7.2877591"><ele>411.0</ele><time>2026-05-01T11:42:10.623Z</time></trkpt><trkpt lat="44.8072879" lon="7.2878282"><ele>409.0</ele><time>2026-05-01T11:42:11.623Z</time></trkpt><trkpt lat="44.8074543" lon="7.2879017"><ele>407.0</ele><time>2026-05-01T11:42:12.623Z</time></trkpt><trkpt lat="44.8076226" lon="7.2879803"><ele>409.0</ele><time>2026-05-01T11:42:13.623Z</time></trkpt><trkpt lat="44.8077861" lon="7.28806"><ele>411.0</ele><time>2026-05-01T11:42:14.623Z</time></trkpt><trkpt lat="44.8079369" lon="7.2881262"><ele>413.0</ele><time>2026-05-01T11:42:15.623Z</time></trkpt><trkpt lat="44.8080756" lon="7.2881895"><ele>413.0</ele><time>2026-05-01T11:42:16.623Z</time></trkpt><trkpt lat="44.8081966" lon="7.2882476"><ele>413.0</ele><time>2026-05-01T11:42:17.623Z</time></trkpt><trkpt lat="44.8083018" lon="7.2883131"><ele>413.0</ele><time>2026-05-01T11:42:18.623Z</time></trkpt><trkpt lat="44.8083945" lon="7.2884107"><ele>413.0</ele><time>2026-05-01T11:42:19.623Z</time></trkpt><trkpt lat="44.8084787" lon="7.2885388"><ele>415.75</ele><time>2026-05-01T11:42:20.623Z</time></trkpt><trkpt lat="44.8085616" lon="7.2886835"><ele>418.5</ele><time>2026-05-01T11:42:21.623Z</time></trkpt><trkpt lat="44.8086427" lon="7.2888408"><ele>421.25</ele><time>2026-05-01T11:42:22.623Z</time></trkpt><trkpt lat="44.8087092" lon="7.2890239"><ele>424.0</ele><time>2026-05-01T11:42:23.623Z</time></trkpt><trkpt lat="44.8087811" lon="7.2892077"><ele>424.0</ele><time>2026-05-01T11:42:24.622Z</time></trkpt><trkpt lat="44.8088664" lon="7.2893999"><ele>424.0</ele><time>2026-05-01T11:42:25.623Z</time></trkpt><trkpt lat="44.808956" lon="7.2896004"><ele>424.0</ele><time>2026-05-01T11:42:26.623Z</time></trkpt><trkpt lat="44.8090485" lon="7.289804"><ele>424.0</ele><time>2026-05-01T11:42:27.623Z</time></trkpt><trkpt lat="44.8091486" lon="7.2899971"><ele>424.0</ele><time>2026-05-01T11:42:28.623Z</time></trkpt><trkpt lat="44.8092638" lon="7.2901825"><ele>424.0</ele><time>2026-05-01T11:42:29.623Z</time></trkpt><trkpt lat="44.8093838" lon="7.29036"><ele>424.33333333333337</ele><time>2026-05-01T11:42:30.623Z</time></trkpt><trkpt lat="44.8095103" lon="7.2905296"><ele>424.66666666666663</ele><time>2026-05-01T11:42:31.623Z</time></trkpt><trkpt lat="44.8096477" lon="7.2906886"><ele>425.0</ele><time>2026-05-01T11:42:32.623Z</time></trkpt><trkpt lat="44.8097918" lon="7.290838"><ele>425.0</ele><time>2026-05-01T11:42:33.623Z</time></trkpt><trkpt lat="44.8099343" lon="7.2909985"><ele>425.0</ele><time>2026-05-01T11:42:34.623Z</time></trkpt><trkpt lat="44.8100717" lon="7.2911726"><ele>425.0</ele><time>2026-05-01T11:42:35.623Z</time></trkpt><trkpt lat="44.8102111" lon="7.2913481"><ele>424.3333333333333</ele><time>2026-05-01T11:42:36.623Z</time></trkpt><trkpt lat="44.8103544" lon="7.2915201"><ele>423.66666666666663</ele><time>2026-05-01T11:42:37.623Z</time></trkpt><trkpt lat="44.8104986" lon="7.2916944"><ele>423.0</ele><time>2026-05-01T11:42:38.623Z</time></trkpt><trkpt lat="44.8106431" lon="7.2918671"><ele>423.0</ele><time>2026-05-01T11:42:39.623Z</time></trkpt><trkpt lat="44.8107782" lon="7.2920268"><ele>423.0</ele><time>2026-05-01T11:42:40.622Z</time></trkpt><trkpt lat="44.8109139" lon="7.2921813"><ele>423.0</ele><time>2026-05-01T11:42:41.623Z</time></trkpt><trkpt lat="44.8110473" lon="7.2923368"><ele>422.0</ele><time>2026-05-01T11:42:42.623Z</time></trkpt><trkpt lat="44.8111776" lon="7.2924931"><ele>421.0</ele><time>2026-05-01T11:42:43.623Z</time></trkpt><trkpt lat="44.8113011" lon="7.2926425"><ele>420.0</ele><time>2026-05-01T11:42:44.623Z</time></trkpt><trkpt lat="44.8114195" lon="7.2927838"><ele>420.0</ele><time>2026-05-01T11:42:45.623Z</time></trkpt><trkpt lat="44.8115376" lon="7.2929209"><ele>420.0</ele><time>2026-05-01T11:42:46.623Z</time></trkpt><trkpt lat="44.8116583" lon="7.2930632"><ele>420.0</ele><time>2026-05-01T11:42:47.623Z</time></trkpt><trkpt lat="44.8117796" lon="7.2932069"><ele>419.33333333333337</ele><time>2026-05-01T11:42:48.623Z</time></trkpt><trkpt lat="44.8118993" lon="7.2933527"><ele>418.6666666666667</ele><time>2026-05-01T11:42:49.623Z</time></trkpt><trkpt lat="44.8120218" lon="7.2935001"><ele>418.0</ele><time>2026-05-01T11:42:50.623Z</time></trkpt><trkpt lat="44.81214" lon="7.2936435"><ele>418.0</ele><time>2026-05-01T11:42:51.623Z</time></trkpt><trkpt lat="44.8122531" lon="7.2937838"><ele>418.0</ele><time>2026-05-01T11:42:52.623Z</time></trkpt><trkpt lat="44.8123717" lon="7.2939236"><ele>418.0</ele><time>2026-05-01T11:42:53.623Z</time></trkpt><trkpt lat="44.8124883" lon="7.294065"><ele>417.75</ele><time>2026-05-01T11:42:54.623Z</time></trkpt><trkpt lat="44.8125985" lon="7.2941995"><ele>417.5</ele><time>2026-05-01T11:42:55.623Z</time></trkpt><trkpt lat="44.8127051" lon="7.2943245"><ele>417.25</ele><time>2026-05-01T11:42:56.623Z</time></trkpt><trkpt lat="44.8128105" lon="7.2944495"><ele>417.0</ele><time>2026-05-01T11:42:57.622Z</time></trkpt><trkpt lat="44.812913" lon="7.2945732"><ele>417.0</ele><time>2026-05-01T11:42:58.622Z</time></trkpt><trkpt lat="44.8130186" lon="7.2946955"><ele>417.0</ele><time>2026-05-01T11:42:59.623Z</time></trkpt><trkpt lat="44.8131281" lon="7.2948069"><ele>417.0</ele><time>2026-05-01T11:43:00.623Z</time></trkpt><trkpt lat="44.8132338" lon="7.2949075"><ele>417.0</ele><time>2026-05-01T11:43:01.623Z</time></trkpt><trkpt lat="44.8133352" lon="7.2950067"><ele>416.25</ele><time>2026-05-01T11:43:02.623Z</time></trkpt><trkpt lat="44.8134371" lon="7.2951099"><ele>415.5</ele><time>2026-05-01T11:43:03.623Z</time></trkpt><trkpt lat="44.8135359" lon="7.2952068"><ele>414.75</ele><time>2026-05-01T11:43:04.623Z</time></trkpt><trkpt lat="44.8136378" lon="7.295308"><ele>414.0</ele><time>2026-05-01T11:43:05.623Z</time></trkpt><trkpt lat="44.8137383" lon="7.2954032"><ele>413.79999999999995</ele><time>2026-05-01T11:43:06.623Z</time></trkpt><trkpt lat="44.813835" lon="7.295497"><ele>413.59999999999997</ele><time>2026-05-01T11:43:07.622Z</time></trkpt><trkpt lat="44.8139276" lon="7.2955803"><ele>413.4</ele><time>2026-05-01T11:43:08.623Z</time></trkpt><trkpt lat="44.814015" lon="7.2956584"><ele>413.2</ele><time>2026-05-01T11:43:09.623Z</time></trkpt><trkpt lat="44.8140974" lon="7.2957343"><ele>413.0</ele><time>2026-05-01T11:43:10.623Z</time></trkpt><trkpt lat="44.8141744" lon="7.2958129"><ele>412.79999999999995</ele><time>2026-05-01T11:43:11.623Z</time></trkpt><trkpt lat="44.8142457" lon="7.2958986"><ele>412.6</ele><time>2026-05-01T11:43:12.622Z</time></trkpt><trkpt lat="44.8143048" lon="7.2960056"><ele>412.4</ele><time>2026-05-01T11:43:13.623Z</time></trkpt><trkpt lat="44.8143605" lon="7.2961061"><ele>412.20000000000005</ele><time>2026-05-01T11:43:14.623Z</time></trkpt><trkpt lat="44.8144151" lon="7.2962098"><ele>412.0</ele><time>2026-05-01T11:43:15.622Z</time></trkpt><trkpt lat="44.8144632" lon="7.2963273"><ele>411.0</ele><time>2026-05-01T11:43:16.623Z</time></trkpt><trkpt lat="44.8144999" lon="7.2964683"><ele>410.0</ele><time>2026-05-01T11:43:17.623Z</time></trkpt><trkpt lat="44.8145342" lon="7.2966223"><ele>409.0</ele><time>2026-05-01T11:43:18.623Z</time></trkpt><trkpt lat="44.8145751" lon="7.296805"><ele>408.0</ele><time>2026-05-01T11:43:19.623Z</time></trkpt><trkpt lat="44.8146248" lon="7.2970105"><ele>408.0</ele><time>2026-05-01T11:43:20.623Z</time></trkpt><trkpt lat="44.8146794" lon="7.2972341"><ele>408.0</ele><time>2026-05-01T11:43:21.623Z</time></trkpt><trkpt lat="44.8147433" lon="7.2974324"><ele>408.0</ele><time>2026-05-01T11:43:22.623Z</time></trkpt><trkpt lat="44.814816" lon="7.2976279"><ele>407.66666666666663</ele><time>2026-05-01T11:43:23.623Z</time></trkpt><trkpt lat="44.8148888" lon="7.2978189"><ele>407.3333333333333</ele><time>2026-05-01T11:43:24.623Z</time></trkpt><trkpt lat="44.8149661" lon="7.2980099"><ele>407.0</ele><time>2026-05-01T11:43:25.623Z</time></trkpt><trkpt lat="44.8150487" lon="7.2982121"><ele>406.0</ele><time>2026-05-01T11:43:26.623Z</time></trkpt><trkpt lat="44.8151346" lon="7.2984222"><ele>405.0</ele><time>2026-05-01T11:43:27.623Z</time></trkpt><trkpt lat="44.8152201" lon="7.2986257"><ele>404.0</ele><time>2026-05-01T11:43:28.623Z</time></trkpt><trkpt lat="44.8153022" lon="7.2988204"><ele>403.75</ele><time>2026-05-01T11:43:29.623Z</time></trkpt><trkpt lat="44.8153754" lon="7.2990004"><ele>403.5</ele><time>2026-05-01T11:43:30.623Z</time></trkpt><trkpt lat="44.8154509" lon="7.2991758"><ele>403.25</ele><time>2026-05-01T11:43:31.623Z</time></trkpt><trkpt lat="44.8155307" lon="7.2993428"><ele>403.0</ele><time>2026-05-01T11:43:32.623Z</time></trkpt><trkpt lat="44.8156136" lon="7.2995107"><ele>403.0</ele><time>2026-05-01T11:43:33.623Z</time></trkpt><trkpt lat="44.8156984" lon="7.2996743"><ele>403.0</ele><time>2026-05-01T11:43:34.623Z</time></trkpt><trkpt lat="44.8157854" lon="7.2998422"><ele>403.0</ele><time>2026-05-01T11:43:35.623Z</time></trkpt><trkpt lat="44.8158808" lon="7.3000112"><ele>403.0</ele><time>2026-05-01T11:43:36.623Z</time></trkpt><trkpt lat="44.8159989" lon="7.3001934"><ele>402.6666666666667</ele><time>2026-05-01T11:43:37.623Z</time></trkpt><trkpt lat="44.8161345" lon="7.3003897"><ele>402.33333333333337</ele><time>2026-05-01T11:43:38.623Z</time></trkpt><trkpt lat="44.8162686" lon="7.3005929"><ele>402.0</ele><time>2026-05-01T11:43:39.623Z</time></trkpt><trkpt lat="44.8163927" lon="7.3007896"><ele>401.0</ele><time>2026-05-01T11:43:40.623Z</time></trkpt><trkpt lat="44.8165179" lon="7.3009868"><ele>400.0</ele><time>2026-05-01T11:43:41.623Z</time></trkpt><trkpt lat="44.8166418" lon="7.3011821"><ele>399.0</ele><time>2026-05-01T11:43:42.623Z</time></trkpt><trkpt lat="44.8167603" lon="7.3013735"><ele>398.0</ele><time>2026-05-01T11:43:43.623Z</time></trkpt><trkpt lat="44.8168809" lon="7.3015578"><ele>397.0</ele><time>2026-05-01T11:43:44.623Z</time></trkpt><trkpt lat="44.8170061" lon="7.301739"><ele>396.0</ele><time>2026-05-01T11:43:45.623Z</time></trkpt><trkpt lat="44.8171274" lon="7.3019214"><ele>396.0</ele><time>2026-05-01T11:43:46.623Z</time></trkpt><trkpt lat="44.8172501" lon="7.3021014"><ele>396.0</ele><time>2026-05-01T11:43:47.623Z</time></trkpt><trkpt lat="44.8173722" lon="7.3022757"><ele>396.0</ele><time>2026-05-01T11:43:48.622Z</time></trkpt><trkpt lat="44.8174928" lon="7.3024498"><ele>395.66666666666663</ele><time>2026-05-01T11:43:49.623Z</time></trkpt><trkpt lat="44.8176164" lon="7.3026254"><ele>395.3333333333333</ele><time>2026-05-01T11:43:50.623Z</time></trkpt><trkpt lat="44.8177365" lon="7.3027951"><ele>395.0</ele><time>2026-05-01T11:43:51.623Z</time></trkpt><trkpt lat="44.817848" lon="7.3029518"><ele>395.0</ele><time>2026-05-01T11:43:52.623Z</time></trkpt><trkpt lat="44.8179537" lon="7.3030936"><ele>395.0</ele><time>2026-05-01T11:43:53.623Z</time></trkpt><trkpt lat="44.81805" lon="7.3032304"><ele>395.0</ele><time>2026-05-01T11:43:54.623Z</time></trkpt><trkpt lat="44.8181434" lon="7.3033589"><ele>395.0</ele><time>2026-05-01T11:43:55.623Z</time></trkpt><trkpt lat="44.8182278" lon="7.3034743"><ele>395.0</ele><time>2026-05-01T11:43:56.623Z</time></trkpt><trkpt lat="44.8183059" lon="7.3035928"><ele>395.0</ele><time>2026-05-01T11:43:57.623Z</time></trkpt><trkpt lat="44.8183712" lon="7.3037173"><ele>395.0</ele><time>2026-05-01T11:43:58.623Z</time></trkpt><trkpt lat="44.8184455" lon="7.303843"><ele>395.0</ele><time>2026-05-01T11:43:59.623Z</time></trkpt><trkpt lat="44.8185438" lon="7.3039592"><ele>394.0</ele><time>2026-05-01T11:44:00.623Z</time></trkpt><trkpt lat="44.8186498" lon="7.3040892"><ele>393.0</ele><time>2026-05-01T11:44:01.622Z</time></trkpt><trkpt lat="44.8187696" lon="7.3042595"><ele>392.0</ele><time>2026-05-01T11:44:02.623Z</time></trkpt><trkpt lat="44.8189006" lon="7.3044474"><ele>392.0</ele><time>2026-05-01T11:44:03.623Z</time></trkpt><trkpt lat="44.8190337" lon="7.3046449"><ele>392.0</ele><time>2026-05-01T11:44:04.623Z</time></trkpt><trkpt lat="44.819181" lon="7.3048561"><ele>392.0</ele><time>2026-05-01T11:44:05.622Z</time></trkpt><trkpt lat="44.8193368" lon="7.3050811"><ele>390.5</ele><time>2026-05-01T11:44:06.623Z</time></trkpt><trkpt lat="44.8194944" lon="7.3053092"><ele>389.0</ele><time>2026-05-01T11:44:07.623Z</time></trkpt><trkpt lat="44.8196548" lon="7.3055443"><ele>388.5</ele><time>2026-05-01T11:44:08.623Z</time></trkpt><trkpt lat="44.8198257" lon="7.3057871"><ele>388.0</ele><time>2026-05-01T11:44:09.623Z</time></trkpt><trkpt lat="44.819998" lon="7.3060331"><ele>388.0</ele><time>2026-05-01T11:44:10.623Z</time></trkpt><trkpt lat="44.8201652" lon="7.3062754"><ele>388.0</ele><time>2026-05-01T11:44:11.623Z</time></trkpt><trkpt lat="44.8203251" lon="7.3065033"><ele>388.33333333333337</ele><time>2026-05-01T11:44:12.623Z</time></trkpt><trkpt lat="44.82048" lon="7.3067194"><ele>388.66666666666663</ele><time>2026-05-01T11:44:13.623Z</time></trkpt><trkpt lat="44.820636" lon="7.3069478"><ele>389.0</ele><time>2026-05-01T11:44:14.623Z</time></trkpt><trkpt lat="44.8207923" lon="7.3071807"><ele>388.0</ele><time>2026-05-01T11:44:15.623Z</time></trkpt><trkpt lat="44.8209511" lon="7.3074201"><ele>387.0</ele><time>2026-05-01T11:44:16.623Z</time></trkpt><trkpt lat="44.821112" lon="7.3076646"><ele>386.0</ele><time>2026-05-01T11:44:17.623Z</time></trkpt><trkpt lat="44.8212765" lon="7.3079123"><ele>385.0</ele><time>2026-05-01T11:44:18.623Z</time></trkpt><trkpt lat="44.8214454" lon="7.3081679"><ele>384.5</ele><time>2026-05-01T11:44:19.623Z</time></trkpt><trkpt lat="44.8216243" lon="7.3084337"><ele>384.0</ele><time>2026-05-01T11:44:20.623Z</time></trkpt><trkpt lat="44.8218048" lon="7.3086919"><ele>382.5</ele><time>2026-05-01T11:44:21.623Z</time></trkpt><trkpt lat="44.8219718" lon="7.3089351"><ele>381.0</ele><time>2026-05-01T11:44:22.623Z</time></trkpt><trkpt lat="44.8221331" lon="7.3091669"><ele>381.0</ele><time>2026-05-01T11:44:23.623Z</time></trkpt><trkpt lat="44.8222912" lon="7.3093969"><ele>381.0</ele><time>2026-05-01T11:44:24.623Z</time></trkpt><trkpt lat="44.8224473" lon="7.3096277"><ele>379.0</ele><time>2026-05-01T11:44:25.623Z</time></trkpt><trkpt lat="44.822606" lon="7.3098564"><ele>377.0</ele><time>2026-05-01T11:44:26.622Z</time></trkpt><trkpt lat="44.822771" lon="7.3100819"><ele>377.0</ele><time>2026-05-01T11:44:27.623Z</time></trkpt><trkpt lat="44.8229484" lon="7.3103078"><ele>377.0</ele><time>2026-05-01T11:44:28.623Z</time></trkpt><trkpt lat="44.8231326" lon="7.3105315"><ele>376.0</ele><time>2026-05-01T11:44:29.623Z</time></trkpt><trkpt lat="44.823322" lon="7.3107438"><ele>375.0</ele><time>2026-05-01T11:44:30.623Z</time></trkpt><trkpt lat="44.8235124" lon="7.3109346"><ele>375.0</ele><time>2026-05-01T11:44:31.623Z</time></trkpt><trkpt lat="44.8236979" lon="7.3111056"><ele>375.0</ele><time>2026-05-01T11:44:32.623Z</time></trkpt><trkpt lat="44.8238827" lon="7.311261"><ele>375.0</ele><time>2026-05-01T11:44:33.623Z</time></trkpt><trkpt lat="44.8240837" lon="7.3114046"><ele>374.3333333333333</ele><time>2026-05-01T11:44:34.623Z</time></trkpt><trkpt lat="44.8242892" lon="7.3115334"><ele>373.66666666666663</ele><time>2026-05-01T11:44:35.623Z</time></trkpt><trkpt lat="44.8244753" lon="7.3116448"><ele>373.0</ele><time>2026-05-01T11:44:36.623Z</time></trkpt><trkpt lat="44.824646" lon="7.311737"><ele>373.0</ele><time>2026-05-01T11:44:37.623Z</time></trkpt><trkpt lat="44.8247937" lon="7.3118165"><ele>373.0</ele><time>2026-05-01T11:44:38.623Z</time></trkpt><trkpt lat="44.8249259" lon="7.3118879"><ele>373.0</ele><time>2026-05-01T11:44:39.623Z</time></trkpt><trkpt lat="44.8250442" lon="7.3119615"><ele>373.0</ele><time>2026-05-01T11:44:40.623Z</time></trkpt><trkpt lat="44.8251417" lon="7.3120514"><ele>372.25</ele><time>2026-05-01T11:44:41.623Z</time></trkpt><trkpt lat="44.8252207" lon="7.3121556"><ele>371.5</ele><time>2026-05-01T11:44:42.623Z</time></trkpt><trkpt lat="44.8252934" lon="7.3122691"><ele>370.75</ele><time>2026-05-01T11:44:43.623Z</time></trkpt><trkpt lat="44.8253562" lon="7.3124101"><ele>370.0</ele><time>2026-05-01T11:44:44.623Z</time></trkpt><trkpt lat="44.8254219" lon="7.3125491"><ele>369.75</ele><time>2026-05-01T11:44:45.622Z</time></trkpt><trkpt lat="44.8255142" lon="7.3126523"><ele>369.5</ele><time>2026-05-01T11:44:46.623Z</time></trkpt><trkpt lat="44.8256287" lon="7.3127319"><ele>369.25</ele><time>2026-05-01T11:44:47.623Z</time></trkpt><trkpt lat="44.8257512" lon="7.3128309"><ele>369.0</ele><time>2026-05-01T11:44:48.622Z</time></trkpt><trkpt lat="44.8258699" lon="7.3129711"><ele>367.6666666666667</ele><time>2026-05-01T11:44:49.623Z</time></trkpt><trkpt lat="44.8259984" lon="7.3131439"><ele>366.33333333333337</ele><time>2026-05-01T11:44:50.623Z</time></trkpt><trkpt lat="44.8261432" lon="7.3133354"><ele>365.0</ele><time>2026-05-01T11:44:51.623Z</time></trkpt><trkpt lat="44.826309" lon="7.3135369"><ele>365.0</ele><time>2026-05-01T11:44:52.623Z</time></trkpt><trkpt lat="44.8264879" lon="7.3137436"><ele>365.0</ele><time>2026-05-01T11:44:53.623Z</time></trkpt><trkpt lat="44.8266799" lon="7.3139498"><ele>366.0</ele><time>2026-05-01T11:44:54.623Z</time></trkpt><trkpt lat="44.8268866" lon="7.3141671"><ele>367.0</ele><time>2026-05-01T11:44:55.623Z</time></trkpt><trkpt lat="44.8271015" lon="7.3143953"><ele>367.0</ele><time>2026-05-01T11:44:56.623Z</time></trkpt><trkpt lat="44.827326" lon="7.3146321"><ele>367.0</ele><time>2026-05-01T11:44:57.622Z</time></trkpt><trkpt lat="44.8275486" lon="7.3148598"><ele>368.0</ele><time>2026-05-01T11:44:58.623Z</time></trkpt><trkpt lat="44.8277763" lon="7.3150922"><ele>369.0</ele><time>2026-05-01T11:44:59.623Z</time></trkpt><trkpt lat="44.828003" lon="7.3153217"><ele>369.0</ele><time>2026-05-01T11:45:00.623Z</time></trkpt><trkpt lat="44.8282242" lon="7.3155536"><ele>369.0</ele><time>2026-05-01T11:45:01.623Z</time></trkpt><trkpt lat="44.8284458" lon="7.3157833"><ele>366.5</ele><time>2026-05-01T11:45:02.623Z</time></trkpt><trkpt lat="44.8286675" lon="7.3160125"><ele>364.0</ele><time>2026-05-01T11:45:03.623Z</time></trkpt><trkpt lat="44.8288886" lon="7.3162471"><ele>363.0</ele><time>2026-05-01T11:45:04.623Z</time></trkpt><trkpt lat="44.8291156" lon="7.316477"><ele>362.0</ele><time>2026-05-01T11:45:05.623Z</time></trkpt><trkpt lat="44.829328" lon="7.3166976"><ele>362.0</ele><time>2026-05-01T11:45:06.622Z</time></trkpt><trkpt lat="44.8295413" lon="7.3169139"><ele>362.0</ele><time>2026-05-01T11:45:07.623Z</time></trkpt><trkpt lat="44.8297518" lon="7.317125"><ele>361.0</ele><time>2026-05-01T11:45:08.623Z</time></trkpt><trkpt lat="44.8299592" lon="7.3173288"><ele>360.0</ele><time>2026-05-01T11:45:09.623Z</time></trkpt><trkpt lat="44.8301702" lon="7.3175306"><ele>360.0</ele><time>2026-05-01T11:45:10.623Z</time></trkpt><trkpt lat="44.8303764" lon="7.3177322"><ele>360.0</ele><time>2026-05-01T11:45:11.623Z</time></trkpt><trkpt lat="44.8305759" lon="7.3179308"><ele>360.0</ele><time>2026-05-01T11:45:12.623Z</time></trkpt><trkpt lat="44.8307763" lon="7.3181261"><ele>360.0</ele><time>2026-05-01T11:45:13.623Z</time></trkpt><trkpt lat="44.8309754" lon="7.3183181"><ele>360.0</ele><time>2026-05-01T11:45:14.623Z</time></trkpt><trkpt lat="44.8311711" lon="7.3185059"><ele>360.0</ele><time>2026-05-01T11:45:15.623Z</time></trkpt><trkpt lat="44.8313635" lon="7.3186936"><ele>360.0</ele><time>2026-05-01T11:45:16.623Z</time></trkpt><trkpt lat="44.831552" lon="7.3188771"><ele>360.0</ele><time>2026-05-01T11:45:17.623Z</time></trkpt><trkpt lat="44.8317409" lon="7.3190567"><ele>359.3333333333333</ele><time>2026-05-01T11:45:18.623Z</time></trkpt><trkpt lat="44.8319236" lon="7.3192324"><ele>358.66666666666663</ele><time>2026-05-01T11:45:19.622Z</time></trkpt><trkpt lat="44.8321031" lon="7.319408"><ele>358.0</ele><time>2026-05-01T11:45:20.623Z</time></trkpt><trkpt lat="44.8322857" lon="7.3195812"><ele>358.66666666666663</ele><time>2026-05-01T11:45:21.623Z</time></trkpt><trkpt lat="44.8324619" lon="7.3197521"><ele>359.3333333333333</ele><time>2026-05-01T11:45:22.623Z</time></trkpt><trkpt lat="44.8326358" lon="7.3199212"><ele>360.0</ele><time>2026-05-01T11:45:23.623Z</time></trkpt><trkpt lat="44.8328105" lon="7.3200946"><ele>358.3333333333333</ele><time>2026-05-01T11:45:24.623Z</time></trkpt><trkpt lat="44.8329839" lon="7.3202755"><ele>356.66666666666663</ele><time>2026-05-01T11:45:25.623Z</time></trkpt><trkpt lat="44.8331546" lon="7.3204631"><ele>355.0</ele><time>2026-05-01T11:45:26.623Z</time></trkpt><trkpt lat="44.833323" lon="7.3206595"><ele>354.66666666666663</ele><time>2026-05-01T11:45:27.623Z</time></trkpt><trkpt lat="44.8334858" lon="7.3208517"><ele>354.3333333333333</ele><time>2026-05-01T11:45:28.623Z</time></trkpt><trkpt lat="44.8336454" lon="7.3210391"><ele>354.0</ele><time>2026-05-01T11:45:29.623Z</time></trkpt><trkpt lat="44.8338024" lon="7.3212217"><ele>353.6666666666667</ele><time>2026-05-01T11:45:30.623Z</time></trkpt><trkpt lat="44.833962" lon="7.3214024"><ele>353.33333333333337</ele><time>2026-05-01T11:45:31.623Z</time></trkpt><trkpt lat="44.8341098" lon="7.3215816"><ele>353.0</ele><time>2026-05-01T11:45:32.623Z</time></trkpt><trkpt lat="44.8342561" lon="7.3217578"><ele>352.0</ele><time>2026-05-01T11:45:33.623Z</time></trkpt><trkpt lat="44.8344029" lon="7.3219334"><ele>351.0</ele><time>2026-05-01T11:45:34.623Z</time></trkpt><trkpt lat="44.8345445" lon="7.322114"><ele>350.0</ele><time>2026-05-01T11:45:35.623Z</time></trkpt><trkpt lat="44.8346764" lon="7.3223096"><ele>349.6666666666667</ele><time>2026-05-01T11:45:36.623Z</time></trkpt><trkpt lat="44.8348056" lon="7.3225092"><ele>349.3333333333333</ele><time>2026-05-01T11:45:37.623Z</time></trkpt><trkpt lat="44.834929" lon="7.3227159"><ele>349.0</ele><time>2026-05-01T11:45:38.623Z</time></trkpt><trkpt lat="44.8350451" lon="7.3229342"><ele>348.66666666666663</ele><time>2026-05-01T11:45:39.623Z</time></trkpt><trkpt lat="44.8351553" lon="7.3231566"><ele>348.3333333333333</ele><time>2026-05-01T11:45:40.623Z</time></trkpt><trkpt lat="44.835262" lon="7.3233827"><ele>348.0</ele><time>2026-05-01T11:45:41.623Z</time></trkpt><trkpt lat="44.8353712" lon="7.3236139"><ele>348.0</ele><time>2026-05-01T11:45:42.623Z</time></trkpt><trkpt lat="44.8354797" lon="7.3238432"><ele>348.0</ele><time>2026-05-01T11:45:43.623Z</time></trkpt><trkpt lat="44.83559" lon="7.324073"><ele>348.0</ele><time>2026-05-01T11:45:44.623Z</time></trkpt><trkpt lat="44.8357023" lon="7.3242987"><ele>347.6666666666667</ele><time>2026-05-01T11:45:45.623Z</time></trkpt><trkpt lat="44.8358134" lon="7.3245278"><ele>347.33333333333337</ele><time>2026-05-01T11:45:46.623Z</time></trkpt><trkpt lat="44.8359201" lon="7.3247577"><ele>347.0</ele><time>2026-05-01T11:45:47.623Z</time></trkpt><trkpt lat="44.8360312" lon="7.3249969"><ele>347.0</ele><time>2026-05-01T11:45:48.623Z</time></trkpt><trkpt lat="44.836148" lon="7.3252373"><ele>347.0</ele><time>2026-05-01T11:45:49.623Z</time></trkpt><trkpt lat="44.8362751" lon="7.3254902"><ele>347.0</ele><time>2026-05-01T11:45:50.623Z</time></trkpt><trkpt lat="44.8364116" lon="7.3257562"><ele>346.0</ele><time>2026-05-01T11:45:51.623Z</time></trkpt><trkpt lat="44.8365491" lon="7.3260382"><ele>345.0</ele><time>2026-05-01T11:45:52.622Z</time></trkpt><trkpt lat="44.8366775" lon="7.3263303"><ele>344.5</ele><time>2026-05-01T11:45:53.623Z</time></trkpt><trkpt lat="44.8367875" lon="7.3266109"><ele>344.0</ele><time>2026-05-01T11:45:54.623Z</time></trkpt><trkpt lat="44.8368948" lon="7.3268877"><ele>343.0</ele><time>2026-05-01T11:45:55.623Z</time></trkpt><trkpt lat="44.8369884" lon="7.3271828"><ele>342.0</ele><time>2026-05-01T11:45:56.623Z</time></trkpt><trkpt lat="44.8370692" lon="7.3274857"><ele>342.0</ele><time>2026-05-01T11:45:57.623Z</time></trkpt><trkpt lat="44.8371361" lon="7.3277925"><ele>342.0</ele><time>2026-05-01T11:45:58.623Z</time></trkpt><trkpt lat="44.8371895" lon="7.3281111"><ele>343.5</ele><time>2026-05-01T11:45:59.623Z</time></trkpt><trkpt lat="44.8372436" lon="7.3284326"><ele>345.0</ele><time>2026-05-01T11:46:00.623Z</time></trkpt><trkpt lat="44.8373018" lon="7.3287586"><ele>344.0</ele><time>2026-05-01T11:46:01.623Z</time></trkpt><trkpt lat="44.837354" lon="7.3290772"><ele>343.0</ele><time>2026-05-01T11:46:02.623Z</time></trkpt><trkpt lat="44.8374073" lon="7.3293901"><ele>343.0</ele><time>2026-05-01T11:46:03.623Z</time></trkpt><trkpt lat="44.8374587" lon="7.3296895"><ele>343.0</ele><time>2026-05-01T11:46:04.623Z</time></trkpt><trkpt lat="44.8375129" lon="7.3299718"><ele>343.0</ele><time>2026-05-01T11:46:05.622Z</time></trkpt><trkpt lat="44.8375759" lon="7.330245"><ele>342.66666666666663</ele><time>2026-05-01T11:46:06.623Z</time></trkpt><trkpt lat="44.8376544" lon="7.3305095"><ele>342.3333333333333</ele><time>2026-05-01T11:46:07.623Z</time></trkpt><trkpt lat="44.8377472" lon="7.3307686"><ele>342.0</ele><time>2026-05-01T11:46:08.623Z</time></trkpt><trkpt lat="44.8378548" lon="7.3310233"><ele>342.0</ele><time>2026-05-01T11:46:09.623Z</time></trkpt><trkpt lat="44.8379753" lon="7.3312668"><ele>342.0</ele><time>2026-05-01T11:46:10.623Z</time></trkpt><trkpt lat="44.838108" lon="7.331511"><ele>342.0</ele><time>2026-05-01T11:46:11.623Z</time></trkpt><trkpt lat="44.8382469" lon="7.3317516"><ele>340.6666666666667</ele><time>2026-05-01T11:46:12.623Z</time></trkpt><trkpt lat="44.8383837" lon="7.3319924"><ele>339.33333333333337</ele><time>2026-05-01T11:46:13.623Z</time></trkpt><trkpt lat="44.8385145" lon="7.3322303"><ele>338.0</ele><time>2026-05-01T11:46:14.623Z</time></trkpt><trkpt lat="44.8386428" lon="7.3324534"><ele>337.33333333333337</ele><time>2026-05-01T11:46:15.623Z</time></trkpt><trkpt lat="44.8387748" lon="7.3326626"><ele>336.6666666666667</ele><time>2026-05-01T11:46:16.623Z</time></trkpt><trkpt lat="44.838919" lon="7.3328508"><ele>336.0</ele><time>2026-05-01T11:46:17.623Z</time></trkpt><trkpt lat="44.8390712" lon="7.3330257"><ele>335.6666666666667</ele><time>2026-05-01T11:46:18.623Z</time></trkpt><trkpt lat="44.8392354" lon="7.3331765"><ele>335.33333333333337</ele><time>2026-05-01T11:46:19.623Z</time></trkpt><trkpt lat="44.8394035" lon="7.3332943"><ele>335.0</ele><time>2026-05-01T11:46:20.623Z</time></trkpt><trkpt lat="44.8395665" lon="7.3333847"><ele>335.0</ele><time>2026-05-01T11:46:21.623Z</time></trkpt><trkpt lat="44.8397121" lon="7.3334558"><ele>335.0</ele><time>2026-05-01T11:46:22.623Z</time></trkpt><trkpt lat="44.8398356" lon="7.3335157"><ele>335.0</ele><time>2026-05-01T11:46:23.623Z</time></trkpt><trkpt lat="44.8399499" lon="7.3335675"><ele>335.0</ele><time>2026-05-01T11:46:24.623Z</time></trkpt><trkpt lat="44.8400511" lon="7.3336274"><ele>335.0</ele><time>2026-05-01T11:46:25.623Z</time></trkpt><trkpt lat="44.8401377" lon="7.3337194"><ele>335.0</ele><time>2026-05-01T11:46:26.623Z</time></trkpt><trkpt lat="44.8402265" lon="7.3337973"><ele>335.0</ele><time>2026-05-01T11:46:27.623Z</time></trkpt><trkpt lat="44.8403245" lon="7.333825"><ele>335.0</ele><time>2026-05-01T11:46:28.623Z</time></trkpt><trkpt lat="44.8404332" lon="7.3338171"><ele>335.0</ele><time>2026-05-01T11:46:29.623Z</time></trkpt><trkpt lat="44.8405541" lon="7.3338045"><ele>335.0</ele><time>2026-05-01T11:46:30.623Z</time></trkpt><trkpt lat="44.8406922" lon="7.3338218"><ele>335.0</ele><time>2026-05-01T11:46:31.623Z</time></trkpt><trkpt lat="44.8408442" lon="7.3338663"><ele>335.0</ele><time>2026-05-01T11:46:32.623Z</time></trkpt><trkpt lat="44.8410169" lon="7.333923"><ele>335.33333333333337</ele><time>2026-05-01T11:46:33.623Z</time></trkpt><trkpt lat="44.8412058" lon="7.3339836"><ele>335.6666666666667</ele><time>2026-05-01T11:46:34.623Z</time></trkpt><trkpt lat="44.8414156" lon="7.3340527"><ele>336.0</ele><time>2026-05-01T11:46:35.622Z</time></trkpt><trkpt lat="44.8416324" lon="7.3341262"><ele>337.0</ele><time>2026-05-01T11:46:36.623Z</time></trkpt><trkpt lat="44.841849" lon="7.3342026"><ele>338.0</ele><time>2026-05-01T11:46:37.623Z</time></trkpt><trkpt lat="44.8420747" lon="7.3342823"><ele>338.0</ele><time>2026-05-01T11:46:38.623Z</time></trkpt><trkpt lat="44.8423086" lon="7.3343629"><ele>338.0</ele><time>2026-05-01T11:46:39.623Z</time></trkpt><trkpt lat="44.8425366" lon="7.3344422"><ele>337.0</ele><time>2026-05-01T11:46:40.623Z</time></trkpt><trkpt lat="44.8427659" lon="7.3345183"><ele>336.0</ele><time>2026-05-01T11:46:41.623Z</time></trkpt><trkpt lat="44.843009" lon="7.3346002"><ele>336.0</ele><time>2026-05-01T11:46:42.623Z</time></trkpt><trkpt lat="44.8432458" lon="7.3346827"><ele>336.0</ele><time>2026-05-01T11:46:43.623Z</time></trkpt><trkpt lat="44.8434736" lon="7.334761"><ele>336.5</ele><time>2026-05-01T11:46:44.623Z</time></trkpt><trkpt lat="44.843701" lon="7.3348354"><ele>337.0</ele><time>2026-05-01T11:46:45.623Z</time></trkpt><trkpt lat="44.843916" lon="7.3349072"><ele>337.0</ele><time>2026-05-01T11:46:46.623Z</time></trkpt><trkpt lat="44.8441254" lon="7.3349768"><ele>337.0</ele><time>2026-05-01T11:46:47.623Z</time></trkpt><trkpt lat="44.8443226" lon="7.3350374"><ele>337.0</ele><time>2026-05-01T11:46:48.623Z</time></trkpt><trkpt lat="44.8445111" lon="7.3350959"><ele>337.66666666666663</ele><time>2026-05-01T11:46:49.623Z</time></trkpt><trkpt lat="44.8446915" lon="7.3351587"><ele>338.3333333333333</ele><time>2026-05-01T11:46:50.623Z</time></trkpt><trkpt lat="44.8448582" lon="7.3352144"><ele>339.0</ele><time>2026-05-01T11:46:51.623Z</time></trkpt><trkpt lat="44.8450111" lon="7.3352663"><ele>339.25</ele><time>2026-05-01T11:46:52.623Z</time></trkpt><trkpt lat="44.8451499" lon="7.3353173"><ele>339.5</ele><time>2026-05-01T11:46:53.622Z</time></trkpt><trkpt lat="44.8452716" lon="7.3353694"><ele>339.75</ele><time>2026-05-01T11:46:54.623Z</time></trkpt><trkpt lat="44.8453799" lon="7.3354324"><ele>340.0</ele><time>2026-05-01T11:46:55.623Z</time></trkpt><trkpt lat="44.8454632" lon="7.3355221"><ele>340.2</ele><time>2026-05-01T11:46:56.623Z</time></trkpt><trkpt lat="44.8455296" lon="7.3356145"><ele>340.4</ele><time>2026-05-01T11:46:57.623Z</time></trkpt><trkpt lat="44.8456126" lon="7.3356775"><ele>340.6</ele><time>2026-05-01T11:46:58.623Z</time></trkpt><trkpt lat="44.8457092" lon="7.3357077"><ele>340.8</ele><time>2026-05-01T11:46:59.623Z</time></trkpt><trkpt lat="44.8458227" lon="7.3357103"><ele>341.0</ele><time>2026-05-01T11:47:00.623Z</time></trkpt><trkpt lat="44.84594" lon="7.3357267"><ele>341.5</ele><time>2026-05-01T11:47:01.623Z</time></trkpt><trkpt lat="44.8460567" lon="7.335766"><ele>342.0</ele><time>2026-05-01T11:47:02.622Z</time></trkpt><trkpt lat="44.8461716" lon="7.3358122"><ele>342.5</ele><time>2026-05-01T11:47:03.623Z</time></trkpt><trkpt lat="44.8462918" lon="7.3358633"><ele>343.0</ele><time>2026-05-01T11:47:04.623Z</time></trkpt><trkpt lat="44.8464112" lon="7.3359177"><ele>343.0</ele><time>2026-05-01T11:47:05.623Z</time></trkpt><trkpt lat="44.8465334" lon="7.3359776"><ele>343.0</ele><time>2026-05-01T11:47:06.623Z</time></trkpt><trkpt lat="44.8466606" lon="7.3360491"><ele>343.0</ele><time>2026-05-01T11:47:07.623Z</time></trkpt><trkpt lat="44.8467886" lon="7.3361196"><ele>343.0</ele><time>2026-05-01T11:47:08.623Z</time></trkpt><trkpt lat="44.8469204" lon="7.3361888"><ele>343.0</ele><time>2026-05-01T11:47:09.623Z</time></trkpt><trkpt lat="44.8470642" lon="7.3362641"><ele>343.0</ele><time>2026-05-01T11:47:10.623Z</time></trkpt><trkpt lat="44.8472154" lon="7.336346"><ele>343.0</ele><time>2026-05-01T11:47:11.623Z</time></trkpt><trkpt lat="44.8473687" lon="7.3364278"><ele>342.3333333333333</ele><time>2026-05-01T11:47:12.622Z</time></trkpt><trkpt lat="44.8475258" lon="7.3365086"><ele>341.6666666666667</ele><time>2026-05-01T11:47:13.623Z</time></trkpt><trkpt lat="44.8476822" lon="7.3365892"><ele>341.0</ele><time>2026-05-01T11:47:14.623Z</time></trkpt><trkpt lat="44.8478372" lon="7.3366689"><ele>340.6666666666667</ele><time>2026-05-01T11:47:15.623Z</time></trkpt><trkpt lat="44.8479905" lon="7.3367527"><ele>340.3333333333333</ele><time>2026-05-01T11:47:16.623Z</time></trkpt><trkpt lat="44.8481406" lon="7.3368325"><ele>340.0</ele><time>2026-05-01T11:47:17.623Z</time></trkpt><trkpt lat="44.8482907" lon="7.3369105"><ele>340.0</ele><time>2026-05-01T11:47:18.623Z</time></trkpt><trkpt lat="44.8484374" lon="7.3369902"><ele>340.0</ele><time>2026-05-01T11:47:19.623Z</time></trkpt><trkpt lat="44.8485833" lon="7.3370681"><ele>340.0</ele><time>2026-05-01T11:47:20.623Z</time></trkpt><trkpt lat="44.8487285" lon="7.3371471"><ele>340.75</ele><time>2026-05-01T11:47:21.623Z</time></trkpt><trkpt lat="44.8488723" lon="7.3372215"><ele>341.5</ele><time>2026-05-01T11:47:22.623Z</time></trkpt><trkpt lat="44.8490056" lon="7.3372911"><ele>342.25</ele><time>2026-05-01T11:47:23.622Z</time></trkpt><trkpt lat="44.8491364" lon="7.3373607"><ele>343.0</ele><time>2026-05-01T11:47:24.623Z</time></trkpt><trkpt lat="44.8492567" lon="7.3374251"><ele>343.5</ele><time>2026-05-01T11:47:25.623Z</time></trkpt><trkpt lat="44.8493806" lon="7.3374877"><ele>344.0</ele><time>2026-05-01T11:47:26.623Z</time></trkpt><trkpt lat="44.849506" lon="7.3375517"><ele>344.5</ele><time>2026-05-01T11:47:27.623Z</time></trkpt><trkpt lat="44.8496329" lon="7.3376186"><ele>345.0</ele><time>2026-05-01T11:47:28.623Z</time></trkpt><trkpt lat="44.8497616" lon="7.337685"><ele>345.0</ele><time>2026-05-01T11:47:29.623Z</time></trkpt><trkpt lat="44.8498823" lon="7.3377425"><ele>345.0</ele><time>2026-05-01T11:47:30.622Z</time></trkpt><trkpt lat="44.8500008" lon="7.3378065"><ele>345.0</ele><time>2026-05-01T11:47:31.623Z</time></trkpt><trkpt lat="44.8501155" lon="7.3378623"><ele>345.0</ele><time>2026-05-01T11:47:32.623Z</time></trkpt><trkpt lat="44.8502281" lon="7.3379195"><ele>345.2</ele><time>2026-05-01T11:47:33.623Z</time></trkpt><trkpt lat="44.8503368" lon="7.3379769"><ele>345.4</ele><time>2026-05-01T11:47:34.623Z</time></trkpt><trkpt lat="44.8504326" lon="7.3380275"><ele>345.6</ele><time>2026-05-01T11:47:35.623Z</time></trkpt><trkpt lat="44.8505244" lon="7.3380851"><ele>345.8</ele><time>2026-05-01T11:47:36.623Z</time></trkpt><trkpt lat="44.8506046" lon="7.3381558"><ele>346.0</ele><time>2026-05-01T11:47:37.623Z</time></trkpt><trkpt lat="44.8506696" lon="7.33824"><ele>346.0</ele><time>2026-05-01T11:47:38.623Z</time></trkpt><trkpt lat="44.8507203" lon="7.3383424"><ele>346.0</ele><time>2026-05-01T11:47:39.623Z</time></trkpt><trkpt lat="44.8507814" lon="7.3384349"><ele>346.0</ele><time>2026-05-01T11:47:40.623Z</time></trkpt><trkpt lat="44.8508508" lon="7.3384832"><ele>346.0</ele><time>2026-05-01T11:47:41.623Z</time></trkpt><trkpt lat="44.8509292" lon="7.3384942"><ele>346.0</ele><time>2026-05-01T11:47:42.623Z</time></trkpt><trkpt lat="44.8510068" lon="7.3384542"><ele>346.0</ele><time>2026-05-01T11:47:43.623Z</time></trkpt><trkpt lat="44.8510775" lon="7.3383831"><ele>346.4</ele><time>2026-05-01T11:47:44.623Z</time></trkpt><trkpt lat="44.8511587" lon="7.3383057"><ele>346.8</ele><time>2026-05-01T11:47:45.623Z</time></trkpt><trkpt lat="44.851253" lon="7.3382425"><ele>347.2</ele><time>2026-05-01T11:47:46.622Z</time></trkpt><trkpt lat="44.8513477" lon="7.3381837"><ele>347.59999999999997</ele><time>2026-05-01T11:47:47.623Z</time></trkpt><trkpt lat="44.8514434" lon="7.3381198"><ele>348.0</ele><time>2026-05-01T11:47:48.623Z</time></trkpt><trkpt lat="44.85154" lon="7.3380512"><ele>348.0</ele><time>2026-05-01T11:47:49.623Z</time></trkpt><trkpt lat="44.8516481" lon="7.3379841"><ele>348.0</ele><time>2026-05-01T11:47:50.623Z</time></trkpt><trkpt lat="44.8517671" lon="7.3379099"><ele>348.0</ele><time>2026-05-01T11:47:51.623Z</time></trkpt><trkpt lat="44.8518872" lon="7.3378452"><ele>348.0</ele><time>2026-05-01T11:47:52.623Z</time></trkpt><trkpt lat="44.8520095" lon="7.3377822"><ele>348.0</ele><time>2026-05-01T11:47:53.623Z</time></trkpt><trkpt lat="44.8521349" lon="7.3377213"><ele>348.0</ele><time>2026-05-01T11:47:54.623Z</time></trkpt><trkpt lat="44.8522638" lon="7.3376698"><ele>348.0</ele><time>2026-05-01T11:47:55.623Z</time></trkpt><trkpt lat="44.8523999" lon="7.337621"><ele>348.0</ele><time>2026-05-01T11:47:56.623Z</time></trkpt><trkpt lat="44.8525391" lon="7.3375731"><ele>347.0</ele><time>2026-05-01T11:47:57.623Z</time></trkpt><trkpt lat="44.852677" lon="7.3375246"><ele>346.0</ele><time>2026-05-01T11:47:58.623Z</time></trkpt><trkpt lat="44.8528076" lon="7.337479"><ele>345.0</ele><time>2026-05-01T11:47:59.623Z</time></trkpt><trkpt lat="44.8529415" lon="7.3374316"><ele>344.0</ele><time>2026-05-01T11:48:00.623Z</time></trkpt><trkpt lat="44.8530777" lon="7.337384"><ele>344.0</ele><time>2026-05-01T11:48:01.623Z</time></trkpt><trkpt lat="44.8532158" lon="7.3373278"><ele>344.0</ele><time>2026-05-01T11:48:02.623Z</time></trkpt><trkpt lat="44.8533492" lon="7.3372779"><ele>344.0</ele><time>2026-05-01T11:48:03.623Z</time></trkpt><trkpt lat="44.8534756" lon="7.337229"><ele>344.0</ele><time>2026-05-01T11:48:04.623Z</time></trkpt><trkpt lat="44.8536013" lon="7.3371842"><ele>344.25</ele><time>2026-05-01T11:48:05.623Z</time></trkpt><trkpt lat="44.8537189" lon="7.3371422"><ele>344.5</ele><time>2026-05-01T11:48:06.623Z</time></trkpt><trkpt lat="44.8538402" lon="7.3370978"><ele>344.75</ele><time>2026-05-01T11:48:07.623Z</time></trkpt><trkpt lat="44.8539596" lon="7.3370601"><ele>345.0</ele><time>2026-05-01T11:48:08.623Z</time></trkpt><trkpt lat="44.8540784" lon="7.3370183"><ele>345.0</ele><time>2026-05-01T11:48:09.623Z</time></trkpt><trkpt lat="44.8541922" lon="7.3369751"><ele>345.0</ele><time>2026-05-01T11:48:10.622Z</time></trkpt><trkpt lat="44.8543002" lon="7.3369294"><ele>345.0</ele><time>2026-05-01T11:48:11.623Z</time></trkpt><trkpt lat="44.8543992" lon="7.336877"><ele>345.0</ele><time>2026-05-01T11:48:12.623Z</time></trkpt><trkpt lat="44.854498" lon="7.3368269"><ele>345.0</ele><time>2026-05-01T11:48:13.623Z</time></trkpt><trkpt lat="44.8545971" lon="7.3367844"><ele>345.4</ele><time>2026-05-01T11:48:14.623Z</time></trkpt><trkpt lat="44.854701" lon="7.336769"><ele>345.8</ele><time>2026-05-01T11:48:15.623Z</time></trkpt><trkpt lat="44.8547985" lon="7.3367824"><ele>346.20000000000005</ele><time>2026-05-01T11:48:16.623Z</time></trkpt><trkpt lat="44.8548941" lon="7.3368005"><ele>346.6</ele><time>2026-05-01T11:48:17.623Z</time></trkpt><trkpt lat="44.8549835" lon="7.3367814"><ele>347.0</ele><time>2026-05-01T11:48:18.623Z</time></trkpt><trkpt lat="44.8550698" lon="7.3367225"><ele>347.0</ele><time>2026-05-01T11:48:19.623Z</time></trkpt><trkpt lat="44.855165" lon="7.3366462"><ele>347.0</ele><time>2026-05-01T11:48:20.623Z</time></trkpt><trkpt lat="44.8552708" lon="7.3365823"><ele>347.0</ele><time>2026-05-01T11:48:21.623Z</time></trkpt><trkpt lat="44.8553825" lon="7.3365331"><ele>347.0</ele><time>2026-05-01T11:48:22.623Z</time></trkpt><trkpt lat="44.8555001" lon="7.3364834"><ele>347.0</ele><time>2026-05-01T11:48:23.623Z</time></trkpt><trkpt lat="44.8556188" lon="7.3364506"><ele>347.0</ele><time>2026-05-01T11:48:24.623Z</time></trkpt><trkpt lat="44.8557424" lon="7.3364216"><ele>347.0</ele><time>2026-05-01T11:48:25.623Z</time></trkpt><trkpt lat="44.8558689" lon="7.3363913"><ele>347.0</ele><time>2026-05-01T11:48:26.623Z</time></trkpt><trkpt lat="44.8559967" lon="7.3363555"><ele>347.0</ele><time>2026-05-01T11:48:27.623Z</time></trkpt><trkpt lat="44.8561245" lon="7.3363228"><ele>347.0</ele><time>2026-05-01T11:48:28.623Z</time></trkpt><trkpt lat="44.8562581" lon="7.3362862"><ele>347.0</ele><time>2026-05-01T11:48:29.623Z</time></trkpt><trkpt lat="44.8563936" lon="7.3362451"><ele>347.0</ele><time>2026-05-01T11:48:30.623Z</time></trkpt><trkpt lat="44.8565414" lon="7.3362035"><ele>347.0</ele><time>2026-05-01T11:48:31.623Z</time></trkpt><trkpt lat="44.856693" lon="7.3361543"><ele>347.0</ele><time>2026-05-01T11:48:32.623Z</time></trkpt><trkpt lat="44.8568526" lon="7.336101"><ele>347.0</ele><time>2026-05-01T11:48:33.623Z</time></trkpt><trkpt lat="44.8570157" lon="7.3360496"><ele>347.33333333333337</ele><time>2026-05-01T11:48:34.623Z</time></trkpt><trkpt lat="44.8571848" lon="7.335994"><ele>347.6666666666667</ele><time>2026-05-01T11:48:35.623Z</time></trkpt><trkpt lat="44.8573564" lon="7.3359341"><ele>348.0</ele><time>2026-05-01T11:48:36.623Z</time></trkpt><trkpt lat="44.8575409" lon="7.3358666"><ele>348.6666666666667</ele><time>2026-05-01T11:48:37.622Z</time></trkpt><trkpt lat="44.8577193" lon="7.3358064"><ele>349.33333333333337</ele><time>2026-05-01T11:48:38.623Z</time></trkpt><trkpt lat="44.8578836" lon="7.3357489"><ele>350.0</ele><time>2026-05-01T11:48:39.623Z</time></trkpt><trkpt lat="44.8580465" lon="7.3356939"><ele>350.0</ele><time>2026-05-01T11:48:40.623Z</time></trkpt><trkpt lat="44.8581984" lon="7.3356434"><ele>350.0</ele><time>2026-05-01T11:48:41.623Z</time></trkpt><trkpt lat="44.8583419" lon="7.3355946"><ele>350.0</ele><time>2026-05-01T11:48:42.623Z</time></trkpt><trkpt lat="44.8584852" lon="7.3355463"><ele>350.5</ele><time>2026-05-01T11:48:43.623Z</time></trkpt><trkpt lat="44.8586259" lon="7.3355002"><ele>351.0</ele><time>2026-05-01T11:48:44.623Z</time></trkpt><trkpt lat="44.8587659" lon="7.3354565"><ele>351.5</ele><time>2026-05-01T11:48:45.623Z</time></trkpt><trkpt lat="44.8589073" lon="7.335411"><ele>352.0</ele><time>2026-05-01T11:48:46.623Z</time></trkpt><trkpt lat="44.8590481" lon="7.3353635"><ele>352.0</ele><time>2026-05-01T11:48:47.623Z</time></trkpt><trkpt lat="44.8591899" lon="7.3353127"><ele>352.0</ele><time>2026-05-01T11:48:48.623Z</time></trkpt><trkpt lat="44.8593316" lon="7.335262"><ele>352.0</ele><time>2026-05-01T11:48:49.623Z</time></trkpt><trkpt lat="44.8594732" lon="7.3352127"><ele>352.0</ele><time>2026-05-01T11:48:50.623Z</time></trkpt><trkpt lat="44.8596196" lon="7.3351625"><ele>352.66666666666663</ele><time>2026-05-01T11:48:51.623Z</time></trkpt><trkpt lat="44.859766" lon="7.3351129"><ele>353.3333333333333</ele><time>2026-05-01T11:48:52.623Z</time></trkpt><trkpt lat="44.8599146" lon="7.3350664"><ele>354.0</ele><time>2026-05-01T11:48:53.623Z</time></trkpt><trkpt lat="44.8600668" lon="7.3350157"><ele>353.3333333333333</ele><time>2026-05-01T11:48:54.623Z</time></trkpt><trkpt lat="44.8602163" lon="7.3349644"><ele>352.66666666666663</ele><time>2026-05-01T11:48:55.623Z</time></trkpt><trkpt lat="44.8603671" lon="7.3349132"><ele>352.0</ele><time>2026-05-01T11:48:56.623Z</time></trkpt><trkpt lat="44.8605145" lon="7.3348646"><ele>352.0</ele><time>2026-05-01T11:48:57.623Z</time></trkpt><trkpt lat="44.8606624" lon="7.3348128"><ele>352.0</ele><time>2026-05-01T11:48:58.623Z</time></trkpt><trkpt lat="44.8608077" lon="7.3347622"><ele>352.0</ele><time>2026-05-01T11:48:59.623Z</time></trkpt><trkpt lat="44.8609545" lon="7.3347124"><ele>353.0</ele><time>2026-05-01T11:49:00.623Z</time></trkpt><trkpt lat="44.8611045" lon="7.3346601"><ele>354.0</ele><time>2026-05-01T11:49:01.623Z</time></trkpt><trkpt lat="44.8612559" lon="7.3346129"><ele>355.0</ele><time>2026-05-01T11:49:02.623Z</time></trkpt><trkpt lat="44.8614089" lon="7.3345587"><ele>355.0</ele><time>2026-05-01T11:49:03.623Z</time></trkpt><trkpt lat="44.8615623" lon="7.3345091"><ele>355.0</ele><time>2026-05-01T11:49:04.622Z</time></trkpt><trkpt lat="44.8617173" lon="7.334456"><ele>355.0</ele><time>2026-05-01T11:49:05.623Z</time></trkpt><trkpt lat="44.861874" lon="7.3344021"><ele>355.0</ele><time>2026-05-01T11:49:06.623Z</time></trkpt><trkpt lat="44.8620309" lon="7.3343464"><ele>355.0</ele><time>2026-05-01T11:49:07.622Z</time></trkpt><trkpt lat="44.8621869" lon="7.3342912"><ele>355.0</ele><time>2026-05-01T11:49:08.623Z</time></trkpt><trkpt lat="44.862339" lon="7.33424"><ele>355.0</ele><time>2026-05-01T11:49:09.623Z</time></trkpt><trkpt lat="44.8624877" lon="7.3341893"><ele>355.0</ele><time>2026-05-01T11:49:10.623Z</time></trkpt><trkpt lat="44.8626339" lon="7.3341421"><ele>355.0</ele><time>2026-05-01T11:49:11.623Z</time></trkpt><trkpt lat="44.8627771" lon="7.3340938"><ele>354.66666666666663</ele><time>2026-05-01T11:49:12.623Z</time></trkpt><trkpt lat="44.8629223" lon="7.3340479"><ele>354.3333333333333</ele><time>2026-05-01T11:49:13.623Z</time></trkpt><trkpt lat="44.8630687" lon="7.3339996"><ele>354.0</ele><time>2026-05-01T11:49:14.623Z</time></trkpt><trkpt lat="44.8632212" lon="7.3339503"><ele>354.0</ele><time>2026-05-01T11:49:15.623Z</time></trkpt><trkpt lat="44.8633808" lon="7.3339032"><ele>354.0</ele><time>2026-05-01T11:49:16.623Z</time></trkpt><trkpt lat="44.8635433" lon="7.3338613"><ele>354.0</ele><time>2026-05-01T11:49:17.623Z</time></trkpt><trkpt lat="44.8637074" lon="7.3338209"><ele>355.6666666666667</ele><time>2026-05-01T11:49:18.623Z</time></trkpt><trkpt lat="44.8638621" lon="7.333781"><ele>357.33333333333337</ele><time>2026-05-01T11:49:19.623Z</time></trkpt><trkpt lat="44.8640098" lon="7.3337646"><ele>359.0</ele><time>2026-05-01T11:49:20.622Z</time></trkpt><trkpt lat="44.8641554" lon="7.3337859"><ele>358.75</ele><time>2026-05-01T11:49:21.623Z</time></trkpt><trkpt lat="44.8642862" lon="7.3338501"><ele>358.5</ele><time>2026-05-01T11:49:22.623Z</time></trkpt><trkpt lat="44.8644021" lon="7.3339574"><ele>358.25</ele><time>2026-05-01T11:49:23.623Z</time></trkpt><trkpt lat="44.8645067" lon="7.3341114"><ele>358.0</ele><time>2026-05-01T11:49:24.623Z</time></trkpt><trkpt lat="44.8646162" lon="7.3342762"><ele>358.0</ele><time>2026-05-01T11:49:25.623Z</time></trkpt><trkpt lat="44.8647207" lon="7.3344348"><ele>358.0</ele><time>2026-05-01T11:49:26.623Z</time></trkpt><trkpt lat="44.8648157" lon="7.3345728"><ele>358.0</ele><time>2026-05-01T11:49:27.623Z</time></trkpt><trkpt lat="44.8649095" lon="7.3346826"><ele>358.0</ele><time>2026-05-01T11:49:28.623Z</time></trkpt><trkpt lat="44.8650158" lon="7.3347443"><ele>357.75</ele><time>2026-05-01T11:49:29.623Z</time></trkpt><trkpt lat="44.8651368" lon="7.3347621"><ele>357.5</ele><time>2026-05-01T11:49:30.623Z</time></trkpt><trkpt lat="44.8652675" lon="7.3347477"><ele>357.25</ele><time>2026-05-01T11:49:31.623Z</time></trkpt><trkpt lat="44.8653982" lon="7.3347326"><ele>357.0</ele><time>2026-05-01T11:49:32.623Z</time></trkpt><trkpt lat="44.8655214" lon="7.3347371"><ele>357.0</ele><time>2026-05-01T11:49:33.623Z</time></trkpt><trkpt lat="44.8656499" lon="7.3347801"><ele>357.0</ele><time>2026-05-01T11:49:34.623Z</time></trkpt><trkpt lat="44.8657775" lon="7.3348665"><ele>357.0</ele><time>2026-05-01T11:49:35.623Z</time></trkpt><trkpt lat="44.8659059" lon="7.3349925"><ele>357.0</ele><time>2026-05-01T11:49:36.623Z</time></trkpt><trkpt lat="44.8660415" lon="7.3351466"><ele>356.6666666666667</ele><time>2026-05-01T11:49:37.623Z</time></trkpt><trkpt lat="44.8661835" lon="7.3353361"><ele>356.33333333333337</ele><time>2026-05-01T11:49:38.623Z</time></trkpt><trkpt lat="44.8663282" lon="7.3355518"><ele>356.0</ele><time>2026-05-01T11:49:39.623Z</time></trkpt><trkpt lat="44.8664758" lon="7.3357768"><ele>355.6666666666667</ele><time>2026-05-01T11:49:40.623Z</time></trkpt><trkpt lat="44.8666256" lon="7.3359943"><ele>355.3333333333333</ele><time>2026-05-01T11:49:41.623Z</time></trkpt><trkpt lat="44.8667711" lon="7.3362118"><ele>355.0</ele><time>2026-05-01T11:49:42.623Z</time></trkpt><trkpt lat="44.8669253" lon="7.3364353"><ele>355.0</ele><time>2026-05-01T11:49:43.623Z</time></trkpt><trkpt lat="44.8670849" lon="7.3366739"><ele>355.0</ele><time>2026-05-01T11:49:44.623Z</time></trkpt><trkpt lat="44.8672574" lon="7.3369254"><ele>355.0</ele><time>2026-05-01T11:49:45.622Z</time></trkpt><trkpt lat="44.8674392" lon="7.3371838"><ele>355.0</ele><time>2026-05-01T11:49:46.623Z</time></trkpt><trkpt lat="44.8676276" lon="7.3374597"><ele>357.0</ele><time>2026-05-01T11:49:47.623Z</time></trkpt><trkpt lat="44.8678099" lon="7.33775"><ele>359.0</ele><time>2026-05-01T11:49:48.623Z</time></trkpt><trkpt lat="44.86798" lon="7.3380267"><ele>358.5</ele><time>2026-05-01T11:49:49.623Z</time></trkpt><trkpt lat="44.8681431" lon="7.3382942"><ele>358.0</ele><time>2026-05-01T11:49:50.623Z</time></trkpt><trkpt lat="44.868298" lon="7.3385588"><ele>358.0</ele><time>2026-05-01T11:49:51.623Z</time></trkpt><trkpt lat="44.8684428" lon="7.3388307"><ele>358.0</ele><time>2026-05-01T11:49:52.623Z</time></trkpt><trkpt lat="44.8685828" lon="7.3391101"><ele>359.0</ele><time>2026-05-01T11:49:53.623Z</time></trkpt><trkpt lat="44.8687195" lon="7.3393947"><ele>360.0</ele><time>2026-05-01T11:49:54.623Z</time></trkpt><trkpt lat="44.8688496" lon="7.3396838"><ele>357.0</ele><time>2026-05-01T11:49:55.623Z</time></trkpt><trkpt lat="44.8689696" lon="7.3399812"><ele>354.0</ele><time>2026-05-01T11:49:56.623Z</time></trkpt><trkpt lat="44.8690839" lon="7.3402822"><ele>354.0</ele><time>2026-05-01T11:49:57.623Z</time></trkpt><trkpt lat="44.8691841" lon="7.3405847"><ele>354.0</ele><time>2026-05-01T11:49:58.623Z</time></trkpt><trkpt lat="44.8692777" lon="7.3408855"><ele>355.5</ele><time>2026-05-01T11:49:59.623Z</time></trkpt><trkpt lat="44.8693669" lon="7.3411806"><ele>357.0</ele><time>2026-05-01T11:50:00.623Z</time></trkpt><trkpt lat="44.8694553" lon="7.3414687"><ele>357.0</ele><time>2026-05-01T11:50:01.623Z</time></trkpt><trkpt lat="44.8695417" lon="7.3417607"><ele>357.0</ele><time>2026-05-01T11:50:02.623Z</time></trkpt><trkpt lat="44.8696286" lon="7.3420571"><ele>356.3333333333333</ele><time>2026-05-01T11:50:03.623Z</time></trkpt><trkpt lat="44.8697143" lon="7.3423475"><ele>355.66666666666663</ele><time>2026-05-01T11:50:04.623Z</time></trkpt><trkpt lat="44.8697937" lon="7.3426308"><ele>355.0</ele><time>2026-05-01T11:50:05.623Z</time></trkpt><trkpt lat="44.8698744" lon="7.3429101"><ele>355.3333333333333</ele><time>2026-05-01T11:50:06.623Z</time></trkpt><trkpt lat="44.8699525" lon="7.3431896"><ele>355.6666666666667</ele><time>2026-05-01T11:50:07.622Z</time></trkpt><trkpt lat="44.8700282" lon="7.3434751"><ele>356.0</ele><time>2026-05-01T11:50:08.623Z</time></trkpt><trkpt lat="44.8700985" lon="7.3437674"><ele>355.33333333333337</ele><time>2026-05-01T11:50:09.623Z</time></trkpt><trkpt lat="44.8701645" lon="7.3440584"><ele>354.6666666666667</ele><time>2026-05-01T11:50:10.623Z</time></trkpt><trkpt lat="44.8702219" lon="7.3443603"><ele>354.0</ele><time>2026-05-01T11:50:11.623Z</time></trkpt><trkpt lat="44.8702734" lon="7.3446698"><ele>354.5</ele><time>2026-05-01T11:50:12.623Z</time></trkpt><trkpt lat="44.8703226" lon="7.3449817"><ele>355.0</ele><time>2026-05-01T11:50:13.623Z</time></trkpt><trkpt lat="44.8703721" lon="7.3452932"><ele>354.66666666666663</ele><time>2026-05-01T11:50:14.623Z</time></trkpt><trkpt lat="44.8704181" lon="7.3456075"><ele>354.3333333333333</ele><time>2026-05-01T11:50:15.623Z</time></trkpt><trkpt lat="44.870472" lon="7.3459111"><ele>354.0</ele><time>2026-05-01T11:50:16.623Z</time></trkpt><trkpt lat="44.8705283" lon="7.346208"><ele>353.3333333333333</ele><time>2026-05-01T11:50:17.623Z</time></trkpt><trkpt lat="44.8705931" lon="7.3465056"><ele>352.66666666666663</ele><time>2026-05-01T11:50:18.623Z</time></trkpt><trkpt lat="44.8706671" lon="7.346806"><ele>352.0</ele><time>2026-05-01T11:50:19.623Z</time></trkpt><trkpt lat="44.8707555" lon="7.347102"><ele>352.0</ele><time>2026-05-01T11:50:20.623Z</time></trkpt><trkpt lat="44.8708597" lon="7.3473928"><ele>352.0</ele><time>2026-05-01T11:50:21.622Z</time></trkpt><trkpt lat="44.8709787" lon="7.3476763"><ele>352.0</ele><time>2026-05-01T11:50:22.623Z</time></trkpt><trkpt lat="44.8711117" lon="7.3479464"><ele>352.0</ele><time>2026-05-01T11:50:23.623Z</time></trkpt><trkpt lat="44.8712593" lon="7.3481912"><ele>351.5</ele><time>2026-05-01T11:50:24.623Z</time></trkpt><trkpt lat="44.8714204" lon="7.3484219"><ele>351.0</ele><time>2026-05-01T11:50:25.622Z</time></trkpt><trkpt lat="44.8715934" lon="7.3486287"><ele>349.5</ele><time>2026-05-01T11:50:26.623Z</time></trkpt><trkpt lat="44.8717808" lon="7.3488091"><ele>348.0</ele><time>2026-05-01T11:50:27.623Z</time></trkpt><trkpt lat="44.8719766" lon="7.3489699"><ele>348.0</ele><time>2026-05-01T11:50:28.622Z</time></trkpt><trkpt lat="44.8721827" lon="7.3491124"><ele>348.0</ele><time>2026-05-01T11:50:29.623Z</time></trkpt><trkpt lat="44.8723941" lon="7.3492548"><ele>348.0</ele><time>2026-05-01T11:50:30.623Z</time></trkpt><trkpt lat="44.8726047" lon="7.3493972"><ele>348.0</ele><time>2026-05-01T11:50:31.623Z</time></trkpt><trkpt lat="44.8728062" lon="7.3495454"><ele>349.0</ele><time>2026-05-01T11:50:32.623Z</time></trkpt><trkpt lat="44.8730053" lon="7.3497003"><ele>350.0</ele><time>2026-05-01T11:50:33.623Z</time></trkpt><trkpt lat="44.8732051" lon="7.3498557"><ele>350.0</ele><time>2026-05-01T11:50:34.622Z</time></trkpt><trkpt lat="44.8733997" lon="7.3500258"><ele>350.0</ele><time>2026-05-01T11:50:35.623Z</time></trkpt><trkpt lat="44.8735889" lon="7.3502097"><ele>349.5</ele><time>2026-05-01T11:50:36.623Z</time></trkpt><trkpt lat="44.8737763" lon="7.350395"><ele>349.0</ele><time>2026-05-01T11:50:37.623Z</time></trkpt><trkpt lat="44.8739633" lon="7.3505809"><ele>349.0</ele><time>2026-05-01T11:50:38.622Z</time></trkpt><trkpt lat="44.8741501" lon="7.3507702"><ele>349.0</ele><time>2026-05-01T11:50:39.623Z</time></trkpt><trkpt lat="44.8743404" lon="7.3509569"><ele>347.5</ele><time>2026-05-01T11:50:40.623Z</time></trkpt><trkpt lat="44.8745332" lon="7.3511434"><ele>346.0</ele><time>2026-05-01T11:50:41.623Z</time></trkpt><trkpt lat="44.8747211" lon="7.351334"><ele>346.0</ele><time>2026-05-01T11:50:42.623Z</time></trkpt><trkpt lat="44.8749145" lon="7.351522"><ele>346.0</ele><time>2026-05-01T11:50:43.623Z</time></trkpt><trkpt lat="44.8751061" lon="7.3517162"><ele>346.0</ele><time>2026-05-01T11:50:44.623Z</time></trkpt><trkpt lat="44.8752968" lon="7.3519093"><ele>346.0</ele><time>2026-05-01T11:50:45.622Z</time></trkpt><trkpt lat="44.8754847" lon="7.3521019"><ele>346.5</ele><time>2026-05-01T11:50:46.623Z</time></trkpt><trkpt lat="44.8756762" lon="7.352296"><ele>347.0</ele><time>2026-05-01T11:50:47.623Z</time></trkpt><trkpt lat="44.8758682" lon="7.3524859"><ele>346.0</ele><time>2026-05-01T11:50:48.623Z</time></trkpt><trkpt lat="44.8760505" lon="7.3526695"><ele>345.0</ele><time>2026-05-01T11:50:49.623Z</time></trkpt><trkpt lat="44.8762274" lon="7.3528496"><ele>344.0</ele><time>2026-05-01T11:50:50.623Z</time></trkpt><trkpt lat="44.8764045" lon="7.3530267"><ele>344.33333333333337</ele><time>2026-05-01T11:50:51.623Z</time></trkpt><trkpt lat="44.8765769" lon="7.353201"><ele>344.6666666666667</ele><time>2026-05-01T11:50:52.622Z</time></trkpt><trkpt lat="44.876748" lon="7.3533806"><ele>345.0</ele><time>2026-05-01T11:50:53.623Z</time></trkpt><trkpt lat="44.8769059" lon="7.3535672"><ele>345.0</ele><time>2026-05-01T11:50:54.622Z</time></trkpt><trkpt lat="44.8770563" lon="7.3537506"><ele>345.0</ele><time>2026-05-01T11:50:55.623Z</time></trkpt><trkpt lat="44.8772071" lon="7.3539349"><ele>345.0</ele><time>2026-05-01T11:50:56.623Z</time></trkpt><trkpt lat="44.8773626" lon="7.3541227"><ele>345.3333333333333</ele><time>2026-05-01T11:50:57.623Z</time></trkpt><trkpt lat="44.877512" lon="7.3543027"><ele>345.66666666666663</ele><time>2026-05-01T11:50:58.623Z</time></trkpt><trkpt lat="44.8776607" lon="7.3544785"><ele>346.0</ele><time>2026-05-01T11:50:59.623Z</time></trkpt><trkpt lat="44.8778092" lon="7.3546495"><ele>345.3333333333333</ele><time>2026-05-01T11:51:00.623Z</time></trkpt><trkpt lat="44.8779549" lon="7.354815"><ele>344.6666666666667</ele><time>2026-05-01T11:51:01.623Z</time></trkpt><trkpt lat="44.8781008" lon="7.3549735"><ele>344.0</ele><time>2026-05-01T11:51:02.623Z</time></trkpt><trkpt lat="44.8782471" lon="7.3551304"><ele>344.0</ele><time>2026-05-01T11:51:03.623Z</time></trkpt><trkpt lat="44.8783924" lon="7.3552896"><ele>344.0</ele><time>2026-05-01T11:51:04.623Z</time></trkpt><trkpt lat="44.8785365" lon="7.355454"><ele>344.0</ele><time>2026-05-01T11:51:05.623Z</time></trkpt><trkpt lat="44.8786842" lon="7.3556194"><ele>344.0</ele><time>2026-05-01T11:51:06.623Z</time></trkpt><trkpt lat="44.8788264" lon="7.3557897"><ele>344.0</ele><time>2026-05-01T11:51:07.623Z</time></trkpt><trkpt lat="44.8789591" lon="7.3559516"><ele>344.0</ele><time>2026-05-01T11:51:08.622Z</time></trkpt><trkpt lat="44.8790825" lon="7.3561091"><ele>344.0</ele><time>2026-05-01T11:51:09.623Z</time></trkpt><trkpt lat="44.8791962" lon="7.3562529"><ele>344.0</ele><time>2026-05-01T11:51:10.623Z</time></trkpt><trkpt lat="44.8792976" lon="7.3563848"><ele>344.0</ele><time>2026-05-01T11:51:11.623Z</time></trkpt><trkpt lat="44.8793839" lon="7.3565072"><ele>344.0</ele><time>2026-05-01T11:51:12.623Z</time></trkpt><trkpt lat="44.8794534" lon="7.3566242"><ele>344.0</ele><time>2026-05-01T11:51:13.623Z</time></trkpt><trkpt lat="44.8795015" lon="7.3567418"><ele>344.0</ele><time>2026-05-01T11:51:14.623Z</time></trkpt><trkpt lat="44.8795392" lon="7.3568927"><ele>344.0</ele><time>2026-05-01T11:51:15.623Z</time></trkpt><trkpt lat="44.8795576" lon="7.3570591"><ele>344.0</ele><time>2026-05-01T11:51:16.623Z</time></trkpt><trkpt lat="44.8795748" lon="7.3572417"><ele>344.0</ele><time>2026-05-01T11:51:17.623Z</time></trkpt><trkpt lat="44.8796136" lon="7.3574239"><ele>344.0</ele><time>2026-05-01T11:51:18.623Z</time></trkpt><trkpt lat="44.8796624" lon="7.35759"><ele>344.0</ele><time>2026-05-01T11:51:19.622Z</time></trkpt><trkpt lat="44.8797293" lon="7.3577459"><ele>344.0</ele><time>2026-05-01T11:51:20.623Z</time></trkpt><trkpt lat="44.8798127" lon="7.3578802"><ele>344.0</ele><time>2026-05-01T11:51:21.623Z</time></trkpt><trkpt lat="44.8799121" lon="7.3579927"><ele>344.0</ele><time>2026-05-01T11:51:22.623Z</time></trkpt><trkpt lat="44.8800341" lon="7.3580784"><ele>344.0</ele><time>2026-05-01T11:51:23.623Z</time></trkpt><trkpt lat="44.8801723" lon="7.358132"><ele>344.0</ele><time>2026-05-01T11:51:24.623Z</time></trkpt><trkpt lat="44.8803184" lon="7.3581603"><ele>343.6666666666667</ele><time>2026-05-01T11:51:25.623Z</time></trkpt><trkpt lat="44.8804712" lon="7.3581616"><ele>343.3333333333333</ele><time>2026-05-01T11:51:26.623Z</time></trkpt><trkpt lat="44.880621" lon="7.3580916"><ele>343.0</ele><time>2026-05-01T11:51:27.623Z</time></trkpt><trkpt lat="44.8807498" lon="7.3580096"><ele>343.0</ele><time>2026-05-01T11:51:28.623Z</time></trkpt><trkpt lat="44.8808543" lon="7.3578731"><ele>343.0</ele><time>2026-05-01T11:51:29.622Z</time></trkpt><trkpt lat="44.8809487" lon="7.3577122"><ele>343.0</ele><time>2026-05-01T11:51:30.623Z</time></trkpt><trkpt lat="44.8810241" lon="7.3575304"><ele>343.0</ele><time>2026-05-01T11:51:31.623Z</time></trkpt><trkpt lat="44.881073" lon="7.3573274"><ele>343.25</ele><time>2026-05-01T11:51:32.623Z</time></trkpt><trkpt lat="44.8810921" lon="7.3571203"><ele>343.5</ele><time>2026-05-01T11:51:33.623Z</time></trkpt><trkpt lat="44.8810774" lon="7.3569097"><ele>343.75</ele><time>2026-05-01T11:51:34.623Z</time></trkpt><trkpt lat="44.8810315" lon="7.3567088"><ele>344.0</ele><time>2026-05-01T11:51:35.622Z</time></trkpt><trkpt lat="44.8809624" lon="7.3565152"><ele>343.6666666666667</ele><time>2026-05-01T11:51:36.622Z</time></trkpt><trkpt lat="44.8808687" lon="7.356328"><ele>343.3333333333333</ele><time>2026-05-01T11:51:37.623Z</time></trkpt><trkpt lat="44.8807642" lon="7.3561766"><ele>343.0</ele><time>2026-05-01T11:51:38.623Z</time></trkpt><trkpt lat="44.8806545" lon="7.3560543"><ele>343.0</ele><time>2026-05-01T11:51:39.622Z</time></trkpt><trkpt lat="44.880562" lon="7.3559315"><ele>343.0</ele><time>2026-05-01T11:51:40.623Z</time></trkpt><trkpt lat="44.8804942" lon="7.3558004"><ele>343.0</ele><time>2026-05-01T11:51:41.623Z</time></trkpt><trkpt lat="44.8804554" lon="7.3556519"><ele>343.0</ele><time>2026-05-01T11:51:42.622Z</time></trkpt><trkpt lat="44.8804489" lon="7.3554834"><ele>343.25</ele><time>2026-05-01T11:51:43.623Z</time></trkpt><trkpt lat="44.8804758" lon="7.3552956"><ele>343.5</ele><time>2026-05-01T11:51:44.623Z</time></trkpt><trkpt lat="44.8805392" lon="7.3551091"><ele>343.75</ele><time>2026-05-01T11:51:45.623Z</time></trkpt><trkpt lat="44.880637" lon="7.3549424"><ele>344.0</ele><time>2026-05-01T11:51:46.623Z</time></trkpt><trkpt lat="44.880766" lon="7.3548149"><ele>344.0</ele><time>2026-05-01T11:51:47.623Z</time></trkpt><trkpt lat="44.8809226" lon="7.3547127"><ele>344.0</ele><time>2026-05-01T11:51:48.623Z</time></trkpt><trkpt lat="44.8810829" lon="7.3546137"><ele>344.0</ele><time>2026-05-01T11:51:49.623Z</time></trkpt><trkpt lat="44.8812264" lon="7.3544809"><ele>344.0</ele><time>2026-05-01T11:51:50.623Z</time></trkpt><trkpt lat="44.8813607" lon="7.3543111"><ele>344.0</ele><time>2026-05-01T11:51:51.623Z</time></trkpt><trkpt lat="44.8814745" lon="7.3540912"><ele>344.0</ele><time>2026-05-01T11:51:52.622Z</time></trkpt><trkpt lat="44.8815686" lon="7.3538484"><ele>344.33333333333337</ele><time>2026-05-01T11:51:53.623Z</time></trkpt><trkpt lat="44.8816485" lon="7.3536025"><ele>344.6666666666667</ele><time>2026-05-01T11:51:54.623Z</time></trkpt><trkpt lat="44.8817233" lon="7.3533795"><ele>345.0</ele><time>2026-05-01T11:51:55.623Z</time></trkpt><trkpt lat="44.8817982" lon="7.3531764"><ele>345.5</ele><time>2026-05-01T11:51:56.623Z</time></trkpt><trkpt lat="44.8818688" lon="7.3530021"><ele>346.0</ele><time>2026-05-01T11:51:57.623Z</time></trkpt><trkpt lat="44.8819308" lon="7.352857"><ele>346.5</ele><time>2026-05-01T11:51:58.623Z</time></trkpt><trkpt lat="44.8820027" lon="7.3527472"><ele>347.0</ele><time>2026-05-01T11:51:59.623Z</time></trkpt><trkpt lat="44.8820907" lon="7.3526808"><ele>347.0</ele><time>2026-05-01T11:52:00.623Z</time></trkpt><trkpt lat="44.8821874" lon="7.3526548"><ele>347.0</ele><time>2026-05-01T11:52:01.623Z</time></trkpt><trkpt lat="44.882278" lon="7.3526347"><ele>347.0</ele><time>2026-05-01T11:52:02.623Z</time></trkpt><trkpt lat="44.8823553" lon="7.3525831"><ele>347.0</ele><time>2026-05-01T11:52:03.623Z</time></trkpt><trkpt lat="44.8824127" lon="7.352499"><ele>347.0</ele><time>2026-05-01T11:52:04.623Z</time></trkpt><trkpt lat="44.8824384" lon="7.3523892"><ele>347.0</ele><time>2026-05-01T11:52:05.623Z</time></trkpt><trkpt lat="44.8824243" lon="7.3522775"><ele>347.33333333333337</ele><time>2026-05-01T11:52:06.623Z</time></trkpt><trkpt lat="44.8823796" lon="7.3521886"><ele>347.6666666666667</ele><time>2026-05-01T11:52:07.622Z</time></trkpt><trkpt lat="44.8823298" lon="7.3521059"><ele>348.0</ele><time>2026-05-01T11:52:08.623Z</time></trkpt><trkpt lat="44.8822923" lon="7.3520149"><ele>348.3333333333333</ele><time>2026-05-01T11:52:09.623Z</time></trkpt><trkpt lat="44.8822866" lon="7.3519085"><ele>348.66666666666663</ele><time>2026-05-01T11:52:10.623Z</time></trkpt><trkpt lat="44.882307" lon="7.3518065"><ele>349.0</ele><time>2026-05-01T11:52:11.623Z</time></trkpt><trkpt lat="44.8823423" lon="7.3517033"><ele>349.0</ele><time>2026-05-01T11:52:12.623Z</time></trkpt><trkpt lat="44.8823846" lon="7.3515974"><ele>349.0</ele><time>2026-05-01T11:52:13.623Z</time></trkpt><trkpt lat="44.8824284" lon="7.351492"><ele>349.0</ele><time>2026-05-01T11:52:14.623Z</time></trkpt><trkpt lat="44.8824734" lon="7.351385"><ele>349.0</ele><time>2026-05-01T11:52:15.623Z</time></trkpt><trkpt lat="44.8825225" lon="7.3512834"><ele>349.0</ele><time>2026-05-01T11:52:16.623Z</time></trkpt><trkpt lat="44.88257" lon="7.3511756"><ele>349.0</ele><time>2026-05-01T11:52:17.623Z</time></trkpt><trkpt lat="44.8826193" lon="7.3510664"><ele>349.6</ele><time>2026-05-01T11:52:18.623Z</time></trkpt><trkpt lat="44.8826719" lon="7.3509482"><ele>350.2</ele><time>2026-05-01T11:52:19.623Z</time></trkpt><trkpt lat="44.8827267" lon="7.3508212"><ele>350.8</ele><time>2026-05-01T11:52:20.623Z</time></trkpt><trkpt lat="44.8827865" lon="7.3506795"><ele>351.40000000000003</ele><time>2026-05-01T11:52:21.623Z</time></trkpt><trkpt lat="44.8828482" lon="7.3505398"><ele>352.0</ele><time>2026-05-01T11:52:22.623Z</time></trkpt><trkpt lat="44.8829101" lon="7.3503934"><ele>352.5</ele><time>2026-05-01T11:52:23.623Z</time></trkpt><trkpt lat="44.8829747" lon="7.3502492"><ele>353.0</ele><time>2026-05-01T11:52:24.623Z</time></trkpt><trkpt lat="44.8830346" lon="7.3501104"><ele>353.5</ele><time>2026-05-01T11:52:25.623Z</time></trkpt><trkpt lat="44.8830944" lon="7.3499761"><ele>354.0</ele><time>2026-05-01T11:52:26.623Z</time></trkpt><trkpt lat="44.8831528" lon="7.3498392"><ele>354.0</ele><time>2026-05-01T11:52:27.623Z</time></trkpt><trkpt lat="44.8832087" lon="7.3497046"><ele>354.0</ele><time>2026-05-01T11:52:28.623Z</time></trkpt><trkpt lat="44.8832657" lon="7.3495651"><ele>354.0</ele><time>2026-05-01T11:52:29.623Z</time></trkpt><trkpt lat="44.88332" lon="7.3494333"><ele>354.0</ele><time>2026-05-01T11:52:30.623Z</time></trkpt><trkpt lat="44.8833762" lon="7.3493032"><ele>354.0</ele><time>2026-05-01T11:52:31.623Z</time></trkpt><trkpt lat="44.8834334" lon="7.3491736"><ele>354.2</ele><time>2026-05-01T11:52:32.623Z</time></trkpt><trkpt lat="44.8834915" lon="7.3490442"><ele>354.4</ele><time>2026-05-01T11:52:33.622Z</time></trkpt><trkpt lat="44.8835518" lon="7.3489152"><ele>354.6</ele><time>2026-05-01T11:52:34.623Z</time></trkpt><trkpt lat="44.8836072" lon="7.3487849"><ele>354.8</ele><time>2026-05-01T11:52:35.623Z</time></trkpt><trkpt lat="44.8836653" lon="7.3486493"><ele>355.0</ele><time>2026-05-01T11:52:36.623Z</time></trkpt><trkpt lat="44.883725" lon="7.3485126"><ele>355.5</ele><time>2026-05-01T11:52:37.623Z</time></trkpt><trkpt lat="44.8837869" lon="7.348369"><ele>356.0</ele><time>2026-05-01T11:52:38.623Z</time></trkpt><trkpt lat="44.8838499" lon="7.3482291"><ele>356.5</ele><time>2026-05-01T11:52:39.623Z</time></trkpt><trkpt lat="44.8839108" lon="7.3480818"><ele>357.0</ele><time>2026-05-01T11:52:40.623Z</time></trkpt><trkpt lat="44.8839726" lon="7.3479348"><ele>357.0</ele><time>2026-05-01T11:52:41.623Z</time></trkpt><trkpt lat="44.8840359" lon="7.3477837"><ele>357.0</ele><time>2026-05-01T11:52:42.623Z</time></trkpt><trkpt lat="44.8840996" lon="7.347638"><ele>357.0</ele><time>2026-05-01T11:52:43.623Z</time></trkpt><trkpt lat="44.8841635" lon="7.3474871"><ele>357.0</ele><time>2026-05-01T11:52:44.623Z</time></trkpt><trkpt lat="44.8842304" lon="7.347333"><ele>357.25</ele><time>2026-05-01T11:52:45.623Z</time></trkpt><trkpt lat="44.8842943" lon="7.3471815"><ele>357.5</ele><time>2026-05-01T11:52:46.623Z</time></trkpt><trkpt lat="44.8843556" lon="7.3470326"><ele>357.75</ele><time>2026-05-01T11:52:47.623Z</time></trkpt><trkpt lat="44.8844159" lon="7.3468994"><ele>358.0</ele><time>2026-05-01T11:52:48.623Z</time></trkpt><trkpt lat="44.8844731" lon="7.3467679"><ele>358.0</ele><time>2026-05-01T11:52:49.623Z</time></trkpt><trkpt lat="44.8845319" lon="7.3466352"><ele>358.0</ele><time>2026-05-01T11:52:50.623Z</time></trkpt><trkpt lat="44.8845984" lon="7.3465016"><ele>358.0</ele><time>2026-05-01T11:52:51.623Z</time></trkpt><trkpt lat="44.884655" lon="7.3463697"><ele>358.0</ele><time>2026-05-01T11:52:52.623Z</time></trkpt><trkpt lat="44.8847068" lon="7.3462524"><ele>358.0</ele><time>2026-05-01T11:52:53.623Z</time></trkpt><trkpt lat="44.8847558" lon="7.3461475"><ele>358.66666666666663</ele><time>2026-05-01T11:52:54.623Z</time></trkpt><trkpt lat="44.8848061" lon="7.3460503"><ele>359.3333333333333</ele><time>2026-05-01T11:52:55.623Z</time></trkpt><trkpt lat="44.8848588" lon="7.3459672"><ele>360.0</ele><time>2026-05-01T11:52:56.623Z</time></trkpt><trkpt lat="44.8849355" lon="7.3459126"><ele>360.6666666666667</ele><time>2026-05-01T11:52:57.623Z</time></trkpt><trkpt lat="44.8850164" lon="7.3458716"><ele>361.33333333333337</ele><time>2026-05-01T11:52:58.623Z</time></trkpt><trkpt lat="44.8851092" lon="7.3458569"><ele>362.0</ele><time>2026-05-01T11:52:59.623Z</time></trkpt><trkpt lat="44.8852292" lon="7.3458613"><ele>362.0</ele><time>2026-05-01T11:53:00.623Z</time></trkpt><trkpt lat="44.8853535" lon="7.3458696"><ele>362.0</ele><time>2026-05-01T11:53:01.622Z</time></trkpt><trkpt lat="44.8855254" lon="7.3459009"><ele>362.0</ele><time>2026-05-01T11:53:02.623Z</time></trkpt><trkpt lat="44.885712" lon="7.3459253"><ele>362.0</ele><time>2026-05-01T11:53:03.623Z</time></trkpt><trkpt lat="44.8858758" lon="7.3459504"><ele>362.0</ele><time>2026-05-01T11:53:04.623Z</time></trkpt><trkpt lat="44.886032" lon="7.345972"><ele>362.0</ele><time>2026-05-01T11:53:05.623Z</time></trkpt><trkpt lat="44.8861804" lon="7.345992"><ele>361.75</ele><time>2026-05-01T11:53:06.623Z</time></trkpt><trkpt lat="44.8863106" lon="7.3460105"><ele>361.5</ele><time>2026-05-01T11:53:07.623Z</time></trkpt><trkpt lat="44.8864311" lon="7.3460292"><ele>361.25</ele><time>2026-05-01T11:53:08.623Z</time></trkpt><trkpt lat="44.8865426" lon="7.3460441"><ele>361.0</ele><time>2026-05-01T11:53:09.623Z</time></trkpt><trkpt lat="44.886653" lon="7.3460637"><ele>361.0</ele><time>2026-05-01T11:53:10.623Z</time></trkpt><trkpt lat="44.8867546" lon="7.3460807"><ele>361.0</ele><time>2026-05-01T11:53:11.623Z</time></trkpt><trkpt lat="44.8868502" lon="7.3460942"><ele>361.0</ele><time>2026-05-01T11:53:12.622Z</time></trkpt><trkpt lat="44.8869341" lon="7.346106"><ele>361.0</ele><time>2026-05-01T11:53:13.623Z</time></trkpt><trkpt lat="44.8869991" lon="7.3461096"><ele>361.0</ele><time>2026-05-01T11:53:14.623Z</time></trkpt><trkpt lat="44.8870843" lon="7.346125"><ele>361.0</ele><time>2026-05-01T11:53:16.623Z</time></trkpt><trkpt lat="44.8871477" lon="7.346087"><ele>361.0</ele><time>2026-05-01T11:53:19.623Z</time></trkpt><trkpt lat="44.887155" lon="7.3459717"><ele>361.0</ele><time>2026-05-01T11:53:21.623Z</time></trkpt><trkpt lat="44.8871368" lon="7.3458628"><ele>361.0</ele><time>2026-05-01T11:53:22.623Z</time></trkpt><trkpt lat="44.8871228" lon="7.3457473"><ele>361.0</ele><time>2026-05-01T11:53:23.623Z</time></trkpt><trkpt lat="44.8871028" lon="7.3456159"><ele>361.0</ele><time>2026-05-01T11:53:24.623Z</time></trkpt><trkpt lat="44.8870828" lon="7.3454725"><ele>361.0</ele><time>2026-05-01T11:53:25.623Z</time></trkpt><trkpt lat="44.8870582" lon="7.3453196"><ele>361.25</ele><time>2026-05-01T11:53:26.623Z</time></trkpt><trkpt lat="44.8870334" lon="7.3451769"><ele>361.5</ele><time>2026-05-01T11:53:27.623Z</time></trkpt><trkpt lat="44.8870075" lon="7.3450179"><ele>361.75</ele><time>2026-05-01T11:53:28.623Z</time></trkpt><trkpt lat="44.8869834" lon="7.3448554"><ele>362.0</ele><time>2026-05-01T11:53:29.623Z</time></trkpt><trkpt lat="44.8869605" lon="7.3446911"><ele>362.20000000000005</ele><time>2026-05-01T11:53:30.623Z</time></trkpt><trkpt lat="44.8869399" lon="7.3445296"><ele>362.4</ele><time>2026-05-01T11:53:31.623Z</time></trkpt><trkpt lat="44.8869171" lon="7.3443803"><ele>362.6</ele><time>2026-05-01T11:53:32.623Z</time></trkpt><trkpt lat="44.8868964" lon="7.3442358"><ele>362.79999999999995</ele><time>2026-05-01T11:53:33.623Z</time></trkpt><trkpt lat="44.8868823" lon="7.3441026"><ele>363.0</ele><time>2026-05-01T11:53:34.623Z</time></trkpt><trkpt lat="44.8868696" lon="7.3439811"><ele>363.0</ele><time>2026-05-01T11:53:35.623Z</time></trkpt><trkpt lat="44.8868539" lon="7.3438591"><ele>364.0</ele><time>2026-05-01T11:53:36.623Z</time></trkpt><trkpt lat="44.8868425" lon="7.3437365"><ele>364.0</ele><time>2026-05-01T11:53:37.623Z</time></trkpt><trkpt lat="44.8868334" lon="7.3436233"><ele>364.0</ele><time>2026-05-01T11:53:38.623Z</time></trkpt><trkpt lat="44.8868223" lon="7.3435223"><ele>364.0</ele><time>2026-05-01T11:53:39.623Z</time></trkpt><trkpt lat="44.886802" lon="7.3433745"><ele>364.0</ele><time>2026-05-01T11:53:41.623Z</time></trkpt></trkseg></trk></gpx>